<?xml version="1.0" encoding="UTF-8" standalone="no" ?>
<gpx xmlns="http://www.topografix.com/GPX/1/1" xmlns:xsi="http://www.w3.org/2001/XMLSchema-instance" xsi:schemaLocation="http://www.topografix.com/GPX/1/1 http://www.topografix.com/GPX/1/1/gpx.xsd" version="1.1" creator="VisuGPX - https://www.visugpx.com">
  <metadata>
    <name>SEE 2014 mix</name>
    <desc><![CDATA[montahut   
  les pylones

on se fait 2 très belles spéciales dans le caroux avec montahut et son portage pour finir par les pylones]]></desc>
  </metadata>
  <trk>
    <name><![CDATA[Moutahut-pylones]]></name>
    <trkseg>
      <trkpt lat="43.56414" lon="2.94215">
        <ele>164</ele>
      </trkpt>
      <trkpt lat="43.56457" lon="2.94097">
        <ele>163</ele>
      </trkpt>
      <trkpt lat="43.56479" lon="2.94132">
        <ele>164</ele>
      </trkpt>
      <trkpt lat="43.56445" lon="2.94179">
        <ele>166</ele>
      </trkpt>
      <trkpt lat="43.56443" lon="2.94203">
        <ele>167</ele>
      </trkpt>
      <trkpt lat="43.56533" lon="2.94206">
        <ele>172</ele>
      </trkpt>
      <trkpt lat="43.56559" lon="2.94197">
        <ele>173</ele>
        <time>2014-01-18T07:17:17Z</time>
      </trkpt>
      <trkpt lat="43.56558" lon="2.94179">
        <ele>172</ele>
        <time>2014-01-18T07:17:20Z</time>
      </trkpt>
      <trkpt lat="43.56555" lon="2.9415">
        <ele>169</ele>
        <time>2014-01-18T07:17:24Z</time>
      </trkpt>
      <trkpt lat="43.56554" lon="2.94142">
        <ele>169</ele>
        <time>2014-01-18T07:17:25Z</time>
      </trkpt>
      <trkpt lat="43.56545" lon="2.9409">
        <ele>167</ele>
        <time>2014-01-18T07:17:32Z</time>
      </trkpt>
      <trkpt lat="43.56543" lon="2.94083">
        <ele>166</ele>
        <time>2014-01-18T07:17:33Z</time>
      </trkpt>
      <trkpt lat="43.56542" lon="2.94076">
        <ele>166</ele>
        <time>2014-01-18T07:17:34Z</time>
      </trkpt>
      <trkpt lat="43.56536" lon="2.9405">
        <ele>167</ele>
        <time>2014-01-18T07:17:38Z</time>
      </trkpt>
      <trkpt lat="43.56531" lon="2.94029">
        <ele>167</ele>
        <time>2014-01-18T07:17:41Z</time>
      </trkpt>
      <trkpt lat="43.56527" lon="2.94016">
        <ele>167</ele>
        <time>2014-01-18T07:17:43Z</time>
      </trkpt>
      <trkpt lat="43.56518" lon="2.93982">
        <ele>172</ele>
        <time>2014-01-18T07:17:48Z</time>
      </trkpt>
      <trkpt lat="43.56504" lon="2.93932">
        <ele>177</ele>
        <time>2014-01-18T07:17:55Z</time>
      </trkpt>
      <trkpt lat="43.56493" lon="2.93874">
        <ele>171</ele>
        <time>2014-01-18T07:18:03Z</time>
      </trkpt>
      <trkpt lat="43.56486" lon="2.93827">
        <ele>171</ele>
        <time>2014-01-18T07:18:10Z</time>
      </trkpt>
      <trkpt lat="43.56482" lon="2.93802">
        <ele>168</ele>
        <time>2014-01-18T07:18:15Z</time>
      </trkpt>
      <trkpt lat="43.56481" lon="2.93798">
        <ele>168</ele>
        <time>2014-01-18T07:18:19Z</time>
      </trkpt>
      <trkpt lat="43.56481" lon="2.93797">
        <ele>168</ele>
        <time>2014-01-18T07:18:21Z</time>
      </trkpt>
      <trkpt lat="43.56479" lon="2.93792">
        <ele>167</ele>
        <time>2014-01-18T07:18:25Z</time>
      </trkpt>
      <trkpt lat="43.56479" lon="2.9379">
        <ele>167</ele>
        <time>2014-01-18T07:18:27Z</time>
      </trkpt>
      <trkpt lat="43.56479" lon="2.9379">
        <ele>167</ele>
        <time>2014-01-18T07:18:30Z</time>
      </trkpt>
      <trkpt lat="43.56478" lon="2.93787">
        <ele>167</ele>
        <time>2014-01-18T07:18:32Z</time>
      </trkpt>
      <trkpt lat="43.56477" lon="2.93785">
        <ele>167</ele>
        <time>2014-01-18T07:18:33Z</time>
      </trkpt>
      <trkpt lat="43.56475" lon="2.93771">
        <ele>166</ele>
        <time>2014-01-18T07:18:37Z</time>
      </trkpt>
      <trkpt lat="43.5647" lon="2.93748">
        <ele>165</ele>
        <time>2014-01-18T07:18:42Z</time>
      </trkpt>
      <trkpt lat="43.56468" lon="2.93742">
        <ele>165</ele>
        <time>2014-01-18T07:18:43Z</time>
      </trkpt>
      <trkpt lat="43.56461" lon="2.93716">
        <ele>165</ele>
        <time>2014-01-18T07:18:48Z</time>
      </trkpt>
      <trkpt lat="43.56456" lon="2.93699">
        <ele>165</ele>
        <time>2014-01-18T07:18:51Z</time>
      </trkpt>
      <trkpt lat="43.56449" lon="2.93682">
        <ele>165</ele>
        <time>2014-01-18T07:18:54Z</time>
      </trkpt>
      <trkpt lat="43.56434" lon="2.93648">
        <ele>167</ele>
        <time>2014-01-18T07:19:01Z</time>
      </trkpt>
      <trkpt lat="43.56432" lon="2.93642">
        <ele>167</ele>
        <time>2014-01-18T07:19:04Z</time>
      </trkpt>
      <trkpt lat="43.56431" lon="2.93642">
        <ele>167</ele>
        <time>2014-01-18T07:19:05Z</time>
      </trkpt>
      <trkpt lat="43.56426" lon="2.93634">
        <ele>167</ele>
        <time>2014-01-18T07:19:08Z</time>
      </trkpt>
      <trkpt lat="43.56422" lon="2.93611">
        <ele>168</ele>
        <time>2014-01-18T07:19:12Z</time>
      </trkpt>
      <trkpt lat="43.56413" lon="2.93597">
        <ele>168</ele>
        <time>2014-01-18T07:19:15Z</time>
      </trkpt>
      <trkpt lat="43.56407" lon="2.9359">
        <ele>168</ele>
        <time>2014-01-18T07:19:17Z</time>
      </trkpt>
      <trkpt lat="43.56397" lon="2.93573">
        <ele>173</ele>
        <time>2014-01-18T07:19:22Z</time>
      </trkpt>
      <trkpt lat="43.56393" lon="2.93568">
        <ele>173</ele>
        <time>2014-01-18T07:19:26Z</time>
      </trkpt>
      <trkpt lat="43.56389" lon="2.93561">
        <ele>173</ele>
        <time>2014-01-18T07:19:32Z</time>
      </trkpt>
      <trkpt lat="43.56387" lon="2.9355">
        <ele>174</ele>
        <time>2014-01-18T07:19:37Z</time>
      </trkpt>
      <trkpt lat="43.56386" lon="2.9355">
        <ele>174</ele>
        <time>2014-01-18T07:19:39Z</time>
      </trkpt>
      <trkpt lat="43.56385" lon="2.9355">
        <ele>174</ele>
        <time>2014-01-18T07:19:40Z</time>
      </trkpt>
      <trkpt lat="43.56384" lon="2.9355">
        <ele>174</ele>
        <time>2014-01-18T07:21:55Z</time>
      </trkpt>
      <trkpt lat="43.56383" lon="2.9355">
        <ele>174</ele>
        <time>2014-01-18T07:21:57Z</time>
      </trkpt>
      <trkpt lat="43.56382" lon="2.93549">
        <ele>174</ele>
        <time>2014-01-18T07:22:00Z</time>
      </trkpt>
      <trkpt lat="43.56381" lon="2.93548">
        <ele>174</ele>
        <time>2014-01-18T07:22:01Z</time>
      </trkpt>
      <trkpt lat="43.5638" lon="2.93545">
        <ele>175</ele>
        <time>2014-01-18T07:22:03Z</time>
      </trkpt>
      <trkpt lat="43.56379" lon="2.93544">
        <ele>175</ele>
        <time>2014-01-18T07:22:04Z</time>
      </trkpt>
      <trkpt lat="43.56378" lon="2.93542">
        <ele>175</ele>
        <time>2014-01-18T07:22:05Z</time>
      </trkpt>
      <trkpt lat="43.56377" lon="2.9354">
        <ele>175</ele>
        <time>2014-01-18T07:22:06Z</time>
      </trkpt>
      <trkpt lat="43.56376" lon="2.93538">
        <ele>175</ele>
        <time>2014-01-18T07:22:07Z</time>
      </trkpt>
      <trkpt lat="43.5637" lon="2.93531">
        <ele>176</ele>
        <time>2014-01-18T07:22:11Z</time>
      </trkpt>
      <trkpt lat="43.56366" lon="2.93525">
        <ele>176</ele>
        <time>2014-01-18T07:22:14Z</time>
      </trkpt>
      <trkpt lat="43.56365" lon="2.93524">
        <ele>176</ele>
        <time>2014-01-18T07:22:15Z</time>
      </trkpt>
      <trkpt lat="43.56363" lon="2.93523">
        <ele>176</ele>
        <time>2014-01-18T07:22:16Z</time>
      </trkpt>
      <trkpt lat="43.56362" lon="2.93521">
        <ele>176</ele>
        <time>2014-01-18T07:22:17Z</time>
      </trkpt>
      <trkpt lat="43.56361" lon="2.93521">
        <ele>176</ele>
        <time>2014-01-18T07:22:18Z</time>
      </trkpt>
      <trkpt lat="43.5636" lon="2.9352">
        <ele>176</ele>
        <time>2014-01-18T07:22:19Z</time>
      </trkpt>
      <trkpt lat="43.56358" lon="2.93517">
        <ele>177</ele>
        <time>2014-01-18T07:22:21Z</time>
      </trkpt>
      <trkpt lat="43.56349" lon="2.93507">
        <ele>178</ele>
        <time>2014-01-18T07:22:25Z</time>
      </trkpt>
      <trkpt lat="43.56348" lon="2.93506">
        <ele>178</ele>
        <time>2014-01-18T07:22:26Z</time>
      </trkpt>
      <trkpt lat="43.56346" lon="2.93504">
        <ele>179</ele>
        <time>2014-01-18T07:22:27Z</time>
      </trkpt>
      <trkpt lat="43.56344" lon="2.93502">
        <ele>179</ele>
        <time>2014-01-18T07:22:28Z</time>
      </trkpt>
      <trkpt lat="43.56342" lon="2.93501">
        <ele>179</ele>
        <time>2014-01-18T07:22:29Z</time>
      </trkpt>
      <trkpt lat="43.56341" lon="2.93499">
        <ele>183</ele>
        <time>2014-01-18T07:22:30Z</time>
      </trkpt>
      <trkpt lat="43.56339" lon="2.93498">
        <ele>182</ele>
        <time>2014-01-18T07:22:31Z</time>
      </trkpt>
      <trkpt lat="43.56337" lon="2.93496">
        <ele>182</ele>
        <time>2014-01-18T07:22:32Z</time>
      </trkpt>
      <trkpt lat="43.56335" lon="2.93495">
        <ele>182</ele>
        <time>2014-01-18T07:22:33Z</time>
      </trkpt>
      <trkpt lat="43.56333" lon="2.93494">
        <ele>182</ele>
        <time>2014-01-18T07:22:34Z</time>
      </trkpt>
      <trkpt lat="43.56329" lon="2.9349">
        <ele>181</ele>
        <time>2014-01-18T07:22:36Z</time>
      </trkpt>
      <trkpt lat="43.56327" lon="2.93489">
        <ele>181</ele>
        <time>2014-01-18T07:22:37Z</time>
      </trkpt>
      <trkpt lat="43.56326" lon="2.93487">
        <ele>181</ele>
        <time>2014-01-18T07:22:38Z</time>
      </trkpt>
      <trkpt lat="43.56324" lon="2.93485">
        <ele>181</ele>
        <time>2014-01-18T07:22:39Z</time>
      </trkpt>
      <trkpt lat="43.56323" lon="2.93483">
        <ele>181</ele>
        <time>2014-01-18T07:22:40Z</time>
      </trkpt>
      <trkpt lat="43.56323" lon="2.93479">
        <ele>181</ele>
        <time>2014-01-18T07:22:42Z</time>
      </trkpt>
      <trkpt lat="43.56324" lon="2.93478">
        <ele>181</ele>
        <time>2014-01-18T07:22:43Z</time>
      </trkpt>
      <trkpt lat="43.56326" lon="2.93477">
        <ele>181</ele>
        <time>2014-01-18T07:22:44Z</time>
      </trkpt>
      <trkpt lat="43.56328" lon="2.93476">
        <ele>181</ele>
        <time>2014-01-18T07:22:45Z</time>
      </trkpt>
      <trkpt lat="43.56329" lon="2.93476">
        <ele>181</ele>
        <time>2014-01-18T07:22:46Z</time>
      </trkpt>
      <trkpt lat="43.56331" lon="2.93476">
        <ele>181</ele>
        <time>2014-01-18T07:22:47Z</time>
      </trkpt>
      <trkpt lat="43.56333" lon="2.93475">
        <ele>181</ele>
        <time>2014-01-18T07:22:48Z</time>
      </trkpt>
      <trkpt lat="43.56334" lon="2.93474">
        <ele>185</ele>
        <time>2014-01-18T07:22:49Z</time>
      </trkpt>
      <trkpt lat="43.56337" lon="2.93472">
        <ele>186</ele>
        <time>2014-01-18T07:22:52Z</time>
      </trkpt>
      <trkpt lat="43.56338" lon="2.93472">
        <ele>186</ele>
        <time>2014-01-18T07:22:53Z</time>
      </trkpt>
      <trkpt lat="43.5634" lon="2.93472">
        <ele>186</ele>
        <time>2014-01-18T07:22:54Z</time>
      </trkpt>
      <trkpt lat="43.56342" lon="2.93472">
        <ele>186</ele>
        <time>2014-01-18T07:22:55Z</time>
      </trkpt>
      <trkpt lat="43.56344" lon="2.93472">
        <ele>186</ele>
        <time>2014-01-18T07:22:56Z</time>
      </trkpt>
      <trkpt lat="43.56347" lon="2.93471">
        <ele>186</ele>
        <time>2014-01-18T07:22:58Z</time>
      </trkpt>
      <trkpt lat="43.56348" lon="2.93471">
        <ele>186</ele>
        <time>2014-01-18T07:22:59Z</time>
      </trkpt>
      <trkpt lat="43.5635" lon="2.9347">
        <ele>186</ele>
        <time>2014-01-18T07:23:00Z</time>
      </trkpt>
      <trkpt lat="43.56352" lon="2.93469">
        <ele>186</ele>
        <time>2014-01-18T07:23:01Z</time>
      </trkpt>
      <trkpt lat="43.56353" lon="2.93468">
        <ele>186</ele>
        <time>2014-01-18T07:23:02Z</time>
      </trkpt>
      <trkpt lat="43.56355" lon="2.93466">
        <ele>187</ele>
        <time>2014-01-18T07:23:04Z</time>
      </trkpt>
      <trkpt lat="43.5636" lon="2.93463">
        <ele>187</ele>
        <time>2014-01-18T07:23:07Z</time>
      </trkpt>
      <trkpt lat="43.56361" lon="2.93462">
        <ele>187</ele>
        <time>2014-01-18T07:23:08Z</time>
      </trkpt>
      <trkpt lat="43.56362" lon="2.9346">
        <ele>187</ele>
        <time>2014-01-18T07:23:09Z</time>
      </trkpt>
      <trkpt lat="43.56364" lon="2.93459">
        <ele>187</ele>
        <time>2014-01-18T07:23:10Z</time>
      </trkpt>
      <trkpt lat="43.56365" lon="2.93458">
        <ele>187</ele>
        <time>2014-01-18T07:23:11Z</time>
      </trkpt>
      <trkpt lat="43.5637" lon="2.93452">
        <ele>188</ele>
        <time>2014-01-18T07:23:16Z</time>
      </trkpt>
      <trkpt lat="43.56371" lon="2.9345">
        <ele>188</ele>
        <time>2014-01-18T07:23:17Z</time>
      </trkpt>
      <trkpt lat="43.56373" lon="2.93448">
        <ele>188</ele>
        <time>2014-01-18T07:23:18Z</time>
      </trkpt>
      <trkpt lat="43.56373" lon="2.93447">
        <ele>188</ele>
        <time>2014-01-18T07:23:19Z</time>
      </trkpt>
      <trkpt lat="43.56374" lon="2.93445">
        <ele>188</ele>
        <time>2014-01-18T07:23:20Z</time>
      </trkpt>
      <trkpt lat="43.56377" lon="2.9344">
        <ele>188</ele>
        <time>2014-01-18T07:23:23Z</time>
      </trkpt>
      <trkpt lat="43.56377" lon="2.93439">
        <ele>189</ele>
        <time>2014-01-18T07:23:24Z</time>
      </trkpt>
      <trkpt lat="43.56377" lon="2.93437">
        <ele>189</ele>
        <time>2014-01-18T07:23:25Z</time>
      </trkpt>
      <trkpt lat="43.56377" lon="2.93436">
        <ele>189</ele>
        <time>2014-01-18T07:23:26Z</time>
      </trkpt>
      <trkpt lat="43.56376" lon="2.93434">
        <ele>189</ele>
        <time>2014-01-18T07:23:27Z</time>
      </trkpt>
      <trkpt lat="43.56376" lon="2.93432">
        <ele>189</ele>
        <time>2014-01-18T07:23:28Z</time>
      </trkpt>
      <trkpt lat="43.56373" lon="2.93426">
        <ele>189</ele>
        <time>2014-01-18T07:23:31Z</time>
      </trkpt>
      <trkpt lat="43.56372" lon="2.93424">
        <ele>189</ele>
        <time>2014-01-18T07:23:32Z</time>
      </trkpt>
      <trkpt lat="43.56372" lon="2.93423">
        <ele>189</ele>
        <time>2014-01-18T07:23:33Z</time>
      </trkpt>
      <trkpt lat="43.56371" lon="2.93421">
        <ele>189</ele>
        <time>2014-01-18T07:23:34Z</time>
      </trkpt>
      <trkpt lat="43.5637" lon="2.93419">
        <ele>189</ele>
        <time>2014-01-18T07:23:35Z</time>
      </trkpt>
      <trkpt lat="43.5637" lon="2.93414">
        <ele>195</ele>
        <time>2014-01-18T07:23:37Z</time>
      </trkpt>
      <trkpt lat="43.5637" lon="2.93412">
        <ele>196</ele>
        <time>2014-01-18T07:23:38Z</time>
      </trkpt>
      <trkpt lat="43.56371" lon="2.9341">
        <ele>196</ele>
        <time>2014-01-18T07:23:39Z</time>
      </trkpt>
      <trkpt lat="43.56372" lon="2.93407">
        <ele>196</ele>
        <time>2014-01-18T07:23:40Z</time>
      </trkpt>
      <trkpt lat="43.56373" lon="2.93404">
        <ele>196</ele>
        <time>2014-01-18T07:23:41Z</time>
      </trkpt>
      <trkpt lat="43.56375" lon="2.93399">
        <ele>196</ele>
        <time>2014-01-18T07:23:43Z</time>
      </trkpt>
      <trkpt lat="43.56377" lon="2.93394">
        <ele>196</ele>
        <time>2014-01-18T07:23:45Z</time>
      </trkpt>
      <trkpt lat="43.56378" lon="2.93391">
        <ele>196</ele>
        <time>2014-01-18T07:23:46Z</time>
      </trkpt>
      <trkpt lat="43.56379" lon="2.93388">
        <ele>196</ele>
        <time>2014-01-18T07:23:47Z</time>
      </trkpt>
      <trkpt lat="43.56379" lon="2.93385">
        <ele>197</ele>
        <time>2014-01-18T07:23:48Z</time>
      </trkpt>
      <trkpt lat="43.56379" lon="2.93382">
        <ele>197</ele>
        <time>2014-01-18T07:23:49Z</time>
      </trkpt>
      <trkpt lat="43.56383" lon="2.93358">
        <ele>198</ele>
        <time>2014-01-18T07:23:57Z</time>
      </trkpt>
      <trkpt lat="43.56384" lon="2.93354">
        <ele>198</ele>
        <time>2014-01-18T07:23:58Z</time>
      </trkpt>
      <trkpt lat="43.56385" lon="2.93351">
        <ele>198</ele>
        <time>2014-01-18T07:23:59Z</time>
      </trkpt>
      <trkpt lat="43.56386" lon="2.93348">
        <ele>198</ele>
        <time>2014-01-18T07:24:00Z</time>
      </trkpt>
      <trkpt lat="43.56387" lon="2.93345">
        <ele>198</ele>
        <time>2014-01-18T07:24:01Z</time>
      </trkpt>
      <trkpt lat="43.56388" lon="2.93342">
        <ele>199</ele>
        <time>2014-01-18T07:24:02Z</time>
      </trkpt>
      <trkpt lat="43.56393" lon="2.93334">
        <ele>199</ele>
        <time>2014-01-18T07:24:05Z</time>
      </trkpt>
      <trkpt lat="43.56405" lon="2.93311">
        <ele>201</ele>
        <time>2014-01-18T07:24:14Z</time>
      </trkpt>
      <trkpt lat="43.56421" lon="2.93294">
        <ele>204</ele>
        <time>2014-01-18T07:24:23Z</time>
      </trkpt>
      <trkpt lat="43.56423" lon="2.93292">
        <ele>204</ele>
        <time>2014-01-18T07:24:24Z</time>
      </trkpt>
      <trkpt lat="43.56426" lon="2.93291">
        <ele>205</ele>
        <time>2014-01-18T07:24:25Z</time>
      </trkpt>
      <trkpt lat="43.56428" lon="2.93289">
        <ele>205</ele>
        <time>2014-01-18T07:24:26Z</time>
      </trkpt>
      <trkpt lat="43.56429" lon="2.93287">
        <ele>205</ele>
        <time>2014-01-18T07:24:27Z</time>
      </trkpt>
      <trkpt lat="43.56437" lon="2.93283">
        <ele>205</ele>
        <time>2014-01-18T07:24:31Z</time>
      </trkpt>
      <trkpt lat="43.56449" lon="2.93278">
        <ele>206</ele>
        <time>2014-01-18T07:24:37Z</time>
      </trkpt>
      <trkpt lat="43.56453" lon="2.93277">
        <ele>206</ele>
        <time>2014-01-18T07:24:39Z</time>
      </trkpt>
      <trkpt lat="43.56455" lon="2.93277">
        <ele>206</ele>
        <time>2014-01-18T07:24:40Z</time>
      </trkpt>
      <trkpt lat="43.56457" lon="2.93277">
        <ele>206</ele>
        <time>2014-01-18T07:24:41Z</time>
      </trkpt>
      <trkpt lat="43.56459" lon="2.93278">
        <ele>206</ele>
        <time>2014-01-18T07:24:42Z</time>
      </trkpt>
      <trkpt lat="43.56461" lon="2.93279">
        <ele>206</ele>
        <time>2014-01-18T07:24:43Z</time>
      </trkpt>
      <trkpt lat="43.56463" lon="2.9328">
        <ele>206</ele>
        <time>2014-01-18T07:24:44Z</time>
      </trkpt>
      <trkpt lat="43.56469" lon="2.93282">
        <ele>206</ele>
        <time>2014-01-18T07:24:47Z</time>
      </trkpt>
      <trkpt lat="43.56483" lon="2.93286">
        <ele>206</ele>
        <time>2014-01-18T07:24:54Z</time>
      </trkpt>
      <trkpt lat="43.56494" lon="2.9329">
        <ele>206</ele>
        <time>2014-01-18T07:24:59Z</time>
      </trkpt>
      <trkpt lat="43.56496" lon="2.93291">
        <ele>206</ele>
        <time>2014-01-18T07:25:00Z</time>
      </trkpt>
      <trkpt lat="43.56498" lon="2.93291">
        <ele>206</ele>
        <time>2014-01-18T07:25:01Z</time>
      </trkpt>
      <trkpt lat="43.565" lon="2.93291">
        <ele>206</ele>
        <time>2014-01-18T07:25:02Z</time>
      </trkpt>
      <trkpt lat="43.56511" lon="2.93294">
        <ele>208</ele>
        <time>2014-01-18T07:25:07Z</time>
      </trkpt>
      <trkpt lat="43.56513" lon="2.93294">
        <ele>208</ele>
        <time>2014-01-18T07:25:08Z</time>
      </trkpt>
      <trkpt lat="43.56515" lon="2.93295">
        <ele>208</ele>
        <time>2014-01-18T07:25:09Z</time>
      </trkpt>
      <trkpt lat="43.56517" lon="2.93295">
        <ele>208</ele>
        <time>2014-01-18T07:25:10Z</time>
      </trkpt>
      <trkpt lat="43.5652" lon="2.93294">
        <ele>208</ele>
        <time>2014-01-18T07:25:11Z</time>
      </trkpt>
      <trkpt lat="43.56533" lon="2.93292">
        <ele>208</ele>
        <time>2014-01-18T07:25:17Z</time>
      </trkpt>
      <trkpt lat="43.56553" lon="2.93283">
        <ele>209</ele>
        <time>2014-01-18T07:25:26Z</time>
      </trkpt>
      <trkpt lat="43.56555" lon="2.93281">
        <ele>209</ele>
        <time>2014-01-18T07:25:27Z</time>
      </trkpt>
      <trkpt lat="43.56557" lon="2.9328">
        <ele>210</ele>
        <time>2014-01-18T07:25:28Z</time>
      </trkpt>
      <trkpt lat="43.56559" lon="2.93278">
        <ele>210</ele>
        <time>2014-01-18T07:25:29Z</time>
      </trkpt>
      <trkpt lat="43.56561" lon="2.93277">
        <ele>210</ele>
        <time>2014-01-18T07:25:30Z</time>
      </trkpt>
      <trkpt lat="43.56569" lon="2.93272">
        <ele>211</ele>
        <time>2014-01-18T07:25:34Z</time>
      </trkpt>
      <trkpt lat="43.56577" lon="2.93266">
        <ele>212</ele>
        <time>2014-01-18T07:25:38Z</time>
      </trkpt>
      <trkpt lat="43.56578" lon="2.93265">
        <ele>213</ele>
        <time>2014-01-18T07:25:39Z</time>
      </trkpt>
      <trkpt lat="43.5658" lon="2.93263">
        <ele>213</ele>
        <time>2014-01-18T07:25:40Z</time>
      </trkpt>
      <trkpt lat="43.56582" lon="2.93261">
        <ele>214</ele>
        <time>2014-01-18T07:25:41Z</time>
      </trkpt>
      <trkpt lat="43.56584" lon="2.93259">
        <ele>214</ele>
        <time>2014-01-18T07:25:42Z</time>
      </trkpt>
      <trkpt lat="43.56593" lon="2.93245">
        <ele>218</ele>
        <time>2014-01-18T07:25:48Z</time>
      </trkpt>
      <trkpt lat="43.56594" lon="2.93242">
        <ele>218</ele>
        <time>2014-01-18T07:25:49Z</time>
      </trkpt>
      <trkpt lat="43.56594" lon="2.93238">
        <ele>218</ele>
        <time>2014-01-18T07:25:50Z</time>
      </trkpt>
      <trkpt lat="43.56595" lon="2.93235">
        <ele>218</ele>
        <time>2014-01-18T07:25:51Z</time>
      </trkpt>
      <trkpt lat="43.56595" lon="2.93232">
        <ele>218</ele>
        <time>2014-01-18T07:25:52Z</time>
      </trkpt>
      <trkpt lat="43.56599" lon="2.93217">
        <ele>220</ele>
        <time>2014-01-18T07:25:57Z</time>
      </trkpt>
      <trkpt lat="43.56601" lon="2.93208">
        <ele>220</ele>
        <time>2014-01-18T07:26:00Z</time>
      </trkpt>
      <trkpt lat="43.56601" lon="2.93205">
        <ele>221</ele>
        <time>2014-01-18T07:26:01Z</time>
      </trkpt>
      <trkpt lat="43.56602" lon="2.93202">
        <ele>221</ele>
        <time>2014-01-18T07:26:02Z</time>
      </trkpt>
      <trkpt lat="43.56602" lon="2.93199">
        <ele>221</ele>
        <time>2014-01-18T07:26:03Z</time>
      </trkpt>
      <trkpt lat="43.56603" lon="2.93196">
        <ele>221</ele>
        <time>2014-01-18T07:26:04Z</time>
      </trkpt>
      <trkpt lat="43.56607" lon="2.93179">
        <ele>223</ele>
        <time>2014-01-18T07:26:10Z</time>
      </trkpt>
      <trkpt lat="43.56608" lon="2.93173">
        <ele>223</ele>
        <time>2014-01-18T07:26:12Z</time>
      </trkpt>
      <trkpt lat="43.56609" lon="2.9317">
        <ele>223</ele>
        <time>2014-01-18T07:26:13Z</time>
      </trkpt>
      <trkpt lat="43.56609" lon="2.93167">
        <ele>223</ele>
        <time>2014-01-18T07:26:14Z</time>
      </trkpt>
      <trkpt lat="43.5661" lon="2.93164">
        <ele>227</ele>
        <time>2014-01-18T07:26:15Z</time>
      </trkpt>
      <trkpt lat="43.56612" lon="2.93159">
        <ele>227</ele>
        <time>2014-01-18T07:26:17Z</time>
      </trkpt>
      <trkpt lat="43.56615" lon="2.93142">
        <ele>227</ele>
        <time>2014-01-18T07:26:23Z</time>
      </trkpt>
      <trkpt lat="43.56616" lon="2.93139">
        <ele>227</ele>
        <time>2014-01-18T07:26:24Z</time>
      </trkpt>
      <trkpt lat="43.56616" lon="2.93137">
        <ele>227</ele>
        <time>2014-01-18T07:26:25Z</time>
      </trkpt>
      <trkpt lat="43.56617" lon="2.93134">
        <ele>227</ele>
        <time>2014-01-18T07:26:26Z</time>
      </trkpt>
      <trkpt lat="43.56618" lon="2.93131">
        <ele>227</ele>
        <time>2014-01-18T07:26:27Z</time>
      </trkpt>
      <trkpt lat="43.56623" lon="2.93119">
        <ele>227</ele>
        <time>2014-01-18T07:26:32Z</time>
      </trkpt>
      <trkpt lat="43.56624" lon="2.93116">
        <ele>227</ele>
        <time>2014-01-18T07:26:33Z</time>
      </trkpt>
      <trkpt lat="43.56625" lon="2.93114">
        <ele>227</ele>
        <time>2014-01-18T07:26:34Z</time>
      </trkpt>
      <trkpt lat="43.56625" lon="2.93111">
        <ele>227</ele>
        <time>2014-01-18T07:26:35Z</time>
      </trkpt>
      <trkpt lat="43.56626" lon="2.93108">
        <ele>227</ele>
        <time>2014-01-18T07:26:36Z</time>
      </trkpt>
      <trkpt lat="43.56627" lon="2.93105">
        <ele>227</ele>
        <time>2014-01-18T07:26:37Z</time>
      </trkpt>
      <trkpt lat="43.56628" lon="2.93103">
        <ele>227</ele>
        <time>2014-01-18T07:26:38Z</time>
      </trkpt>
      <trkpt lat="43.56635" lon="2.93087">
        <ele>226</ele>
        <time>2014-01-18T07:26:44Z</time>
      </trkpt>
      <trkpt lat="43.56636" lon="2.93084">
        <ele>226</ele>
        <time>2014-01-18T07:26:45Z</time>
      </trkpt>
      <trkpt lat="43.56636" lon="2.9308">
        <ele>229</ele>
        <time>2014-01-18T07:26:46Z</time>
      </trkpt>
      <trkpt lat="43.56637" lon="2.93077">
        <ele>229</ele>
        <time>2014-01-18T07:26:47Z</time>
      </trkpt>
      <trkpt lat="43.56638" lon="2.93074">
        <ele>229</ele>
        <time>2014-01-18T07:26:48Z</time>
      </trkpt>
      <trkpt lat="43.56638" lon="2.93071">
        <ele>229</ele>
        <time>2014-01-18T07:26:49Z</time>
      </trkpt>
      <trkpt lat="43.5664" lon="2.93066">
        <ele>229</ele>
        <time>2014-01-18T07:26:51Z</time>
      </trkpt>
      <trkpt lat="43.56645" lon="2.93052">
        <ele>230</ele>
        <time>2014-01-18T07:26:57Z</time>
      </trkpt>
      <trkpt lat="43.56646" lon="2.93051">
        <ele>230</ele>
        <time>2014-01-18T07:26:58Z</time>
      </trkpt>
      <trkpt lat="43.56646" lon="2.9305">
        <ele>230</ele>
        <time>2014-01-18T07:26:59Z</time>
      </trkpt>
      <trkpt lat="43.56646" lon="2.93049">
        <ele>230</ele>
        <time>2014-01-18T07:27:00Z</time>
      </trkpt>
      <trkpt lat="43.56646" lon="2.93049">
        <ele>230</ele>
        <time>2014-01-18T07:27:01Z</time>
      </trkpt>
      <trkpt lat="43.56646" lon="2.93046">
        <ele>230</ele>
        <time>2014-01-18T07:27:03Z</time>
      </trkpt>
      <trkpt lat="43.56646" lon="2.93045">
        <ele>230</ele>
        <time>2014-01-18T07:27:04Z</time>
      </trkpt>
      <trkpt lat="43.56642" lon="2.93043">
        <ele>230</ele>
        <time>2014-01-18T07:27:07Z</time>
      </trkpt>
      <trkpt lat="43.56638" lon="2.93041">
        <ele>231</ele>
        <time>2014-01-18T07:27:08Z</time>
      </trkpt>
      <trkpt lat="43.56631" lon="2.93047">
        <ele>231</ele>
        <time>2014-01-18T07:27:14Z</time>
      </trkpt>
      <trkpt lat="43.5663" lon="2.93047">
        <ele>231</ele>
        <time>2014-01-18T07:27:16Z</time>
      </trkpt>
      <trkpt lat="43.56631" lon="2.93047">
        <ele>231</ele>
        <time>2014-01-18T07:27:18Z</time>
      </trkpt>
      <trkpt lat="43.5663" lon="2.93046">
        <ele>231</ele>
        <time>2014-01-18T07:27:20Z</time>
      </trkpt>
      <trkpt lat="43.56632" lon="2.93037">
        <ele>231</ele>
        <time>2014-01-18T07:27:23Z</time>
      </trkpt>
      <trkpt lat="43.56633" lon="2.93034">
        <ele>231</ele>
        <time>2014-01-18T07:27:24Z</time>
      </trkpt>
      <trkpt lat="43.56634" lon="2.93018">
        <ele>232</ele>
        <time>2014-01-18T07:27:29Z</time>
      </trkpt>
      <trkpt lat="43.56638" lon="2.93008">
        <ele>232</ele>
        <time>2014-01-18T07:27:33Z</time>
      </trkpt>
      <trkpt lat="43.56639" lon="2.93005">
        <ele>232</ele>
        <time>2014-01-18T07:27:34Z</time>
      </trkpt>
      <trkpt lat="43.56641" lon="2.93003">
        <ele>232</ele>
        <time>2014-01-18T07:27:35Z</time>
      </trkpt>
      <trkpt lat="43.56642" lon="2.92999">
        <ele>232</ele>
        <time>2014-01-18T07:27:36Z</time>
      </trkpt>
      <trkpt lat="43.56643" lon="2.92996">
        <ele>232</ele>
        <time>2014-01-18T07:27:37Z</time>
      </trkpt>
      <trkpt lat="43.56657" lon="2.92975">
        <ele>232</ele>
        <time>2014-01-18T07:27:45Z</time>
      </trkpt>
      <trkpt lat="43.56669" lon="2.92959">
        <ele>235</ele>
        <time>2014-01-18T07:27:52Z</time>
      </trkpt>
      <trkpt lat="43.56671" lon="2.92957">
        <ele>235</ele>
        <time>2014-01-18T07:27:53Z</time>
      </trkpt>
      <trkpt lat="43.56673" lon="2.92955">
        <ele>235</ele>
        <time>2014-01-18T07:27:54Z</time>
      </trkpt>
      <trkpt lat="43.56675" lon="2.92953">
        <ele>235</ele>
        <time>2014-01-18T07:27:55Z</time>
      </trkpt>
      <trkpt lat="43.56676" lon="2.92951">
        <ele>235</ele>
        <time>2014-01-18T07:27:56Z</time>
      </trkpt>
      <trkpt lat="43.56683" lon="2.92943">
        <ele>236</ele>
        <time>2014-01-18T07:28:00Z</time>
      </trkpt>
      <trkpt lat="43.56686" lon="2.92938">
        <ele>236</ele>
        <time>2014-01-18T07:28:02Z</time>
      </trkpt>
      <trkpt lat="43.56687" lon="2.92935">
        <ele>236</ele>
        <time>2014-01-18T07:28:03Z</time>
      </trkpt>
      <trkpt lat="43.56688" lon="2.92933">
        <ele>236</ele>
        <time>2014-01-18T07:28:04Z</time>
      </trkpt>
      <trkpt lat="43.56689" lon="2.92931">
        <ele>236</ele>
        <time>2014-01-18T07:28:05Z</time>
      </trkpt>
      <trkpt lat="43.5669" lon="2.92928">
        <ele>236</ele>
        <time>2014-01-18T07:28:06Z</time>
      </trkpt>
      <trkpt lat="43.56691" lon="2.92925">
        <ele>236</ele>
        <time>2014-01-18T07:28:07Z</time>
      </trkpt>
      <trkpt lat="43.56697" lon="2.92909">
        <ele>239</ele>
        <time>2014-01-18T07:28:13Z</time>
      </trkpt>
      <trkpt lat="43.56699" lon="2.92906">
        <ele>239</ele>
        <time>2014-01-18T07:28:14Z</time>
      </trkpt>
      <trkpt lat="43.567" lon="2.92903">
        <ele>239</ele>
        <time>2014-01-18T07:28:15Z</time>
      </trkpt>
      <trkpt lat="43.56702" lon="2.92901">
        <ele>239</ele>
        <time>2014-01-18T07:28:16Z</time>
      </trkpt>
      <trkpt lat="43.56714" lon="2.92883">
        <ele>240</ele>
        <time>2014-01-18T07:28:24Z</time>
      </trkpt>
      <trkpt lat="43.56716" lon="2.9288">
        <ele>241</ele>
        <time>2014-01-18T07:28:25Z</time>
      </trkpt>
      <trkpt lat="43.56717" lon="2.92878">
        <ele>241</ele>
        <time>2014-01-18T07:28:26Z</time>
      </trkpt>
      <trkpt lat="43.56718" lon="2.92875">
        <ele>241</ele>
        <time>2014-01-18T07:28:27Z</time>
      </trkpt>
      <trkpt lat="43.5672" lon="2.92873">
        <ele>241</ele>
        <time>2014-01-18T07:28:28Z</time>
      </trkpt>
      <trkpt lat="43.56728" lon="2.92859">
        <ele>242</ele>
        <time>2014-01-18T07:28:34Z</time>
      </trkpt>
      <trkpt lat="43.56736" lon="2.92839">
        <ele>244</ele>
        <time>2014-01-18T07:28:41Z</time>
      </trkpt>
      <trkpt lat="43.56737" lon="2.92836">
        <ele>244</ele>
        <time>2014-01-18T07:28:42Z</time>
      </trkpt>
      <trkpt lat="43.56738" lon="2.92832">
        <ele>244</ele>
        <time>2014-01-18T07:28:43Z</time>
      </trkpt>
      <trkpt lat="43.5674" lon="2.92829">
        <ele>244</ele>
        <time>2014-01-18T07:28:44Z</time>
      </trkpt>
      <trkpt lat="43.56747" lon="2.92813">
        <ele>243</ele>
        <time>2014-01-18T07:28:48Z</time>
      </trkpt>
      <trkpt lat="43.56752" lon="2.9279">
        <ele>250</ele>
        <time>2014-01-18T07:28:53Z</time>
      </trkpt>
      <trkpt lat="43.56746" lon="2.92767">
        <ele>241</ele>
        <time>2014-01-18T07:28:58Z</time>
      </trkpt>
      <trkpt lat="43.56741" lon="2.92741">
        <ele>241</ele>
        <time>2014-01-18T07:29:05Z</time>
      </trkpt>
      <trkpt lat="43.56747" lon="2.9272">
        <ele>240</ele>
        <time>2014-01-18T07:29:11Z</time>
      </trkpt>
      <trkpt lat="43.5675" lon="2.92709">
        <ele>247</ele>
        <time>2014-01-18T07:29:15Z</time>
      </trkpt>
      <trkpt lat="43.56751" lon="2.92707">
        <ele>247</ele>
        <time>2014-01-18T07:29:16Z</time>
      </trkpt>
      <trkpt lat="43.56752" lon="2.92704">
        <ele>247</ele>
        <time>2014-01-18T07:29:17Z</time>
      </trkpt>
      <trkpt lat="43.56753" lon="2.92701">
        <ele>247</ele>
        <time>2014-01-18T07:29:18Z</time>
      </trkpt>
      <trkpt lat="43.56755" lon="2.92699">
        <ele>247</ele>
        <time>2014-01-18T07:29:19Z</time>
      </trkpt>
      <trkpt lat="43.56762" lon="2.92685">
        <ele>247</ele>
        <time>2014-01-18T07:29:25Z</time>
      </trkpt>
      <trkpt lat="43.56763" lon="2.92683">
        <ele>247</ele>
        <time>2014-01-18T07:29:26Z</time>
      </trkpt>
      <trkpt lat="43.56765" lon="2.9268">
        <ele>247</ele>
        <time>2014-01-18T07:29:27Z</time>
      </trkpt>
      <trkpt lat="43.56766" lon="2.92678">
        <ele>247</ele>
        <time>2014-01-18T07:29:28Z</time>
      </trkpt>
      <trkpt lat="43.56767" lon="2.92676">
        <ele>247</ele>
        <time>2014-01-18T07:29:29Z</time>
      </trkpt>
      <trkpt lat="43.56774" lon="2.92669">
        <ele>248</ele>
        <time>2014-01-18T07:29:33Z</time>
      </trkpt>
      <trkpt lat="43.56781" lon="2.92663">
        <ele>251</ele>
        <time>2014-01-18T07:29:37Z</time>
      </trkpt>
      <trkpt lat="43.56783" lon="2.92661">
        <ele>252</ele>
        <time>2014-01-18T07:29:38Z</time>
      </trkpt>
      <trkpt lat="43.56785" lon="2.9266">
        <ele>252</ele>
        <time>2014-01-18T07:29:39Z</time>
      </trkpt>
      <trkpt lat="43.56787" lon="2.92658">
        <ele>252</ele>
        <time>2014-01-18T07:29:40Z</time>
      </trkpt>
      <trkpt lat="43.56789" lon="2.92657">
        <ele>252</ele>
        <time>2014-01-18T07:29:41Z</time>
      </trkpt>
      <trkpt lat="43.5679" lon="2.92655">
        <ele>253</ele>
        <time>2014-01-18T07:29:42Z</time>
      </trkpt>
      <trkpt lat="43.56799" lon="2.92646">
        <ele>254</ele>
        <time>2014-01-18T07:29:47Z</time>
      </trkpt>
      <trkpt lat="43.56801" lon="2.92644">
        <ele>254</ele>
        <time>2014-01-18T07:29:48Z</time>
      </trkpt>
      <trkpt lat="43.56803" lon="2.92642">
        <ele>254</ele>
        <time>2014-01-18T07:29:49Z</time>
      </trkpt>
      <trkpt lat="43.56805" lon="2.9264">
        <ele>255</ele>
        <time>2014-01-18T07:29:50Z</time>
      </trkpt>
      <trkpt lat="43.56807" lon="2.92639">
        <ele>255</ele>
        <time>2014-01-18T07:29:51Z</time>
      </trkpt>
      <trkpt lat="43.56816" lon="2.9263">
        <ele>255</ele>
        <time>2014-01-18T07:29:56Z</time>
      </trkpt>
      <trkpt lat="43.56818" lon="2.92628">
        <ele>256</ele>
        <time>2014-01-18T07:29:57Z</time>
      </trkpt>
      <trkpt lat="43.56819" lon="2.92627">
        <ele>256</ele>
        <time>2014-01-18T07:29:58Z</time>
      </trkpt>
      <trkpt lat="43.56821" lon="2.92625">
        <ele>256</ele>
        <time>2014-01-18T07:29:59Z</time>
      </trkpt>
      <trkpt lat="43.56823" lon="2.92623">
        <ele>256</ele>
        <time>2014-01-18T07:30:00Z</time>
      </trkpt>
      <trkpt lat="43.5683" lon="2.92617">
        <ele>257</ele>
        <time>2014-01-18T07:30:04Z</time>
      </trkpt>
      <trkpt lat="43.56832" lon="2.92615">
        <ele>257</ele>
        <time>2014-01-18T07:30:05Z</time>
      </trkpt>
      <trkpt lat="43.56833" lon="2.92614">
        <ele>257</ele>
        <time>2014-01-18T07:30:06Z</time>
      </trkpt>
      <trkpt lat="43.56835" lon="2.92612">
        <ele>263</ele>
        <time>2014-01-18T07:30:07Z</time>
      </trkpt>
      <trkpt lat="43.56836" lon="2.92611">
        <ele>263</ele>
        <time>2014-01-18T07:30:08Z</time>
      </trkpt>
      <trkpt lat="43.56841" lon="2.92605">
        <ele>264</ele>
        <time>2014-01-18T07:30:11Z</time>
      </trkpt>
      <trkpt lat="43.56843" lon="2.92603">
        <ele>264</ele>
        <time>2014-01-18T07:30:12Z</time>
      </trkpt>
      <trkpt lat="43.56845" lon="2.92602">
        <ele>264</ele>
        <time>2014-01-18T07:30:13Z</time>
      </trkpt>
      <trkpt lat="43.56846" lon="2.926">
        <ele>264</ele>
        <time>2014-01-18T07:30:14Z</time>
      </trkpt>
      <trkpt lat="43.56848" lon="2.92598">
        <ele>264</ele>
        <time>2014-01-18T07:30:15Z</time>
      </trkpt>
      <trkpt lat="43.56855" lon="2.9259">
        <ele>264</ele>
        <time>2014-01-18T07:30:19Z</time>
      </trkpt>
      <trkpt lat="43.56858" lon="2.92587">
        <ele>264</ele>
        <time>2014-01-18T07:30:21Z</time>
      </trkpt>
      <trkpt lat="43.56859" lon="2.92586">
        <ele>264</ele>
        <time>2014-01-18T07:30:22Z</time>
      </trkpt>
      <trkpt lat="43.56861" lon="2.92584">
        <ele>265</ele>
        <time>2014-01-18T07:30:23Z</time>
      </trkpt>
      <trkpt lat="43.56862" lon="2.92583">
        <ele>265</ele>
        <time>2014-01-18T07:30:24Z</time>
      </trkpt>
      <trkpt lat="43.56863" lon="2.92581">
        <ele>265</ele>
        <time>2014-01-18T07:30:25Z</time>
      </trkpt>
      <trkpt lat="43.56877" lon="2.92567">
        <ele>266</ele>
        <time>2014-01-18T07:30:30Z</time>
      </trkpt>
      <trkpt lat="43.5688" lon="2.92562">
        <ele>267</ele>
        <time>2014-01-18T07:30:31Z</time>
      </trkpt>
      <trkpt lat="43.56886" lon="2.9255">
        <ele>267</ele>
        <time>2014-01-18T07:30:33Z</time>
      </trkpt>
      <trkpt lat="43.56889" lon="2.92543">
        <ele>267</ele>
        <time>2014-01-18T07:30:34Z</time>
      </trkpt>
      <trkpt lat="43.5689" lon="2.92534">
        <ele>266</ele>
        <time>2014-01-18T07:30:35Z</time>
      </trkpt>
      <trkpt lat="43.56891" lon="2.92525">
        <ele>266</ele>
        <time>2014-01-18T07:30:36Z</time>
      </trkpt>
      <trkpt lat="43.56891" lon="2.92516">
        <ele>266</ele>
        <time>2014-01-18T07:30:37Z</time>
      </trkpt>
      <trkpt lat="43.56891" lon="2.92506">
        <ele>266</ele>
        <time>2014-01-18T07:30:38Z</time>
      </trkpt>
      <trkpt lat="43.56891" lon="2.92496">
        <ele>269</ele>
        <time>2014-01-18T07:30:39Z</time>
      </trkpt>
      <trkpt lat="43.5689" lon="2.92487">
        <ele>269</ele>
        <time>2014-01-18T07:30:40Z</time>
      </trkpt>
      <trkpt lat="43.56887" lon="2.92478">
        <ele>270</ele>
        <time>2014-01-18T07:30:41Z</time>
      </trkpt>
      <trkpt lat="43.56884" lon="2.92471">
        <ele>270</ele>
        <time>2014-01-18T07:30:42Z</time>
      </trkpt>
      <trkpt lat="43.56871" lon="2.92456">
        <ele>270</ele>
        <time>2014-01-18T07:30:45Z</time>
      </trkpt>
      <trkpt lat="43.56855" lon="2.92459">
        <ele>269</ele>
        <time>2014-01-18T07:30:48Z</time>
      </trkpt>
      <trkpt lat="43.56846" lon="2.92475">
        <ele>268</ele>
        <time>2014-01-18T07:30:52Z</time>
      </trkpt>
      <trkpt lat="43.56843" lon="2.92485">
        <ele>267</ele>
        <time>2014-01-18T07:30:55Z</time>
      </trkpt>
      <trkpt lat="43.56842" lon="2.92488">
        <ele>266</ele>
        <time>2014-01-18T07:30:56Z</time>
      </trkpt>
      <trkpt lat="43.56841" lon="2.92492">
        <ele>266</ele>
        <time>2014-01-18T07:30:57Z</time>
      </trkpt>
      <trkpt lat="43.56841" lon="2.92495">
        <ele>265</ele>
        <time>2014-01-18T07:30:58Z</time>
      </trkpt>
      <trkpt lat="43.5684" lon="2.92498">
        <ele>265</ele>
        <time>2014-01-18T07:30:59Z</time>
      </trkpt>
      <trkpt lat="43.56838" lon="2.92509">
        <ele>264</ele>
        <time>2014-01-18T07:31:03Z</time>
      </trkpt>
      <trkpt lat="43.56836" lon="2.92517">
        <ele>264</ele>
        <time>2014-01-18T07:31:06Z</time>
      </trkpt>
      <trkpt lat="43.56835" lon="2.9252">
        <ele>264</ele>
        <time>2014-01-18T07:31:07Z</time>
      </trkpt>
      <trkpt lat="43.56835" lon="2.92523">
        <ele>264</ele>
        <time>2014-01-18T07:31:08Z</time>
      </trkpt>
      <trkpt lat="43.56833" lon="2.92525">
        <ele>265</ele>
        <time>2014-01-18T07:31:09Z</time>
      </trkpt>
      <trkpt lat="43.56832" lon="2.92528">
        <ele>260</ele>
        <time>2014-01-18T07:31:10Z</time>
      </trkpt>
      <trkpt lat="43.56824" lon="2.92538">
        <ele>260</ele>
        <time>2014-01-18T07:31:15Z</time>
      </trkpt>
      <trkpt lat="43.56822" lon="2.92539">
        <ele>260</ele>
        <time>2014-01-18T07:31:16Z</time>
      </trkpt>
      <trkpt lat="43.5682" lon="2.92541">
        <ele>260</ele>
        <time>2014-01-18T07:31:17Z</time>
      </trkpt>
      <trkpt lat="43.56818" lon="2.92541">
        <ele>260</ele>
        <time>2014-01-18T07:31:18Z</time>
      </trkpt>
      <trkpt lat="43.56816" lon="2.92541">
        <ele>260</ele>
        <time>2014-01-18T07:31:19Z</time>
      </trkpt>
      <trkpt lat="43.56813" lon="2.92541">
        <ele>259</ele>
        <time>2014-01-18T07:31:20Z</time>
      </trkpt>
      <trkpt lat="43.56805" lon="2.92539">
        <ele>259</ele>
        <time>2014-01-18T07:31:24Z</time>
      </trkpt>
      <trkpt lat="43.56803" lon="2.92537">
        <ele>259</ele>
        <time>2014-01-18T07:31:25Z</time>
      </trkpt>
      <trkpt lat="43.56801" lon="2.92536">
        <ele>259</ele>
        <time>2014-01-18T07:31:26Z</time>
      </trkpt>
      <trkpt lat="43.56799" lon="2.92533">
        <ele>259</ele>
        <time>2014-01-18T07:31:27Z</time>
      </trkpt>
      <trkpt lat="43.56798" lon="2.9253">
        <ele>259</ele>
        <time>2014-01-18T07:31:28Z</time>
      </trkpt>
      <trkpt lat="43.56795" lon="2.92517">
        <ele>259</ele>
        <time>2014-01-18T07:31:32Z</time>
      </trkpt>
      <trkpt lat="43.56794" lon="2.92508">
        <ele>259</ele>
        <time>2014-01-18T07:31:35Z</time>
      </trkpt>
      <trkpt lat="43.56793" lon="2.92504">
        <ele>259</ele>
        <time>2014-01-18T07:31:36Z</time>
      </trkpt>
      <trkpt lat="43.56794" lon="2.92501">
        <ele>259</ele>
        <time>2014-01-18T07:31:37Z</time>
      </trkpt>
      <trkpt lat="43.56794" lon="2.92497">
        <ele>261</ele>
        <time>2014-01-18T07:31:38Z</time>
      </trkpt>
      <trkpt lat="43.568" lon="2.9248">
        <ele>261</ele>
        <time>2014-01-18T07:31:44Z</time>
      </trkpt>
      <trkpt lat="43.56801" lon="2.92477">
        <ele>261</ele>
        <time>2014-01-18T07:31:45Z</time>
      </trkpt>
      <trkpt lat="43.56803" lon="2.92474">
        <ele>261</ele>
        <time>2014-01-18T07:31:46Z</time>
      </trkpt>
      <trkpt lat="43.56803" lon="2.92471">
        <ele>261</ele>
        <time>2014-01-18T07:31:47Z</time>
      </trkpt>
      <trkpt lat="43.56805" lon="2.92469">
        <ele>262</ele>
        <time>2014-01-18T07:31:48Z</time>
      </trkpt>
      <trkpt lat="43.5681" lon="2.92461">
        <ele>262</ele>
        <time>2014-01-18T07:31:51Z</time>
      </trkpt>
      <trkpt lat="43.56816" lon="2.92446">
        <ele>263</ele>
        <time>2014-01-18T07:31:56Z</time>
      </trkpt>
      <trkpt lat="43.56817" lon="2.92443">
        <ele>263</ele>
        <time>2014-01-18T07:31:57Z</time>
      </trkpt>
      <trkpt lat="43.56819" lon="2.9244">
        <ele>264</ele>
        <time>2014-01-18T07:31:58Z</time>
      </trkpt>
      <trkpt lat="43.5682" lon="2.92437">
        <ele>264</ele>
        <time>2014-01-18T07:31:59Z</time>
      </trkpt>
      <trkpt lat="43.56821" lon="2.92435">
        <ele>264</ele>
        <time>2014-01-18T07:32:00Z</time>
      </trkpt>
      <trkpt lat="43.56827" lon="2.92422">
        <ele>267</ele>
        <time>2014-01-18T07:32:04Z</time>
      </trkpt>
      <trkpt lat="43.56835" lon="2.92394">
        <ele>275</ele>
        <time>2014-01-18T07:32:12Z</time>
      </trkpt>
      <trkpt lat="43.56835" lon="2.9239">
        <ele>275</ele>
        <time>2014-01-18T07:32:13Z</time>
      </trkpt>
      <trkpt lat="43.56836" lon="2.92386">
        <ele>276</ele>
        <time>2014-01-18T07:32:14Z</time>
      </trkpt>
      <trkpt lat="43.56837" lon="2.92382">
        <ele>276</ele>
        <time>2014-01-18T07:32:15Z</time>
      </trkpt>
      <trkpt lat="43.56837" lon="2.92378">
        <ele>276</ele>
        <time>2014-01-18T07:32:16Z</time>
      </trkpt>
      <trkpt lat="43.56838" lon="2.92374">
        <ele>276</ele>
        <time>2014-01-18T07:32:17Z</time>
      </trkpt>
      <trkpt lat="43.56839" lon="2.92366">
        <ele>277</ele>
        <time>2014-01-18T07:32:19Z</time>
      </trkpt>
      <trkpt lat="43.56842" lon="2.92336">
        <ele>275</ele>
        <time>2014-01-18T07:32:27Z</time>
      </trkpt>
      <trkpt lat="43.56842" lon="2.92316">
        <ele>278</ele>
        <time>2014-01-18T07:32:32Z</time>
      </trkpt>
      <trkpt lat="43.56842" lon="2.92312">
        <ele>278</ele>
        <time>2014-01-18T07:32:33Z</time>
      </trkpt>
      <trkpt lat="43.56842" lon="2.92308">
        <ele>279</ele>
        <time>2014-01-18T07:32:34Z</time>
      </trkpt>
      <trkpt lat="43.56842" lon="2.92304">
        <ele>279</ele>
        <time>2014-01-18T07:32:35Z</time>
      </trkpt>
      <trkpt lat="43.56842" lon="2.923">
        <ele>279</ele>
        <time>2014-01-18T07:32:36Z</time>
      </trkpt>
      <trkpt lat="43.56842" lon="2.92276">
        <ele>278</ele>
        <time>2014-01-18T07:32:42Z</time>
      </trkpt>
      <trkpt lat="43.56843" lon="2.92244">
        <ele>275</ele>
        <time>2014-01-18T07:32:49Z</time>
      </trkpt>
      <trkpt lat="43.56844" lon="2.92215">
        <ele>277</ele>
        <time>2014-01-18T07:32:54Z</time>
      </trkpt>
      <trkpt lat="43.56845" lon="2.92209">
        <ele>277</ele>
        <time>2014-01-18T07:32:55Z</time>
      </trkpt>
      <trkpt lat="43.56845" lon="2.92203">
        <ele>277</ele>
        <time>2014-01-18T07:32:56Z</time>
      </trkpt>
      <trkpt lat="43.56847" lon="2.92178">
        <ele>275</ele>
        <time>2014-01-18T07:33:00Z</time>
      </trkpt>
      <trkpt lat="43.5685" lon="2.92159">
        <ele>274</ele>
        <time>2014-01-18T07:33:03Z</time>
      </trkpt>
      <trkpt lat="43.56855" lon="2.92142">
        <ele>275</ele>
        <time>2014-01-18T07:33:06Z</time>
      </trkpt>
      <trkpt lat="43.56862" lon="2.9213">
        <ele>276</ele>
        <time>2014-01-18T07:33:09Z</time>
      </trkpt>
      <trkpt lat="43.56874" lon="2.92119">
        <ele>277</ele>
        <time>2014-01-18T07:33:13Z</time>
      </trkpt>
      <trkpt lat="43.56878" lon="2.92116">
        <ele>277</ele>
        <time>2014-01-18T07:33:14Z</time>
      </trkpt>
      <trkpt lat="43.56895" lon="2.92107">
        <ele>278</ele>
        <time>2014-01-18T07:33:19Z</time>
      </trkpt>
      <trkpt lat="43.56915" lon="2.92098">
        <ele>279</ele>
        <time>2014-01-18T07:33:25Z</time>
      </trkpt>
      <trkpt lat="43.56933" lon="2.92088">
        <ele>289</ele>
        <time>2014-01-18T07:33:31Z</time>
      </trkpt>
      <trkpt lat="43.56942" lon="2.92073">
        <ele>291</ele>
        <time>2014-01-18T07:33:36Z</time>
      </trkpt>
      <trkpt lat="43.56942" lon="2.92055">
        <ele>293</ele>
        <time>2014-01-18T07:33:40Z</time>
      </trkpt>
      <trkpt lat="43.56936" lon="2.92035">
        <ele>294</ele>
        <time>2014-01-18T07:33:45Z</time>
      </trkpt>
      <trkpt lat="43.56925" lon="2.92024">
        <ele>293</ele>
        <time>2014-01-18T07:33:49Z</time>
      </trkpt>
      <trkpt lat="43.56909" lon="2.92022">
        <ele>284</ele>
        <time>2014-01-18T07:33:54Z</time>
      </trkpt>
      <trkpt lat="43.56903" lon="2.92024">
        <ele>283</ele>
        <time>2014-01-18T07:33:56Z</time>
      </trkpt>
      <trkpt lat="43.56899" lon="2.92025">
        <ele>283</ele>
        <time>2014-01-18T07:33:57Z</time>
      </trkpt>
      <trkpt lat="43.56896" lon="2.92026">
        <ele>282</ele>
        <time>2014-01-18T07:33:58Z</time>
      </trkpt>
      <trkpt lat="43.56893" lon="2.92027">
        <ele>282</ele>
        <time>2014-01-18T07:33:59Z</time>
      </trkpt>
      <trkpt lat="43.56891" lon="2.92027">
        <ele>282</ele>
        <time>2014-01-18T07:34:00Z</time>
      </trkpt>
      <trkpt lat="43.5687" lon="2.92032">
        <ele>280</ele>
        <time>2014-01-18T07:34:07Z</time>
      </trkpt>
      <trkpt lat="43.56854" lon="2.92018">
        <ele>280</ele>
        <time>2014-01-18T07:34:13Z</time>
      </trkpt>
      <trkpt lat="43.5684" lon="2.92002">
        <ele>281</ele>
        <time>2014-01-18T07:34:20Z</time>
      </trkpt>
      <trkpt lat="43.5683" lon="2.91994">
        <ele>282</ele>
        <time>2014-01-18T07:34:24Z</time>
      </trkpt>
      <trkpt lat="43.56827" lon="2.91994">
        <ele>282</ele>
        <time>2014-01-18T07:34:25Z</time>
      </trkpt>
      <trkpt lat="43.56825" lon="2.91993">
        <ele>283</ele>
        <time>2014-01-18T07:34:26Z</time>
      </trkpt>
      <trkpt lat="43.56822" lon="2.91993">
        <ele>283</ele>
        <time>2014-01-18T07:34:27Z</time>
      </trkpt>
      <trkpt lat="43.56819" lon="2.91993">
        <ele>283</ele>
        <time>2014-01-18T07:34:28Z</time>
      </trkpt>
      <trkpt lat="43.56807" lon="2.91997">
        <ele>284</ele>
        <time>2014-01-18T07:34:32Z</time>
      </trkpt>
      <trkpt lat="43.56783" lon="2.92005">
        <ele>278</ele>
        <time>2014-01-18T07:34:40Z</time>
      </trkpt>
      <trkpt lat="43.5678" lon="2.92006">
        <ele>278</ele>
        <time>2014-01-18T07:34:41Z</time>
      </trkpt>
      <trkpt lat="43.56777" lon="2.92008">
        <ele>278</ele>
        <time>2014-01-18T07:34:42Z</time>
      </trkpt>
      <trkpt lat="43.56774" lon="2.92009">
        <ele>278</ele>
        <time>2014-01-18T07:34:43Z</time>
      </trkpt>
      <trkpt lat="43.56771" lon="2.92009">
        <ele>278</ele>
        <time>2014-01-18T07:34:44Z</time>
      </trkpt>
      <trkpt lat="43.56762" lon="2.92009">
        <ele>279</ele>
        <time>2014-01-18T07:34:47Z</time>
      </trkpt>
      <trkpt lat="43.56751" lon="2.92006">
        <ele>281</ele>
        <time>2014-01-18T07:34:52Z</time>
      </trkpt>
      <trkpt lat="43.5675" lon="2.92002">
        <ele>281</ele>
        <time>2014-01-18T07:34:53Z</time>
      </trkpt>
      <trkpt lat="43.5675" lon="2.92">
        <ele>282</ele>
        <time>2014-01-18T07:34:54Z</time>
      </trkpt>
      <trkpt lat="43.56751" lon="2.91996">
        <ele>283</ele>
        <time>2014-01-18T07:34:55Z</time>
      </trkpt>
      <trkpt lat="43.56752" lon="2.91994">
        <ele>283</ele>
        <time>2014-01-18T07:34:56Z</time>
      </trkpt>
      <trkpt lat="43.56754" lon="2.91992">
        <ele>283</ele>
        <time>2014-01-18T07:34:57Z</time>
      </trkpt>
      <trkpt lat="43.56755" lon="2.91991">
        <ele>283</ele>
        <time>2014-01-18T07:34:58Z</time>
      </trkpt>
      <trkpt lat="43.56759" lon="2.91986">
        <ele>284</ele>
        <time>2014-01-18T07:35:00Z</time>
      </trkpt>
      <trkpt lat="43.5676" lon="2.91986">
        <ele>284</ele>
        <time>2014-01-18T07:35:01Z</time>
      </trkpt>
      <trkpt lat="43.56764" lon="2.91984">
        <ele>284</ele>
        <time>2014-01-18T07:35:03Z</time>
      </trkpt>
      <trkpt lat="43.56766" lon="2.91983">
        <ele>284</ele>
        <time>2014-01-18T07:35:04Z</time>
      </trkpt>
      <trkpt lat="43.56767" lon="2.91982">
        <ele>284</ele>
        <time>2014-01-18T07:35:05Z</time>
      </trkpt>
      <trkpt lat="43.5677" lon="2.91981">
        <ele>284</ele>
        <time>2014-01-18T07:35:06Z</time>
      </trkpt>
      <trkpt lat="43.56771" lon="2.9198">
        <ele>285</ele>
        <time>2014-01-18T07:35:07Z</time>
      </trkpt>
      <trkpt lat="43.56778" lon="2.91976">
        <ele>285</ele>
        <time>2014-01-18T07:35:10Z</time>
      </trkpt>
      <trkpt lat="43.56782" lon="2.91973">
        <ele>285</ele>
        <time>2014-01-18T07:35:12Z</time>
      </trkpt>
      <trkpt lat="43.56784" lon="2.91972">
        <ele>285</ele>
        <time>2014-01-18T07:35:13Z</time>
      </trkpt>
      <trkpt lat="43.56786" lon="2.91971">
        <ele>285</ele>
        <time>2014-01-18T07:35:14Z</time>
      </trkpt>
      <trkpt lat="43.56788" lon="2.9197">
        <ele>285</ele>
        <time>2014-01-18T07:35:15Z</time>
      </trkpt>
      <trkpt lat="43.5679" lon="2.91969">
        <ele>285</ele>
        <time>2014-01-18T07:35:16Z</time>
      </trkpt>
      <trkpt lat="43.568" lon="2.91961">
        <ele>286</ele>
        <time>2014-01-18T07:35:21Z</time>
      </trkpt>
      <trkpt lat="43.56802" lon="2.91958">
        <ele>286</ele>
        <time>2014-01-18T07:35:22Z</time>
      </trkpt>
      <trkpt lat="43.56803" lon="2.91956">
        <ele>286</ele>
        <time>2014-01-18T07:35:23Z</time>
      </trkpt>
      <trkpt lat="43.56805" lon="2.91953">
        <ele>286</ele>
        <time>2014-01-18T07:35:24Z</time>
      </trkpt>
      <trkpt lat="43.56807" lon="2.91951">
        <ele>286</ele>
        <time>2014-01-18T07:35:25Z</time>
      </trkpt>
      <trkpt lat="43.56815" lon="2.91935">
        <ele>288</ele>
        <time>2014-01-18T07:35:30Z</time>
      </trkpt>
      <trkpt lat="43.5683" lon="2.91903">
        <ele>289</ele>
        <time>2014-01-18T07:35:39Z</time>
      </trkpt>
      <trkpt lat="43.56843" lon="2.91883">
        <ele>296</ele>
        <time>2014-01-18T07:35:45Z</time>
      </trkpt>
      <trkpt lat="43.56846" lon="2.9188">
        <ele>296</ele>
        <time>2014-01-18T07:35:46Z</time>
      </trkpt>
      <trkpt lat="43.56848" lon="2.91877">
        <ele>296</ele>
        <time>2014-01-18T07:35:47Z</time>
      </trkpt>
      <trkpt lat="43.56849" lon="2.91873">
        <ele>296</ele>
        <time>2014-01-18T07:35:48Z</time>
      </trkpt>
      <trkpt lat="43.56852" lon="2.9187">
        <ele>296</ele>
        <time>2014-01-18T07:35:49Z</time>
      </trkpt>
      <trkpt lat="43.56854" lon="2.91866">
        <ele>296</ele>
        <time>2014-01-18T07:35:50Z</time>
      </trkpt>
      <trkpt lat="43.5686" lon="2.91851">
        <ele>297</ele>
        <time>2014-01-18T07:35:54Z</time>
      </trkpt>
      <trkpt lat="43.56862" lon="2.91832">
        <ele>297</ele>
        <time>2014-01-18T07:35:59Z</time>
      </trkpt>
      <trkpt lat="43.56862" lon="2.91829">
        <ele>297</ele>
        <time>2014-01-18T07:36:00Z</time>
      </trkpt>
      <trkpt lat="43.56862" lon="2.91825">
        <ele>297</ele>
        <time>2014-01-18T07:36:01Z</time>
      </trkpt>
      <trkpt lat="43.56862" lon="2.91822">
        <ele>297</ele>
        <time>2014-01-18T07:36:02Z</time>
      </trkpt>
      <trkpt lat="43.56862" lon="2.91818">
        <ele>298</ele>
        <time>2014-01-18T07:36:03Z</time>
      </trkpt>
      <trkpt lat="43.56866" lon="2.91805">
        <ele>299</ele>
        <time>2014-01-18T07:36:07Z</time>
      </trkpt>
      <trkpt lat="43.56868" lon="2.91799">
        <ele>299</ele>
        <time>2014-01-18T07:36:09Z</time>
      </trkpt>
      <trkpt lat="43.56869" lon="2.91796">
        <ele>299</ele>
        <time>2014-01-18T07:36:10Z</time>
      </trkpt>
      <trkpt lat="43.56871" lon="2.91792">
        <ele>299</ele>
        <time>2014-01-18T07:36:11Z</time>
      </trkpt>
      <trkpt lat="43.56872" lon="2.91789">
        <ele>299</ele>
        <time>2014-01-18T07:36:12Z</time>
      </trkpt>
      <trkpt lat="43.56872" lon="2.91786">
        <ele>299</ele>
        <time>2014-01-18T07:36:13Z</time>
      </trkpt>
      <trkpt lat="43.56873" lon="2.91779">
        <ele>300</ele>
        <time>2014-01-18T07:36:15Z</time>
      </trkpt>
      <trkpt lat="43.56877" lon="2.91758">
        <ele>300</ele>
        <time>2014-01-18T07:36:22Z</time>
      </trkpt>
      <trkpt lat="43.56878" lon="2.91756">
        <ele>301</ele>
        <time>2014-01-18T07:36:23Z</time>
      </trkpt>
      <trkpt lat="43.56879" lon="2.91753">
        <ele>301</ele>
        <time>2014-01-18T07:36:24Z</time>
      </trkpt>
      <trkpt lat="43.56881" lon="2.9175">
        <ele>301</ele>
        <time>2014-01-18T07:36:25Z</time>
      </trkpt>
      <trkpt lat="43.56882" lon="2.91747">
        <ele>298</ele>
        <time>2014-01-18T07:36:26Z</time>
      </trkpt>
      <trkpt lat="43.56883" lon="2.91745">
        <ele>299</ele>
        <time>2014-01-18T07:36:27Z</time>
      </trkpt>
      <trkpt lat="43.56884" lon="2.91742">
        <ele>299</ele>
        <time>2014-01-18T07:36:28Z</time>
      </trkpt>
      <trkpt lat="43.56885" lon="2.9174">
        <ele>299</ele>
        <time>2014-01-18T07:36:29Z</time>
      </trkpt>
      <trkpt lat="43.56885" lon="2.91737">
        <ele>299</ele>
        <time>2014-01-18T07:36:30Z</time>
      </trkpt>
      <trkpt lat="43.56886" lon="2.91734">
        <ele>299</ele>
        <time>2014-01-18T07:36:31Z</time>
      </trkpt>
      <trkpt lat="43.5689" lon="2.91728">
        <ele>299</ele>
        <time>2014-01-18T07:36:34Z</time>
      </trkpt>
      <trkpt lat="43.56896" lon="2.91714">
        <ele>299</ele>
        <time>2014-01-18T07:36:39Z</time>
      </trkpt>
      <trkpt lat="43.56897" lon="2.91711">
        <ele>299</ele>
        <time>2014-01-18T07:36:40Z</time>
      </trkpt>
      <trkpt lat="43.56898" lon="2.91708">
        <ele>299</ele>
        <time>2014-01-18T07:36:41Z</time>
      </trkpt>
      <trkpt lat="43.569" lon="2.91706">
        <ele>299</ele>
        <time>2014-01-18T07:36:42Z</time>
      </trkpt>
      <trkpt lat="43.56901" lon="2.91703">
        <ele>299</ele>
        <time>2014-01-18T07:36:43Z</time>
      </trkpt>
      <trkpt lat="43.56911" lon="2.91689">
        <ele>300</ele>
        <time>2014-01-18T07:36:49Z</time>
      </trkpt>
      <trkpt lat="43.56912" lon="2.91687">
        <ele>300</ele>
        <time>2014-01-18T07:36:50Z</time>
      </trkpt>
      <trkpt lat="43.56914" lon="2.91685">
        <ele>301</ele>
        <time>2014-01-18T07:36:51Z</time>
      </trkpt>
      <trkpt lat="43.56915" lon="2.91682">
        <ele>301</ele>
        <time>2014-01-18T07:36:52Z</time>
      </trkpt>
      <trkpt lat="43.56916" lon="2.9168">
        <ele>301</ele>
        <time>2014-01-18T07:36:53Z</time>
      </trkpt>
      <trkpt lat="43.56926" lon="2.91668">
        <ele>312</ele>
        <time>2014-01-18T07:36:59Z</time>
      </trkpt>
      <trkpt lat="43.56928" lon="2.91663">
        <ele>310</ele>
        <time>2014-01-18T07:37:01Z</time>
      </trkpt>
      <trkpt lat="43.56929" lon="2.91661">
        <ele>310</ele>
        <time>2014-01-18T07:37:02Z</time>
      </trkpt>
      <trkpt lat="43.56931" lon="2.91659">
        <ele>311</ele>
        <time>2014-01-18T07:37:03Z</time>
      </trkpt>
      <trkpt lat="43.56932" lon="2.91656">
        <ele>312</ele>
        <time>2014-01-18T07:37:04Z</time>
      </trkpt>
      <trkpt lat="43.56933" lon="2.91653">
        <ele>312</ele>
        <time>2014-01-18T07:37:05Z</time>
      </trkpt>
      <trkpt lat="43.56943" lon="2.91637">
        <ele>315</ele>
        <time>2014-01-18T07:37:12Z</time>
      </trkpt>
      <trkpt lat="43.56947" lon="2.91629">
        <ele>315</ele>
        <time>2014-01-18T07:37:15Z</time>
      </trkpt>
      <trkpt lat="43.56948" lon="2.91626">
        <ele>315</ele>
        <time>2014-01-18T07:37:16Z</time>
      </trkpt>
      <trkpt lat="43.5695" lon="2.91624">
        <ele>315</ele>
        <time>2014-01-18T07:37:17Z</time>
      </trkpt>
      <trkpt lat="43.56951" lon="2.91622">
        <ele>316</ele>
        <time>2014-01-18T07:37:18Z</time>
      </trkpt>
      <trkpt lat="43.56954" lon="2.9162">
        <ele>316</ele>
        <time>2014-01-18T07:37:19Z</time>
      </trkpt>
      <trkpt lat="43.56962" lon="2.91608">
        <ele>317</ele>
        <time>2014-01-18T07:37:25Z</time>
      </trkpt>
      <trkpt lat="43.56964" lon="2.91606">
        <ele>317</ele>
        <time>2014-01-18T07:37:26Z</time>
      </trkpt>
      <trkpt lat="43.56965" lon="2.91604">
        <ele>318</ele>
        <time>2014-01-18T07:37:27Z</time>
      </trkpt>
      <trkpt lat="43.56966" lon="2.91601">
        <ele>318</ele>
        <time>2014-01-18T07:37:28Z</time>
      </trkpt>
      <trkpt lat="43.56967" lon="2.91599">
        <ele>318</ele>
        <time>2014-01-18T07:37:29Z</time>
      </trkpt>
      <trkpt lat="43.5697" lon="2.91591">
        <ele>319</ele>
        <time>2014-01-18T07:37:32Z</time>
      </trkpt>
      <trkpt lat="43.56975" lon="2.91577">
        <ele>318</ele>
        <time>2014-01-18T07:37:37Z</time>
      </trkpt>
      <trkpt lat="43.56976" lon="2.91574">
        <ele>318</ele>
        <time>2014-01-18T07:37:38Z</time>
      </trkpt>
      <trkpt lat="43.56977" lon="2.91571">
        <ele>318</ele>
        <time>2014-01-18T07:37:39Z</time>
      </trkpt>
      <trkpt lat="43.56978" lon="2.91568">
        <ele>318</ele>
        <time>2014-01-18T07:37:40Z</time>
      </trkpt>
      <trkpt lat="43.56979" lon="2.91565">
        <ele>318</ele>
        <time>2014-01-18T07:37:41Z</time>
      </trkpt>
      <trkpt lat="43.56987" lon="2.91559">
        <ele>318</ele>
        <time>2014-01-18T07:37:45Z</time>
      </trkpt>
      <trkpt lat="43.56989" lon="2.91559">
        <ele>319</ele>
        <time>2014-01-18T07:37:46Z</time>
      </trkpt>
      <trkpt lat="43.56992" lon="2.91566">
        <ele>321</ele>
        <time>2014-01-18T07:37:49Z</time>
      </trkpt>
      <trkpt lat="43.56991" lon="2.91569">
        <ele>322</ele>
        <time>2014-01-18T07:37:50Z</time>
      </trkpt>
      <trkpt lat="43.5699" lon="2.91572">
        <ele>322</ele>
        <time>2014-01-18T07:37:51Z</time>
      </trkpt>
      <trkpt lat="43.5699" lon="2.91575">
        <ele>323</ele>
        <time>2014-01-18T07:37:52Z</time>
      </trkpt>
      <trkpt lat="43.56988" lon="2.91577">
        <ele>323</ele>
        <time>2014-01-18T07:37:53Z</time>
      </trkpt>
      <trkpt lat="43.56987" lon="2.9158">
        <ele>323</ele>
        <time>2014-01-18T07:37:54Z</time>
      </trkpt>
      <trkpt lat="43.56986" lon="2.91583">
        <ele>322</ele>
        <time>2014-01-18T07:37:55Z</time>
      </trkpt>
      <trkpt lat="43.56979" lon="2.916">
        <ele>321</ele>
        <time>2014-01-18T07:38:01Z</time>
      </trkpt>
      <trkpt lat="43.56978" lon="2.91604">
        <ele>321</ele>
        <time>2014-01-18T07:38:02Z</time>
      </trkpt>
      <trkpt lat="43.56978" lon="2.91607">
        <ele>321</ele>
        <time>2014-01-18T07:38:03Z</time>
      </trkpt>
      <trkpt lat="43.56977" lon="2.91609">
        <ele>321</ele>
        <time>2014-01-18T07:38:04Z</time>
      </trkpt>
      <trkpt lat="43.56975" lon="2.91612">
        <ele>320</ele>
        <time>2014-01-18T07:38:05Z</time>
      </trkpt>
      <trkpt lat="43.56974" lon="2.91615">
        <ele>320</ele>
        <time>2014-01-18T07:38:06Z</time>
      </trkpt>
      <trkpt lat="43.56973" lon="2.91618">
        <ele>320</ele>
        <time>2014-01-18T07:38:07Z</time>
      </trkpt>
      <trkpt lat="43.56965" lon="2.91641">
        <ele>320</ele>
        <time>2014-01-18T07:38:15Z</time>
      </trkpt>
      <trkpt lat="43.56962" lon="2.91649">
        <ele>320</ele>
        <time>2014-01-18T07:38:18Z</time>
      </trkpt>
      <trkpt lat="43.56961" lon="2.91653">
        <ele>320</ele>
        <time>2014-01-18T07:38:19Z</time>
      </trkpt>
      <trkpt lat="43.5696" lon="2.91656">
        <ele>320</ele>
        <time>2014-01-18T07:38:20Z</time>
      </trkpt>
      <trkpt lat="43.56959" lon="2.91659">
        <ele>319</ele>
        <time>2014-01-18T07:38:21Z</time>
      </trkpt>
      <trkpt lat="43.56958" lon="2.91662">
        <ele>319</ele>
        <time>2014-01-18T07:38:22Z</time>
      </trkpt>
      <trkpt lat="43.56957" lon="2.91665">
        <ele>319</ele>
        <time>2014-01-18T07:38:23Z</time>
      </trkpt>
      <trkpt lat="43.56955" lon="2.91677">
        <ele>324</ele>
        <time>2014-01-18T07:38:27Z</time>
      </trkpt>
      <trkpt lat="43.56955" lon="2.9168">
        <ele>324</ele>
        <time>2014-01-18T07:38:28Z</time>
      </trkpt>
      <trkpt lat="43.56954" lon="2.91683">
        <ele>323</ele>
        <time>2014-01-18T07:38:29Z</time>
      </trkpt>
      <trkpt lat="43.56953" lon="2.91685">
        <ele>323</ele>
        <time>2014-01-18T07:38:30Z</time>
      </trkpt>
      <trkpt lat="43.56952" lon="2.91688">
        <ele>323</ele>
        <time>2014-01-18T07:38:31Z</time>
      </trkpt>
      <trkpt lat="43.56947" lon="2.9171">
        <ele>324</ele>
        <time>2014-01-18T07:38:38Z</time>
      </trkpt>
      <trkpt lat="43.56947" lon="2.91713">
        <ele>324</ele>
        <time>2014-01-18T07:38:39Z</time>
      </trkpt>
      <trkpt lat="43.56946" lon="2.91716">
        <ele>324</ele>
        <time>2014-01-18T07:38:40Z</time>
      </trkpt>
      <trkpt lat="43.56945" lon="2.91718">
        <ele>323</ele>
        <time>2014-01-18T07:38:41Z</time>
      </trkpt>
      <trkpt lat="43.56944" lon="2.91721">
        <ele>323</ele>
        <time>2014-01-18T07:38:42Z</time>
      </trkpt>
      <trkpt lat="43.56942" lon="2.91723">
        <ele>323</ele>
        <time>2014-01-18T07:38:43Z</time>
      </trkpt>
      <trkpt lat="43.56941" lon="2.91729">
        <ele>323</ele>
        <time>2014-01-18T07:38:45Z</time>
      </trkpt>
      <trkpt lat="43.56936" lon="2.9175">
        <ele>321</ele>
        <time>2014-01-18T07:38:52Z</time>
      </trkpt>
      <trkpt lat="43.56935" lon="2.91753">
        <ele>321</ele>
        <time>2014-01-18T07:38:53Z</time>
      </trkpt>
      <trkpt lat="43.56935" lon="2.91756">
        <ele>321</ele>
        <time>2014-01-18T07:38:54Z</time>
      </trkpt>
      <trkpt lat="43.56934" lon="2.91759">
        <ele>321</ele>
        <time>2014-01-18T07:38:55Z</time>
      </trkpt>
      <trkpt lat="43.56934" lon="2.91768">
        <ele>322</ele>
        <time>2014-01-18T07:38:58Z</time>
      </trkpt>
      <trkpt lat="43.56938" lon="2.9179">
        <ele>323</ele>
        <time>2014-01-18T07:39:05Z</time>
      </trkpt>
      <trkpt lat="43.56941" lon="2.91794">
        <ele>323</ele>
        <time>2014-01-18T07:39:07Z</time>
      </trkpt>
      <trkpt lat="43.56943" lon="2.91795">
        <ele>324</ele>
        <time>2014-01-18T07:39:08Z</time>
      </trkpt>
      <trkpt lat="43.56945" lon="2.91794">
        <ele>324</ele>
        <time>2014-01-18T07:39:09Z</time>
      </trkpt>
      <trkpt lat="43.56948" lon="2.91793">
        <ele>324</ele>
        <time>2014-01-18T07:39:10Z</time>
      </trkpt>
      <trkpt lat="43.56949" lon="2.9179">
        <ele>325</ele>
        <time>2014-01-18T07:39:11Z</time>
      </trkpt>
      <trkpt lat="43.56951" lon="2.91779">
        <ele>325</ele>
        <time>2014-01-18T07:39:14Z</time>
      </trkpt>
      <trkpt lat="43.56952" lon="2.91776">
        <ele>325</ele>
        <time>2014-01-18T07:39:15Z</time>
      </trkpt>
      <trkpt lat="43.56952" lon="2.91773">
        <ele>325</ele>
        <time>2014-01-18T07:39:16Z</time>
      </trkpt>
      <trkpt lat="43.56952" lon="2.9177">
        <ele>325</ele>
        <time>2014-01-18T07:39:17Z</time>
      </trkpt>
      <trkpt lat="43.56952" lon="2.91767">
        <ele>325</ele>
        <time>2014-01-18T07:39:18Z</time>
      </trkpt>
      <trkpt lat="43.56953" lon="2.91758">
        <ele>326</ele>
        <time>2014-01-18T07:39:21Z</time>
      </trkpt>
      <trkpt lat="43.56956" lon="2.91738">
        <ele>326</ele>
        <time>2014-01-18T07:39:28Z</time>
      </trkpt>
      <trkpt lat="43.56957" lon="2.91735">
        <ele>326</ele>
        <time>2014-01-18T07:39:29Z</time>
      </trkpt>
      <trkpt lat="43.56958" lon="2.91732">
        <ele>326</ele>
        <time>2014-01-18T07:39:30Z</time>
      </trkpt>
      <trkpt lat="43.56959" lon="2.9173">
        <ele>326</ele>
        <time>2014-01-18T07:39:31Z</time>
      </trkpt>
      <trkpt lat="43.5696" lon="2.91727">
        <ele>327</ele>
        <time>2014-01-18T07:39:32Z</time>
      </trkpt>
      <trkpt lat="43.56967" lon="2.91713">
        <ele>327</ele>
        <time>2014-01-18T07:39:38Z</time>
      </trkpt>
      <trkpt lat="43.56969" lon="2.9171">
        <ele>328</ele>
        <time>2014-01-18T07:39:39Z</time>
      </trkpt>
      <trkpt lat="43.5697" lon="2.91707">
        <ele>328</ele>
        <time>2014-01-18T07:39:40Z</time>
      </trkpt>
      <trkpt lat="43.56971" lon="2.91705">
        <ele>328</ele>
        <time>2014-01-18T07:39:41Z</time>
      </trkpt>
      <trkpt lat="43.56973" lon="2.91703">
        <ele>328</ele>
        <time>2014-01-18T07:39:42Z</time>
      </trkpt>
      <trkpt lat="43.5698" lon="2.91692">
        <ele>329</ele>
        <time>2014-01-18T07:39:47Z</time>
      </trkpt>
      <trkpt lat="43.56982" lon="2.9169">
        <ele>330</ele>
        <time>2014-01-18T07:39:48Z</time>
      </trkpt>
      <trkpt lat="43.56983" lon="2.91688">
        <ele>330</ele>
        <time>2014-01-18T07:39:49Z</time>
      </trkpt>
      <trkpt lat="43.56984" lon="2.91685">
        <ele>331</ele>
        <time>2014-01-18T07:39:50Z</time>
      </trkpt>
      <trkpt lat="43.56986" lon="2.91683">
        <ele>332</ele>
        <time>2014-01-18T07:39:51Z</time>
      </trkpt>
      <trkpt lat="43.56993" lon="2.91673">
        <ele>335</ele>
        <time>2014-01-18T07:39:56Z</time>
      </trkpt>
      <trkpt lat="43.56996" lon="2.9167">
        <ele>337</ele>
        <time>2014-01-18T07:39:58Z</time>
      </trkpt>
      <trkpt lat="43.56999" lon="2.91667">
        <ele>340</ele>
        <time>2014-01-18T07:40:00Z</time>
      </trkpt>
      <trkpt lat="43.57001" lon="2.91665">
        <ele>341</ele>
        <time>2014-01-18T07:40:01Z</time>
      </trkpt>
      <trkpt lat="43.57002" lon="2.91663">
        <ele>342</ele>
        <time>2014-01-18T07:40:02Z</time>
      </trkpt>
      <trkpt lat="43.57004" lon="2.91661">
        <ele>344</ele>
        <time>2014-01-18T07:40:03Z</time>
      </trkpt>
      <trkpt lat="43.57005" lon="2.91659">
        <ele>345</ele>
        <time>2014-01-18T07:40:04Z</time>
      </trkpt>
      <trkpt lat="43.57014" lon="2.91647">
        <ele>349</ele>
        <time>2014-01-18T07:40:10Z</time>
      </trkpt>
      <trkpt lat="43.57016" lon="2.91646">
        <ele>350</ele>
        <time>2014-01-18T07:40:11Z</time>
      </trkpt>
      <trkpt lat="43.57017" lon="2.91644">
        <ele>350</ele>
        <time>2014-01-18T07:40:12Z</time>
      </trkpt>
      <trkpt lat="43.57018" lon="2.91641">
        <ele>350</ele>
        <time>2014-01-18T07:40:13Z</time>
      </trkpt>
      <trkpt lat="43.57019" lon="2.91639">
        <ele>351</ele>
        <time>2014-01-18T07:40:14Z</time>
      </trkpt>
      <trkpt lat="43.5702" lon="2.91636">
        <ele>351</ele>
        <time>2014-01-18T07:40:15Z</time>
      </trkpt>
      <trkpt lat="43.57023" lon="2.91632">
        <ele>352</ele>
        <time>2014-01-18T07:40:17Z</time>
      </trkpt>
      <trkpt lat="43.57024" lon="2.9163">
        <ele>352</ele>
        <time>2014-01-18T07:40:18Z</time>
      </trkpt>
      <trkpt lat="43.57025" lon="2.91627">
        <ele>352</ele>
        <time>2014-01-18T07:40:19Z</time>
      </trkpt>
      <trkpt lat="43.57026" lon="2.91625">
        <ele>352</ele>
        <time>2014-01-18T07:40:20Z</time>
      </trkpt>
      <trkpt lat="43.57028" lon="2.91622">
        <ele>352</ele>
        <time>2014-01-18T07:40:21Z</time>
      </trkpt>
      <trkpt lat="43.57028" lon="2.9162">
        <ele>352</ele>
        <time>2014-01-18T07:40:22Z</time>
      </trkpt>
      <trkpt lat="43.5703" lon="2.91614">
        <ele>352</ele>
        <time>2014-01-18T07:40:24Z</time>
      </trkpt>
      <trkpt lat="43.57039" lon="2.91599">
        <ele>354</ele>
        <time>2014-01-18T07:40:31Z</time>
      </trkpt>
      <trkpt lat="43.57041" lon="2.91599">
        <ele>355</ele>
        <time>2014-01-18T07:40:32Z</time>
      </trkpt>
      <trkpt lat="43.57043" lon="2.91599">
        <ele>356</ele>
        <time>2014-01-18T07:40:33Z</time>
      </trkpt>
      <trkpt lat="43.57045" lon="2.91601">
        <ele>356</ele>
        <time>2014-01-18T07:40:34Z</time>
      </trkpt>
      <trkpt lat="43.57045" lon="2.91603">
        <ele>357</ele>
        <time>2014-01-18T07:40:35Z</time>
      </trkpt>
      <trkpt lat="43.57044" lon="2.91607">
        <ele>356</ele>
        <time>2014-01-18T07:40:37Z</time>
      </trkpt>
      <trkpt lat="43.57039" lon="2.91617">
        <ele>355</ele>
        <time>2014-01-18T07:40:41Z</time>
      </trkpt>
      <trkpt lat="43.57036" lon="2.91622">
        <ele>354</ele>
        <time>2014-01-18T07:40:43Z</time>
      </trkpt>
      <trkpt lat="43.57028" lon="2.91648">
        <ele>353</ele>
        <time>2014-01-18T07:40:52Z</time>
      </trkpt>
      <trkpt lat="43.57027" lon="2.91654">
        <ele>352</ele>
        <time>2014-01-18T07:40:54Z</time>
      </trkpt>
      <trkpt lat="43.57026" lon="2.91657">
        <ele>352</ele>
        <time>2014-01-18T07:40:55Z</time>
      </trkpt>
      <trkpt lat="43.57026" lon="2.9166">
        <ele>351</ele>
        <time>2014-01-18T07:40:56Z</time>
      </trkpt>
      <trkpt lat="43.57025" lon="2.91663">
        <ele>351</ele>
        <time>2014-01-18T07:40:57Z</time>
      </trkpt>
      <trkpt lat="43.57025" lon="2.91672">
        <ele>351</ele>
        <time>2014-01-18T07:41:00Z</time>
      </trkpt>
      <trkpt lat="43.57028" lon="2.91696">
        <ele>353</ele>
        <time>2014-01-18T07:41:08Z</time>
      </trkpt>
      <trkpt lat="43.57029" lon="2.91698">
        <ele>353</ele>
        <time>2014-01-18T07:41:09Z</time>
      </trkpt>
      <trkpt lat="43.5703" lon="2.917">
        <ele>353</ele>
        <time>2014-01-18T07:41:10Z</time>
      </trkpt>
      <trkpt lat="43.57031" lon="2.91703">
        <ele>354</ele>
        <time>2014-01-18T07:41:11Z</time>
      </trkpt>
      <trkpt lat="43.57033" lon="2.91705">
        <ele>354</ele>
        <time>2014-01-18T07:41:12Z</time>
      </trkpt>
      <trkpt lat="43.57038" lon="2.9171">
        <ele>355</ele>
        <time>2014-01-18T07:41:15Z</time>
      </trkpt>
      <trkpt lat="43.57046" lon="2.91715">
        <ele>356</ele>
        <time>2014-01-18T07:41:19Z</time>
      </trkpt>
      <trkpt lat="43.57049" lon="2.91716">
        <ele>356</ele>
        <time>2014-01-18T07:41:20Z</time>
      </trkpt>
      <trkpt lat="43.57051" lon="2.91717">
        <ele>356</ele>
        <time>2014-01-18T07:41:21Z</time>
      </trkpt>
      <trkpt lat="43.57052" lon="2.91719">
        <ele>357</ele>
        <time>2014-01-18T07:41:22Z</time>
      </trkpt>
      <trkpt lat="43.57054" lon="2.91719">
        <ele>357</ele>
        <time>2014-01-18T07:41:23Z</time>
      </trkpt>
      <trkpt lat="43.57063" lon="2.91723">
        <ele>358</ele>
        <time>2014-01-18T07:41:27Z</time>
      </trkpt>
      <trkpt lat="43.57065" lon="2.91724">
        <ele>358</ele>
        <time>2014-01-18T07:41:28Z</time>
      </trkpt>
      <trkpt lat="43.57067" lon="2.91725">
        <ele>359</ele>
        <time>2014-01-18T07:41:29Z</time>
      </trkpt>
      <trkpt lat="43.57069" lon="2.91725">
        <ele>359</ele>
        <time>2014-01-18T07:41:30Z</time>
      </trkpt>
      <trkpt lat="43.57071" lon="2.91726">
        <ele>359</ele>
        <time>2014-01-18T07:41:31Z</time>
      </trkpt>
      <trkpt lat="43.57081" lon="2.9173">
        <ele>360</ele>
        <time>2014-01-18T07:41:36Z</time>
      </trkpt>
      <trkpt lat="43.5709" lon="2.91746">
        <ele>370</ele>
        <time>2014-01-18T07:41:43Z</time>
      </trkpt>
      <trkpt lat="43.5709" lon="2.91749">
        <ele>370</ele>
        <time>2014-01-18T07:41:44Z</time>
      </trkpt>
      <trkpt lat="43.57091" lon="2.91752">
        <ele>368</ele>
        <time>2014-01-18T07:41:45Z</time>
      </trkpt>
      <trkpt lat="43.57091" lon="2.91755">
        <ele>369</ele>
        <time>2014-01-18T07:41:46Z</time>
      </trkpt>
      <trkpt lat="43.5709" lon="2.91767">
        <ele>372</ele>
        <time>2014-01-18T07:41:50Z</time>
      </trkpt>
      <trkpt lat="43.57089" lon="2.91772">
        <ele>373</ele>
        <time>2014-01-18T07:41:52Z</time>
      </trkpt>
      <trkpt lat="43.57089" lon="2.91775">
        <ele>373</ele>
        <time>2014-01-18T07:41:53Z</time>
      </trkpt>
      <trkpt lat="43.57089" lon="2.91778">
        <ele>373</ele>
        <time>2014-01-18T07:41:54Z</time>
      </trkpt>
      <trkpt lat="43.57089" lon="2.91782">
        <ele>374</ele>
        <time>2014-01-18T07:41:55Z</time>
      </trkpt>
      <trkpt lat="43.5709" lon="2.91784">
        <ele>374</ele>
        <time>2014-01-18T07:41:56Z</time>
      </trkpt>
      <trkpt lat="43.57091" lon="2.91794">
        <ele>374</ele>
        <time>2014-01-18T07:41:59Z</time>
      </trkpt>
      <trkpt lat="43.57095" lon="2.91804">
        <ele>374</ele>
        <time>2014-01-18T07:42:03Z</time>
      </trkpt>
      <trkpt lat="43.57095" lon="2.91807">
        <ele>373</ele>
        <time>2014-01-18T07:42:04Z</time>
      </trkpt>
      <trkpt lat="43.57096" lon="2.91811">
        <ele>373</ele>
        <time>2014-01-18T07:42:05Z</time>
      </trkpt>
      <trkpt lat="43.57096" lon="2.91814">
        <ele>373</ele>
        <time>2014-01-18T07:42:06Z</time>
      </trkpt>
      <trkpt lat="43.57097" lon="2.91817">
        <ele>372</ele>
        <time>2014-01-18T07:42:07Z</time>
      </trkpt>
      <trkpt lat="43.57102" lon="2.9184">
        <ele>370</ele>
        <time>2014-01-18T07:42:15Z</time>
      </trkpt>
      <trkpt lat="43.57102" lon="2.91843">
        <ele>371</ele>
        <time>2014-01-18T07:42:16Z</time>
      </trkpt>
      <trkpt lat="43.57103" lon="2.91846">
        <ele>371</ele>
        <time>2014-01-18T07:42:17Z</time>
      </trkpt>
      <trkpt lat="43.57104" lon="2.91848">
        <ele>371</ele>
        <time>2014-01-18T07:42:18Z</time>
      </trkpt>
      <trkpt lat="43.57105" lon="2.91851">
        <ele>372</ele>
        <time>2014-01-18T07:42:19Z</time>
      </trkpt>
      <trkpt lat="43.57105" lon="2.91854">
        <ele>372</ele>
        <time>2014-01-18T07:42:20Z</time>
      </trkpt>
      <trkpt lat="43.57109" lon="2.91867">
        <ele>373</ele>
        <time>2014-01-18T07:42:25Z</time>
      </trkpt>
      <trkpt lat="43.57115" lon="2.91881">
        <ele>374</ele>
        <time>2014-01-18T07:42:31Z</time>
      </trkpt>
      <trkpt lat="43.57116" lon="2.91884">
        <ele>374</ele>
        <time>2014-01-18T07:42:32Z</time>
      </trkpt>
      <trkpt lat="43.57116" lon="2.91886">
        <ele>374</ele>
        <time>2014-01-18T07:42:33Z</time>
      </trkpt>
      <trkpt lat="43.57117" lon="2.9189">
        <ele>374</ele>
        <time>2014-01-18T07:42:34Z</time>
      </trkpt>
      <trkpt lat="43.5712" lon="2.91905">
        <ele>374</ele>
        <time>2014-01-18T07:42:40Z</time>
      </trkpt>
      <trkpt lat="43.57121" lon="2.91908">
        <ele>374</ele>
        <time>2014-01-18T07:42:41Z</time>
      </trkpt>
      <trkpt lat="43.57121" lon="2.91911">
        <ele>374</ele>
        <time>2014-01-18T07:42:42Z</time>
      </trkpt>
      <trkpt lat="43.57122" lon="2.91914">
        <ele>374</ele>
        <time>2014-01-18T07:42:43Z</time>
      </trkpt>
      <trkpt lat="43.57123" lon="2.91917">
        <ele>368</ele>
        <time>2014-01-18T07:42:44Z</time>
      </trkpt>
      <trkpt lat="43.57124" lon="2.91919">
        <ele>368</ele>
        <time>2014-01-18T07:42:45Z</time>
      </trkpt>
      <trkpt lat="43.57125" lon="2.91924">
        <ele>368</ele>
        <time>2014-01-18T07:42:47Z</time>
      </trkpt>
      <trkpt lat="43.57127" lon="2.91938">
        <ele>368</ele>
        <time>2014-01-18T07:42:52Z</time>
      </trkpt>
      <trkpt lat="43.57128" lon="2.91941">
        <ele>368</ele>
        <time>2014-01-18T07:42:53Z</time>
      </trkpt>
      <trkpt lat="43.57129" lon="2.91944">
        <ele>368</ele>
        <time>2014-01-18T07:42:54Z</time>
      </trkpt>
      <trkpt lat="43.57129" lon="2.91947">
        <ele>368</ele>
        <time>2014-01-18T07:42:55Z</time>
      </trkpt>
      <trkpt lat="43.5713" lon="2.9195">
        <ele>368</ele>
        <time>2014-01-18T07:42:56Z</time>
      </trkpt>
      <trkpt lat="43.57132" lon="2.91963">
        <ele>367</ele>
        <time>2014-01-18T07:43:01Z</time>
      </trkpt>
      <trkpt lat="43.57141" lon="2.91974">
        <ele>367</ele>
        <time>2014-01-18T07:43:07Z</time>
      </trkpt>
      <trkpt lat="43.57152" lon="2.91976">
        <ele>368</ele>
        <time>2014-01-18T07:43:13Z</time>
      </trkpt>
      <trkpt lat="43.57154" lon="2.91976">
        <ele>368</ele>
        <time>2014-01-18T07:43:14Z</time>
      </trkpt>
      <trkpt lat="43.57156" lon="2.91976">
        <ele>369</ele>
        <time>2014-01-18T07:43:15Z</time>
      </trkpt>
      <trkpt lat="43.57158" lon="2.91975">
        <ele>369</ele>
        <time>2014-01-18T07:43:16Z</time>
      </trkpt>
      <trkpt lat="43.5716" lon="2.91975">
        <ele>369</ele>
        <time>2014-01-18T07:43:17Z</time>
      </trkpt>
      <trkpt lat="43.57167" lon="2.91974">
        <ele>384</ele>
        <time>2014-01-18T07:43:20Z</time>
      </trkpt>
      <trkpt lat="43.57175" lon="2.91973">
        <ele>385</ele>
        <time>2014-01-18T07:43:24Z</time>
      </trkpt>
      <trkpt lat="43.57177" lon="2.91973">
        <ele>385</ele>
        <time>2014-01-18T07:43:25Z</time>
      </trkpt>
      <trkpt lat="43.57179" lon="2.91973">
        <ele>386</ele>
        <time>2014-01-18T07:43:26Z</time>
      </trkpt>
      <trkpt lat="43.57181" lon="2.91974">
        <ele>386</ele>
        <time>2014-01-18T07:43:27Z</time>
      </trkpt>
      <trkpt lat="43.57183" lon="2.91975">
        <ele>386</ele>
        <time>2014-01-18T07:43:28Z</time>
      </trkpt>
      <trkpt lat="43.57191" lon="2.91977">
        <ele>387</ele>
        <time>2014-01-18T07:43:32Z</time>
      </trkpt>
      <trkpt lat="43.57193" lon="2.91977">
        <ele>388</ele>
        <time>2014-01-18T07:43:33Z</time>
      </trkpt>
      <trkpt lat="43.57196" lon="2.91978">
        <ele>388</ele>
        <time>2014-01-18T07:43:34Z</time>
      </trkpt>
      <trkpt lat="43.57198" lon="2.91978">
        <ele>388</ele>
        <time>2014-01-18T07:43:35Z</time>
      </trkpt>
      <trkpt lat="43.572" lon="2.91979">
        <ele>389</ele>
        <time>2014-01-18T07:43:36Z</time>
      </trkpt>
      <trkpt lat="43.57202" lon="2.9198">
        <ele>389</ele>
        <time>2014-01-18T07:43:37Z</time>
      </trkpt>
      <trkpt lat="43.57208" lon="2.91983">
        <ele>390</ele>
        <time>2014-01-18T07:43:40Z</time>
      </trkpt>
      <trkpt lat="43.57218" lon="2.91987">
        <ele>392</ele>
        <time>2014-01-18T07:43:45Z</time>
      </trkpt>
      <trkpt lat="43.5722" lon="2.91988">
        <ele>392</ele>
        <time>2014-01-18T07:43:46Z</time>
      </trkpt>
      <trkpt lat="43.57222" lon="2.91989">
        <ele>392</ele>
        <time>2014-01-18T07:43:47Z</time>
      </trkpt>
      <trkpt lat="43.57224" lon="2.9199">
        <ele>392</ele>
        <time>2014-01-18T07:43:48Z</time>
      </trkpt>
      <trkpt lat="43.57233" lon="2.91997">
        <ele>393</ele>
        <time>2014-01-18T07:43:53Z</time>
      </trkpt>
      <trkpt lat="43.57235" lon="2.91999">
        <ele>394</ele>
        <time>2014-01-18T07:43:54Z</time>
      </trkpt>
      <trkpt lat="43.57236" lon="2.92001">
        <ele>389</ele>
        <time>2014-01-18T07:43:55Z</time>
      </trkpt>
      <trkpt lat="43.57238" lon="2.92003">
        <ele>389</ele>
        <time>2014-01-18T07:43:56Z</time>
      </trkpt>
      <trkpt lat="43.57239" lon="2.92005">
        <ele>390</ele>
        <time>2014-01-18T07:43:57Z</time>
      </trkpt>
      <trkpt lat="43.5724" lon="2.92008">
        <ele>389</ele>
        <time>2014-01-18T07:43:58Z</time>
      </trkpt>
      <trkpt lat="43.57241" lon="2.92013">
        <ele>389</ele>
        <time>2014-01-18T07:44:00Z</time>
      </trkpt>
      <trkpt lat="43.57243" lon="2.92024">
        <ele>387</ele>
        <time>2014-01-18T07:44:04Z</time>
      </trkpt>
      <trkpt lat="43.57243" lon="2.92026">
        <ele>387</ele>
        <time>2014-01-18T07:44:05Z</time>
      </trkpt>
      <trkpt lat="43.57243" lon="2.92029">
        <ele>386</ele>
        <time>2014-01-18T07:44:06Z</time>
      </trkpt>
      <trkpt lat="43.57243" lon="2.92032">
        <ele>386</ele>
        <time>2014-01-18T07:44:07Z</time>
      </trkpt>
      <trkpt lat="43.57243" lon="2.92034">
        <ele>386</ele>
        <time>2014-01-18T07:44:08Z</time>
      </trkpt>
      <trkpt lat="43.57245" lon="2.92049">
        <ele>386</ele>
        <time>2014-01-18T07:44:14Z</time>
      </trkpt>
      <trkpt lat="43.57246" lon="2.92054">
        <ele>386</ele>
        <time>2014-01-18T07:44:16Z</time>
      </trkpt>
      <trkpt lat="43.57246" lon="2.92056">
        <ele>387</ele>
        <time>2014-01-18T07:44:17Z</time>
      </trkpt>
      <trkpt lat="43.57246" lon="2.92058">
        <ele>387</ele>
        <time>2014-01-18T07:44:18Z</time>
      </trkpt>
      <trkpt lat="43.57246" lon="2.92061">
        <ele>387</ele>
        <time>2014-01-18T07:44:19Z</time>
      </trkpt>
      <trkpt lat="43.57246" lon="2.92064">
        <ele>388</ele>
        <time>2014-01-18T07:44:20Z</time>
      </trkpt>
      <trkpt lat="43.57241" lon="2.92083">
        <ele>391</ele>
        <time>2014-01-18T07:44:27Z</time>
      </trkpt>
      <trkpt lat="43.5724" lon="2.92085">
        <ele>392</ele>
        <time>2014-01-18T07:44:28Z</time>
      </trkpt>
      <trkpt lat="43.57239" lon="2.92087">
        <ele>391</ele>
        <time>2014-01-18T07:44:29Z</time>
      </trkpt>
      <trkpt lat="43.57237" lon="2.92089">
        <ele>391</ele>
        <time>2014-01-18T07:44:30Z</time>
      </trkpt>
      <trkpt lat="43.57236" lon="2.92091">
        <ele>390</ele>
        <time>2014-01-18T07:44:31Z</time>
      </trkpt>
      <trkpt lat="43.57234" lon="2.92093">
        <ele>390</ele>
        <time>2014-01-18T07:44:32Z</time>
      </trkpt>
      <trkpt lat="43.57232" lon="2.92099">
        <ele>389</ele>
        <time>2014-01-18T07:44:34Z</time>
      </trkpt>
      <trkpt lat="43.57229" lon="2.92103">
        <ele>388</ele>
        <time>2014-01-18T07:44:36Z</time>
      </trkpt>
      <trkpt lat="43.57228" lon="2.92105">
        <ele>388</ele>
        <time>2014-01-18T07:44:37Z</time>
      </trkpt>
      <trkpt lat="43.57226" lon="2.92107">
        <ele>388</ele>
        <time>2014-01-18T07:44:38Z</time>
      </trkpt>
      <trkpt lat="43.57225" lon="2.92109">
        <ele>388</ele>
        <time>2014-01-18T07:44:39Z</time>
      </trkpt>
      <trkpt lat="43.57224" lon="2.92111">
        <ele>388</ele>
        <time>2014-01-18T07:44:40Z</time>
      </trkpt>
      <trkpt lat="43.57216" lon="2.92128">
        <ele>387</ele>
        <time>2014-01-18T07:44:47Z</time>
      </trkpt>
      <trkpt lat="43.57216" lon="2.9213">
        <ele>388</ele>
        <time>2014-01-18T07:44:48Z</time>
      </trkpt>
      <trkpt lat="43.57215" lon="2.92133">
        <ele>388</ele>
        <time>2014-01-18T07:44:49Z</time>
      </trkpt>
      <trkpt lat="43.57214" lon="2.92136">
        <ele>388</ele>
        <time>2014-01-18T07:44:50Z</time>
      </trkpt>
      <trkpt lat="43.57213" lon="2.92139">
        <ele>388</ele>
        <time>2014-01-18T07:44:51Z</time>
      </trkpt>
      <trkpt lat="43.57208" lon="2.92152">
        <ele>388</ele>
        <time>2014-01-18T07:44:56Z</time>
      </trkpt>
      <trkpt lat="43.57206" lon="2.92158">
        <ele>387</ele>
        <time>2014-01-18T07:44:58Z</time>
      </trkpt>
      <trkpt lat="43.57205" lon="2.9216">
        <ele>387</ele>
        <time>2014-01-18T07:44:59Z</time>
      </trkpt>
      <trkpt lat="43.57205" lon="2.92162">
        <ele>387</ele>
        <time>2014-01-18T07:45:00Z</time>
      </trkpt>
      <trkpt lat="43.57204" lon="2.92165">
        <ele>387</ele>
        <time>2014-01-18T07:45:01Z</time>
      </trkpt>
      <trkpt lat="43.57202" lon="2.9217">
        <ele>389</ele>
        <time>2014-01-18T07:45:03Z</time>
      </trkpt>
      <trkpt lat="43.57196" lon="2.92187">
        <ele>387</ele>
        <time>2014-01-18T07:45:10Z</time>
      </trkpt>
      <trkpt lat="43.57196" lon="2.92194">
        <ele>387</ele>
        <time>2014-01-18T07:45:13Z</time>
      </trkpt>
      <trkpt lat="43.57196" lon="2.92197">
        <ele>387</ele>
        <time>2014-01-18T07:45:14Z</time>
      </trkpt>
      <trkpt lat="43.57197" lon="2.92199">
        <ele>387</ele>
        <time>2014-01-18T07:45:15Z</time>
      </trkpt>
      <trkpt lat="43.57198" lon="2.92201">
        <ele>388</ele>
        <time>2014-01-18T07:45:16Z</time>
      </trkpt>
      <trkpt lat="43.57198" lon="2.92203">
        <ele>388</ele>
        <time>2014-01-18T07:45:17Z</time>
      </trkpt>
      <trkpt lat="43.57199" lon="2.92208">
        <ele>388</ele>
        <time>2014-01-18T07:45:19Z</time>
      </trkpt>
      <trkpt lat="43.57205" lon="2.92215">
        <ele>388</ele>
        <time>2014-01-18T07:45:23Z</time>
      </trkpt>
      <trkpt lat="43.57214" lon="2.92221">
        <ele>389</ele>
        <time>2014-01-18T07:45:28Z</time>
      </trkpt>
      <trkpt lat="43.57216" lon="2.92221">
        <ele>390</ele>
        <time>2014-01-18T07:45:29Z</time>
      </trkpt>
      <trkpt lat="43.57217" lon="2.92222">
        <ele>390</ele>
        <time>2014-01-18T07:45:30Z</time>
      </trkpt>
      <trkpt lat="43.57219" lon="2.92223">
        <ele>390</ele>
        <time>2014-01-18T07:45:31Z</time>
      </trkpt>
      <trkpt lat="43.57221" lon="2.92224">
        <ele>390</ele>
        <time>2014-01-18T07:45:32Z</time>
      </trkpt>
      <trkpt lat="43.57233" lon="2.92228">
        <ele>392</ele>
        <time>2014-01-18T07:45:38Z</time>
      </trkpt>
      <trkpt lat="43.57248" lon="2.92232">
        <ele>394</ele>
        <time>2014-01-18T07:45:46Z</time>
      </trkpt>
      <trkpt lat="43.57252" lon="2.92234">
        <ele>404</ele>
        <time>2014-01-18T07:45:48Z</time>
      </trkpt>
      <trkpt lat="43.57253" lon="2.92235">
        <ele>404</ele>
        <time>2014-01-18T07:45:49Z</time>
      </trkpt>
      <trkpt lat="43.57255" lon="2.92236">
        <ele>404</ele>
        <time>2014-01-18T07:45:50Z</time>
      </trkpt>
      <trkpt lat="43.57257" lon="2.92237">
        <ele>404</ele>
        <time>2014-01-18T07:45:51Z</time>
      </trkpt>
      <trkpt lat="43.57259" lon="2.92238">
        <ele>404</ele>
        <time>2014-01-18T07:45:52Z</time>
      </trkpt>
      <trkpt lat="43.57273" lon="2.92247">
        <ele>406</ele>
        <time>2014-01-18T07:45:59Z</time>
      </trkpt>
      <trkpt lat="43.57275" lon="2.92249">
        <ele>407</ele>
        <time>2014-01-18T07:46:00Z</time>
      </trkpt>
      <trkpt lat="43.57276" lon="2.9225">
        <ele>396</ele>
        <time>2014-01-18T07:46:01Z</time>
      </trkpt>
      <trkpt lat="43.57278" lon="2.92252">
        <ele>396</ele>
        <time>2014-01-18T07:46:02Z</time>
      </trkpt>
      <trkpt lat="43.5728" lon="2.92253">
        <ele>396</ele>
        <time>2014-01-18T07:46:03Z</time>
      </trkpt>
      <trkpt lat="43.57282" lon="2.92254">
        <ele>396</ele>
        <time>2014-01-18T07:46:04Z</time>
      </trkpt>
      <trkpt lat="43.5729" lon="2.92259">
        <ele>397</ele>
        <time>2014-01-18T07:46:08Z</time>
      </trkpt>
      <trkpt lat="43.573" lon="2.92265">
        <ele>398</ele>
        <time>2014-01-18T07:46:13Z</time>
      </trkpt>
      <trkpt lat="43.57302" lon="2.92266">
        <ele>398</ele>
        <time>2014-01-18T07:46:14Z</time>
      </trkpt>
      <trkpt lat="43.57304" lon="2.92267">
        <ele>399</ele>
        <time>2014-01-18T07:46:15Z</time>
      </trkpt>
      <trkpt lat="43.57306" lon="2.92268">
        <ele>399</ele>
        <time>2014-01-18T07:46:16Z</time>
      </trkpt>
      <trkpt lat="43.57312" lon="2.92271">
        <ele>400</ele>
        <time>2014-01-18T07:46:19Z</time>
      </trkpt>
      <trkpt lat="43.57314" lon="2.92272">
        <ele>400</ele>
        <time>2014-01-18T07:46:20Z</time>
      </trkpt>
      <trkpt lat="43.57316" lon="2.92273">
        <ele>400</ele>
        <time>2014-01-18T07:46:21Z</time>
      </trkpt>
      <trkpt lat="43.57318" lon="2.92273">
        <ele>400</ele>
        <time>2014-01-18T07:46:22Z</time>
      </trkpt>
      <trkpt lat="43.57321" lon="2.92274">
        <ele>401</ele>
        <time>2014-01-18T07:46:23Z</time>
      </trkpt>
      <trkpt lat="43.57329" lon="2.92275">
        <ele>401</ele>
        <time>2014-01-18T07:46:27Z</time>
      </trkpt>
      <trkpt lat="43.57339" lon="2.92274">
        <ele>412</ele>
        <time>2014-01-18T07:46:32Z</time>
      </trkpt>
      <trkpt lat="43.57342" lon="2.92273">
        <ele>412</ele>
        <time>2014-01-18T07:46:34Z</time>
      </trkpt>
      <trkpt lat="43.57344" lon="2.92273">
        <ele>413</ele>
        <time>2014-01-18T07:46:35Z</time>
      </trkpt>
      <trkpt lat="43.57346" lon="2.92273">
        <ele>413</ele>
        <time>2014-01-18T07:46:36Z</time>
      </trkpt>
      <trkpt lat="43.57348" lon="2.92273">
        <ele>413</ele>
        <time>2014-01-18T07:46:37Z</time>
      </trkpt>
      <trkpt lat="43.5735" lon="2.92273">
        <ele>413</ele>
        <time>2014-01-18T07:46:38Z</time>
      </trkpt>
      <trkpt lat="43.5736" lon="2.92274">
        <ele>413</ele>
        <time>2014-01-18T07:46:43Z</time>
      </trkpt>
      <trkpt lat="43.57362" lon="2.92274">
        <ele>413</ele>
        <time>2014-01-18T07:46:44Z</time>
      </trkpt>
      <trkpt lat="43.57369" lon="2.92277">
        <ele>413</ele>
        <time>2014-01-18T07:46:47Z</time>
      </trkpt>
      <trkpt lat="43.57371" lon="2.92278">
        <ele>413</ele>
        <time>2014-01-18T07:46:48Z</time>
      </trkpt>
      <trkpt lat="43.57373" lon="2.92279">
        <ele>414</ele>
        <time>2014-01-18T07:46:49Z</time>
      </trkpt>
      <trkpt lat="43.57376" lon="2.9228">
        <ele>414</ele>
        <time>2014-01-18T07:46:50Z</time>
      </trkpt>
      <trkpt lat="43.57378" lon="2.92281">
        <ele>414</ele>
        <time>2014-01-18T07:46:51Z</time>
      </trkpt>
      <trkpt lat="43.5738" lon="2.92283">
        <ele>414</ele>
        <time>2014-01-18T07:46:52Z</time>
      </trkpt>
      <trkpt lat="43.57393" lon="2.92288">
        <ele>414</ele>
        <time>2014-01-18T07:46:58Z</time>
      </trkpt>
      <trkpt lat="43.57395" lon="2.92289">
        <ele>414</ele>
        <time>2014-01-18T07:46:59Z</time>
      </trkpt>
      <trkpt lat="43.57397" lon="2.92291">
        <ele>414</ele>
        <time>2014-01-18T07:47:00Z</time>
      </trkpt>
      <trkpt lat="43.57399" lon="2.92292">
        <ele>414</ele>
        <time>2014-01-18T07:47:01Z</time>
      </trkpt>
      <trkpt lat="43.57401" lon="2.92293">
        <ele>414</ele>
        <time>2014-01-18T07:47:02Z</time>
      </trkpt>
      <trkpt lat="43.57411" lon="2.92298">
        <ele>414</ele>
        <time>2014-01-18T07:47:07Z</time>
      </trkpt>
      <trkpt lat="43.57414" lon="2.92301">
        <ele>414</ele>
        <time>2014-01-18T07:47:09Z</time>
      </trkpt>
      <trkpt lat="43.57415" lon="2.92302">
        <ele>414</ele>
        <time>2014-01-18T07:47:10Z</time>
      </trkpt>
      <trkpt lat="43.57417" lon="2.92304">
        <ele>424</ele>
        <time>2014-01-18T07:47:11Z</time>
      </trkpt>
      <trkpt lat="43.57418" lon="2.92306">
        <ele>424</ele>
        <time>2014-01-18T07:47:12Z</time>
      </trkpt>
      <trkpt lat="43.5742" lon="2.92307">
        <ele>424</ele>
        <time>2014-01-18T07:47:13Z</time>
      </trkpt>
      <trkpt lat="43.57424" lon="2.92313">
        <ele>422</ele>
        <time>2014-01-18T07:47:16Z</time>
      </trkpt>
      <trkpt lat="43.57432" lon="2.92326">
        <ele>421</ele>
        <time>2014-01-18T07:47:23Z</time>
      </trkpt>
      <trkpt lat="43.57433" lon="2.92328">
        <ele>421</ele>
        <time>2014-01-18T07:47:24Z</time>
      </trkpt>
      <trkpt lat="43.57434" lon="2.92329">
        <ele>421</ele>
        <time>2014-01-18T07:47:25Z</time>
      </trkpt>
      <trkpt lat="43.57436" lon="2.92331">
        <ele>421</ele>
        <time>2014-01-18T07:47:26Z</time>
      </trkpt>
      <trkpt lat="43.57437" lon="2.92333">
        <ele>421</ele>
        <time>2014-01-18T07:47:27Z</time>
      </trkpt>
      <trkpt lat="43.57438" lon="2.92334">
        <ele>413</ele>
        <time>2014-01-18T07:47:28Z</time>
      </trkpt>
      <trkpt lat="43.57447" lon="2.92347">
        <ele>414</ele>
        <time>2014-01-18T07:47:35Z</time>
      </trkpt>
      <trkpt lat="43.57448" lon="2.92349">
        <ele>414</ele>
        <time>2014-01-18T07:47:36Z</time>
      </trkpt>
      <trkpt lat="43.57449" lon="2.92351">
        <ele>414</ele>
        <time>2014-01-18T07:47:37Z</time>
      </trkpt>
      <trkpt lat="43.5745" lon="2.92353">
        <ele>414</ele>
        <time>2014-01-18T07:47:38Z</time>
      </trkpt>
      <trkpt lat="43.57452" lon="2.92355">
        <ele>414</ele>
        <time>2014-01-18T07:47:39Z</time>
      </trkpt>
      <trkpt lat="43.57459" lon="2.92364">
        <ele>414</ele>
        <time>2014-01-18T07:47:44Z</time>
      </trkpt>
      <trkpt lat="43.57466" lon="2.92373">
        <ele>414</ele>
        <time>2014-01-18T07:47:49Z</time>
      </trkpt>
      <trkpt lat="43.57468" lon="2.92374">
        <ele>414</ele>
        <time>2014-01-18T07:47:50Z</time>
      </trkpt>
      <trkpt lat="43.5747" lon="2.92376">
        <ele>414</ele>
        <time>2014-01-18T07:47:51Z</time>
      </trkpt>
      <trkpt lat="43.57472" lon="2.92376">
        <ele>414</ele>
        <time>2014-01-18T07:47:52Z</time>
      </trkpt>
      <trkpt lat="43.57484" lon="2.92375">
        <ele>415</ele>
        <time>2014-01-18T07:47:58Z</time>
      </trkpt>
      <trkpt lat="43.57489" lon="2.92373">
        <ele>415</ele>
        <time>2014-01-18T07:48:01Z</time>
      </trkpt>
      <trkpt lat="43.57492" lon="2.92371">
        <ele>416</ele>
        <time>2014-01-18T07:48:02Z</time>
      </trkpt>
      <trkpt lat="43.57493" lon="2.9237">
        <ele>416</ele>
        <time>2014-01-18T07:48:03Z</time>
      </trkpt>
      <trkpt lat="43.57495" lon="2.92368">
        <ele>417</ele>
        <time>2014-01-18T07:48:04Z</time>
      </trkpt>
      <trkpt lat="43.57497" lon="2.92366">
        <ele>417</ele>
        <time>2014-01-18T07:48:05Z</time>
      </trkpt>
      <trkpt lat="43.5751" lon="2.92356">
        <ele>422</ele>
        <time>2014-01-18T07:48:12Z</time>
      </trkpt>
      <trkpt lat="43.57516" lon="2.92349">
        <ele>423</ele>
        <time>2014-01-18T07:48:16Z</time>
      </trkpt>
      <trkpt lat="43.57518" lon="2.92348">
        <ele>423</ele>
        <time>2014-01-18T07:48:17Z</time>
      </trkpt>
      <trkpt lat="43.5752" lon="2.92346">
        <ele>423</ele>
        <time>2014-01-18T07:48:18Z</time>
      </trkpt>
      <trkpt lat="43.57521" lon="2.92345">
        <ele>423</ele>
        <time>2014-01-18T07:48:19Z</time>
      </trkpt>
      <trkpt lat="43.57523" lon="2.92343">
        <ele>423</ele>
        <time>2014-01-18T07:48:20Z</time>
      </trkpt>
      <trkpt lat="43.57534" lon="2.92335">
        <ele>422</ele>
        <time>2014-01-18T07:48:26Z</time>
      </trkpt>
      <trkpt lat="43.5755" lon="2.92325">
        <ele>437</ele>
        <time>2014-01-18T07:48:34Z</time>
      </trkpt>
      <trkpt lat="43.57556" lon="2.92323">
        <ele>437</ele>
        <time>2014-01-18T07:48:37Z</time>
      </trkpt>
      <trkpt lat="43.57558" lon="2.92323">
        <ele>437</ele>
        <time>2014-01-18T07:48:38Z</time>
      </trkpt>
      <trkpt lat="43.5756" lon="2.92323">
        <ele>437</ele>
        <time>2014-01-18T07:48:39Z</time>
      </trkpt>
      <trkpt lat="43.57561" lon="2.92323">
        <ele>436</ele>
        <time>2014-01-18T07:48:40Z</time>
      </trkpt>
      <trkpt lat="43.57563" lon="2.92323">
        <ele>436</ele>
        <time>2014-01-18T07:48:41Z</time>
      </trkpt>
      <trkpt lat="43.57571" lon="2.92323">
        <ele>435</ele>
        <time>2014-01-18T07:48:46Z</time>
      </trkpt>
      <trkpt lat="43.57573" lon="2.92323">
        <ele>434</ele>
        <time>2014-01-18T07:48:47Z</time>
      </trkpt>
      <trkpt lat="43.57575" lon="2.92324">
        <ele>434</ele>
        <time>2014-01-18T07:48:48Z</time>
      </trkpt>
      <trkpt lat="43.57576" lon="2.92325">
        <ele>433</ele>
        <time>2014-01-18T07:48:49Z</time>
      </trkpt>
      <trkpt lat="43.57579" lon="2.92326">
        <ele>433</ele>
        <time>2014-01-18T07:48:50Z</time>
      </trkpt>
      <trkpt lat="43.57581" lon="2.92326">
        <ele>432</ele>
        <time>2014-01-18T07:48:51Z</time>
      </trkpt>
      <trkpt lat="43.57595" lon="2.92323">
        <ele>433</ele>
        <time>2014-01-18T07:48:57Z</time>
      </trkpt>
      <trkpt lat="43.57602" lon="2.92319">
        <ele>435</ele>
        <time>2014-01-18T07:49:00Z</time>
      </trkpt>
      <trkpt lat="43.57605" lon="2.92317">
        <ele>435</ele>
        <time>2014-01-18T07:49:01Z</time>
      </trkpt>
      <trkpt lat="43.57607" lon="2.92316">
        <ele>435</ele>
        <time>2014-01-18T07:49:02Z</time>
      </trkpt>
      <trkpt lat="43.57609" lon="2.92314">
        <ele>436</ele>
        <time>2014-01-18T07:49:03Z</time>
      </trkpt>
      <trkpt lat="43.57611" lon="2.92312">
        <ele>436</ele>
        <time>2014-01-18T07:49:04Z</time>
      </trkpt>
      <trkpt lat="43.57613" lon="2.92311">
        <ele>436</ele>
        <time>2014-01-18T07:49:05Z</time>
      </trkpt>
      <trkpt lat="43.57623" lon="2.92302">
        <ele>437</ele>
        <time>2014-01-18T07:49:11Z</time>
      </trkpt>
      <trkpt lat="43.57628" lon="2.92297">
        <ele>438</ele>
        <time>2014-01-18T07:49:14Z</time>
      </trkpt>
      <trkpt lat="43.5763" lon="2.92295">
        <ele>438</ele>
        <time>2014-01-18T07:49:15Z</time>
      </trkpt>
      <trkpt lat="43.57632" lon="2.92293">
        <ele>438</ele>
        <time>2014-01-18T07:49:16Z</time>
      </trkpt>
      <trkpt lat="43.57633" lon="2.92292">
        <ele>438</ele>
        <time>2014-01-18T07:49:17Z</time>
      </trkpt>
      <trkpt lat="43.57635" lon="2.9229">
        <ele>439</ele>
        <time>2014-01-18T07:49:18Z</time>
      </trkpt>
      <trkpt lat="43.57639" lon="2.92287">
        <ele>439</ele>
        <time>2014-01-18T07:49:20Z</time>
      </trkpt>
      <trkpt lat="43.57643" lon="2.92283">
        <ele>440</ele>
        <time>2014-01-18T07:49:23Z</time>
      </trkpt>
      <trkpt lat="43.57645" lon="2.92282">
        <ele>440</ele>
        <time>2014-01-18T07:49:24Z</time>
      </trkpt>
      <trkpt lat="43.57646" lon="2.9228">
        <ele>440</ele>
        <time>2014-01-18T07:49:25Z</time>
      </trkpt>
      <trkpt lat="43.57648" lon="2.92279">
        <ele>440</ele>
        <time>2014-01-18T07:49:26Z</time>
      </trkpt>
      <trkpt lat="43.5765" lon="2.92277">
        <ele>441</ele>
        <time>2014-01-18T07:49:27Z</time>
      </trkpt>
      <trkpt lat="43.57651" lon="2.92276">
        <ele>441</ele>
        <time>2014-01-18T07:49:28Z</time>
      </trkpt>
      <trkpt lat="43.57656" lon="2.92271">
        <ele>442</ele>
        <time>2014-01-18T07:49:31Z</time>
      </trkpt>
      <trkpt lat="43.57658" lon="2.9227">
        <ele>442</ele>
        <time>2014-01-18T07:49:32Z</time>
      </trkpt>
      <trkpt lat="43.5766" lon="2.92269">
        <ele>443</ele>
        <time>2014-01-18T07:49:33Z</time>
      </trkpt>
      <trkpt lat="43.57662" lon="2.92267">
        <ele>443</ele>
        <time>2014-01-18T07:49:34Z</time>
      </trkpt>
      <trkpt lat="43.57663" lon="2.92266">
        <ele>443</ele>
        <time>2014-01-18T07:49:35Z</time>
      </trkpt>
      <trkpt lat="43.57672" lon="2.92258">
        <ele>444</ele>
        <time>2014-01-18T07:49:40Z</time>
      </trkpt>
      <trkpt lat="43.57673" lon="2.92256">
        <ele>444</ele>
        <time>2014-01-18T07:49:41Z</time>
      </trkpt>
      <trkpt lat="43.57675" lon="2.92255">
        <ele>443</ele>
        <time>2014-01-18T07:49:42Z</time>
      </trkpt>
      <trkpt lat="43.57677" lon="2.92253">
        <ele>443</ele>
        <time>2014-01-18T07:49:43Z</time>
      </trkpt>
      <trkpt lat="43.57678" lon="2.9225">
        <ele>443</ele>
        <time>2014-01-18T07:49:44Z</time>
      </trkpt>
      <trkpt lat="43.57681" lon="2.92242">
        <ele>454</ele>
        <time>2014-01-18T07:49:47Z</time>
      </trkpt>
      <trkpt lat="43.57678" lon="2.92235">
        <ele>456</ele>
        <time>2014-01-18T07:49:50Z</time>
      </trkpt>
      <trkpt lat="43.57676" lon="2.92235">
        <ele>455</ele>
        <time>2014-01-18T07:49:51Z</time>
      </trkpt>
      <trkpt lat="43.57674" lon="2.92235">
        <ele>455</ele>
        <time>2014-01-18T07:49:52Z</time>
      </trkpt>
      <trkpt lat="43.57672" lon="2.92236">
        <ele>455</ele>
        <time>2014-01-18T07:49:53Z</time>
      </trkpt>
      <trkpt lat="43.5767" lon="2.92238">
        <ele>454</ele>
        <time>2014-01-18T07:49:54Z</time>
      </trkpt>
      <trkpt lat="43.57668" lon="2.92239">
        <ele>453</ele>
        <time>2014-01-18T07:49:55Z</time>
      </trkpt>
      <trkpt lat="43.57667" lon="2.9224">
        <ele>453</ele>
        <time>2014-01-18T07:49:56Z</time>
      </trkpt>
      <trkpt lat="43.57662" lon="2.92243">
        <ele>455</ele>
        <time>2014-01-18T07:49:59Z</time>
      </trkpt>
      <trkpt lat="43.5766" lon="2.92244">
        <ele>455</ele>
        <time>2014-01-18T07:50:00Z</time>
      </trkpt>
      <trkpt lat="43.57659" lon="2.92245">
        <ele>456</ele>
        <time>2014-01-18T07:50:01Z</time>
      </trkpt>
      <trkpt lat="43.57657" lon="2.92246">
        <ele>456</ele>
        <time>2014-01-18T07:50:02Z</time>
      </trkpt>
      <trkpt lat="43.57655" lon="2.92247">
        <ele>457</ele>
        <time>2014-01-18T07:50:03Z</time>
      </trkpt>
      <trkpt lat="43.57649" lon="2.92251">
        <ele>444</ele>
        <time>2014-01-18T07:50:07Z</time>
      </trkpt>
      <trkpt lat="43.57647" lon="2.92252">
        <ele>444</ele>
        <time>2014-01-18T07:50:08Z</time>
      </trkpt>
      <trkpt lat="43.57645" lon="2.92252">
        <ele>444</ele>
        <time>2014-01-18T07:50:09Z</time>
      </trkpt>
      <trkpt lat="43.57643" lon="2.92252">
        <ele>444</ele>
        <time>2014-01-18T07:50:10Z</time>
      </trkpt>
      <trkpt lat="43.57641" lon="2.92252">
        <ele>444</ele>
        <time>2014-01-18T07:50:11Z</time>
      </trkpt>
      <trkpt lat="43.57633" lon="2.92254">
        <ele>444</ele>
        <time>2014-01-18T07:50:16Z</time>
      </trkpt>
      <trkpt lat="43.57631" lon="2.92254">
        <ele>444</ele>
        <time>2014-01-18T07:50:17Z</time>
      </trkpt>
      <trkpt lat="43.5763" lon="2.92254">
        <ele>444</ele>
        <time>2014-01-18T07:50:18Z</time>
      </trkpt>
      <trkpt lat="43.57628" lon="2.92254">
        <ele>444</ele>
        <time>2014-01-18T07:50:19Z</time>
      </trkpt>
      <trkpt lat="43.5762" lon="2.92253">
        <ele>445</ele>
        <time>2014-01-18T07:50:24Z</time>
      </trkpt>
      <trkpt lat="43.57618" lon="2.92252">
        <ele>445</ele>
        <time>2014-01-18T07:50:25Z</time>
      </trkpt>
      <trkpt lat="43.57617" lon="2.92252">
        <ele>446</ele>
        <time>2014-01-18T07:50:26Z</time>
      </trkpt>
      <trkpt lat="43.57615" lon="2.92252">
        <ele>446</ele>
        <time>2014-01-18T07:50:27Z</time>
      </trkpt>
      <trkpt lat="43.57613" lon="2.92252">
        <ele>446</ele>
        <time>2014-01-18T07:50:28Z</time>
      </trkpt>
      <trkpt lat="43.57612" lon="2.92251">
        <ele>447</ele>
        <time>2014-01-18T07:50:29Z</time>
      </trkpt>
      <trkpt lat="43.5761" lon="2.92251">
        <ele>447</ele>
        <time>2014-01-18T07:50:30Z</time>
      </trkpt>
      <trkpt lat="43.57604" lon="2.92255">
        <ele>448</ele>
        <time>2014-01-18T07:50:34Z</time>
      </trkpt>
      <trkpt lat="43.57603" lon="2.92257">
        <ele>449</ele>
        <time>2014-01-18T07:50:35Z</time>
      </trkpt>
      <trkpt lat="43.57601" lon="2.92258">
        <ele>449</ele>
        <time>2014-01-18T07:50:36Z</time>
      </trkpt>
      <trkpt lat="43.57599" lon="2.92259">
        <ele>449</ele>
        <time>2014-01-18T07:50:37Z</time>
      </trkpt>
      <trkpt lat="43.57597" lon="2.9226">
        <ele>450</ele>
        <time>2014-01-18T07:50:38Z</time>
      </trkpt>
      <trkpt lat="43.57591" lon="2.92262">
        <ele>451</ele>
        <time>2014-01-18T07:50:42Z</time>
      </trkpt>
      <trkpt lat="43.5759" lon="2.92262">
        <ele>451</ele>
        <time>2014-01-18T07:50:43Z</time>
      </trkpt>
      <trkpt lat="43.57588" lon="2.92261">
        <ele>452</ele>
        <time>2014-01-18T07:50:44Z</time>
      </trkpt>
      <trkpt lat="43.57586" lon="2.92261">
        <ele>452</ele>
        <time>2014-01-18T07:50:45Z</time>
      </trkpt>
      <trkpt lat="43.57577" lon="2.92257">
        <ele>455</ele>
        <time>2014-01-18T07:50:51Z</time>
      </trkpt>
      <trkpt lat="43.57576" lon="2.92256">
        <ele>454</ele>
        <time>2014-01-18T07:50:52Z</time>
      </trkpt>
      <trkpt lat="43.57574" lon="2.92255">
        <ele>454</ele>
        <time>2014-01-18T07:50:53Z</time>
      </trkpt>
      <trkpt lat="43.57573" lon="2.92255">
        <ele>454</ele>
        <time>2014-01-18T07:50:54Z</time>
      </trkpt>
      <trkpt lat="43.57571" lon="2.92254">
        <ele>453</ele>
        <time>2014-01-18T07:50:55Z</time>
      </trkpt>
      <trkpt lat="43.57566" lon="2.92252">
        <ele>452</ele>
        <time>2014-01-18T07:50:58Z</time>
      </trkpt>
      <trkpt lat="43.57561" lon="2.92251">
        <ele>450</ele>
        <time>2014-01-18T07:51:02Z</time>
      </trkpt>
      <trkpt lat="43.57559" lon="2.9225">
        <ele>450</ele>
        <time>2014-01-18T07:51:03Z</time>
      </trkpt>
      <trkpt lat="43.57558" lon="2.9225">
        <ele>464</ele>
        <time>2014-01-18T07:51:04Z</time>
      </trkpt>
      <trkpt lat="43.57556" lon="2.92249">
        <ele>464</ele>
        <time>2014-01-18T07:51:05Z</time>
      </trkpt>
      <trkpt lat="43.57555" lon="2.92248">
        <ele>465</ele>
        <time>2014-01-18T07:51:06Z</time>
      </trkpt>
      <trkpt lat="43.57551" lon="2.92245">
        <ele>465</ele>
        <time>2014-01-18T07:51:09Z</time>
      </trkpt>
      <trkpt lat="43.57552" lon="2.92243">
        <ele>465</ele>
        <time>2014-01-18T07:51:10Z</time>
      </trkpt>
      <trkpt lat="43.57552" lon="2.92241">
        <ele>465</ele>
        <time>2014-01-18T07:51:11Z</time>
      </trkpt>
      <trkpt lat="43.57552" lon="2.92239">
        <ele>465</ele>
        <time>2014-01-18T07:51:12Z</time>
      </trkpt>
      <trkpt lat="43.57553" lon="2.92237">
        <ele>466</ele>
        <time>2014-01-18T07:51:13Z</time>
      </trkpt>
      <trkpt lat="43.57554" lon="2.92235">
        <ele>466</ele>
        <time>2014-01-18T07:51:14Z</time>
      </trkpt>
      <trkpt lat="43.57556" lon="2.92233">
        <ele>466</ele>
        <time>2014-01-18T07:51:16Z</time>
      </trkpt>
      <trkpt lat="43.57561" lon="2.92231">
        <ele>466</ele>
        <time>2014-01-18T07:51:19Z</time>
      </trkpt>
      <trkpt lat="43.57562" lon="2.92231">
        <ele>466</ele>
        <time>2014-01-18T07:51:20Z</time>
      </trkpt>
      <trkpt lat="43.57563" lon="2.9223">
        <ele>466</ele>
        <time>2014-01-18T07:51:21Z</time>
      </trkpt>
      <trkpt lat="43.57565" lon="2.9223">
        <ele>466</ele>
        <time>2014-01-18T07:51:22Z</time>
      </trkpt>
      <trkpt lat="43.57565" lon="2.92229">
        <ele>466</ele>
        <time>2014-01-18T07:51:23Z</time>
      </trkpt>
      <trkpt lat="43.57567" lon="2.92229">
        <ele>466</ele>
        <time>2014-01-18T07:51:24Z</time>
      </trkpt>
      <trkpt lat="43.57569" lon="2.92228">
        <ele>467</ele>
        <time>2014-01-18T07:51:26Z</time>
      </trkpt>
      <trkpt lat="43.57572" lon="2.92226">
        <ele>467</ele>
        <time>2014-01-18T07:51:28Z</time>
      </trkpt>
      <trkpt lat="43.57575" lon="2.92225">
        <ele>467</ele>
        <time>2014-01-18T07:51:30Z</time>
      </trkpt>
      <trkpt lat="43.57577" lon="2.92225">
        <ele>467</ele>
        <time>2014-01-18T07:51:31Z</time>
      </trkpt>
      <trkpt lat="43.57578" lon="2.92224">
        <ele>467</ele>
        <time>2014-01-18T07:51:32Z</time>
      </trkpt>
      <trkpt lat="43.5758" lon="2.92224">
        <ele>467</ele>
        <time>2014-01-18T07:51:33Z</time>
      </trkpt>
      <trkpt lat="43.57583" lon="2.92222">
        <ele>469</ele>
        <time>2014-01-18T07:51:35Z</time>
      </trkpt>
      <trkpt lat="43.5759" lon="2.9222">
        <ele>470</ele>
        <time>2014-01-18T07:51:39Z</time>
      </trkpt>
      <trkpt lat="43.57592" lon="2.92219">
        <ele>470</ele>
        <time>2014-01-18T07:51:40Z</time>
      </trkpt>
      <trkpt lat="43.57594" lon="2.92218">
        <ele>470</ele>
        <time>2014-01-18T07:51:41Z</time>
      </trkpt>
      <trkpt lat="43.57595" lon="2.92217">
        <ele>471</ele>
        <time>2014-01-18T07:51:42Z</time>
      </trkpt>
      <trkpt lat="43.57597" lon="2.92216">
        <ele>471</ele>
        <time>2014-01-18T07:51:43Z</time>
      </trkpt>
      <trkpt lat="43.57607" lon="2.92211">
        <ele>472</ele>
        <time>2014-01-18T07:51:49Z</time>
      </trkpt>
      <trkpt lat="43.57612" lon="2.92208">
        <ele>472</ele>
        <time>2014-01-18T07:51:52Z</time>
      </trkpt>
      <trkpt lat="43.57613" lon="2.92207">
        <ele>473</ele>
        <time>2014-01-18T07:51:53Z</time>
      </trkpt>
      <trkpt lat="43.57614" lon="2.92207">
        <ele>473</ele>
        <time>2014-01-18T07:51:54Z</time>
      </trkpt>
      <trkpt lat="43.57616" lon="2.92206">
        <ele>473</ele>
        <time>2014-01-18T07:51:55Z</time>
      </trkpt>
      <trkpt lat="43.57617" lon="2.92205">
        <ele>473</ele>
        <time>2014-01-18T07:51:56Z</time>
      </trkpt>
      <trkpt lat="43.57619" lon="2.92201">
        <ele>474</ele>
        <time>2014-01-18T07:51:58Z</time>
      </trkpt>
      <trkpt lat="43.57618" lon="2.92197">
        <ele>475</ele>
        <time>2014-01-18T07:52:00Z</time>
      </trkpt>
      <trkpt lat="43.57616" lon="2.92197">
        <ele>475</ele>
        <time>2014-01-18T07:52:01Z</time>
      </trkpt>
      <trkpt lat="43.57614" lon="2.92196">
        <ele>475</ele>
        <time>2014-01-18T07:52:02Z</time>
      </trkpt>
      <trkpt lat="43.57613" lon="2.92196">
        <ele>475</ele>
        <time>2014-01-18T07:52:03Z</time>
      </trkpt>
      <trkpt lat="43.57611" lon="2.92196">
        <ele>475</ele>
        <time>2014-01-18T07:52:04Z</time>
      </trkpt>
      <trkpt lat="43.57609" lon="2.92196">
        <ele>475</ele>
        <time>2014-01-18T07:52:05Z</time>
      </trkpt>
      <trkpt lat="43.57599" lon="2.92198">
        <ele>475</ele>
        <time>2014-01-18T07:52:11Z</time>
      </trkpt>
      <trkpt lat="43.57596" lon="2.92196">
        <ele>476</ele>
        <time>2014-01-18T07:52:13Z</time>
      </trkpt>
      <trkpt lat="43.57594" lon="2.92196">
        <ele>476</ele>
        <time>2014-01-18T07:52:14Z</time>
      </trkpt>
      <trkpt lat="43.57593" lon="2.92196">
        <ele>476</ele>
        <time>2014-01-18T07:52:15Z</time>
      </trkpt>
      <trkpt lat="43.57592" lon="2.92195">
        <ele>477</ele>
        <time>2014-01-18T07:52:16Z</time>
      </trkpt>
      <trkpt lat="43.5759" lon="2.92194">
        <ele>477</ele>
        <time>2014-01-18T07:52:17Z</time>
      </trkpt>
      <trkpt lat="43.57589" lon="2.92194">
        <ele>477</ele>
        <time>2014-01-18T07:52:18Z</time>
      </trkpt>
      <trkpt lat="43.57577" lon="2.92191">
        <ele>476</ele>
        <time>2014-01-18T07:52:26Z</time>
      </trkpt>
      <trkpt lat="43.57571" lon="2.9219">
        <ele>476</ele>
        <time>2014-01-18T07:52:30Z</time>
      </trkpt>
      <trkpt lat="43.5757" lon="2.92189">
        <ele>476</ele>
        <time>2014-01-18T07:52:31Z</time>
      </trkpt>
      <trkpt lat="43.57568" lon="2.92189">
        <ele>475</ele>
        <time>2014-01-18T07:52:32Z</time>
      </trkpt>
      <trkpt lat="43.57567" lon="2.92189">
        <ele>475</ele>
        <time>2014-01-18T07:52:33Z</time>
      </trkpt>
      <trkpt lat="43.57565" lon="2.92188">
        <ele>475</ele>
        <time>2014-01-18T07:52:34Z</time>
      </trkpt>
      <trkpt lat="43.57558" lon="2.92188">
        <ele>474</ele>
        <time>2014-01-18T07:52:38Z</time>
      </trkpt>
      <trkpt lat="43.57548" lon="2.92187">
        <ele>473</ele>
        <time>2014-01-18T07:52:44Z</time>
      </trkpt>
      <trkpt lat="43.57547" lon="2.92188">
        <ele>473</ele>
        <time>2014-01-18T07:52:45Z</time>
      </trkpt>
      <trkpt lat="43.57545" lon="2.92188">
        <ele>472</ele>
        <time>2014-01-18T07:52:46Z</time>
      </trkpt>
      <trkpt lat="43.57544" lon="2.92188">
        <ele>472</ele>
        <time>2014-01-18T07:52:47Z</time>
      </trkpt>
      <trkpt lat="43.57542" lon="2.92187">
        <ele>472</ele>
        <time>2014-01-18T07:52:48Z</time>
      </trkpt>
      <trkpt lat="43.57537" lon="2.92184">
        <ele>472</ele>
        <time>2014-01-18T07:52:52Z</time>
      </trkpt>
      <trkpt lat="43.57536" lon="2.92183">
        <ele>472</ele>
        <time>2014-01-18T07:52:53Z</time>
      </trkpt>
      <trkpt lat="43.57535" lon="2.92182">
        <ele>472</ele>
        <time>2014-01-18T07:52:54Z</time>
      </trkpt>
      <trkpt lat="43.57533" lon="2.9218">
        <ele>472</ele>
        <time>2014-01-18T07:52:55Z</time>
      </trkpt>
      <trkpt lat="43.57532" lon="2.92179">
        <ele>472</ele>
        <time>2014-01-18T07:52:56Z</time>
      </trkpt>
      <trkpt lat="43.57529" lon="2.92175">
        <ele>472</ele>
        <time>2014-01-18T07:52:59Z</time>
      </trkpt>
      <trkpt lat="43.57527" lon="2.92173">
        <ele>472</ele>
        <time>2014-01-18T07:53:01Z</time>
      </trkpt>
      <trkpt lat="43.57526" lon="2.92171">
        <ele>473</ele>
        <time>2014-01-18T07:53:04Z</time>
      </trkpt>
      <trkpt lat="43.57527" lon="2.9217">
        <ele>473</ele>
        <time>2014-01-18T07:54:05Z</time>
      </trkpt>
      <trkpt lat="43.57527" lon="2.9217">
        <ele>473</ele>
        <time>2014-01-18T07:54:06Z</time>
      </trkpt>
      <trkpt lat="43.57527" lon="2.92169">
        <ele>473</ele>
        <time>2014-01-18T07:54:07Z</time>
      </trkpt>
      <trkpt lat="43.57526" lon="2.92168">
        <ele>473</ele>
        <time>2014-01-18T07:54:29Z</time>
      </trkpt>
      <trkpt lat="43.57526" lon="2.92168">
        <ele>473</ele>
        <time>2014-01-18T07:54:30Z</time>
      </trkpt>
      <trkpt lat="43.57526" lon="2.92167">
        <ele>473</ele>
        <time>2014-01-18T07:54:31Z</time>
      </trkpt>
      <trkpt lat="43.57526" lon="2.92165">
        <ele>486</ele>
        <time>2014-01-18T07:54:32Z</time>
      </trkpt>
      <trkpt lat="43.57526" lon="2.92163">
        <ele>486</ele>
        <time>2014-01-18T07:54:33Z</time>
      </trkpt>
      <trkpt lat="43.57526" lon="2.92148">
        <ele>488</ele>
        <time>2014-01-18T07:54:40Z</time>
      </trkpt>
      <trkpt lat="43.57526" lon="2.92146">
        <ele>488</ele>
        <time>2014-01-18T07:54:41Z</time>
      </trkpt>
      <trkpt lat="43.57528" lon="2.92138">
        <ele>490</ele>
        <time>2014-01-18T07:54:45Z</time>
      </trkpt>
      <trkpt lat="43.57529" lon="2.92131">
        <ele>491</ele>
        <time>2014-01-18T07:54:48Z</time>
      </trkpt>
      <trkpt lat="43.57529" lon="2.92129">
        <ele>491</ele>
        <time>2014-01-18T07:54:49Z</time>
      </trkpt>
      <trkpt lat="43.57528" lon="2.92127">
        <ele>492</ele>
        <time>2014-01-18T07:54:50Z</time>
      </trkpt>
      <trkpt lat="43.57528" lon="2.92126">
        <ele>492</ele>
        <time>2014-01-18T07:54:51Z</time>
      </trkpt>
      <trkpt lat="43.57527" lon="2.92126">
        <ele>492</ele>
        <time>2014-01-18T07:54:52Z</time>
      </trkpt>
      <trkpt lat="43.57527" lon="2.92126">
        <ele>492</ele>
        <time>2014-01-18T07:54:53Z</time>
      </trkpt>
      <trkpt lat="43.57526" lon="2.92125">
        <ele>492</ele>
        <time>2014-01-18T07:54:57Z</time>
      </trkpt>
      <trkpt lat="43.57526" lon="2.92123">
        <ele>492</ele>
        <time>2014-01-18T07:54:58Z</time>
      </trkpt>
      <trkpt lat="43.57525" lon="2.92122">
        <ele>492</ele>
        <time>2014-01-18T07:54:59Z</time>
      </trkpt>
      <trkpt lat="43.57525" lon="2.92122">
        <ele>492</ele>
        <time>2014-01-18T07:55:00Z</time>
      </trkpt>
      <trkpt lat="43.57525" lon="2.92122">
        <ele>492</ele>
        <time>2014-01-18T07:55:28Z</time>
      </trkpt>
      <trkpt lat="43.57525" lon="2.92122">
        <ele>492</ele>
        <time>2014-01-18T07:55:29Z</time>
      </trkpt>
      <trkpt lat="43.57525" lon="2.92122">
        <ele>492</ele>
        <time>2014-01-18T07:55:30Z</time>
      </trkpt>
      <trkpt lat="43.57526" lon="2.92123">
        <ele>492</ele>
        <time>2014-01-18T07:55:31Z</time>
      </trkpt>
      <trkpt lat="43.57532" lon="2.92121">
        <ele>493</ele>
        <time>2014-01-18T07:55:35Z</time>
      </trkpt>
      <trkpt lat="43.57536" lon="2.92119">
        <ele>493</ele>
        <time>2014-01-18T07:55:39Z</time>
      </trkpt>
      <trkpt lat="43.5754" lon="2.9212">
        <ele>494</ele>
        <time>2014-01-18T07:55:42Z</time>
      </trkpt>
      <trkpt lat="43.57541" lon="2.92119">
        <ele>494</ele>
        <time>2014-01-18T07:55:43Z</time>
      </trkpt>
      <trkpt lat="43.57543" lon="2.92119">
        <ele>494</ele>
        <time>2014-01-18T07:55:44Z</time>
      </trkpt>
      <trkpt lat="43.57544" lon="2.92119">
        <ele>494</ele>
        <time>2014-01-18T07:55:45Z</time>
      </trkpt>
      <trkpt lat="43.57546" lon="2.92119">
        <ele>495</ele>
        <time>2014-01-18T07:55:46Z</time>
      </trkpt>
      <trkpt lat="43.57548" lon="2.9212">
        <ele>495</ele>
        <time>2014-01-18T07:55:47Z</time>
      </trkpt>
      <trkpt lat="43.5755" lon="2.9212">
        <ele>495</ele>
        <time>2014-01-18T07:55:49Z</time>
      </trkpt>
      <trkpt lat="43.57559" lon="2.9212">
        <ele>496</ele>
        <time>2014-01-18T07:55:56Z</time>
      </trkpt>
      <trkpt lat="43.5756" lon="2.9212">
        <ele>496</ele>
        <time>2014-01-18T07:55:57Z</time>
      </trkpt>
      <trkpt lat="43.57565" lon="2.92118">
        <ele>497</ele>
        <time>2014-01-18T07:56:00Z</time>
      </trkpt>
      <trkpt lat="43.57566" lon="2.92118">
        <ele>497</ele>
        <time>2014-01-18T07:56:01Z</time>
      </trkpt>
      <trkpt lat="43.57567" lon="2.92118">
        <ele>497</ele>
        <time>2014-01-18T07:56:02Z</time>
      </trkpt>
      <trkpt lat="43.57568" lon="2.92117">
        <ele>497</ele>
        <time>2014-01-18T07:56:03Z</time>
      </trkpt>
      <trkpt lat="43.57569" lon="2.92117">
        <ele>498</ele>
        <time>2014-01-18T07:56:04Z</time>
      </trkpt>
      <trkpt lat="43.57575" lon="2.92115">
        <ele>499</ele>
        <time>2014-01-18T07:56:09Z</time>
      </trkpt>
      <trkpt lat="43.57576" lon="2.92115">
        <ele>499</ele>
        <time>2014-01-18T07:56:10Z</time>
      </trkpt>
      <trkpt lat="43.57577" lon="2.92114">
        <ele>499</ele>
        <time>2014-01-18T07:56:11Z</time>
      </trkpt>
      <trkpt lat="43.57577" lon="2.92114">
        <ele>499</ele>
        <time>2014-01-18T07:56:12Z</time>
      </trkpt>
      <trkpt lat="43.57578" lon="2.92113">
        <ele>499</ele>
        <time>2014-01-18T07:56:13Z</time>
      </trkpt>
      <trkpt lat="43.57579" lon="2.92113">
        <ele>499</ele>
        <time>2014-01-18T07:56:14Z</time>
      </trkpt>
      <trkpt lat="43.5758" lon="2.92113">
        <ele>500</ele>
        <time>2014-01-18T07:56:15Z</time>
      </trkpt>
      <trkpt lat="43.57585" lon="2.92113">
        <ele>506</ele>
        <time>2014-01-18T07:56:19Z</time>
      </trkpt>
      <trkpt lat="43.57585" lon="2.92113">
        <ele>506</ele>
        <time>2014-01-18T07:56:20Z</time>
      </trkpt>
      <trkpt lat="43.57587" lon="2.92112">
        <ele>506</ele>
        <time>2014-01-18T07:56:21Z</time>
      </trkpt>
      <trkpt lat="43.57587" lon="2.92111">
        <ele>506</ele>
        <time>2014-01-18T07:56:22Z</time>
      </trkpt>
      <trkpt lat="43.57589" lon="2.92111">
        <ele>506</ele>
        <time>2014-01-18T07:56:23Z</time>
      </trkpt>
      <trkpt lat="43.57589" lon="2.9211">
        <ele>506</ele>
        <time>2014-01-18T07:56:24Z</time>
      </trkpt>
      <trkpt lat="43.5759" lon="2.9211">
        <ele>506</ele>
        <time>2014-01-18T07:56:25Z</time>
      </trkpt>
      <trkpt lat="43.57594" lon="2.9211">
        <ele>506</ele>
        <time>2014-01-18T07:56:29Z</time>
      </trkpt>
      <trkpt lat="43.57594" lon="2.9211">
        <ele>506</ele>
        <time>2014-01-18T07:56:30Z</time>
      </trkpt>
      <trkpt lat="43.57595" lon="2.92109">
        <ele>506</ele>
        <time>2014-01-18T07:56:31Z</time>
      </trkpt>
      <trkpt lat="43.57596" lon="2.92109">
        <ele>506</ele>
        <time>2014-01-18T07:56:32Z</time>
      </trkpt>
      <trkpt lat="43.57597" lon="2.92108">
        <ele>507</ele>
        <time>2014-01-18T07:56:33Z</time>
      </trkpt>
      <trkpt lat="43.57602" lon="2.92109">
        <ele>506</ele>
        <time>2014-01-18T07:56:38Z</time>
      </trkpt>
      <trkpt lat="43.57603" lon="2.9211">
        <ele>506</ele>
        <time>2014-01-18T07:56:39Z</time>
      </trkpt>
      <trkpt lat="43.57604" lon="2.9211">
        <ele>506</ele>
        <time>2014-01-18T07:56:40Z</time>
      </trkpt>
      <trkpt lat="43.57605" lon="2.92111">
        <ele>506</ele>
        <time>2014-01-18T07:56:41Z</time>
      </trkpt>
      <trkpt lat="43.57605" lon="2.92111">
        <ele>506</ele>
        <time>2014-01-18T07:56:42Z</time>
      </trkpt>
      <trkpt lat="43.57606" lon="2.92112">
        <ele>506</ele>
        <time>2014-01-18T07:56:43Z</time>
      </trkpt>
      <trkpt lat="43.57607" lon="2.92113">
        <ele>505</ele>
        <time>2014-01-18T07:56:44Z</time>
      </trkpt>
      <trkpt lat="43.57614" lon="2.92118">
        <ele>505</ele>
        <time>2014-01-18T07:56:51Z</time>
      </trkpt>
      <trkpt lat="43.5762" lon="2.92118">
        <ele>504</ele>
        <time>2014-01-18T07:56:56Z</time>
      </trkpt>
      <trkpt lat="43.57621" lon="2.92118">
        <ele>505</ele>
        <time>2014-01-18T07:56:57Z</time>
      </trkpt>
      <trkpt lat="43.57621" lon="2.92118">
        <ele>504</ele>
        <time>2014-01-18T07:56:58Z</time>
      </trkpt>
      <trkpt lat="43.57623" lon="2.92118">
        <ele>505</ele>
        <time>2014-01-18T07:56:59Z</time>
      </trkpt>
      <trkpt lat="43.57623" lon="2.92119">
        <ele>505</ele>
        <time>2014-01-18T07:57:00Z</time>
      </trkpt>
      <trkpt lat="43.57626" lon="2.92118">
        <ele>505</ele>
        <time>2014-01-18T07:57:04Z</time>
      </trkpt>
      <trkpt lat="43.57627" lon="2.92118">
        <ele>505</ele>
        <time>2014-01-18T07:57:05Z</time>
      </trkpt>
      <trkpt lat="43.57629" lon="2.92118">
        <ele>505</ele>
        <time>2014-01-18T07:57:07Z</time>
      </trkpt>
      <trkpt lat="43.5763" lon="2.92118">
        <ele>505</ele>
        <time>2014-01-18T07:57:08Z</time>
      </trkpt>
      <trkpt lat="43.57631" lon="2.92117">
        <ele>505</ele>
        <time>2014-01-18T07:57:09Z</time>
      </trkpt>
      <trkpt lat="43.57632" lon="2.92117">
        <ele>505</ele>
        <time>2014-01-18T07:57:10Z</time>
      </trkpt>
      <trkpt lat="43.57632" lon="2.92117">
        <ele>505</ele>
        <time>2014-01-18T07:57:11Z</time>
      </trkpt>
      <trkpt lat="43.57633" lon="2.92116">
        <ele>505</ele>
        <time>2014-01-18T07:57:12Z</time>
      </trkpt>
      <trkpt lat="43.57637" lon="2.92115">
        <ele>505</ele>
        <time>2014-01-18T07:57:17Z</time>
      </trkpt>
      <trkpt lat="43.57639" lon="2.92115">
        <ele>506</ele>
        <time>2014-01-18T07:57:19Z</time>
      </trkpt>
      <trkpt lat="43.57639" lon="2.92115">
        <ele>506</ele>
        <time>2014-01-18T07:57:20Z</time>
      </trkpt>
      <trkpt lat="43.5764" lon="2.92114">
        <ele>506</ele>
        <time>2014-01-18T07:57:21Z</time>
      </trkpt>
      <trkpt lat="43.5764" lon="2.92114">
        <ele>506</ele>
        <time>2014-01-18T07:57:22Z</time>
      </trkpt>
      <trkpt lat="43.57641" lon="2.92114">
        <ele>506</ele>
        <time>2014-01-18T07:57:23Z</time>
      </trkpt>
      <trkpt lat="43.57642" lon="2.92113">
        <ele>506</ele>
        <time>2014-01-18T07:57:26Z</time>
      </trkpt>
      <trkpt lat="43.57643" lon="2.92113">
        <ele>506</ele>
        <time>2014-01-18T07:57:27Z</time>
      </trkpt>
      <trkpt lat="43.57643" lon="2.92113">
        <ele>506</ele>
        <time>2014-01-18T07:57:28Z</time>
      </trkpt>
      <trkpt lat="43.57644" lon="2.92113">
        <ele>506</ele>
        <time>2014-01-18T07:57:29Z</time>
      </trkpt>
      <trkpt lat="43.57648" lon="2.92111">
        <ele>507</ele>
        <time>2014-01-18T07:57:35Z</time>
      </trkpt>
      <trkpt lat="43.57648" lon="2.9211">
        <ele>507</ele>
        <time>2014-01-18T07:57:36Z</time>
      </trkpt>
      <trkpt lat="43.57649" lon="2.92109">
        <ele>507</ele>
        <time>2014-01-18T07:57:37Z</time>
      </trkpt>
      <trkpt lat="43.57649" lon="2.92109">
        <ele>507</ele>
        <time>2014-01-18T07:57:38Z</time>
      </trkpt>
      <trkpt lat="43.5765" lon="2.92109">
        <ele>507</ele>
        <time>2014-01-18T07:57:39Z</time>
      </trkpt>
      <trkpt lat="43.5765" lon="2.92109">
        <ele>508</ele>
        <time>2014-01-18T07:57:40Z</time>
      </trkpt>
      <trkpt lat="43.57651" lon="2.92109">
        <ele>508</ele>
        <time>2014-01-18T07:57:41Z</time>
      </trkpt>
      <trkpt lat="43.57654" lon="2.92108">
        <ele>508</ele>
        <time>2014-01-18T07:57:45Z</time>
      </trkpt>
      <trkpt lat="43.57654" lon="2.92107">
        <ele>508</ele>
        <time>2014-01-18T07:57:46Z</time>
      </trkpt>
      <trkpt lat="43.57654" lon="2.92107">
        <ele>508</ele>
        <time>2014-01-18T07:57:47Z</time>
      </trkpt>
      <trkpt lat="43.57655" lon="2.92106">
        <ele>509</ele>
        <time>2014-01-18T07:57:48Z</time>
      </trkpt>
      <trkpt lat="43.57655" lon="2.92106">
        <ele>509</ele>
        <time>2014-01-18T07:57:49Z</time>
      </trkpt>
      <trkpt lat="43.57655" lon="2.92105">
        <ele>509</ele>
        <time>2014-01-18T07:57:50Z</time>
      </trkpt>
      <trkpt lat="43.57656" lon="2.92104">
        <ele>509</ele>
        <time>2014-01-18T07:57:51Z</time>
      </trkpt>
      <trkpt lat="43.57656" lon="2.92104">
        <ele>509</ele>
        <time>2014-01-18T07:57:52Z</time>
      </trkpt>
      <trkpt lat="43.57658" lon="2.92102">
        <ele>510</ele>
        <time>2014-01-18T07:57:57Z</time>
      </trkpt>
      <trkpt lat="43.57659" lon="2.92101">
        <ele>510</ele>
        <time>2014-01-18T07:57:58Z</time>
      </trkpt>
      <trkpt lat="43.57659" lon="2.92101">
        <ele>510</ele>
        <time>2014-01-18T07:57:59Z</time>
      </trkpt>
      <trkpt lat="43.5766" lon="2.921">
        <ele>511</ele>
        <time>2014-01-18T07:58:00Z</time>
      </trkpt>
      <trkpt lat="43.5766" lon="2.921">
        <ele>511</ele>
        <time>2014-01-18T07:58:01Z</time>
      </trkpt>
      <trkpt lat="43.57661" lon="2.92099">
        <ele>511</ele>
        <time>2014-01-18T07:58:02Z</time>
      </trkpt>
      <trkpt lat="43.57661" lon="2.92098">
        <ele>512</ele>
        <time>2014-01-18T07:58:04Z</time>
      </trkpt>
      <trkpt lat="43.57663" lon="2.92097">
        <ele>512</ele>
        <time>2014-01-18T07:58:06Z</time>
      </trkpt>
      <trkpt lat="43.57663" lon="2.92097">
        <ele>512</ele>
        <time>2014-01-18T07:58:07Z</time>
      </trkpt>
      <trkpt lat="43.57664" lon="2.92096">
        <ele>512</ele>
        <time>2014-01-18T07:58:08Z</time>
      </trkpt>
      <trkpt lat="43.57664" lon="2.92096">
        <ele>513</ele>
        <time>2014-01-18T07:58:09Z</time>
      </trkpt>
      <trkpt lat="43.57666" lon="2.92094">
        <ele>514</ele>
        <time>2014-01-18T07:58:12Z</time>
      </trkpt>
      <trkpt lat="43.57666" lon="2.92093">
        <ele>514</ele>
        <time>2014-01-18T07:58:13Z</time>
      </trkpt>
      <trkpt lat="43.57667" lon="2.92092">
        <ele>512</ele>
        <time>2014-01-18T07:58:14Z</time>
      </trkpt>
      <trkpt lat="43.57667" lon="2.92091">
        <ele>512</ele>
        <time>2014-01-18T07:58:15Z</time>
      </trkpt>
      <trkpt lat="43.57668" lon="2.92091">
        <ele>512</ele>
        <time>2014-01-18T07:58:16Z</time>
      </trkpt>
      <trkpt lat="43.57669" lon="2.9209">
        <ele>513</ele>
        <time>2014-01-18T07:58:17Z</time>
      </trkpt>
      <trkpt lat="43.57669" lon="2.9209">
        <ele>513</ele>
        <time>2014-01-18T07:58:18Z</time>
      </trkpt>
      <trkpt lat="43.5767" lon="2.92089">
        <ele>513</ele>
        <time>2014-01-18T07:58:19Z</time>
      </trkpt>
      <trkpt lat="43.57672" lon="2.92084">
        <ele>515</ele>
        <time>2014-01-18T07:58:25Z</time>
      </trkpt>
      <trkpt lat="43.57675" lon="2.9208">
        <ele>520</ele>
        <time>2014-01-18T07:58:31Z</time>
      </trkpt>
      <trkpt lat="43.57675" lon="2.92079">
        <ele>520</ele>
        <time>2014-01-18T07:58:32Z</time>
      </trkpt>
      <trkpt lat="43.57675" lon="2.92078">
        <ele>521</ele>
        <time>2014-01-18T07:58:33Z</time>
      </trkpt>
      <trkpt lat="43.57676" lon="2.92077">
        <ele>521</ele>
        <time>2014-01-18T07:58:34Z</time>
      </trkpt>
      <trkpt lat="43.57679" lon="2.92073">
        <ele>521</ele>
        <time>2014-01-18T07:58:39Z</time>
      </trkpt>
      <trkpt lat="43.57679" lon="2.92073">
        <ele>521</ele>
        <time>2014-01-18T07:58:40Z</time>
      </trkpt>
      <trkpt lat="43.5768" lon="2.92072">
        <ele>521</ele>
        <time>2014-01-18T07:58:41Z</time>
      </trkpt>
      <trkpt lat="43.5768" lon="2.92072">
        <ele>521</ele>
        <time>2014-01-18T07:58:42Z</time>
      </trkpt>
      <trkpt lat="43.57681" lon="2.9207">
        <ele>522</ele>
        <time>2014-01-18T07:58:43Z</time>
      </trkpt>
      <trkpt lat="43.57684" lon="2.92064">
        <ele>523</ele>
        <time>2014-01-18T07:58:49Z</time>
      </trkpt>
      <trkpt lat="43.57686" lon="2.92062">
        <ele>523</ele>
        <time>2014-01-18T07:58:51Z</time>
      </trkpt>
      <trkpt lat="43.57687" lon="2.9206">
        <ele>523</ele>
        <time>2014-01-18T07:58:55Z</time>
      </trkpt>
      <trkpt lat="43.57688" lon="2.92059">
        <ele>523</ele>
        <time>2014-01-18T07:58:56Z</time>
      </trkpt>
      <trkpt lat="43.57688" lon="2.92058">
        <ele>523</ele>
        <time>2014-01-18T07:58:57Z</time>
      </trkpt>
      <trkpt lat="43.57689" lon="2.92057">
        <ele>523</ele>
        <time>2014-01-18T07:58:58Z</time>
      </trkpt>
      <trkpt lat="43.57689" lon="2.92056">
        <ele>524</ele>
        <time>2014-01-18T07:58:59Z</time>
      </trkpt>
      <trkpt lat="43.57692" lon="2.9205">
        <ele>524</ele>
        <time>2014-01-18T07:59:07Z</time>
      </trkpt>
      <trkpt lat="43.57693" lon="2.92049">
        <ele>525</ele>
        <time>2014-01-18T07:59:08Z</time>
      </trkpt>
      <trkpt lat="43.57693" lon="2.92048">
        <ele>525</ele>
        <time>2014-01-18T07:59:09Z</time>
      </trkpt>
      <trkpt lat="43.57693" lon="2.92047">
        <ele>525</ele>
        <time>2014-01-18T07:59:10Z</time>
      </trkpt>
      <trkpt lat="43.57694" lon="2.92046">
        <ele>525</ele>
        <time>2014-01-18T07:59:11Z</time>
      </trkpt>
      <trkpt lat="43.57694" lon="2.92045">
        <ele>525</ele>
        <time>2014-01-18T07:59:12Z</time>
      </trkpt>
      <trkpt lat="43.57695" lon="2.92044">
        <ele>525</ele>
        <time>2014-01-18T07:59:14Z</time>
      </trkpt>
      <trkpt lat="43.57696" lon="2.92042">
        <ele>525</ele>
        <time>2014-01-18T07:59:16Z</time>
      </trkpt>
      <trkpt lat="43.57696" lon="2.92041">
        <ele>526</ele>
        <time>2014-01-18T07:59:18Z</time>
      </trkpt>
      <trkpt lat="43.57697" lon="2.9204">
        <ele>526</ele>
        <time>2014-01-18T07:59:19Z</time>
      </trkpt>
      <trkpt lat="43.57697" lon="2.92039">
        <ele>526</ele>
        <time>2014-01-18T07:59:20Z</time>
      </trkpt>
      <trkpt lat="43.57698" lon="2.92038">
        <ele>526</ele>
        <time>2014-01-18T07:59:21Z</time>
      </trkpt>
      <trkpt lat="43.57698" lon="2.92037">
        <ele>526</ele>
        <time>2014-01-18T07:59:22Z</time>
      </trkpt>
      <trkpt lat="43.57698" lon="2.92034">
        <ele>527</ele>
        <time>2014-01-18T07:59:25Z</time>
      </trkpt>
      <trkpt lat="43.57699" lon="2.92033">
        <ele>527</ele>
        <time>2014-01-18T07:59:26Z</time>
      </trkpt>
      <trkpt lat="43.57699" lon="2.92032">
        <ele>527</ele>
        <time>2014-01-18T07:59:27Z</time>
      </trkpt>
      <trkpt lat="43.57699" lon="2.92032">
        <ele>527</ele>
        <time>2014-01-18T07:59:28Z</time>
      </trkpt>
      <trkpt lat="43.577" lon="2.92031">
        <ele>527</ele>
        <time>2014-01-18T07:59:29Z</time>
      </trkpt>
      <trkpt lat="43.577" lon="2.92031">
        <ele>527</ele>
        <time>2014-01-18T07:59:30Z</time>
      </trkpt>
      <trkpt lat="43.577" lon="2.9203">
        <ele>527</ele>
        <time>2014-01-18T07:59:31Z</time>
      </trkpt>
      <trkpt lat="43.57702" lon="2.92027">
        <ele>528</ele>
        <time>2014-01-18T07:59:35Z</time>
      </trkpt>
      <trkpt lat="43.57703" lon="2.92025">
        <ele>528</ele>
        <time>2014-01-18T07:59:37Z</time>
      </trkpt>
      <trkpt lat="43.57704" lon="2.92025">
        <ele>528</ele>
        <time>2014-01-18T07:59:38Z</time>
      </trkpt>
      <trkpt lat="43.57705" lon="2.92024">
        <ele>528</ele>
        <time>2014-01-18T07:59:39Z</time>
      </trkpt>
      <trkpt lat="43.57705" lon="2.92023">
        <ele>528</ele>
        <time>2014-01-18T07:59:40Z</time>
      </trkpt>
      <trkpt lat="43.57706" lon="2.92022">
        <ele>528</ele>
        <time>2014-01-18T07:59:41Z</time>
      </trkpt>
      <trkpt lat="43.57709" lon="2.92016">
        <ele>528</ele>
        <time>2014-01-18T07:59:47Z</time>
      </trkpt>
      <trkpt lat="43.5771" lon="2.92015">
        <ele>528</ele>
        <time>2014-01-18T07:59:48Z</time>
      </trkpt>
      <trkpt lat="43.57711" lon="2.92014">
        <ele>528</ele>
        <time>2014-01-18T07:59:49Z</time>
      </trkpt>
      <trkpt lat="43.57712" lon="2.92013">
        <ele>528</ele>
        <time>2014-01-18T07:59:50Z</time>
      </trkpt>
      <trkpt lat="43.57713" lon="2.92013">
        <ele>528</ele>
        <time>2014-01-18T07:59:51Z</time>
      </trkpt>
      <trkpt lat="43.57714" lon="2.92009">
        <ele>528</ele>
        <time>2014-01-18T07:59:54Z</time>
      </trkpt>
      <trkpt lat="43.57715" lon="2.92008">
        <ele>528</ele>
        <time>2014-01-18T07:59:55Z</time>
      </trkpt>
      <trkpt lat="43.57718" lon="2.92001">
        <ele>528</ele>
        <time>2014-01-18T08:00:01Z</time>
      </trkpt>
      <trkpt lat="43.5772" lon="2.91995">
        <ele>545</ele>
        <time>2014-01-18T08:00:06Z</time>
      </trkpt>
      <trkpt lat="43.5772" lon="2.91994">
        <ele>545</ele>
        <time>2014-01-18T08:00:07Z</time>
      </trkpt>
      <trkpt lat="43.5772" lon="2.91993">
        <ele>545</ele>
        <time>2014-01-18T08:00:08Z</time>
      </trkpt>
      <trkpt lat="43.5772" lon="2.91992">
        <ele>545</ele>
        <time>2014-01-18T08:00:09Z</time>
      </trkpt>
      <trkpt lat="43.5772" lon="2.91991">
        <ele>545</ele>
        <time>2014-01-18T08:00:10Z</time>
      </trkpt>
      <trkpt lat="43.57721" lon="2.91983">
        <ele>546</ele>
        <time>2014-01-18T08:00:16Z</time>
      </trkpt>
      <trkpt lat="43.57722" lon="2.91979">
        <ele>546</ele>
        <time>2014-01-18T08:00:20Z</time>
      </trkpt>
      <trkpt lat="43.57722" lon="2.91978">
        <ele>547</ele>
        <time>2014-01-18T08:00:21Z</time>
      </trkpt>
      <trkpt lat="43.57722" lon="2.91976">
        <ele>547</ele>
        <time>2014-01-18T08:00:22Z</time>
      </trkpt>
      <trkpt lat="43.57723" lon="2.91975">
        <ele>547</ele>
        <time>2014-01-18T08:00:23Z</time>
      </trkpt>
      <trkpt lat="43.57723" lon="2.91974">
        <ele>547</ele>
        <time>2014-01-18T08:00:24Z</time>
      </trkpt>
      <trkpt lat="43.57724" lon="2.91969">
        <ele>548</ele>
        <time>2014-01-18T08:00:29Z</time>
      </trkpt>
      <trkpt lat="43.57725" lon="2.91966">
        <ele>548</ele>
        <time>2014-01-18T08:00:32Z</time>
      </trkpt>
      <trkpt lat="43.57725" lon="2.91965">
        <ele>549</ele>
        <time>2014-01-18T08:00:33Z</time>
      </trkpt>
      <trkpt lat="43.57726" lon="2.91964">
        <ele>549</ele>
        <time>2014-01-18T08:00:34Z</time>
      </trkpt>
      <trkpt lat="43.57726" lon="2.91963">
        <ele>549</ele>
        <time>2014-01-18T08:00:35Z</time>
      </trkpt>
      <trkpt lat="43.57726" lon="2.91962">
        <ele>549</ele>
        <time>2014-01-18T08:00:36Z</time>
      </trkpt>
      <trkpt lat="43.57728" lon="2.91958">
        <ele>550</ele>
        <time>2014-01-18T08:00:39Z</time>
      </trkpt>
      <trkpt lat="43.57729" lon="2.91955">
        <ele>550</ele>
        <time>2014-01-18T08:00:42Z</time>
      </trkpt>
      <trkpt lat="43.57729" lon="2.91954">
        <ele>550</ele>
        <time>2014-01-18T08:00:43Z</time>
      </trkpt>
      <trkpt lat="43.57729" lon="2.91953">
        <ele>550</ele>
        <time>2014-01-18T08:00:44Z</time>
      </trkpt>
      <trkpt lat="43.5773" lon="2.91952">
        <ele>550</ele>
        <time>2014-01-18T08:00:45Z</time>
      </trkpt>
      <trkpt lat="43.5773" lon="2.91951">
        <ele>551</ele>
        <time>2014-01-18T08:00:46Z</time>
      </trkpt>
      <trkpt lat="43.57731" lon="2.91948">
        <ele>551</ele>
        <time>2014-01-18T08:00:49Z</time>
      </trkpt>
      <trkpt lat="43.57734" lon="2.91941">
        <ele>552</ele>
        <time>2014-01-18T08:00:55Z</time>
      </trkpt>
      <trkpt lat="43.57736" lon="2.91937">
        <ele>552</ele>
        <time>2014-01-18T08:00:59Z</time>
      </trkpt>
      <trkpt lat="43.57737" lon="2.91936">
        <ele>552</ele>
        <time>2014-01-18T08:01:00Z</time>
      </trkpt>
      <trkpt lat="43.57738" lon="2.91935">
        <ele>552</ele>
        <time>2014-01-18T08:01:01Z</time>
      </trkpt>
      <trkpt lat="43.57738" lon="2.91934">
        <ele>552</ele>
        <time>2014-01-18T08:01:02Z</time>
      </trkpt>
      <trkpt lat="43.57739" lon="2.91933">
        <ele>553</ele>
        <time>2014-01-18T08:01:03Z</time>
      </trkpt>
      <trkpt lat="43.5774" lon="2.91931">
        <ele>553</ele>
        <time>2014-01-18T08:01:05Z</time>
      </trkpt>
      <trkpt lat="43.57742" lon="2.91927">
        <ele>553</ele>
        <time>2014-01-18T08:01:09Z</time>
      </trkpt>
      <trkpt lat="43.57744" lon="2.91923">
        <ele>553</ele>
        <time>2014-01-18T08:01:13Z</time>
      </trkpt>
      <trkpt lat="43.57745" lon="2.91922">
        <ele>553</ele>
        <time>2014-01-18T08:01:14Z</time>
      </trkpt>
      <trkpt lat="43.57745" lon="2.91921">
        <ele>554</ele>
        <time>2014-01-18T08:01:15Z</time>
      </trkpt>
      <trkpt lat="43.57745" lon="2.9192">
        <ele>554</ele>
        <time>2014-01-18T08:01:16Z</time>
      </trkpt>
      <trkpt lat="43.57746" lon="2.91919">
        <ele>554</ele>
        <time>2014-01-18T08:01:17Z</time>
      </trkpt>
      <trkpt lat="43.57747" lon="2.91916">
        <ele>557</ele>
        <time>2014-01-18T08:01:19Z</time>
      </trkpt>
      <trkpt lat="43.57748" lon="2.91915">
        <ele>557</ele>
        <time>2014-01-18T08:01:21Z</time>
      </trkpt>
      <trkpt lat="43.57754" lon="2.91904">
        <ele>556</ele>
        <time>2014-01-18T08:01:31Z</time>
      </trkpt>
      <trkpt lat="43.57755" lon="2.919">
        <ele>556</ele>
        <time>2014-01-18T08:01:34Z</time>
      </trkpt>
      <trkpt lat="43.57755" lon="2.91899">
        <ele>556</ele>
        <time>2014-01-18T08:01:35Z</time>
      </trkpt>
      <trkpt lat="43.57755" lon="2.91897">
        <ele>556</ele>
        <time>2014-01-18T08:01:36Z</time>
      </trkpt>
      <trkpt lat="43.57755" lon="2.91896">
        <ele>557</ele>
        <time>2014-01-18T08:01:37Z</time>
      </trkpt>
      <trkpt lat="43.57756" lon="2.91895">
        <ele>557</ele>
        <time>2014-01-18T08:01:38Z</time>
      </trkpt>
      <trkpt lat="43.57758" lon="2.91893">
        <ele>557</ele>
        <time>2014-01-18T08:01:41Z</time>
      </trkpt>
      <trkpt lat="43.57758" lon="2.91891">
        <ele>557</ele>
        <time>2014-01-18T08:01:43Z</time>
      </trkpt>
      <trkpt lat="43.57758" lon="2.91889">
        <ele>558</ele>
        <time>2014-01-18T08:01:45Z</time>
      </trkpt>
      <trkpt lat="43.57759" lon="2.91888">
        <ele>558</ele>
        <time>2014-01-18T08:01:46Z</time>
      </trkpt>
      <trkpt lat="43.57759" lon="2.91886">
        <ele>558</ele>
        <time>2014-01-18T08:01:48Z</time>
      </trkpt>
      <trkpt lat="43.5776" lon="2.91885">
        <ele>558</ele>
        <time>2014-01-18T08:01:49Z</time>
      </trkpt>
      <trkpt lat="43.5776" lon="2.91884">
        <ele>558</ele>
        <time>2014-01-18T08:01:50Z</time>
      </trkpt>
      <trkpt lat="43.57761" lon="2.91883">
        <ele>558</ele>
        <time>2014-01-18T08:01:51Z</time>
      </trkpt>
      <trkpt lat="43.57762" lon="2.91877">
        <ele>559</ele>
        <time>2014-01-18T08:01:56Z</time>
      </trkpt>
      <trkpt lat="43.57765" lon="2.91872">
        <ele>560</ele>
        <time>2014-01-18T08:02:02Z</time>
      </trkpt>
      <trkpt lat="43.57766" lon="2.9187">
        <ele>560</ele>
        <time>2014-01-18T08:02:03Z</time>
      </trkpt>
      <trkpt lat="43.57766" lon="2.91869">
        <ele>561</ele>
        <time>2014-01-18T08:02:04Z</time>
      </trkpt>
      <trkpt lat="43.57767" lon="2.91868">
        <ele>561</ele>
        <time>2014-01-18T08:02:05Z</time>
      </trkpt>
      <trkpt lat="43.57768" lon="2.91868">
        <ele>561</ele>
        <time>2014-01-18T08:02:06Z</time>
      </trkpt>
      <trkpt lat="43.57771" lon="2.91864">
        <ele>561</ele>
        <time>2014-01-18T08:02:10Z</time>
      </trkpt>
      <trkpt lat="43.57774" lon="2.91859">
        <ele>562</ele>
        <time>2014-01-18T08:02:16Z</time>
      </trkpt>
      <trkpt lat="43.57774" lon="2.91858">
        <ele>562</ele>
        <time>2014-01-18T08:02:17Z</time>
      </trkpt>
      <trkpt lat="43.57775" lon="2.91857">
        <ele>562</ele>
        <time>2014-01-18T08:02:18Z</time>
      </trkpt>
      <trkpt lat="43.57775" lon="2.91856">
        <ele>562</ele>
        <time>2014-01-18T08:02:19Z</time>
      </trkpt>
      <trkpt lat="43.57775" lon="2.91855">
        <ele>562</ele>
        <time>2014-01-18T08:02:20Z</time>
      </trkpt>
      <trkpt lat="43.57777" lon="2.9185">
        <ele>563</ele>
        <time>2014-01-18T08:02:24Z</time>
      </trkpt>
      <trkpt lat="43.57778" lon="2.91845">
        <ele>563</ele>
        <time>2014-01-18T08:02:30Z</time>
      </trkpt>
      <trkpt lat="43.57778" lon="2.91844">
        <ele>563</ele>
        <time>2014-01-18T08:02:31Z</time>
      </trkpt>
      <trkpt lat="43.57779" lon="2.91843">
        <ele>563</ele>
        <time>2014-01-18T08:02:32Z</time>
      </trkpt>
      <trkpt lat="43.57779" lon="2.91842">
        <ele>563</ele>
        <time>2014-01-18T08:02:33Z</time>
      </trkpt>
      <trkpt lat="43.57779" lon="2.91841">
        <ele>563</ele>
        <time>2014-01-18T08:02:34Z</time>
      </trkpt>
      <trkpt lat="43.5778" lon="2.91839">
        <ele>563</ele>
        <time>2014-01-18T08:02:36Z</time>
      </trkpt>
      <trkpt lat="43.57781" lon="2.91838">
        <ele>563</ele>
        <time>2014-01-18T08:02:37Z</time>
      </trkpt>
      <trkpt lat="43.57781" lon="2.91837">
        <ele>563</ele>
        <time>2014-01-18T08:02:39Z</time>
      </trkpt>
      <trkpt lat="43.57782" lon="2.91836">
        <ele>563</ele>
        <time>2014-01-18T08:02:40Z</time>
      </trkpt>
      <trkpt lat="43.57782" lon="2.91835">
        <ele>563</ele>
        <time>2014-01-18T08:02:41Z</time>
      </trkpt>
      <trkpt lat="43.57782" lon="2.91834">
        <ele>563</ele>
        <time>2014-01-18T08:02:42Z</time>
      </trkpt>
      <trkpt lat="43.57784" lon="2.91827">
        <ele>578</ele>
        <time>2014-01-18T08:02:48Z</time>
      </trkpt>
      <trkpt lat="43.57785" lon="2.91822">
        <ele>578</ele>
        <time>2014-01-18T08:02:53Z</time>
      </trkpt>
      <trkpt lat="43.57786" lon="2.91822">
        <ele>578</ele>
        <time>2014-01-18T08:02:54Z</time>
      </trkpt>
      <trkpt lat="43.57786" lon="2.91821">
        <ele>578</ele>
        <time>2014-01-18T08:02:55Z</time>
      </trkpt>
      <trkpt lat="43.57787" lon="2.9182">
        <ele>579</ele>
        <time>2014-01-18T08:02:56Z</time>
      </trkpt>
      <trkpt lat="43.57787" lon="2.91819">
        <ele>579</ele>
        <time>2014-01-18T08:02:57Z</time>
      </trkpt>
      <trkpt lat="43.5779" lon="2.91813">
        <ele>579</ele>
        <time>2014-01-18T08:03:04Z</time>
      </trkpt>
      <trkpt lat="43.5779" lon="2.91812">
        <ele>579</ele>
        <time>2014-01-18T08:03:05Z</time>
      </trkpt>
      <trkpt lat="43.5779" lon="2.91811">
        <ele>579</ele>
        <time>2014-01-18T08:03:06Z</time>
      </trkpt>
      <trkpt lat="43.57791" lon="2.91811">
        <ele>579</ele>
        <time>2014-01-18T08:03:07Z</time>
      </trkpt>
      <trkpt lat="43.57791" lon="2.9181">
        <ele>579</ele>
        <time>2014-01-18T08:03:08Z</time>
      </trkpt>
      <trkpt lat="43.57792" lon="2.91807">
        <ele>579</ele>
        <time>2014-01-18T08:03:11Z</time>
      </trkpt>
      <trkpt lat="43.57794" lon="2.91805">
        <ele>579</ele>
        <time>2014-01-18T08:03:14Z</time>
      </trkpt>
      <trkpt lat="43.57794" lon="2.91804">
        <ele>580</ele>
        <time>2014-01-18T08:03:15Z</time>
      </trkpt>
      <trkpt lat="43.57794" lon="2.91803">
        <ele>580</ele>
        <time>2014-01-18T08:03:16Z</time>
      </trkpt>
      <trkpt lat="43.57795" lon="2.91802">
        <ele>580</ele>
        <time>2014-01-18T08:03:17Z</time>
      </trkpt>
      <trkpt lat="43.57795" lon="2.91802">
        <ele>580</ele>
        <time>2014-01-18T08:03:18Z</time>
      </trkpt>
      <trkpt lat="43.57796" lon="2.91802">
        <ele>580</ele>
        <time>2014-01-18T08:03:19Z</time>
      </trkpt>
      <trkpt lat="43.57795" lon="2.91802">
        <ele>580</ele>
        <time>2014-01-18T08:03:21Z</time>
      </trkpt>
      <trkpt lat="43.57795" lon="2.91803">
        <ele>580</ele>
        <time>2014-01-18T08:03:22Z</time>
      </trkpt>
      <trkpt lat="43.57794" lon="2.91803">
        <ele>580</ele>
        <time>2014-01-18T08:03:23Z</time>
      </trkpt>
      <trkpt lat="43.57794" lon="2.91803">
        <ele>580</ele>
        <time>2014-01-18T08:03:24Z</time>
      </trkpt>
      <trkpt lat="43.57795" lon="2.91802">
        <ele>580</ele>
        <time>2014-01-18T08:03:26Z</time>
      </trkpt>
      <trkpt lat="43.57796" lon="2.918">
        <ele>580</ele>
        <time>2014-01-18T08:03:29Z</time>
      </trkpt>
      <trkpt lat="43.578" lon="2.91796">
        <ele>580</ele>
        <time>2014-01-18T08:03:36Z</time>
      </trkpt>
      <trkpt lat="43.57803" lon="2.91789">
        <ele>581</ele>
        <time>2014-01-18T08:03:42Z</time>
      </trkpt>
      <trkpt lat="43.57804" lon="2.91787">
        <ele>581</ele>
        <time>2014-01-18T08:03:46Z</time>
      </trkpt>
      <trkpt lat="43.57804" lon="2.91786">
        <ele>581</ele>
        <time>2014-01-18T08:03:47Z</time>
      </trkpt>
      <trkpt lat="43.57805" lon="2.91785">
        <ele>581</ele>
        <time>2014-01-18T08:03:48Z</time>
      </trkpt>
      <trkpt lat="43.57805" lon="2.91785">
        <ele>581</ele>
        <time>2014-01-18T08:03:49Z</time>
      </trkpt>
      <trkpt lat="43.57805" lon="2.91784">
        <ele>581</ele>
        <time>2014-01-18T08:03:50Z</time>
      </trkpt>
      <trkpt lat="43.57806" lon="2.91782">
        <ele>582</ele>
        <time>2014-01-18T08:03:53Z</time>
      </trkpt>
      <trkpt lat="43.57806" lon="2.91781">
        <ele>582</ele>
        <time>2014-01-18T08:03:54Z</time>
      </trkpt>
      <trkpt lat="43.57806" lon="2.9178">
        <ele>582</ele>
        <time>2014-01-18T08:03:55Z</time>
      </trkpt>
      <trkpt lat="43.57807" lon="2.91779">
        <ele>582</ele>
        <time>2014-01-18T08:03:56Z</time>
      </trkpt>
      <trkpt lat="43.57807" lon="2.91778">
        <ele>582</ele>
        <time>2014-01-18T08:03:57Z</time>
      </trkpt>
      <trkpt lat="43.57808" lon="2.91776">
        <ele>582</ele>
        <time>2014-01-18T08:03:58Z</time>
      </trkpt>
      <trkpt lat="43.57808" lon="2.91775">
        <ele>582</ele>
        <time>2014-01-18T08:03:59Z</time>
      </trkpt>
      <trkpt lat="43.57809" lon="2.91775">
        <ele>582</ele>
        <time>2014-01-18T08:04:00Z</time>
      </trkpt>
      <trkpt lat="43.57811" lon="2.91772">
        <ele>583</ele>
        <time>2014-01-18T08:04:04Z</time>
      </trkpt>
      <trkpt lat="43.57812" lon="2.91771">
        <ele>583</ele>
        <time>2014-01-18T08:04:05Z</time>
      </trkpt>
      <trkpt lat="43.57812" lon="2.91771">
        <ele>583</ele>
        <time>2014-01-18T08:04:06Z</time>
      </trkpt>
      <trkpt lat="43.57813" lon="2.9177">
        <ele>583</ele>
        <time>2014-01-18T08:04:07Z</time>
      </trkpt>
      <trkpt lat="43.57814" lon="2.9177">
        <ele>583</ele>
        <time>2014-01-18T08:04:08Z</time>
      </trkpt>
      <trkpt lat="43.57814" lon="2.91768">
        <ele>583</ele>
        <time>2014-01-18T08:04:09Z</time>
      </trkpt>
      <trkpt lat="43.57815" lon="2.91766">
        <ele>583</ele>
        <time>2014-01-18T08:04:11Z</time>
      </trkpt>
      <trkpt lat="43.57815" lon="2.91765">
        <ele>583</ele>
        <time>2014-01-18T08:04:12Z</time>
      </trkpt>
      <trkpt lat="43.57816" lon="2.91763">
        <ele>583</ele>
        <time>2014-01-18T08:04:15Z</time>
      </trkpt>
      <trkpt lat="43.57816" lon="2.91762">
        <ele>583</ele>
        <time>2014-01-18T08:04:16Z</time>
      </trkpt>
      <trkpt lat="43.57817" lon="2.91762">
        <ele>583</ele>
        <time>2014-01-18T08:04:17Z</time>
      </trkpt>
      <trkpt lat="43.57817" lon="2.91761">
        <ele>583</ele>
        <time>2014-01-18T08:04:19Z</time>
      </trkpt>
      <trkpt lat="43.57818" lon="2.9176">
        <ele>583</ele>
        <time>2014-01-18T08:04:21Z</time>
      </trkpt>
      <trkpt lat="43.57818" lon="2.9176">
        <ele>583</ele>
        <time>2014-01-18T08:04:22Z</time>
      </trkpt>
      <trkpt lat="43.57819" lon="2.91758">
        <ele>583</ele>
        <time>2014-01-18T08:04:23Z</time>
      </trkpt>
      <trkpt lat="43.57821" lon="2.91754">
        <ele>583</ele>
        <time>2014-01-18T08:04:28Z</time>
      </trkpt>
      <trkpt lat="43.57821" lon="2.91753">
        <ele>584</ele>
        <time>2014-01-18T08:04:29Z</time>
      </trkpt>
      <trkpt lat="43.57822" lon="2.91752">
        <ele>584</ele>
        <time>2014-01-18T08:04:30Z</time>
      </trkpt>
      <trkpt lat="43.57822" lon="2.91752">
        <ele>584</ele>
        <time>2014-01-18T08:04:31Z</time>
      </trkpt>
      <trkpt lat="43.57823" lon="2.91751">
        <ele>584</ele>
        <time>2014-01-18T08:04:32Z</time>
      </trkpt>
      <trkpt lat="43.57824" lon="2.9175">
        <ele>592</ele>
        <time>2014-01-18T08:04:33Z</time>
      </trkpt>
      <trkpt lat="43.57824" lon="2.91749">
        <ele>592</ele>
        <time>2014-01-18T08:04:34Z</time>
      </trkpt>
      <trkpt lat="43.57826" lon="2.91746">
        <ele>591</ele>
        <time>2014-01-18T08:04:38Z</time>
      </trkpt>
      <trkpt lat="43.57827" lon="2.91745">
        <ele>591</ele>
        <time>2014-01-18T08:04:39Z</time>
      </trkpt>
      <trkpt lat="43.57827" lon="2.91744">
        <ele>592</ele>
        <time>2014-01-18T08:04:40Z</time>
      </trkpt>
      <trkpt lat="43.57828" lon="2.91743">
        <ele>592</ele>
        <time>2014-01-18T08:04:41Z</time>
      </trkpt>
      <trkpt lat="43.57829" lon="2.91742">
        <ele>592</ele>
        <time>2014-01-18T08:04:42Z</time>
      </trkpt>
      <trkpt lat="43.57829" lon="2.91741">
        <ele>592</ele>
        <time>2014-01-18T08:04:43Z</time>
      </trkpt>
      <trkpt lat="43.57829" lon="2.91741">
        <ele>593</ele>
        <time>2014-01-18T08:04:44Z</time>
      </trkpt>
      <trkpt lat="43.57831" lon="2.9174">
        <ele>593</ele>
        <time>2014-01-18T08:04:45Z</time>
      </trkpt>
      <trkpt lat="43.57833" lon="2.91737">
        <ele>594</ele>
        <time>2014-01-18T08:04:49Z</time>
      </trkpt>
      <trkpt lat="43.57833" lon="2.91737">
        <ele>594</ele>
        <time>2014-01-18T08:04:50Z</time>
      </trkpt>
      <trkpt lat="43.57833" lon="2.91737">
        <ele>594</ele>
        <time>2014-01-18T08:04:51Z</time>
      </trkpt>
      <trkpt lat="43.57834" lon="2.91736">
        <ele>592</ele>
        <time>2014-01-18T08:04:52Z</time>
      </trkpt>
      <trkpt lat="43.57834" lon="2.91736">
        <ele>593</ele>
        <time>2014-01-18T08:04:53Z</time>
      </trkpt>
      <trkpt lat="43.57835" lon="2.91735">
        <ele>593</ele>
        <time>2014-01-18T08:04:54Z</time>
      </trkpt>
      <trkpt lat="43.57835" lon="2.91735">
        <ele>593</ele>
        <time>2014-01-18T08:04:55Z</time>
      </trkpt>
      <trkpt lat="43.57836" lon="2.91735">
        <ele>593</ele>
        <time>2014-01-18T08:04:56Z</time>
      </trkpt>
      <trkpt lat="43.57836" lon="2.91735">
        <ele>593</ele>
        <time>2014-01-18T08:04:57Z</time>
      </trkpt>
      <trkpt lat="43.57837" lon="2.91733">
        <ele>594</ele>
        <time>2014-01-18T08:05:00Z</time>
      </trkpt>
      <trkpt lat="43.5784" lon="2.91731">
        <ele>595</ele>
        <time>2014-01-18T08:05:04Z</time>
      </trkpt>
      <trkpt lat="43.5784" lon="2.9173">
        <ele>595</ele>
        <time>2014-01-18T08:05:05Z</time>
      </trkpt>
      <trkpt lat="43.57841" lon="2.9173">
        <ele>596</ele>
        <time>2014-01-18T08:05:06Z</time>
      </trkpt>
      <trkpt lat="43.57841" lon="2.9173">
        <ele>596</ele>
        <time>2014-01-18T08:05:07Z</time>
      </trkpt>
      <trkpt lat="43.57841" lon="2.91729">
        <ele>596</ele>
        <time>2014-01-18T08:05:08Z</time>
      </trkpt>
      <trkpt lat="43.57842" lon="2.91728">
        <ele>596</ele>
        <time>2014-01-18T08:05:09Z</time>
      </trkpt>
      <trkpt lat="43.57842" lon="2.91727">
        <ele>597</ele>
        <time>2014-01-18T08:05:10Z</time>
      </trkpt>
      <trkpt lat="43.57842" lon="2.91727">
        <ele>597</ele>
        <time>2014-01-18T08:05:11Z</time>
      </trkpt>
      <trkpt lat="43.57843" lon="2.91725">
        <ele>597</ele>
        <time>2014-01-18T08:05:12Z</time>
      </trkpt>
      <trkpt lat="43.57844" lon="2.91723">
        <ele>598</ele>
        <time>2014-01-18T08:05:15Z</time>
      </trkpt>
      <trkpt lat="43.57844" lon="2.91723">
        <ele>598</ele>
        <time>2014-01-18T08:05:17Z</time>
      </trkpt>
      <trkpt lat="43.57845" lon="2.91722">
        <ele>599</ele>
        <time>2014-01-18T08:05:19Z</time>
      </trkpt>
      <trkpt lat="43.57846" lon="2.9172">
        <ele>599</ele>
        <time>2014-01-18T08:05:21Z</time>
      </trkpt>
      <trkpt lat="43.57846" lon="2.9172">
        <ele>599</ele>
        <time>2014-01-18T08:05:22Z</time>
      </trkpt>
      <trkpt lat="43.57848" lon="2.91717">
        <ele>600</ele>
        <time>2014-01-18T08:05:26Z</time>
      </trkpt>
      <trkpt lat="43.5785" lon="2.91715">
        <ele>601</ele>
        <time>2014-01-18T08:05:30Z</time>
      </trkpt>
      <trkpt lat="43.5785" lon="2.91714">
        <ele>601</ele>
        <time>2014-01-18T08:05:31Z</time>
      </trkpt>
      <trkpt lat="43.5785" lon="2.91714">
        <ele>601</ele>
        <time>2014-01-18T08:05:32Z</time>
      </trkpt>
      <trkpt lat="43.57851" lon="2.91713">
        <ele>601</ele>
        <time>2014-01-18T08:05:33Z</time>
      </trkpt>
      <trkpt lat="43.57853" lon="2.91711">
        <ele>602</ele>
        <time>2014-01-18T08:05:37Z</time>
      </trkpt>
      <trkpt lat="43.57854" lon="2.91711">
        <ele>602</ele>
        <time>2014-01-18T08:05:38Z</time>
      </trkpt>
      <trkpt lat="43.57854" lon="2.91711">
        <ele>602</ele>
        <time>2014-01-18T08:05:40Z</time>
      </trkpt>
      <trkpt lat="43.57854" lon="2.91709">
        <ele>602</ele>
        <time>2014-01-18T08:05:42Z</time>
      </trkpt>
      <trkpt lat="43.57855" lon="2.91709">
        <ele>602</ele>
        <time>2014-01-18T08:05:43Z</time>
      </trkpt>
      <trkpt lat="43.57855" lon="2.91708">
        <ele>602</ele>
        <time>2014-01-18T08:05:44Z</time>
      </trkpt>
      <trkpt lat="43.57857" lon="2.91706">
        <ele>603</ele>
        <time>2014-01-18T08:05:48Z</time>
      </trkpt>
      <trkpt lat="43.57857" lon="2.91705">
        <ele>603</ele>
        <time>2014-01-18T08:05:50Z</time>
      </trkpt>
      <trkpt lat="43.57858" lon="2.91703">
        <ele>603</ele>
        <time>2014-01-18T08:05:53Z</time>
      </trkpt>
      <trkpt lat="43.57859" lon="2.91702">
        <ele>604</ele>
        <time>2014-01-18T08:05:54Z</time>
      </trkpt>
      <trkpt lat="43.57859" lon="2.91702">
        <ele>604</ele>
        <time>2014-01-18T08:05:55Z</time>
      </trkpt>
      <trkpt lat="43.5786" lon="2.91701">
        <ele>604</ele>
        <time>2014-01-18T08:05:56Z</time>
      </trkpt>
      <trkpt lat="43.5786" lon="2.917">
        <ele>604</ele>
        <time>2014-01-18T08:05:57Z</time>
      </trkpt>
      <trkpt lat="43.57862" lon="2.91699">
        <ele>604</ele>
        <time>2014-01-18T08:05:59Z</time>
      </trkpt>
      <trkpt lat="43.57866" lon="2.91695">
        <ele>605</ele>
        <time>2014-01-18T08:06:05Z</time>
      </trkpt>
      <trkpt lat="43.57867" lon="2.91695">
        <ele>605</ele>
        <time>2014-01-18T08:06:06Z</time>
      </trkpt>
      <trkpt lat="43.57867" lon="2.91694">
        <ele>605</ele>
        <time>2014-01-18T08:06:07Z</time>
      </trkpt>
      <trkpt lat="43.57867" lon="2.91693">
        <ele>605</ele>
        <time>2014-01-18T08:06:08Z</time>
      </trkpt>
      <trkpt lat="43.57868" lon="2.91692">
        <ele>605</ele>
        <time>2014-01-18T08:06:09Z</time>
      </trkpt>
      <trkpt lat="43.57868" lon="2.91692">
        <ele>605</ele>
        <time>2014-01-18T08:06:10Z</time>
      </trkpt>
      <trkpt lat="43.57868" lon="2.91692">
        <ele>605</ele>
        <time>2014-01-18T08:06:11Z</time>
      </trkpt>
      <trkpt lat="43.5787" lon="2.9169">
        <ele>606</ele>
        <time>2014-01-18T08:06:14Z</time>
      </trkpt>
      <trkpt lat="43.57871" lon="2.91689">
        <ele>606</ele>
        <time>2014-01-18T08:06:15Z</time>
      </trkpt>
      <trkpt lat="43.57871" lon="2.91688">
        <ele>606</ele>
        <time>2014-01-18T08:06:16Z</time>
      </trkpt>
      <trkpt lat="43.57872" lon="2.91687">
        <ele>606</ele>
        <time>2014-01-18T08:06:17Z</time>
      </trkpt>
      <trkpt lat="43.57872" lon="2.91687">
        <ele>606</ele>
        <time>2014-01-18T08:06:18Z</time>
      </trkpt>
      <trkpt lat="43.57873" lon="2.91686">
        <ele>606</ele>
        <time>2014-01-18T08:06:19Z</time>
      </trkpt>
      <trkpt lat="43.57873" lon="2.91685">
        <ele>606</ele>
        <time>2014-01-18T08:06:20Z</time>
      </trkpt>
      <trkpt lat="43.57874" lon="2.91684">
        <ele>607</ele>
        <time>2014-01-18T08:06:22Z</time>
      </trkpt>
      <trkpt lat="43.57876" lon="2.91683">
        <ele>607</ele>
        <time>2014-01-18T08:06:27Z</time>
      </trkpt>
      <trkpt lat="43.57877" lon="2.91682">
        <ele>607</ele>
        <time>2014-01-18T08:06:28Z</time>
      </trkpt>
      <trkpt lat="43.57878" lon="2.91681">
        <ele>607</ele>
        <time>2014-01-18T08:06:29Z</time>
      </trkpt>
      <trkpt lat="43.57879" lon="2.91679">
        <ele>607</ele>
        <time>2014-01-18T08:06:32Z</time>
      </trkpt>
      <trkpt lat="43.57879" lon="2.91678">
        <ele>607</ele>
        <time>2014-01-18T08:06:33Z</time>
      </trkpt>
      <trkpt lat="43.57879" lon="2.91678">
        <ele>607</ele>
        <time>2014-01-18T08:06:34Z</time>
      </trkpt>
      <trkpt lat="43.5788" lon="2.91677">
        <ele>607</ele>
        <time>2014-01-18T08:06:35Z</time>
      </trkpt>
      <trkpt lat="43.5788" lon="2.91677">
        <ele>607</ele>
        <time>2014-01-18T08:06:36Z</time>
      </trkpt>
      <trkpt lat="43.57881" lon="2.91677">
        <ele>607</ele>
        <time>2014-01-18T08:06:37Z</time>
      </trkpt>
      <trkpt lat="43.57881" lon="2.91677">
        <ele>607</ele>
        <time>2014-01-18T08:06:38Z</time>
      </trkpt>
      <trkpt lat="43.57881" lon="2.91677">
        <ele>607</ele>
        <time>2014-01-18T08:06:39Z</time>
      </trkpt>
      <trkpt lat="43.57882" lon="2.91676">
        <ele>608</ele>
        <time>2014-01-18T08:06:40Z</time>
      </trkpt>
      <trkpt lat="43.57883" lon="2.91675">
        <ele>608</ele>
        <time>2014-01-18T08:06:41Z</time>
      </trkpt>
      <trkpt lat="43.57883" lon="2.91675">
        <ele>608</ele>
        <time>2014-01-18T08:06:42Z</time>
      </trkpt>
      <trkpt lat="43.57883" lon="2.91675">
        <ele>608</ele>
        <time>2014-01-18T08:06:43Z</time>
      </trkpt>
      <trkpt lat="43.57884" lon="2.91674">
        <ele>608</ele>
        <time>2014-01-18T08:06:44Z</time>
      </trkpt>
      <trkpt lat="43.57886" lon="2.91674">
        <ele>608</ele>
        <time>2014-01-18T08:06:47Z</time>
      </trkpt>
      <trkpt lat="43.57886" lon="2.91673">
        <ele>608</ele>
        <time>2014-01-18T08:06:48Z</time>
      </trkpt>
      <trkpt lat="43.57887" lon="2.91673">
        <ele>608</ele>
        <time>2014-01-18T08:06:49Z</time>
      </trkpt>
      <trkpt lat="43.57888" lon="2.91673">
        <ele>608</ele>
        <time>2014-01-18T08:06:50Z</time>
      </trkpt>
      <trkpt lat="43.57889" lon="2.91673">
        <ele>608</ele>
        <time>2014-01-18T08:06:51Z</time>
      </trkpt>
      <trkpt lat="43.57889" lon="2.91672">
        <ele>608</ele>
        <time>2014-01-18T08:06:52Z</time>
      </trkpt>
      <trkpt lat="43.57891" lon="2.9167">
        <ele>609</ele>
        <time>2014-01-18T08:06:55Z</time>
      </trkpt>
      <trkpt lat="43.57891" lon="2.91669">
        <ele>609</ele>
        <time>2014-01-18T08:06:56Z</time>
      </trkpt>
      <trkpt lat="43.57892" lon="2.91668">
        <ele>609</ele>
        <time>2014-01-18T08:06:58Z</time>
      </trkpt>
      <trkpt lat="43.57893" lon="2.91668">
        <ele>609</ele>
        <time>2014-01-18T08:06:59Z</time>
      </trkpt>
      <trkpt lat="43.57894" lon="2.91667">
        <ele>609</ele>
        <time>2014-01-18T08:07:00Z</time>
      </trkpt>
      <trkpt lat="43.57894" lon="2.91668">
        <ele>609</ele>
        <time>2014-01-18T08:07:01Z</time>
      </trkpt>
      <trkpt lat="43.57895" lon="2.91667">
        <ele>610</ele>
        <time>2014-01-18T08:07:02Z</time>
      </trkpt>
      <trkpt lat="43.57896" lon="2.91666">
        <ele>623</ele>
        <time>2014-01-18T08:07:03Z</time>
      </trkpt>
      <trkpt lat="43.57897" lon="2.91664">
        <ele>623</ele>
        <time>2014-01-18T08:07:05Z</time>
      </trkpt>
      <trkpt lat="43.57898" lon="2.91665">
        <ele>623</ele>
        <time>2014-01-18T08:07:33Z</time>
      </trkpt>
      <trkpt lat="43.57903" lon="2.91661">
        <ele>622</ele>
        <time>2014-01-18T08:07:36Z</time>
      </trkpt>
      <trkpt lat="43.57907" lon="2.91659">
        <ele>622</ele>
        <time>2014-01-18T08:07:39Z</time>
      </trkpt>
      <trkpt lat="43.5791" lon="2.91657">
        <ele>621</ele>
        <time>2014-01-18T08:07:41Z</time>
      </trkpt>
      <trkpt lat="43.57913" lon="2.91658">
        <ele>621</ele>
        <time>2014-01-18T08:07:44Z</time>
      </trkpt>
      <trkpt lat="43.57914" lon="2.91659">
        <ele>620</ele>
        <time>2014-01-18T08:07:45Z</time>
      </trkpt>
      <trkpt lat="43.57915" lon="2.91659">
        <ele>620</ele>
        <time>2014-01-18T08:07:46Z</time>
      </trkpt>
      <trkpt lat="43.57916" lon="2.9166">
        <ele>620</ele>
        <time>2014-01-18T08:07:47Z</time>
      </trkpt>
      <trkpt lat="43.57916" lon="2.91661">
        <ele>619</ele>
        <time>2014-01-18T08:07:48Z</time>
      </trkpt>
      <trkpt lat="43.57917" lon="2.91661">
        <ele>622</ele>
        <time>2014-01-18T08:07:49Z</time>
      </trkpt>
      <trkpt lat="43.57919" lon="2.91662">
        <ele>622</ele>
        <time>2014-01-18T08:07:53Z</time>
      </trkpt>
      <trkpt lat="43.57919" lon="2.91663">
        <ele>621</ele>
        <time>2014-01-18T08:07:58Z</time>
      </trkpt>
      <trkpt lat="43.57923" lon="2.91671">
        <ele>618</ele>
        <time>2014-01-18T08:08:03Z</time>
      </trkpt>
      <trkpt lat="43.57924" lon="2.91672">
        <ele>619</ele>
        <time>2014-01-18T08:08:04Z</time>
      </trkpt>
      <trkpt lat="43.57926" lon="2.91675">
        <ele>619</ele>
        <time>2014-01-18T08:08:06Z</time>
      </trkpt>
      <trkpt lat="43.57927" lon="2.91676">
        <ele>620</ele>
        <time>2014-01-18T08:08:07Z</time>
      </trkpt>
      <trkpt lat="43.57928" lon="2.91677">
        <ele>620</ele>
        <time>2014-01-18T08:08:08Z</time>
      </trkpt>
      <trkpt lat="43.5793" lon="2.91679">
        <ele>620</ele>
        <time>2014-01-18T08:08:09Z</time>
      </trkpt>
      <trkpt lat="43.57931" lon="2.9168">
        <ele>621</ele>
        <time>2014-01-18T08:08:10Z</time>
      </trkpt>
      <trkpt lat="43.57935" lon="2.91685">
        <ele>622</ele>
        <time>2014-01-18T08:08:14Z</time>
      </trkpt>
      <trkpt lat="43.57936" lon="2.91687">
        <ele>622</ele>
        <time>2014-01-18T08:08:15Z</time>
      </trkpt>
      <trkpt lat="43.57937" lon="2.91689">
        <ele>622</ele>
        <time>2014-01-18T08:08:16Z</time>
      </trkpt>
      <trkpt lat="43.57938" lon="2.9169">
        <ele>622</ele>
        <time>2014-01-18T08:08:17Z</time>
      </trkpt>
      <trkpt lat="43.57939" lon="2.91692">
        <ele>622</ele>
        <time>2014-01-18T08:08:18Z</time>
      </trkpt>
      <trkpt lat="43.57942" lon="2.91697">
        <ele>622</ele>
        <time>2014-01-18T08:08:22Z</time>
      </trkpt>
      <trkpt lat="43.57943" lon="2.91698">
        <ele>622</ele>
        <time>2014-01-18T08:08:23Z</time>
      </trkpt>
      <trkpt lat="43.57944" lon="2.91701">
        <ele>623</ele>
        <time>2014-01-18T08:08:25Z</time>
      </trkpt>
      <trkpt lat="43.57945" lon="2.91703">
        <ele>622</ele>
        <time>2014-01-18T08:08:26Z</time>
      </trkpt>
      <trkpt lat="43.57945" lon="2.91703">
        <ele>622</ele>
        <time>2014-01-18T08:08:27Z</time>
      </trkpt>
      <trkpt lat="43.57946" lon="2.91705">
        <ele>622</ele>
        <time>2014-01-18T08:08:28Z</time>
      </trkpt>
      <trkpt lat="43.57947" lon="2.91706">
        <ele>622</ele>
        <time>2014-01-18T08:08:29Z</time>
      </trkpt>
      <trkpt lat="43.57948" lon="2.91708">
        <ele>623</ele>
        <time>2014-01-18T08:08:31Z</time>
      </trkpt>
      <trkpt lat="43.57952" lon="2.91712">
        <ele>623</ele>
        <time>2014-01-18T08:08:35Z</time>
      </trkpt>
      <trkpt lat="43.57953" lon="2.91714">
        <ele>623</ele>
        <time>2014-01-18T08:08:37Z</time>
      </trkpt>
      <trkpt lat="43.57954" lon="2.91719">
        <ele>623</ele>
        <time>2014-01-18T08:08:40Z</time>
      </trkpt>
      <trkpt lat="43.57955" lon="2.9172">
        <ele>622</ele>
        <time>2014-01-18T08:08:41Z</time>
      </trkpt>
      <trkpt lat="43.57955" lon="2.91721">
        <ele>622</ele>
        <time>2014-01-18T08:08:42Z</time>
      </trkpt>
      <trkpt lat="43.57956" lon="2.91722">
        <ele>623</ele>
        <time>2014-01-18T08:08:43Z</time>
      </trkpt>
      <trkpt lat="43.57956" lon="2.91723">
        <ele>623</ele>
        <time>2014-01-18T08:08:44Z</time>
      </trkpt>
      <trkpt lat="43.57958" lon="2.91725">
        <ele>623</ele>
        <time>2014-01-18T08:08:46Z</time>
      </trkpt>
      <trkpt lat="43.57962" lon="2.9173">
        <ele>624</ele>
        <time>2014-01-18T08:08:52Z</time>
      </trkpt>
      <trkpt lat="43.57963" lon="2.91731">
        <ele>624</ele>
        <time>2014-01-18T08:09:01Z</time>
      </trkpt>
      <trkpt lat="43.57963" lon="2.91731">
        <ele>624</ele>
        <time>2014-01-18T08:09:02Z</time>
      </trkpt>
      <trkpt lat="43.57966" lon="2.91734">
        <ele>624</ele>
        <time>2014-01-18T08:09:05Z</time>
      </trkpt>
      <trkpt lat="43.57971" lon="2.9174">
        <ele>625</ele>
        <time>2014-01-18T08:09:09Z</time>
      </trkpt>
      <trkpt lat="43.57972" lon="2.91741">
        <ele>625</ele>
        <time>2014-01-18T08:09:10Z</time>
      </trkpt>
      <trkpt lat="43.57973" lon="2.91742">
        <ele>626</ele>
        <time>2014-01-18T08:09:11Z</time>
      </trkpt>
      <trkpt lat="43.57974" lon="2.91743">
        <ele>626</ele>
        <time>2014-01-18T08:09:12Z</time>
      </trkpt>
      <trkpt lat="43.57975" lon="2.91745">
        <ele>626</ele>
        <time>2014-01-18T08:09:13Z</time>
      </trkpt>
      <trkpt lat="43.57976" lon="2.91749">
        <ele>627</ele>
        <time>2014-01-18T08:09:17Z</time>
      </trkpt>
      <trkpt lat="43.57979" lon="2.91754">
        <ele>617</ele>
        <time>2014-01-18T08:09:20Z</time>
      </trkpt>
      <trkpt lat="43.57979" lon="2.91756">
        <ele>618</ele>
        <time>2014-01-18T08:09:21Z</time>
      </trkpt>
      <trkpt lat="43.5798" lon="2.91757">
        <ele>618</ele>
        <time>2014-01-18T08:09:22Z</time>
      </trkpt>
      <trkpt lat="43.5798" lon="2.91758">
        <ele>618</ele>
        <time>2014-01-18T08:09:23Z</time>
      </trkpt>
      <trkpt lat="43.57981" lon="2.91759">
        <ele>618</ele>
        <time>2014-01-18T08:09:24Z</time>
      </trkpt>
      <trkpt lat="43.57982" lon="2.91763">
        <ele>617</ele>
        <time>2014-01-18T08:09:27Z</time>
      </trkpt>
      <trkpt lat="43.57983" lon="2.91764">
        <ele>617</ele>
        <time>2014-01-18T08:09:28Z</time>
      </trkpt>
      <trkpt lat="43.57983" lon="2.91766">
        <ele>617</ele>
        <time>2014-01-18T08:09:29Z</time>
      </trkpt>
      <trkpt lat="43.57984" lon="2.91767">
        <ele>617</ele>
        <time>2014-01-18T08:09:30Z</time>
      </trkpt>
      <trkpt lat="43.57985" lon="2.91768">
        <ele>617</ele>
        <time>2014-01-18T08:09:31Z</time>
      </trkpt>
      <trkpt lat="43.57985" lon="2.9177">
        <ele>616</ele>
        <time>2014-01-18T08:09:32Z</time>
      </trkpt>
      <trkpt lat="43.57986" lon="2.91771">
        <ele>616</ele>
        <time>2014-01-18T08:09:33Z</time>
      </trkpt>
      <trkpt lat="43.57989" lon="2.91777">
        <ele>615</ele>
        <time>2014-01-18T08:09:37Z</time>
      </trkpt>
      <trkpt lat="43.5799" lon="2.9178">
        <ele>614</ele>
        <time>2014-01-18T08:09:39Z</time>
      </trkpt>
      <trkpt lat="43.57991" lon="2.91781">
        <ele>614</ele>
        <time>2014-01-18T08:09:40Z</time>
      </trkpt>
      <trkpt lat="43.57992" lon="2.91783">
        <ele>614</ele>
        <time>2014-01-18T08:09:41Z</time>
      </trkpt>
      <trkpt lat="43.57993" lon="2.91784">
        <ele>613</ele>
        <time>2014-01-18T08:09:42Z</time>
      </trkpt>
      <trkpt lat="43.57993" lon="2.91786">
        <ele>613</ele>
        <time>2014-01-18T08:09:43Z</time>
      </trkpt>
      <trkpt lat="43.57997" lon="2.91788">
        <ele>613</ele>
        <time>2014-01-18T08:09:46Z</time>
      </trkpt>
      <trkpt lat="43.58002" lon="2.9179">
        <ele>626</ele>
        <time>2014-01-18T08:09:51Z</time>
      </trkpt>
      <trkpt lat="43.58002" lon="2.9179">
        <ele>626</ele>
        <time>2014-01-18T08:09:52Z</time>
      </trkpt>
      <trkpt lat="43.58003" lon="2.9179">
        <ele>626</ele>
        <time>2014-01-18T08:09:53Z</time>
      </trkpt>
      <trkpt lat="43.58004" lon="2.91789">
        <ele>626</ele>
        <time>2014-01-18T08:10:52Z</time>
      </trkpt>
      <trkpt lat="43.58004" lon="2.91788">
        <ele>626</ele>
        <time>2014-01-18T08:10:53Z</time>
      </trkpt>
      <trkpt lat="43.58004" lon="2.91787">
        <ele>627</ele>
        <time>2014-01-18T08:10:54Z</time>
      </trkpt>
      <trkpt lat="43.58005" lon="2.91783">
        <ele>627</ele>
        <time>2014-01-18T08:10:58Z</time>
      </trkpt>
      <trkpt lat="43.58005" lon="2.91783">
        <ele>627</ele>
        <time>2014-01-18T08:10:59Z</time>
      </trkpt>
      <trkpt lat="43.58005" lon="2.91782">
        <ele>628</ele>
        <time>2014-01-18T08:11:00Z</time>
      </trkpt>
      <trkpt lat="43.58005" lon="2.91782">
        <ele>628</ele>
        <time>2014-01-18T08:11:01Z</time>
      </trkpt>
      <trkpt lat="43.58005" lon="2.91781">
        <ele>628</ele>
        <time>2014-01-18T08:11:04Z</time>
      </trkpt>
      <trkpt lat="43.58005" lon="2.91779">
        <ele>628</ele>
        <time>2014-01-18T08:11:06Z</time>
      </trkpt>
      <trkpt lat="43.58005" lon="2.91779">
        <ele>628</ele>
        <time>2014-01-18T08:11:07Z</time>
      </trkpt>
      <trkpt lat="43.58005" lon="2.91777">
        <ele>628</ele>
        <time>2014-01-18T08:11:08Z</time>
      </trkpt>
      <trkpt lat="43.58005" lon="2.91776">
        <ele>629</ele>
        <time>2014-01-18T08:11:09Z</time>
      </trkpt>
      <trkpt lat="43.58004" lon="2.91775">
        <ele>629</ele>
        <time>2014-01-18T08:11:10Z</time>
      </trkpt>
      <trkpt lat="43.58004" lon="2.91774">
        <ele>629</ele>
        <time>2014-01-18T08:11:11Z</time>
      </trkpt>
      <trkpt lat="43.58004" lon="2.91774">
        <ele>629</ele>
        <time>2014-01-18T08:11:12Z</time>
      </trkpt>
      <trkpt lat="43.58003" lon="2.91773">
        <ele>629</ele>
        <time>2014-01-18T08:11:14Z</time>
      </trkpt>
      <trkpt lat="43.58003" lon="2.91772">
        <ele>629</ele>
        <time>2014-01-18T08:11:15Z</time>
      </trkpt>
      <trkpt lat="43.58003" lon="2.91772">
        <ele>629</ele>
        <time>2014-01-18T08:11:16Z</time>
      </trkpt>
      <trkpt lat="43.58003" lon="2.91772">
        <ele>629</ele>
        <time>2014-01-18T08:13:43Z</time>
      </trkpt>
      <trkpt lat="43.58003" lon="2.91772">
        <ele>630</ele>
        <time>2014-01-18T08:13:44Z</time>
      </trkpt>
      <trkpt lat="43.58001" lon="2.91762">
        <ele>631</ele>
        <time>2014-01-18T08:13:51Z</time>
      </trkpt>
      <trkpt lat="43.57999" lon="2.91754">
        <ele>630</ele>
        <time>2014-01-18T08:13:57Z</time>
      </trkpt>
      <trkpt lat="43.57999" lon="2.91751">
        <ele>632</ele>
        <time>2014-01-18T08:13:59Z</time>
      </trkpt>
      <trkpt lat="43.57999" lon="2.9175">
        <ele>633</ele>
        <time>2014-01-18T08:14:00Z</time>
      </trkpt>
      <trkpt lat="43.57999" lon="2.91749">
        <ele>633</ele>
        <time>2014-01-18T08:14:01Z</time>
      </trkpt>
      <trkpt lat="43.57999" lon="2.91748">
        <ele>633</ele>
        <time>2014-01-18T08:14:02Z</time>
      </trkpt>
      <trkpt lat="43.57998" lon="2.91746">
        <ele>633</ele>
        <time>2014-01-18T08:14:03Z</time>
      </trkpt>
      <trkpt lat="43.57998" lon="2.91745">
        <ele>632</ele>
        <time>2014-01-18T08:14:04Z</time>
      </trkpt>
      <trkpt lat="43.57998" lon="2.91743">
        <ele>632</ele>
        <time>2014-01-18T08:14:06Z</time>
      </trkpt>
      <trkpt lat="43.57998" lon="2.91739">
        <ele>631</ele>
        <time>2014-01-18T08:14:10Z</time>
      </trkpt>
      <trkpt lat="43.57998" lon="2.91738">
        <ele>631</ele>
        <time>2014-01-18T08:14:11Z</time>
      </trkpt>
      <trkpt lat="43.57998" lon="2.91737">
        <ele>631</ele>
        <time>2014-01-18T08:14:12Z</time>
      </trkpt>
      <trkpt lat="43.57998" lon="2.91737">
        <ele>631</ele>
        <time>2014-01-18T08:14:13Z</time>
      </trkpt>
      <trkpt lat="43.57998" lon="2.91733">
        <ele>630</ele>
        <time>2014-01-18T08:14:16Z</time>
      </trkpt>
      <trkpt lat="43.57998" lon="2.91731">
        <ele>630</ele>
        <time>2014-01-18T08:14:18Z</time>
      </trkpt>
      <trkpt lat="43.57998" lon="2.9173">
        <ele>630</ele>
        <time>2014-01-18T08:14:19Z</time>
      </trkpt>
      <trkpt lat="43.57998" lon="2.91728">
        <ele>630</ele>
        <time>2014-01-18T08:14:20Z</time>
      </trkpt>
      <trkpt lat="43.57999" lon="2.91727">
        <ele>630</ele>
        <time>2014-01-18T08:14:21Z</time>
      </trkpt>
      <trkpt lat="43.57999" lon="2.91726">
        <ele>630</ele>
        <time>2014-01-18T08:14:22Z</time>
      </trkpt>
      <trkpt lat="43.57998" lon="2.9172">
        <ele>630</ele>
        <time>2014-01-18T08:14:26Z</time>
      </trkpt>
      <trkpt lat="43.57998" lon="2.91719">
        <ele>630</ele>
        <time>2014-01-18T08:14:27Z</time>
      </trkpt>
      <trkpt lat="43.57999" lon="2.91716">
        <ele>631</ele>
        <time>2014-01-18T08:14:29Z</time>
      </trkpt>
      <trkpt lat="43.57998" lon="2.91715">
        <ele>631</ele>
        <time>2014-01-18T08:14:30Z</time>
      </trkpt>
      <trkpt lat="43.57998" lon="2.91714">
        <ele>631</ele>
        <time>2014-01-18T08:14:31Z</time>
      </trkpt>
      <trkpt lat="43.57999" lon="2.91712">
        <ele>631</ele>
        <time>2014-01-18T08:14:32Z</time>
      </trkpt>
      <trkpt lat="43.57998" lon="2.91711">
        <ele>631</ele>
        <time>2014-01-18T08:14:33Z</time>
      </trkpt>
      <trkpt lat="43.57997" lon="2.91701">
        <ele>633</ele>
        <time>2014-01-18T08:14:40Z</time>
      </trkpt>
      <trkpt lat="43.57997" lon="2.91701">
        <ele>633</ele>
        <time>2014-01-18T08:14:41Z</time>
      </trkpt>
      <trkpt lat="43.57997" lon="2.91699">
        <ele>634</ele>
        <time>2014-01-18T08:14:42Z</time>
      </trkpt>
      <trkpt lat="43.57997" lon="2.91697">
        <ele>634</ele>
        <time>2014-01-18T08:14:43Z</time>
      </trkpt>
      <trkpt lat="43.57996" lon="2.91696">
        <ele>634</ele>
        <time>2014-01-18T08:14:44Z</time>
      </trkpt>
      <trkpt lat="43.57996" lon="2.91695">
        <ele>635</ele>
        <time>2014-01-18T08:14:45Z</time>
      </trkpt>
      <trkpt lat="43.57994" lon="2.91687">
        <ele>638</ele>
        <time>2014-01-18T08:14:52Z</time>
      </trkpt>
      <trkpt lat="43.57992" lon="2.91678">
        <ele>641</ele>
        <time>2014-01-18T08:14:59Z</time>
      </trkpt>
      <trkpt lat="43.57993" lon="2.91677">
        <ele>642</ele>
        <time>2014-01-18T08:15:00Z</time>
      </trkpt>
      <trkpt lat="43.57993" lon="2.91676">
        <ele>642</ele>
        <time>2014-01-18T08:15:01Z</time>
      </trkpt>
      <trkpt lat="43.57993" lon="2.91675">
        <ele>643</ele>
        <time>2014-01-18T08:15:02Z</time>
      </trkpt>
      <trkpt lat="43.57992" lon="2.9167">
        <ele>645</ele>
        <time>2014-01-18T08:15:06Z</time>
      </trkpt>
      <trkpt lat="43.57993" lon="2.91667">
        <ele>646</ele>
        <time>2014-01-18T08:15:08Z</time>
      </trkpt>
      <trkpt lat="43.57993" lon="2.91667">
        <ele>646</ele>
        <time>2014-01-18T08:15:09Z</time>
      </trkpt>
      <trkpt lat="43.57994" lon="2.91666">
        <ele>651</ele>
        <time>2014-01-18T08:15:10Z</time>
      </trkpt>
      <trkpt lat="43.57994" lon="2.91665">
        <ele>651</ele>
        <time>2014-01-18T08:15:11Z</time>
      </trkpt>
      <trkpt lat="43.57994" lon="2.91665">
        <ele>651</ele>
        <time>2014-01-18T08:15:12Z</time>
      </trkpt>
      <trkpt lat="43.57994" lon="2.91664">
        <ele>651</ele>
        <time>2014-01-18T08:15:13Z</time>
      </trkpt>
      <trkpt lat="43.57994" lon="2.91659">
        <ele>650</ele>
        <time>2014-01-18T08:15:18Z</time>
      </trkpt>
      <trkpt lat="43.57994" lon="2.91658">
        <ele>650</ele>
        <time>2014-01-18T08:15:19Z</time>
      </trkpt>
      <trkpt lat="43.57994" lon="2.91657">
        <ele>650</ele>
        <time>2014-01-18T08:15:20Z</time>
      </trkpt>
      <trkpt lat="43.57994" lon="2.91656">
        <ele>650</ele>
        <time>2014-01-18T08:15:21Z</time>
      </trkpt>
      <trkpt lat="43.57994" lon="2.91655">
        <ele>650</ele>
        <time>2014-01-18T08:15:22Z</time>
      </trkpt>
      <trkpt lat="43.57994" lon="2.91654">
        <ele>650</ele>
        <time>2014-01-18T08:15:23Z</time>
      </trkpt>
      <trkpt lat="43.57994" lon="2.91651">
        <ele>650</ele>
        <time>2014-01-18T08:15:26Z</time>
      </trkpt>
      <trkpt lat="43.57994" lon="2.9165">
        <ele>650</ele>
        <time>2014-01-18T08:15:28Z</time>
      </trkpt>
      <trkpt lat="43.57995" lon="2.91648">
        <ele>650</ele>
        <time>2014-01-18T08:15:29Z</time>
      </trkpt>
      <trkpt lat="43.57995" lon="2.91648">
        <ele>650</ele>
        <time>2014-01-18T08:15:30Z</time>
      </trkpt>
      <trkpt lat="43.57995" lon="2.91647">
        <ele>650</ele>
        <time>2014-01-18T08:15:31Z</time>
      </trkpt>
      <trkpt lat="43.57995" lon="2.91645">
        <ele>650</ele>
        <time>2014-01-18T08:15:32Z</time>
      </trkpt>
      <trkpt lat="43.57996" lon="2.91638">
        <ele>650</ele>
        <time>2014-01-18T08:15:39Z</time>
      </trkpt>
      <trkpt lat="43.57996" lon="2.91637">
        <ele>650</ele>
        <time>2014-01-18T08:15:40Z</time>
      </trkpt>
      <trkpt lat="43.57995" lon="2.91636">
        <ele>650</ele>
        <time>2014-01-18T08:15:41Z</time>
      </trkpt>
      <trkpt lat="43.57996" lon="2.91635">
        <ele>650</ele>
        <time>2014-01-18T08:15:42Z</time>
      </trkpt>
      <trkpt lat="43.57996" lon="2.91634">
        <ele>650</ele>
        <time>2014-01-18T08:15:43Z</time>
      </trkpt>
      <trkpt lat="43.57996" lon="2.91633">
        <ele>650</ele>
        <time>2014-01-18T08:15:44Z</time>
      </trkpt>
      <trkpt lat="43.57995" lon="2.91629">
        <ele>651</ele>
        <time>2014-01-18T08:15:47Z</time>
      </trkpt>
      <trkpt lat="43.57995" lon="2.91625">
        <ele>651</ele>
        <time>2014-01-18T08:15:50Z</time>
      </trkpt>
      <trkpt lat="43.57995" lon="2.91623">
        <ele>651</ele>
        <time>2014-01-18T08:15:52Z</time>
      </trkpt>
      <trkpt lat="43.57995" lon="2.9162">
        <ele>652</ele>
        <time>2014-01-18T08:15:54Z</time>
      </trkpt>
      <trkpt lat="43.57994" lon="2.91619">
        <ele>652</ele>
        <time>2014-01-18T08:15:55Z</time>
      </trkpt>
      <trkpt lat="43.57994" lon="2.91618">
        <ele>652</ele>
        <time>2014-01-18T08:15:56Z</time>
      </trkpt>
      <trkpt lat="43.57994" lon="2.91616">
        <ele>653</ele>
        <time>2014-01-18T08:15:57Z</time>
      </trkpt>
      <trkpt lat="43.57994" lon="2.91615">
        <ele>653</ele>
        <time>2014-01-18T08:15:58Z</time>
      </trkpt>
      <trkpt lat="43.57993" lon="2.91611">
        <ele>654</ele>
        <time>2014-01-18T08:16:02Z</time>
      </trkpt>
      <trkpt lat="43.57992" lon="2.91602">
        <ele>657</ele>
        <time>2014-01-18T08:16:08Z</time>
      </trkpt>
      <trkpt lat="43.57992" lon="2.91601">
        <ele>657</ele>
        <time>2014-01-18T08:16:09Z</time>
      </trkpt>
      <trkpt lat="43.57991" lon="2.91599">
        <ele>658</ele>
        <time>2014-01-18T08:16:10Z</time>
      </trkpt>
      <trkpt lat="43.57991" lon="2.91597">
        <ele>658</ele>
        <time>2014-01-18T08:16:11Z</time>
      </trkpt>
      <trkpt lat="43.57991" lon="2.91596">
        <ele>659</ele>
        <time>2014-01-18T08:16:12Z</time>
      </trkpt>
      <trkpt lat="43.5799" lon="2.91594">
        <ele>660</ele>
        <time>2014-01-18T08:16:14Z</time>
      </trkpt>
      <trkpt lat="43.57986" lon="2.91585">
        <ele>659</ele>
        <time>2014-01-18T08:16:20Z</time>
      </trkpt>
      <trkpt lat="43.57985" lon="2.91582">
        <ele>669</ele>
        <time>2014-01-18T08:16:22Z</time>
      </trkpt>
      <trkpt lat="43.57982" lon="2.91573">
        <ele>669</ele>
        <time>2014-01-18T08:16:30Z</time>
      </trkpt>
      <trkpt lat="43.57981" lon="2.91572">
        <ele>669</ele>
        <time>2014-01-18T08:16:31Z</time>
      </trkpt>
      <trkpt lat="43.5798" lon="2.91571">
        <ele>669</ele>
        <time>2014-01-18T08:16:32Z</time>
      </trkpt>
      <trkpt lat="43.5798" lon="2.91569">
        <ele>669</ele>
        <time>2014-01-18T08:16:33Z</time>
      </trkpt>
      <trkpt lat="43.57979" lon="2.91568">
        <ele>669</ele>
        <time>2014-01-18T08:16:34Z</time>
      </trkpt>
      <trkpt lat="43.57977" lon="2.91565">
        <ele>669</ele>
        <time>2014-01-18T08:16:37Z</time>
      </trkpt>
      <trkpt lat="43.57974" lon="2.91562">
        <ele>669</ele>
        <time>2014-01-18T08:16:41Z</time>
      </trkpt>
      <trkpt lat="43.57972" lon="2.91559">
        <ele>669</ele>
        <time>2014-01-18T08:16:44Z</time>
      </trkpt>
      <trkpt lat="43.57968" lon="2.91552">
        <ele>670</ele>
        <time>2014-01-18T08:16:50Z</time>
      </trkpt>
      <trkpt lat="43.57968" lon="2.91551">
        <ele>670</ele>
        <time>2014-01-18T08:16:51Z</time>
      </trkpt>
      <trkpt lat="43.57968" lon="2.9155">
        <ele>670</ele>
        <time>2014-01-18T08:16:52Z</time>
      </trkpt>
      <trkpt lat="43.57967" lon="2.91549">
        <ele>670</ele>
        <time>2014-01-18T08:16:53Z</time>
      </trkpt>
      <trkpt lat="43.57967" lon="2.91548">
        <ele>670</ele>
        <time>2014-01-18T08:16:54Z</time>
      </trkpt>
      <trkpt lat="43.57966" lon="2.91548">
        <ele>670</ele>
        <time>2014-01-18T08:16:55Z</time>
      </trkpt>
      <trkpt lat="43.57966" lon="2.91546">
        <ele>670</ele>
        <time>2014-01-18T08:16:56Z</time>
      </trkpt>
      <trkpt lat="43.57966" lon="2.91545">
        <ele>670</ele>
        <time>2014-01-18T08:16:57Z</time>
      </trkpt>
      <trkpt lat="43.57965" lon="2.9154">
        <ele>671</ele>
        <time>2014-01-18T08:17:02Z</time>
      </trkpt>
      <trkpt lat="43.57965" lon="2.91539">
        <ele>671</ele>
        <time>2014-01-18T08:17:03Z</time>
      </trkpt>
      <trkpt lat="43.57964" lon="2.91536">
        <ele>672</ele>
        <time>2014-01-18T08:17:05Z</time>
      </trkpt>
      <trkpt lat="43.57964" lon="2.91536">
        <ele>672</ele>
        <time>2014-01-18T08:17:06Z</time>
      </trkpt>
      <trkpt lat="43.57963" lon="2.91535">
        <ele>672</ele>
        <time>2014-01-18T08:17:07Z</time>
      </trkpt>
      <trkpt lat="43.57963" lon="2.91534">
        <ele>672</ele>
        <time>2014-01-18T08:17:08Z</time>
      </trkpt>
      <trkpt lat="43.57963" lon="2.91533">
        <ele>672</ele>
        <time>2014-01-18T08:17:09Z</time>
      </trkpt>
      <trkpt lat="43.57962" lon="2.91533">
        <ele>672</ele>
        <time>2014-01-18T08:17:10Z</time>
      </trkpt>
      <trkpt lat="43.57961" lon="2.91526">
        <ele>673</ele>
        <time>2014-01-18T08:17:17Z</time>
      </trkpt>
      <trkpt lat="43.5796" lon="2.91526">
        <ele>673</ele>
        <time>2014-01-18T08:17:18Z</time>
      </trkpt>
      <trkpt lat="43.5796" lon="2.91525">
        <ele>673</ele>
        <time>2014-01-18T08:17:19Z</time>
      </trkpt>
      <trkpt lat="43.57959" lon="2.91524">
        <ele>673</ele>
        <time>2014-01-18T08:17:20Z</time>
      </trkpt>
      <trkpt lat="43.57959" lon="2.91523">
        <ele>673</ele>
        <time>2014-01-18T08:17:21Z</time>
      </trkpt>
      <trkpt lat="43.57959" lon="2.9152">
        <ele>673</ele>
        <time>2014-01-18T08:17:24Z</time>
      </trkpt>
      <trkpt lat="43.57959" lon="2.91519">
        <ele>673</ele>
        <time>2014-01-18T08:17:25Z</time>
      </trkpt>
      <trkpt lat="43.57959" lon="2.91519">
        <ele>673</ele>
        <time>2014-01-18T08:17:26Z</time>
      </trkpt>
      <trkpt lat="43.57959" lon="2.91518">
        <ele>673</ele>
        <time>2014-01-18T08:17:27Z</time>
      </trkpt>
      <trkpt lat="43.57958" lon="2.91517">
        <ele>673</ele>
        <time>2014-01-18T08:17:28Z</time>
      </trkpt>
      <trkpt lat="43.57958" lon="2.91516">
        <ele>674</ele>
        <time>2014-01-18T08:17:29Z</time>
      </trkpt>
      <trkpt lat="43.57957" lon="2.91513">
        <ele>674</ele>
        <time>2014-01-18T08:17:32Z</time>
      </trkpt>
      <trkpt lat="43.57957" lon="2.91509">
        <ele>674</ele>
        <time>2014-01-18T08:17:35Z</time>
      </trkpt>
      <trkpt lat="43.57956" lon="2.91508">
        <ele>674</ele>
        <time>2014-01-18T08:17:36Z</time>
      </trkpt>
      <trkpt lat="43.57956" lon="2.91507">
        <ele>674</ele>
        <time>2014-01-18T08:17:37Z</time>
      </trkpt>
      <trkpt lat="43.57955" lon="2.91506">
        <ele>674</ele>
        <time>2014-01-18T08:17:38Z</time>
      </trkpt>
      <trkpt lat="43.57955" lon="2.91505">
        <ele>674</ele>
        <time>2014-01-18T08:17:39Z</time>
      </trkpt>
      <trkpt lat="43.57951" lon="2.91499">
        <ele>690</ele>
        <time>2014-01-18T08:17:46Z</time>
      </trkpt>
      <trkpt lat="43.57951" lon="2.91498">
        <ele>690</ele>
        <time>2014-01-18T08:17:47Z</time>
      </trkpt>
      <trkpt lat="43.5795" lon="2.91496">
        <ele>690</ele>
        <time>2014-01-18T08:17:48Z</time>
      </trkpt>
      <trkpt lat="43.5795" lon="2.91495">
        <ele>690</ele>
        <time>2014-01-18T08:17:49Z</time>
      </trkpt>
      <trkpt lat="43.5795" lon="2.91494">
        <ele>690</ele>
        <time>2014-01-18T08:17:50Z</time>
      </trkpt>
      <trkpt lat="43.57949" lon="2.91493">
        <ele>690</ele>
        <time>2014-01-18T08:17:51Z</time>
      </trkpt>
      <trkpt lat="43.57948" lon="2.91491">
        <ele>690</ele>
        <time>2014-01-18T08:17:53Z</time>
      </trkpt>
      <trkpt lat="43.57945" lon="2.91486">
        <ele>690</ele>
        <time>2014-01-18T08:17:59Z</time>
      </trkpt>
      <trkpt lat="43.57942" lon="2.91484">
        <ele>689</ele>
        <time>2014-01-18T08:18:02Z</time>
      </trkpt>
      <trkpt lat="43.57942" lon="2.91483">
        <ele>689</ele>
        <time>2014-01-18T08:18:03Z</time>
      </trkpt>
      <trkpt lat="43.57941" lon="2.91482">
        <ele>689</ele>
        <time>2014-01-18T08:18:04Z</time>
      </trkpt>
      <trkpt lat="43.5794" lon="2.91481">
        <ele>689</ele>
        <time>2014-01-18T08:18:05Z</time>
      </trkpt>
      <trkpt lat="43.5794" lon="2.91481">
        <ele>689</ele>
        <time>2014-01-18T08:18:06Z</time>
      </trkpt>
      <trkpt lat="43.57937" lon="2.91476">
        <ele>690</ele>
        <time>2014-01-18T08:18:11Z</time>
      </trkpt>
      <trkpt lat="43.57935" lon="2.91472">
        <ele>690</ele>
        <time>2014-01-18T08:18:15Z</time>
      </trkpt>
      <trkpt lat="43.57934" lon="2.91471">
        <ele>690</ele>
        <time>2014-01-18T08:18:16Z</time>
      </trkpt>
      <trkpt lat="43.57933" lon="2.91472">
        <ele>690</ele>
        <time>2014-01-18T08:18:17Z</time>
      </trkpt>
      <trkpt lat="43.57932" lon="2.91472">
        <ele>690</ele>
        <time>2014-01-18T08:18:18Z</time>
      </trkpt>
      <trkpt lat="43.57931" lon="2.91472">
        <ele>690</ele>
        <time>2014-01-18T08:18:19Z</time>
      </trkpt>
      <trkpt lat="43.5793" lon="2.91471">
        <ele>690</ele>
        <time>2014-01-18T08:18:20Z</time>
      </trkpt>
      <trkpt lat="43.5793" lon="2.91471">
        <ele>690</ele>
        <time>2014-01-18T08:18:21Z</time>
      </trkpt>
      <trkpt lat="43.57928" lon="2.91471">
        <ele>690</ele>
        <time>2014-01-18T08:18:22Z</time>
      </trkpt>
      <trkpt lat="43.57928" lon="2.91471">
        <ele>690</ele>
        <time>2014-01-18T08:18:23Z</time>
      </trkpt>
      <trkpt lat="43.57928" lon="2.9147">
        <ele>690</ele>
        <time>2014-01-18T08:18:24Z</time>
      </trkpt>
      <trkpt lat="43.57928" lon="2.9147">
        <ele>690</ele>
        <time>2014-01-18T08:18:28Z</time>
      </trkpt>
      <trkpt lat="43.57926" lon="2.9147">
        <ele>690</ele>
        <time>2014-01-18T08:18:30Z</time>
      </trkpt>
      <trkpt lat="43.57924" lon="2.9147">
        <ele>689</ele>
        <time>2014-01-18T08:18:34Z</time>
      </trkpt>
      <trkpt lat="43.57922" lon="2.9147">
        <ele>689</ele>
        <time>2014-01-18T08:18:36Z</time>
      </trkpt>
      <trkpt lat="43.57921" lon="2.9147">
        <ele>689</ele>
        <time>2014-01-18T08:18:37Z</time>
      </trkpt>
      <trkpt lat="43.57921" lon="2.9147">
        <ele>689</ele>
        <time>2014-01-18T08:18:38Z</time>
      </trkpt>
      <trkpt lat="43.57919" lon="2.91469">
        <ele>689</ele>
        <time>2014-01-18T08:18:39Z</time>
      </trkpt>
      <trkpt lat="43.57919" lon="2.91469">
        <ele>689</ele>
        <time>2014-01-18T08:18:40Z</time>
      </trkpt>
      <trkpt lat="43.57918" lon="2.91469">
        <ele>689</ele>
        <time>2014-01-18T08:18:41Z</time>
      </trkpt>
      <trkpt lat="43.57912" lon="2.9147">
        <ele>683</ele>
        <time>2014-01-18T08:18:44Z</time>
      </trkpt>
      <trkpt lat="43.57907" lon="2.91471">
        <ele>683</ele>
        <time>2014-01-18T08:18:47Z</time>
      </trkpt>
      <trkpt lat="43.579" lon="2.91474">
        <ele>682</ele>
        <time>2014-01-18T08:18:51Z</time>
      </trkpt>
      <trkpt lat="43.57889" lon="2.91477">
        <ele>682</ele>
        <time>2014-01-18T08:18:57Z</time>
      </trkpt>
      <trkpt lat="43.57878" lon="2.91481">
        <ele>683</ele>
        <time>2014-01-18T08:19:03Z</time>
      </trkpt>
      <trkpt lat="43.57873" lon="2.91483">
        <ele>683</ele>
        <time>2014-01-18T08:19:05Z</time>
      </trkpt>
      <trkpt lat="43.57871" lon="2.91484">
        <ele>683</ele>
        <time>2014-01-18T08:19:06Z</time>
      </trkpt>
      <trkpt lat="43.57869" lon="2.91484">
        <ele>682</ele>
        <time>2014-01-18T08:19:07Z</time>
      </trkpt>
      <trkpt lat="43.57867" lon="2.91485">
        <ele>682</ele>
        <time>2014-01-18T08:19:08Z</time>
      </trkpt>
      <trkpt lat="43.57864" lon="2.91487">
        <ele>682</ele>
        <time>2014-01-18T08:19:10Z</time>
      </trkpt>
      <trkpt lat="43.57856" lon="2.91492">
        <ele>682</ele>
        <time>2014-01-18T08:19:14Z</time>
      </trkpt>
      <trkpt lat="43.57853" lon="2.91495">
        <ele>681</ele>
        <time>2014-01-18T08:19:16Z</time>
      </trkpt>
      <trkpt lat="43.57837" lon="2.91506">
        <ele>674</ele>
        <time>2014-01-18T08:19:22Z</time>
      </trkpt>
      <trkpt lat="43.57825" lon="2.91508">
        <ele>673</ele>
        <time>2014-01-18T08:19:27Z</time>
      </trkpt>
      <trkpt lat="43.57817" lon="2.91507">
        <ele>671</ele>
        <time>2014-01-18T08:19:32Z</time>
      </trkpt>
      <trkpt lat="43.57816" lon="2.91507">
        <ele>671</ele>
        <time>2014-01-18T08:19:33Z</time>
      </trkpt>
      <trkpt lat="43.57814" lon="2.91507">
        <ele>671</ele>
        <time>2014-01-18T08:19:34Z</time>
      </trkpt>
      <trkpt lat="43.57813" lon="2.91508">
        <ele>670</ele>
        <time>2014-01-18T08:19:35Z</time>
      </trkpt>
      <trkpt lat="43.57812" lon="2.91508">
        <ele>670</ele>
        <time>2014-01-18T08:19:36Z</time>
      </trkpt>
      <trkpt lat="43.57811" lon="2.91507">
        <ele>670</ele>
        <time>2014-01-18T08:19:37Z</time>
      </trkpt>
      <trkpt lat="43.57807" lon="2.91505">
        <ele>670</ele>
        <time>2014-01-18T08:19:41Z</time>
      </trkpt>
      <trkpt lat="43.57805" lon="2.91505">
        <ele>669</ele>
        <time>2014-01-18T08:19:42Z</time>
      </trkpt>
      <trkpt lat="43.57803" lon="2.91504">
        <ele>669</ele>
        <time>2014-01-18T08:19:43Z</time>
      </trkpt>
      <trkpt lat="43.57802" lon="2.91503">
        <ele>669</ele>
        <time>2014-01-18T08:19:44Z</time>
      </trkpt>
      <trkpt lat="43.57801" lon="2.915">
        <ele>669</ele>
        <time>2014-01-18T08:19:45Z</time>
      </trkpt>
      <trkpt lat="43.57802" lon="2.91496">
        <ele>676</ele>
        <time>2014-01-18T08:19:47Z</time>
      </trkpt>
      <trkpt lat="43.57802" lon="2.91494">
        <ele>676</ele>
        <time>2014-01-18T08:19:48Z</time>
      </trkpt>
      <trkpt lat="43.57804" lon="2.9149">
        <ele>676</ele>
        <time>2014-01-18T08:19:50Z</time>
      </trkpt>
      <trkpt lat="43.57805" lon="2.91488">
        <ele>676</ele>
        <time>2014-01-18T08:19:51Z</time>
      </trkpt>
      <trkpt lat="43.57805" lon="2.91487">
        <ele>676</ele>
        <time>2014-01-18T08:19:52Z</time>
      </trkpt>
      <trkpt lat="43.57806" lon="2.91485">
        <ele>676</ele>
        <time>2014-01-18T08:19:53Z</time>
      </trkpt>
      <trkpt lat="43.57807" lon="2.91484">
        <ele>676</ele>
        <time>2014-01-18T08:19:54Z</time>
      </trkpt>
      <trkpt lat="43.57809" lon="2.91483">
        <ele>676</ele>
        <time>2014-01-18T08:19:56Z</time>
      </trkpt>
      <trkpt lat="43.57811" lon="2.9148">
        <ele>676</ele>
        <time>2014-01-18T08:19:58Z</time>
      </trkpt>
      <trkpt lat="43.57812" lon="2.91479">
        <ele>676</ele>
        <time>2014-01-18T08:19:59Z</time>
      </trkpt>
      <trkpt lat="43.57813" lon="2.91478">
        <ele>677</ele>
        <time>2014-01-18T08:20:00Z</time>
      </trkpt>
      <trkpt lat="43.57814" lon="2.91477">
        <ele>677</ele>
        <time>2014-01-18T08:20:01Z</time>
      </trkpt>
      <trkpt lat="43.57814" lon="2.91476">
        <ele>677</ele>
        <time>2014-01-18T08:20:02Z</time>
      </trkpt>
      <trkpt lat="43.57816" lon="2.91475">
        <ele>677</ele>
        <time>2014-01-18T08:20:04Z</time>
      </trkpt>
      <trkpt lat="43.57818" lon="2.91474">
        <ele>677</ele>
        <time>2014-01-18T08:20:06Z</time>
      </trkpt>
      <trkpt lat="43.57819" lon="2.91473">
        <ele>677</ele>
        <time>2014-01-18T08:20:07Z</time>
      </trkpt>
      <trkpt lat="43.57819" lon="2.91472">
        <ele>677</ele>
        <time>2014-01-18T08:20:08Z</time>
      </trkpt>
      <trkpt lat="43.5782" lon="2.91472">
        <ele>677</ele>
        <time>2014-01-18T08:20:09Z</time>
      </trkpt>
      <trkpt lat="43.57821" lon="2.91471">
        <ele>677</ele>
        <time>2014-01-18T08:20:10Z</time>
      </trkpt>
      <trkpt lat="43.57829" lon="2.91466">
        <ele>678</ele>
        <time>2014-01-18T08:20:17Z</time>
      </trkpt>
      <trkpt lat="43.5783" lon="2.91465">
        <ele>678</ele>
        <time>2014-01-18T08:20:18Z</time>
      </trkpt>
      <trkpt lat="43.57831" lon="2.91463">
        <ele>678</ele>
        <time>2014-01-18T08:20:20Z</time>
      </trkpt>
      <trkpt lat="43.57832" lon="2.91463">
        <ele>678</ele>
        <time>2014-01-18T08:20:21Z</time>
      </trkpt>
      <trkpt lat="43.57834" lon="2.91463">
        <ele>684</ele>
        <time>2014-01-18T08:20:22Z</time>
      </trkpt>
      <trkpt lat="43.57835" lon="2.91463">
        <ele>684</ele>
        <time>2014-01-18T08:20:23Z</time>
      </trkpt>
      <trkpt lat="43.57838" lon="2.9146">
        <ele>685</ele>
        <time>2014-01-18T08:20:29Z</time>
      </trkpt>
      <trkpt lat="43.57839" lon="2.9146">
        <ele>685</ele>
        <time>2014-01-18T08:20:39Z</time>
      </trkpt>
      <trkpt lat="43.5784" lon="2.91459">
        <ele>685</ele>
        <time>2014-01-18T08:20:40Z</time>
      </trkpt>
      <trkpt lat="43.57842" lon="2.91457">
        <ele>685</ele>
        <time>2014-01-18T08:20:43Z</time>
      </trkpt>
      <trkpt lat="43.57844" lon="2.91455">
        <ele>685</ele>
        <time>2014-01-18T08:20:46Z</time>
      </trkpt>
      <trkpt lat="43.57846" lon="2.91454">
        <ele>686</ele>
        <time>2014-01-18T08:20:47Z</time>
      </trkpt>
      <trkpt lat="43.57846" lon="2.91454">
        <ele>686</ele>
        <time>2014-01-18T08:20:48Z</time>
      </trkpt>
      <trkpt lat="43.57847" lon="2.91453">
        <ele>686</ele>
        <time>2014-01-18T08:20:49Z</time>
      </trkpt>
      <trkpt lat="43.57848" lon="2.91452">
        <ele>686</ele>
        <time>2014-01-18T08:20:50Z</time>
      </trkpt>
      <trkpt lat="43.57855" lon="2.91446">
        <ele>686</ele>
        <time>2014-01-18T08:20:58Z</time>
      </trkpt>
      <trkpt lat="43.57856" lon="2.91446">
        <ele>687</ele>
        <time>2014-01-18T08:20:59Z</time>
      </trkpt>
      <trkpt lat="43.57857" lon="2.91445">
        <ele>687</ele>
        <time>2014-01-18T08:21:00Z</time>
      </trkpt>
      <trkpt lat="43.57857" lon="2.91444">
        <ele>687</ele>
        <time>2014-01-18T08:21:01Z</time>
      </trkpt>
      <trkpt lat="43.57858" lon="2.91443">
        <ele>687</ele>
        <time>2014-01-18T08:21:02Z</time>
      </trkpt>
      <trkpt lat="43.57861" lon="2.91441">
        <ele>687</ele>
        <time>2014-01-18T08:21:05Z</time>
      </trkpt>
      <trkpt lat="43.57868" lon="2.91435">
        <ele>688</ele>
        <time>2014-01-18T08:21:12Z</time>
      </trkpt>
      <trkpt lat="43.57872" lon="2.91432">
        <ele>688</ele>
        <time>2014-01-18T08:21:16Z</time>
      </trkpt>
      <trkpt lat="43.57875" lon="2.9143">
        <ele>688</ele>
        <time>2014-01-18T08:21:19Z</time>
      </trkpt>
      <trkpt lat="43.5788" lon="2.91427">
        <ele>689</ele>
        <time>2014-01-18T08:21:24Z</time>
      </trkpt>
      <trkpt lat="43.57881" lon="2.91426">
        <ele>689</ele>
        <time>2014-01-18T08:21:25Z</time>
      </trkpt>
      <trkpt lat="43.57884" lon="2.91423">
        <ele>690</ele>
        <time>2014-01-18T08:21:29Z</time>
      </trkpt>
      <trkpt lat="43.57887" lon="2.91422">
        <ele>690</ele>
        <time>2014-01-18T08:21:32Z</time>
      </trkpt>
      <trkpt lat="43.57887" lon="2.91422">
        <ele>690</ele>
        <time>2014-01-18T08:21:33Z</time>
      </trkpt>
      <trkpt lat="43.57887" lon="2.91421">
        <ele>690</ele>
        <time>2014-01-18T08:21:34Z</time>
      </trkpt>
      <trkpt lat="43.5789" lon="2.91418">
        <ele>691</ele>
        <time>2014-01-18T08:21:38Z</time>
      </trkpt>
      <trkpt lat="43.57891" lon="2.91418">
        <ele>691</ele>
        <time>2014-01-18T08:21:39Z</time>
      </trkpt>
      <trkpt lat="43.57892" lon="2.91418">
        <ele>691</ele>
        <time>2014-01-18T08:21:40Z</time>
      </trkpt>
      <trkpt lat="43.57893" lon="2.91418">
        <ele>691</ele>
        <time>2014-01-18T08:21:41Z</time>
      </trkpt>
      <trkpt lat="43.57893" lon="2.91417">
        <ele>691</ele>
        <time>2014-01-18T08:21:42Z</time>
      </trkpt>
      <trkpt lat="43.57894" lon="2.91416">
        <ele>700</ele>
        <time>2014-01-18T08:21:43Z</time>
      </trkpt>
      <trkpt lat="43.57895" lon="2.91415">
        <ele>700</ele>
        <time>2014-01-18T08:21:44Z</time>
      </trkpt>
      <trkpt lat="43.57896" lon="2.91414">
        <ele>700</ele>
        <time>2014-01-18T08:21:45Z</time>
      </trkpt>
      <trkpt lat="43.57897" lon="2.91414">
        <ele>700</ele>
        <time>2014-01-18T08:21:46Z</time>
      </trkpt>
      <trkpt lat="43.57901" lon="2.9141">
        <ele>700</ele>
        <time>2014-01-18T08:21:52Z</time>
      </trkpt>
      <trkpt lat="43.57902" lon="2.91409">
        <ele>700</ele>
        <time>2014-01-18T08:21:53Z</time>
      </trkpt>
      <trkpt lat="43.57902" lon="2.91408">
        <ele>700</ele>
        <time>2014-01-18T08:21:54Z</time>
      </trkpt>
      <trkpt lat="43.57903" lon="2.91407">
        <ele>700</ele>
        <time>2014-01-18T08:21:55Z</time>
      </trkpt>
      <trkpt lat="43.57904" lon="2.91406">
        <ele>701</ele>
        <time>2014-01-18T08:21:56Z</time>
      </trkpt>
      <trkpt lat="43.57904" lon="2.91405">
        <ele>701</ele>
        <time>2014-01-18T08:21:57Z</time>
      </trkpt>
      <trkpt lat="43.57905" lon="2.91404">
        <ele>701</ele>
        <time>2014-01-18T08:21:59Z</time>
      </trkpt>
      <trkpt lat="43.57911" lon="2.91401">
        <ele>701</ele>
        <time>2014-01-18T08:22:06Z</time>
      </trkpt>
      <trkpt lat="43.57911" lon="2.914">
        <ele>701</ele>
        <time>2014-01-18T08:22:07Z</time>
      </trkpt>
      <trkpt lat="43.57912" lon="2.91399">
        <ele>701</ele>
        <time>2014-01-18T08:22:08Z</time>
      </trkpt>
      <trkpt lat="43.57913" lon="2.91399">
        <ele>701</ele>
        <time>2014-01-18T08:22:09Z</time>
      </trkpt>
      <trkpt lat="43.57913" lon="2.91398">
        <ele>701</ele>
        <time>2014-01-18T08:22:10Z</time>
      </trkpt>
      <trkpt lat="43.57915" lon="2.91396">
        <ele>701</ele>
        <time>2014-01-18T08:22:14Z</time>
      </trkpt>
      <trkpt lat="43.57916" lon="2.91394">
        <ele>702</ele>
        <time>2014-01-18T08:22:18Z</time>
      </trkpt>
      <trkpt lat="43.57917" lon="2.91393">
        <ele>711</ele>
        <time>2014-01-18T08:22:19Z</time>
      </trkpt>
      <trkpt lat="43.57918" lon="2.91392">
        <ele>711</ele>
        <time>2014-01-18T08:22:20Z</time>
      </trkpt>
      <trkpt lat="43.57919" lon="2.91392">
        <ele>711</ele>
        <time>2014-01-18T08:22:21Z</time>
      </trkpt>
      <trkpt lat="43.57919" lon="2.91391">
        <ele>711</ele>
        <time>2014-01-18T08:22:22Z</time>
      </trkpt>
      <trkpt lat="43.5792" lon="2.91391">
        <ele>711</ele>
        <time>2014-01-18T08:22:23Z</time>
      </trkpt>
      <trkpt lat="43.57923" lon="2.9139">
        <ele>712</ele>
        <time>2014-01-18T08:22:27Z</time>
      </trkpt>
      <trkpt lat="43.57923" lon="2.91389">
        <ele>712</ele>
        <time>2014-01-18T08:22:28Z</time>
      </trkpt>
      <trkpt lat="43.57923" lon="2.91389">
        <ele>712</ele>
        <time>2014-01-18T08:22:29Z</time>
      </trkpt>
      <trkpt lat="43.57924" lon="2.91389">
        <ele>712</ele>
        <time>2014-01-18T08:22:30Z</time>
      </trkpt>
      <trkpt lat="43.57925" lon="2.91388">
        <ele>713</ele>
        <time>2014-01-18T08:22:31Z</time>
      </trkpt>
      <trkpt lat="43.57925" lon="2.91388">
        <ele>713</ele>
        <time>2014-01-18T08:22:32Z</time>
      </trkpt>
      <trkpt lat="43.57928" lon="2.91385">
        <ele>713</ele>
        <time>2014-01-18T08:22:36Z</time>
      </trkpt>
      <trkpt lat="43.57929" lon="2.91385">
        <ele>714</ele>
        <time>2014-01-18T08:22:37Z</time>
      </trkpt>
      <trkpt lat="43.5793" lon="2.91385">
        <ele>714</ele>
        <time>2014-01-18T08:22:38Z</time>
      </trkpt>
      <trkpt lat="43.5793" lon="2.91384">
        <ele>714</ele>
        <time>2014-01-18T08:22:39Z</time>
      </trkpt>
      <trkpt lat="43.57931" lon="2.91384">
        <ele>714</ele>
        <time>2014-01-18T08:22:40Z</time>
      </trkpt>
      <trkpt lat="43.57932" lon="2.91382">
        <ele>714</ele>
        <time>2014-01-18T08:22:43Z</time>
      </trkpt>
      <trkpt lat="43.57936" lon="2.91377">
        <ele>716</ele>
        <time>2014-01-18T08:22:50Z</time>
      </trkpt>
      <trkpt lat="43.57937" lon="2.91376">
        <ele>716</ele>
        <time>2014-01-18T08:22:52Z</time>
      </trkpt>
      <trkpt lat="43.57938" lon="2.91376">
        <ele>716</ele>
        <time>2014-01-18T08:22:53Z</time>
      </trkpt>
      <trkpt lat="43.57937" lon="2.91376">
        <ele>716</ele>
        <time>2014-01-18T08:22:54Z</time>
      </trkpt>
      <trkpt lat="43.57938" lon="2.91376">
        <ele>716</ele>
        <time>2014-01-18T08:22:55Z</time>
      </trkpt>
      <trkpt lat="43.57938" lon="2.91376">
        <ele>716</ele>
        <time>2014-01-18T08:22:56Z</time>
      </trkpt>
      <trkpt lat="43.57939" lon="2.91375">
        <ele>716</ele>
        <time>2014-01-18T08:22:57Z</time>
      </trkpt>
      <trkpt lat="43.57942" lon="2.91372">
        <ele>717</ele>
        <time>2014-01-18T08:23:01Z</time>
      </trkpt>
      <trkpt lat="43.57943" lon="2.91372">
        <ele>717</ele>
        <time>2014-01-18T08:23:03Z</time>
      </trkpt>
      <trkpt lat="43.57943" lon="2.91372">
        <ele>717</ele>
        <time>2014-01-18T08:23:04Z</time>
      </trkpt>
      <trkpt lat="43.57944" lon="2.91371">
        <ele>717</ele>
        <time>2014-01-18T08:23:05Z</time>
      </trkpt>
      <trkpt lat="43.57945" lon="2.91371">
        <ele>717</ele>
        <time>2014-01-18T08:23:06Z</time>
      </trkpt>
      <trkpt lat="43.57945" lon="2.9137">
        <ele>717</ele>
        <time>2014-01-18T08:23:07Z</time>
      </trkpt>
      <trkpt lat="43.57947" lon="2.91369">
        <ele>718</ele>
        <time>2014-01-18T08:23:10Z</time>
      </trkpt>
      <trkpt lat="43.57947" lon="2.91368">
        <ele>718</ele>
        <time>2014-01-18T08:23:11Z</time>
      </trkpt>
      <trkpt lat="43.57948" lon="2.91369">
        <ele>718</ele>
        <time>2014-01-18T08:23:12Z</time>
      </trkpt>
      <trkpt lat="43.57948" lon="2.91368">
        <ele>718</ele>
        <time>2014-01-18T08:23:13Z</time>
      </trkpt>
      <trkpt lat="43.57949" lon="2.91368">
        <ele>718</ele>
        <time>2014-01-18T08:23:17Z</time>
      </trkpt>
      <trkpt lat="43.57949" lon="2.91368">
        <ele>718</ele>
        <time>2014-01-18T08:23:18Z</time>
      </trkpt>
      <trkpt lat="43.5795" lon="2.91367">
        <ele>718</ele>
        <time>2014-01-18T08:23:19Z</time>
      </trkpt>
      <trkpt lat="43.57952" lon="2.91365">
        <ele>718</ele>
        <time>2014-01-18T08:23:23Z</time>
      </trkpt>
      <trkpt lat="43.57953" lon="2.91365">
        <ele>719</ele>
        <time>2014-01-18T08:23:24Z</time>
      </trkpt>
      <trkpt lat="43.57954" lon="2.91365">
        <ele>719</ele>
        <time>2014-01-18T08:23:25Z</time>
      </trkpt>
      <trkpt lat="43.57955" lon="2.91364">
        <ele>719</ele>
        <time>2014-01-18T08:23:26Z</time>
      </trkpt>
      <trkpt lat="43.57955" lon="2.91365">
        <ele>719</ele>
        <time>2014-01-18T08:23:27Z</time>
      </trkpt>
      <trkpt lat="43.57957" lon="2.91361">
        <ele>719</ele>
        <time>2014-01-18T08:23:30Z</time>
      </trkpt>
      <trkpt lat="43.57957" lon="2.9136">
        <ele>719</ele>
        <time>2014-01-18T08:23:31Z</time>
      </trkpt>
      <trkpt lat="43.57957" lon="2.9136">
        <ele>719</ele>
        <time>2014-01-18T08:23:32Z</time>
      </trkpt>
      <trkpt lat="43.57958" lon="2.91359">
        <ele>720</ele>
        <time>2014-01-18T08:23:34Z</time>
      </trkpt>
      <trkpt lat="43.57958" lon="2.91359">
        <ele>720</ele>
        <time>2014-01-18T08:23:35Z</time>
      </trkpt>
      <trkpt lat="43.57959" lon="2.91358">
        <ele>720</ele>
        <time>2014-01-18T08:23:36Z</time>
      </trkpt>
      <trkpt lat="43.5796" lon="2.91358">
        <ele>720</ele>
        <time>2014-01-18T08:23:37Z</time>
      </trkpt>
      <trkpt lat="43.5796" lon="2.91358">
        <ele>720</ele>
        <time>2014-01-18T08:23:38Z</time>
      </trkpt>
      <trkpt lat="43.57963" lon="2.91354">
        <ele>721</ele>
        <time>2014-01-18T08:23:43Z</time>
      </trkpt>
      <trkpt lat="43.57963" lon="2.91354">
        <ele>721</ele>
        <time>2014-01-18T08:23:44Z</time>
      </trkpt>
      <trkpt lat="43.57963" lon="2.91354">
        <ele>721</ele>
        <time>2014-01-18T08:23:45Z</time>
      </trkpt>
      <trkpt lat="43.57964" lon="2.91354">
        <ele>721</ele>
        <time>2014-01-18T08:24:16Z</time>
      </trkpt>
      <trkpt lat="43.57965" lon="2.91354">
        <ele>721</ele>
        <time>2014-01-18T08:24:17Z</time>
      </trkpt>
      <trkpt lat="43.57967" lon="2.91354">
        <ele>721</ele>
        <time>2014-01-18T08:24:19Z</time>
      </trkpt>
      <trkpt lat="43.57973" lon="2.91355">
        <ele>722</ele>
        <time>2014-01-18T08:24:24Z</time>
      </trkpt>
      <trkpt lat="43.57974" lon="2.91355">
        <ele>722</ele>
        <time>2014-01-18T08:24:25Z</time>
      </trkpt>
      <trkpt lat="43.57975" lon="2.91356">
        <ele>722</ele>
        <time>2014-01-18T08:24:26Z</time>
      </trkpt>
      <trkpt lat="43.57976" lon="2.91357">
        <ele>722</ele>
        <time>2014-01-18T08:24:27Z</time>
      </trkpt>
      <trkpt lat="43.57977" lon="2.91357">
        <ele>722</ele>
        <time>2014-01-18T08:24:28Z</time>
      </trkpt>
      <trkpt lat="43.57978" lon="2.91357">
        <ele>723</ele>
        <time>2014-01-18T08:24:29Z</time>
      </trkpt>
      <trkpt lat="43.57981" lon="2.91358">
        <ele>723</ele>
        <time>2014-01-18T08:24:33Z</time>
      </trkpt>
      <trkpt lat="43.57983" lon="2.9136">
        <ele>723</ele>
        <time>2014-01-18T08:24:36Z</time>
      </trkpt>
      <trkpt lat="43.57984" lon="2.9136">
        <ele>723</ele>
        <time>2014-01-18T08:24:37Z</time>
      </trkpt>
      <trkpt lat="43.57985" lon="2.9136">
        <ele>723</ele>
        <time>2014-01-18T08:24:38Z</time>
      </trkpt>
      <trkpt lat="43.57986" lon="2.91361">
        <ele>723</ele>
        <time>2014-01-18T08:24:39Z</time>
      </trkpt>
      <trkpt lat="43.57986" lon="2.91361">
        <ele>723</ele>
        <time>2014-01-18T08:24:40Z</time>
      </trkpt>
      <trkpt lat="43.57988" lon="2.91362">
        <ele>723</ele>
        <time>2014-01-18T08:24:42Z</time>
      </trkpt>
      <trkpt lat="43.57991" lon="2.91364">
        <ele>723</ele>
        <time>2014-01-18T08:24:46Z</time>
      </trkpt>
      <trkpt lat="43.57996" lon="2.91366">
        <ele>723</ele>
        <time>2014-01-18T08:24:51Z</time>
      </trkpt>
      <trkpt lat="43.57997" lon="2.91367">
        <ele>723</ele>
        <time>2014-01-18T08:24:52Z</time>
      </trkpt>
      <trkpt lat="43.57997" lon="2.91367">
        <ele>723</ele>
        <time>2014-01-18T08:24:53Z</time>
      </trkpt>
      <trkpt lat="43.57998" lon="2.91368">
        <ele>722</ele>
        <time>2014-01-18T08:24:54Z</time>
      </trkpt>
      <trkpt lat="43.57999" lon="2.91368">
        <ele>722</ele>
        <time>2014-01-18T08:24:55Z</time>
      </trkpt>
      <trkpt lat="43.58001" lon="2.91368">
        <ele>734</ele>
        <time>2014-01-18T08:24:57Z</time>
      </trkpt>
      <trkpt lat="43.58002" lon="2.91368">
        <ele>734</ele>
        <time>2014-01-18T08:24:59Z</time>
      </trkpt>
      <trkpt lat="43.58006" lon="2.91369">
        <ele>734</ele>
        <time>2014-01-18T08:25:04Z</time>
      </trkpt>
      <trkpt lat="43.58007" lon="2.91369">
        <ele>734</ele>
        <time>2014-01-18T08:25:05Z</time>
      </trkpt>
      <trkpt lat="43.58008" lon="2.91369">
        <ele>734</ele>
        <time>2014-01-18T08:25:06Z</time>
      </trkpt>
      <trkpt lat="43.58008" lon="2.91368">
        <ele>734</ele>
        <time>2014-01-18T08:25:07Z</time>
      </trkpt>
      <trkpt lat="43.58009" lon="2.91368">
        <ele>734</ele>
        <time>2014-01-18T08:25:08Z</time>
      </trkpt>
      <trkpt lat="43.5801" lon="2.91363">
        <ele>735</ele>
        <time>2014-01-18T08:25:12Z</time>
      </trkpt>
      <trkpt lat="43.58012" lon="2.91358">
        <ele>735</ele>
        <time>2014-01-18T08:25:16Z</time>
      </trkpt>
      <trkpt lat="43.58012" lon="2.91358">
        <ele>735</ele>
        <time>2014-01-18T08:25:17Z</time>
      </trkpt>
      <trkpt lat="43.58011" lon="2.91357">
        <ele>735</ele>
        <time>2014-01-18T08:25:18Z</time>
      </trkpt>
      <trkpt lat="43.5801" lon="2.91356">
        <ele>735</ele>
        <time>2014-01-18T08:25:19Z</time>
      </trkpt>
      <trkpt lat="43.5801" lon="2.91354">
        <ele>736</ele>
        <time>2014-01-18T08:25:20Z</time>
      </trkpt>
      <trkpt lat="43.5801" lon="2.91354">
        <ele>736</ele>
        <time>2014-01-18T08:25:21Z</time>
      </trkpt>
      <trkpt lat="43.5801" lon="2.91353">
        <ele>736</ele>
        <time>2014-01-18T08:25:22Z</time>
      </trkpt>
      <trkpt lat="43.5801" lon="2.91351">
        <ele>736</ele>
        <time>2014-01-18T08:25:23Z</time>
      </trkpt>
      <trkpt lat="43.58008" lon="2.91349">
        <ele>736</ele>
        <time>2014-01-18T08:25:26Z</time>
      </trkpt>
      <trkpt lat="43.58008" lon="2.91348">
        <ele>736</ele>
        <time>2014-01-18T08:25:27Z</time>
      </trkpt>
      <trkpt lat="43.58007" lon="2.91347">
        <ele>736</ele>
        <time>2014-01-18T08:25:28Z</time>
      </trkpt>
      <trkpt lat="43.58006" lon="2.91345">
        <ele>736</ele>
        <time>2014-01-18T08:25:29Z</time>
      </trkpt>
      <trkpt lat="43.58005" lon="2.91345">
        <ele>736</ele>
        <time>2014-01-18T08:25:30Z</time>
      </trkpt>
      <trkpt lat="43.58005" lon="2.91342">
        <ele>736</ele>
        <time>2014-01-18T08:25:32Z</time>
      </trkpt>
      <trkpt lat="43.58004" lon="2.9134">
        <ele>735</ele>
        <time>2014-01-18T08:25:34Z</time>
      </trkpt>
      <trkpt lat="43.58001" lon="2.91336">
        <ele>735</ele>
        <time>2014-01-18T08:25:39Z</time>
      </trkpt>
      <trkpt lat="43.58001" lon="2.91335">
        <ele>735</ele>
        <time>2014-01-18T08:25:40Z</time>
      </trkpt>
      <trkpt lat="43.58" lon="2.91334">
        <ele>735</ele>
        <time>2014-01-18T08:25:41Z</time>
      </trkpt>
      <trkpt lat="43.57999" lon="2.91333">
        <ele>735</ele>
        <time>2014-01-18T08:25:42Z</time>
      </trkpt>
      <trkpt lat="43.57998" lon="2.91332">
        <ele>735</ele>
        <time>2014-01-18T08:25:43Z</time>
      </trkpt>
      <trkpt lat="43.57995" lon="2.91328">
        <ele>734</ele>
        <time>2014-01-18T08:25:47Z</time>
      </trkpt>
      <trkpt lat="43.57991" lon="2.91323">
        <ele>733</ele>
        <time>2014-01-18T08:25:53Z</time>
      </trkpt>
      <trkpt lat="43.57986" lon="2.91316">
        <ele>732</ele>
        <time>2014-01-18T08:26:00Z</time>
      </trkpt>
      <trkpt lat="43.57985" lon="2.91315">
        <ele>732</ele>
        <time>2014-01-18T08:26:01Z</time>
      </trkpt>
      <trkpt lat="43.57984" lon="2.91313">
        <ele>732</ele>
        <time>2014-01-18T08:26:03Z</time>
      </trkpt>
      <trkpt lat="43.57983" lon="2.9131">
        <ele>732</ele>
        <time>2014-01-18T08:26:06Z</time>
      </trkpt>
      <trkpt lat="43.57982" lon="2.91308">
        <ele>732</ele>
        <time>2014-01-18T08:26:08Z</time>
      </trkpt>
      <trkpt lat="43.57981" lon="2.91307">
        <ele>732</ele>
        <time>2014-01-18T08:26:09Z</time>
      </trkpt>
      <trkpt lat="43.5798" lon="2.91306">
        <ele>732</ele>
        <time>2014-01-18T08:26:10Z</time>
      </trkpt>
      <trkpt lat="43.5798" lon="2.91305">
        <ele>732</ele>
        <time>2014-01-18T08:26:11Z</time>
      </trkpt>
      <trkpt lat="43.5798" lon="2.91304">
        <ele>732</ele>
        <time>2014-01-18T08:26:12Z</time>
      </trkpt>
      <trkpt lat="43.57979" lon="2.91302">
        <ele>732</ele>
        <time>2014-01-18T08:26:14Z</time>
      </trkpt>
      <trkpt lat="43.57976" lon="2.91298">
        <ele>732</ele>
        <time>2014-01-18T08:26:19Z</time>
      </trkpt>
      <trkpt lat="43.57976" lon="2.91296">
        <ele>732</ele>
        <time>2014-01-18T08:26:20Z</time>
      </trkpt>
      <trkpt lat="43.57976" lon="2.91295">
        <ele>732</ele>
        <time>2014-01-18T08:26:21Z</time>
      </trkpt>
      <trkpt lat="43.57975" lon="2.91294">
        <ele>732</ele>
        <time>2014-01-18T08:26:22Z</time>
      </trkpt>
      <trkpt lat="43.57975" lon="2.91293">
        <ele>732</ele>
        <time>2014-01-18T08:26:23Z</time>
      </trkpt>
      <trkpt lat="43.57974" lon="2.91288">
        <ele>732</ele>
        <time>2014-01-18T08:26:28Z</time>
      </trkpt>
      <trkpt lat="43.57973" lon="2.91287">
        <ele>732</ele>
        <time>2014-01-18T08:26:29Z</time>
      </trkpt>
      <trkpt lat="43.57973" lon="2.91286">
        <ele>732</ele>
        <time>2014-01-18T08:26:30Z</time>
      </trkpt>
      <trkpt lat="43.57973" lon="2.91285">
        <ele>732</ele>
        <time>2014-01-18T08:26:31Z</time>
      </trkpt>
      <trkpt lat="43.57973" lon="2.91283">
        <ele>732</ele>
        <time>2014-01-18T08:26:32Z</time>
      </trkpt>
      <trkpt lat="43.57973" lon="2.91279">
        <ele>732</ele>
        <time>2014-01-18T08:26:36Z</time>
      </trkpt>
      <trkpt lat="43.57973" lon="2.91277">
        <ele>733</ele>
        <time>2014-01-18T08:26:38Z</time>
      </trkpt>
      <trkpt lat="43.57973" lon="2.91275">
        <ele>733</ele>
        <time>2014-01-18T08:26:39Z</time>
      </trkpt>
      <trkpt lat="43.57973" lon="2.91275">
        <ele>733</ele>
        <time>2014-01-18T08:26:40Z</time>
      </trkpt>
      <trkpt lat="43.57974" lon="2.91274">
        <ele>733</ele>
        <time>2014-01-18T08:26:41Z</time>
      </trkpt>
      <trkpt lat="43.57975" lon="2.91273">
        <ele>733</ele>
        <time>2014-01-18T08:26:42Z</time>
      </trkpt>
      <trkpt lat="43.5798" lon="2.91269">
        <ele>734</ele>
        <time>2014-01-18T08:26:50Z</time>
      </trkpt>
      <trkpt lat="43.5798" lon="2.91268">
        <ele>735</ele>
        <time>2014-01-18T08:26:51Z</time>
      </trkpt>
      <trkpt lat="43.57981" lon="2.91268">
        <ele>735</ele>
        <time>2014-01-18T08:26:52Z</time>
      </trkpt>
      <trkpt lat="43.57982" lon="2.91267">
        <ele>735</ele>
        <time>2014-01-18T08:26:53Z</time>
      </trkpt>
      <trkpt lat="43.57982" lon="2.91267">
        <ele>735</ele>
        <time>2014-01-18T08:26:54Z</time>
      </trkpt>
      <trkpt lat="43.57982" lon="2.91267">
        <ele>735</ele>
        <time>2014-01-18T08:26:55Z</time>
      </trkpt>
      <trkpt lat="43.57983" lon="2.91266">
        <ele>735</ele>
        <time>2014-01-18T08:26:57Z</time>
      </trkpt>
      <trkpt lat="43.57988" lon="2.91263">
        <ele>737</ele>
        <time>2014-01-18T08:27:05Z</time>
      </trkpt>
      <trkpt lat="43.57988" lon="2.91263">
        <ele>737</ele>
        <time>2014-01-18T08:27:06Z</time>
      </trkpt>
      <trkpt lat="43.57989" lon="2.91262">
        <ele>737</ele>
        <time>2014-01-18T08:27:07Z</time>
      </trkpt>
      <trkpt lat="43.5799" lon="2.91261">
        <ele>738</ele>
        <time>2014-01-18T08:27:09Z</time>
      </trkpt>
      <trkpt lat="43.57991" lon="2.91261">
        <ele>738</ele>
        <time>2014-01-18T08:27:10Z</time>
      </trkpt>
      <trkpt lat="43.57991" lon="2.91261">
        <ele>738</ele>
        <time>2014-01-18T08:27:11Z</time>
      </trkpt>
      <trkpt lat="43.57992" lon="2.91261">
        <ele>739</ele>
        <time>2014-01-18T08:27:12Z</time>
      </trkpt>
      <trkpt lat="43.57993" lon="2.9126">
        <ele>739</ele>
        <time>2014-01-18T08:27:14Z</time>
      </trkpt>
      <trkpt lat="43.57996" lon="2.91258">
        <ele>740</ele>
        <time>2014-01-18T08:27:18Z</time>
      </trkpt>
      <trkpt lat="43.57999" lon="2.91256">
        <ele>742</ele>
        <time>2014-01-18T08:27:23Z</time>
      </trkpt>
      <trkpt lat="43.58" lon="2.91256">
        <ele>742</ele>
        <time>2014-01-18T08:27:24Z</time>
      </trkpt>
      <trkpt lat="43.58001" lon="2.91256">
        <ele>746</ele>
        <time>2014-01-18T08:27:25Z</time>
      </trkpt>
      <trkpt lat="43.58001" lon="2.91256">
        <ele>746</ele>
        <time>2014-01-18T08:27:26Z</time>
      </trkpt>
      <trkpt lat="43.58002" lon="2.91255">
        <ele>746</ele>
        <time>2014-01-18T08:27:27Z</time>
      </trkpt>
      <trkpt lat="43.58002" lon="2.91256">
        <ele>746</ele>
        <time>2014-01-18T08:27:28Z</time>
      </trkpt>
      <trkpt lat="43.58004" lon="2.91255">
        <ele>746</ele>
        <time>2014-01-18T08:27:29Z</time>
      </trkpt>
      <trkpt lat="43.58006" lon="2.91254">
        <ele>746</ele>
        <time>2014-01-18T08:27:32Z</time>
      </trkpt>
      <trkpt lat="43.58007" lon="2.91254">
        <ele>747</ele>
        <time>2014-01-18T08:27:33Z</time>
      </trkpt>
      <trkpt lat="43.58008" lon="2.91254">
        <ele>747</ele>
        <time>2014-01-18T08:27:34Z</time>
      </trkpt>
      <trkpt lat="43.58009" lon="2.91254">
        <ele>747</ele>
        <time>2014-01-18T08:27:35Z</time>
      </trkpt>
      <trkpt lat="43.5801" lon="2.91254">
        <ele>747</ele>
        <time>2014-01-18T08:27:36Z</time>
      </trkpt>
      <trkpt lat="43.58011" lon="2.91253">
        <ele>747</ele>
        <time>2014-01-18T08:27:37Z</time>
      </trkpt>
      <trkpt lat="43.58013" lon="2.91253">
        <ele>747</ele>
        <time>2014-01-18T08:27:40Z</time>
      </trkpt>
      <trkpt lat="43.58015" lon="2.91252">
        <ele>748</ele>
        <time>2014-01-18T08:27:45Z</time>
      </trkpt>
      <trkpt lat="43.58015" lon="2.91252">
        <ele>748</ele>
        <time>2014-01-18T08:29:33Z</time>
      </trkpt>
      <trkpt lat="43.58015" lon="2.91252">
        <ele>748</ele>
        <time>2014-01-18T08:29:34Z</time>
      </trkpt>
      <trkpt lat="43.58015" lon="2.91252">
        <ele>748</ele>
        <time>2014-01-18T08:30:50Z</time>
      </trkpt>
      <trkpt lat="43.58016" lon="2.91252">
        <ele>748</ele>
        <time>2014-01-18T08:30:53Z</time>
      </trkpt>
      <trkpt lat="43.58017" lon="2.91251">
        <ele>748</ele>
        <time>2014-01-18T08:30:54Z</time>
      </trkpt>
      <trkpt lat="43.58021" lon="2.91249">
        <ele>749</ele>
        <time>2014-01-18T08:30:58Z</time>
      </trkpt>
      <trkpt lat="43.58025" lon="2.91248">
        <ele>750</ele>
        <time>2014-01-18T08:31:02Z</time>
      </trkpt>
      <trkpt lat="43.58026" lon="2.91247">
        <ele>750</ele>
        <time>2014-01-18T08:31:03Z</time>
      </trkpt>
      <trkpt lat="43.58028" lon="2.91246">
        <ele>751</ele>
        <time>2014-01-18T08:31:05Z</time>
      </trkpt>
      <trkpt lat="43.5803" lon="2.91246">
        <ele>751</ele>
        <time>2014-01-18T08:31:07Z</time>
      </trkpt>
      <trkpt lat="43.58031" lon="2.91246">
        <ele>751</ele>
        <time>2014-01-18T08:31:08Z</time>
      </trkpt>
      <trkpt lat="43.58032" lon="2.91246">
        <ele>751</ele>
        <time>2014-01-18T08:31:09Z</time>
      </trkpt>
      <trkpt lat="43.58032" lon="2.91246">
        <ele>751</ele>
        <time>2014-01-18T08:31:10Z</time>
      </trkpt>
      <trkpt lat="43.58033" lon="2.91246">
        <ele>752</ele>
        <time>2014-01-18T08:31:11Z</time>
      </trkpt>
      <trkpt lat="43.58034" lon="2.91246">
        <ele>752</ele>
        <time>2014-01-18T08:31:12Z</time>
      </trkpt>
      <trkpt lat="43.58039" lon="2.91246">
        <ele>753</ele>
        <time>2014-01-18T08:31:17Z</time>
      </trkpt>
      <trkpt lat="43.5804" lon="2.91246">
        <ele>753</ele>
        <time>2014-01-18T08:31:18Z</time>
      </trkpt>
      <trkpt lat="43.58041" lon="2.91246">
        <ele>753</ele>
        <time>2014-01-18T08:31:19Z</time>
      </trkpt>
      <trkpt lat="43.58042" lon="2.91246">
        <ele>753</ele>
        <time>2014-01-18T08:31:20Z</time>
      </trkpt>
      <trkpt lat="43.58043" lon="2.91246">
        <ele>753</ele>
        <time>2014-01-18T08:31:21Z</time>
      </trkpt>
      <trkpt lat="43.58046" lon="2.91247">
        <ele>754</ele>
        <time>2014-01-18T08:31:25Z</time>
      </trkpt>
      <trkpt lat="43.58048" lon="2.91247">
        <ele>754</ele>
        <time>2014-01-18T08:31:27Z</time>
      </trkpt>
      <trkpt lat="43.58049" lon="2.91246">
        <ele>755</ele>
        <time>2014-01-18T08:31:28Z</time>
      </trkpt>
      <trkpt lat="43.5805" lon="2.91246">
        <ele>755</ele>
        <time>2014-01-18T08:31:29Z</time>
      </trkpt>
      <trkpt lat="43.5805" lon="2.91246">
        <ele>755</ele>
        <time>2014-01-18T08:31:30Z</time>
      </trkpt>
      <trkpt lat="43.58051" lon="2.91246">
        <ele>755</ele>
        <time>2014-01-18T08:31:31Z</time>
      </trkpt>
      <trkpt lat="43.58055" lon="2.91246">
        <ele>756</ele>
        <time>2014-01-18T08:31:37Z</time>
      </trkpt>
      <trkpt lat="43.58056" lon="2.91247">
        <ele>756</ele>
        <time>2014-01-18T08:31:38Z</time>
      </trkpt>
      <trkpt lat="43.58057" lon="2.91247">
        <ele>756</ele>
        <time>2014-01-18T08:31:39Z</time>
      </trkpt>
      <trkpt lat="43.58057" lon="2.91247">
        <ele>757</ele>
        <time>2014-01-18T08:31:40Z</time>
      </trkpt>
      <trkpt lat="43.58058" lon="2.91247">
        <ele>757</ele>
        <time>2014-01-18T08:31:41Z</time>
      </trkpt>
      <trkpt lat="43.58059" lon="2.91247">
        <ele>757</ele>
        <time>2014-01-18T08:31:42Z</time>
      </trkpt>
      <trkpt lat="43.58063" lon="2.91248">
        <ele>758</ele>
        <time>2014-01-18T08:31:48Z</time>
      </trkpt>
      <trkpt lat="43.58064" lon="2.91249">
        <ele>759</ele>
        <time>2014-01-18T08:31:49Z</time>
      </trkpt>
      <trkpt lat="43.58065" lon="2.91249">
        <ele>759</ele>
        <time>2014-01-18T08:31:50Z</time>
      </trkpt>
      <trkpt lat="43.58066" lon="2.91249">
        <ele>759</ele>
        <time>2014-01-18T08:31:51Z</time>
      </trkpt>
      <trkpt lat="43.58067" lon="2.91249">
        <ele>760</ele>
        <time>2014-01-18T08:31:52Z</time>
      </trkpt>
      <trkpt lat="43.58068" lon="2.91249">
        <ele>760</ele>
        <time>2014-01-18T08:31:53Z</time>
      </trkpt>
      <trkpt lat="43.58071" lon="2.91249">
        <ele>761</ele>
        <time>2014-01-18T08:31:56Z</time>
      </trkpt>
      <trkpt lat="43.58075" lon="2.91249">
        <ele>763</ele>
        <time>2014-01-18T08:32:01Z</time>
      </trkpt>
      <trkpt lat="43.58076" lon="2.91249">
        <ele>763</ele>
        <time>2014-01-18T08:32:02Z</time>
      </trkpt>
      <trkpt lat="43.58076" lon="2.91249">
        <ele>763</ele>
        <time>2014-01-18T08:32:03Z</time>
      </trkpt>
      <trkpt lat="43.58077" lon="2.91249">
        <ele>763</ele>
        <time>2014-01-18T08:32:04Z</time>
      </trkpt>
      <trkpt lat="43.58078" lon="2.91249">
        <ele>764</ele>
        <time>2014-01-18T08:32:05Z</time>
      </trkpt>
      <trkpt lat="43.58078" lon="2.91249">
        <ele>764</ele>
        <time>2014-01-18T08:32:06Z</time>
      </trkpt>
      <trkpt lat="43.58079" lon="2.91249">
        <ele>764</ele>
        <time>2014-01-18T08:32:07Z</time>
      </trkpt>
      <trkpt lat="43.58082" lon="2.91249">
        <ele>766</ele>
        <time>2014-01-18T08:32:10Z</time>
      </trkpt>
      <trkpt lat="43.58086" lon="2.91248">
        <ele>767</ele>
        <time>2014-01-18T08:32:15Z</time>
      </trkpt>
      <trkpt lat="43.58086" lon="2.91248">
        <ele>767</ele>
        <time>2014-01-18T08:32:16Z</time>
      </trkpt>
      <trkpt lat="43.58087" lon="2.91248">
        <ele>767</ele>
        <time>2014-01-18T08:32:17Z</time>
      </trkpt>
      <trkpt lat="43.58088" lon="2.91248">
        <ele>767</ele>
        <time>2014-01-18T08:32:18Z</time>
      </trkpt>
      <trkpt lat="43.58089" lon="2.91248">
        <ele>767</ele>
        <time>2014-01-18T08:32:19Z</time>
      </trkpt>
      <trkpt lat="43.58093" lon="2.91247">
        <ele>768</ele>
        <time>2014-01-18T08:32:25Z</time>
      </trkpt>
      <trkpt lat="43.58094" lon="2.91246">
        <ele>768</ele>
        <time>2014-01-18T08:32:26Z</time>
      </trkpt>
      <trkpt lat="43.58097" lon="2.91245">
        <ele>768</ele>
        <time>2014-01-18T08:32:29Z</time>
      </trkpt>
      <trkpt lat="43.58098" lon="2.91245">
        <ele>768</ele>
        <time>2014-01-18T08:32:30Z</time>
      </trkpt>
      <trkpt lat="43.58099" lon="2.91245">
        <ele>768</ele>
        <time>2014-01-18T08:32:31Z</time>
      </trkpt>
      <trkpt lat="43.581" lon="2.91244">
        <ele>768</ele>
        <time>2014-01-18T08:32:32Z</time>
      </trkpt>
      <trkpt lat="43.581" lon="2.91244">
        <ele>768</ele>
        <time>2014-01-18T08:32:33Z</time>
      </trkpt>
      <trkpt lat="43.58101" lon="2.91244">
        <ele>768</ele>
        <time>2014-01-18T08:32:34Z</time>
      </trkpt>
      <trkpt lat="43.58103" lon="2.91243">
        <ele>768</ele>
        <time>2014-01-18T08:32:36Z</time>
      </trkpt>
      <trkpt lat="43.58106" lon="2.91242">
        <ele>768</ele>
        <time>2014-01-18T08:32:39Z</time>
      </trkpt>
      <trkpt lat="43.5811" lon="2.91241">
        <ele>769</ele>
        <time>2014-01-18T08:32:45Z</time>
      </trkpt>
      <trkpt lat="43.58111" lon="2.9124">
        <ele>769</ele>
        <time>2014-01-18T08:32:46Z</time>
      </trkpt>
      <trkpt lat="43.58112" lon="2.9124">
        <ele>769</ele>
        <time>2014-01-18T08:32:47Z</time>
      </trkpt>
      <trkpt lat="43.58113" lon="2.9124">
        <ele>769</ele>
        <time>2014-01-18T08:32:48Z</time>
      </trkpt>
      <trkpt lat="43.58114" lon="2.91241">
        <ele>769</ele>
        <time>2014-01-18T08:32:49Z</time>
      </trkpt>
      <trkpt lat="43.58114" lon="2.9124">
        <ele>769</ele>
        <time>2014-01-18T08:32:50Z</time>
      </trkpt>
      <trkpt lat="43.58116" lon="2.91241">
        <ele>769</ele>
        <time>2014-01-18T08:32:52Z</time>
      </trkpt>
      <trkpt lat="43.5812" lon="2.91242">
        <ele>770</ele>
        <time>2014-01-18T08:32:57Z</time>
      </trkpt>
      <trkpt lat="43.58121" lon="2.91242">
        <ele>770</ele>
        <time>2014-01-18T08:32:58Z</time>
      </trkpt>
      <trkpt lat="43.58122" lon="2.91243">
        <ele>770</ele>
        <time>2014-01-18T08:32:59Z</time>
      </trkpt>
      <trkpt lat="43.58123" lon="2.91244">
        <ele>770</ele>
        <time>2014-01-18T08:33:00Z</time>
      </trkpt>
      <trkpt lat="43.58124" lon="2.91244">
        <ele>770</ele>
        <time>2014-01-18T08:33:01Z</time>
      </trkpt>
      <trkpt lat="43.58128" lon="2.91246">
        <ele>771</ele>
        <time>2014-01-18T08:33:07Z</time>
      </trkpt>
      <trkpt lat="43.5813" lon="2.91247">
        <ele>771</ele>
        <time>2014-01-18T08:33:09Z</time>
      </trkpt>
      <trkpt lat="43.5813" lon="2.91247">
        <ele>771</ele>
        <time>2014-01-18T08:33:10Z</time>
      </trkpt>
      <trkpt lat="43.58131" lon="2.91247">
        <ele>771</ele>
        <time>2014-01-18T08:33:11Z</time>
      </trkpt>
      <trkpt lat="43.58132" lon="2.91248">
        <ele>771</ele>
        <time>2014-01-18T08:33:12Z</time>
      </trkpt>
      <trkpt lat="43.58134" lon="2.91249">
        <ele>771</ele>
        <time>2014-01-18T08:33:14Z</time>
      </trkpt>
      <trkpt lat="43.58138" lon="2.91251">
        <ele>771</ele>
        <time>2014-01-18T08:33:19Z</time>
      </trkpt>
      <trkpt lat="43.58138" lon="2.91252">
        <ele>771</ele>
        <time>2014-01-18T08:33:20Z</time>
      </trkpt>
      <trkpt lat="43.58139" lon="2.91252">
        <ele>771</ele>
        <time>2014-01-18T08:33:21Z</time>
      </trkpt>
      <trkpt lat="43.5814" lon="2.91253">
        <ele>771</ele>
        <time>2014-01-18T08:33:22Z</time>
      </trkpt>
      <trkpt lat="43.58141" lon="2.91253">
        <ele>772</ele>
        <time>2014-01-18T08:33:23Z</time>
      </trkpt>
      <trkpt lat="43.58142" lon="2.91253">
        <ele>772</ele>
        <time>2014-01-18T08:33:24Z</time>
      </trkpt>
      <trkpt lat="43.58146" lon="2.91256">
        <ele>772</ele>
        <time>2014-01-18T08:33:29Z</time>
      </trkpt>
      <trkpt lat="43.58147" lon="2.91258">
        <ele>772</ele>
        <time>2014-01-18T08:33:32Z</time>
      </trkpt>
      <trkpt lat="43.58148" lon="2.91258">
        <ele>773</ele>
        <time>2014-01-18T08:33:33Z</time>
      </trkpt>
      <trkpt lat="43.5815" lon="2.91259">
        <ele>773</ele>
        <time>2014-01-18T08:33:35Z</time>
      </trkpt>
      <trkpt lat="43.58152" lon="2.9126">
        <ele>773</ele>
        <time>2014-01-18T08:33:37Z</time>
      </trkpt>
      <trkpt lat="43.58152" lon="2.9126">
        <ele>773</ele>
        <time>2014-01-18T08:33:38Z</time>
      </trkpt>
      <trkpt lat="43.58153" lon="2.91261">
        <ele>773</ele>
        <time>2014-01-18T08:33:39Z</time>
      </trkpt>
      <trkpt lat="43.58154" lon="2.91261">
        <ele>773</ele>
        <time>2014-01-18T08:33:40Z</time>
      </trkpt>
      <trkpt lat="43.58154" lon="2.91262">
        <ele>773</ele>
        <time>2014-01-18T08:33:41Z</time>
      </trkpt>
      <trkpt lat="43.58155" lon="2.91264">
        <ele>773</ele>
        <time>2014-01-18T08:33:44Z</time>
      </trkpt>
      <trkpt lat="43.58155" lon="2.91264">
        <ele>773</ele>
        <time>2014-01-18T08:33:45Z</time>
      </trkpt>
      <trkpt lat="43.58156" lon="2.91265">
        <ele>773</ele>
        <time>2014-01-18T08:33:46Z</time>
      </trkpt>
      <trkpt lat="43.58156" lon="2.91265">
        <ele>773</ele>
        <time>2014-01-18T08:33:47Z</time>
      </trkpt>
      <trkpt lat="43.58155" lon="2.91265">
        <ele>773</ele>
        <time>2014-01-18T08:33:48Z</time>
      </trkpt>
      <trkpt lat="43.58155" lon="2.91265">
        <ele>773</ele>
        <time>2014-01-18T08:33:49Z</time>
      </trkpt>
      <trkpt lat="43.58155" lon="2.91265">
        <ele>773</ele>
        <time>2014-01-18T08:33:50Z</time>
      </trkpt>
      <trkpt lat="43.58155" lon="2.91265">
        <ele>773</ele>
        <time>2014-01-18T08:35:53Z</time>
      </trkpt>
      <trkpt lat="43.58155" lon="2.91265">
        <ele>773</ele>
        <time>2014-01-18T08:35:54Z</time>
      </trkpt>
      <trkpt lat="43.58155" lon="2.91265">
        <ele>773</ele>
        <time>2014-01-18T08:35:56Z</time>
      </trkpt>
      <trkpt lat="43.58156" lon="2.91264">
        <ele>773</ele>
        <time>2014-01-18T08:35:57Z</time>
      </trkpt>
      <trkpt lat="43.58162" lon="2.91266">
        <ele>774</ele>
        <time>2014-01-18T08:36:04Z</time>
      </trkpt>
      <trkpt lat="43.58168" lon="2.91266">
        <ele>779</ele>
        <time>2014-01-18T08:36:10Z</time>
      </trkpt>
      <trkpt lat="43.58169" lon="2.91265">
        <ele>779</ele>
        <time>2014-01-18T08:36:11Z</time>
      </trkpt>
      <trkpt lat="43.5817" lon="2.91265">
        <ele>779</ele>
        <time>2014-01-18T08:36:12Z</time>
      </trkpt>
      <trkpt lat="43.58171" lon="2.91264">
        <ele>779</ele>
        <time>2014-01-18T08:36:13Z</time>
      </trkpt>
      <trkpt lat="43.58172" lon="2.91264">
        <ele>779</ele>
        <time>2014-01-18T08:36:14Z</time>
      </trkpt>
      <trkpt lat="43.58174" lon="2.91263">
        <ele>780</ele>
        <time>2014-01-18T08:36:17Z</time>
      </trkpt>
      <trkpt lat="43.58178" lon="2.9126">
        <ele>780</ele>
        <time>2014-01-18T08:36:22Z</time>
      </trkpt>
      <trkpt lat="43.58179" lon="2.9126">
        <ele>780</ele>
        <time>2014-01-18T08:36:24Z</time>
      </trkpt>
      <trkpt lat="43.5818" lon="2.9126">
        <ele>780</ele>
        <time>2014-01-18T08:36:25Z</time>
      </trkpt>
      <trkpt lat="43.58181" lon="2.9126">
        <ele>780</ele>
        <time>2014-01-18T08:36:26Z</time>
      </trkpt>
      <trkpt lat="43.58182" lon="2.9126">
        <ele>780</ele>
        <time>2014-01-18T08:36:27Z</time>
      </trkpt>
      <trkpt lat="43.58181" lon="2.9126">
        <ele>780</ele>
        <time>2014-01-18T08:36:28Z</time>
      </trkpt>
      <trkpt lat="43.58182" lon="2.9126">
        <ele>780</ele>
        <time>2014-01-18T08:36:29Z</time>
      </trkpt>
      <trkpt lat="43.58184" lon="2.91258">
        <ele>780</ele>
        <time>2014-01-18T08:36:31Z</time>
      </trkpt>
      <trkpt lat="43.58187" lon="2.91258">
        <ele>780</ele>
        <time>2014-01-18T08:36:35Z</time>
      </trkpt>
      <trkpt lat="43.58188" lon="2.91258">
        <ele>780</ele>
        <time>2014-01-18T08:36:36Z</time>
      </trkpt>
      <trkpt lat="43.58189" lon="2.91258">
        <ele>780</ele>
        <time>2014-01-18T08:36:37Z</time>
      </trkpt>
      <trkpt lat="43.5819" lon="2.91259">
        <ele>780</ele>
        <time>2014-01-18T08:36:38Z</time>
      </trkpt>
      <trkpt lat="43.58191" lon="2.91259">
        <ele>780</ele>
        <time>2014-01-18T08:36:39Z</time>
      </trkpt>
      <trkpt lat="43.58192" lon="2.91258">
        <ele>781</ele>
        <time>2014-01-18T08:36:40Z</time>
      </trkpt>
      <trkpt lat="43.58195" lon="2.91257">
        <ele>781</ele>
        <time>2014-01-18T08:36:43Z</time>
      </trkpt>
      <trkpt lat="43.58198" lon="2.91256">
        <ele>781</ele>
        <time>2014-01-18T08:36:47Z</time>
      </trkpt>
      <trkpt lat="43.58199" lon="2.91256">
        <ele>781</ele>
        <time>2014-01-18T08:36:48Z</time>
      </trkpt>
      <trkpt lat="43.582" lon="2.91256">
        <ele>781</ele>
        <time>2014-01-18T08:36:49Z</time>
      </trkpt>
      <trkpt lat="43.58201" lon="2.91256">
        <ele>781</ele>
        <time>2014-01-18T08:36:50Z</time>
      </trkpt>
      <trkpt lat="43.58202" lon="2.91255">
        <ele>782</ele>
        <time>2014-01-18T08:36:51Z</time>
      </trkpt>
      <trkpt lat="43.58211" lon="2.91255">
        <ele>783</ele>
        <time>2014-01-18T08:37:00Z</time>
      </trkpt>
      <trkpt lat="43.58211" lon="2.91255">
        <ele>783</ele>
        <time>2014-01-18T08:37:01Z</time>
      </trkpt>
      <trkpt lat="43.58212" lon="2.91255">
        <ele>783</ele>
        <time>2014-01-18T08:37:02Z</time>
      </trkpt>
      <trkpt lat="43.58213" lon="2.91255">
        <ele>783</ele>
        <time>2014-01-18T08:37:03Z</time>
      </trkpt>
      <trkpt lat="43.58214" lon="2.91254">
        <ele>783</ele>
        <time>2014-01-18T08:37:04Z</time>
      </trkpt>
      <trkpt lat="43.58215" lon="2.91254">
        <ele>783</ele>
        <time>2014-01-18T08:37:05Z</time>
      </trkpt>
      <trkpt lat="43.58217" lon="2.91253">
        <ele>784</ele>
        <time>2014-01-18T08:37:07Z</time>
      </trkpt>
      <trkpt lat="43.58223" lon="2.9125">
        <ele>786</ele>
        <time>2014-01-18T08:37:14Z</time>
      </trkpt>
      <trkpt lat="43.58224" lon="2.91249">
        <ele>786</ele>
        <time>2014-01-18T08:37:15Z</time>
      </trkpt>
      <trkpt lat="43.58225" lon="2.91249">
        <ele>787</ele>
        <time>2014-01-18T08:37:16Z</time>
      </trkpt>
      <trkpt lat="43.58226" lon="2.91249">
        <ele>787</ele>
        <time>2014-01-18T08:37:17Z</time>
      </trkpt>
      <trkpt lat="43.58229" lon="2.91248">
        <ele>788</ele>
        <time>2014-01-18T08:37:21Z</time>
      </trkpt>
      <trkpt lat="43.58231" lon="2.91248">
        <ele>788</ele>
        <time>2014-01-18T08:37:22Z</time>
      </trkpt>
      <trkpt lat="43.58232" lon="2.91249">
        <ele>788</ele>
        <time>2014-01-18T08:37:24Z</time>
      </trkpt>
      <trkpt lat="43.58233" lon="2.91249">
        <ele>789</ele>
        <time>2014-01-18T08:37:25Z</time>
      </trkpt>
      <trkpt lat="43.58234" lon="2.91249">
        <ele>789</ele>
        <time>2014-01-18T08:37:26Z</time>
      </trkpt>
      <trkpt lat="43.58237" lon="2.91251">
        <ele>789</ele>
        <time>2014-01-18T08:37:29Z</time>
      </trkpt>
      <trkpt lat="43.58238" lon="2.91253">
        <ele>790</ele>
        <time>2014-01-18T08:37:32Z</time>
      </trkpt>
      <trkpt lat="43.58239" lon="2.91254">
        <ele>790</ele>
        <time>2014-01-18T08:37:33Z</time>
      </trkpt>
      <trkpt lat="43.5824" lon="2.91255">
        <ele>790</ele>
        <time>2014-01-18T08:37:34Z</time>
      </trkpt>
      <trkpt lat="43.5824" lon="2.91256">
        <ele>790</ele>
        <time>2014-01-18T08:37:35Z</time>
      </trkpt>
      <trkpt lat="43.58241" lon="2.91257">
        <ele>790</ele>
        <time>2014-01-18T08:37:36Z</time>
      </trkpt>
      <trkpt lat="43.58246" lon="2.91269">
        <ele>787</ele>
        <time>2014-01-18T08:37:44Z</time>
      </trkpt>
      <trkpt lat="43.58254" lon="2.91278">
        <ele>796</ele>
        <time>2014-01-18T08:37:52Z</time>
      </trkpt>
      <trkpt lat="43.58261" lon="2.9128">
        <ele>796</ele>
        <time>2014-01-18T08:37:59Z</time>
      </trkpt>
      <trkpt lat="43.58267" lon="2.91283">
        <ele>796</ele>
        <time>2014-01-18T08:38:06Z</time>
      </trkpt>
      <trkpt lat="43.58269" lon="2.91284">
        <ele>796</ele>
        <time>2014-01-18T08:38:09Z</time>
      </trkpt>
      <trkpt lat="43.5827" lon="2.91284">
        <ele>796</ele>
        <time>2014-01-18T08:38:10Z</time>
      </trkpt>
      <trkpt lat="43.58271" lon="2.91284">
        <ele>796</ele>
        <time>2014-01-18T08:38:11Z</time>
      </trkpt>
      <trkpt lat="43.58272" lon="2.91284">
        <ele>796</ele>
        <time>2014-01-18T08:38:12Z</time>
      </trkpt>
      <trkpt lat="43.58275" lon="2.91286">
        <ele>796</ele>
        <time>2014-01-18T08:38:15Z</time>
      </trkpt>
      <trkpt lat="43.58282" lon="2.91288">
        <ele>797</ele>
        <time>2014-01-18T08:38:22Z</time>
      </trkpt>
      <trkpt lat="43.58286" lon="2.91291">
        <ele>797</ele>
        <time>2014-01-18T08:38:28Z</time>
      </trkpt>
      <trkpt lat="43.58287" lon="2.91292">
        <ele>797</ele>
        <time>2014-01-18T08:38:30Z</time>
      </trkpt>
      <trkpt lat="43.58288" lon="2.91292">
        <ele>797</ele>
        <time>2014-01-18T08:38:31Z</time>
      </trkpt>
      <trkpt lat="43.58289" lon="2.91293">
        <ele>797</ele>
        <time>2014-01-18T08:38:32Z</time>
      </trkpt>
      <trkpt lat="43.5829" lon="2.91293">
        <ele>798</ele>
        <time>2014-01-18T08:38:33Z</time>
      </trkpt>
      <trkpt lat="43.5829" lon="2.91293">
        <ele>798</ele>
        <time>2014-01-18T08:38:34Z</time>
      </trkpt>
      <trkpt lat="43.58292" lon="2.91294">
        <ele>798</ele>
        <time>2014-01-18T08:38:37Z</time>
      </trkpt>
      <trkpt lat="43.58294" lon="2.91295">
        <ele>798</ele>
        <time>2014-01-18T08:38:39Z</time>
      </trkpt>
      <trkpt lat="43.58294" lon="2.91295">
        <ele>798</ele>
        <time>2014-01-18T08:38:40Z</time>
      </trkpt>
      <trkpt lat="43.58295" lon="2.91296">
        <ele>798</ele>
        <time>2014-01-18T08:38:41Z</time>
      </trkpt>
      <trkpt lat="43.58296" lon="2.91296">
        <ele>798</ele>
        <time>2014-01-18T08:38:42Z</time>
      </trkpt>
      <trkpt lat="43.58297" lon="2.91296">
        <ele>798</ele>
        <time>2014-01-18T08:38:43Z</time>
      </trkpt>
      <trkpt lat="43.58297" lon="2.91297">
        <ele>798</ele>
        <time>2014-01-18T08:38:44Z</time>
      </trkpt>
      <trkpt lat="43.58298" lon="2.91297">
        <ele>798</ele>
        <time>2014-01-18T08:38:45Z</time>
      </trkpt>
      <trkpt lat="43.58298" lon="2.91297">
        <ele>798</ele>
        <time>2014-01-18T08:38:46Z</time>
      </trkpt>
      <trkpt lat="43.58299" lon="2.91297">
        <ele>798</ele>
        <time>2014-01-18T08:38:47Z</time>
      </trkpt>
      <trkpt lat="43.58302" lon="2.91297">
        <ele>799</ele>
        <time>2014-01-18T08:38:52Z</time>
      </trkpt>
      <trkpt lat="43.58306" lon="2.91298">
        <ele>799</ele>
        <time>2014-01-18T08:38:59Z</time>
      </trkpt>
      <trkpt lat="43.58308" lon="2.91297">
        <ele>799</ele>
        <time>2014-01-18T08:39:02Z</time>
      </trkpt>
      <trkpt lat="43.58308" lon="2.91296">
        <ele>799</ele>
        <time>2014-01-18T08:39:03Z</time>
      </trkpt>
      <trkpt lat="43.58308" lon="2.91296">
        <ele>800</ele>
        <time>2014-01-18T08:39:04Z</time>
      </trkpt>
      <trkpt lat="43.58309" lon="2.91296">
        <ele>800</ele>
        <time>2014-01-18T08:39:05Z</time>
      </trkpt>
      <trkpt lat="43.58309" lon="2.91296">
        <ele>800</ele>
        <time>2014-01-18T08:39:06Z</time>
      </trkpt>
      <trkpt lat="43.58309" lon="2.91295">
        <ele>800</ele>
        <time>2014-01-18T08:39:07Z</time>
      </trkpt>
      <trkpt lat="43.5831" lon="2.91295">
        <ele>800</ele>
        <time>2014-01-18T08:39:08Z</time>
      </trkpt>
      <trkpt lat="43.5831" lon="2.91296">
        <ele>800</ele>
        <time>2014-01-18T08:39:10Z</time>
      </trkpt>
      <trkpt lat="43.5831" lon="2.91296">
        <ele>800</ele>
        <time>2014-01-18T08:39:11Z</time>
      </trkpt>
      <trkpt lat="43.58314" lon="2.91295">
        <ele>800</ele>
        <time>2014-01-18T08:39:16Z</time>
      </trkpt>
      <trkpt lat="43.58315" lon="2.91295">
        <ele>800</ele>
        <time>2014-01-18T08:39:17Z</time>
      </trkpt>
      <trkpt lat="43.58316" lon="2.91295">
        <ele>801</ele>
        <time>2014-01-18T08:39:18Z</time>
      </trkpt>
      <trkpt lat="43.58316" lon="2.91295">
        <ele>801</ele>
        <time>2014-01-18T08:39:19Z</time>
      </trkpt>
      <trkpt lat="43.58317" lon="2.91295">
        <ele>801</ele>
        <time>2014-01-18T08:39:20Z</time>
      </trkpt>
      <trkpt lat="43.5832" lon="2.91294">
        <ele>801</ele>
        <time>2014-01-18T08:39:24Z</time>
      </trkpt>
      <trkpt lat="43.5832" lon="2.91293">
        <ele>801</ele>
        <time>2014-01-18T08:39:26Z</time>
      </trkpt>
      <trkpt lat="43.58321" lon="2.91292">
        <ele>802</ele>
        <time>2014-01-18T08:39:27Z</time>
      </trkpt>
      <trkpt lat="43.58321" lon="2.91291">
        <ele>802</ele>
        <time>2014-01-18T08:39:28Z</time>
      </trkpt>
      <trkpt lat="43.58322" lon="2.91291">
        <ele>802</ele>
        <time>2014-01-18T08:39:29Z</time>
      </trkpt>
      <trkpt lat="43.58322" lon="2.91291">
        <ele>802</ele>
        <time>2014-01-18T08:39:30Z</time>
      </trkpt>
      <trkpt lat="43.58322" lon="2.91291">
        <ele>802</ele>
        <time>2014-01-18T08:39:31Z</time>
      </trkpt>
      <trkpt lat="43.58328" lon="2.91289">
        <ele>803</ele>
        <time>2014-01-18T08:39:39Z</time>
      </trkpt>
      <trkpt lat="43.58329" lon="2.91289">
        <ele>803</ele>
        <time>2014-01-18T08:39:40Z</time>
      </trkpt>
      <trkpt lat="43.5833" lon="2.91289">
        <ele>803</ele>
        <time>2014-01-18T08:39:41Z</time>
      </trkpt>
      <trkpt lat="43.5833" lon="2.91288">
        <ele>803</ele>
        <time>2014-01-18T08:39:42Z</time>
      </trkpt>
      <trkpt lat="43.58331" lon="2.91288">
        <ele>803</ele>
        <time>2014-01-18T08:39:43Z</time>
      </trkpt>
      <trkpt lat="43.58332" lon="2.91287">
        <ele>804</ele>
        <time>2014-01-18T08:39:44Z</time>
      </trkpt>
      <trkpt lat="43.58334" lon="2.91286">
        <ele>813</ele>
        <time>2014-01-18T08:39:47Z</time>
      </trkpt>
      <trkpt lat="43.58335" lon="2.91285">
        <ele>813</ele>
        <time>2014-01-18T08:39:48Z</time>
      </trkpt>
      <trkpt lat="43.58335" lon="2.91285">
        <ele>813</ele>
        <time>2014-01-18T08:39:49Z</time>
      </trkpt>
      <trkpt lat="43.58336" lon="2.91285">
        <ele>813</ele>
        <time>2014-01-18T08:39:50Z</time>
      </trkpt>
      <trkpt lat="43.58337" lon="2.91284">
        <ele>813</ele>
        <time>2014-01-18T08:39:51Z</time>
      </trkpt>
      <trkpt lat="43.58341" lon="2.91284">
        <ele>813</ele>
        <time>2014-01-18T08:39:55Z</time>
      </trkpt>
      <trkpt lat="43.58342" lon="2.91284">
        <ele>813</ele>
        <time>2014-01-18T08:39:57Z</time>
      </trkpt>
      <trkpt lat="43.58344" lon="2.91284">
        <ele>813</ele>
        <time>2014-01-18T08:40:00Z</time>
      </trkpt>
      <trkpt lat="43.58347" lon="2.91283">
        <ele>813</ele>
        <time>2014-01-18T08:40:04Z</time>
      </trkpt>
      <trkpt lat="43.58348" lon="2.91283">
        <ele>813</ele>
        <time>2014-01-18T08:40:05Z</time>
      </trkpt>
      <trkpt lat="43.58349" lon="2.91282">
        <ele>813</ele>
        <time>2014-01-18T08:40:06Z</time>
      </trkpt>
      <trkpt lat="43.5835" lon="2.91282">
        <ele>813</ele>
        <time>2014-01-18T08:40:07Z</time>
      </trkpt>
      <trkpt lat="43.58351" lon="2.91281">
        <ele>813</ele>
        <time>2014-01-18T08:40:08Z</time>
      </trkpt>
      <trkpt lat="43.58354" lon="2.91281">
        <ele>813</ele>
        <time>2014-01-18T08:40:12Z</time>
      </trkpt>
      <trkpt lat="43.58358" lon="2.91279">
        <ele>814</ele>
        <time>2014-01-18T08:40:16Z</time>
      </trkpt>
      <trkpt lat="43.58363" lon="2.91276">
        <ele>814</ele>
        <time>2014-01-18T08:40:22Z</time>
      </trkpt>
      <trkpt lat="43.58365" lon="2.91275">
        <ele>814</ele>
        <time>2014-01-18T08:40:25Z</time>
      </trkpt>
      <trkpt lat="43.58366" lon="2.91274">
        <ele>814</ele>
        <time>2014-01-18T08:40:26Z</time>
      </trkpt>
      <trkpt lat="43.58367" lon="2.91274">
        <ele>815</ele>
        <time>2014-01-18T08:40:27Z</time>
      </trkpt>
      <trkpt lat="43.58368" lon="2.91274">
        <ele>815</ele>
        <time>2014-01-18T08:40:28Z</time>
      </trkpt>
      <trkpt lat="43.58369" lon="2.91273">
        <ele>815</ele>
        <time>2014-01-18T08:40:29Z</time>
      </trkpt>
      <trkpt lat="43.5837" lon="2.91273">
        <ele>815</ele>
        <time>2014-01-18T08:40:30Z</time>
      </trkpt>
      <trkpt lat="43.58375" lon="2.91273">
        <ele>815</ele>
        <time>2014-01-18T08:40:36Z</time>
      </trkpt>
      <trkpt lat="43.58376" lon="2.91273">
        <ele>815</ele>
        <time>2014-01-18T08:40:37Z</time>
      </trkpt>
      <trkpt lat="43.58377" lon="2.91272">
        <ele>815</ele>
        <time>2014-01-18T08:40:38Z</time>
      </trkpt>
      <trkpt lat="43.58378" lon="2.91272">
        <ele>815</ele>
        <time>2014-01-18T08:40:39Z</time>
      </trkpt>
      <trkpt lat="43.58379" lon="2.91271">
        <ele>815</ele>
        <time>2014-01-18T08:40:40Z</time>
      </trkpt>
      <trkpt lat="43.58382" lon="2.91269">
        <ele>816</ele>
        <time>2014-01-18T08:40:43Z</time>
      </trkpt>
      <trkpt lat="43.58383" lon="2.91269">
        <ele>816</ele>
        <time>2014-01-18T08:40:46Z</time>
      </trkpt>
      <trkpt lat="43.58383" lon="2.91269">
        <ele>816</ele>
        <time>2014-01-18T08:40:47Z</time>
      </trkpt>
      <trkpt lat="43.58384" lon="2.9127">
        <ele>816</ele>
        <time>2014-01-18T08:40:48Z</time>
      </trkpt>
      <trkpt lat="43.58389" lon="2.9127">
        <ele>816</ele>
        <time>2014-01-18T08:40:52Z</time>
      </trkpt>
      <trkpt lat="43.58391" lon="2.91269">
        <ele>817</ele>
        <time>2014-01-18T08:40:53Z</time>
      </trkpt>
      <trkpt lat="43.58403" lon="2.91266">
        <ele>819</ele>
        <time>2014-01-18T08:41:00Z</time>
      </trkpt>
      <trkpt lat="43.58416" lon="2.91263">
        <ele>822</ele>
        <time>2014-01-18T08:41:05Z</time>
      </trkpt>
      <trkpt lat="43.58429" lon="2.91255">
        <ele>821</ele>
        <time>2014-01-18T08:41:13Z</time>
      </trkpt>
      <trkpt lat="43.5844" lon="2.91245">
        <ele>827</ele>
        <time>2014-01-18T08:41:20Z</time>
      </trkpt>
      <trkpt lat="43.58449" lon="2.91235">
        <ele>827</ele>
        <time>2014-01-18T08:41:27Z</time>
      </trkpt>
      <trkpt lat="43.58451" lon="2.91232">
        <ele>827</ele>
        <time>2014-01-18T08:41:29Z</time>
      </trkpt>
      <trkpt lat="43.58452" lon="2.91231">
        <ele>827</ele>
        <time>2014-01-18T08:41:30Z</time>
      </trkpt>
      <trkpt lat="43.58454" lon="2.91229">
        <ele>827</ele>
        <time>2014-01-18T08:41:31Z</time>
      </trkpt>
      <trkpt lat="43.58455" lon="2.91228">
        <ele>827</ele>
        <time>2014-01-18T08:41:32Z</time>
      </trkpt>
      <trkpt lat="43.58459" lon="2.91225">
        <ele>826</ele>
        <time>2014-01-18T08:41:35Z</time>
      </trkpt>
      <trkpt lat="43.58469" lon="2.91221">
        <ele>826</ele>
        <time>2014-01-18T08:41:41Z</time>
      </trkpt>
      <trkpt lat="43.5848" lon="2.91218">
        <ele>826</ele>
        <time>2014-01-18T08:41:47Z</time>
      </trkpt>
      <trkpt lat="43.58481" lon="2.91217">
        <ele>826</ele>
        <time>2014-01-18T08:41:48Z</time>
      </trkpt>
      <trkpt lat="43.58482" lon="2.91216">
        <ele>826</ele>
        <time>2014-01-18T08:41:49Z</time>
      </trkpt>
      <trkpt lat="43.58484" lon="2.91214">
        <ele>826</ele>
        <time>2014-01-18T08:41:50Z</time>
      </trkpt>
      <trkpt lat="43.58485" lon="2.91214">
        <ele>826</ele>
        <time>2014-01-18T08:41:51Z</time>
      </trkpt>
      <trkpt lat="43.58492" lon="2.91212">
        <ele>826</ele>
        <time>2014-01-18T08:41:55Z</time>
      </trkpt>
      <trkpt lat="43.58493" lon="2.91211">
        <ele>827</ele>
        <time>2014-01-18T08:41:56Z</time>
      </trkpt>
      <trkpt lat="43.58494" lon="2.91211">
        <ele>827</ele>
        <time>2014-01-18T08:41:57Z</time>
      </trkpt>
      <trkpt lat="43.58495" lon="2.91211">
        <ele>827</ele>
        <time>2014-01-18T08:41:58Z</time>
      </trkpt>
      <trkpt lat="43.58497" lon="2.9121">
        <ele>827</ele>
        <time>2014-01-18T08:42:00Z</time>
      </trkpt>
      <trkpt lat="43.585" lon="2.91208">
        <ele>827</ele>
        <time>2014-01-18T08:42:03Z</time>
      </trkpt>
      <trkpt lat="43.58501" lon="2.91208">
        <ele>830</ele>
        <time>2014-01-18T08:42:04Z</time>
      </trkpt>
      <trkpt lat="43.58503" lon="2.91207">
        <ele>830</ele>
        <time>2014-01-18T08:42:05Z</time>
      </trkpt>
      <trkpt lat="43.58504" lon="2.91207">
        <ele>830</ele>
        <time>2014-01-18T08:42:06Z</time>
      </trkpt>
      <trkpt lat="43.58505" lon="2.91207">
        <ele>830</ele>
        <time>2014-01-18T08:42:07Z</time>
      </trkpt>
      <trkpt lat="43.58507" lon="2.91206">
        <ele>830</ele>
        <time>2014-01-18T08:42:09Z</time>
      </trkpt>
      <trkpt lat="43.58511" lon="2.91205">
        <ele>831</ele>
        <time>2014-01-18T08:42:12Z</time>
      </trkpt>
      <trkpt lat="43.58517" lon="2.91202">
        <ele>831</ele>
        <time>2014-01-18T08:42:18Z</time>
      </trkpt>
      <trkpt lat="43.58518" lon="2.91201">
        <ele>832</ele>
        <time>2014-01-18T08:42:19Z</time>
      </trkpt>
      <trkpt lat="43.58519" lon="2.91201">
        <ele>832</ele>
        <time>2014-01-18T08:42:20Z</time>
      </trkpt>
      <trkpt lat="43.5852" lon="2.912">
        <ele>832</ele>
        <time>2014-01-18T08:42:21Z</time>
      </trkpt>
      <trkpt lat="43.58522" lon="2.912">
        <ele>832</ele>
        <time>2014-01-18T08:42:23Z</time>
      </trkpt>
      <trkpt lat="43.58523" lon="2.91199">
        <ele>832</ele>
        <time>2014-01-18T08:42:24Z</time>
      </trkpt>
      <trkpt lat="43.58525" lon="2.91198">
        <ele>832</ele>
        <time>2014-01-18T08:42:26Z</time>
      </trkpt>
      <trkpt lat="43.58526" lon="2.91198">
        <ele>833</ele>
        <time>2014-01-18T08:42:27Z</time>
      </trkpt>
      <trkpt lat="43.58527" lon="2.91197">
        <ele>833</ele>
        <time>2014-01-18T08:42:28Z</time>
      </trkpt>
      <trkpt lat="43.58528" lon="2.91197">
        <ele>833</ele>
        <time>2014-01-18T08:42:29Z</time>
      </trkpt>
      <trkpt lat="43.5853" lon="2.91196">
        <ele>833</ele>
        <time>2014-01-18T08:42:30Z</time>
      </trkpt>
      <trkpt lat="43.58531" lon="2.91195">
        <ele>833</ele>
        <time>2014-01-18T08:42:31Z</time>
      </trkpt>
      <trkpt lat="43.58536" lon="2.91192">
        <ele>834</ele>
        <time>2014-01-18T08:42:37Z</time>
      </trkpt>
      <trkpt lat="43.58542" lon="2.91189">
        <ele>835</ele>
        <time>2014-01-18T08:42:42Z</time>
      </trkpt>
      <trkpt lat="43.58543" lon="2.91189">
        <ele>835</ele>
        <time>2014-01-18T08:42:43Z</time>
      </trkpt>
      <trkpt lat="43.58544" lon="2.91189">
        <ele>835</ele>
        <time>2014-01-18T08:42:44Z</time>
      </trkpt>
      <trkpt lat="43.58545" lon="2.91188">
        <ele>835</ele>
        <time>2014-01-18T08:42:45Z</time>
      </trkpt>
      <trkpt lat="43.58546" lon="2.91188">
        <ele>835</ele>
        <time>2014-01-18T08:42:46Z</time>
      </trkpt>
      <trkpt lat="43.58547" lon="2.91187">
        <ele>836</ele>
        <time>2014-01-18T08:42:48Z</time>
      </trkpt>
      <trkpt lat="43.58551" lon="2.91185">
        <ele>837</ele>
        <time>2014-01-18T08:42:51Z</time>
      </trkpt>
      <trkpt lat="43.58557" lon="2.91184">
        <ele>838</ele>
        <time>2014-01-18T08:42:57Z</time>
      </trkpt>
      <trkpt lat="43.58559" lon="2.91183">
        <ele>839</ele>
        <time>2014-01-18T08:42:59Z</time>
      </trkpt>
      <trkpt lat="43.5856" lon="2.91183">
        <ele>839</ele>
        <time>2014-01-18T08:43:00Z</time>
      </trkpt>
      <trkpt lat="43.58561" lon="2.91183">
        <ele>839</ele>
        <time>2014-01-18T08:43:01Z</time>
      </trkpt>
      <trkpt lat="43.58562" lon="2.91183">
        <ele>839</ele>
        <time>2014-01-18T08:43:02Z</time>
      </trkpt>
      <trkpt lat="43.58562" lon="2.91183">
        <ele>839</ele>
        <time>2014-01-18T08:43:03Z</time>
      </trkpt>
      <trkpt lat="43.58564" lon="2.91181">
        <ele>840</ele>
        <time>2014-01-18T08:43:05Z</time>
      </trkpt>
      <trkpt lat="43.58567" lon="2.91177">
        <ele>842</ele>
        <time>2014-01-18T08:43:09Z</time>
      </trkpt>
      <trkpt lat="43.5857" lon="2.91176">
        <ele>843</ele>
        <time>2014-01-18T08:43:11Z</time>
      </trkpt>
      <trkpt lat="43.58571" lon="2.91175">
        <ele>844</ele>
        <time>2014-01-18T08:43:12Z</time>
      </trkpt>
      <trkpt lat="43.58572" lon="2.91174">
        <ele>844</ele>
        <time>2014-01-18T08:43:13Z</time>
      </trkpt>
      <trkpt lat="43.58572" lon="2.91174">
        <ele>845</ele>
        <time>2014-01-18T08:43:14Z</time>
      </trkpt>
      <trkpt lat="43.58574" lon="2.91174">
        <ele>845</ele>
        <time>2014-01-18T08:43:15Z</time>
      </trkpt>
      <trkpt lat="43.58578" lon="2.91174">
        <ele>847</ele>
        <time>2014-01-18T08:43:19Z</time>
      </trkpt>
      <trkpt lat="43.58579" lon="2.91175">
        <ele>847</ele>
        <time>2014-01-18T08:43:20Z</time>
      </trkpt>
      <trkpt lat="43.5858" lon="2.91175">
        <ele>847</ele>
        <time>2014-01-18T08:43:21Z</time>
      </trkpt>
      <trkpt lat="43.58581" lon="2.91175">
        <ele>847</ele>
        <time>2014-01-18T08:43:22Z</time>
      </trkpt>
      <trkpt lat="43.58582" lon="2.91175">
        <ele>847</ele>
        <time>2014-01-18T08:43:23Z</time>
      </trkpt>
      <trkpt lat="43.58583" lon="2.91176">
        <ele>852</ele>
        <time>2014-01-18T08:43:25Z</time>
      </trkpt>
      <trkpt lat="43.58585" lon="2.91175">
        <ele>852</ele>
        <time>2014-01-18T08:43:26Z</time>
      </trkpt>
      <trkpt lat="43.58586" lon="2.91175">
        <ele>852</ele>
        <time>2014-01-18T08:43:27Z</time>
      </trkpt>
      <trkpt lat="43.58587" lon="2.91175">
        <ele>852</ele>
        <time>2014-01-18T08:43:28Z</time>
      </trkpt>
      <trkpt lat="43.58588" lon="2.91175">
        <ele>852</ele>
        <time>2014-01-18T08:43:29Z</time>
      </trkpt>
      <trkpt lat="43.58594" lon="2.91172">
        <ele>852</ele>
        <time>2014-01-18T08:43:34Z</time>
      </trkpt>
      <trkpt lat="43.58602" lon="2.91171">
        <ele>851</ele>
        <time>2014-01-18T08:43:42Z</time>
      </trkpt>
      <trkpt lat="43.58604" lon="2.91171">
        <ele>851</ele>
        <time>2014-01-18T08:43:45Z</time>
      </trkpt>
      <trkpt lat="43.58602" lon="2.91169">
        <ele>851</ele>
        <time>2014-01-18T08:43:47Z</time>
      </trkpt>
      <trkpt lat="43.58603" lon="2.9117">
        <ele>851</ele>
        <time>2014-01-18T08:43:49Z</time>
      </trkpt>
      <trkpt lat="43.58604" lon="2.9117">
        <ele>851</ele>
        <time>2014-01-18T08:43:50Z</time>
      </trkpt>
      <trkpt lat="43.58605" lon="2.9117">
        <ele>851</ele>
        <time>2014-01-18T08:43:51Z</time>
      </trkpt>
      <trkpt lat="43.58606" lon="2.9117">
        <ele>851</ele>
        <time>2014-01-18T08:43:52Z</time>
      </trkpt>
      <trkpt lat="43.58607" lon="2.91171">
        <ele>851</ele>
        <time>2014-01-18T08:43:53Z</time>
      </trkpt>
      <trkpt lat="43.58611" lon="2.91172">
        <ele>851</ele>
        <time>2014-01-18T08:43:57Z</time>
      </trkpt>
      <trkpt lat="43.58612" lon="2.91172">
        <ele>851</ele>
        <time>2014-01-18T08:43:58Z</time>
      </trkpt>
      <trkpt lat="43.58618" lon="2.91168">
        <ele>852</ele>
        <time>2014-01-18T08:44:05Z</time>
      </trkpt>
      <trkpt lat="43.58619" lon="2.91168">
        <ele>852</ele>
        <time>2014-01-18T08:44:06Z</time>
      </trkpt>
      <trkpt lat="43.5862" lon="2.91168">
        <ele>852</ele>
        <time>2014-01-18T08:44:07Z</time>
      </trkpt>
      <trkpt lat="43.58621" lon="2.91168">
        <ele>853</ele>
        <time>2014-01-18T08:44:08Z</time>
      </trkpt>
      <trkpt lat="43.58622" lon="2.91168">
        <ele>853</ele>
        <time>2014-01-18T08:44:09Z</time>
      </trkpt>
      <trkpt lat="43.58623" lon="2.91168">
        <ele>853</ele>
        <time>2014-01-18T08:44:10Z</time>
      </trkpt>
      <trkpt lat="43.58625" lon="2.91168">
        <ele>853</ele>
        <time>2014-01-18T08:44:12Z</time>
      </trkpt>
      <trkpt lat="43.5863" lon="2.91167">
        <ele>871</ele>
        <time>2014-01-18T08:44:17Z</time>
      </trkpt>
      <trkpt lat="43.58633" lon="2.91167">
        <ele>855</ele>
        <time>2014-01-18T08:44:20Z</time>
      </trkpt>
      <trkpt lat="43.58635" lon="2.91167">
        <ele>855</ele>
        <time>2014-01-18T08:44:21Z</time>
      </trkpt>
      <trkpt lat="43.58635" lon="2.91167">
        <ele>855</ele>
        <time>2014-01-18T08:44:22Z</time>
      </trkpt>
      <trkpt lat="43.58637" lon="2.91168">
        <ele>855</ele>
        <time>2014-01-18T08:44:23Z</time>
      </trkpt>
      <trkpt lat="43.58638" lon="2.91168">
        <ele>856</ele>
        <time>2014-01-18T08:44:24Z</time>
      </trkpt>
      <trkpt lat="43.58641" lon="2.91169">
        <ele>856</ele>
        <time>2014-01-18T08:44:27Z</time>
      </trkpt>
      <trkpt lat="43.58649" lon="2.91168">
        <ele>859</ele>
        <time>2014-01-18T08:44:34Z</time>
      </trkpt>
      <trkpt lat="43.58655" lon="2.91169">
        <ele>862</ele>
        <time>2014-01-18T08:44:40Z</time>
      </trkpt>
      <trkpt lat="43.58657" lon="2.9117">
        <ele>863</ele>
        <time>2014-01-18T08:44:41Z</time>
      </trkpt>
      <trkpt lat="43.58658" lon="2.9117">
        <ele>863</ele>
        <time>2014-01-18T08:44:42Z</time>
      </trkpt>
      <trkpt lat="43.58658" lon="2.91171">
        <ele>863</ele>
        <time>2014-01-18T08:44:43Z</time>
      </trkpt>
      <trkpt lat="43.5866" lon="2.91171">
        <ele>864</ele>
        <time>2014-01-18T08:44:44Z</time>
      </trkpt>
      <trkpt lat="43.58661" lon="2.91171">
        <ele>864</ele>
        <time>2014-01-18T08:44:45Z</time>
      </trkpt>
      <trkpt lat="43.58667" lon="2.91174">
        <ele>871</ele>
        <time>2014-01-18T08:44:51Z</time>
      </trkpt>
      <trkpt lat="43.58671" lon="2.91177">
        <ele>871</ele>
        <time>2014-01-18T08:44:55Z</time>
      </trkpt>
      <trkpt lat="43.58672" lon="2.91177">
        <ele>871</ele>
        <time>2014-01-18T08:44:56Z</time>
      </trkpt>
      <trkpt lat="43.58673" lon="2.91178">
        <ele>871</ele>
        <time>2014-01-18T08:44:57Z</time>
      </trkpt>
      <trkpt lat="43.58674" lon="2.91178">
        <ele>872</ele>
        <time>2014-01-18T08:44:58Z</time>
      </trkpt>
      <trkpt lat="43.58675" lon="2.91178">
        <ele>872</ele>
        <time>2014-01-18T08:44:59Z</time>
      </trkpt>
      <trkpt lat="43.58676" lon="2.91178">
        <ele>872</ele>
        <time>2014-01-18T08:45:00Z</time>
      </trkpt>
      <trkpt lat="43.5868" lon="2.91183">
        <ele>872</ele>
        <time>2014-01-18T08:45:06Z</time>
      </trkpt>
      <trkpt lat="43.58681" lon="2.91184">
        <ele>872</ele>
        <time>2014-01-18T08:45:07Z</time>
      </trkpt>
      <trkpt lat="43.58682" lon="2.91185">
        <ele>872</ele>
        <time>2014-01-18T08:45:08Z</time>
      </trkpt>
      <trkpt lat="43.58682" lon="2.91185">
        <ele>872</ele>
        <time>2014-01-18T08:45:11Z</time>
      </trkpt>
      <trkpt lat="43.58683" lon="2.91188">
        <ele>872</ele>
        <time>2014-01-18T08:45:13Z</time>
      </trkpt>
      <trkpt lat="43.58688" lon="2.91202">
        <ele>872</ele>
        <time>2014-01-18T08:45:19Z</time>
      </trkpt>
      <trkpt lat="43.58694" lon="2.91215">
        <ele>870</ele>
        <time>2014-01-18T08:45:25Z</time>
      </trkpt>
      <trkpt lat="43.58695" lon="2.91216">
        <ele>870</ele>
        <time>2014-01-18T08:45:26Z</time>
      </trkpt>
      <trkpt lat="43.58696" lon="2.91218">
        <ele>870</ele>
        <time>2014-01-18T08:45:27Z</time>
      </trkpt>
      <trkpt lat="43.58699" lon="2.91227">
        <ele>869</ele>
        <time>2014-01-18T08:45:31Z</time>
      </trkpt>
      <trkpt lat="43.58704" lon="2.91243">
        <ele>869</ele>
        <time>2014-01-18T08:45:37Z</time>
      </trkpt>
      <trkpt lat="43.58705" lon="2.91247">
        <ele>869</ele>
        <time>2014-01-18T08:45:39Z</time>
      </trkpt>
      <trkpt lat="43.58706" lon="2.91249">
        <ele>869</ele>
        <time>2014-01-18T08:45:40Z</time>
      </trkpt>
      <trkpt lat="43.58706" lon="2.91251">
        <ele>856</ele>
        <time>2014-01-18T08:45:41Z</time>
      </trkpt>
      <trkpt lat="43.58707" lon="2.91253">
        <ele>856</ele>
        <time>2014-01-18T08:45:42Z</time>
      </trkpt>
      <trkpt lat="43.58708" lon="2.91256">
        <ele>856</ele>
        <time>2014-01-18T08:45:43Z</time>
      </trkpt>
      <trkpt lat="43.58709" lon="2.91257">
        <ele>856</ele>
        <time>2014-01-18T08:45:44Z</time>
      </trkpt>
      <trkpt lat="43.58711" lon="2.91262">
        <ele>857</ele>
        <time>2014-01-18T08:45:46Z</time>
      </trkpt>
      <trkpt lat="43.58712" lon="2.91264">
        <ele>857</ele>
        <time>2014-01-18T08:45:47Z</time>
      </trkpt>
      <trkpt lat="43.58713" lon="2.91266">
        <ele>857</ele>
        <time>2014-01-18T08:45:48Z</time>
      </trkpt>
      <trkpt lat="43.58714" lon="2.91268">
        <ele>857</ele>
        <time>2014-01-18T08:45:49Z</time>
      </trkpt>
      <trkpt lat="43.58715" lon="2.9127">
        <ele>857</ele>
        <time>2014-01-18T08:45:50Z</time>
      </trkpt>
      <trkpt lat="43.58717" lon="2.91273">
        <ele>857</ele>
        <time>2014-01-18T08:45:52Z</time>
      </trkpt>
      <trkpt lat="43.58718" lon="2.91275">
        <ele>857</ele>
        <time>2014-01-18T08:45:53Z</time>
      </trkpt>
      <trkpt lat="43.58719" lon="2.91277">
        <ele>857</ele>
        <time>2014-01-18T08:45:54Z</time>
      </trkpt>
      <trkpt lat="43.5872" lon="2.91279">
        <ele>857</ele>
        <time>2014-01-18T08:45:55Z</time>
      </trkpt>
      <trkpt lat="43.58721" lon="2.9128">
        <ele>857</ele>
        <time>2014-01-18T08:45:56Z</time>
      </trkpt>
      <trkpt lat="43.58722" lon="2.91282">
        <ele>857</ele>
        <time>2014-01-18T08:45:57Z</time>
      </trkpt>
      <trkpt lat="43.58726" lon="2.91286">
        <ele>857</ele>
        <time>2014-01-18T08:46:00Z</time>
      </trkpt>
      <trkpt lat="43.58727" lon="2.91287">
        <ele>857</ele>
        <time>2014-01-18T08:46:01Z</time>
      </trkpt>
      <trkpt lat="43.58729" lon="2.91288">
        <ele>857</ele>
        <time>2014-01-18T08:46:02Z</time>
      </trkpt>
      <trkpt lat="43.5873" lon="2.91289">
        <ele>857</ele>
        <time>2014-01-18T08:46:03Z</time>
      </trkpt>
      <trkpt lat="43.58732" lon="2.91292">
        <ele>857</ele>
        <time>2014-01-18T08:46:05Z</time>
      </trkpt>
      <trkpt lat="43.58733" lon="2.91293">
        <ele>857</ele>
        <time>2014-01-18T08:46:06Z</time>
      </trkpt>
      <trkpt lat="43.58742" lon="2.91301">
        <ele>857</ele>
        <time>2014-01-18T08:46:12Z</time>
      </trkpt>
      <trkpt lat="43.58752" lon="2.91307">
        <ele>870</ele>
        <time>2014-01-18T08:46:19Z</time>
      </trkpt>
      <trkpt lat="43.58755" lon="2.91307">
        <ele>870</ele>
        <time>2014-01-18T08:46:21Z</time>
      </trkpt>
      <trkpt lat="43.58763" lon="2.91308">
        <ele>870</ele>
        <time>2014-01-18T08:46:26Z</time>
      </trkpt>
      <trkpt lat="43.58773" lon="2.91307">
        <ele>872</ele>
        <time>2014-01-18T08:46:33Z</time>
      </trkpt>
      <trkpt lat="43.58775" lon="2.91308">
        <ele>872</ele>
        <time>2014-01-18T08:46:34Z</time>
      </trkpt>
      <trkpt lat="43.58776" lon="2.91308">
        <ele>872</ele>
        <time>2014-01-18T08:46:35Z</time>
      </trkpt>
      <trkpt lat="43.58778" lon="2.91308">
        <ele>872</ele>
        <time>2014-01-18T08:46:36Z</time>
      </trkpt>
      <trkpt lat="43.58779" lon="2.91308">
        <ele>872</ele>
        <time>2014-01-18T08:46:37Z</time>
      </trkpt>
      <trkpt lat="43.5878" lon="2.91308">
        <ele>872</ele>
        <time>2014-01-18T08:46:38Z</time>
      </trkpt>
      <trkpt lat="43.58783" lon="2.91308">
        <ele>873</ele>
        <time>2014-01-18T08:46:40Z</time>
      </trkpt>
      <trkpt lat="43.58791" lon="2.91305">
        <ele>874</ele>
        <time>2014-01-18T08:46:46Z</time>
      </trkpt>
      <trkpt lat="43.58797" lon="2.91302">
        <ele>874</ele>
        <time>2014-01-18T08:46:51Z</time>
      </trkpt>
      <trkpt lat="43.58798" lon="2.91302">
        <ele>875</ele>
        <time>2014-01-18T08:46:52Z</time>
      </trkpt>
      <trkpt lat="43.58799" lon="2.91303">
        <ele>875</ele>
        <time>2014-01-18T08:46:53Z</time>
      </trkpt>
      <trkpt lat="43.588" lon="2.91303">
        <ele>875</ele>
        <time>2014-01-18T08:46:54Z</time>
      </trkpt>
      <trkpt lat="43.58806" lon="2.91301">
        <ele>875</ele>
        <time>2014-01-18T08:46:59Z</time>
      </trkpt>
      <trkpt lat="43.58811" lon="2.91299">
        <ele>876</ele>
        <time>2014-01-18T08:47:03Z</time>
      </trkpt>
      <trkpt lat="43.58812" lon="2.91299">
        <ele>876</ele>
        <time>2014-01-18T08:47:04Z</time>
      </trkpt>
      <trkpt lat="43.58813" lon="2.91298">
        <ele>876</ele>
        <time>2014-01-18T08:47:05Z</time>
      </trkpt>
      <trkpt lat="43.58814" lon="2.91297">
        <ele>876</ele>
        <time>2014-01-18T08:47:06Z</time>
      </trkpt>
      <trkpt lat="43.58815" lon="2.91297">
        <ele>876</ele>
        <time>2014-01-18T08:47:07Z</time>
      </trkpt>
      <trkpt lat="43.58819" lon="2.91296">
        <ele>877</ele>
        <time>2014-01-18T08:47:11Z</time>
      </trkpt>
      <trkpt lat="43.5882" lon="2.91295">
        <ele>877</ele>
        <time>2014-01-18T08:47:12Z</time>
      </trkpt>
      <trkpt lat="43.58821" lon="2.91295">
        <ele>877</ele>
        <time>2014-01-18T08:47:13Z</time>
      </trkpt>
      <trkpt lat="43.58822" lon="2.91294">
        <ele>877</ele>
        <time>2014-01-18T08:47:14Z</time>
      </trkpt>
      <trkpt lat="43.58823" lon="2.91294">
        <ele>877</ele>
        <time>2014-01-18T08:47:15Z</time>
      </trkpt>
      <trkpt lat="43.58824" lon="2.91294">
        <ele>877</ele>
        <time>2014-01-18T08:47:17Z</time>
      </trkpt>
      <trkpt lat="43.58827" lon="2.91292">
        <ele>878</ele>
        <time>2014-01-18T08:47:20Z</time>
      </trkpt>
      <trkpt lat="43.58828" lon="2.91292">
        <ele>878</ele>
        <time>2014-01-18T08:47:21Z</time>
      </trkpt>
      <trkpt lat="43.58832" lon="2.9129">
        <ele>878</ele>
        <time>2014-01-18T08:47:25Z</time>
      </trkpt>
      <trkpt lat="43.58834" lon="2.91289">
        <ele>885</ele>
        <time>2014-01-18T08:47:27Z</time>
      </trkpt>
      <trkpt lat="43.58835" lon="2.91288">
        <ele>885</ele>
        <time>2014-01-18T08:47:28Z</time>
      </trkpt>
      <trkpt lat="43.58836" lon="2.91288">
        <ele>886</ele>
        <time>2014-01-18T08:47:29Z</time>
      </trkpt>
      <trkpt lat="43.58837" lon="2.91287">
        <ele>886</ele>
        <time>2014-01-18T08:47:30Z</time>
      </trkpt>
      <trkpt lat="43.58838" lon="2.91287">
        <ele>886</ele>
        <time>2014-01-18T08:47:31Z</time>
      </trkpt>
      <trkpt lat="43.58839" lon="2.91286">
        <ele>886</ele>
        <time>2014-01-18T08:47:32Z</time>
      </trkpt>
      <trkpt lat="43.5884" lon="2.91285">
        <ele>886</ele>
        <time>2014-01-18T08:47:33Z</time>
      </trkpt>
      <trkpt lat="43.58842" lon="2.91284">
        <ele>887</ele>
        <time>2014-01-18T08:47:35Z</time>
      </trkpt>
      <trkpt lat="43.58845" lon="2.91282">
        <ele>887</ele>
        <time>2014-01-18T08:47:38Z</time>
      </trkpt>
      <trkpt lat="43.58846" lon="2.91282">
        <ele>887</ele>
        <time>2014-01-18T08:47:39Z</time>
      </trkpt>
      <trkpt lat="43.58847" lon="2.91283">
        <ele>887</ele>
        <time>2014-01-18T08:47:40Z</time>
      </trkpt>
      <trkpt lat="43.58847" lon="2.91283">
        <ele>887</ele>
        <time>2014-01-18T08:47:41Z</time>
      </trkpt>
      <trkpt lat="43.58848" lon="2.91282">
        <ele>887</ele>
        <time>2014-01-18T08:47:42Z</time>
      </trkpt>
      <trkpt lat="43.5885" lon="2.91282">
        <ele>887</ele>
        <time>2014-01-18T08:47:44Z</time>
      </trkpt>
      <trkpt lat="43.58851" lon="2.91282">
        <ele>887</ele>
        <time>2014-01-18T08:47:45Z</time>
      </trkpt>
      <trkpt lat="43.58854" lon="2.91282">
        <ele>887</ele>
        <time>2014-01-18T08:47:48Z</time>
      </trkpt>
      <trkpt lat="43.58855" lon="2.91281">
        <ele>887</ele>
        <time>2014-01-18T08:47:49Z</time>
      </trkpt>
      <trkpt lat="43.58856" lon="2.9128">
        <ele>888</ele>
        <time>2014-01-18T08:47:50Z</time>
      </trkpt>
      <trkpt lat="43.58857" lon="2.91279">
        <ele>888</ele>
        <time>2014-01-18T08:47:51Z</time>
      </trkpt>
      <trkpt lat="43.58858" lon="2.91279">
        <ele>888</ele>
        <time>2014-01-18T08:47:52Z</time>
      </trkpt>
      <trkpt lat="43.58858" lon="2.91279">
        <ele>888</ele>
        <time>2014-01-18T08:47:53Z</time>
      </trkpt>
      <trkpt lat="43.5886" lon="2.91279">
        <ele>888</ele>
        <time>2014-01-18T08:47:54Z</time>
      </trkpt>
      <trkpt lat="43.58862" lon="2.91279">
        <ele>888</ele>
        <time>2014-01-18T08:47:56Z</time>
      </trkpt>
      <trkpt lat="43.58864" lon="2.91279">
        <ele>888</ele>
        <time>2014-01-18T08:47:58Z</time>
      </trkpt>
      <trkpt lat="43.58867" lon="2.91278">
        <ele>888</ele>
        <time>2014-01-18T08:48:01Z</time>
      </trkpt>
      <trkpt lat="43.58868" lon="2.91278">
        <ele>888</ele>
        <time>2014-01-18T08:48:02Z</time>
      </trkpt>
      <trkpt lat="43.58868" lon="2.91278">
        <ele>888</ele>
        <time>2014-01-18T08:48:03Z</time>
      </trkpt>
      <trkpt lat="43.58869" lon="2.91277">
        <ele>888</ele>
        <time>2014-01-18T08:48:04Z</time>
      </trkpt>
      <trkpt lat="43.5887" lon="2.91277">
        <ele>888</ele>
        <time>2014-01-18T08:48:05Z</time>
      </trkpt>
      <trkpt lat="43.58873" lon="2.91276">
        <ele>889</ele>
        <time>2014-01-18T08:48:07Z</time>
      </trkpt>
      <trkpt lat="43.58877" lon="2.91277">
        <ele>889</ele>
        <time>2014-01-18T08:48:11Z</time>
      </trkpt>
      <trkpt lat="43.5888" lon="2.91276">
        <ele>889</ele>
        <time>2014-01-18T08:48:15Z</time>
      </trkpt>
      <trkpt lat="43.58881" lon="2.91276">
        <ele>889</ele>
        <time>2014-01-18T08:48:16Z</time>
      </trkpt>
      <trkpt lat="43.58882" lon="2.91276">
        <ele>889</ele>
        <time>2014-01-18T08:48:17Z</time>
      </trkpt>
      <trkpt lat="43.58883" lon="2.91275">
        <ele>889</ele>
        <time>2014-01-18T08:48:18Z</time>
      </trkpt>
      <trkpt lat="43.58884" lon="2.91275">
        <ele>890</ele>
        <time>2014-01-18T08:48:19Z</time>
      </trkpt>
      <trkpt lat="43.58888" lon="2.91274">
        <ele>890</ele>
        <time>2014-01-18T08:48:22Z</time>
      </trkpt>
      <trkpt lat="43.58893" lon="2.91273">
        <ele>891</ele>
        <time>2014-01-18T08:48:27Z</time>
      </trkpt>
      <trkpt lat="43.58893" lon="2.91273">
        <ele>891</ele>
        <time>2014-01-18T08:48:28Z</time>
      </trkpt>
      <trkpt lat="43.58894" lon="2.91273">
        <ele>891</ele>
        <time>2014-01-18T08:48:29Z</time>
      </trkpt>
      <trkpt lat="43.58895" lon="2.91272">
        <ele>891</ele>
        <time>2014-01-18T08:48:30Z</time>
      </trkpt>
      <trkpt lat="43.58896" lon="2.91272">
        <ele>892</ele>
        <time>2014-01-18T08:48:31Z</time>
      </trkpt>
      <trkpt lat="43.58899" lon="2.9127">
        <ele>893</ele>
        <time>2014-01-18T08:48:34Z</time>
      </trkpt>
      <trkpt lat="43.58904" lon="2.91271">
        <ele>893</ele>
        <time>2014-01-18T08:48:39Z</time>
      </trkpt>
      <trkpt lat="43.58905" lon="2.91271">
        <ele>893</ele>
        <time>2014-01-18T08:48:40Z</time>
      </trkpt>
      <trkpt lat="43.58906" lon="2.9127">
        <ele>894</ele>
        <time>2014-01-18T08:48:41Z</time>
      </trkpt>
      <trkpt lat="43.58907" lon="2.9127">
        <ele>894</ele>
        <time>2014-01-18T08:48:42Z</time>
      </trkpt>
      <trkpt lat="43.58908" lon="2.91269">
        <ele>894</ele>
        <time>2014-01-18T08:48:43Z</time>
      </trkpt>
      <trkpt lat="43.5891" lon="2.91269">
        <ele>895</ele>
        <time>2014-01-18T08:48:44Z</time>
      </trkpt>
      <trkpt lat="43.58917" lon="2.91266">
        <ele>901</ele>
        <time>2014-01-18T08:48:50Z</time>
      </trkpt>
      <trkpt lat="43.58917" lon="2.91265">
        <ele>902</ele>
        <time>2014-01-18T08:48:51Z</time>
      </trkpt>
      <trkpt lat="43.58918" lon="2.91264">
        <ele>902</ele>
        <time>2014-01-18T08:48:52Z</time>
      </trkpt>
      <trkpt lat="43.58918" lon="2.91264">
        <ele>902</ele>
        <time>2014-01-18T08:48:56Z</time>
      </trkpt>
      <trkpt lat="43.58919" lon="2.91263">
        <ele>902</ele>
        <time>2014-01-18T08:48:57Z</time>
      </trkpt>
      <trkpt lat="43.5892" lon="2.91263">
        <ele>902</ele>
        <time>2014-01-18T08:48:58Z</time>
      </trkpt>
      <trkpt lat="43.58922" lon="2.91263">
        <ele>902</ele>
        <time>2014-01-18T08:49:00Z</time>
      </trkpt>
      <trkpt lat="43.58924" lon="2.91262">
        <ele>902</ele>
        <time>2014-01-18T08:49:03Z</time>
      </trkpt>
      <trkpt lat="43.58924" lon="2.91262">
        <ele>902</ele>
        <time>2014-01-18T08:49:05Z</time>
      </trkpt>
      <trkpt lat="43.58927" lon="2.9126">
        <ele>902</ele>
        <time>2014-01-18T08:49:09Z</time>
      </trkpt>
      <trkpt lat="43.58929" lon="2.91259">
        <ele>902</ele>
        <time>2014-01-18T08:49:13Z</time>
      </trkpt>
      <trkpt lat="43.5893" lon="2.91259">
        <ele>902</ele>
        <time>2014-01-18T08:49:14Z</time>
      </trkpt>
      <trkpt lat="43.5893" lon="2.91259">
        <ele>902</ele>
        <time>2014-01-18T08:49:15Z</time>
      </trkpt>
      <trkpt lat="43.58931" lon="2.91259">
        <ele>902</ele>
        <time>2014-01-18T08:49:16Z</time>
      </trkpt>
      <trkpt lat="43.58931" lon="2.91258">
        <ele>902</ele>
        <time>2014-01-18T08:49:17Z</time>
      </trkpt>
      <trkpt lat="43.58934" lon="2.91257">
        <ele>902</ele>
        <time>2014-01-18T08:49:20Z</time>
      </trkpt>
      <trkpt lat="43.58934" lon="2.91257">
        <ele>902</ele>
        <time>2014-01-18T08:49:21Z</time>
      </trkpt>
      <trkpt lat="43.58934" lon="2.91257">
        <ele>902</ele>
        <time>2014-01-18T08:49:22Z</time>
      </trkpt>
      <trkpt lat="43.58935" lon="2.91257">
        <ele>902</ele>
        <time>2014-01-18T08:49:23Z</time>
      </trkpt>
      <trkpt lat="43.58938" lon="2.91256">
        <ele>902</ele>
        <time>2014-01-18T08:49:27Z</time>
      </trkpt>
      <trkpt lat="43.5894" lon="2.91257">
        <ele>902</ele>
        <time>2014-01-18T08:49:29Z</time>
      </trkpt>
      <trkpt lat="43.58941" lon="2.91256">
        <ele>902</ele>
        <time>2014-01-18T08:49:30Z</time>
      </trkpt>
      <trkpt lat="43.58941" lon="2.91256">
        <ele>902</ele>
        <time>2014-01-18T08:49:31Z</time>
      </trkpt>
      <trkpt lat="43.58943" lon="2.91256">
        <ele>902</ele>
        <time>2014-01-18T08:49:32Z</time>
      </trkpt>
      <trkpt lat="43.58943" lon="2.91256">
        <ele>902</ele>
        <time>2014-01-18T08:49:33Z</time>
      </trkpt>
      <trkpt lat="43.58944" lon="2.91256">
        <ele>902</ele>
        <time>2014-01-18T08:49:34Z</time>
      </trkpt>
      <trkpt lat="43.5895" lon="2.91253">
        <ele>902</ele>
        <time>2014-01-18T08:49:42Z</time>
      </trkpt>
      <trkpt lat="43.58956" lon="2.9125">
        <ele>903</ele>
        <time>2014-01-18T08:49:49Z</time>
      </trkpt>
      <trkpt lat="43.58958" lon="2.9125">
        <ele>903</ele>
        <time>2014-01-18T08:49:52Z</time>
      </trkpt>
      <trkpt lat="43.58959" lon="2.9125">
        <ele>922</ele>
        <time>2014-01-18T08:49:53Z</time>
      </trkpt>
      <trkpt lat="43.58961" lon="2.9125">
        <ele>923</ele>
        <time>2014-01-18T08:49:54Z</time>
      </trkpt>
      <trkpt lat="43.58962" lon="2.9125">
        <ele>923</ele>
        <time>2014-01-18T08:49:55Z</time>
      </trkpt>
      <trkpt lat="43.58963" lon="2.9125">
        <ele>923</ele>
        <time>2014-01-18T08:49:56Z</time>
      </trkpt>
      <trkpt lat="43.58971" lon="2.91252">
        <ele>905</ele>
        <time>2014-01-18T08:50:05Z</time>
      </trkpt>
      <trkpt lat="43.58973" lon="2.91252">
        <ele>906</ele>
        <time>2014-01-18T08:50:07Z</time>
      </trkpt>
      <trkpt lat="43.58976" lon="2.91252">
        <ele>907</ele>
        <time>2014-01-18T08:50:11Z</time>
      </trkpt>
      <trkpt lat="43.58977" lon="2.91251">
        <ele>907</ele>
        <time>2014-01-18T08:50:12Z</time>
      </trkpt>
      <trkpt lat="43.58978" lon="2.91252">
        <ele>907</ele>
        <time>2014-01-18T08:50:13Z</time>
      </trkpt>
      <trkpt lat="43.58978" lon="2.91252">
        <ele>907</ele>
        <time>2014-01-18T08:50:14Z</time>
      </trkpt>
      <trkpt lat="43.58979" lon="2.91252">
        <ele>907</ele>
        <time>2014-01-18T08:50:15Z</time>
      </trkpt>
      <trkpt lat="43.5898" lon="2.91252">
        <ele>908</ele>
        <time>2014-01-18T08:50:16Z</time>
      </trkpt>
      <trkpt lat="43.58981" lon="2.91252">
        <ele>908</ele>
        <time>2014-01-18T08:50:18Z</time>
      </trkpt>
      <trkpt lat="43.58986" lon="2.91252">
        <ele>910</ele>
        <time>2014-01-18T08:50:23Z</time>
      </trkpt>
      <trkpt lat="43.58987" lon="2.91251">
        <ele>910</ele>
        <time>2014-01-18T08:50:24Z</time>
      </trkpt>
      <trkpt lat="43.58987" lon="2.91251">
        <ele>910</ele>
        <time>2014-01-18T08:50:25Z</time>
      </trkpt>
      <trkpt lat="43.58988" lon="2.91252">
        <ele>911</ele>
        <time>2014-01-18T08:50:26Z</time>
      </trkpt>
      <trkpt lat="43.58989" lon="2.91252">
        <ele>911</ele>
        <time>2014-01-18T08:50:27Z</time>
      </trkpt>
      <trkpt lat="43.5899" lon="2.91252">
        <ele>911</ele>
        <time>2014-01-18T08:50:28Z</time>
      </trkpt>
      <trkpt lat="43.5899" lon="2.91252">
        <ele>912</ele>
        <time>2014-01-18T08:50:29Z</time>
      </trkpt>
      <trkpt lat="43.58992" lon="2.91252">
        <ele>912</ele>
        <time>2014-01-18T08:50:30Z</time>
      </trkpt>
      <trkpt lat="43.58993" lon="2.91252">
        <ele>913</ele>
        <time>2014-01-18T08:50:31Z</time>
      </trkpt>
      <trkpt lat="43.58993" lon="2.91252">
        <ele>913</ele>
        <time>2014-01-18T08:50:32Z</time>
      </trkpt>
      <trkpt lat="43.58994" lon="2.91252">
        <ele>914</ele>
        <time>2014-01-18T08:50:33Z</time>
      </trkpt>
      <trkpt lat="43.58999" lon="2.91254">
        <ele>915</ele>
        <time>2014-01-18T08:50:38Z</time>
      </trkpt>
      <trkpt lat="43.59007" lon="2.91256">
        <ele>917</ele>
        <time>2014-01-18T08:50:46Z</time>
      </trkpt>
      <trkpt lat="43.59015" lon="2.9126">
        <ele>916</ele>
        <time>2014-01-18T08:50:54Z</time>
      </trkpt>
      <trkpt lat="43.59016" lon="2.91261">
        <ele>916</ele>
        <time>2014-01-18T08:50:55Z</time>
      </trkpt>
      <trkpt lat="43.59017" lon="2.91261">
        <ele>916</ele>
        <time>2014-01-18T08:50:56Z</time>
      </trkpt>
      <trkpt lat="43.59018" lon="2.91262">
        <ele>916</ele>
        <time>2014-01-18T08:50:57Z</time>
      </trkpt>
      <trkpt lat="43.59019" lon="2.91262">
        <ele>916</ele>
        <time>2014-01-18T08:50:58Z</time>
      </trkpt>
      <trkpt lat="43.59022" lon="2.91263">
        <ele>916</ele>
        <time>2014-01-18T08:51:01Z</time>
      </trkpt>
      <trkpt lat="43.59022" lon="2.91263">
        <ele>916</ele>
        <time>2014-01-18T08:51:02Z</time>
      </trkpt>
      <trkpt lat="43.59027" lon="2.91266">
        <ele>916</ele>
        <time>2014-01-18T08:51:06Z</time>
      </trkpt>
      <trkpt lat="43.59036" lon="2.91272">
        <ele>916</ele>
        <time>2014-01-18T08:51:11Z</time>
      </trkpt>
      <trkpt lat="43.59039" lon="2.91274">
        <ele>916</ele>
        <time>2014-01-18T08:51:13Z</time>
      </trkpt>
      <trkpt lat="43.59042" lon="2.91276">
        <ele>916</ele>
        <time>2014-01-18T08:51:15Z</time>
      </trkpt>
      <trkpt lat="43.59044" lon="2.91276">
        <ele>916</ele>
        <time>2014-01-18T08:51:16Z</time>
      </trkpt>
      <trkpt lat="43.59045" lon="2.91277">
        <ele>916</ele>
        <time>2014-01-18T08:51:17Z</time>
      </trkpt>
      <trkpt lat="43.59047" lon="2.91278">
        <ele>916</ele>
        <time>2014-01-18T08:51:18Z</time>
      </trkpt>
      <trkpt lat="43.59048" lon="2.91279">
        <ele>916</ele>
        <time>2014-01-18T08:51:19Z</time>
      </trkpt>
      <trkpt lat="43.5905" lon="2.9128">
        <ele>916</ele>
        <time>2014-01-18T08:51:20Z</time>
      </trkpt>
      <trkpt lat="43.59055" lon="2.91283">
        <ele>916</ele>
        <time>2014-01-18T08:51:24Z</time>
      </trkpt>
      <trkpt lat="43.59056" lon="2.91285">
        <ele>916</ele>
        <time>2014-01-18T08:51:25Z</time>
      </trkpt>
      <trkpt lat="43.59057" lon="2.91286">
        <ele>916</ele>
        <time>2014-01-18T08:51:26Z</time>
      </trkpt>
      <trkpt lat="43.59058" lon="2.91287">
        <ele>916</ele>
        <time>2014-01-18T08:51:27Z</time>
      </trkpt>
      <trkpt lat="43.59059" lon="2.91288">
        <ele>916</ele>
        <time>2014-01-18T08:51:28Z</time>
      </trkpt>
      <trkpt lat="43.59061" lon="2.91288">
        <ele>916</ele>
        <time>2014-01-18T08:51:31Z</time>
      </trkpt>
      <trkpt lat="43.59061" lon="2.91288">
        <ele>916</ele>
        <time>2014-01-18T08:51:32Z</time>
      </trkpt>
      <trkpt lat="43.59063" lon="2.91287">
        <ele>916</ele>
        <time>2014-01-18T08:51:35Z</time>
      </trkpt>
      <trkpt lat="43.59064" lon="2.91286">
        <ele>916</ele>
        <time>2014-01-18T08:51:36Z</time>
      </trkpt>
      <trkpt lat="43.59071" lon="2.91283">
        <ele>917</ele>
        <time>2014-01-18T08:51:43Z</time>
      </trkpt>
      <trkpt lat="43.59072" lon="2.91283">
        <ele>918</ele>
        <time>2014-01-18T08:51:44Z</time>
      </trkpt>
      <trkpt lat="43.59073" lon="2.91283">
        <ele>918</ele>
        <time>2014-01-18T08:51:45Z</time>
      </trkpt>
      <trkpt lat="43.59074" lon="2.91283">
        <ele>918</ele>
        <time>2014-01-18T08:51:46Z</time>
      </trkpt>
      <trkpt lat="43.59075" lon="2.91282">
        <ele>918</ele>
        <time>2014-01-18T08:51:47Z</time>
      </trkpt>
      <trkpt lat="43.59078" lon="2.91281">
        <ele>919</ele>
        <time>2014-01-18T08:51:51Z</time>
      </trkpt>
      <trkpt lat="43.59079" lon="2.9128">
        <ele>919</ele>
        <time>2014-01-18T08:51:53Z</time>
      </trkpt>
      <trkpt lat="43.59079" lon="2.9128">
        <ele>919</ele>
        <time>2014-01-18T08:52:00Z</time>
      </trkpt>
      <trkpt lat="43.59079" lon="2.9128">
        <ele>919</ele>
        <time>2014-01-18T08:52:01Z</time>
      </trkpt>
      <trkpt lat="43.59079" lon="2.91281">
        <ele>919</ele>
        <time>2014-01-18T08:52:02Z</time>
      </trkpt>
      <trkpt lat="43.59079" lon="2.91281">
        <ele>918</ele>
        <time>2014-01-18T08:52:03Z</time>
      </trkpt>
      <trkpt lat="43.59079" lon="2.91281">
        <ele>919</ele>
        <time>2014-01-18T08:52:04Z</time>
      </trkpt>
      <trkpt lat="43.59079" lon="2.9128">
        <ele>919</ele>
        <time>2014-01-18T08:52:05Z</time>
      </trkpt>
      <trkpt lat="43.5908" lon="2.9128">
        <ele>919</ele>
        <time>2014-01-18T08:52:06Z</time>
      </trkpt>
      <trkpt lat="43.5908" lon="2.9128">
        <ele>919</ele>
        <time>2014-01-18T08:52:08Z</time>
      </trkpt>
      <trkpt lat="43.59079" lon="2.91279">
        <ele>919</ele>
        <time>2014-01-18T08:52:09Z</time>
      </trkpt>
      <trkpt lat="43.5908" lon="2.91277">
        <ele>920</ele>
        <time>2014-01-18T08:52:12Z</time>
      </trkpt>
      <trkpt lat="43.59079" lon="2.91275">
        <ele>920</ele>
        <time>2014-01-18T08:52:16Z</time>
      </trkpt>
      <trkpt lat="43.59079" lon="2.91275">
        <ele>920</ele>
        <time>2014-01-18T08:52:19Z</time>
      </trkpt>
      <trkpt lat="43.59079" lon="2.91274">
        <ele>920</ele>
        <time>2014-01-18T08:52:20Z</time>
      </trkpt>
      <trkpt lat="43.59081" lon="2.91271">
        <ele>921</ele>
        <time>2014-01-18T08:52:24Z</time>
      </trkpt>
      <trkpt lat="43.59081" lon="2.9127">
        <ele>921</ele>
        <time>2014-01-18T08:52:25Z</time>
      </trkpt>
      <trkpt lat="43.59081" lon="2.9127">
        <ele>922</ele>
        <time>2014-01-18T08:52:26Z</time>
      </trkpt>
      <trkpt lat="43.59081" lon="2.91269">
        <ele>922</ele>
        <time>2014-01-18T08:52:27Z</time>
      </trkpt>
      <trkpt lat="43.59081" lon="2.91269">
        <ele>922</ele>
        <time>2014-01-18T08:52:28Z</time>
      </trkpt>
      <trkpt lat="43.59081" lon="2.91267">
        <ele>922</ele>
        <time>2014-01-18T08:52:30Z</time>
      </trkpt>
      <trkpt lat="43.59081" lon="2.91267">
        <ele>922</ele>
        <time>2014-01-18T08:52:31Z</time>
      </trkpt>
      <trkpt lat="43.59082" lon="2.91267">
        <ele>923</ele>
        <time>2014-01-18T08:52:32Z</time>
      </trkpt>
      <trkpt lat="43.59082" lon="2.91266">
        <ele>923</ele>
        <time>2014-01-18T08:52:33Z</time>
      </trkpt>
      <trkpt lat="43.59082" lon="2.91264">
        <ele>924</ele>
        <time>2014-01-18T08:52:34Z</time>
      </trkpt>
      <trkpt lat="43.59083" lon="2.91264">
        <ele>924</ele>
        <time>2014-01-18T08:52:35Z</time>
      </trkpt>
      <trkpt lat="43.59083" lon="2.91263">
        <ele>924</ele>
        <time>2014-01-18T08:52:36Z</time>
      </trkpt>
      <trkpt lat="43.59083" lon="2.9126">
        <ele>925</ele>
        <time>2014-01-18T08:52:38Z</time>
      </trkpt>
      <trkpt lat="43.59084" lon="2.91258">
        <ele>928</ele>
        <time>2014-01-18T08:52:41Z</time>
      </trkpt>
      <trkpt lat="43.59084" lon="2.91257">
        <ele>928</ele>
        <time>2014-01-18T08:52:42Z</time>
      </trkpt>
      <trkpt lat="43.59085" lon="2.91257">
        <ele>928</ele>
        <time>2014-01-18T08:52:43Z</time>
      </trkpt>
      <trkpt lat="43.59085" lon="2.91256">
        <ele>929</ele>
        <time>2014-01-18T08:52:45Z</time>
      </trkpt>
      <trkpt lat="43.59085" lon="2.91252">
        <ele>930</ele>
        <time>2014-01-18T08:52:48Z</time>
      </trkpt>
      <trkpt lat="43.59085" lon="2.91251">
        <ele>930</ele>
        <time>2014-01-18T08:52:49Z</time>
      </trkpt>
      <trkpt lat="43.59085" lon="2.9125">
        <ele>930</ele>
        <time>2014-01-18T08:52:50Z</time>
      </trkpt>
      <trkpt lat="43.59085" lon="2.9125">
        <ele>932</ele>
        <time>2014-01-18T08:52:51Z</time>
      </trkpt>
      <trkpt lat="43.59085" lon="2.91249">
        <ele>932</ele>
        <time>2014-01-18T08:52:52Z</time>
      </trkpt>
      <trkpt lat="43.59085" lon="2.91249">
        <ele>932</ele>
        <time>2014-01-18T08:52:53Z</time>
      </trkpt>
      <trkpt lat="43.59086" lon="2.91245">
        <ele>933</ele>
        <time>2014-01-18T08:52:57Z</time>
      </trkpt>
      <trkpt lat="43.59086" lon="2.91245">
        <ele>933</ele>
        <time>2014-01-18T08:52:58Z</time>
      </trkpt>
      <trkpt lat="43.59087" lon="2.91241">
        <ele>934</ele>
        <time>2014-01-18T08:53:02Z</time>
      </trkpt>
      <trkpt lat="43.59087" lon="2.9124">
        <ele>935</ele>
        <time>2014-01-18T08:53:05Z</time>
      </trkpt>
      <trkpt lat="43.59087" lon="2.91239">
        <ele>935</ele>
        <time>2014-01-18T08:53:06Z</time>
      </trkpt>
      <trkpt lat="43.59088" lon="2.91238">
        <ele>935</ele>
        <time>2014-01-18T08:53:07Z</time>
      </trkpt>
      <trkpt lat="43.59088" lon="2.91238">
        <ele>935</ele>
        <time>2014-01-18T08:53:08Z</time>
      </trkpt>
      <trkpt lat="43.59088" lon="2.91236">
        <ele>936</ele>
        <time>2014-01-18T08:53:11Z</time>
      </trkpt>
      <trkpt lat="43.59088" lon="2.91234">
        <ele>936</ele>
        <time>2014-01-18T08:53:13Z</time>
      </trkpt>
      <trkpt lat="43.59089" lon="2.91234">
        <ele>936</ele>
        <time>2014-01-18T08:53:14Z</time>
      </trkpt>
      <trkpt lat="43.59089" lon="2.91233">
        <ele>936</ele>
        <time>2014-01-18T08:53:15Z</time>
      </trkpt>
      <trkpt lat="43.59089" lon="2.91233">
        <ele>936</ele>
        <time>2014-01-18T08:53:17Z</time>
      </trkpt>
      <trkpt lat="43.59089" lon="2.91232">
        <ele>936</ele>
        <time>2014-01-18T08:53:18Z</time>
      </trkpt>
      <trkpt lat="43.5909" lon="2.91231">
        <ele>937</ele>
        <time>2014-01-18T08:53:21Z</time>
      </trkpt>
      <trkpt lat="43.5909" lon="2.9123">
        <ele>937</ele>
        <time>2014-01-18T08:53:22Z</time>
      </trkpt>
      <trkpt lat="43.5909" lon="2.91228">
        <ele>937</ele>
        <time>2014-01-18T08:53:23Z</time>
      </trkpt>
      <trkpt lat="43.5909" lon="2.91227">
        <ele>938</ele>
        <time>2014-01-18T08:53:24Z</time>
      </trkpt>
      <trkpt lat="43.59091" lon="2.91226">
        <ele>938</ele>
        <time>2014-01-18T08:53:25Z</time>
      </trkpt>
      <trkpt lat="43.59091" lon="2.91225">
        <ele>938</ele>
        <time>2014-01-18T08:53:26Z</time>
      </trkpt>
      <trkpt lat="43.59091" lon="2.91225">
        <ele>938</ele>
        <time>2014-01-18T08:53:27Z</time>
      </trkpt>
      <trkpt lat="43.59091" lon="2.91224">
        <ele>938</ele>
        <time>2014-01-18T08:53:29Z</time>
      </trkpt>
      <trkpt lat="43.59091" lon="2.91224">
        <ele>938</ele>
        <time>2014-01-18T08:53:30Z</time>
      </trkpt>
      <trkpt lat="43.59091" lon="2.91223">
        <ele>938</ele>
        <time>2014-01-18T08:53:31Z</time>
      </trkpt>
      <trkpt lat="43.59091" lon="2.91219">
        <ele>939</ele>
        <time>2014-01-18T08:53:34Z</time>
      </trkpt>
      <trkpt lat="43.59092" lon="2.91218">
        <ele>939</ele>
        <time>2014-01-18T08:53:35Z</time>
      </trkpt>
      <trkpt lat="43.59092" lon="2.91218">
        <ele>939</ele>
        <time>2014-01-18T08:53:36Z</time>
      </trkpt>
      <trkpt lat="43.59092" lon="2.91218">
        <ele>939</ele>
        <time>2014-01-18T08:53:37Z</time>
      </trkpt>
      <trkpt lat="43.59092" lon="2.91217">
        <ele>939</ele>
        <time>2014-01-18T08:53:38Z</time>
      </trkpt>
      <trkpt lat="43.59092" lon="2.91217">
        <ele>940</ele>
        <time>2014-01-18T08:53:39Z</time>
      </trkpt>
      <trkpt lat="43.59092" lon="2.91214">
        <ele>940</ele>
        <time>2014-01-18T08:53:42Z</time>
      </trkpt>
      <trkpt lat="43.59093" lon="2.91213">
        <ele>940</ele>
        <time>2014-01-18T08:53:43Z</time>
      </trkpt>
      <trkpt lat="43.59093" lon="2.91213">
        <ele>940</ele>
        <time>2014-01-18T08:53:44Z</time>
      </trkpt>
      <trkpt lat="43.59093" lon="2.91211">
        <ele>941</ele>
        <time>2014-01-18T08:53:46Z</time>
      </trkpt>
      <trkpt lat="43.59094" lon="2.91209">
        <ele>941</ele>
        <time>2014-01-18T08:53:49Z</time>
      </trkpt>
      <trkpt lat="43.59094" lon="2.91208">
        <ele>941</ele>
        <time>2014-01-18T08:53:50Z</time>
      </trkpt>
      <trkpt lat="43.59094" lon="2.91207">
        <ele>941</ele>
        <time>2014-01-18T08:53:51Z</time>
      </trkpt>
      <trkpt lat="43.59095" lon="2.91206">
        <ele>942</ele>
        <time>2014-01-18T08:53:52Z</time>
      </trkpt>
      <trkpt lat="43.59095" lon="2.91205">
        <ele>942</ele>
        <time>2014-01-18T08:53:53Z</time>
      </trkpt>
      <trkpt lat="43.59096" lon="2.91204">
        <ele>942</ele>
        <time>2014-01-18T08:53:54Z</time>
      </trkpt>
      <trkpt lat="43.59097" lon="2.91204">
        <ele>942</ele>
        <time>2014-01-18T08:53:55Z</time>
      </trkpt>
      <trkpt lat="43.59097" lon="2.91205">
        <ele>942</ele>
        <time>2014-01-18T08:53:56Z</time>
      </trkpt>
      <trkpt lat="43.59098" lon="2.91205">
        <ele>942</ele>
        <time>2014-01-18T08:53:57Z</time>
      </trkpt>
      <trkpt lat="43.59098" lon="2.91203">
        <ele>942</ele>
        <time>2014-01-18T08:54:33Z</time>
      </trkpt>
      <trkpt lat="43.59098" lon="2.91202">
        <ele>942</ele>
        <time>2014-01-18T08:54:34Z</time>
      </trkpt>
      <trkpt lat="43.59098" lon="2.91201">
        <ele>942</ele>
        <time>2014-01-18T08:54:35Z</time>
      </trkpt>
      <trkpt lat="43.59099" lon="2.912">
        <ele>943</ele>
        <time>2014-01-18T08:54:36Z</time>
      </trkpt>
      <trkpt lat="43.59099" lon="2.91199">
        <ele>943</ele>
        <time>2014-01-18T08:54:37Z</time>
      </trkpt>
      <trkpt lat="43.591" lon="2.91198">
        <ele>943</ele>
        <time>2014-01-18T08:54:38Z</time>
      </trkpt>
      <trkpt lat="43.591" lon="2.91196">
        <ele>943</ele>
        <time>2014-01-18T08:54:40Z</time>
      </trkpt>
      <trkpt lat="43.591" lon="2.91195">
        <ele>943</ele>
        <time>2014-01-18T08:54:41Z</time>
      </trkpt>
      <trkpt lat="43.591" lon="2.91194">
        <ele>944</ele>
        <time>2014-01-18T08:54:43Z</time>
      </trkpt>
      <trkpt lat="43.591" lon="2.91194">
        <ele>944</ele>
        <time>2014-01-18T08:54:44Z</time>
      </trkpt>
      <trkpt lat="43.591" lon="2.91192">
        <ele>944</ele>
        <time>2014-01-18T08:54:46Z</time>
      </trkpt>
      <trkpt lat="43.59101" lon="2.91191">
        <ele>944</ele>
        <time>2014-01-18T08:54:47Z</time>
      </trkpt>
      <trkpt lat="43.59101" lon="2.9119">
        <ele>944</ele>
        <time>2014-01-18T08:54:48Z</time>
      </trkpt>
      <trkpt lat="43.591" lon="2.91189">
        <ele>944</ele>
        <time>2014-01-18T08:54:49Z</time>
      </trkpt>
      <trkpt lat="43.591" lon="2.91188">
        <ele>945</ele>
        <time>2014-01-18T08:54:50Z</time>
      </trkpt>
      <trkpt lat="43.591" lon="2.91188">
        <ele>945</ele>
        <time>2014-01-18T08:54:51Z</time>
      </trkpt>
      <trkpt lat="43.59099" lon="2.91188">
        <ele>945</ele>
        <time>2014-01-18T08:54:52Z</time>
      </trkpt>
      <trkpt lat="43.59099" lon="2.91187">
        <ele>945</ele>
        <time>2014-01-18T08:54:54Z</time>
      </trkpt>
      <trkpt lat="43.59099" lon="2.91186">
        <ele>945</ele>
        <time>2014-01-18T08:54:57Z</time>
      </trkpt>
      <trkpt lat="43.591" lon="2.91184">
        <ele>945</ele>
        <time>2014-01-18T08:55:00Z</time>
      </trkpt>
      <trkpt lat="43.591" lon="2.91183">
        <ele>945</ele>
        <time>2014-01-18T08:55:02Z</time>
      </trkpt>
      <trkpt lat="43.59101" lon="2.91181">
        <ele>946</ele>
        <time>2014-01-18T08:55:05Z</time>
      </trkpt>
      <trkpt lat="43.59101" lon="2.9118">
        <ele>946</ele>
        <time>2014-01-18T08:55:06Z</time>
      </trkpt>
      <trkpt lat="43.59101" lon="2.91179">
        <ele>946</ele>
        <time>2014-01-18T08:55:07Z</time>
      </trkpt>
      <trkpt lat="43.59101" lon="2.91179">
        <ele>946</ele>
        <time>2014-01-18T08:55:08Z</time>
      </trkpt>
      <trkpt lat="43.59101" lon="2.91178">
        <ele>946</ele>
        <time>2014-01-18T08:55:09Z</time>
      </trkpt>
      <trkpt lat="43.59102" lon="2.91177">
        <ele>946</ele>
        <time>2014-01-18T08:55:10Z</time>
      </trkpt>
      <trkpt lat="43.59102" lon="2.91177">
        <ele>946</ele>
        <time>2014-01-18T08:55:11Z</time>
      </trkpt>
      <trkpt lat="43.59102" lon="2.91176">
        <ele>946</ele>
        <time>2014-01-18T08:55:12Z</time>
      </trkpt>
      <trkpt lat="43.59102" lon="2.91175">
        <ele>946</ele>
        <time>2014-01-18T08:55:13Z</time>
      </trkpt>
      <trkpt lat="43.59103" lon="2.91174">
        <ele>946</ele>
        <time>2014-01-18T08:55:14Z</time>
      </trkpt>
      <trkpt lat="43.59103" lon="2.91172">
        <ele>947</ele>
        <time>2014-01-18T08:55:16Z</time>
      </trkpt>
      <trkpt lat="43.59104" lon="2.91168">
        <ele>947</ele>
        <time>2014-01-18T08:55:21Z</time>
      </trkpt>
      <trkpt lat="43.59104" lon="2.91168">
        <ele>947</ele>
        <time>2014-01-18T08:55:23Z</time>
      </trkpt>
      <trkpt lat="43.59104" lon="2.91167">
        <ele>947</ele>
        <time>2014-01-18T08:55:24Z</time>
      </trkpt>
      <trkpt lat="43.59103" lon="2.91167">
        <ele>958</ele>
        <time>2014-01-18T08:55:25Z</time>
      </trkpt>
      <trkpt lat="43.59103" lon="2.91166">
        <ele>958</ele>
        <time>2014-01-18T08:55:27Z</time>
      </trkpt>
      <trkpt lat="43.59104" lon="2.91165">
        <ele>958</ele>
        <time>2014-01-18T08:55:28Z</time>
      </trkpt>
      <trkpt lat="43.59104" lon="2.91163">
        <ele>958</ele>
        <time>2014-01-18T08:55:31Z</time>
      </trkpt>
      <trkpt lat="43.59104" lon="2.91163">
        <ele>958</ele>
        <time>2014-01-18T08:55:32Z</time>
      </trkpt>
      <trkpt lat="43.59104" lon="2.9116">
        <ele>958</ele>
        <time>2014-01-18T08:55:35Z</time>
      </trkpt>
      <trkpt lat="43.59104" lon="2.9116">
        <ele>958</ele>
        <time>2014-01-18T08:55:36Z</time>
      </trkpt>
      <trkpt lat="43.59104" lon="2.9116">
        <ele>958</ele>
        <time>2014-01-18T08:55:37Z</time>
      </trkpt>
      <trkpt lat="43.59104" lon="2.91158">
        <ele>958</ele>
        <time>2014-01-18T08:55:39Z</time>
      </trkpt>
      <trkpt lat="43.59105" lon="2.91157">
        <ele>958</ele>
        <time>2014-01-18T08:55:40Z</time>
      </trkpt>
      <trkpt lat="43.59105" lon="2.91156">
        <ele>959</ele>
        <time>2014-01-18T08:55:41Z</time>
      </trkpt>
      <trkpt lat="43.59106" lon="2.91156">
        <ele>959</ele>
        <time>2014-01-18T08:55:42Z</time>
      </trkpt>
      <trkpt lat="43.59106" lon="2.91155">
        <ele>959</ele>
        <time>2014-01-18T08:55:43Z</time>
      </trkpt>
      <trkpt lat="43.59106" lon="2.91154">
        <ele>959</ele>
        <time>2014-01-18T08:55:44Z</time>
      </trkpt>
      <trkpt lat="43.59106" lon="2.9115">
        <ele>959</ele>
        <time>2014-01-18T08:55:48Z</time>
      </trkpt>
      <trkpt lat="43.59107" lon="2.91149">
        <ele>959</ele>
        <time>2014-01-18T08:55:49Z</time>
      </trkpt>
      <trkpt lat="43.59107" lon="2.91149">
        <ele>959</ele>
        <time>2014-01-18T08:55:50Z</time>
      </trkpt>
      <trkpt lat="43.59107" lon="2.91149">
        <ele>960</ele>
        <time>2014-01-18T08:55:51Z</time>
      </trkpt>
      <trkpt lat="43.59108" lon="2.91146">
        <ele>960</ele>
        <time>2014-01-18T08:55:55Z</time>
      </trkpt>
      <trkpt lat="43.59108" lon="2.91144">
        <ele>960</ele>
        <time>2014-01-18T08:55:58Z</time>
      </trkpt>
      <trkpt lat="43.59108" lon="2.91143">
        <ele>960</ele>
        <time>2014-01-18T08:55:59Z</time>
      </trkpt>
      <trkpt lat="43.59109" lon="2.91143">
        <ele>960</ele>
        <time>2014-01-18T08:56:00Z</time>
      </trkpt>
      <trkpt lat="43.59109" lon="2.91141">
        <ele>961</ele>
        <time>2014-01-18T08:56:01Z</time>
      </trkpt>
      <trkpt lat="43.59109" lon="2.91141">
        <ele>961</ele>
        <time>2014-01-18T08:56:02Z</time>
      </trkpt>
      <trkpt lat="43.59109" lon="2.91141">
        <ele>961</ele>
        <time>2014-01-18T08:56:04Z</time>
      </trkpt>
      <trkpt lat="43.59109" lon="2.9114">
        <ele>961</ele>
        <time>2014-01-18T08:56:05Z</time>
      </trkpt>
      <trkpt lat="43.59109" lon="2.91139">
        <ele>961</ele>
        <time>2014-01-18T08:56:06Z</time>
      </trkpt>
      <trkpt lat="43.5911" lon="2.91139">
        <ele>961</ele>
        <time>2014-01-18T08:56:07Z</time>
      </trkpt>
      <trkpt lat="43.59111" lon="2.91137">
        <ele>961</ele>
        <time>2014-01-18T08:56:10Z</time>
      </trkpt>
      <trkpt lat="43.59111" lon="2.91135">
        <ele>962</ele>
        <time>2014-01-18T08:56:13Z</time>
      </trkpt>
      <trkpt lat="43.59111" lon="2.91134">
        <ele>962</ele>
        <time>2014-01-18T08:56:14Z</time>
      </trkpt>
      <trkpt lat="43.59111" lon="2.91133">
        <ele>962</ele>
        <time>2014-01-18T08:56:15Z</time>
      </trkpt>
      <trkpt lat="43.59111" lon="2.91133">
        <ele>962</ele>
        <time>2014-01-18T08:56:16Z</time>
      </trkpt>
      <trkpt lat="43.5911" lon="2.91132">
        <ele>962</ele>
        <time>2014-01-18T08:56:17Z</time>
      </trkpt>
      <trkpt lat="43.5911" lon="2.91129">
        <ele>963</ele>
        <time>2014-01-18T08:56:19Z</time>
      </trkpt>
      <trkpt lat="43.59107" lon="2.91126">
        <ele>963</ele>
        <time>2014-01-18T08:56:24Z</time>
      </trkpt>
      <trkpt lat="43.59107" lon="2.91127">
        <ele>963</ele>
        <time>2014-01-18T08:56:27Z</time>
      </trkpt>
      <trkpt lat="43.59106" lon="2.91126">
        <ele>963</ele>
        <time>2014-01-18T08:56:28Z</time>
      </trkpt>
      <trkpt lat="43.59105" lon="2.91126">
        <ele>963</ele>
        <time>2014-01-18T08:56:29Z</time>
      </trkpt>
      <trkpt lat="43.59105" lon="2.91126">
        <ele>963</ele>
        <time>2014-01-18T08:56:30Z</time>
      </trkpt>
      <trkpt lat="43.59102" lon="2.91125">
        <ele>964</ele>
        <time>2014-01-18T08:56:33Z</time>
      </trkpt>
      <trkpt lat="43.59096" lon="2.91123">
        <ele>964</ele>
        <time>2014-01-18T08:56:40Z</time>
      </trkpt>
      <trkpt lat="43.59095" lon="2.91122">
        <ele>964</ele>
        <time>2014-01-18T08:56:41Z</time>
      </trkpt>
      <trkpt lat="43.59094" lon="2.91122">
        <ele>964</ele>
        <time>2014-01-18T08:56:42Z</time>
      </trkpt>
      <trkpt lat="43.59094" lon="2.91122">
        <ele>965</ele>
        <time>2014-01-18T08:56:43Z</time>
      </trkpt>
      <trkpt lat="43.59093" lon="2.91121">
        <ele>965</ele>
        <time>2014-01-18T08:56:44Z</time>
      </trkpt>
      <trkpt lat="43.59091" lon="2.91121">
        <ele>965</ele>
        <time>2014-01-18T08:56:46Z</time>
      </trkpt>
      <trkpt lat="43.59091" lon="2.9112">
        <ele>965</ele>
        <time>2014-01-18T08:56:47Z</time>
      </trkpt>
      <trkpt lat="43.5909" lon="2.9112">
        <ele>965</ele>
        <time>2014-01-18T08:56:48Z</time>
      </trkpt>
      <trkpt lat="43.59089" lon="2.9112">
        <ele>965</ele>
        <time>2014-01-18T08:56:49Z</time>
      </trkpt>
      <trkpt lat="43.59088" lon="2.9112">
        <ele>965</ele>
        <time>2014-01-18T08:56:50Z</time>
      </trkpt>
      <trkpt lat="43.59087" lon="2.9112">
        <ele>965</ele>
        <time>2014-01-18T08:56:51Z</time>
      </trkpt>
      <trkpt lat="43.59084" lon="2.91118">
        <ele>966</ele>
        <time>2014-01-18T08:56:54Z</time>
      </trkpt>
      <trkpt lat="43.59079" lon="2.91116">
        <ele>971</ele>
        <time>2014-01-18T08:57:01Z</time>
      </trkpt>
      <trkpt lat="43.59077" lon="2.91116">
        <ele>971</ele>
        <time>2014-01-18T08:57:04Z</time>
      </trkpt>
      <trkpt lat="43.59075" lon="2.91116">
        <ele>971</ele>
        <time>2014-01-18T08:57:05Z</time>
      </trkpt>
      <trkpt lat="43.59075" lon="2.91116">
        <ele>970</ele>
        <time>2014-01-18T08:57:06Z</time>
      </trkpt>
      <trkpt lat="43.59074" lon="2.91116">
        <ele>970</ele>
        <time>2014-01-18T08:57:07Z</time>
      </trkpt>
      <trkpt lat="43.59072" lon="2.91116">
        <ele>970</ele>
        <time>2014-01-18T08:57:08Z</time>
      </trkpt>
      <trkpt lat="43.59072" lon="2.91117">
        <ele>970</ele>
        <time>2014-01-18T08:57:09Z</time>
      </trkpt>
      <trkpt lat="43.59065" lon="2.9112">
        <ele>970</ele>
        <time>2014-01-18T08:57:16Z</time>
      </trkpt>
      <trkpt lat="43.59063" lon="2.9112">
        <ele>970</ele>
        <time>2014-01-18T08:57:18Z</time>
      </trkpt>
      <trkpt lat="43.59062" lon="2.91121">
        <ele>970</ele>
        <time>2014-01-18T08:57:19Z</time>
      </trkpt>
      <trkpt lat="43.59061" lon="2.91121">
        <ele>970</ele>
        <time>2014-01-18T08:57:20Z</time>
      </trkpt>
      <trkpt lat="43.5906" lon="2.91121">
        <ele>970</ele>
        <time>2014-01-18T08:57:21Z</time>
      </trkpt>
      <trkpt lat="43.59059" lon="2.91121">
        <ele>969</ele>
        <time>2014-01-18T08:57:22Z</time>
      </trkpt>
      <trkpt lat="43.59058" lon="2.91121">
        <ele>969</ele>
        <time>2014-01-18T08:57:23Z</time>
      </trkpt>
      <trkpt lat="43.59052" lon="2.91122">
        <ele>969</ele>
        <time>2014-01-18T08:57:29Z</time>
      </trkpt>
      <trkpt lat="43.59051" lon="2.91123">
        <ele>969</ele>
        <time>2014-01-18T08:57:30Z</time>
      </trkpt>
      <trkpt lat="43.5905" lon="2.91123">
        <ele>969</ele>
        <time>2014-01-18T08:57:31Z</time>
      </trkpt>
      <trkpt lat="43.59049" lon="2.91124">
        <ele>969</ele>
        <time>2014-01-18T08:57:32Z</time>
      </trkpt>
      <trkpt lat="43.59048" lon="2.91124">
        <ele>969</ele>
        <time>2014-01-18T08:57:33Z</time>
      </trkpt>
      <trkpt lat="43.59045" lon="2.91124">
        <ele>969</ele>
        <time>2014-01-18T08:57:36Z</time>
      </trkpt>
      <trkpt lat="43.5904" lon="2.91125">
        <ele>969</ele>
        <time>2014-01-18T08:57:42Z</time>
      </trkpt>
      <trkpt lat="43.59036" lon="2.91126">
        <ele>969</ele>
        <time>2014-01-18T08:57:47Z</time>
      </trkpt>
      <trkpt lat="43.59035" lon="2.91125">
        <ele>969</ele>
        <time>2014-01-18T08:57:48Z</time>
      </trkpt>
      <trkpt lat="43.59031" lon="2.91125">
        <ele>970</ele>
        <time>2014-01-18T08:57:52Z</time>
      </trkpt>
      <trkpt lat="43.59031" lon="2.91125">
        <ele>970</ele>
        <time>2014-01-18T08:57:53Z</time>
      </trkpt>
      <trkpt lat="43.59028" lon="2.91125">
        <ele>970</ele>
        <time>2014-01-18T08:57:56Z</time>
      </trkpt>
      <trkpt lat="43.59025" lon="2.91125">
        <ele>970</ele>
        <time>2014-01-18T08:58:00Z</time>
      </trkpt>
      <trkpt lat="43.59022" lon="2.91125">
        <ele>970</ele>
        <time>2014-01-18T08:58:03Z</time>
      </trkpt>
      <trkpt lat="43.5902" lon="2.91125">
        <ele>970</ele>
        <time>2014-01-18T08:58:06Z</time>
      </trkpt>
      <trkpt lat="43.59015" lon="2.91124">
        <ele>970</ele>
        <time>2014-01-18T08:58:13Z</time>
      </trkpt>
      <trkpt lat="43.59014" lon="2.91123">
        <ele>971</ele>
        <time>2014-01-18T08:58:14Z</time>
      </trkpt>
      <trkpt lat="43.59013" lon="2.91123">
        <ele>971</ele>
        <time>2014-01-18T08:58:15Z</time>
      </trkpt>
      <trkpt lat="43.59012" lon="2.91123">
        <ele>971</ele>
        <time>2014-01-18T08:58:16Z</time>
      </trkpt>
      <trkpt lat="43.59011" lon="2.91123">
        <ele>971</ele>
        <time>2014-01-18T08:58:17Z</time>
      </trkpt>
      <trkpt lat="43.59011" lon="2.91124">
        <ele>971</ele>
        <time>2014-01-18T08:58:18Z</time>
      </trkpt>
      <trkpt lat="43.59011" lon="2.91124">
        <ele>971</ele>
        <time>2014-01-18T08:58:19Z</time>
      </trkpt>
      <trkpt lat="43.59011" lon="2.91124">
        <ele>971</ele>
        <time>2014-01-18T08:58:20Z</time>
      </trkpt>
      <trkpt lat="43.5901" lon="2.91124">
        <ele>971</ele>
        <time>2014-01-18T08:58:22Z</time>
      </trkpt>
      <trkpt lat="43.5901" lon="2.91124">
        <ele>971</ele>
        <time>2014-01-18T08:58:33Z</time>
      </trkpt>
      <trkpt lat="43.59009" lon="2.91124">
        <ele>971</ele>
        <time>2014-01-18T08:58:34Z</time>
      </trkpt>
      <trkpt lat="43.59009" lon="2.91124">
        <ele>970</ele>
        <time>2014-01-18T08:58:35Z</time>
      </trkpt>
      <trkpt lat="43.59008" lon="2.91124">
        <ele>970</ele>
        <time>2014-01-18T08:58:37Z</time>
      </trkpt>
      <trkpt lat="43.59008" lon="2.91124">
        <ele>971</ele>
        <time>2014-01-18T08:58:38Z</time>
      </trkpt>
      <trkpt lat="43.59008" lon="2.91124">
        <ele>971</ele>
        <time>2014-01-18T08:58:41Z</time>
      </trkpt>
      <trkpt lat="43.59006" lon="2.91125">
        <ele>970</ele>
        <time>2014-01-18T08:58:45Z</time>
      </trkpt>
      <trkpt lat="43.59006" lon="2.91125">
        <ele>970</ele>
        <time>2014-01-18T08:58:46Z</time>
      </trkpt>
      <trkpt lat="43.59005" lon="2.91125">
        <ele>970</ele>
        <time>2014-01-18T08:58:48Z</time>
      </trkpt>
      <trkpt lat="43.59004" lon="2.91124">
        <ele>971</ele>
        <time>2014-01-18T08:58:49Z</time>
      </trkpt>
      <trkpt lat="43.59002" lon="2.91124">
        <ele>971</ele>
        <time>2014-01-18T08:58:50Z</time>
      </trkpt>
      <trkpt lat="43.59002" lon="2.91124">
        <ele>971</ele>
        <time>2014-01-18T08:58:51Z</time>
      </trkpt>
      <trkpt lat="43.59002" lon="2.91124">
        <ele>971</ele>
        <time>2014-01-18T08:58:52Z</time>
      </trkpt>
      <trkpt lat="43.58998" lon="2.91123">
        <ele>969</ele>
        <time>2014-01-18T08:58:57Z</time>
      </trkpt>
      <trkpt lat="43.58997" lon="2.91122">
        <ele>969</ele>
        <time>2014-01-18T08:58:59Z</time>
      </trkpt>
      <trkpt lat="43.58996" lon="2.91122">
        <ele>969</ele>
        <time>2014-01-18T08:59:00Z</time>
      </trkpt>
      <trkpt lat="43.58994" lon="2.91123">
        <ele>969</ele>
        <time>2014-01-18T08:59:02Z</time>
      </trkpt>
      <trkpt lat="43.58992" lon="2.91122">
        <ele>969</ele>
        <time>2014-01-18T08:59:05Z</time>
      </trkpt>
      <trkpt lat="43.58989" lon="2.91122">
        <ele>969</ele>
        <time>2014-01-18T08:59:07Z</time>
      </trkpt>
      <trkpt lat="43.58982" lon="2.91122">
        <ele>969</ele>
        <time>2014-01-18T08:59:14Z</time>
      </trkpt>
      <trkpt lat="43.58982" lon="2.91122">
        <ele>969</ele>
        <time>2014-01-18T08:59:15Z</time>
      </trkpt>
      <trkpt lat="43.5898" lon="2.91122">
        <ele>969</ele>
        <time>2014-01-18T08:59:16Z</time>
      </trkpt>
      <trkpt lat="43.5898" lon="2.91122">
        <ele>969</ele>
        <time>2014-01-18T08:59:17Z</time>
      </trkpt>
      <trkpt lat="43.58979" lon="2.91121">
        <ele>969</ele>
        <time>2014-01-18T08:59:18Z</time>
      </trkpt>
      <trkpt lat="43.58978" lon="2.91121">
        <ele>969</ele>
        <time>2014-01-18T08:59:19Z</time>
      </trkpt>
      <trkpt lat="43.58977" lon="2.91121">
        <ele>969</ele>
        <time>2014-01-18T08:59:20Z</time>
      </trkpt>
      <trkpt lat="43.58977" lon="2.91121">
        <ele>969</ele>
        <time>2014-01-18T08:59:28Z</time>
      </trkpt>
      <trkpt lat="43.58978" lon="2.9112">
        <ele>969</ele>
        <time>2014-01-18T08:59:29Z</time>
      </trkpt>
      <trkpt lat="43.58978" lon="2.9112">
        <ele>969</ele>
        <time>2014-01-18T08:59:30Z</time>
      </trkpt>
      <trkpt lat="43.58977" lon="2.9112">
        <ele>969</ele>
        <time>2014-01-18T08:59:31Z</time>
      </trkpt>
      <trkpt lat="43.58975" lon="2.91116">
        <ele>970</ele>
        <time>2014-01-18T08:59:36Z</time>
      </trkpt>
      <trkpt lat="43.58974" lon="2.91116">
        <ele>970</ele>
        <time>2014-01-18T08:59:37Z</time>
      </trkpt>
      <trkpt lat="43.58974" lon="2.91116">
        <ele>970</ele>
        <time>2014-01-18T08:59:38Z</time>
      </trkpt>
      <trkpt lat="43.58973" lon="2.91115">
        <ele>970</ele>
        <time>2014-01-18T08:59:39Z</time>
      </trkpt>
      <trkpt lat="43.58973" lon="2.91115">
        <ele>970</ele>
        <time>2014-01-18T08:59:40Z</time>
      </trkpt>
      <trkpt lat="43.58972" lon="2.91114">
        <ele>970</ele>
        <time>2014-01-18T08:59:41Z</time>
      </trkpt>
      <trkpt lat="43.5897" lon="2.91112">
        <ele>971</ele>
        <time>2014-01-18T08:59:45Z</time>
      </trkpt>
      <trkpt lat="43.58969" lon="2.91112">
        <ele>970</ele>
        <time>2014-01-18T08:59:46Z</time>
      </trkpt>
      <trkpt lat="43.58967" lon="2.91112">
        <ele>970</ele>
        <time>2014-01-18T08:59:48Z</time>
      </trkpt>
      <trkpt lat="43.58963" lon="2.91109">
        <ele>970</ele>
        <time>2014-01-18T08:59:54Z</time>
      </trkpt>
      <trkpt lat="43.58958" lon="2.91106">
        <ele>971</ele>
        <time>2014-01-18T09:00:02Z</time>
      </trkpt>
      <trkpt lat="43.58958" lon="2.91105">
        <ele>971</ele>
        <time>2014-01-18T09:00:03Z</time>
      </trkpt>
      <trkpt lat="43.58957" lon="2.91105">
        <ele>971</ele>
        <time>2014-01-18T09:00:04Z</time>
      </trkpt>
      <trkpt lat="43.58955" lon="2.91104">
        <ele>971</ele>
        <time>2014-01-18T09:00:08Z</time>
      </trkpt>
      <trkpt lat="43.58953" lon="2.91104">
        <ele>971</ele>
        <time>2014-01-18T09:00:10Z</time>
      </trkpt>
      <trkpt lat="43.58951" lon="2.91102">
        <ele>971</ele>
        <time>2014-01-18T09:00:14Z</time>
      </trkpt>
      <trkpt lat="43.5895" lon="2.91101">
        <ele>971</ele>
        <time>2014-01-18T09:00:16Z</time>
      </trkpt>
      <trkpt lat="43.58949" lon="2.91101">
        <ele>971</ele>
        <time>2014-01-18T09:00:17Z</time>
      </trkpt>
      <trkpt lat="43.58947" lon="2.91101">
        <ele>971</ele>
        <time>2014-01-18T09:00:20Z</time>
      </trkpt>
      <trkpt lat="43.58945" lon="2.91099">
        <ele>972</ele>
        <time>2014-01-18T09:00:25Z</time>
      </trkpt>
      <trkpt lat="43.58944" lon="2.91099">
        <ele>972</ele>
        <time>2014-01-18T09:00:27Z</time>
      </trkpt>
      <trkpt lat="43.58943" lon="2.91098">
        <ele>972</ele>
        <time>2014-01-18T09:00:28Z</time>
      </trkpt>
      <trkpt lat="43.58943" lon="2.91098">
        <ele>972</ele>
        <time>2014-01-18T09:00:29Z</time>
      </trkpt>
      <trkpt lat="43.58942" lon="2.91098">
        <ele>972</ele>
        <time>2014-01-18T09:00:30Z</time>
      </trkpt>
      <trkpt lat="43.58941" lon="2.91097">
        <ele>972</ele>
        <time>2014-01-18T09:00:31Z</time>
      </trkpt>
      <trkpt lat="43.58937" lon="2.91096">
        <ele>972</ele>
        <time>2014-01-18T09:00:37Z</time>
      </trkpt>
      <trkpt lat="43.58937" lon="2.91096">
        <ele>973</ele>
        <time>2014-01-18T09:00:38Z</time>
      </trkpt>
      <trkpt lat="43.58934" lon="2.91094">
        <ele>973</ele>
        <time>2014-01-18T09:00:42Z</time>
      </trkpt>
      <trkpt lat="43.58934" lon="2.91093">
        <ele>973</ele>
        <time>2014-01-18T09:00:43Z</time>
      </trkpt>
      <trkpt lat="43.58935" lon="2.91093">
        <ele>973</ele>
        <time>2014-01-18T09:00:44Z</time>
      </trkpt>
      <trkpt lat="43.58935" lon="2.91093">
        <ele>973</ele>
        <time>2014-01-18T09:00:45Z</time>
      </trkpt>
      <trkpt lat="43.58936" lon="2.91093">
        <ele>973</ele>
        <time>2014-01-18T09:00:46Z</time>
      </trkpt>
      <trkpt lat="43.58936" lon="2.91092">
        <ele>973</ele>
        <time>2014-01-18T09:00:47Z</time>
      </trkpt>
      <trkpt lat="43.58936" lon="2.91092">
        <ele>973</ele>
        <time>2014-01-18T09:00:49Z</time>
      </trkpt>
      <trkpt lat="43.58937" lon="2.91092">
        <ele>973</ele>
        <time>2014-01-18T09:00:51Z</time>
      </trkpt>
      <trkpt lat="43.58937" lon="2.91092">
        <ele>973</ele>
        <time>2014-01-18T09:00:52Z</time>
      </trkpt>
      <trkpt lat="43.58938" lon="2.91092">
        <ele>973</ele>
        <time>2014-01-18T09:00:53Z</time>
      </trkpt>
      <trkpt lat="43.58938" lon="2.91092">
        <ele>973</ele>
        <time>2014-01-18T09:00:54Z</time>
      </trkpt>
      <trkpt lat="43.58938" lon="2.91091">
        <ele>973</ele>
        <time>2014-01-18T09:00:55Z</time>
      </trkpt>
      <trkpt lat="43.58939" lon="2.91091">
        <ele>973</ele>
        <time>2014-01-18T09:00:56Z</time>
      </trkpt>
      <trkpt lat="43.5894" lon="2.91091">
        <ele>973</ele>
        <time>2014-01-18T09:01:03Z</time>
      </trkpt>
      <trkpt lat="43.58942" lon="2.9109">
        <ele>973</ele>
        <time>2014-01-18T09:01:06Z</time>
      </trkpt>
      <trkpt lat="43.58943" lon="2.9109">
        <ele>973</ele>
        <time>2014-01-18T09:01:07Z</time>
      </trkpt>
      <trkpt lat="43.58943" lon="2.91091">
        <ele>973</ele>
        <time>2014-01-18T09:01:08Z</time>
      </trkpt>
      <trkpt lat="43.58944" lon="2.91091">
        <ele>973</ele>
        <time>2014-01-18T09:01:14Z</time>
      </trkpt>
      <trkpt lat="43.58945" lon="2.91091">
        <ele>973</ele>
        <time>2014-01-18T09:01:15Z</time>
      </trkpt>
      <trkpt lat="43.58946" lon="2.91091">
        <ele>973</ele>
        <time>2014-01-18T09:01:17Z</time>
      </trkpt>
      <trkpt lat="43.58947" lon="2.91091">
        <ele>973</ele>
        <time>2014-01-18T09:01:19Z</time>
      </trkpt>
      <trkpt lat="43.58946" lon="2.9109">
        <ele>973</ele>
        <time>2014-01-18T09:01:21Z</time>
      </trkpt>
      <trkpt lat="43.58945" lon="2.91089">
        <ele>973</ele>
        <time>2014-01-18T09:01:23Z</time>
      </trkpt>
      <trkpt lat="43.58945" lon="2.91089">
        <ele>973</ele>
        <time>2014-01-18T09:01:24Z</time>
      </trkpt>
      <trkpt lat="43.58945" lon="2.91088">
        <ele>973</ele>
        <time>2014-01-18T09:01:25Z</time>
      </trkpt>
      <trkpt lat="43.58944" lon="2.91088">
        <ele>973</ele>
        <time>2014-01-18T09:01:26Z</time>
      </trkpt>
      <trkpt lat="43.58944" lon="2.91087">
        <ele>973</ele>
        <time>2014-01-18T09:01:27Z</time>
      </trkpt>
      <trkpt lat="43.58943" lon="2.91086">
        <ele>974</ele>
        <time>2014-01-18T09:01:28Z</time>
      </trkpt>
      <trkpt lat="43.58943" lon="2.91085">
        <ele>974</ele>
        <time>2014-01-18T09:01:29Z</time>
      </trkpt>
      <trkpt lat="43.58943" lon="2.91084">
        <ele>974</ele>
        <time>2014-01-18T09:01:30Z</time>
      </trkpt>
      <trkpt lat="43.58943" lon="2.91084">
        <ele>974</ele>
        <time>2014-01-18T09:01:31Z</time>
      </trkpt>
      <trkpt lat="43.58942" lon="2.91083">
        <ele>994</ele>
        <time>2014-01-18T09:01:32Z</time>
      </trkpt>
      <trkpt lat="43.58941" lon="2.91081">
        <ele>994</ele>
        <time>2014-01-18T09:01:34Z</time>
      </trkpt>
      <trkpt lat="43.58938" lon="2.91079">
        <ele>993</ele>
        <time>2014-01-18T09:01:40Z</time>
      </trkpt>
      <trkpt lat="43.58934" lon="2.91077">
        <ele>992</ele>
        <time>2014-01-18T09:01:48Z</time>
      </trkpt>
      <trkpt lat="43.5893" lon="2.91074">
        <ele>992</ele>
        <time>2014-01-18T09:01:53Z</time>
      </trkpt>
      <trkpt lat="43.5893" lon="2.91073">
        <ele>992</ele>
        <time>2014-01-18T09:01:54Z</time>
      </trkpt>
      <trkpt lat="43.58929" lon="2.91073">
        <ele>992</ele>
        <time>2014-01-18T09:01:55Z</time>
      </trkpt>
      <trkpt lat="43.58928" lon="2.91073">
        <ele>991</ele>
        <time>2014-01-18T09:01:56Z</time>
      </trkpt>
      <trkpt lat="43.58928" lon="2.91072">
        <ele>991</ele>
        <time>2014-01-18T09:01:57Z</time>
      </trkpt>
      <trkpt lat="43.58927" lon="2.91071">
        <ele>991</ele>
        <time>2014-01-18T09:01:59Z</time>
      </trkpt>
      <trkpt lat="43.58925" lon="2.9107">
        <ele>991</ele>
        <time>2014-01-18T09:02:02Z</time>
      </trkpt>
      <trkpt lat="43.58925" lon="2.9107">
        <ele>991</ele>
        <time>2014-01-18T09:02:03Z</time>
      </trkpt>
      <trkpt lat="43.58925" lon="2.9107">
        <ele>992</ele>
        <time>2014-01-18T09:02:04Z</time>
      </trkpt>
      <trkpt lat="43.58924" lon="2.9107">
        <ele>991</ele>
        <time>2014-01-18T09:02:05Z</time>
      </trkpt>
      <trkpt lat="43.58923" lon="2.91069">
        <ele>991</ele>
        <time>2014-01-18T09:02:06Z</time>
      </trkpt>
      <trkpt lat="43.58923" lon="2.91069">
        <ele>992</ele>
        <time>2014-01-18T09:02:07Z</time>
      </trkpt>
      <trkpt lat="43.58923" lon="2.91069">
        <ele>991</ele>
        <time>2014-01-18T09:02:08Z</time>
      </trkpt>
      <trkpt lat="43.58923" lon="2.91069">
        <ele>992</ele>
        <time>2014-01-18T09:02:09Z</time>
      </trkpt>
      <trkpt lat="43.58922" lon="2.91069">
        <ele>992</ele>
        <time>2014-01-18T09:02:10Z</time>
      </trkpt>
      <trkpt lat="43.58922" lon="2.91069">
        <ele>991</ele>
        <time>2014-01-18T09:02:11Z</time>
      </trkpt>
      <trkpt lat="43.58922" lon="2.91069">
        <ele>992</ele>
        <time>2014-01-18T09:02:12Z</time>
      </trkpt>
      <trkpt lat="43.58921" lon="2.91068">
        <ele>992</ele>
        <time>2014-01-18T09:02:13Z</time>
      </trkpt>
      <trkpt lat="43.58921" lon="2.91067">
        <ele>992</ele>
        <time>2014-01-18T09:02:14Z</time>
      </trkpt>
      <trkpt lat="43.58919" lon="2.91066">
        <ele>992</ele>
        <time>2014-01-18T09:02:16Z</time>
      </trkpt>
      <trkpt lat="43.58918" lon="2.91066">
        <ele>992</ele>
        <time>2014-01-18T09:02:17Z</time>
      </trkpt>
      <trkpt lat="43.58917" lon="2.91066">
        <ele>993</ele>
        <time>2014-01-18T09:02:18Z</time>
      </trkpt>
      <trkpt lat="43.58917" lon="2.91064">
        <ele>993</ele>
        <time>2014-01-18T09:02:19Z</time>
      </trkpt>
      <trkpt lat="43.58916" lon="2.91064">
        <ele>985</ele>
        <time>2014-01-18T09:02:20Z</time>
      </trkpt>
      <trkpt lat="43.58915" lon="2.91063">
        <ele>986</ele>
        <time>2014-01-18T09:02:21Z</time>
      </trkpt>
      <trkpt lat="43.58914" lon="2.91063">
        <ele>986</ele>
        <time>2014-01-18T09:02:22Z</time>
      </trkpt>
      <trkpt lat="43.58914" lon="2.91063">
        <ele>985</ele>
        <time>2014-01-18T09:02:23Z</time>
      </trkpt>
      <trkpt lat="43.58911" lon="2.91062">
        <ele>986</ele>
        <time>2014-01-18T09:02:26Z</time>
      </trkpt>
      <trkpt lat="43.5891" lon="2.91061">
        <ele>986</ele>
        <time>2014-01-18T09:02:28Z</time>
      </trkpt>
      <trkpt lat="43.5891" lon="2.9106">
        <ele>986</ele>
        <time>2014-01-18T09:02:29Z</time>
      </trkpt>
      <trkpt lat="43.58909" lon="2.91059">
        <ele>986</ele>
        <time>2014-01-18T09:02:30Z</time>
      </trkpt>
      <trkpt lat="43.58908" lon="2.91059">
        <ele>986</ele>
        <time>2014-01-18T09:02:31Z</time>
      </trkpt>
      <trkpt lat="43.58908" lon="2.91058">
        <ele>986</ele>
        <time>2014-01-18T09:02:32Z</time>
      </trkpt>
      <trkpt lat="43.58906" lon="2.91057">
        <ele>987</ele>
        <time>2014-01-18T09:02:34Z</time>
      </trkpt>
      <trkpt lat="43.58904" lon="2.91057">
        <ele>987</ele>
        <time>2014-01-18T09:02:36Z</time>
      </trkpt>
      <trkpt lat="43.58903" lon="2.91056">
        <ele>987</ele>
        <time>2014-01-18T09:02:37Z</time>
      </trkpt>
      <trkpt lat="43.58903" lon="2.91056">
        <ele>987</ele>
        <time>2014-01-18T09:02:38Z</time>
      </trkpt>
      <trkpt lat="43.58902" lon="2.91056">
        <ele>987</ele>
        <time>2014-01-18T09:02:39Z</time>
      </trkpt>
      <trkpt lat="43.58901" lon="2.91055">
        <ele>987</ele>
        <time>2014-01-18T09:02:40Z</time>
      </trkpt>
      <trkpt lat="43.58901" lon="2.91054">
        <ele>987</ele>
        <time>2014-01-18T09:02:41Z</time>
      </trkpt>
      <trkpt lat="43.58896" lon="2.91052">
        <ele>987</ele>
        <time>2014-01-18T09:02:47Z</time>
      </trkpt>
      <trkpt lat="43.58892" lon="2.91049">
        <ele>987</ele>
        <time>2014-01-18T09:02:53Z</time>
      </trkpt>
      <trkpt lat="43.58889" lon="2.91048">
        <ele>987</ele>
        <time>2014-01-18T09:02:56Z</time>
      </trkpt>
      <trkpt lat="43.58889" lon="2.91047">
        <ele>987</ele>
        <time>2014-01-18T09:02:57Z</time>
      </trkpt>
      <trkpt lat="43.58888" lon="2.91047">
        <ele>987</ele>
        <time>2014-01-18T09:02:58Z</time>
      </trkpt>
      <trkpt lat="43.58887" lon="2.91047">
        <ele>987</ele>
        <time>2014-01-18T09:02:59Z</time>
      </trkpt>
      <trkpt lat="43.58886" lon="2.91047">
        <ele>987</ele>
        <time>2014-01-18T09:03:00Z</time>
      </trkpt>
      <trkpt lat="43.58882" lon="2.91043">
        <ele>987</ele>
        <time>2014-01-18T09:03:04Z</time>
      </trkpt>
      <trkpt lat="43.58877" lon="2.91039">
        <ele>988</ele>
        <time>2014-01-18T09:03:11Z</time>
      </trkpt>
      <trkpt lat="43.58875" lon="2.91037">
        <ele>988</ele>
        <time>2014-01-18T09:03:13Z</time>
      </trkpt>
      <trkpt lat="43.58874" lon="2.91037">
        <ele>988</ele>
        <time>2014-01-18T09:03:14Z</time>
      </trkpt>
      <trkpt lat="43.58873" lon="2.91036">
        <ele>988</ele>
        <time>2014-01-18T09:03:15Z</time>
      </trkpt>
      <trkpt lat="43.58872" lon="2.91035">
        <ele>988</ele>
        <time>2014-01-18T09:03:16Z</time>
      </trkpt>
      <trkpt lat="43.58871" lon="2.91034">
        <ele>988</ele>
        <time>2014-01-18T09:03:17Z</time>
      </trkpt>
      <trkpt lat="43.58868" lon="2.9103">
        <ele>988</ele>
        <time>2014-01-18T09:03:21Z</time>
      </trkpt>
      <trkpt lat="43.58865" lon="2.91026">
        <ele>988</ele>
        <time>2014-01-18T09:03:25Z</time>
      </trkpt>
      <trkpt lat="43.58865" lon="2.91025">
        <ele>988</ele>
        <time>2014-01-18T09:03:26Z</time>
      </trkpt>
      <trkpt lat="43.58863" lon="2.91022">
        <ele>988</ele>
        <time>2014-01-18T09:03:29Z</time>
      </trkpt>
      <trkpt lat="43.58861" lon="2.91019">
        <ele>988</ele>
        <time>2014-01-18T09:03:32Z</time>
      </trkpt>
      <trkpt lat="43.58857" lon="2.91013">
        <ele>989</ele>
        <time>2014-01-18T09:03:38Z</time>
      </trkpt>
      <trkpt lat="43.58854" lon="2.91008">
        <ele>989</ele>
        <time>2014-01-18T09:03:43Z</time>
      </trkpt>
      <trkpt lat="43.58853" lon="2.91007">
        <ele>989</ele>
        <time>2014-01-18T09:03:44Z</time>
      </trkpt>
      <trkpt lat="43.58853" lon="2.91006">
        <ele>989</ele>
        <time>2014-01-18T09:03:45Z</time>
      </trkpt>
      <trkpt lat="43.58852" lon="2.91005">
        <ele>989</ele>
        <time>2014-01-18T09:03:46Z</time>
      </trkpt>
      <trkpt lat="43.58852" lon="2.91005">
        <ele>989</ele>
        <time>2014-01-18T09:03:47Z</time>
      </trkpt>
      <trkpt lat="43.58851" lon="2.91004">
        <ele>989</ele>
        <time>2014-01-18T09:03:48Z</time>
      </trkpt>
      <trkpt lat="43.58851" lon="2.91003">
        <ele>989</ele>
        <time>2014-01-18T09:03:49Z</time>
      </trkpt>
      <trkpt lat="43.5885" lon="2.91001">
        <ele>989</ele>
        <time>2014-01-18T09:03:50Z</time>
      </trkpt>
      <trkpt lat="43.58849" lon="2.90996">
        <ele>996</ele>
        <time>2014-01-18T09:03:54Z</time>
      </trkpt>
      <trkpt lat="43.58846" lon="2.90988">
        <ele>997</ele>
        <time>2014-01-18T09:04:01Z</time>
      </trkpt>
      <trkpt lat="43.58856" lon="2.90982">
        <ele>1000</ele>
      </trkpt>
      <trkpt lat="43.58864" lon="2.90981">
        <ele>1002</ele>
      </trkpt>
      <trkpt lat="43.58871" lon="2.90973">
        <ele>1003</ele>
      </trkpt>
      <trkpt lat="43.58876" lon="2.90973">
        <ele>1004</ele>
      </trkpt>
      <trkpt lat="43.58893" lon="2.90948">
        <ele>1008</ele>
      </trkpt>
      <trkpt lat="43.5892" lon="2.90943">
        <ele>1022</ele>
      </trkpt>
      <trkpt lat="43.58939" lon="2.90943">
        <ele>1023</ele>
      </trkpt>
      <trkpt lat="43.58939" lon="2.90943">
        <ele>1023</ele>
      </trkpt>
      <trkpt lat="43.58945" lon="2.90954">
        <ele>1023</ele>
      </trkpt>
      <trkpt lat="43.58953" lon="2.90951">
        <ele>1024</ele>
      </trkpt>
      <trkpt lat="43.58962" lon="2.90953">
        <ele>1024</ele>
      </trkpt>
      <trkpt lat="43.58969" lon="2.90952">
        <ele>1025</ele>
      </trkpt>
      <trkpt lat="43.58978" lon="2.90951">
        <ele>1025</ele>
      </trkpt>
      <trkpt lat="43.58978" lon="2.90931">
        <ele>1027</ele>
      </trkpt>
      <trkpt lat="43.58988" lon="2.90927">
        <ele>1029</ele>
      </trkpt>
      <trkpt lat="43.58977" lon="2.90923">
        <ele>1028</ele>
      </trkpt>
      <trkpt lat="43.58969" lon="2.909">
        <ele>1026</ele>
      </trkpt>
      <trkpt lat="43.58969" lon="2.90872">
        <ele>1024</ele>
      </trkpt>
      <trkpt lat="43.58968" lon="2.90843">
        <ele>1023</ele>
      </trkpt>
      <trkpt lat="43.58962" lon="2.9083">
        <ele>1012</ele>
      </trkpt>
      <trkpt lat="43.58946" lon="2.90841">
        <ele>1020</ele>
      </trkpt>
      <trkpt lat="43.58933" lon="2.90853">
        <ele>1019</ele>
      </trkpt>
      <trkpt lat="43.58902" lon="2.90872">
        <ele>1005</ele>
      </trkpt>
      <trkpt lat="43.58869" lon="2.90897">
        <ele>1001</ele>
      </trkpt>
      <trkpt lat="43.58848" lon="2.90911">
        <ele>997</ele>
      </trkpt>
      <trkpt lat="43.58841" lon="2.90907">
        <ele>995</ele>
      </trkpt>
      <trkpt lat="43.58839" lon="2.90902">
        <ele>996</ele>
        <time>2014-01-18T09:08:24Z</time>
      </trkpt>
      <trkpt lat="43.58839" lon="2.90902">
        <ele>996</ele>
        <time>2014-01-18T09:08:25Z</time>
      </trkpt>
      <trkpt lat="43.58839" lon="2.90902">
        <ele>996</ele>
        <time>2014-01-18T09:08:26Z</time>
      </trkpt>
      <trkpt lat="43.58839" lon="2.90901">
        <ele>996</ele>
        <time>2014-01-18T09:08:27Z</time>
      </trkpt>
      <trkpt lat="43.58839" lon="2.90902">
        <ele>996</ele>
        <time>2014-01-18T09:08:29Z</time>
      </trkpt>
      <trkpt lat="43.5884" lon="2.90899">
        <ele>996</ele>
        <time>2014-01-18T09:10:16Z</time>
      </trkpt>
      <trkpt lat="43.58841" lon="2.90898">
        <ele>996</ele>
        <time>2014-01-18T09:10:17Z</time>
      </trkpt>
      <trkpt lat="43.58842" lon="2.90896">
        <ele>997</ele>
        <time>2014-01-18T09:10:20Z</time>
      </trkpt>
      <trkpt lat="43.58843" lon="2.90896">
        <ele>997</ele>
        <time>2014-01-18T09:10:21Z</time>
      </trkpt>
      <trkpt lat="43.58846" lon="2.90894">
        <ele>997</ele>
        <time>2014-01-18T09:10:23Z</time>
      </trkpt>
      <trkpt lat="43.58849" lon="2.90892">
        <ele>997</ele>
        <time>2014-01-18T09:10:25Z</time>
      </trkpt>
      <trkpt lat="43.5885" lon="2.9089">
        <ele>998</ele>
        <time>2014-01-18T09:10:26Z</time>
      </trkpt>
      <trkpt lat="43.58853" lon="2.90885">
        <ele>998</ele>
        <time>2014-01-18T09:10:28Z</time>
      </trkpt>
      <trkpt lat="43.58855" lon="2.90883">
        <ele>998</ele>
        <time>2014-01-18T09:10:29Z</time>
      </trkpt>
      <trkpt lat="43.58857" lon="2.90881">
        <ele>998</ele>
        <time>2014-01-18T09:10:30Z</time>
      </trkpt>
      <trkpt lat="43.58859" lon="2.90879">
        <ele>998</ele>
        <time>2014-01-18T09:10:31Z</time>
      </trkpt>
      <trkpt lat="43.58861" lon="2.90876">
        <ele>999</ele>
        <time>2014-01-18T09:10:32Z</time>
      </trkpt>
      <trkpt lat="43.58863" lon="2.90874">
        <ele>999</ele>
        <time>2014-01-18T09:10:33Z</time>
      </trkpt>
      <trkpt lat="43.58868" lon="2.90868">
        <ele>999</ele>
        <time>2014-01-18T09:10:35Z</time>
      </trkpt>
      <trkpt lat="43.58874" lon="2.90862">
        <ele>1000</ele>
        <time>2014-01-18T09:10:37Z</time>
      </trkpt>
      <trkpt lat="43.58878" lon="2.90857">
        <ele>1000</ele>
        <time>2014-01-18T09:10:38Z</time>
      </trkpt>
      <trkpt lat="43.58885" lon="2.90847">
        <ele>1002</ele>
        <time>2014-01-18T09:10:41Z</time>
      </trkpt>
      <trkpt lat="43.58888" lon="2.90844">
        <ele>1002</ele>
        <time>2014-01-18T09:10:42Z</time>
      </trkpt>
      <trkpt lat="43.58893" lon="2.90836">
        <ele>1004</ele>
        <time>2014-01-18T09:10:45Z</time>
      </trkpt>
      <trkpt lat="43.58895" lon="2.90832">
        <ele>996</ele>
        <time>2014-01-18T09:10:46Z</time>
      </trkpt>
      <trkpt lat="43.58903" lon="2.90821">
        <ele>997</ele>
        <time>2014-01-18T09:10:50Z</time>
      </trkpt>
      <trkpt lat="43.58905" lon="2.90818">
        <ele>997</ele>
        <time>2014-01-18T09:10:51Z</time>
      </trkpt>
      <trkpt lat="43.58913" lon="2.90802">
        <ele>993</ele>
        <time>2014-01-18T09:10:56Z</time>
      </trkpt>
      <trkpt lat="43.58922" lon="2.90788">
        <ele>1004</ele>
        <time>2014-01-18T09:11:01Z</time>
      </trkpt>
      <trkpt lat="43.58931" lon="2.90768">
        <ele>1000</ele>
        <time>2014-01-18T09:11:07Z</time>
      </trkpt>
      <trkpt lat="43.58937" lon="2.90754">
        <ele>999</ele>
        <time>2014-01-18T09:11:12Z</time>
      </trkpt>
      <trkpt lat="43.58939" lon="2.90751">
        <ele>999</ele>
        <time>2014-01-18T09:11:13Z</time>
      </trkpt>
      <trkpt lat="43.58949" lon="2.90748">
        <ele>985</ele>
        <time>2014-01-18T09:11:16Z</time>
      </trkpt>
      <trkpt lat="43.58956" lon="2.90745">
        <ele>985</ele>
        <time>2014-01-18T09:11:18Z</time>
      </trkpt>
      <trkpt lat="43.5897" lon="2.90742">
        <ele>986</ele>
        <time>2014-01-18T09:11:22Z</time>
      </trkpt>
      <trkpt lat="43.58975" lon="2.90741">
        <ele>987</ele>
        <time>2014-01-18T09:11:23Z</time>
      </trkpt>
      <trkpt lat="43.58979" lon="2.90742">
        <ele>988</ele>
        <time>2014-01-18T09:11:24Z</time>
      </trkpt>
      <trkpt lat="43.58983" lon="2.90741">
        <ele>989</ele>
        <time>2014-01-18T09:11:25Z</time>
      </trkpt>
      <trkpt lat="43.58987" lon="2.90741">
        <ele>990</ele>
        <time>2014-01-18T09:11:26Z</time>
      </trkpt>
      <trkpt lat="43.58995" lon="2.9074">
        <ele>992</ele>
        <time>2014-01-18T09:11:28Z</time>
      </trkpt>
      <trkpt lat="43.58998" lon="2.90742">
        <ele>994</ele>
        <time>2014-01-18T09:11:29Z</time>
      </trkpt>
      <trkpt lat="43.58999" lon="2.90743">
        <ele>995</ele>
        <time>2014-01-18T09:11:30Z</time>
      </trkpt>
      <trkpt lat="43.59001" lon="2.90744">
        <ele>997</ele>
        <time>2014-01-18T09:11:31Z</time>
      </trkpt>
      <trkpt lat="43.59002" lon="2.90745">
        <ele>997</ele>
        <time>2014-01-18T09:11:32Z</time>
      </trkpt>
      <trkpt lat="43.59004" lon="2.90747">
        <ele>997</ele>
        <time>2014-01-18T09:11:35Z</time>
      </trkpt>
      <trkpt lat="43.59004" lon="2.90747">
        <ele>997</ele>
        <time>2014-01-18T09:11:36Z</time>
      </trkpt>
      <trkpt lat="43.59006" lon="2.90748">
        <ele>997</ele>
        <time>2014-01-18T09:12:04Z</time>
      </trkpt>
      <trkpt lat="43.59008" lon="2.90747">
        <ele>996</ele>
        <time>2014-01-18T09:12:05Z</time>
      </trkpt>
      <trkpt lat="43.59011" lon="2.90746">
        <ele>995</ele>
        <time>2014-01-18T09:12:06Z</time>
      </trkpt>
      <trkpt lat="43.59015" lon="2.90747">
        <ele>994</ele>
        <time>2014-01-18T09:12:07Z</time>
      </trkpt>
      <trkpt lat="43.59019" lon="2.90747">
        <ele>993</ele>
        <time>2014-01-18T09:12:08Z</time>
      </trkpt>
      <trkpt lat="43.59021" lon="2.90747">
        <ele>993</ele>
        <time>2014-01-18T09:12:09Z</time>
      </trkpt>
      <trkpt lat="43.59023" lon="2.90747">
        <ele>992</ele>
        <time>2014-01-18T09:12:10Z</time>
      </trkpt>
      <trkpt lat="43.59023" lon="2.90747">
        <ele>992</ele>
        <time>2014-01-18T09:12:11Z</time>
      </trkpt>
      <trkpt lat="43.59023" lon="2.90747">
        <ele>992</ele>
        <time>2014-01-18T09:12:20Z</time>
      </trkpt>
      <trkpt lat="43.59026" lon="2.90748">
        <ele>992</ele>
        <time>2014-01-18T09:12:21Z</time>
      </trkpt>
      <trkpt lat="43.59037" lon="2.90748">
        <ele>992</ele>
        <time>2014-01-18T09:12:24Z</time>
      </trkpt>
      <trkpt lat="43.59041" lon="2.90747">
        <ele>992</ele>
        <time>2014-01-18T09:12:25Z</time>
      </trkpt>
      <trkpt lat="43.59047" lon="2.90747">
        <ele>992</ele>
        <time>2014-01-18T09:12:26Z</time>
      </trkpt>
      <trkpt lat="43.59052" lon="2.90745">
        <ele>992</ele>
        <time>2014-01-18T09:12:27Z</time>
      </trkpt>
      <trkpt lat="43.59059" lon="2.90744">
        <ele>993</ele>
        <time>2014-01-18T09:12:28Z</time>
      </trkpt>
      <trkpt lat="43.59065" lon="2.9074">
        <ele>993</ele>
        <time>2014-01-18T09:12:29Z</time>
      </trkpt>
      <trkpt lat="43.5907" lon="2.90734">
        <ele>993</ele>
        <time>2014-01-18T09:12:30Z</time>
      </trkpt>
      <trkpt lat="43.59075" lon="2.90728">
        <ele>992</ele>
        <time>2014-01-18T09:12:31Z</time>
      </trkpt>
      <trkpt lat="43.59076" lon="2.90722">
        <ele>991</ele>
        <time>2014-01-18T09:12:32Z</time>
      </trkpt>
      <trkpt lat="43.59075" lon="2.90716">
        <ele>989</ele>
        <time>2014-01-18T09:12:33Z</time>
      </trkpt>
      <trkpt lat="43.59072" lon="2.90712">
        <ele>988</ele>
        <time>2014-01-18T09:12:34Z</time>
      </trkpt>
      <trkpt lat="43.59069" lon="2.90713">
        <ele>988</ele>
        <time>2014-01-18T09:12:35Z</time>
      </trkpt>
      <trkpt lat="43.59066" lon="2.90709">
        <ele>987</ele>
        <time>2014-01-18T09:12:36Z</time>
      </trkpt>
      <trkpt lat="43.59063" lon="2.90704">
        <ele>986</ele>
        <time>2014-01-18T09:12:37Z</time>
      </trkpt>
      <trkpt lat="43.59059" lon="2.90699">
        <ele>985</ele>
        <time>2014-01-18T09:12:38Z</time>
      </trkpt>
      <trkpt lat="43.59054" lon="2.90696">
        <ele>985</ele>
        <time>2014-01-18T09:12:39Z</time>
      </trkpt>
      <trkpt lat="43.59048" lon="2.90692">
        <ele>984</ele>
        <time>2014-01-18T09:12:40Z</time>
      </trkpt>
      <trkpt lat="43.59042" lon="2.90687">
        <ele>982</ele>
        <time>2014-01-18T09:12:41Z</time>
      </trkpt>
      <trkpt lat="43.59035" lon="2.90684">
        <ele>981</ele>
        <time>2014-01-18T09:12:42Z</time>
      </trkpt>
      <trkpt lat="43.59028" lon="2.90679">
        <ele>979</ele>
        <time>2014-01-18T09:12:43Z</time>
      </trkpt>
      <trkpt lat="43.59022" lon="2.90676">
        <ele>977</ele>
        <time>2014-01-18T09:12:44Z</time>
      </trkpt>
      <trkpt lat="43.59016" lon="2.90673">
        <ele>974</ele>
        <time>2014-01-18T09:12:45Z</time>
      </trkpt>
      <trkpt lat="43.59011" lon="2.90669">
        <ele>971</ele>
        <time>2014-01-18T09:12:46Z</time>
      </trkpt>
      <trkpt lat="43.59005" lon="2.90666">
        <ele>963</ele>
        <time>2014-01-18T09:12:47Z</time>
      </trkpt>
      <trkpt lat="43.58999" lon="2.90662">
        <ele>961</ele>
        <time>2014-01-18T09:12:48Z</time>
      </trkpt>
      <trkpt lat="43.58992" lon="2.90658">
        <ele>959</ele>
        <time>2014-01-18T09:12:49Z</time>
      </trkpt>
      <trkpt lat="43.58985" lon="2.90657">
        <ele>957</ele>
        <time>2014-01-18T09:12:50Z</time>
      </trkpt>
      <trkpt lat="43.58976" lon="2.90656">
        <ele>956</ele>
        <time>2014-01-18T09:12:51Z</time>
      </trkpt>
      <trkpt lat="43.58969" lon="2.90655">
        <ele>955</ele>
        <time>2014-01-18T09:12:52Z</time>
      </trkpt>
      <trkpt lat="43.58962" lon="2.90652">
        <ele>955</ele>
        <time>2014-01-18T09:12:53Z</time>
      </trkpt>
      <trkpt lat="43.58955" lon="2.90649">
        <ele>954</ele>
        <time>2014-01-18T09:12:54Z</time>
      </trkpt>
      <trkpt lat="43.58948" lon="2.90645">
        <ele>954</ele>
        <time>2014-01-18T09:12:55Z</time>
      </trkpt>
      <trkpt lat="43.58941" lon="2.90641">
        <ele>954</ele>
        <time>2014-01-18T09:12:56Z</time>
      </trkpt>
      <trkpt lat="43.58934" lon="2.90636">
        <ele>953</ele>
        <time>2014-01-18T09:12:57Z</time>
      </trkpt>
      <trkpt lat="43.58927" lon="2.9063">
        <ele>952</ele>
        <time>2014-01-18T09:12:58Z</time>
      </trkpt>
      <trkpt lat="43.5892" lon="2.90626">
        <ele>951</ele>
        <time>2014-01-18T09:12:59Z</time>
      </trkpt>
      <trkpt lat="43.58913" lon="2.90621">
        <ele>950</ele>
        <time>2014-01-18T09:13:00Z</time>
      </trkpt>
      <trkpt lat="43.58906" lon="2.90616">
        <ele>949</ele>
        <time>2014-01-18T09:13:01Z</time>
      </trkpt>
      <trkpt lat="43.589" lon="2.90612">
        <ele>948</ele>
        <time>2014-01-18T09:13:02Z</time>
      </trkpt>
      <trkpt lat="43.58894" lon="2.90607">
        <ele>948</ele>
        <time>2014-01-18T09:13:03Z</time>
      </trkpt>
      <trkpt lat="43.58887" lon="2.90602">
        <ele>948</ele>
        <time>2014-01-18T09:13:04Z</time>
      </trkpt>
      <trkpt lat="43.5888" lon="2.90597">
        <ele>948</ele>
        <time>2014-01-18T09:13:05Z</time>
      </trkpt>
      <trkpt lat="43.58874" lon="2.90593">
        <ele>948</ele>
        <time>2014-01-18T09:13:06Z</time>
      </trkpt>
      <trkpt lat="43.58869" lon="2.90588">
        <ele>948</ele>
        <time>2014-01-18T09:13:07Z</time>
      </trkpt>
      <trkpt lat="43.58864" lon="2.90586">
        <ele>948</ele>
        <time>2014-01-18T09:13:08Z</time>
      </trkpt>
      <trkpt lat="43.58861" lon="2.90586">
        <ele>948</ele>
        <time>2014-01-18T09:13:09Z</time>
      </trkpt>
      <trkpt lat="43.5886" lon="2.90585">
        <ele>948</ele>
        <time>2014-01-18T09:13:11Z</time>
      </trkpt>
      <trkpt lat="43.5886" lon="2.90585">
        <ele>948</ele>
        <time>2014-01-18T09:13:19Z</time>
      </trkpt>
      <trkpt lat="43.58857" lon="2.90586">
        <ele>948</ele>
        <time>2014-01-18T09:13:21Z</time>
      </trkpt>
      <trkpt lat="43.58853" lon="2.90585">
        <ele>949</ele>
        <time>2014-01-18T09:13:23Z</time>
      </trkpt>
      <trkpt lat="43.58847" lon="2.90587">
        <ele>949</ele>
        <time>2014-01-18T09:13:26Z</time>
      </trkpt>
      <trkpt lat="43.58846" lon="2.90587">
        <ele>949</ele>
        <time>2014-01-18T09:13:27Z</time>
      </trkpt>
      <trkpt lat="43.58841" lon="2.9059">
        <ele>949</ele>
        <time>2014-01-18T09:13:30Z</time>
      </trkpt>
      <trkpt lat="43.5884" lon="2.90592">
        <ele>949</ele>
        <time>2014-01-18T09:13:31Z</time>
      </trkpt>
      <trkpt lat="43.5884" lon="2.90594">
        <ele>949</ele>
        <time>2014-01-18T09:13:32Z</time>
      </trkpt>
      <trkpt lat="43.58839" lon="2.90595">
        <ele>949</ele>
        <time>2014-01-18T09:13:33Z</time>
      </trkpt>
      <trkpt lat="43.58839" lon="2.90595">
        <ele>949</ele>
        <time>2014-01-18T09:13:34Z</time>
      </trkpt>
      <trkpt lat="43.58839" lon="2.90595">
        <ele>949</ele>
        <time>2014-01-18T09:13:41Z</time>
      </trkpt>
      <trkpt lat="43.58839" lon="2.90596">
        <ele>949</ele>
        <time>2014-01-18T09:13:42Z</time>
      </trkpt>
      <trkpt lat="43.58837" lon="2.90601">
        <ele>949</ele>
        <time>2014-01-18T09:13:44Z</time>
      </trkpt>
      <trkpt lat="43.58836" lon="2.90604">
        <ele>949</ele>
        <time>2014-01-18T09:13:45Z</time>
      </trkpt>
      <trkpt lat="43.58835" lon="2.90608">
        <ele>949</ele>
        <time>2014-01-18T09:13:46Z</time>
      </trkpt>
      <trkpt lat="43.58835" lon="2.90612">
        <ele>949</ele>
        <time>2014-01-18T09:13:47Z</time>
      </trkpt>
      <trkpt lat="43.58834" lon="2.90616">
        <ele>949</ele>
        <time>2014-01-18T09:13:48Z</time>
      </trkpt>
      <trkpt lat="43.58833" lon="2.90626">
        <ele>941</ele>
        <time>2014-01-18T09:13:50Z</time>
      </trkpt>
      <trkpt lat="43.58832" lon="2.90631">
        <ele>941</ele>
        <time>2014-01-18T09:13:51Z</time>
      </trkpt>
      <trkpt lat="43.58831" lon="2.90636">
        <ele>941</ele>
        <time>2014-01-18T09:13:52Z</time>
      </trkpt>
      <trkpt lat="43.58831" lon="2.90642">
        <ele>941</ele>
        <time>2014-01-18T09:13:53Z</time>
      </trkpt>
      <trkpt lat="43.5883" lon="2.90649">
        <ele>942</ele>
        <time>2014-01-18T09:13:54Z</time>
      </trkpt>
      <trkpt lat="43.58829" lon="2.90655">
        <ele>943</ele>
        <time>2014-01-18T09:13:55Z</time>
      </trkpt>
      <trkpt lat="43.58828" lon="2.90662">
        <ele>944</ele>
        <time>2014-01-18T09:13:56Z</time>
      </trkpt>
      <trkpt lat="43.58826" lon="2.90669">
        <ele>944</ele>
        <time>2014-01-18T09:13:57Z</time>
      </trkpt>
      <trkpt lat="43.58824" lon="2.90676">
        <ele>942</ele>
        <time>2014-01-18T09:13:58Z</time>
      </trkpt>
      <trkpt lat="43.58823" lon="2.90683">
        <ele>941</ele>
        <time>2014-01-18T09:13:59Z</time>
      </trkpt>
      <trkpt lat="43.58822" lon="2.90691">
        <ele>940</ele>
        <time>2014-01-18T09:14:00Z</time>
      </trkpt>
      <trkpt lat="43.5882" lon="2.90698">
        <ele>940</ele>
        <time>2014-01-18T09:14:01Z</time>
      </trkpt>
      <trkpt lat="43.58819" lon="2.90705">
        <ele>940</ele>
        <time>2014-01-18T09:14:02Z</time>
      </trkpt>
      <trkpt lat="43.5882" lon="2.9071">
        <ele>940</ele>
        <time>2014-01-18T09:14:03Z</time>
      </trkpt>
      <trkpt lat="43.58822" lon="2.90714">
        <ele>941</ele>
        <time>2014-01-18T09:14:04Z</time>
      </trkpt>
      <trkpt lat="43.58821" lon="2.90716">
        <ele>941</ele>
        <time>2014-01-18T09:14:05Z</time>
      </trkpt>
      <trkpt lat="43.5882" lon="2.90715">
        <ele>941</ele>
        <time>2014-01-18T09:14:06Z</time>
      </trkpt>
      <trkpt lat="43.58819" lon="2.9071">
        <ele>940</ele>
        <time>2014-01-18T09:14:08Z</time>
      </trkpt>
      <trkpt lat="43.58816" lon="2.90702">
        <ele>939</ele>
        <time>2014-01-18T09:14:10Z</time>
      </trkpt>
      <trkpt lat="43.58813" lon="2.90689">
        <ele>938</ele>
        <time>2014-01-18T09:14:12Z</time>
      </trkpt>
      <trkpt lat="43.58811" lon="2.90682">
        <ele>938</ele>
        <time>2014-01-18T09:14:13Z</time>
      </trkpt>
      <trkpt lat="43.58808" lon="2.90675">
        <ele>938</ele>
        <time>2014-01-18T09:14:14Z</time>
      </trkpt>
      <trkpt lat="43.58805" lon="2.90668">
        <ele>937</ele>
        <time>2014-01-18T09:14:15Z</time>
      </trkpt>
      <trkpt lat="43.58802" lon="2.90661">
        <ele>937</ele>
        <time>2014-01-18T09:14:16Z</time>
      </trkpt>
      <trkpt lat="43.58799" lon="2.90654">
        <ele>936</ele>
        <time>2014-01-18T09:14:17Z</time>
      </trkpt>
      <trkpt lat="43.58796" lon="2.90649">
        <ele>936</ele>
        <time>2014-01-18T09:14:18Z</time>
      </trkpt>
      <trkpt lat="43.58793" lon="2.90645">
        <ele>936</ele>
        <time>2014-01-18T09:14:19Z</time>
      </trkpt>
      <trkpt lat="43.58789" lon="2.90642">
        <ele>935</ele>
        <time>2014-01-18T09:14:20Z</time>
      </trkpt>
      <trkpt lat="43.58787" lon="2.9064">
        <ele>935</ele>
        <time>2014-01-18T09:14:21Z</time>
      </trkpt>
      <trkpt lat="43.58784" lon="2.90641">
        <ele>934</ele>
        <time>2014-01-18T09:14:22Z</time>
      </trkpt>
      <trkpt lat="43.58784" lon="2.90642">
        <ele>934</ele>
        <time>2014-01-18T09:14:23Z</time>
      </trkpt>
      <trkpt lat="43.58785" lon="2.90644">
        <ele>934</ele>
        <time>2014-01-18T09:14:24Z</time>
      </trkpt>
      <trkpt lat="43.58786" lon="2.90648">
        <ele>934</ele>
        <time>2014-01-18T09:14:25Z</time>
      </trkpt>
      <trkpt lat="43.58788" lon="2.90652">
        <ele>934</ele>
        <time>2014-01-18T09:14:26Z</time>
      </trkpt>
      <trkpt lat="43.5879" lon="2.90657">
        <ele>934</ele>
        <time>2014-01-18T09:14:27Z</time>
      </trkpt>
      <trkpt lat="43.58792" lon="2.90664">
        <ele>935</ele>
        <time>2014-01-18T09:14:28Z</time>
      </trkpt>
      <trkpt lat="43.58793" lon="2.90669">
        <ele>934</ele>
        <time>2014-01-18T09:14:29Z</time>
      </trkpt>
      <trkpt lat="43.58794" lon="2.90676">
        <ele>934</ele>
        <time>2014-01-18T09:14:30Z</time>
      </trkpt>
      <trkpt lat="43.58795" lon="2.90681">
        <ele>934</ele>
        <time>2014-01-18T09:14:31Z</time>
      </trkpt>
      <trkpt lat="43.58796" lon="2.90687">
        <ele>935</ele>
        <time>2014-01-18T09:14:32Z</time>
      </trkpt>
      <trkpt lat="43.58796" lon="2.90693">
        <ele>935</ele>
        <time>2014-01-18T09:14:33Z</time>
      </trkpt>
      <trkpt lat="43.58796" lon="2.907">
        <ele>935</ele>
        <time>2014-01-18T09:14:34Z</time>
      </trkpt>
      <trkpt lat="43.58796" lon="2.90706">
        <ele>935</ele>
        <time>2014-01-18T09:14:35Z</time>
      </trkpt>
      <trkpt lat="43.58796" lon="2.90712">
        <ele>936</ele>
        <time>2014-01-18T09:14:36Z</time>
      </trkpt>
      <trkpt lat="43.58796" lon="2.90716">
        <ele>936</ele>
        <time>2014-01-18T09:14:37Z</time>
      </trkpt>
      <trkpt lat="43.58794" lon="2.90716">
        <ele>935</ele>
        <time>2014-01-18T09:14:38Z</time>
      </trkpt>
      <trkpt lat="43.58794" lon="2.90714">
        <ele>935</ele>
        <time>2014-01-18T09:14:39Z</time>
      </trkpt>
      <trkpt lat="43.58794" lon="2.90713">
        <ele>935</ele>
        <time>2014-01-18T09:14:40Z</time>
      </trkpt>
      <trkpt lat="43.58794" lon="2.90711">
        <ele>935</ele>
        <time>2014-01-18T09:14:41Z</time>
      </trkpt>
      <trkpt lat="43.58793" lon="2.90703">
        <ele>935</ele>
        <time>2014-01-18T09:14:46Z</time>
      </trkpt>
      <trkpt lat="43.58793" lon="2.90692">
        <ele>934</ele>
        <time>2014-01-18T09:14:49Z</time>
      </trkpt>
      <trkpt lat="43.58792" lon="2.90689">
        <ele>934</ele>
        <time>2014-01-18T09:14:50Z</time>
      </trkpt>
      <trkpt lat="43.5879" lon="2.90687">
        <ele>933</ele>
        <time>2014-01-18T09:14:51Z</time>
      </trkpt>
      <trkpt lat="43.58789" lon="2.90687">
        <ele>933</ele>
        <time>2014-01-18T09:14:52Z</time>
      </trkpt>
      <trkpt lat="43.58789" lon="2.90687">
        <ele>933</ele>
        <time>2014-01-18T09:14:53Z</time>
      </trkpt>
      <trkpt lat="43.58789" lon="2.90688">
        <ele>933</ele>
        <time>2014-01-18T09:14:54Z</time>
      </trkpt>
      <trkpt lat="43.58789" lon="2.90689">
        <ele>933</ele>
        <time>2014-01-18T09:14:55Z</time>
      </trkpt>
      <trkpt lat="43.58788" lon="2.9069">
        <ele>933</ele>
        <time>2014-01-18T09:14:56Z</time>
      </trkpt>
      <trkpt lat="43.58788" lon="2.90693">
        <ele>933</ele>
        <time>2014-01-18T09:14:57Z</time>
      </trkpt>
      <trkpt lat="43.58788" lon="2.90696">
        <ele>933</ele>
        <time>2014-01-18T09:14:58Z</time>
      </trkpt>
      <trkpt lat="43.58788" lon="2.90699">
        <ele>933</ele>
        <time>2014-01-18T09:14:59Z</time>
      </trkpt>
      <trkpt lat="43.58786" lon="2.90707">
        <ele>933</ele>
        <time>2014-01-18T09:15:02Z</time>
      </trkpt>
      <trkpt lat="43.58778" lon="2.90714">
        <ele>932</ele>
        <time>2014-01-18T09:15:05Z</time>
      </trkpt>
      <trkpt lat="43.58775" lon="2.90717">
        <ele>931</ele>
        <time>2014-01-18T09:15:06Z</time>
      </trkpt>
      <trkpt lat="43.58771" lon="2.90719">
        <ele>930</ele>
        <time>2014-01-18T09:15:07Z</time>
      </trkpt>
      <trkpt lat="43.58767" lon="2.90722">
        <ele>929</ele>
        <time>2014-01-18T09:15:08Z</time>
      </trkpt>
      <trkpt lat="43.58765" lon="2.90724">
        <ele>929</ele>
        <time>2014-01-18T09:15:09Z</time>
      </trkpt>
      <trkpt lat="43.58763" lon="2.90728">
        <ele>928</ele>
        <time>2014-01-18T09:15:10Z</time>
      </trkpt>
      <trkpt lat="43.58761" lon="2.90733">
        <ele>927</ele>
        <time>2014-01-18T09:15:11Z</time>
      </trkpt>
      <trkpt lat="43.58758" lon="2.90737">
        <ele>925</ele>
        <time>2014-01-18T09:15:12Z</time>
      </trkpt>
      <trkpt lat="43.58756" lon="2.90742">
        <ele>923</ele>
        <time>2014-01-18T09:15:13Z</time>
      </trkpt>
      <trkpt lat="43.58756" lon="2.90747">
        <ele>921</ele>
        <time>2014-01-18T09:15:14Z</time>
      </trkpt>
      <trkpt lat="43.58756" lon="2.9075">
        <ele>923</ele>
        <time>2014-01-18T09:15:15Z</time>
      </trkpt>
      <trkpt lat="43.58753" lon="2.90754">
        <ele>923</ele>
        <time>2014-01-18T09:15:16Z</time>
      </trkpt>
      <trkpt lat="43.5875" lon="2.90756">
        <ele>923</ele>
        <time>2014-01-18T09:15:17Z</time>
      </trkpt>
      <trkpt lat="43.58749" lon="2.90758">
        <ele>912</ele>
        <time>2014-01-18T09:15:18Z</time>
      </trkpt>
      <trkpt lat="43.58747" lon="2.90761">
        <ele>911</ele>
        <time>2014-01-18T09:15:19Z</time>
      </trkpt>
      <trkpt lat="43.58746" lon="2.90765">
        <ele>909</ele>
        <time>2014-01-18T09:15:20Z</time>
      </trkpt>
      <trkpt lat="43.58744" lon="2.9077">
        <ele>908</ele>
        <time>2014-01-18T09:15:21Z</time>
      </trkpt>
      <trkpt lat="43.58745" lon="2.90775">
        <ele>907</ele>
        <time>2014-01-18T09:15:22Z</time>
      </trkpt>
      <trkpt lat="43.58743" lon="2.90778">
        <ele>907</ele>
        <time>2014-01-18T09:15:23Z</time>
      </trkpt>
      <trkpt lat="43.5874" lon="2.90782">
        <ele>906</ele>
        <time>2014-01-18T09:15:24Z</time>
      </trkpt>
      <trkpt lat="43.58737" lon="2.90786">
        <ele>906</ele>
        <time>2014-01-18T09:15:25Z</time>
      </trkpt>
      <trkpt lat="43.58735" lon="2.90789">
        <ele>906</ele>
        <time>2014-01-18T09:15:26Z</time>
      </trkpt>
      <trkpt lat="43.58734" lon="2.90793">
        <ele>906</ele>
        <time>2014-01-18T09:15:27Z</time>
      </trkpt>
      <trkpt lat="43.58733" lon="2.90796">
        <ele>906</ele>
        <time>2014-01-18T09:15:28Z</time>
      </trkpt>
      <trkpt lat="43.58733" lon="2.908">
        <ele>907</ele>
        <time>2014-01-18T09:15:29Z</time>
      </trkpt>
      <trkpt lat="43.58733" lon="2.90802">
        <ele>907</ele>
        <time>2014-01-18T09:15:30Z</time>
      </trkpt>
      <trkpt lat="43.58732" lon="2.90804">
        <ele>908</ele>
        <time>2014-01-18T09:15:33Z</time>
      </trkpt>
      <trkpt lat="43.58732" lon="2.90805">
        <ele>908</ele>
        <time>2014-01-18T09:15:58Z</time>
      </trkpt>
      <trkpt lat="43.58729" lon="2.90808">
        <ele>908</ele>
        <time>2014-01-18T09:16:00Z</time>
      </trkpt>
      <trkpt lat="43.58724" lon="2.90815">
        <ele>907</ele>
        <time>2014-01-18T09:16:03Z</time>
      </trkpt>
      <trkpt lat="43.58714" lon="2.90825">
        <ele>904</ele>
        <time>2014-01-18T09:16:06Z</time>
      </trkpt>
      <trkpt lat="43.58711" lon="2.9083">
        <ele>902</ele>
        <time>2014-01-18T09:16:07Z</time>
      </trkpt>
      <trkpt lat="43.58709" lon="2.90834">
        <ele>911</ele>
        <time>2014-01-18T09:16:08Z</time>
      </trkpt>
      <trkpt lat="43.58707" lon="2.9084">
        <ele>910</ele>
        <time>2014-01-18T09:16:09Z</time>
      </trkpt>
      <trkpt lat="43.58703" lon="2.90844">
        <ele>909</ele>
        <time>2014-01-18T09:16:10Z</time>
      </trkpt>
      <trkpt lat="43.58701" lon="2.9085">
        <ele>908</ele>
        <time>2014-01-18T09:16:11Z</time>
      </trkpt>
      <trkpt lat="43.58698" lon="2.90856">
        <ele>908</ele>
        <time>2014-01-18T09:16:12Z</time>
      </trkpt>
      <trkpt lat="43.58697" lon="2.90859">
        <ele>908</ele>
        <time>2014-01-18T09:16:13Z</time>
      </trkpt>
      <trkpt lat="43.58695" lon="2.90861">
        <ele>908</ele>
        <time>2014-01-18T09:16:14Z</time>
      </trkpt>
      <trkpt lat="43.58695" lon="2.90862">
        <ele>908</ele>
        <time>2014-01-18T09:16:15Z</time>
      </trkpt>
      <trkpt lat="43.58694" lon="2.90863">
        <ele>907</ele>
        <time>2014-01-18T09:16:16Z</time>
      </trkpt>
      <trkpt lat="43.58693" lon="2.90863">
        <ele>907</ele>
        <time>2014-01-18T09:16:17Z</time>
      </trkpt>
      <trkpt lat="43.5869" lon="2.90867">
        <ele>907</ele>
        <time>2014-01-18T09:16:18Z</time>
      </trkpt>
      <trkpt lat="43.58686" lon="2.9087">
        <ele>906</ele>
        <time>2014-01-18T09:16:19Z</time>
      </trkpt>
      <trkpt lat="43.58683" lon="2.90875">
        <ele>906</ele>
        <time>2014-01-18T09:16:20Z</time>
      </trkpt>
      <trkpt lat="43.58682" lon="2.90878">
        <ele>906</ele>
        <time>2014-01-18T09:16:21Z</time>
      </trkpt>
      <trkpt lat="43.58679" lon="2.9088">
        <ele>906</ele>
        <time>2014-01-18T09:16:22Z</time>
      </trkpt>
      <trkpt lat="43.58678" lon="2.90877">
        <ele>905</ele>
        <time>2014-01-18T09:16:23Z</time>
      </trkpt>
      <trkpt lat="43.58677" lon="2.90873">
        <ele>905</ele>
        <time>2014-01-18T09:16:24Z</time>
      </trkpt>
      <trkpt lat="43.58678" lon="2.90866">
        <ele>903</ele>
        <time>2014-01-18T09:16:25Z</time>
      </trkpt>
      <trkpt lat="43.5868" lon="2.90862">
        <ele>903</ele>
        <time>2014-01-18T09:16:26Z</time>
      </trkpt>
      <trkpt lat="43.58681" lon="2.90857">
        <ele>901</ele>
        <time>2014-01-18T09:16:27Z</time>
      </trkpt>
      <trkpt lat="43.58685" lon="2.90855">
        <ele>902</ele>
        <time>2014-01-18T09:16:28Z</time>
      </trkpt>
      <trkpt lat="43.58687" lon="2.90852">
        <ele>902</ele>
        <time>2014-01-18T09:16:29Z</time>
      </trkpt>
      <trkpt lat="43.58689" lon="2.90844">
        <ele>901</ele>
        <time>2014-01-18T09:16:30Z</time>
      </trkpt>
      <trkpt lat="43.58691" lon="2.90836">
        <ele>901</ele>
        <time>2014-01-18T09:16:31Z</time>
      </trkpt>
      <trkpt lat="43.5869" lon="2.90829">
        <ele>892</ele>
        <time>2014-01-18T09:16:32Z</time>
      </trkpt>
      <trkpt lat="43.58688" lon="2.90823">
        <ele>891</ele>
        <time>2014-01-18T09:16:33Z</time>
      </trkpt>
      <trkpt lat="43.58689" lon="2.90815">
        <ele>892</ele>
        <time>2014-01-18T09:16:34Z</time>
      </trkpt>
      <trkpt lat="43.5869" lon="2.90807">
        <ele>893</ele>
        <time>2014-01-18T09:16:35Z</time>
      </trkpt>
      <trkpt lat="43.58691" lon="2.90799">
        <ele>893</ele>
        <time>2014-01-18T09:16:36Z</time>
      </trkpt>
      <trkpt lat="43.58693" lon="2.90792">
        <ele>893</ele>
        <time>2014-01-18T09:16:37Z</time>
      </trkpt>
      <trkpt lat="43.58694" lon="2.90785">
        <ele>893</ele>
        <time>2014-01-18T09:16:38Z</time>
      </trkpt>
      <trkpt lat="43.58696" lon="2.90777">
        <ele>892</ele>
        <time>2014-01-18T09:16:39Z</time>
      </trkpt>
      <trkpt lat="43.58696" lon="2.90769">
        <ele>891</ele>
        <time>2014-01-18T09:16:40Z</time>
      </trkpt>
      <trkpt lat="43.58696" lon="2.90763">
        <ele>890</ele>
        <time>2014-01-18T09:16:41Z</time>
      </trkpt>
      <trkpt lat="43.58695" lon="2.90757">
        <ele>889</ele>
        <time>2014-01-18T09:16:42Z</time>
      </trkpt>
      <trkpt lat="43.58696" lon="2.90753">
        <ele>889</ele>
        <time>2014-01-18T09:16:43Z</time>
      </trkpt>
      <trkpt lat="43.58697" lon="2.90753">
        <ele>890</ele>
        <time>2014-01-18T09:16:44Z</time>
      </trkpt>
      <trkpt lat="43.58698" lon="2.90753">
        <ele>890</ele>
        <time>2014-01-18T09:16:45Z</time>
      </trkpt>
      <trkpt lat="43.58697" lon="2.90752">
        <ele>890</ele>
        <time>2014-01-18T09:16:48Z</time>
      </trkpt>
      <trkpt lat="43.58696" lon="2.90752">
        <ele>889</ele>
        <time>2014-01-18T09:16:50Z</time>
      </trkpt>
      <trkpt lat="43.58696" lon="2.90753">
        <ele>889</ele>
        <time>2014-01-18T09:16:51Z</time>
      </trkpt>
      <trkpt lat="43.58696" lon="2.90754">
        <ele>889</ele>
        <time>2014-01-18T09:16:52Z</time>
      </trkpt>
      <trkpt lat="43.58696" lon="2.90755">
        <ele>889</ele>
        <time>2014-01-18T09:16:53Z</time>
      </trkpt>
      <trkpt lat="43.58696" lon="2.90755">
        <ele>889</ele>
        <time>2014-01-18T09:16:54Z</time>
      </trkpt>
      <trkpt lat="43.58696" lon="2.90755">
        <ele>889</ele>
        <time>2014-01-18T09:16:56Z</time>
      </trkpt>
      <trkpt lat="43.58693" lon="2.90758">
        <ele>888</ele>
        <time>2014-01-18T09:16:58Z</time>
      </trkpt>
      <trkpt lat="43.58691" lon="2.90762">
        <ele>887</ele>
        <time>2014-01-18T09:16:59Z</time>
      </trkpt>
      <trkpt lat="43.5869" lon="2.90765">
        <ele>887</ele>
        <time>2014-01-18T09:17:00Z</time>
      </trkpt>
      <trkpt lat="43.58687" lon="2.90769">
        <ele>887</ele>
        <time>2014-01-18T09:17:01Z</time>
      </trkpt>
      <trkpt lat="43.58683" lon="2.90772">
        <ele>886</ele>
        <time>2014-01-18T09:17:02Z</time>
      </trkpt>
      <trkpt lat="43.58678" lon="2.90776">
        <ele>886</ele>
        <time>2014-01-18T09:17:03Z</time>
      </trkpt>
      <trkpt lat="43.58673" lon="2.9078">
        <ele>886</ele>
        <time>2014-01-18T09:17:04Z</time>
      </trkpt>
      <trkpt lat="43.58669" lon="2.90783">
        <ele>886</ele>
        <time>2014-01-18T09:17:05Z</time>
      </trkpt>
      <trkpt lat="43.58667" lon="2.90786">
        <ele>887</ele>
        <time>2014-01-18T09:17:06Z</time>
      </trkpt>
      <trkpt lat="43.58665" lon="2.90788">
        <ele>854</ele>
        <time>2014-01-18T09:17:07Z</time>
      </trkpt>
      <trkpt lat="43.58663" lon="2.90792">
        <ele>854</ele>
        <time>2014-01-18T09:17:08Z</time>
      </trkpt>
      <trkpt lat="43.58662" lon="2.90797">
        <ele>855</ele>
        <time>2014-01-18T09:17:09Z</time>
      </trkpt>
      <trkpt lat="43.58661" lon="2.90799">
        <ele>855</ele>
        <time>2014-01-18T09:17:10Z</time>
      </trkpt>
      <trkpt lat="43.5866" lon="2.90801">
        <ele>855</ele>
        <time>2014-01-18T09:17:11Z</time>
      </trkpt>
      <trkpt lat="43.58659" lon="2.90803">
        <ele>855</ele>
        <time>2014-01-18T09:17:12Z</time>
      </trkpt>
      <trkpt lat="43.58659" lon="2.90806">
        <ele>856</ele>
        <time>2014-01-18T09:17:14Z</time>
      </trkpt>
      <trkpt lat="43.58659" lon="2.90807">
        <ele>857</ele>
        <time>2014-01-18T09:17:15Z</time>
      </trkpt>
      <trkpt lat="43.58659" lon="2.90808">
        <ele>857</ele>
        <time>2014-01-18T09:17:21Z</time>
      </trkpt>
      <trkpt lat="43.58659" lon="2.9081">
        <ele>858</ele>
        <time>2014-01-18T09:17:24Z</time>
      </trkpt>
      <trkpt lat="43.5866" lon="2.9081">
        <ele>858</ele>
        <time>2014-01-18T09:17:25Z</time>
      </trkpt>
      <trkpt lat="43.5866" lon="2.90811">
        <ele>858</ele>
        <time>2014-01-18T09:17:26Z</time>
      </trkpt>
      <trkpt lat="43.5866" lon="2.9081">
        <ele>858</ele>
        <time>2014-01-18T09:17:27Z</time>
      </trkpt>
      <trkpt lat="43.5866" lon="2.9081">
        <ele>858</ele>
        <time>2014-01-18T09:17:28Z</time>
      </trkpt>
      <trkpt lat="43.5866" lon="2.90809">
        <ele>858</ele>
        <time>2014-01-18T09:17:29Z</time>
      </trkpt>
      <trkpt lat="43.58658" lon="2.90798">
        <ele>854</ele>
        <time>2014-01-18T09:17:33Z</time>
      </trkpt>
      <trkpt lat="43.58658" lon="2.90793">
        <ele>854</ele>
        <time>2014-01-18T09:17:34Z</time>
      </trkpt>
      <trkpt lat="43.58657" lon="2.90788">
        <ele>853</ele>
        <time>2014-01-18T09:17:35Z</time>
      </trkpt>
      <trkpt lat="43.58658" lon="2.90784">
        <ele>853</ele>
        <time>2014-01-18T09:17:36Z</time>
      </trkpt>
      <trkpt lat="43.58658" lon="2.90782">
        <ele>853</ele>
        <time>2014-01-18T09:17:37Z</time>
      </trkpt>
      <trkpt lat="43.58657" lon="2.90783">
        <ele>853</ele>
        <time>2014-01-18T09:17:39Z</time>
      </trkpt>
      <trkpt lat="43.58657" lon="2.90785">
        <ele>853</ele>
        <time>2014-01-18T09:17:40Z</time>
      </trkpt>
      <trkpt lat="43.58657" lon="2.90788">
        <ele>853</ele>
        <time>2014-01-18T09:17:41Z</time>
      </trkpt>
      <trkpt lat="43.58656" lon="2.90791">
        <ele>853</ele>
        <time>2014-01-18T09:17:42Z</time>
      </trkpt>
      <trkpt lat="43.58656" lon="2.90793">
        <ele>853</ele>
        <time>2014-01-18T09:17:43Z</time>
      </trkpt>
      <trkpt lat="43.58657" lon="2.90796">
        <ele>854</ele>
        <time>2014-01-18T09:17:44Z</time>
      </trkpt>
      <trkpt lat="43.58656" lon="2.90799">
        <ele>854</ele>
        <time>2014-01-18T09:17:45Z</time>
      </trkpt>
      <trkpt lat="43.58655" lon="2.90804">
        <ele>855</ele>
        <time>2014-01-18T09:17:46Z</time>
      </trkpt>
      <trkpt lat="43.58654" lon="2.90809">
        <ele>856</ele>
        <time>2014-01-18T09:17:47Z</time>
      </trkpt>
      <trkpt lat="43.5865" lon="2.90812">
        <ele>856</ele>
        <time>2014-01-18T09:17:48Z</time>
      </trkpt>
      <trkpt lat="43.58648" lon="2.90816">
        <ele>856</ele>
        <time>2014-01-18T09:17:49Z</time>
      </trkpt>
      <trkpt lat="43.58645" lon="2.90817">
        <ele>855</ele>
        <time>2014-01-18T09:17:50Z</time>
      </trkpt>
      <trkpt lat="43.58641" lon="2.90819">
        <ele>853</ele>
        <time>2014-01-18T09:17:51Z</time>
      </trkpt>
      <trkpt lat="43.58639" lon="2.9082">
        <ele>852</ele>
        <time>2014-01-18T09:17:52Z</time>
      </trkpt>
      <trkpt lat="43.58636" lon="2.90822">
        <ele>851</ele>
        <time>2014-01-18T09:17:53Z</time>
      </trkpt>
      <trkpt lat="43.58632" lon="2.90826">
        <ele>849</ele>
        <time>2014-01-18T09:17:54Z</time>
      </trkpt>
      <trkpt lat="43.5863" lon="2.90829">
        <ele>848</ele>
        <time>2014-01-18T09:17:55Z</time>
      </trkpt>
      <trkpt lat="43.58628" lon="2.90833">
        <ele>848</ele>
        <time>2014-01-18T09:17:56Z</time>
      </trkpt>
      <trkpt lat="43.58626" lon="2.90837">
        <ele>854</ele>
        <time>2014-01-18T09:17:57Z</time>
      </trkpt>
      <trkpt lat="43.58623" lon="2.90841">
        <ele>853</ele>
        <time>2014-01-18T09:17:58Z</time>
      </trkpt>
      <trkpt lat="43.58621" lon="2.90845">
        <ele>852</ele>
        <time>2014-01-18T09:17:59Z</time>
      </trkpt>
      <trkpt lat="43.58618" lon="2.9085">
        <ele>852</ele>
        <time>2014-01-18T09:18:00Z</time>
      </trkpt>
      <trkpt lat="43.58616" lon="2.90856">
        <ele>852</ele>
        <time>2014-01-18T09:18:01Z</time>
      </trkpt>
      <trkpt lat="43.58614" lon="2.90859">
        <ele>851</ele>
        <time>2014-01-18T09:18:02Z</time>
      </trkpt>
      <trkpt lat="43.58612" lon="2.90864">
        <ele>851</ele>
        <time>2014-01-18T09:18:03Z</time>
      </trkpt>
      <trkpt lat="43.5861" lon="2.90864">
        <ele>851</ele>
        <time>2014-01-18T09:18:04Z</time>
      </trkpt>
      <trkpt lat="43.58609" lon="2.90868">
        <ele>851</ele>
        <time>2014-01-18T09:18:05Z</time>
      </trkpt>
      <trkpt lat="43.58606" lon="2.90871">
        <ele>851</ele>
        <time>2014-01-18T09:18:06Z</time>
      </trkpt>
      <trkpt lat="43.58604" lon="2.90876">
        <ele>851</ele>
        <time>2014-01-18T09:18:07Z</time>
      </trkpt>
      <trkpt lat="43.58601" lon="2.90881">
        <ele>851</ele>
        <time>2014-01-18T09:18:08Z</time>
      </trkpt>
      <trkpt lat="43.58599" lon="2.90885">
        <ele>850</ele>
        <time>2014-01-18T09:18:09Z</time>
      </trkpt>
      <trkpt lat="43.58597" lon="2.90888">
        <ele>850</ele>
        <time>2014-01-18T09:18:10Z</time>
      </trkpt>
      <trkpt lat="43.58596" lon="2.90888">
        <ele>850</ele>
        <time>2014-01-18T09:18:11Z</time>
      </trkpt>
      <trkpt lat="43.58597" lon="2.90885">
        <ele>850</ele>
        <time>2014-01-18T09:18:12Z</time>
      </trkpt>
      <trkpt lat="43.58598" lon="2.90887">
        <ele>850</ele>
        <time>2014-01-18T09:18:13Z</time>
      </trkpt>
      <trkpt lat="43.58603" lon="2.90885">
        <ele>852</ele>
        <time>2014-01-18T09:18:17Z</time>
      </trkpt>
      <trkpt lat="43.58604" lon="2.90883">
        <ele>852</ele>
        <time>2014-01-18T09:18:18Z</time>
      </trkpt>
      <trkpt lat="43.58605" lon="2.90881">
        <ele>852</ele>
        <time>2014-01-18T09:18:19Z</time>
      </trkpt>
      <trkpt lat="43.58606" lon="2.9088">
        <ele>852</ele>
        <time>2014-01-18T09:18:20Z</time>
      </trkpt>
      <trkpt lat="43.58608" lon="2.90878">
        <ele>852</ele>
        <time>2014-01-18T09:18:21Z</time>
      </trkpt>
      <trkpt lat="43.5861" lon="2.90876">
        <ele>853</ele>
        <time>2014-01-18T09:18:22Z</time>
      </trkpt>
      <trkpt lat="43.58613" lon="2.90874">
        <ele>853</ele>
        <time>2014-01-18T09:18:23Z</time>
      </trkpt>
      <trkpt lat="43.58615" lon="2.9087">
        <ele>853</ele>
        <time>2014-01-18T09:18:25Z</time>
      </trkpt>
      <trkpt lat="43.58615" lon="2.90867">
        <ele>853</ele>
        <time>2014-01-18T09:18:26Z</time>
      </trkpt>
      <trkpt lat="43.58616" lon="2.90863">
        <ele>853</ele>
        <time>2014-01-18T09:18:27Z</time>
      </trkpt>
      <trkpt lat="43.58617" lon="2.90858">
        <ele>852</ele>
        <time>2014-01-18T09:18:28Z</time>
      </trkpt>
      <trkpt lat="43.58617" lon="2.90853">
        <ele>852</ele>
        <time>2014-01-18T09:18:29Z</time>
      </trkpt>
      <trkpt lat="43.58617" lon="2.90847">
        <ele>851</ele>
        <time>2014-01-18T09:18:30Z</time>
      </trkpt>
      <trkpt lat="43.58617" lon="2.90841">
        <ele>850</ele>
        <time>2014-01-18T09:18:31Z</time>
      </trkpt>
      <trkpt lat="43.58615" lon="2.90837">
        <ele>849</ele>
        <time>2014-01-18T09:18:32Z</time>
      </trkpt>
      <trkpt lat="43.58614" lon="2.90831">
        <ele>840</ele>
        <time>2014-01-18T09:18:33Z</time>
      </trkpt>
      <trkpt lat="43.58614" lon="2.90827">
        <ele>840</ele>
        <time>2014-01-18T09:18:34Z</time>
      </trkpt>
      <trkpt lat="43.58614" lon="2.90824">
        <ele>841</ele>
        <time>2014-01-18T09:18:35Z</time>
      </trkpt>
      <trkpt lat="43.58616" lon="2.90822">
        <ele>841</ele>
        <time>2014-01-18T09:18:36Z</time>
      </trkpt>
      <trkpt lat="43.58618" lon="2.9082">
        <ele>842</ele>
        <time>2014-01-18T09:18:37Z</time>
      </trkpt>
      <trkpt lat="43.58618" lon="2.90815">
        <ele>843</ele>
        <time>2014-01-18T09:18:38Z</time>
      </trkpt>
      <trkpt lat="43.58621" lon="2.90811">
        <ele>844</ele>
        <time>2014-01-18T09:18:39Z</time>
      </trkpt>
      <trkpt lat="43.58623" lon="2.90807">
        <ele>844</ele>
        <time>2014-01-18T09:18:40Z</time>
      </trkpt>
      <trkpt lat="43.58625" lon="2.90802">
        <ele>845</ele>
        <time>2014-01-18T09:18:41Z</time>
      </trkpt>
      <trkpt lat="43.58626" lon="2.90797">
        <ele>845</ele>
        <time>2014-01-18T09:18:42Z</time>
      </trkpt>
      <trkpt lat="43.58627" lon="2.90791">
        <ele>845</ele>
        <time>2014-01-18T09:18:43Z</time>
      </trkpt>
      <trkpt lat="43.58626" lon="2.90785">
        <ele>845</ele>
        <time>2014-01-18T09:18:44Z</time>
      </trkpt>
      <trkpt lat="43.58625" lon="2.90781">
        <ele>844</ele>
        <time>2014-01-18T09:18:45Z</time>
      </trkpt>
      <trkpt lat="43.58625" lon="2.90779">
        <ele>844</ele>
        <time>2014-01-18T09:18:46Z</time>
      </trkpt>
      <trkpt lat="43.58624" lon="2.90779">
        <ele>844</ele>
        <time>2014-01-18T09:18:47Z</time>
      </trkpt>
      <trkpt lat="43.58624" lon="2.90778">
        <ele>844</ele>
        <time>2014-01-18T09:19:21Z</time>
      </trkpt>
      <trkpt lat="43.58624" lon="2.90778">
        <ele>844</ele>
        <time>2014-01-18T09:19:22Z</time>
      </trkpt>
      <trkpt lat="43.58624" lon="2.90775">
        <ele>844</ele>
        <time>2014-01-18T09:19:25Z</time>
      </trkpt>
      <trkpt lat="43.58624" lon="2.90775">
        <ele>844</ele>
        <time>2014-01-18T09:19:26Z</time>
      </trkpt>
      <trkpt lat="43.58624" lon="2.90774">
        <ele>844</ele>
        <time>2014-01-18T09:19:30Z</time>
      </trkpt>
      <trkpt lat="43.58624" lon="2.90771">
        <ele>844</ele>
        <time>2014-01-18T09:19:31Z</time>
      </trkpt>
      <trkpt lat="43.58625" lon="2.90768">
        <ele>844</ele>
        <time>2014-01-18T09:19:33Z</time>
      </trkpt>
      <trkpt lat="43.58625" lon="2.90767">
        <ele>844</ele>
        <time>2014-01-18T09:19:34Z</time>
      </trkpt>
      <trkpt lat="43.58624" lon="2.90767">
        <ele>843</ele>
        <time>2014-01-18T09:19:36Z</time>
      </trkpt>
      <trkpt lat="43.58624" lon="2.90766">
        <ele>843</ele>
        <time>2014-01-18T09:19:37Z</time>
      </trkpt>
      <trkpt lat="43.58622" lon="2.90766">
        <ele>843</ele>
        <time>2014-01-18T09:19:38Z</time>
      </trkpt>
      <trkpt lat="43.58619" lon="2.90769">
        <ele>842</ele>
        <time>2014-01-18T09:19:42Z</time>
      </trkpt>
      <trkpt lat="43.58619" lon="2.90771">
        <ele>842</ele>
        <time>2014-01-18T09:19:43Z</time>
      </trkpt>
      <trkpt lat="43.58618" lon="2.90773">
        <ele>842</ele>
        <time>2014-01-18T09:19:44Z</time>
      </trkpt>
      <trkpt lat="43.58617" lon="2.90775">
        <ele>841</ele>
        <time>2014-01-18T09:19:45Z</time>
      </trkpt>
      <trkpt lat="43.58616" lon="2.90777">
        <ele>841</ele>
        <time>2014-01-18T09:19:46Z</time>
      </trkpt>
      <trkpt lat="43.58616" lon="2.90779">
        <ele>841</ele>
        <time>2014-01-18T09:19:47Z</time>
      </trkpt>
      <trkpt lat="43.58615" lon="2.90784">
        <ele>841</ele>
        <time>2014-01-18T09:19:49Z</time>
      </trkpt>
      <trkpt lat="43.58613" lon="2.90787">
        <ele>841</ele>
        <time>2014-01-18T09:19:50Z</time>
      </trkpt>
      <trkpt lat="43.58611" lon="2.90789">
        <ele>841</ele>
        <time>2014-01-18T09:19:51Z</time>
      </trkpt>
      <trkpt lat="43.58609" lon="2.90791">
        <ele>840</ele>
        <time>2014-01-18T09:19:52Z</time>
      </trkpt>
      <trkpt lat="43.58607" lon="2.90794">
        <ele>839</ele>
        <time>2014-01-18T09:19:53Z</time>
      </trkpt>
      <trkpt lat="43.58605" lon="2.90795">
        <ele>839</ele>
        <time>2014-01-18T09:19:54Z</time>
      </trkpt>
      <trkpt lat="43.58602" lon="2.90798">
        <ele>838</ele>
        <time>2014-01-18T09:19:55Z</time>
      </trkpt>
      <trkpt lat="43.586" lon="2.908">
        <ele>837</ele>
        <time>2014-01-18T09:19:56Z</time>
      </trkpt>
      <trkpt lat="43.58597" lon="2.90804">
        <ele>836</ele>
        <time>2014-01-18T09:19:57Z</time>
      </trkpt>
      <trkpt lat="43.58594" lon="2.90809">
        <ele>835</ele>
        <time>2014-01-18T09:19:58Z</time>
      </trkpt>
      <trkpt lat="43.58593" lon="2.90816">
        <ele>833</ele>
        <time>2014-01-18T09:19:59Z</time>
      </trkpt>
      <trkpt lat="43.58592" lon="2.9082">
        <ele>831</ele>
        <time>2014-01-18T09:20:00Z</time>
      </trkpt>
      <trkpt lat="43.5859" lon="2.90826">
        <ele>828</ele>
        <time>2014-01-18T09:20:01Z</time>
      </trkpt>
      <trkpt lat="43.58587" lon="2.90829">
        <ele>824</ele>
        <time>2014-01-18T09:20:02Z</time>
      </trkpt>
      <trkpt lat="43.58584" lon="2.90835">
        <ele>821</ele>
        <time>2014-01-18T09:20:03Z</time>
      </trkpt>
      <trkpt lat="43.58581" lon="2.9084">
        <ele>816</ele>
        <time>2014-01-18T09:20:04Z</time>
      </trkpt>
      <trkpt lat="43.58578" lon="2.90844">
        <ele>814</ele>
        <time>2014-01-18T09:20:05Z</time>
      </trkpt>
      <trkpt lat="43.58575" lon="2.90846">
        <ele>813</ele>
        <time>2014-01-18T09:20:06Z</time>
      </trkpt>
      <trkpt lat="43.58571" lon="2.9085">
        <ele>811</ele>
        <time>2014-01-18T09:20:07Z</time>
      </trkpt>
      <trkpt lat="43.58567" lon="2.90853">
        <ele>810</ele>
        <time>2014-01-18T09:20:08Z</time>
      </trkpt>
      <trkpt lat="43.58564" lon="2.90856">
        <ele>809</ele>
        <time>2014-01-18T09:20:09Z</time>
      </trkpt>
      <trkpt lat="43.58562" lon="2.90861">
        <ele>809</ele>
        <time>2014-01-18T09:20:10Z</time>
      </trkpt>
      <trkpt lat="43.58559" lon="2.90865">
        <ele>808</ele>
        <time>2014-01-18T09:20:11Z</time>
      </trkpt>
      <trkpt lat="43.58556" lon="2.90869">
        <ele>808</ele>
        <time>2014-01-18T09:20:12Z</time>
      </trkpt>
      <trkpt lat="43.58554" lon="2.90873">
        <ele>808</ele>
        <time>2014-01-18T09:20:13Z</time>
      </trkpt>
      <trkpt lat="43.58551" lon="2.90878">
        <ele>807</ele>
        <time>2014-01-18T09:20:14Z</time>
      </trkpt>
      <trkpt lat="43.58549" lon="2.90882">
        <ele>807</ele>
        <time>2014-01-18T09:20:15Z</time>
      </trkpt>
      <trkpt lat="43.58546" lon="2.90887">
        <ele>807</ele>
        <time>2014-01-18T09:20:16Z</time>
      </trkpt>
      <trkpt lat="43.58544" lon="2.90892">
        <ele>807</ele>
        <time>2014-01-18T09:20:17Z</time>
      </trkpt>
      <trkpt lat="43.58542" lon="2.90897">
        <ele>806</ele>
        <time>2014-01-18T09:20:18Z</time>
      </trkpt>
      <trkpt lat="43.58539" lon="2.909">
        <ele>806</ele>
        <time>2014-01-18T09:20:19Z</time>
      </trkpt>
      <trkpt lat="43.58536" lon="2.90905">
        <ele>805</ele>
        <time>2014-01-18T09:20:20Z</time>
      </trkpt>
      <trkpt lat="43.58533" lon="2.90909">
        <ele>804</ele>
        <time>2014-01-18T09:20:21Z</time>
      </trkpt>
      <trkpt lat="43.5853" lon="2.90912">
        <ele>802</ele>
        <time>2014-01-18T09:20:22Z</time>
      </trkpt>
      <trkpt lat="43.58526" lon="2.90915">
        <ele>801</ele>
        <time>2014-01-18T09:20:23Z</time>
      </trkpt>
      <trkpt lat="43.58524" lon="2.90918">
        <ele>812</ele>
        <time>2014-01-18T09:20:24Z</time>
      </trkpt>
      <trkpt lat="43.58521" lon="2.90922">
        <ele>811</ele>
        <time>2014-01-18T09:20:25Z</time>
      </trkpt>
      <trkpt lat="43.5852" lon="2.90925">
        <ele>811</ele>
        <time>2014-01-18T09:20:26Z</time>
      </trkpt>
      <trkpt lat="43.58519" lon="2.90925">
        <ele>810</ele>
        <time>2014-01-18T09:20:27Z</time>
      </trkpt>
      <trkpt lat="43.58519" lon="2.90924">
        <ele>810</ele>
        <time>2014-01-18T09:20:28Z</time>
      </trkpt>
      <trkpt lat="43.58521" lon="2.90924">
        <ele>811</ele>
        <time>2014-01-18T09:20:29Z</time>
      </trkpt>
      <trkpt lat="43.58522" lon="2.90922">
        <ele>812</ele>
        <time>2014-01-18T09:20:30Z</time>
      </trkpt>
      <trkpt lat="43.58523" lon="2.90919">
        <ele>812</ele>
        <time>2014-01-18T09:20:31Z</time>
      </trkpt>
      <trkpt lat="43.58524" lon="2.90916">
        <ele>800</ele>
        <time>2014-01-18T09:20:32Z</time>
      </trkpt>
      <trkpt lat="43.58526" lon="2.90909">
        <ele>801</ele>
        <time>2014-01-18T09:20:34Z</time>
      </trkpt>
      <trkpt lat="43.58526" lon="2.90905">
        <ele>801</ele>
        <time>2014-01-18T09:20:35Z</time>
      </trkpt>
      <trkpt lat="43.58526" lon="2.90901">
        <ele>801</ele>
        <time>2014-01-18T09:20:36Z</time>
      </trkpt>
      <trkpt lat="43.58528" lon="2.90896">
        <ele>802</ele>
        <time>2014-01-18T09:20:37Z</time>
      </trkpt>
      <trkpt lat="43.58528" lon="2.90892">
        <ele>802</ele>
        <time>2014-01-18T09:20:38Z</time>
      </trkpt>
      <trkpt lat="43.58529" lon="2.90888">
        <ele>802</ele>
        <time>2014-01-18T09:20:39Z</time>
      </trkpt>
      <trkpt lat="43.5853" lon="2.90886">
        <ele>802</ele>
        <time>2014-01-18T09:20:40Z</time>
      </trkpt>
      <trkpt lat="43.5853" lon="2.90882">
        <ele>802</ele>
        <time>2014-01-18T09:20:41Z</time>
      </trkpt>
      <trkpt lat="43.58531" lon="2.90872">
        <ele>801</ele>
        <time>2014-01-18T09:20:43Z</time>
      </trkpt>
      <trkpt lat="43.58531" lon="2.90867">
        <ele>800</ele>
        <time>2014-01-18T09:20:44Z</time>
      </trkpt>
      <trkpt lat="43.58532" lon="2.90863">
        <ele>800</ele>
        <time>2014-01-18T09:20:45Z</time>
      </trkpt>
      <trkpt lat="43.58532" lon="2.9086">
        <ele>799</ele>
        <time>2014-01-18T09:20:46Z</time>
      </trkpt>
      <trkpt lat="43.58532" lon="2.90855">
        <ele>799</ele>
        <time>2014-01-18T09:20:47Z</time>
      </trkpt>
      <trkpt lat="43.58533" lon="2.90851">
        <ele>798</ele>
        <time>2014-01-18T09:20:48Z</time>
      </trkpt>
      <trkpt lat="43.58534" lon="2.90847">
        <ele>798</ele>
        <time>2014-01-18T09:20:49Z</time>
      </trkpt>
      <trkpt lat="43.58534" lon="2.90843">
        <ele>798</ele>
        <time>2014-01-18T09:20:50Z</time>
      </trkpt>
      <trkpt lat="43.58535" lon="2.90839">
        <ele>798</ele>
        <time>2014-01-18T09:20:51Z</time>
      </trkpt>
      <trkpt lat="43.58536" lon="2.90836">
        <ele>798</ele>
        <time>2014-01-18T09:20:52Z</time>
      </trkpt>
      <trkpt lat="43.58537" lon="2.90832">
        <ele>795</ele>
        <time>2014-01-18T09:20:53Z</time>
      </trkpt>
      <trkpt lat="43.58538" lon="2.90827">
        <ele>795</ele>
        <time>2014-01-18T09:20:54Z</time>
      </trkpt>
      <trkpt lat="43.58539" lon="2.90824">
        <ele>796</ele>
        <time>2014-01-18T09:20:55Z</time>
      </trkpt>
      <trkpt lat="43.5854" lon="2.9082">
        <ele>797</ele>
        <time>2014-01-18T09:20:56Z</time>
      </trkpt>
      <trkpt lat="43.5854" lon="2.90816">
        <ele>797</ele>
        <time>2014-01-18T09:20:57Z</time>
      </trkpt>
      <trkpt lat="43.5854" lon="2.90813">
        <ele>797</ele>
        <time>2014-01-18T09:20:58Z</time>
      </trkpt>
      <trkpt lat="43.5854" lon="2.90811">
        <ele>797</ele>
        <time>2014-01-18T09:20:59Z</time>
      </trkpt>
      <trkpt lat="43.58538" lon="2.9081">
        <ele>797</ele>
        <time>2014-01-18T09:21:00Z</time>
      </trkpt>
      <trkpt lat="43.58537" lon="2.90811">
        <ele>796</ele>
        <time>2014-01-18T09:21:01Z</time>
      </trkpt>
      <trkpt lat="43.58537" lon="2.90813">
        <ele>796</ele>
        <time>2014-01-18T09:21:02Z</time>
      </trkpt>
      <trkpt lat="43.58535" lon="2.90813">
        <ele>795</ele>
        <time>2014-01-18T09:21:03Z</time>
      </trkpt>
      <trkpt lat="43.58533" lon="2.90814">
        <ele>794</ele>
        <time>2014-01-18T09:21:04Z</time>
      </trkpt>
      <trkpt lat="43.58531" lon="2.90816">
        <ele>793</ele>
        <time>2014-01-18T09:21:05Z</time>
      </trkpt>
      <trkpt lat="43.58528" lon="2.90818">
        <ele>792</ele>
        <time>2014-01-18T09:21:06Z</time>
      </trkpt>
      <trkpt lat="43.58525" lon="2.9082">
        <ele>791</ele>
        <time>2014-01-18T09:21:07Z</time>
      </trkpt>
      <trkpt lat="43.58522" lon="2.90823">
        <ele>789</ele>
        <time>2014-01-18T09:21:08Z</time>
      </trkpt>
      <trkpt lat="43.58519" lon="2.90825">
        <ele>787</ele>
        <time>2014-01-18T09:21:09Z</time>
      </trkpt>
      <trkpt lat="43.58516" lon="2.90828">
        <ele>785</ele>
        <time>2014-01-18T09:21:10Z</time>
      </trkpt>
      <trkpt lat="43.58512" lon="2.90831">
        <ele>782</ele>
        <time>2014-01-18T09:21:11Z</time>
      </trkpt>
      <trkpt lat="43.5851" lon="2.90835">
        <ele>782</ele>
        <time>2014-01-18T09:21:12Z</time>
      </trkpt>
      <trkpt lat="43.58507" lon="2.90839">
        <ele>781</ele>
        <time>2014-01-18T09:21:13Z</time>
      </trkpt>
      <trkpt lat="43.58506" lon="2.90843">
        <ele>783</ele>
        <time>2014-01-18T09:21:14Z</time>
      </trkpt>
      <trkpt lat="43.58505" lon="2.90848">
        <ele>786</ele>
        <time>2014-01-18T09:21:15Z</time>
      </trkpt>
      <trkpt lat="43.58503" lon="2.90852">
        <ele>788</ele>
        <time>2014-01-18T09:21:16Z</time>
      </trkpt>
      <trkpt lat="43.58502" lon="2.90856">
        <ele>789</ele>
        <time>2014-01-18T09:21:17Z</time>
      </trkpt>
      <trkpt lat="43.58502" lon="2.90859">
        <ele>791</ele>
        <time>2014-01-18T09:21:18Z</time>
      </trkpt>
      <trkpt lat="43.58501" lon="2.90862">
        <ele>792</ele>
        <time>2014-01-18T09:21:19Z</time>
      </trkpt>
      <trkpt lat="43.585" lon="2.90864">
        <ele>765</ele>
        <time>2014-01-18T09:21:20Z</time>
      </trkpt>
      <trkpt lat="43.58498" lon="2.90866">
        <ele>765</ele>
        <time>2014-01-18T09:21:21Z</time>
      </trkpt>
      <trkpt lat="43.58496" lon="2.90869">
        <ele>765</ele>
        <time>2014-01-18T09:21:22Z</time>
      </trkpt>
      <trkpt lat="43.58494" lon="2.90872">
        <ele>765</ele>
        <time>2014-01-18T09:21:25Z</time>
      </trkpt>
      <trkpt lat="43.58494" lon="2.90873">
        <ele>765</ele>
        <time>2014-01-18T09:21:26Z</time>
      </trkpt>
      <trkpt lat="43.58494" lon="2.90873">
        <ele>765</ele>
        <time>2014-01-18T09:21:27Z</time>
      </trkpt>
      <trkpt lat="43.58494" lon="2.90874">
        <ele>765</ele>
        <time>2014-01-18T09:21:28Z</time>
      </trkpt>
      <trkpt lat="43.58494" lon="2.90874">
        <ele>765</ele>
        <time>2014-01-18T09:21:34Z</time>
      </trkpt>
      <trkpt lat="43.58494" lon="2.90876">
        <ele>766</ele>
        <time>2014-01-18T09:21:37Z</time>
      </trkpt>
      <trkpt lat="43.58493" lon="2.90877">
        <ele>766</ele>
        <time>2014-01-18T09:21:38Z</time>
      </trkpt>
      <trkpt lat="43.58493" lon="2.90877">
        <ele>766</ele>
        <time>2014-01-18T09:21:39Z</time>
      </trkpt>
      <trkpt lat="43.58493" lon="2.90877">
        <ele>766</ele>
        <time>2014-01-18T09:21:41Z</time>
      </trkpt>
      <trkpt lat="43.58493" lon="2.90877">
        <ele>766</ele>
        <time>2014-01-18T09:21:42Z</time>
      </trkpt>
      <trkpt lat="43.58493" lon="2.90876">
        <ele>766</ele>
        <time>2014-01-18T09:21:45Z</time>
      </trkpt>
      <trkpt lat="43.58494" lon="2.90875">
        <ele>765</ele>
        <time>2014-01-18T09:21:50Z</time>
      </trkpt>
      <trkpt lat="43.58494" lon="2.90875">
        <ele>765</ele>
        <time>2014-01-18T09:21:51Z</time>
      </trkpt>
      <trkpt lat="43.58494" lon="2.90875">
        <ele>765</ele>
        <time>2014-01-18T09:21:52Z</time>
      </trkpt>
      <trkpt lat="43.58494" lon="2.90875">
        <ele>765</ele>
        <time>2014-01-18T09:21:53Z</time>
      </trkpt>
      <trkpt lat="43.58494" lon="2.90875">
        <ele>765</ele>
        <time>2014-01-18T09:21:57Z</time>
      </trkpt>
      <trkpt lat="43.58494" lon="2.90875">
        <ele>765</ele>
        <time>2014-01-18T09:21:58Z</time>
      </trkpt>
      <trkpt lat="43.58494" lon="2.90875">
        <ele>765</ele>
        <time>2014-01-18T09:21:59Z</time>
      </trkpt>
      <trkpt lat="43.58494" lon="2.90875">
        <ele>765</ele>
        <time>2014-01-18T09:22:00Z</time>
      </trkpt>
      <trkpt lat="43.58494" lon="2.90875">
        <ele>765</ele>
        <time>2014-01-18T09:22:01Z</time>
      </trkpt>
      <trkpt lat="43.58494" lon="2.90875">
        <ele>765</ele>
        <time>2014-01-18T09:22:07Z</time>
      </trkpt>
      <trkpt lat="43.58495" lon="2.90866">
        <ele>765</ele>
        <time>2014-01-18T09:22:10Z</time>
      </trkpt>
      <trkpt lat="43.58496" lon="2.90853">
        <ele>765</ele>
        <time>2014-01-18T09:22:13Z</time>
      </trkpt>
      <trkpt lat="43.58496" lon="2.90847">
        <ele>766</ele>
        <time>2014-01-18T09:22:14Z</time>
      </trkpt>
      <trkpt lat="43.58497" lon="2.90842">
        <ele>767</ele>
        <time>2014-01-18T09:22:15Z</time>
      </trkpt>
      <trkpt lat="43.58498" lon="2.90837">
        <ele>769</ele>
        <time>2014-01-18T09:22:16Z</time>
      </trkpt>
      <trkpt lat="43.58499" lon="2.90832">
        <ele>770</ele>
        <time>2014-01-18T09:22:17Z</time>
      </trkpt>
      <trkpt lat="43.585" lon="2.90826">
        <ele>768</ele>
        <time>2014-01-18T09:22:18Z</time>
      </trkpt>
      <trkpt lat="43.58501" lon="2.90821">
        <ele>781</ele>
        <time>2014-01-18T09:22:19Z</time>
      </trkpt>
      <trkpt lat="43.58503" lon="2.90817">
        <ele>784</ele>
        <time>2014-01-18T09:22:20Z</time>
      </trkpt>
      <trkpt lat="43.58504" lon="2.90814">
        <ele>785</ele>
        <time>2014-01-18T09:22:21Z</time>
      </trkpt>
      <trkpt lat="43.58504" lon="2.90811">
        <ele>786</ele>
        <time>2014-01-18T09:22:22Z</time>
      </trkpt>
      <trkpt lat="43.58506" lon="2.9081">
        <ele>787</ele>
        <time>2014-01-18T09:22:23Z</time>
      </trkpt>
      <trkpt lat="43.58506" lon="2.90809">
        <ele>788</ele>
        <time>2014-01-18T09:22:24Z</time>
      </trkpt>
      <trkpt lat="43.58506" lon="2.90808">
        <ele>788</ele>
        <time>2014-01-18T09:22:26Z</time>
      </trkpt>
      <trkpt lat="43.58506" lon="2.90806">
        <ele>788</ele>
        <time>2014-01-18T09:22:28Z</time>
      </trkpt>
      <trkpt lat="43.58505" lon="2.90805">
        <ele>788</ele>
        <time>2014-01-18T09:22:30Z</time>
      </trkpt>
      <trkpt lat="43.58505" lon="2.90806">
        <ele>788</ele>
        <time>2014-01-18T09:22:31Z</time>
      </trkpt>
      <trkpt lat="43.58504" lon="2.90807">
        <ele>788</ele>
        <time>2014-01-18T09:22:32Z</time>
      </trkpt>
      <trkpt lat="43.58501" lon="2.9081">
        <ele>787</ele>
        <time>2014-01-18T09:22:34Z</time>
      </trkpt>
      <trkpt lat="43.58499" lon="2.90811">
        <ele>766</ele>
        <time>2014-01-18T09:22:35Z</time>
      </trkpt>
      <trkpt lat="43.58497" lon="2.90813">
        <ele>766</ele>
        <time>2014-01-18T09:22:36Z</time>
      </trkpt>
      <trkpt lat="43.58495" lon="2.90815">
        <ele>766</ele>
        <time>2014-01-18T09:22:37Z</time>
      </trkpt>
      <trkpt lat="43.58492" lon="2.90817">
        <ele>766</ele>
        <time>2014-01-18T09:22:38Z</time>
      </trkpt>
      <trkpt lat="43.58488" lon="2.90822">
        <ele>766</ele>
        <time>2014-01-18T09:22:40Z</time>
      </trkpt>
      <trkpt lat="43.58487" lon="2.90826">
        <ele>766</ele>
        <time>2014-01-18T09:22:41Z</time>
      </trkpt>
      <trkpt lat="43.58485" lon="2.90829">
        <ele>765</ele>
        <time>2014-01-18T09:22:42Z</time>
      </trkpt>
      <trkpt lat="43.58482" lon="2.90831">
        <ele>764</ele>
        <time>2014-01-18T09:22:43Z</time>
      </trkpt>
      <trkpt lat="43.5848" lon="2.90834">
        <ele>763</ele>
        <time>2014-01-18T09:22:44Z</time>
      </trkpt>
      <trkpt lat="43.58477" lon="2.90837">
        <ele>762</ele>
        <time>2014-01-18T09:22:45Z</time>
      </trkpt>
      <trkpt lat="43.58474" lon="2.90841">
        <ele>761</ele>
        <time>2014-01-18T09:22:46Z</time>
      </trkpt>
      <trkpt lat="43.58471" lon="2.90845">
        <ele>760</ele>
        <time>2014-01-18T09:22:47Z</time>
      </trkpt>
      <trkpt lat="43.58468" lon="2.90848">
        <ele>759</ele>
        <time>2014-01-18T09:22:48Z</time>
      </trkpt>
      <trkpt lat="43.58465" lon="2.9085">
        <ele>758</ele>
        <time>2014-01-18T09:22:49Z</time>
      </trkpt>
      <trkpt lat="43.58461" lon="2.90853">
        <ele>757</ele>
        <time>2014-01-18T09:22:50Z</time>
      </trkpt>
      <trkpt lat="43.58457" lon="2.90857">
        <ele>756</ele>
        <time>2014-01-18T09:22:51Z</time>
      </trkpt>
      <trkpt lat="43.58452" lon="2.90862">
        <ele>755</ele>
        <time>2014-01-18T09:22:52Z</time>
      </trkpt>
      <trkpt lat="43.58448" lon="2.90865">
        <ele>754</ele>
        <time>2014-01-18T09:22:53Z</time>
      </trkpt>
      <trkpt lat="43.58444" lon="2.9087">
        <ele>754</ele>
        <time>2014-01-18T09:22:54Z</time>
      </trkpt>
      <trkpt lat="43.58441" lon="2.90876">
        <ele>754</ele>
        <time>2014-01-18T09:22:55Z</time>
      </trkpt>
      <trkpt lat="43.58438" lon="2.90883">
        <ele>753</ele>
        <time>2014-01-18T09:22:56Z</time>
      </trkpt>
      <trkpt lat="43.58434" lon="2.90888">
        <ele>752</ele>
        <time>2014-01-18T09:22:57Z</time>
      </trkpt>
      <trkpt lat="43.5843" lon="2.9089">
        <ele>751</ele>
        <time>2014-01-18T09:22:58Z</time>
      </trkpt>
      <trkpt lat="43.58426" lon="2.90891">
        <ele>750</ele>
        <time>2014-01-18T09:22:59Z</time>
      </trkpt>
      <trkpt lat="43.58423" lon="2.90893">
        <ele>749</ele>
        <time>2014-01-18T09:23:00Z</time>
      </trkpt>
      <trkpt lat="43.5842" lon="2.90896">
        <ele>748</ele>
        <time>2014-01-18T09:23:01Z</time>
      </trkpt>
      <trkpt lat="43.58416" lon="2.909">
        <ele>729</ele>
        <time>2014-01-18T09:23:02Z</time>
      </trkpt>
      <trkpt lat="43.58412" lon="2.90903">
        <ele>729</ele>
        <time>2014-01-18T09:23:03Z</time>
      </trkpt>
      <trkpt lat="43.58409" lon="2.90905">
        <ele>729</ele>
        <time>2014-01-18T09:23:04Z</time>
      </trkpt>
      <trkpt lat="43.58406" lon="2.90907">
        <ele>729</ele>
        <time>2014-01-18T09:23:05Z</time>
      </trkpt>
      <trkpt lat="43.58404" lon="2.9091">
        <ele>729</ele>
        <time>2014-01-18T09:23:06Z</time>
      </trkpt>
      <trkpt lat="43.58402" lon="2.90913">
        <ele>729</ele>
        <time>2014-01-18T09:23:07Z</time>
      </trkpt>
      <trkpt lat="43.58399" lon="2.90917">
        <ele>736</ele>
        <time>2014-01-18T09:23:08Z</time>
      </trkpt>
      <trkpt lat="43.58396" lon="2.90921">
        <ele>735</ele>
        <time>2014-01-18T09:23:09Z</time>
      </trkpt>
      <trkpt lat="43.58392" lon="2.90925">
        <ele>734</ele>
        <time>2014-01-18T09:23:10Z</time>
      </trkpt>
      <trkpt lat="43.58387" lon="2.90929">
        <ele>733</ele>
        <time>2014-01-18T09:23:11Z</time>
      </trkpt>
      <trkpt lat="43.58382" lon="2.90931">
        <ele>732</ele>
        <time>2014-01-18T09:23:12Z</time>
      </trkpt>
      <trkpt lat="43.58376" lon="2.90932">
        <ele>731</ele>
        <time>2014-01-18T09:23:13Z</time>
      </trkpt>
      <trkpt lat="43.58371" lon="2.90932">
        <ele>729</ele>
        <time>2014-01-18T09:23:14Z</time>
      </trkpt>
      <trkpt lat="43.58367" lon="2.90931">
        <ele>728</ele>
        <time>2014-01-18T09:23:15Z</time>
      </trkpt>
      <trkpt lat="43.58362" lon="2.90932">
        <ele>726</ele>
        <time>2014-01-18T09:23:16Z</time>
      </trkpt>
      <trkpt lat="43.58356" lon="2.90932">
        <ele>724</ele>
        <time>2014-01-18T09:23:17Z</time>
      </trkpt>
      <trkpt lat="43.58352" lon="2.90933">
        <ele>722</ele>
        <time>2014-01-18T09:23:18Z</time>
      </trkpt>
      <trkpt lat="43.58349" lon="2.90934">
        <ele>721</ele>
        <time>2014-01-18T09:23:19Z</time>
      </trkpt>
      <trkpt lat="43.58347" lon="2.90933">
        <ele>720</ele>
        <time>2014-01-18T09:23:20Z</time>
      </trkpt>
      <trkpt lat="43.58347" lon="2.9093">
        <ele>719</ele>
        <time>2014-01-18T09:23:21Z</time>
      </trkpt>
      <trkpt lat="43.58347" lon="2.90927">
        <ele>718</ele>
        <time>2014-01-18T09:23:22Z</time>
      </trkpt>
      <trkpt lat="43.58349" lon="2.90925">
        <ele>718</ele>
        <time>2014-01-18T09:23:23Z</time>
      </trkpt>
      <trkpt lat="43.5835" lon="2.90924">
        <ele>719</ele>
        <time>2014-01-18T09:23:24Z</time>
      </trkpt>
      <trkpt lat="43.58353" lon="2.90923">
        <ele>720</ele>
        <time>2014-01-18T09:23:25Z</time>
      </trkpt>
      <trkpt lat="43.58357" lon="2.90922">
        <ele>722</ele>
        <time>2014-01-18T09:23:26Z</time>
      </trkpt>
      <trkpt lat="43.58362" lon="2.9092">
        <ele>724</ele>
        <time>2014-01-18T09:23:27Z</time>
      </trkpt>
      <trkpt lat="43.58366" lon="2.90917">
        <ele>725</ele>
        <time>2014-01-18T09:23:28Z</time>
      </trkpt>
      <trkpt lat="43.58368" lon="2.90915">
        <ele>716</ele>
        <time>2014-01-18T09:23:29Z</time>
      </trkpt>
      <trkpt lat="43.5837" lon="2.90913">
        <ele>716</ele>
        <time>2014-01-18T09:23:30Z</time>
      </trkpt>
      <trkpt lat="43.5837" lon="2.9091">
        <ele>716</ele>
        <time>2014-01-18T09:23:31Z</time>
      </trkpt>
      <trkpt lat="43.58372" lon="2.90906">
        <ele>717</ele>
        <time>2014-01-18T09:23:32Z</time>
      </trkpt>
      <trkpt lat="43.58374" lon="2.90903">
        <ele>717</ele>
        <time>2014-01-18T09:23:33Z</time>
      </trkpt>
      <trkpt lat="43.58375" lon="2.90899">
        <ele>718</ele>
        <time>2014-01-18T09:23:34Z</time>
      </trkpt>
      <trkpt lat="43.58377" lon="2.90896">
        <ele>718</ele>
        <time>2014-01-18T09:23:35Z</time>
      </trkpt>
      <trkpt lat="43.58379" lon="2.90893">
        <ele>719</ele>
        <time>2014-01-18T09:23:36Z</time>
      </trkpt>
      <trkpt lat="43.58381" lon="2.90889">
        <ele>719</ele>
        <time>2014-01-18T09:23:37Z</time>
      </trkpt>
      <trkpt lat="43.58382" lon="2.90885">
        <ele>719</ele>
        <time>2014-01-18T09:23:38Z</time>
      </trkpt>
      <trkpt lat="43.58384" lon="2.9088">
        <ele>719</ele>
        <time>2014-01-18T09:23:39Z</time>
      </trkpt>
      <trkpt lat="43.58385" lon="2.90875">
        <ele>719</ele>
        <time>2014-01-18T09:23:40Z</time>
      </trkpt>
      <trkpt lat="43.58387" lon="2.90869">
        <ele>719</ele>
        <time>2014-01-18T09:23:41Z</time>
      </trkpt>
      <trkpt lat="43.5839" lon="2.90863">
        <ele>720</ele>
        <time>2014-01-18T09:23:42Z</time>
      </trkpt>
      <trkpt lat="43.58392" lon="2.90859">
        <ele>721</ele>
        <time>2014-01-18T09:23:43Z</time>
      </trkpt>
      <trkpt lat="43.58394" lon="2.90857">
        <ele>721</ele>
        <time>2014-01-18T09:23:44Z</time>
      </trkpt>
      <trkpt lat="43.58394" lon="2.90856">
        <ele>721</ele>
        <time>2014-01-18T09:23:45Z</time>
      </trkpt>
      <trkpt lat="43.58394" lon="2.90856">
        <ele>721</ele>
        <time>2014-01-18T09:23:46Z</time>
      </trkpt>
      <trkpt lat="43.58391" lon="2.90859">
        <ele>720</ele>
        <time>2014-01-18T09:23:48Z</time>
      </trkpt>
      <trkpt lat="43.58389" lon="2.9086">
        <ele>720</ele>
        <time>2014-01-18T09:23:49Z</time>
      </trkpt>
      <trkpt lat="43.58386" lon="2.90862">
        <ele>719</ele>
        <time>2014-01-18T09:23:50Z</time>
      </trkpt>
      <trkpt lat="43.58383" lon="2.90863">
        <ele>718</ele>
        <time>2014-01-18T09:23:51Z</time>
      </trkpt>
      <trkpt lat="43.5838" lon="2.90865">
        <ele>718</ele>
        <time>2014-01-18T09:23:52Z</time>
      </trkpt>
      <trkpt lat="43.58378" lon="2.90866">
        <ele>717</ele>
        <time>2014-01-18T09:23:53Z</time>
      </trkpt>
      <trkpt lat="43.58376" lon="2.90867">
        <ele>717</ele>
        <time>2014-01-18T09:23:54Z</time>
      </trkpt>
      <trkpt lat="43.58373" lon="2.90868">
        <ele>716</ele>
        <time>2014-01-18T09:23:55Z</time>
      </trkpt>
      <trkpt lat="43.58371" lon="2.90869">
        <ele>716</ele>
        <time>2014-01-18T09:23:56Z</time>
      </trkpt>
      <trkpt lat="43.58368" lon="2.9087">
        <ele>715</ele>
        <time>2014-01-18T09:23:57Z</time>
      </trkpt>
      <trkpt lat="43.58364" lon="2.90872">
        <ele>714</ele>
        <time>2014-01-18T09:23:58Z</time>
      </trkpt>
      <trkpt lat="43.5836" lon="2.90874">
        <ele>713</ele>
        <time>2014-01-18T09:23:59Z</time>
      </trkpt>
      <trkpt lat="43.58357" lon="2.90876">
        <ele>713</ele>
        <time>2014-01-18T09:24:00Z</time>
      </trkpt>
      <trkpt lat="43.58352" lon="2.90879">
        <ele>712</ele>
        <time>2014-01-18T09:24:01Z</time>
      </trkpt>
      <trkpt lat="43.58348" lon="2.90881">
        <ele>711</ele>
        <time>2014-01-18T09:24:02Z</time>
      </trkpt>
      <trkpt lat="43.58344" lon="2.90883">
        <ele>711</ele>
        <time>2014-01-18T09:24:03Z</time>
      </trkpt>
      <trkpt lat="43.5834" lon="2.90885">
        <ele>710</ele>
        <time>2014-01-18T09:24:04Z</time>
      </trkpt>
      <trkpt lat="43.58336" lon="2.90887">
        <ele>710</ele>
        <time>2014-01-18T09:24:05Z</time>
      </trkpt>
      <trkpt lat="43.58333" lon="2.9089">
        <ele>690</ele>
        <time>2014-01-18T09:24:06Z</time>
      </trkpt>
      <trkpt lat="43.58329" lon="2.90893">
        <ele>690</ele>
        <time>2014-01-18T09:24:07Z</time>
      </trkpt>
      <trkpt lat="43.58326" lon="2.90896">
        <ele>690</ele>
        <time>2014-01-18T09:24:08Z</time>
      </trkpt>
      <trkpt lat="43.58323" lon="2.90898">
        <ele>690</ele>
        <time>2014-01-18T09:24:09Z</time>
      </trkpt>
      <trkpt lat="43.5832" lon="2.909">
        <ele>690</ele>
        <time>2014-01-18T09:24:10Z</time>
      </trkpt>
      <trkpt lat="43.58316" lon="2.90903">
        <ele>690</ele>
        <time>2014-01-18T09:24:11Z</time>
      </trkpt>
      <trkpt lat="43.58311" lon="2.90905">
        <ele>689</ele>
        <time>2014-01-18T09:24:12Z</time>
      </trkpt>
      <trkpt lat="43.58306" lon="2.90907">
        <ele>687</ele>
        <time>2014-01-18T09:24:13Z</time>
      </trkpt>
      <trkpt lat="43.58301" lon="2.90909">
        <ele>686</ele>
        <time>2014-01-18T09:24:14Z</time>
      </trkpt>
      <trkpt lat="43.58296" lon="2.9091">
        <ele>685</ele>
        <time>2014-01-18T09:24:15Z</time>
      </trkpt>
      <trkpt lat="43.58292" lon="2.90912">
        <ele>684</ele>
        <time>2014-01-18T09:24:16Z</time>
      </trkpt>
      <trkpt lat="43.58288" lon="2.90914">
        <ele>683</ele>
        <time>2014-01-18T09:24:17Z</time>
      </trkpt>
      <trkpt lat="43.58286" lon="2.90916">
        <ele>682</ele>
        <time>2014-01-18T09:24:18Z</time>
      </trkpt>
      <trkpt lat="43.58282" lon="2.90918">
        <ele>696</ele>
        <time>2014-01-18T09:24:19Z</time>
      </trkpt>
      <trkpt lat="43.58278" lon="2.9092">
        <ele>695</ele>
        <time>2014-01-18T09:24:20Z</time>
      </trkpt>
      <trkpt lat="43.58274" lon="2.90923">
        <ele>693</ele>
        <time>2014-01-18T09:24:21Z</time>
      </trkpt>
      <trkpt lat="43.58268" lon="2.90926">
        <ele>692</ele>
        <time>2014-01-18T09:24:22Z</time>
      </trkpt>
      <trkpt lat="43.58263" lon="2.90927">
        <ele>689</ele>
        <time>2014-01-18T09:24:23Z</time>
      </trkpt>
      <trkpt lat="43.58259" lon="2.90927">
        <ele>688</ele>
        <time>2014-01-18T09:24:24Z</time>
      </trkpt>
      <trkpt lat="43.58257" lon="2.90928">
        <ele>687</ele>
        <time>2014-01-18T09:24:25Z</time>
      </trkpt>
      <trkpt lat="43.58257" lon="2.90928">
        <ele>687</ele>
        <time>2014-01-18T09:24:26Z</time>
      </trkpt>
      <trkpt lat="43.58256" lon="2.90929">
        <ele>688</ele>
        <time>2014-01-18T09:24:27Z</time>
      </trkpt>
      <trkpt lat="43.58256" lon="2.90929">
        <ele>688</ele>
        <time>2014-01-18T09:24:29Z</time>
      </trkpt>
      <trkpt lat="43.58254" lon="2.90932">
        <ele>689</ele>
        <time>2014-01-18T09:24:34Z</time>
      </trkpt>
      <trkpt lat="43.58253" lon="2.90934">
        <ele>690</ele>
        <time>2014-01-18T09:24:36Z</time>
      </trkpt>
      <trkpt lat="43.5825" lon="2.90936">
        <ele>691</ele>
        <time>2014-01-18T09:24:41Z</time>
      </trkpt>
      <trkpt lat="43.5825" lon="2.90936">
        <ele>682</ele>
        <time>2014-01-18T09:24:42Z</time>
      </trkpt>
      <trkpt lat="43.58249" lon="2.90937">
        <ele>683</ele>
        <time>2014-01-18T09:24:43Z</time>
      </trkpt>
      <trkpt lat="43.58248" lon="2.90937">
        <ele>683</ele>
        <time>2014-01-18T09:24:44Z</time>
      </trkpt>
      <trkpt lat="43.58247" lon="2.90937">
        <ele>683</ele>
        <time>2014-01-18T09:24:45Z</time>
      </trkpt>
      <trkpt lat="43.58246" lon="2.90937">
        <ele>683</ele>
        <time>2014-01-18T09:24:46Z</time>
      </trkpt>
      <trkpt lat="43.58246" lon="2.90937">
        <ele>683</ele>
        <time>2014-01-18T09:24:47Z</time>
      </trkpt>
      <trkpt lat="43.58241" lon="2.90935">
        <ele>682</ele>
        <time>2014-01-18T09:24:52Z</time>
      </trkpt>
      <trkpt lat="43.58236" lon="2.90932">
        <ele>682</ele>
        <time>2014-01-18T09:24:54Z</time>
      </trkpt>
      <trkpt lat="43.58232" lon="2.90932">
        <ele>682</ele>
        <time>2014-01-18T09:24:55Z</time>
      </trkpt>
      <trkpt lat="43.58228" lon="2.90931">
        <ele>682</ele>
        <time>2014-01-18T09:24:56Z</time>
      </trkpt>
      <trkpt lat="43.58224" lon="2.90931">
        <ele>682</ele>
        <time>2014-01-18T09:24:57Z</time>
      </trkpt>
      <trkpt lat="43.5822" lon="2.90929">
        <ele>682</ele>
        <time>2014-01-18T09:24:58Z</time>
      </trkpt>
      <trkpt lat="43.58215" lon="2.90928">
        <ele>682</ele>
        <time>2014-01-18T09:24:59Z</time>
      </trkpt>
      <trkpt lat="43.58209" lon="2.90927">
        <ele>681</ele>
        <time>2014-01-18T09:25:00Z</time>
      </trkpt>
      <trkpt lat="43.58203" lon="2.90927">
        <ele>681</ele>
        <time>2014-01-18T09:25:01Z</time>
      </trkpt>
      <trkpt lat="43.58197" lon="2.90927">
        <ele>680</ele>
        <time>2014-01-18T09:25:02Z</time>
      </trkpt>
      <trkpt lat="43.58192" lon="2.90928">
        <ele>679</ele>
        <time>2014-01-18T09:25:03Z</time>
      </trkpt>
      <trkpt lat="43.58187" lon="2.9093">
        <ele>678</ele>
        <time>2014-01-18T09:25:04Z</time>
      </trkpt>
      <trkpt lat="43.58182" lon="2.90932">
        <ele>677</ele>
        <time>2014-01-18T09:25:05Z</time>
      </trkpt>
      <trkpt lat="43.58175" lon="2.90933">
        <ele>676</ele>
        <time>2014-01-18T09:25:06Z</time>
      </trkpt>
      <trkpt lat="43.58163" lon="2.90934">
        <ele>673</ele>
        <time>2014-01-18T09:25:08Z</time>
      </trkpt>
      <trkpt lat="43.58156" lon="2.90933">
        <ele>674</ele>
        <time>2014-01-18T09:25:09Z</time>
      </trkpt>
      <trkpt lat="43.58151" lon="2.90931">
        <ele>674</ele>
        <time>2014-01-18T09:25:10Z</time>
      </trkpt>
      <trkpt lat="43.58145" lon="2.90929">
        <ele>675</ele>
        <time>2014-01-18T09:25:11Z</time>
      </trkpt>
      <trkpt lat="43.5814" lon="2.90928">
        <ele>676</ele>
        <time>2014-01-18T09:25:12Z</time>
      </trkpt>
      <trkpt lat="43.58134" lon="2.90926">
        <ele>676</ele>
        <time>2014-01-18T09:25:13Z</time>
      </trkpt>
      <trkpt lat="43.58127" lon="2.90924">
        <ele>677</ele>
        <time>2014-01-18T09:25:14Z</time>
      </trkpt>
      <trkpt lat="43.58122" lon="2.90922">
        <ele>677</ele>
        <time>2014-01-18T09:25:15Z</time>
      </trkpt>
      <trkpt lat="43.58116" lon="2.90921">
        <ele>677</ele>
        <time>2014-01-18T09:25:16Z</time>
      </trkpt>
      <trkpt lat="43.5811" lon="2.90919">
        <ele>676</ele>
        <time>2014-01-18T09:25:17Z</time>
      </trkpt>
      <trkpt lat="43.58094" lon="2.90911">
        <ele>661</ele>
        <time>2014-01-18T09:25:20Z</time>
      </trkpt>
      <trkpt lat="43.58088" lon="2.90906">
        <ele>661</ele>
        <time>2014-01-18T09:25:21Z</time>
      </trkpt>
      <trkpt lat="43.58082" lon="2.90902">
        <ele>661</ele>
        <time>2014-01-18T09:25:22Z</time>
      </trkpt>
      <trkpt lat="43.58076" lon="2.90899">
        <ele>660</ele>
        <time>2014-01-18T09:25:23Z</time>
      </trkpt>
      <trkpt lat="43.5807" lon="2.90898">
        <ele>659</ele>
        <time>2014-01-18T09:25:24Z</time>
      </trkpt>
      <trkpt lat="43.58066" lon="2.90896">
        <ele>658</ele>
        <time>2014-01-18T09:25:25Z</time>
      </trkpt>
      <trkpt lat="43.58062" lon="2.90894">
        <ele>657</ele>
        <time>2014-01-18T09:25:26Z</time>
      </trkpt>
      <trkpt lat="43.58059" lon="2.90892">
        <ele>657</ele>
        <time>2014-01-18T09:25:27Z</time>
      </trkpt>
      <trkpt lat="43.58055" lon="2.9089">
        <ele>656</ele>
        <time>2014-01-18T09:25:28Z</time>
      </trkpt>
      <trkpt lat="43.58054" lon="2.90887">
        <ele>656</ele>
        <time>2014-01-18T09:25:29Z</time>
      </trkpt>
      <trkpt lat="43.58055" lon="2.90886">
        <ele>656</ele>
        <time>2014-01-18T09:25:30Z</time>
      </trkpt>
      <trkpt lat="43.58058" lon="2.90887">
        <ele>656</ele>
        <time>2014-01-18T09:25:32Z</time>
      </trkpt>
      <trkpt lat="43.58062" lon="2.90888">
        <ele>656</ele>
        <time>2014-01-18T09:25:33Z</time>
      </trkpt>
      <trkpt lat="43.58066" lon="2.90889">
        <ele>657</ele>
        <time>2014-01-18T09:25:34Z</time>
      </trkpt>
      <trkpt lat="43.5807" lon="2.90888">
        <ele>657</ele>
        <time>2014-01-18T09:25:35Z</time>
      </trkpt>
      <trkpt lat="43.58073" lon="2.90886">
        <ele>656</ele>
        <time>2014-01-18T09:25:36Z</time>
      </trkpt>
      <trkpt lat="43.58077" lon="2.90884">
        <ele>656</ele>
        <time>2014-01-18T09:25:37Z</time>
      </trkpt>
      <trkpt lat="43.58082" lon="2.90881">
        <ele>655</ele>
        <time>2014-01-18T09:25:38Z</time>
      </trkpt>
      <trkpt lat="43.58087" lon="2.90878">
        <ele>652</ele>
        <time>2014-01-18T09:25:39Z</time>
      </trkpt>
      <trkpt lat="43.58092" lon="2.90876">
        <ele>651</ele>
        <time>2014-01-18T09:25:40Z</time>
      </trkpt>
      <trkpt lat="43.58096" lon="2.90876">
        <ele>651</ele>
        <time>2014-01-18T09:25:41Z</time>
      </trkpt>
      <trkpt lat="43.58099" lon="2.90875">
        <ele>651</ele>
        <time>2014-01-18T09:25:42Z</time>
      </trkpt>
      <trkpt lat="43.58102" lon="2.90874">
        <ele>650</ele>
        <time>2014-01-18T09:25:43Z</time>
      </trkpt>
      <trkpt lat="43.58105" lon="2.90873">
        <ele>650</ele>
        <time>2014-01-18T09:25:44Z</time>
      </trkpt>
      <trkpt lat="43.58108" lon="2.90872">
        <ele>650</ele>
        <time>2014-01-18T09:25:45Z</time>
      </trkpt>
      <trkpt lat="43.58113" lon="2.90871">
        <ele>649</ele>
        <time>2014-01-18T09:25:46Z</time>
      </trkpt>
      <trkpt lat="43.58118" lon="2.90869">
        <ele>649</ele>
        <time>2014-01-18T09:25:47Z</time>
      </trkpt>
      <trkpt lat="43.58123" lon="2.90867">
        <ele>648</ele>
        <time>2014-01-18T09:25:48Z</time>
      </trkpt>
      <trkpt lat="43.58128" lon="2.90866">
        <ele>648</ele>
        <time>2014-01-18T09:25:49Z</time>
      </trkpt>
      <trkpt lat="43.58133" lon="2.90863">
        <ele>647</ele>
        <time>2014-01-18T09:25:50Z</time>
      </trkpt>
      <trkpt lat="43.58138" lon="2.90862">
        <ele>647</ele>
        <time>2014-01-18T09:25:51Z</time>
      </trkpt>
      <trkpt lat="43.58142" lon="2.9086">
        <ele>646</ele>
        <time>2014-01-18T09:25:52Z</time>
      </trkpt>
      <trkpt lat="43.58146" lon="2.90857">
        <ele>645</ele>
        <time>2014-01-18T09:25:53Z</time>
      </trkpt>
      <trkpt lat="43.5815" lon="2.90855">
        <ele>644</ele>
        <time>2014-01-18T09:25:54Z</time>
      </trkpt>
      <trkpt lat="43.58153" lon="2.90854">
        <ele>643</ele>
        <time>2014-01-18T09:25:55Z</time>
      </trkpt>
      <trkpt lat="43.58155" lon="2.90854">
        <ele>643</ele>
        <time>2014-01-18T09:25:56Z</time>
      </trkpt>
      <trkpt lat="43.58158" lon="2.90853">
        <ele>642</ele>
        <time>2014-01-18T09:25:57Z</time>
      </trkpt>
      <trkpt lat="43.58162" lon="2.90853">
        <ele>642</ele>
        <time>2014-01-18T09:25:58Z</time>
      </trkpt>
      <trkpt lat="43.58165" lon="2.90852">
        <ele>641</ele>
        <time>2014-01-18T09:25:59Z</time>
      </trkpt>
      <trkpt lat="43.58167" lon="2.9085">
        <ele>643</ele>
        <time>2014-01-18T09:26:00Z</time>
      </trkpt>
      <trkpt lat="43.58169" lon="2.90846">
        <ele>641</ele>
        <time>2014-01-18T09:26:01Z</time>
      </trkpt>
      <trkpt lat="43.5817" lon="2.9084">
        <ele>638</ele>
        <time>2014-01-18T09:26:02Z</time>
      </trkpt>
      <trkpt lat="43.58172" lon="2.90837">
        <ele>637</ele>
        <time>2014-01-18T09:26:03Z</time>
      </trkpt>
      <trkpt lat="43.58175" lon="2.90835">
        <ele>638</ele>
        <time>2014-01-18T09:26:04Z</time>
      </trkpt>
      <trkpt lat="43.58176" lon="2.90833">
        <ele>634</ele>
        <time>2014-01-18T09:26:05Z</time>
      </trkpt>
      <trkpt lat="43.58177" lon="2.90831">
        <ele>634</ele>
        <time>2014-01-18T09:26:06Z</time>
      </trkpt>
      <trkpt lat="43.58177" lon="2.9083">
        <ele>635</ele>
        <time>2014-01-18T09:26:07Z</time>
      </trkpt>
      <trkpt lat="43.58177" lon="2.9083">
        <ele>635</ele>
        <time>2014-01-18T09:26:08Z</time>
      </trkpt>
      <trkpt lat="43.58175" lon="2.90829">
        <ele>634</ele>
        <time>2014-01-18T09:26:09Z</time>
      </trkpt>
      <trkpt lat="43.58172" lon="2.90829">
        <ele>633</ele>
        <time>2014-01-18T09:26:10Z</time>
      </trkpt>
      <trkpt lat="43.5817" lon="2.90829">
        <ele>633</ele>
        <time>2014-01-18T09:26:11Z</time>
      </trkpt>
      <trkpt lat="43.58167" lon="2.90829">
        <ele>632</ele>
        <time>2014-01-18T09:26:12Z</time>
      </trkpt>
      <trkpt lat="43.58165" lon="2.90829">
        <ele>630</ele>
        <time>2014-01-18T09:26:13Z</time>
      </trkpt>
      <trkpt lat="43.58163" lon="2.90827">
        <ele>629</ele>
        <time>2014-01-18T09:26:14Z</time>
      </trkpt>
      <trkpt lat="43.58161" lon="2.90824">
        <ele>629</ele>
        <time>2014-01-18T09:26:15Z</time>
      </trkpt>
      <trkpt lat="43.58158" lon="2.90822">
        <ele>628</ele>
        <time>2014-01-18T09:26:16Z</time>
      </trkpt>
      <trkpt lat="43.58157" lon="2.90819">
        <ele>628</ele>
        <time>2014-01-18T09:26:17Z</time>
      </trkpt>
      <trkpt lat="43.58156" lon="2.90815">
        <ele>627</ele>
        <time>2014-01-18T09:26:18Z</time>
      </trkpt>
      <trkpt lat="43.58155" lon="2.90813">
        <ele>627</ele>
        <time>2014-01-18T09:26:19Z</time>
      </trkpt>
      <trkpt lat="43.58154" lon="2.90811">
        <ele>627</ele>
        <time>2014-01-18T09:26:20Z</time>
      </trkpt>
      <trkpt lat="43.58154" lon="2.90809">
        <ele>626</ele>
        <time>2014-01-18T09:26:21Z</time>
      </trkpt>
      <trkpt lat="43.58153" lon="2.90808">
        <ele>626</ele>
        <time>2014-01-18T09:26:22Z</time>
      </trkpt>
      <trkpt lat="43.58152" lon="2.90808">
        <ele>626</ele>
        <time>2014-01-18T09:26:23Z</time>
      </trkpt>
      <trkpt lat="43.58152" lon="2.90808">
        <ele>626</ele>
        <time>2014-01-18T09:26:24Z</time>
      </trkpt>
      <trkpt lat="43.58151" lon="2.90808">
        <ele>626</ele>
        <time>2014-01-18T09:26:25Z</time>
      </trkpt>
      <trkpt lat="43.5815" lon="2.90808">
        <ele>626</ele>
        <time>2014-01-18T09:26:26Z</time>
      </trkpt>
      <trkpt lat="43.58148" lon="2.90807">
        <ele>626</ele>
        <time>2014-01-18T09:26:27Z</time>
      </trkpt>
      <trkpt lat="43.58146" lon="2.90806">
        <ele>626</ele>
        <time>2014-01-18T09:26:28Z</time>
      </trkpt>
      <trkpt lat="43.58142" lon="2.90801">
        <ele>625</ele>
        <time>2014-01-18T09:26:30Z</time>
      </trkpt>
      <trkpt lat="43.5814" lon="2.90799">
        <ele>625</ele>
        <time>2014-01-18T09:26:31Z</time>
      </trkpt>
      <trkpt lat="43.58139" lon="2.90796">
        <ele>625</ele>
        <time>2014-01-18T09:26:32Z</time>
      </trkpt>
      <trkpt lat="43.58138" lon="2.90794">
        <ele>625</ele>
        <time>2014-01-18T09:26:33Z</time>
      </trkpt>
      <trkpt lat="43.58136" lon="2.90793">
        <ele>624</ele>
        <time>2014-01-18T09:26:34Z</time>
      </trkpt>
      <trkpt lat="43.58134" lon="2.90791">
        <ele>624</ele>
        <time>2014-01-18T09:26:35Z</time>
      </trkpt>
      <trkpt lat="43.58133" lon="2.9079">
        <ele>624</ele>
        <time>2014-01-18T09:26:36Z</time>
      </trkpt>
      <trkpt lat="43.58132" lon="2.90789">
        <ele>624</ele>
        <time>2014-01-18T09:26:37Z</time>
      </trkpt>
      <trkpt lat="43.58131" lon="2.90789">
        <ele>624</ele>
        <time>2014-01-18T09:26:38Z</time>
      </trkpt>
      <trkpt lat="43.58129" lon="2.90787">
        <ele>624</ele>
        <time>2014-01-18T09:26:39Z</time>
      </trkpt>
      <trkpt lat="43.58126" lon="2.90785">
        <ele>623</ele>
        <time>2014-01-18T09:26:40Z</time>
      </trkpt>
      <trkpt lat="43.58125" lon="2.90783">
        <ele>623</ele>
        <time>2014-01-18T09:26:41Z</time>
      </trkpt>
      <trkpt lat="43.58123" lon="2.90781">
        <ele>623</ele>
        <time>2014-01-18T09:26:42Z</time>
      </trkpt>
      <trkpt lat="43.58122" lon="2.9078">
        <ele>622</ele>
        <time>2014-01-18T09:26:43Z</time>
      </trkpt>
      <trkpt lat="43.58119" lon="2.90778">
        <ele>622</ele>
        <time>2014-01-18T09:26:44Z</time>
      </trkpt>
      <trkpt lat="43.58118" lon="2.90777">
        <ele>622</ele>
        <time>2014-01-18T09:26:45Z</time>
      </trkpt>
      <trkpt lat="43.58116" lon="2.90775">
        <ele>621</ele>
        <time>2014-01-18T09:26:46Z</time>
      </trkpt>
      <trkpt lat="43.58115" lon="2.90772">
        <ele>621</ele>
        <time>2014-01-18T09:26:47Z</time>
      </trkpt>
      <trkpt lat="43.58113" lon="2.90769">
        <ele>620</ele>
        <time>2014-01-18T09:26:48Z</time>
      </trkpt>
      <trkpt lat="43.5811" lon="2.90765">
        <ele>619</ele>
        <time>2014-01-18T09:26:49Z</time>
      </trkpt>
      <trkpt lat="43.58108" lon="2.90761">
        <ele>618</ele>
        <time>2014-01-18T09:26:50Z</time>
      </trkpt>
      <trkpt lat="43.58106" lon="2.90757">
        <ele>617</ele>
        <time>2014-01-18T09:26:51Z</time>
      </trkpt>
      <trkpt lat="43.58104" lon="2.90754">
        <ele>617</ele>
        <time>2014-01-18T09:26:52Z</time>
      </trkpt>
      <trkpt lat="43.58101" lon="2.90752">
        <ele>616</ele>
        <time>2014-01-18T09:26:53Z</time>
      </trkpt>
      <trkpt lat="43.58098" lon="2.9075">
        <ele>607</ele>
        <time>2014-01-18T09:26:54Z</time>
      </trkpt>
      <trkpt lat="43.58095" lon="2.90748">
        <ele>607</ele>
        <time>2014-01-18T09:26:55Z</time>
      </trkpt>
      <trkpt lat="43.58092" lon="2.90746">
        <ele>607</ele>
        <time>2014-01-18T09:26:56Z</time>
      </trkpt>
      <trkpt lat="43.58089" lon="2.90743">
        <ele>607</ele>
        <time>2014-01-18T09:26:57Z</time>
      </trkpt>
      <trkpt lat="43.58086" lon="2.90741">
        <ele>606</ele>
        <time>2014-01-18T09:26:58Z</time>
      </trkpt>
      <trkpt lat="43.58083" lon="2.90738">
        <ele>602</ele>
        <time>2014-01-18T09:26:59Z</time>
      </trkpt>
      <trkpt lat="43.58081" lon="2.90735">
        <ele>601</ele>
        <time>2014-01-18T09:27:00Z</time>
      </trkpt>
      <trkpt lat="43.58078" lon="2.90733">
        <ele>600</ele>
        <time>2014-01-18T09:27:01Z</time>
      </trkpt>
      <trkpt lat="43.58075" lon="2.90731">
        <ele>599</ele>
        <time>2014-01-18T09:27:02Z</time>
      </trkpt>
      <trkpt lat="43.58072" lon="2.9073">
        <ele>599</ele>
        <time>2014-01-18T09:27:03Z</time>
      </trkpt>
      <trkpt lat="43.58071" lon="2.90729">
        <ele>599</ele>
        <time>2014-01-18T09:27:04Z</time>
      </trkpt>
      <trkpt lat="43.58069" lon="2.90728">
        <ele>598</ele>
        <time>2014-01-18T09:27:05Z</time>
      </trkpt>
      <trkpt lat="43.58067" lon="2.90727">
        <ele>598</ele>
        <time>2014-01-18T09:27:06Z</time>
      </trkpt>
      <trkpt lat="43.58064" lon="2.90725">
        <ele>597</ele>
        <time>2014-01-18T09:27:07Z</time>
      </trkpt>
      <trkpt lat="43.58062" lon="2.90722">
        <ele>597</ele>
        <time>2014-01-18T09:27:08Z</time>
      </trkpt>
      <trkpt lat="43.5806" lon="2.9072">
        <ele>596</ele>
        <time>2014-01-18T09:27:09Z</time>
      </trkpt>
      <trkpt lat="43.58057" lon="2.90719">
        <ele>596</ele>
        <time>2014-01-18T09:27:10Z</time>
      </trkpt>
      <trkpt lat="43.58055" lon="2.90718">
        <ele>596</ele>
        <time>2014-01-18T09:27:11Z</time>
      </trkpt>
      <trkpt lat="43.58053" lon="2.90716">
        <ele>595</ele>
        <time>2014-01-18T09:27:12Z</time>
      </trkpt>
      <trkpt lat="43.58051" lon="2.90714">
        <ele>595</ele>
        <time>2014-01-18T09:27:13Z</time>
      </trkpt>
      <trkpt lat="43.58048" lon="2.90712">
        <ele>594</ele>
        <time>2014-01-18T09:27:14Z</time>
      </trkpt>
      <trkpt lat="43.58046" lon="2.9071">
        <ele>594</ele>
        <time>2014-01-18T09:27:15Z</time>
      </trkpt>
      <trkpt lat="43.58045" lon="2.90707">
        <ele>593</ele>
        <time>2014-01-18T09:27:16Z</time>
      </trkpt>
      <trkpt lat="43.58043" lon="2.90705">
        <ele>593</ele>
        <time>2014-01-18T09:27:17Z</time>
      </trkpt>
      <trkpt lat="43.5804" lon="2.90703">
        <ele>592</ele>
        <time>2014-01-18T09:27:18Z</time>
      </trkpt>
      <trkpt lat="43.58038" lon="2.90701">
        <ele>592</ele>
        <time>2014-01-18T09:27:19Z</time>
      </trkpt>
      <trkpt lat="43.58035" lon="2.907">
        <ele>591</ele>
        <time>2014-01-18T09:27:20Z</time>
      </trkpt>
      <trkpt lat="43.58033" lon="2.90698">
        <ele>591</ele>
        <time>2014-01-18T09:27:21Z</time>
      </trkpt>
      <trkpt lat="43.5803" lon="2.90698">
        <ele>591</ele>
        <time>2014-01-18T09:27:22Z</time>
      </trkpt>
      <trkpt lat="43.58028" lon="2.90697">
        <ele>590</ele>
        <time>2014-01-18T09:27:23Z</time>
      </trkpt>
      <trkpt lat="43.58025" lon="2.90696">
        <ele>590</ele>
        <time>2014-01-18T09:27:24Z</time>
      </trkpt>
      <trkpt lat="43.58022" lon="2.90695">
        <ele>589</ele>
        <time>2014-01-18T09:27:25Z</time>
      </trkpt>
      <trkpt lat="43.58019" lon="2.90694">
        <ele>589</ele>
        <time>2014-01-18T09:27:26Z</time>
      </trkpt>
      <trkpt lat="43.58017" lon="2.90692">
        <ele>588</ele>
        <time>2014-01-18T09:27:27Z</time>
      </trkpt>
      <trkpt lat="43.58014" lon="2.90691">
        <ele>587</ele>
        <time>2014-01-18T09:27:28Z</time>
      </trkpt>
      <trkpt lat="43.5801" lon="2.9069">
        <ele>586</ele>
        <time>2014-01-18T09:27:29Z</time>
      </trkpt>
      <trkpt lat="43.58007" lon="2.9069">
        <ele>586</ele>
        <time>2014-01-18T09:27:30Z</time>
      </trkpt>
      <trkpt lat="43.58004" lon="2.90689">
        <ele>585</ele>
        <time>2014-01-18T09:27:31Z</time>
      </trkpt>
      <trkpt lat="43.58001" lon="2.90689">
        <ele>585</ele>
        <time>2014-01-18T09:27:32Z</time>
      </trkpt>
      <trkpt lat="43.58" lon="2.9069">
        <ele>577</ele>
        <time>2014-01-18T09:27:33Z</time>
      </trkpt>
      <trkpt lat="43.57998" lon="2.90688">
        <ele>576</ele>
        <time>2014-01-18T09:27:34Z</time>
      </trkpt>
      <trkpt lat="43.57998" lon="2.90686">
        <ele>576</ele>
        <time>2014-01-18T09:27:35Z</time>
      </trkpt>
      <trkpt lat="43.57999" lon="2.90686">
        <ele>576</ele>
        <time>2014-01-18T09:27:36Z</time>
      </trkpt>
      <trkpt lat="43.58001" lon="2.90685">
        <ele>583</ele>
        <time>2014-01-18T09:27:37Z</time>
      </trkpt>
      <trkpt lat="43.58002" lon="2.90683">
        <ele>582</ele>
        <time>2014-01-18T09:27:38Z</time>
      </trkpt>
      <trkpt lat="43.58004" lon="2.90682">
        <ele>582</ele>
        <time>2014-01-18T09:27:39Z</time>
      </trkpt>
      <trkpt lat="43.58005" lon="2.90681">
        <ele>581</ele>
        <time>2014-01-18T09:27:40Z</time>
      </trkpt>
      <trkpt lat="43.58006" lon="2.9068">
        <ele>581</ele>
        <time>2014-01-18T09:27:41Z</time>
      </trkpt>
      <trkpt lat="43.58007" lon="2.9068">
        <ele>581</ele>
        <time>2014-01-18T09:27:42Z</time>
      </trkpt>
      <trkpt lat="43.58009" lon="2.9068">
        <ele>582</ele>
        <time>2014-01-18T09:27:44Z</time>
      </trkpt>
      <trkpt lat="43.5801" lon="2.9068">
        <ele>582</ele>
        <time>2014-01-18T09:28:48Z</time>
      </trkpt>
      <trkpt lat="43.58011" lon="2.90679">
        <ele>582</ele>
        <time>2014-01-18T09:28:49Z</time>
      </trkpt>
      <trkpt lat="43.58012" lon="2.90679">
        <ele>582</ele>
        <time>2014-01-18T09:28:50Z</time>
      </trkpt>
      <trkpt lat="43.58016" lon="2.90677">
        <ele>583</ele>
        <time>2014-01-18T09:28:52Z</time>
      </trkpt>
      <trkpt lat="43.58021" lon="2.90672">
        <ele>583</ele>
        <time>2014-01-18T09:28:54Z</time>
      </trkpt>
      <trkpt lat="43.58026" lon="2.90668">
        <ele>584</ele>
        <time>2014-01-18T09:28:56Z</time>
      </trkpt>
      <trkpt lat="43.5803" lon="2.90666">
        <ele>574</ele>
        <time>2014-01-18T09:28:57Z</time>
      </trkpt>
      <trkpt lat="43.58032" lon="2.90666">
        <ele>574</ele>
        <time>2014-01-18T09:28:58Z</time>
      </trkpt>
      <trkpt lat="43.58034" lon="2.90665">
        <ele>575</ele>
        <time>2014-01-18T09:28:59Z</time>
      </trkpt>
      <trkpt lat="43.58035" lon="2.90663">
        <ele>575</ele>
        <time>2014-01-18T09:29:00Z</time>
      </trkpt>
      <trkpt lat="43.58037" lon="2.90662">
        <ele>575</ele>
        <time>2014-01-18T09:29:01Z</time>
      </trkpt>
      <trkpt lat="43.58041" lon="2.9066">
        <ele>575</ele>
        <time>2014-01-18T09:29:03Z</time>
      </trkpt>
      <trkpt lat="43.58044" lon="2.90658">
        <ele>576</ele>
        <time>2014-01-18T09:29:04Z</time>
      </trkpt>
      <trkpt lat="43.58047" lon="2.90657">
        <ele>576</ele>
        <time>2014-01-18T09:29:05Z</time>
      </trkpt>
      <trkpt lat="43.58049" lon="2.90655">
        <ele>576</ele>
        <time>2014-01-18T09:29:06Z</time>
      </trkpt>
      <trkpt lat="43.58052" lon="2.90655">
        <ele>577</ele>
        <time>2014-01-18T09:29:07Z</time>
      </trkpt>
      <trkpt lat="43.58054" lon="2.90656">
        <ele>577</ele>
        <time>2014-01-18T09:29:08Z</time>
      </trkpt>
      <trkpt lat="43.58057" lon="2.90657">
        <ele>577</ele>
        <time>2014-01-18T09:29:10Z</time>
      </trkpt>
      <trkpt lat="43.58058" lon="2.90658">
        <ele>578</ele>
        <time>2014-01-18T09:29:11Z</time>
      </trkpt>
      <trkpt lat="43.5806" lon="2.90659">
        <ele>578</ele>
        <time>2014-01-18T09:29:12Z</time>
      </trkpt>
      <trkpt lat="43.58061" lon="2.90659">
        <ele>578</ele>
        <time>2014-01-18T09:29:13Z</time>
      </trkpt>
      <trkpt lat="43.58062" lon="2.90659">
        <ele>578</ele>
        <time>2014-01-18T09:29:14Z</time>
      </trkpt>
      <trkpt lat="43.58062" lon="2.90657">
        <ele>578</ele>
        <time>2014-01-18T09:29:15Z</time>
      </trkpt>
      <trkpt lat="43.58062" lon="2.90654">
        <ele>578</ele>
        <time>2014-01-18T09:29:17Z</time>
      </trkpt>
      <trkpt lat="43.58063" lon="2.90653">
        <ele>578</ele>
        <time>2014-01-18T09:29:18Z</time>
      </trkpt>
      <trkpt lat="43.58063" lon="2.90653">
        <ele>578</ele>
        <time>2014-01-18T09:29:21Z</time>
      </trkpt>
      <trkpt lat="43.58062" lon="2.90652">
        <ele>578</ele>
        <time>2014-01-18T09:29:23Z</time>
      </trkpt>
      <trkpt lat="43.58062" lon="2.90651">
        <ele>578</ele>
        <time>2014-01-18T09:29:24Z</time>
      </trkpt>
      <trkpt lat="43.58062" lon="2.9065">
        <ele>578</ele>
        <time>2014-01-18T09:29:25Z</time>
      </trkpt>
      <trkpt lat="43.58062" lon="2.9065">
        <ele>578</ele>
        <time>2014-01-18T09:29:26Z</time>
      </trkpt>
      <trkpt lat="43.58062" lon="2.9065">
        <ele>578</ele>
        <time>2014-01-18T09:29:27Z</time>
      </trkpt>
      <trkpt lat="43.58062" lon="2.90649">
        <ele>578</ele>
        <time>2014-01-18T09:29:28Z</time>
      </trkpt>
      <trkpt lat="43.58061" lon="2.90649">
        <ele>578</ele>
        <time>2014-01-18T09:29:29Z</time>
      </trkpt>
      <trkpt lat="43.58062" lon="2.90648">
        <ele>578</ele>
        <time>2014-01-18T09:29:39Z</time>
      </trkpt>
      <trkpt lat="43.58063" lon="2.90645">
        <ele>578</ele>
        <time>2014-01-18T09:29:42Z</time>
      </trkpt>
      <trkpt lat="43.58064" lon="2.90643">
        <ele>578</ele>
        <time>2014-01-18T09:29:43Z</time>
      </trkpt>
      <trkpt lat="43.58063" lon="2.90641">
        <ele>577</ele>
        <time>2014-01-18T09:29:44Z</time>
      </trkpt>
      <trkpt lat="43.58063" lon="2.9064">
        <ele>577</ele>
        <time>2014-01-18T09:29:45Z</time>
      </trkpt>
      <trkpt lat="43.58063" lon="2.90638">
        <ele>577</ele>
        <time>2014-01-18T09:29:46Z</time>
      </trkpt>
      <trkpt lat="43.58063" lon="2.90637">
        <ele>577</ele>
        <time>2014-01-18T09:29:47Z</time>
      </trkpt>
      <trkpt lat="43.58063" lon="2.90636">
        <ele>577</ele>
        <time>2014-01-18T09:29:48Z</time>
      </trkpt>
      <trkpt lat="43.58063" lon="2.90635">
        <ele>577</ele>
        <time>2014-01-18T09:29:49Z</time>
      </trkpt>
      <trkpt lat="43.58063" lon="2.90634">
        <ele>577</ele>
        <time>2014-01-18T09:29:50Z</time>
      </trkpt>
      <trkpt lat="43.58062" lon="2.90633">
        <ele>577</ele>
        <time>2014-01-18T09:29:51Z</time>
      </trkpt>
      <trkpt lat="43.5806" lon="2.90633">
        <ele>577</ele>
        <time>2014-01-18T09:29:52Z</time>
      </trkpt>
      <trkpt lat="43.58056" lon="2.90632">
        <ele>576</ele>
        <time>2014-01-18T09:29:55Z</time>
      </trkpt>
      <trkpt lat="43.58053" lon="2.90633">
        <ele>576</ele>
        <time>2014-01-18T09:29:57Z</time>
      </trkpt>
      <trkpt lat="43.58044" lon="2.90638">
        <ele>575</ele>
        <time>2014-01-18T09:30:02Z</time>
      </trkpt>
      <trkpt lat="43.58042" lon="2.90638">
        <ele>575</ele>
        <time>2014-01-18T09:30:03Z</time>
      </trkpt>
      <trkpt lat="43.58029" lon="2.90639">
        <ele>574</ele>
        <time>2014-01-18T09:30:08Z</time>
      </trkpt>
      <trkpt lat="43.58025" lon="2.90641">
        <ele>574</ele>
        <time>2014-01-18T09:30:11Z</time>
      </trkpt>
      <trkpt lat="43.58025" lon="2.9064">
        <ele>574</ele>
        <time>2014-01-18T09:30:15Z</time>
      </trkpt>
      <trkpt lat="43.58023" lon="2.9064">
        <ele>574</ele>
        <time>2014-01-18T09:30:16Z</time>
      </trkpt>
      <trkpt lat="43.58022" lon="2.90639">
        <ele>573</ele>
        <time>2014-01-18T09:30:18Z</time>
      </trkpt>
      <trkpt lat="43.5802" lon="2.90639">
        <ele>573</ele>
        <time>2014-01-18T09:30:19Z</time>
      </trkpt>
      <trkpt lat="43.58017" lon="2.90639">
        <ele>573</ele>
        <time>2014-01-18T09:30:20Z</time>
      </trkpt>
      <trkpt lat="43.58014" lon="2.90638">
        <ele>573</ele>
        <time>2014-01-18T09:30:21Z</time>
      </trkpt>
      <trkpt lat="43.58012" lon="2.90637">
        <ele>573</ele>
        <time>2014-01-18T09:30:22Z</time>
      </trkpt>
      <trkpt lat="43.58011" lon="2.90636">
        <ele>573</ele>
        <time>2014-01-18T09:30:23Z</time>
      </trkpt>
      <trkpt lat="43.5801" lon="2.90635">
        <ele>573</ele>
        <time>2014-01-18T09:30:24Z</time>
      </trkpt>
      <trkpt lat="43.58008" lon="2.90636">
        <ele>572</ele>
        <time>2014-01-18T09:30:25Z</time>
      </trkpt>
      <trkpt lat="43.58005" lon="2.90636">
        <ele>572</ele>
        <time>2014-01-18T09:30:26Z</time>
      </trkpt>
      <trkpt lat="43.58001" lon="2.90636">
        <ele>572</ele>
        <time>2014-01-18T09:30:27Z</time>
      </trkpt>
      <trkpt lat="43.57998" lon="2.90633">
        <ele>561</ele>
        <time>2014-01-18T09:30:28Z</time>
      </trkpt>
      <trkpt lat="43.57995" lon="2.9063">
        <ele>561</ele>
        <time>2014-01-18T09:30:29Z</time>
      </trkpt>
      <trkpt lat="43.57992" lon="2.90629">
        <ele>561</ele>
        <time>2014-01-18T09:30:30Z</time>
      </trkpt>
      <trkpt lat="43.5799" lon="2.9063">
        <ele>561</ele>
        <time>2014-01-18T09:30:31Z</time>
      </trkpt>
      <trkpt lat="43.57986" lon="2.90632">
        <ele>560</ele>
        <time>2014-01-18T09:30:32Z</time>
      </trkpt>
      <trkpt lat="43.57982" lon="2.90632">
        <ele>560</ele>
        <time>2014-01-18T09:30:33Z</time>
      </trkpt>
      <trkpt lat="43.57977" lon="2.90634">
        <ele>560</ele>
        <time>2014-01-18T09:30:34Z</time>
      </trkpt>
      <trkpt lat="43.57972" lon="2.90638">
        <ele>559</ele>
        <time>2014-01-18T09:30:35Z</time>
      </trkpt>
      <trkpt lat="43.57967" lon="2.9064">
        <ele>559</ele>
        <time>2014-01-18T09:30:36Z</time>
      </trkpt>
      <trkpt lat="43.57961" lon="2.90642">
        <ele>558</ele>
        <time>2014-01-18T09:30:37Z</time>
      </trkpt>
      <trkpt lat="43.57957" lon="2.90644">
        <ele>557</ele>
        <time>2014-01-18T09:30:38Z</time>
      </trkpt>
      <trkpt lat="43.57952" lon="2.90645">
        <ele>557</ele>
        <time>2014-01-18T09:30:39Z</time>
      </trkpt>
      <trkpt lat="43.57946" lon="2.90647">
        <ele>556</ele>
        <time>2014-01-18T09:30:40Z</time>
      </trkpt>
      <trkpt lat="43.57942" lon="2.90649">
        <ele>555</ele>
        <time>2014-01-18T09:30:41Z</time>
      </trkpt>
      <trkpt lat="43.57937" lon="2.90651">
        <ele>554</ele>
        <time>2014-01-18T09:30:42Z</time>
      </trkpt>
      <trkpt lat="43.57933" lon="2.90652">
        <ele>554</ele>
        <time>2014-01-18T09:30:43Z</time>
      </trkpt>
      <trkpt lat="43.57929" lon="2.90652">
        <ele>553</ele>
        <time>2014-01-18T09:30:44Z</time>
      </trkpt>
      <trkpt lat="43.57926" lon="2.90652">
        <ele>553</ele>
        <time>2014-01-18T09:30:45Z</time>
      </trkpt>
      <trkpt lat="43.57922" lon="2.90652">
        <ele>552</ele>
        <time>2014-01-18T09:30:46Z</time>
      </trkpt>
      <trkpt lat="43.57919" lon="2.90652">
        <ele>552</ele>
        <time>2014-01-18T09:30:47Z</time>
      </trkpt>
      <trkpt lat="43.57916" lon="2.90653">
        <ele>543</ele>
        <time>2014-01-18T09:30:48Z</time>
      </trkpt>
      <trkpt lat="43.57913" lon="2.90653">
        <ele>543</ele>
        <time>2014-01-18T09:30:49Z</time>
      </trkpt>
      <trkpt lat="43.57909" lon="2.90654">
        <ele>543</ele>
        <time>2014-01-18T09:30:50Z</time>
      </trkpt>
      <trkpt lat="43.57906" lon="2.90655">
        <ele>542</ele>
        <time>2014-01-18T09:30:51Z</time>
      </trkpt>
      <trkpt lat="43.57903" lon="2.90657">
        <ele>542</ele>
        <time>2014-01-18T09:30:52Z</time>
      </trkpt>
      <trkpt lat="43.57899" lon="2.90659">
        <ele>541</ele>
        <time>2014-01-18T09:30:53Z</time>
      </trkpt>
      <trkpt lat="43.57896" lon="2.90661">
        <ele>540</ele>
        <time>2014-01-18T09:30:54Z</time>
      </trkpt>
      <trkpt lat="43.57892" lon="2.90662">
        <ele>539</ele>
        <time>2014-01-18T09:30:55Z</time>
      </trkpt>
      <trkpt lat="43.57889" lon="2.90661">
        <ele>539</ele>
        <time>2014-01-18T09:30:56Z</time>
      </trkpt>
      <trkpt lat="43.57886" lon="2.90661">
        <ele>538</ele>
        <time>2014-01-18T09:30:57Z</time>
      </trkpt>
      <trkpt lat="43.57883" lon="2.90661">
        <ele>537</ele>
        <time>2014-01-18T09:30:58Z</time>
      </trkpt>
      <trkpt lat="43.57881" lon="2.90662">
        <ele>537</ele>
        <time>2014-01-18T09:30:59Z</time>
      </trkpt>
      <trkpt lat="43.57878" lon="2.90665">
        <ele>536</ele>
        <time>2014-01-18T09:31:00Z</time>
      </trkpt>
      <trkpt lat="43.57876" lon="2.90666">
        <ele>535</ele>
        <time>2014-01-18T09:31:01Z</time>
      </trkpt>
      <trkpt lat="43.57873" lon="2.90668">
        <ele>540</ele>
        <time>2014-01-18T09:31:02Z</time>
      </trkpt>
      <trkpt lat="43.57871" lon="2.90669">
        <ele>539</ele>
        <time>2014-01-18T09:31:03Z</time>
      </trkpt>
      <trkpt lat="43.57868" lon="2.90671">
        <ele>538</ele>
        <time>2014-01-18T09:31:04Z</time>
      </trkpt>
      <trkpt lat="43.57864" lon="2.90673">
        <ele>537</ele>
        <time>2014-01-18T09:31:05Z</time>
      </trkpt>
      <trkpt lat="43.57859" lon="2.90676">
        <ele>536</ele>
        <time>2014-01-18T09:31:06Z</time>
      </trkpt>
      <trkpt lat="43.57854" lon="2.90679">
        <ele>534</ele>
        <time>2014-01-18T09:31:07Z</time>
      </trkpt>
      <trkpt lat="43.57849" lon="2.90682">
        <ele>533</ele>
        <time>2014-01-18T09:31:08Z</time>
      </trkpt>
      <trkpt lat="43.57844" lon="2.90686">
        <ele>533</ele>
        <time>2014-01-18T09:31:09Z</time>
      </trkpt>
      <trkpt lat="43.57839" lon="2.9069">
        <ele>533</ele>
        <time>2014-01-18T09:31:10Z</time>
      </trkpt>
      <trkpt lat="43.57834" lon="2.90693">
        <ele>534</ele>
        <time>2014-01-18T09:31:11Z</time>
      </trkpt>
      <trkpt lat="43.5783" lon="2.90695">
        <ele>518</ele>
        <time>2014-01-18T09:31:12Z</time>
      </trkpt>
      <trkpt lat="43.57826" lon="2.90698">
        <ele>518</ele>
        <time>2014-01-18T09:31:13Z</time>
      </trkpt>
      <trkpt lat="43.57822" lon="2.907">
        <ele>518</ele>
        <time>2014-01-18T09:31:14Z</time>
      </trkpt>
      <trkpt lat="43.57817" lon="2.90702">
        <ele>518</ele>
        <time>2014-01-18T09:31:15Z</time>
      </trkpt>
      <trkpt lat="43.57815" lon="2.90705">
        <ele>518</ele>
        <time>2014-01-18T09:31:16Z</time>
      </trkpt>
      <trkpt lat="43.57813" lon="2.90708">
        <ele>518</ele>
        <time>2014-01-18T09:31:17Z</time>
      </trkpt>
      <trkpt lat="43.57812" lon="2.9071">
        <ele>518</ele>
        <time>2014-01-18T09:31:18Z</time>
      </trkpt>
      <trkpt lat="43.57811" lon="2.9071">
        <ele>518</ele>
        <time>2014-01-18T09:31:19Z</time>
      </trkpt>
      <trkpt lat="43.57813" lon="2.90709">
        <ele>518</ele>
        <time>2014-01-18T09:31:20Z</time>
      </trkpt>
      <trkpt lat="43.57814" lon="2.90708">
        <ele>518</ele>
        <time>2014-01-18T09:31:21Z</time>
      </trkpt>
      <trkpt lat="43.57814" lon="2.90705">
        <ele>518</ele>
        <time>2014-01-18T09:31:22Z</time>
      </trkpt>
      <trkpt lat="43.57816" lon="2.90702">
        <ele>518</ele>
        <time>2014-01-18T09:31:23Z</time>
      </trkpt>
      <trkpt lat="43.57818" lon="2.90699">
        <ele>517</ele>
        <time>2014-01-18T09:31:24Z</time>
      </trkpt>
      <trkpt lat="43.5782" lon="2.90697">
        <ele>517</ele>
        <time>2014-01-18T09:31:25Z</time>
      </trkpt>
      <trkpt lat="43.57824" lon="2.9069">
        <ele>517</ele>
        <time>2014-01-18T09:31:27Z</time>
      </trkpt>
      <trkpt lat="43.57826" lon="2.90688">
        <ele>517</ele>
        <time>2014-01-18T09:31:28Z</time>
      </trkpt>
      <trkpt lat="43.57828" lon="2.90685">
        <ele>517</ele>
        <time>2014-01-18T09:31:29Z</time>
      </trkpt>
      <trkpt lat="43.5783" lon="2.90682">
        <ele>517</ele>
        <time>2014-01-18T09:31:30Z</time>
      </trkpt>
      <trkpt lat="43.57832" lon="2.9068">
        <ele>516</ele>
        <time>2014-01-18T09:31:31Z</time>
      </trkpt>
      <trkpt lat="43.57834" lon="2.90677">
        <ele>526</ele>
        <time>2014-01-18T09:31:32Z</time>
      </trkpt>
      <trkpt lat="43.57834" lon="2.90675">
        <ele>524</ele>
        <time>2014-01-18T09:31:33Z</time>
      </trkpt>
      <trkpt lat="43.57831" lon="2.90672">
        <ele>516</ele>
        <time>2014-01-18T09:31:34Z</time>
      </trkpt>
      <trkpt lat="43.57828" lon="2.90672">
        <ele>516</ele>
        <time>2014-01-18T09:31:35Z</time>
      </trkpt>
      <trkpt lat="43.57825" lon="2.90673">
        <ele>516</ele>
        <time>2014-01-18T09:31:36Z</time>
      </trkpt>
      <trkpt lat="43.57824" lon="2.90671">
        <ele>516</ele>
        <time>2014-01-18T09:31:37Z</time>
      </trkpt>
      <trkpt lat="43.57824" lon="2.90669">
        <ele>516</ele>
        <time>2014-01-18T09:31:38Z</time>
      </trkpt>
      <trkpt lat="43.57824" lon="2.90666">
        <ele>517</ele>
        <time>2014-01-18T09:31:39Z</time>
      </trkpt>
      <trkpt lat="43.57825" lon="2.90664">
        <ele>517</ele>
        <time>2014-01-18T09:31:40Z</time>
      </trkpt>
      <trkpt lat="43.57826" lon="2.90663">
        <ele>517</ele>
        <time>2014-01-18T09:31:41Z</time>
      </trkpt>
      <trkpt lat="43.57827" lon="2.90662">
        <ele>517</ele>
        <time>2014-01-18T09:31:42Z</time>
      </trkpt>
      <trkpt lat="43.57827" lon="2.90661">
        <ele>518</ele>
        <time>2014-01-18T09:31:43Z</time>
      </trkpt>
      <trkpt lat="43.57826" lon="2.9066">
        <ele>518</ele>
        <time>2014-01-18T09:31:44Z</time>
      </trkpt>
      <trkpt lat="43.57824" lon="2.9066">
        <ele>518</ele>
        <time>2014-01-18T09:31:45Z</time>
      </trkpt>
      <trkpt lat="43.57821" lon="2.90661">
        <ele>518</ele>
        <time>2014-01-18T09:31:46Z</time>
      </trkpt>
      <trkpt lat="43.57817" lon="2.90661">
        <ele>518</ele>
        <time>2014-01-18T09:31:47Z</time>
      </trkpt>
      <trkpt lat="43.57813" lon="2.90659">
        <ele>519</ele>
        <time>2014-01-18T09:31:48Z</time>
      </trkpt>
      <trkpt lat="43.57809" lon="2.9066">
        <ele>518</ele>
        <time>2014-01-18T09:31:49Z</time>
      </trkpt>
      <trkpt lat="43.57805" lon="2.90661">
        <ele>518</ele>
        <time>2014-01-18T09:31:50Z</time>
      </trkpt>
      <trkpt lat="43.57803" lon="2.90664">
        <ele>518</ele>
        <time>2014-01-18T09:31:51Z</time>
      </trkpt>
      <trkpt lat="43.57801" lon="2.90668">
        <ele>514</ele>
        <time>2014-01-18T09:31:52Z</time>
      </trkpt>
      <trkpt lat="43.57799" lon="2.90672">
        <ele>514</ele>
        <time>2014-01-18T09:31:53Z</time>
      </trkpt>
      <trkpt lat="43.57798" lon="2.90676">
        <ele>514</ele>
        <time>2014-01-18T09:31:54Z</time>
      </trkpt>
      <trkpt lat="43.57796" lon="2.90679">
        <ele>514</ele>
        <time>2014-01-18T09:31:55Z</time>
      </trkpt>
      <trkpt lat="43.57794" lon="2.90683">
        <ele>514</ele>
        <time>2014-01-18T09:31:56Z</time>
      </trkpt>
      <trkpt lat="43.57791" lon="2.90685">
        <ele>514</ele>
        <time>2014-01-18T09:31:57Z</time>
      </trkpt>
      <trkpt lat="43.57788" lon="2.90684">
        <ele>513</ele>
        <time>2014-01-18T09:31:58Z</time>
      </trkpt>
      <trkpt lat="43.57787" lon="2.90682">
        <ele>513</ele>
        <time>2014-01-18T09:31:59Z</time>
      </trkpt>
      <trkpt lat="43.57787" lon="2.90682">
        <ele>513</ele>
        <time>2014-01-18T09:32:00Z</time>
      </trkpt>
      <trkpt lat="43.57788" lon="2.9068">
        <ele>513</ele>
        <time>2014-01-18T09:33:05Z</time>
      </trkpt>
      <trkpt lat="43.57788" lon="2.90677">
        <ele>513</ele>
        <time>2014-01-18T09:33:06Z</time>
      </trkpt>
      <trkpt lat="43.57788" lon="2.90671">
        <ele>512</ele>
        <time>2014-01-18T09:33:08Z</time>
      </trkpt>
      <trkpt lat="43.57788" lon="2.90667">
        <ele>512</ele>
        <time>2014-01-18T09:33:09Z</time>
      </trkpt>
      <trkpt lat="43.57782" lon="2.90655">
        <ele>517</ele>
        <time>2014-01-18T09:33:13Z</time>
      </trkpt>
      <trkpt lat="43.57781" lon="2.90655">
        <ele>517</ele>
        <time>2014-01-18T09:33:14Z</time>
      </trkpt>
      <trkpt lat="43.5778" lon="2.90655">
        <ele>516</ele>
        <time>2014-01-18T09:33:16Z</time>
      </trkpt>
      <trkpt lat="43.57779" lon="2.90656">
        <ele>516</ele>
        <time>2014-01-18T09:33:17Z</time>
      </trkpt>
      <trkpt lat="43.57779" lon="2.90656">
        <ele>516</ele>
        <time>2014-01-18T09:33:19Z</time>
      </trkpt>
      <trkpt lat="43.57779" lon="2.90656">
        <ele>516</ele>
        <time>2014-01-18T09:33:24Z</time>
      </trkpt>
      <trkpt lat="43.57777" lon="2.90658">
        <ele>515</ele>
        <time>2014-01-18T09:33:26Z</time>
      </trkpt>
      <trkpt lat="43.57773" lon="2.90662">
        <ele>514</ele>
        <time>2014-01-18T09:33:29Z</time>
      </trkpt>
      <trkpt lat="43.57771" lon="2.90662">
        <ele>513</ele>
        <time>2014-01-18T09:33:30Z</time>
      </trkpt>
      <trkpt lat="43.57769" lon="2.90663">
        <ele>513</ele>
        <time>2014-01-18T09:33:31Z</time>
      </trkpt>
      <trkpt lat="43.57766" lon="2.90664">
        <ele>511</ele>
        <time>2014-01-18T09:33:32Z</time>
      </trkpt>
      <trkpt lat="43.57764" lon="2.90666">
        <ele>510</ele>
        <time>2014-01-18T09:33:33Z</time>
      </trkpt>
      <trkpt lat="43.57762" lon="2.90668">
        <ele>507</ele>
        <time>2014-01-18T09:33:34Z</time>
      </trkpt>
      <trkpt lat="43.57761" lon="2.90668">
        <ele>506</ele>
        <time>2014-01-18T09:33:35Z</time>
      </trkpt>
      <trkpt lat="43.5776" lon="2.90668">
        <ele>506</ele>
        <time>2014-01-18T09:33:36Z</time>
      </trkpt>
      <trkpt lat="43.57759" lon="2.90668">
        <ele>506</ele>
        <time>2014-01-18T09:33:37Z</time>
      </trkpt>
      <trkpt lat="43.57757" lon="2.90668">
        <ele>505</ele>
        <time>2014-01-18T09:33:38Z</time>
      </trkpt>
      <trkpt lat="43.57753" lon="2.90669">
        <ele>504</ele>
        <time>2014-01-18T09:33:40Z</time>
      </trkpt>
      <trkpt lat="43.57752" lon="2.90669">
        <ele>503</ele>
        <time>2014-01-18T09:33:41Z</time>
      </trkpt>
      <trkpt lat="43.57751" lon="2.9067">
        <ele>503</ele>
        <time>2014-01-18T09:33:42Z</time>
      </trkpt>
      <trkpt lat="43.57749" lon="2.9067">
        <ele>501</ele>
        <time>2014-01-18T09:33:43Z</time>
      </trkpt>
      <trkpt lat="43.5774" lon="2.90672">
        <ele>500</ele>
        <time>2014-01-18T09:33:46Z</time>
      </trkpt>
      <trkpt lat="43.57737" lon="2.90673">
        <ele>499</ele>
        <time>2014-01-18T09:33:47Z</time>
      </trkpt>
      <trkpt lat="43.57736" lon="2.90673">
        <ele>499</ele>
        <time>2014-01-18T09:33:48Z</time>
      </trkpt>
      <trkpt lat="43.57734" lon="2.90675">
        <ele>499</ele>
        <time>2014-01-18T09:33:49Z</time>
      </trkpt>
      <trkpt lat="43.57733" lon="2.90676">
        <ele>499</ele>
        <time>2014-01-18T09:33:50Z</time>
      </trkpt>
      <trkpt lat="43.57731" lon="2.90677">
        <ele>498</ele>
        <time>2014-01-18T09:33:51Z</time>
      </trkpt>
      <trkpt lat="43.57731" lon="2.90677">
        <ele>498</ele>
        <time>2014-01-18T09:33:52Z</time>
      </trkpt>
      <trkpt lat="43.57731" lon="2.90677">
        <ele>498</ele>
        <time>2014-01-18T09:33:55Z</time>
      </trkpt>
      <trkpt lat="43.5773" lon="2.90679">
        <ele>498</ele>
        <time>2014-01-18T09:33:57Z</time>
      </trkpt>
      <trkpt lat="43.5773" lon="2.90679">
        <ele>498</ele>
        <time>2014-01-18T09:33:58Z</time>
      </trkpt>
      <trkpt lat="43.57728" lon="2.90681">
        <ele>498</ele>
        <time>2014-01-18T09:34:01Z</time>
      </trkpt>
      <trkpt lat="43.57727" lon="2.90683">
        <ele>498</ele>
        <time>2014-01-18T09:34:04Z</time>
      </trkpt>
      <trkpt lat="43.57726" lon="2.90686">
        <ele>497</ele>
        <time>2014-01-18T09:34:07Z</time>
      </trkpt>
      <trkpt lat="43.57725" lon="2.90687">
        <ele>497</ele>
        <time>2014-01-18T09:34:08Z</time>
      </trkpt>
      <trkpt lat="43.57724" lon="2.90688">
        <ele>497</ele>
        <time>2014-01-18T09:34:09Z</time>
      </trkpt>
      <trkpt lat="43.57723" lon="2.90688">
        <ele>497</ele>
        <time>2014-01-18T09:34:10Z</time>
      </trkpt>
      <trkpt lat="43.57722" lon="2.90688">
        <ele>497</ele>
        <time>2014-01-18T09:34:11Z</time>
      </trkpt>
      <trkpt lat="43.57721" lon="2.90688">
        <ele>497</ele>
        <time>2014-01-18T09:34:12Z</time>
      </trkpt>
      <trkpt lat="43.5772" lon="2.90689">
        <ele>497</ele>
        <time>2014-01-18T09:34:13Z</time>
      </trkpt>
      <trkpt lat="43.57719" lon="2.90689">
        <ele>497</ele>
        <time>2014-01-18T09:34:14Z</time>
      </trkpt>
      <trkpt lat="43.57719" lon="2.90689">
        <ele>497</ele>
        <time>2014-01-18T09:34:15Z</time>
      </trkpt>
      <trkpt lat="43.57719" lon="2.90689">
        <ele>497</ele>
        <time>2014-01-18T09:34:17Z</time>
      </trkpt>
      <trkpt lat="43.57717" lon="2.9069">
        <ele>497</ele>
        <time>2014-01-18T09:34:18Z</time>
      </trkpt>
      <trkpt lat="43.57715" lon="2.90691">
        <ele>496</ele>
        <time>2014-01-18T09:34:19Z</time>
      </trkpt>
      <trkpt lat="43.57712" lon="2.90694">
        <ele>496</ele>
        <time>2014-01-18T09:34:20Z</time>
      </trkpt>
      <trkpt lat="43.57711" lon="2.90696">
        <ele>496</ele>
        <time>2014-01-18T09:34:21Z</time>
      </trkpt>
      <trkpt lat="43.57708" lon="2.90699">
        <ele>496</ele>
        <time>2014-01-18T09:34:22Z</time>
      </trkpt>
      <trkpt lat="43.57702" lon="2.90704">
        <ele>495</ele>
        <time>2014-01-18T09:34:24Z</time>
      </trkpt>
      <trkpt lat="43.577" lon="2.90706">
        <ele>495</ele>
        <time>2014-01-18T09:34:25Z</time>
      </trkpt>
      <trkpt lat="43.57698" lon="2.9071">
        <ele>494</ele>
        <time>2014-01-18T09:34:26Z</time>
      </trkpt>
      <trkpt lat="43.57697" lon="2.90712">
        <ele>494</ele>
        <time>2014-01-18T09:34:27Z</time>
      </trkpt>
      <trkpt lat="43.57695" lon="2.90712">
        <ele>494</ele>
        <time>2014-01-18T09:34:28Z</time>
      </trkpt>
      <trkpt lat="43.57691" lon="2.90711">
        <ele>494</ele>
        <time>2014-01-18T09:34:29Z</time>
      </trkpt>
      <trkpt lat="43.57688" lon="2.90712">
        <ele>493</ele>
        <time>2014-01-18T09:34:30Z</time>
      </trkpt>
      <trkpt lat="43.57686" lon="2.90713">
        <ele>493</ele>
        <time>2014-01-18T09:34:31Z</time>
      </trkpt>
      <trkpt lat="43.57684" lon="2.90714">
        <ele>493</ele>
        <time>2014-01-18T09:34:32Z</time>
      </trkpt>
      <trkpt lat="43.57684" lon="2.90714">
        <ele>493</ele>
        <time>2014-01-18T09:34:33Z</time>
      </trkpt>
      <trkpt lat="43.57684" lon="2.90714">
        <ele>493</ele>
        <time>2014-01-18T09:34:57Z</time>
      </trkpt>
      <trkpt lat="43.57682" lon="2.90716">
        <ele>492</ele>
        <time>2014-01-18T09:34:58Z</time>
      </trkpt>
      <trkpt lat="43.5767" lon="2.9072">
        <ele>491</ele>
        <time>2014-01-18T09:35:03Z</time>
      </trkpt>
      <trkpt lat="43.57667" lon="2.90721">
        <ele>490</ele>
        <time>2014-01-18T09:35:04Z</time>
      </trkpt>
      <trkpt lat="43.57663" lon="2.90722">
        <ele>483</ele>
        <time>2014-01-18T09:35:05Z</time>
      </trkpt>
      <trkpt lat="43.57658" lon="2.90723">
        <ele>483</ele>
        <time>2014-01-18T09:35:06Z</time>
      </trkpt>
      <trkpt lat="43.57653" lon="2.90726">
        <ele>483</ele>
        <time>2014-01-18T09:35:07Z</time>
      </trkpt>
      <trkpt lat="43.57648" lon="2.90728">
        <ele>483</ele>
        <time>2014-01-18T09:35:08Z</time>
      </trkpt>
      <trkpt lat="43.57644" lon="2.90728">
        <ele>483</ele>
        <time>2014-01-18T09:35:09Z</time>
      </trkpt>
      <trkpt lat="43.57641" lon="2.90728">
        <ele>482</ele>
        <time>2014-01-18T09:35:10Z</time>
      </trkpt>
      <trkpt lat="43.57639" lon="2.90728">
        <ele>482</ele>
        <time>2014-01-18T09:35:11Z</time>
      </trkpt>
      <trkpt lat="43.57636" lon="2.90728">
        <ele>482</ele>
        <time>2014-01-18T09:35:12Z</time>
      </trkpt>
      <trkpt lat="43.57633" lon="2.90727">
        <ele>482</ele>
        <time>2014-01-18T09:35:13Z</time>
      </trkpt>
      <trkpt lat="43.57628" lon="2.90726">
        <ele>482</ele>
        <time>2014-01-18T09:35:14Z</time>
      </trkpt>
      <trkpt lat="43.57625" lon="2.90726">
        <ele>482</ele>
        <time>2014-01-18T09:35:15Z</time>
      </trkpt>
      <trkpt lat="43.57621" lon="2.90726">
        <ele>482</ele>
        <time>2014-01-18T09:35:16Z</time>
      </trkpt>
      <trkpt lat="43.57618" lon="2.90727">
        <ele>481</ele>
        <time>2014-01-18T09:35:17Z</time>
      </trkpt>
      <trkpt lat="43.57614" lon="2.90728">
        <ele>481</ele>
        <time>2014-01-18T09:35:18Z</time>
      </trkpt>
      <trkpt lat="43.57611" lon="2.90726">
        <ele>481</ele>
        <time>2014-01-18T09:35:19Z</time>
      </trkpt>
      <trkpt lat="43.57608" lon="2.90726">
        <ele>480</ele>
        <time>2014-01-18T09:35:20Z</time>
      </trkpt>
      <trkpt lat="43.57604" lon="2.90726">
        <ele>480</ele>
        <time>2014-01-18T09:35:21Z</time>
      </trkpt>
      <trkpt lat="43.576" lon="2.90728">
        <ele>479</ele>
        <time>2014-01-18T09:35:22Z</time>
      </trkpt>
      <trkpt lat="43.57595" lon="2.90731">
        <ele>478</ele>
        <time>2014-01-18T09:35:23Z</time>
      </trkpt>
      <trkpt lat="43.5759" lon="2.90732">
        <ele>477</ele>
        <time>2014-01-18T09:35:24Z</time>
      </trkpt>
      <trkpt lat="43.57584" lon="2.90733">
        <ele>476</ele>
        <time>2014-01-18T09:35:25Z</time>
      </trkpt>
      <trkpt lat="43.57578" lon="2.90735">
        <ele>473</ele>
        <time>2014-01-18T09:35:26Z</time>
      </trkpt>
      <trkpt lat="43.57573" lon="2.90736">
        <ele>474</ele>
        <time>2014-01-18T09:35:27Z</time>
      </trkpt>
      <trkpt lat="43.57569" lon="2.90738">
        <ele>474</ele>
        <time>2014-01-18T09:35:28Z</time>
      </trkpt>
      <trkpt lat="43.57566" lon="2.90739">
        <ele>474</ele>
        <time>2014-01-18T09:35:29Z</time>
      </trkpt>
      <trkpt lat="43.57564" lon="2.9074">
        <ele>474</ele>
        <time>2014-01-18T09:35:30Z</time>
      </trkpt>
      <trkpt lat="43.57562" lon="2.90741">
        <ele>474</ele>
        <time>2014-01-18T09:35:31Z</time>
      </trkpt>
      <trkpt lat="43.57561" lon="2.9074">
        <ele>474</ele>
        <time>2014-01-18T09:35:32Z</time>
      </trkpt>
      <trkpt lat="43.57559" lon="2.90741">
        <ele>475</ele>
        <time>2014-01-18T09:35:33Z</time>
      </trkpt>
      <trkpt lat="43.57556" lon="2.9074">
        <ele>475</ele>
        <time>2014-01-18T09:35:35Z</time>
      </trkpt>
      <trkpt lat="43.57547" lon="2.90739">
        <ele>475</ele>
        <time>2014-01-18T09:35:37Z</time>
      </trkpt>
      <trkpt lat="43.57542" lon="2.9074">
        <ele>475</ele>
        <time>2014-01-18T09:35:38Z</time>
      </trkpt>
      <trkpt lat="43.57532" lon="2.9074">
        <ele>475</ele>
        <time>2014-01-18T09:35:41Z</time>
      </trkpt>
      <trkpt lat="43.57529" lon="2.90739">
        <ele>474</ele>
        <time>2014-01-18T09:35:42Z</time>
      </trkpt>
      <trkpt lat="43.57526" lon="2.90738">
        <ele>474</ele>
        <time>2014-01-18T09:35:43Z</time>
      </trkpt>
      <trkpt lat="43.57523" lon="2.90738">
        <ele>474</ele>
        <time>2014-01-18T09:35:44Z</time>
      </trkpt>
      <trkpt lat="43.57518" lon="2.90737">
        <ele>473</ele>
        <time>2014-01-18T09:35:45Z</time>
      </trkpt>
      <trkpt lat="43.57513" lon="2.90739">
        <ele>472</ele>
        <time>2014-01-18T09:35:47Z</time>
      </trkpt>
      <trkpt lat="43.5751" lon="2.90741">
        <ele>470</ele>
        <time>2014-01-18T09:35:48Z</time>
      </trkpt>
      <trkpt lat="43.57507" lon="2.90742">
        <ele>469</ele>
        <time>2014-01-18T09:35:49Z</time>
      </trkpt>
      <trkpt lat="43.57505" lon="2.90744">
        <ele>468</ele>
        <time>2014-01-18T09:35:50Z</time>
      </trkpt>
      <trkpt lat="43.57501" lon="2.90745">
        <ele>466</ele>
        <time>2014-01-18T09:35:51Z</time>
      </trkpt>
      <trkpt lat="43.57498" lon="2.90748">
        <ele>466</ele>
        <time>2014-01-18T09:35:52Z</time>
      </trkpt>
      <trkpt lat="43.57489" lon="2.90754">
        <ele>460</ele>
        <time>2014-01-18T09:35:54Z</time>
      </trkpt>
      <trkpt lat="43.57482" lon="2.90762">
        <ele>458</ele>
        <time>2014-01-18T09:35:56Z</time>
      </trkpt>
      <trkpt lat="43.57479" lon="2.90767">
        <ele>458</ele>
        <time>2014-01-18T09:35:57Z</time>
      </trkpt>
      <trkpt lat="43.57476" lon="2.90769">
        <ele>457</ele>
        <time>2014-01-18T09:35:58Z</time>
      </trkpt>
      <trkpt lat="43.57472" lon="2.9077">
        <ele>457</ele>
        <time>2014-01-18T09:35:59Z</time>
      </trkpt>
      <trkpt lat="43.57468" lon="2.90771">
        <ele>457</ele>
        <time>2014-01-18T09:36:00Z</time>
      </trkpt>
      <trkpt lat="43.57464" lon="2.90771">
        <ele>457</ele>
        <time>2014-01-18T09:36:01Z</time>
      </trkpt>
      <trkpt lat="43.57459" lon="2.90772">
        <ele>457</ele>
        <time>2014-01-18T09:36:02Z</time>
      </trkpt>
      <trkpt lat="43.57455" lon="2.90774">
        <ele>457</ele>
        <time>2014-01-18T09:36:03Z</time>
      </trkpt>
      <trkpt lat="43.57447" lon="2.90776">
        <ele>457</ele>
        <time>2014-01-18T09:36:05Z</time>
      </trkpt>
      <trkpt lat="43.57444" lon="2.90778">
        <ele>457</ele>
        <time>2014-01-18T09:36:06Z</time>
      </trkpt>
      <trkpt lat="43.57439" lon="2.90779">
        <ele>457</ele>
        <time>2014-01-18T09:36:07Z</time>
      </trkpt>
      <trkpt lat="43.57435" lon="2.90781">
        <ele>457</ele>
        <time>2014-01-18T09:36:08Z</time>
      </trkpt>
      <trkpt lat="43.5743" lon="2.90782">
        <ele>457</ele>
        <time>2014-01-18T09:36:09Z</time>
      </trkpt>
      <trkpt lat="43.57427" lon="2.90784">
        <ele>457</ele>
        <time>2014-01-18T09:36:10Z</time>
      </trkpt>
      <trkpt lat="43.57424" lon="2.90785">
        <ele>457</ele>
        <time>2014-01-18T09:36:11Z</time>
      </trkpt>
      <trkpt lat="43.5742" lon="2.90785">
        <ele>457</ele>
        <time>2014-01-18T09:36:12Z</time>
      </trkpt>
      <trkpt lat="43.57418" lon="2.90787">
        <ele>456</ele>
        <time>2014-01-18T09:36:13Z</time>
      </trkpt>
      <trkpt lat="43.57413" lon="2.90788">
        <ele>462</ele>
        <time>2014-01-18T09:36:15Z</time>
      </trkpt>
      <trkpt lat="43.57411" lon="2.90788">
        <ele>462</ele>
        <time>2014-01-18T09:36:16Z</time>
      </trkpt>
      <trkpt lat="43.57409" lon="2.90787">
        <ele>462</ele>
        <time>2014-01-18T09:36:17Z</time>
      </trkpt>
      <trkpt lat="43.57409" lon="2.90787">
        <ele>462</ele>
        <time>2014-01-18T09:36:18Z</time>
      </trkpt>
      <trkpt lat="43.57407" lon="2.90787">
        <ele>462</ele>
        <time>2014-01-18T09:36:20Z</time>
      </trkpt>
      <trkpt lat="43.57402" lon="2.90788">
        <ele>462</ele>
        <time>2014-01-18T09:36:22Z</time>
      </trkpt>
      <trkpt lat="43.574" lon="2.9079">
        <ele>462</ele>
        <time>2014-01-18T09:36:24Z</time>
      </trkpt>
      <trkpt lat="43.574" lon="2.9079">
        <ele>462</ele>
        <time>2014-01-18T09:36:25Z</time>
      </trkpt>
      <trkpt lat="43.57398" lon="2.9079">
        <ele>462</ele>
        <time>2014-01-18T09:36:26Z</time>
      </trkpt>
      <trkpt lat="43.5739" lon="2.90795">
        <ele>461</ele>
        <time>2014-01-18T09:36:31Z</time>
      </trkpt>
      <trkpt lat="43.57389" lon="2.90796">
        <ele>461</ele>
        <time>2014-01-18T09:36:32Z</time>
      </trkpt>
      <trkpt lat="43.57388" lon="2.90797">
        <ele>461</ele>
        <time>2014-01-18T09:36:33Z</time>
      </trkpt>
      <trkpt lat="43.57387" lon="2.90799">
        <ele>461</ele>
        <time>2014-01-18T09:36:34Z</time>
      </trkpt>
      <trkpt lat="43.57386" lon="2.90801">
        <ele>460</ele>
        <time>2014-01-18T09:36:35Z</time>
      </trkpt>
      <trkpt lat="43.57384" lon="2.90803">
        <ele>460</ele>
        <time>2014-01-18T09:36:36Z</time>
      </trkpt>
      <trkpt lat="43.57376" lon="2.90806">
        <ele>460</ele>
        <time>2014-01-18T09:36:39Z</time>
      </trkpt>
      <trkpt lat="43.57373" lon="2.90807">
        <ele>460</ele>
        <time>2014-01-18T09:36:40Z</time>
      </trkpt>
      <trkpt lat="43.57372" lon="2.90809">
        <ele>460</ele>
        <time>2014-01-18T09:36:41Z</time>
      </trkpt>
      <trkpt lat="43.57372" lon="2.9081">
        <ele>460</ele>
        <time>2014-01-18T09:36:42Z</time>
      </trkpt>
      <trkpt lat="43.57371" lon="2.9081">
        <ele>460</ele>
        <time>2014-01-18T09:36:43Z</time>
      </trkpt>
      <trkpt lat="43.57371" lon="2.90811">
        <ele>460</ele>
        <time>2014-01-18T09:36:44Z</time>
      </trkpt>
      <trkpt lat="43.57371" lon="2.90811">
        <ele>460</ele>
        <time>2014-01-18T09:36:45Z</time>
      </trkpt>
      <trkpt lat="43.57371" lon="2.90814">
        <ele>459</ele>
        <time>2014-01-18T09:36:48Z</time>
      </trkpt>
      <trkpt lat="43.57366" lon="2.90821">
        <ele>458</ele>
        <time>2014-01-18T09:36:53Z</time>
      </trkpt>
      <trkpt lat="43.57365" lon="2.90823">
        <ele>458</ele>
        <time>2014-01-18T09:36:54Z</time>
      </trkpt>
      <trkpt lat="43.57359" lon="2.90827">
        <ele>457</ele>
        <time>2014-01-18T09:36:57Z</time>
      </trkpt>
      <trkpt lat="43.57356" lon="2.9083">
        <ele>457</ele>
        <time>2014-01-18T09:36:59Z</time>
      </trkpt>
      <trkpt lat="43.57352" lon="2.90831">
        <ele>456</ele>
        <time>2014-01-18T09:37:01Z</time>
      </trkpt>
      <trkpt lat="43.57344" lon="2.90837">
        <ele>444</ele>
        <time>2014-01-18T09:37:05Z</time>
      </trkpt>
      <trkpt lat="43.57334" lon="2.90844">
        <ele>444</ele>
        <time>2014-01-18T09:37:09Z</time>
      </trkpt>
      <trkpt lat="43.57331" lon="2.90845">
        <ele>447</ele>
        <time>2014-01-18T09:37:10Z</time>
      </trkpt>
      <trkpt lat="43.57329" lon="2.90846">
        <ele>447</ele>
        <time>2014-01-18T09:37:11Z</time>
      </trkpt>
      <trkpt lat="43.57327" lon="2.90847">
        <ele>447</ele>
        <time>2014-01-18T09:37:12Z</time>
      </trkpt>
      <trkpt lat="43.57326" lon="2.90848">
        <ele>447</ele>
        <time>2014-01-18T09:37:13Z</time>
      </trkpt>
      <trkpt lat="43.57324" lon="2.9085">
        <ele>446</ele>
        <time>2014-01-18T09:37:14Z</time>
      </trkpt>
      <trkpt lat="43.57313" lon="2.90856">
        <ele>445</ele>
        <time>2014-01-18T09:37:17Z</time>
      </trkpt>
      <trkpt lat="43.57309" lon="2.90859">
        <ele>445</ele>
        <time>2014-01-18T09:37:18Z</time>
      </trkpt>
      <trkpt lat="43.57306" lon="2.90861">
        <ele>445</ele>
        <time>2014-01-18T09:37:19Z</time>
      </trkpt>
      <trkpt lat="43.57303" lon="2.90863">
        <ele>445</ele>
        <time>2014-01-18T09:37:20Z</time>
      </trkpt>
      <trkpt lat="43.573" lon="2.90866">
        <ele>445</ele>
        <time>2014-01-18T09:37:21Z</time>
      </trkpt>
      <trkpt lat="43.57296" lon="2.9087">
        <ele>444</ele>
        <time>2014-01-18T09:37:22Z</time>
      </trkpt>
      <trkpt lat="43.57292" lon="2.90874">
        <ele>444</ele>
        <time>2014-01-18T09:37:23Z</time>
      </trkpt>
      <trkpt lat="43.5729" lon="2.90877">
        <ele>444</ele>
        <time>2014-01-18T09:37:24Z</time>
      </trkpt>
      <trkpt lat="43.57287" lon="2.90881">
        <ele>443</ele>
        <time>2014-01-18T09:37:25Z</time>
      </trkpt>
      <trkpt lat="43.57282" lon="2.90886">
        <ele>443</ele>
        <time>2014-01-18T09:37:27Z</time>
      </trkpt>
      <trkpt lat="43.57279" lon="2.90887">
        <ele>443</ele>
        <time>2014-01-18T09:37:28Z</time>
      </trkpt>
      <trkpt lat="43.57276" lon="2.9089">
        <ele>443</ele>
        <time>2014-01-18T09:37:29Z</time>
      </trkpt>
      <trkpt lat="43.57271" lon="2.90892">
        <ele>442</ele>
        <time>2014-01-18T09:37:30Z</time>
      </trkpt>
      <trkpt lat="43.57267" lon="2.90896">
        <ele>442</ele>
        <time>2014-01-18T09:37:31Z</time>
      </trkpt>
      <trkpt lat="43.57261" lon="2.90904">
        <ele>440</ele>
        <time>2014-01-18T09:37:33Z</time>
      </trkpt>
      <trkpt lat="43.57256" lon="2.90911">
        <ele>439</ele>
        <time>2014-01-18T09:37:35Z</time>
      </trkpt>
      <trkpt lat="43.57254" lon="2.90915">
        <ele>438</ele>
        <time>2014-01-18T09:37:36Z</time>
      </trkpt>
      <trkpt lat="43.57253" lon="2.90919">
        <ele>434</ele>
        <time>2014-01-18T09:37:37Z</time>
      </trkpt>
      <trkpt lat="43.57252" lon="2.90923">
        <ele>433</ele>
        <time>2014-01-18T09:37:38Z</time>
      </trkpt>
      <trkpt lat="43.57251" lon="2.90926">
        <ele>431</ele>
        <time>2014-01-18T09:37:39Z</time>
      </trkpt>
      <trkpt lat="43.57247" lon="2.90934">
        <ele>436</ele>
        <time>2014-01-18T09:37:41Z</time>
      </trkpt>
      <trkpt lat="43.57244" lon="2.90939">
        <ele>436</ele>
        <time>2014-01-18T09:37:42Z</time>
      </trkpt>
      <trkpt lat="43.57241" lon="2.90944">
        <ele>435</ele>
        <time>2014-01-18T09:37:43Z</time>
      </trkpt>
      <trkpt lat="43.57238" lon="2.90948">
        <ele>435</ele>
        <time>2014-01-18T09:37:44Z</time>
      </trkpt>
      <trkpt lat="43.57233" lon="2.90953">
        <ele>434</ele>
        <time>2014-01-18T09:37:45Z</time>
      </trkpt>
      <trkpt lat="43.5723" lon="2.90956">
        <ele>434</ele>
        <time>2014-01-18T09:37:46Z</time>
      </trkpt>
      <trkpt lat="43.57227" lon="2.9096">
        <ele>434</ele>
        <time>2014-01-18T09:37:47Z</time>
      </trkpt>
      <trkpt lat="43.57223" lon="2.90964">
        <ele>434</ele>
        <time>2014-01-18T09:37:48Z</time>
      </trkpt>
      <trkpt lat="43.5722" lon="2.90967">
        <ele>434</ele>
        <time>2014-01-18T09:37:49Z</time>
      </trkpt>
      <trkpt lat="43.57217" lon="2.90971">
        <ele>434</ele>
        <time>2014-01-18T09:37:50Z</time>
      </trkpt>
      <trkpt lat="43.57215" lon="2.90974">
        <ele>434</ele>
        <time>2014-01-18T09:37:51Z</time>
      </trkpt>
      <trkpt lat="43.57213" lon="2.90977">
        <ele>433</ele>
        <time>2014-01-18T09:37:52Z</time>
      </trkpt>
      <trkpt lat="43.57211" lon="2.90981">
        <ele>433</ele>
        <time>2014-01-18T09:37:53Z</time>
      </trkpt>
      <trkpt lat="43.5721" lon="2.90985">
        <ele>433</ele>
        <time>2014-01-18T09:37:54Z</time>
      </trkpt>
      <trkpt lat="43.57209" lon="2.90988">
        <ele>433</ele>
        <time>2014-01-18T09:37:55Z</time>
      </trkpt>
      <trkpt lat="43.57207" lon="2.90991">
        <ele>433</ele>
        <time>2014-01-18T09:37:56Z</time>
      </trkpt>
      <trkpt lat="43.57206" lon="2.90994">
        <ele>433</ele>
        <time>2014-01-18T09:37:57Z</time>
      </trkpt>
      <trkpt lat="43.57205" lon="2.90998">
        <ele>433</ele>
        <time>2014-01-18T09:37:58Z</time>
      </trkpt>
      <trkpt lat="43.57204" lon="2.91001">
        <ele>418</ele>
        <time>2014-01-18T09:37:59Z</time>
      </trkpt>
      <trkpt lat="43.57203" lon="2.91004">
        <ele>419</ele>
        <time>2014-01-18T09:38:00Z</time>
      </trkpt>
      <trkpt lat="43.57201" lon="2.91008">
        <ele>419</ele>
        <time>2014-01-18T09:38:01Z</time>
      </trkpt>
      <trkpt lat="43.57198" lon="2.91012">
        <ele>419</ele>
        <time>2014-01-18T09:38:02Z</time>
      </trkpt>
      <trkpt lat="43.57196" lon="2.91017">
        <ele>419</ele>
        <time>2014-01-18T09:38:04Z</time>
      </trkpt>
      <trkpt lat="43.57193" lon="2.91022">
        <ele>419</ele>
        <time>2014-01-18T09:38:05Z</time>
      </trkpt>
      <trkpt lat="43.57192" lon="2.91028">
        <ele>418</ele>
        <time>2014-01-18T09:38:06Z</time>
      </trkpt>
      <trkpt lat="43.57191" lon="2.91035">
        <ele>417</ele>
        <time>2014-01-18T09:38:07Z</time>
      </trkpt>
      <trkpt lat="43.5719" lon="2.91041">
        <ele>416</ele>
        <time>2014-01-18T09:38:08Z</time>
      </trkpt>
      <trkpt lat="43.57189" lon="2.91047">
        <ele>415</ele>
        <time>2014-01-18T09:38:09Z</time>
      </trkpt>
      <trkpt lat="43.57187" lon="2.91052">
        <ele>415</ele>
        <time>2014-01-18T09:38:10Z</time>
      </trkpt>
      <trkpt lat="43.57187" lon="2.91055">
        <ele>414</ele>
        <time>2014-01-18T09:38:11Z</time>
      </trkpt>
      <trkpt lat="43.57186" lon="2.91058">
        <ele>414</ele>
        <time>2014-01-18T09:38:12Z</time>
      </trkpt>
      <trkpt lat="43.57185" lon="2.9106">
        <ele>414</ele>
        <time>2014-01-18T09:38:13Z</time>
      </trkpt>
      <trkpt lat="43.57183" lon="2.91064">
        <ele>414</ele>
        <time>2014-01-18T09:38:15Z</time>
      </trkpt>
      <trkpt lat="43.57183" lon="2.91065">
        <ele>414</ele>
        <time>2014-01-18T09:38:16Z</time>
      </trkpt>
      <trkpt lat="43.57182" lon="2.91067">
        <ele>414</ele>
        <time>2014-01-18T09:38:17Z</time>
      </trkpt>
      <trkpt lat="43.57182" lon="2.91067">
        <ele>414</ele>
        <time>2014-01-18T09:38:18Z</time>
      </trkpt>
      <trkpt lat="43.57183" lon="2.91071">
        <ele>413</ele>
        <time>2014-01-18T09:38:19Z</time>
      </trkpt>
      <trkpt lat="43.57183" lon="2.91073">
        <ele>413</ele>
        <time>2014-01-18T09:38:20Z</time>
      </trkpt>
      <trkpt lat="43.57183" lon="2.91075">
        <ele>413</ele>
        <time>2014-01-18T09:38:21Z</time>
      </trkpt>
      <trkpt lat="43.57183" lon="2.91075">
        <ele>413</ele>
        <time>2014-01-18T09:38:22Z</time>
      </trkpt>
      <trkpt lat="43.57182" lon="2.91076">
        <ele>413</ele>
        <time>2014-01-18T09:38:23Z</time>
      </trkpt>
      <trkpt lat="43.57182" lon="2.91076">
        <ele>413</ele>
        <time>2014-01-18T09:38:40Z</time>
      </trkpt>
      <trkpt lat="43.57182" lon="2.91077">
        <ele>413</ele>
        <time>2014-01-18T09:38:41Z</time>
      </trkpt>
      <trkpt lat="43.57181" lon="2.91083">
        <ele>413</ele>
        <time>2014-01-18T09:38:46Z</time>
      </trkpt>
      <trkpt lat="43.57181" lon="2.91085">
        <ele>404</ele>
        <time>2014-01-18T09:38:47Z</time>
      </trkpt>
      <trkpt lat="43.57181" lon="2.91087">
        <ele>404</ele>
        <time>2014-01-18T09:38:48Z</time>
      </trkpt>
      <trkpt lat="43.57181" lon="2.91089">
        <ele>404</ele>
        <time>2014-01-18T09:38:49Z</time>
      </trkpt>
      <trkpt lat="43.5718" lon="2.9109">
        <ele>404</ele>
        <time>2014-01-18T09:38:50Z</time>
      </trkpt>
      <trkpt lat="43.5718" lon="2.91093">
        <ele>403</ele>
        <time>2014-01-18T09:38:51Z</time>
      </trkpt>
      <trkpt lat="43.57182" lon="2.91097">
        <ele>401</ele>
        <time>2014-01-18T09:38:54Z</time>
      </trkpt>
      <trkpt lat="43.57183" lon="2.911">
        <ele>400</ele>
        <time>2014-01-18T09:38:55Z</time>
      </trkpt>
      <trkpt lat="43.57184" lon="2.91102">
        <ele>399</ele>
        <time>2014-01-18T09:38:56Z</time>
      </trkpt>
      <trkpt lat="43.57184" lon="2.91105">
        <ele>398</ele>
        <time>2014-01-18T09:38:57Z</time>
      </trkpt>
      <trkpt lat="43.57184" lon="2.91107">
        <ele>398</ele>
        <time>2014-01-18T09:38:58Z</time>
      </trkpt>
      <trkpt lat="43.57184" lon="2.91108">
        <ele>397</ele>
        <time>2014-01-18T09:38:59Z</time>
      </trkpt>
      <trkpt lat="43.57184" lon="2.91111">
        <ele>396</ele>
        <time>2014-01-18T09:39:00Z</time>
      </trkpt>
      <trkpt lat="43.57183" lon="2.91114">
        <ele>396</ele>
        <time>2014-01-18T09:39:01Z</time>
      </trkpt>
      <trkpt lat="43.57182" lon="2.91116">
        <ele>396</ele>
        <time>2014-01-18T09:39:02Z</time>
      </trkpt>
      <trkpt lat="43.5718" lon="2.91119">
        <ele>395</ele>
        <time>2014-01-18T09:39:03Z</time>
      </trkpt>
      <trkpt lat="43.57179" lon="2.91121">
        <ele>394</ele>
        <time>2014-01-18T09:39:04Z</time>
      </trkpt>
      <trkpt lat="43.57177" lon="2.91123">
        <ele>394</ele>
        <time>2014-01-18T09:39:05Z</time>
      </trkpt>
      <trkpt lat="43.57175" lon="2.91125">
        <ele>394</ele>
        <time>2014-01-18T09:39:06Z</time>
      </trkpt>
      <trkpt lat="43.57174" lon="2.91126">
        <ele>394</ele>
        <time>2014-01-18T09:39:07Z</time>
      </trkpt>
      <trkpt lat="43.57172" lon="2.91127">
        <ele>393</ele>
        <time>2014-01-18T09:39:08Z</time>
      </trkpt>
      <trkpt lat="43.57171" lon="2.9113">
        <ele>393</ele>
        <time>2014-01-18T09:39:09Z</time>
      </trkpt>
      <trkpt lat="43.5717" lon="2.91132">
        <ele>392</ele>
        <time>2014-01-18T09:39:10Z</time>
      </trkpt>
      <trkpt lat="43.57169" lon="2.91134">
        <ele>392</ele>
        <time>2014-01-18T09:39:11Z</time>
      </trkpt>
      <trkpt lat="43.57167" lon="2.91136">
        <ele>391</ele>
        <time>2014-01-18T09:39:12Z</time>
      </trkpt>
      <trkpt lat="43.57165" lon="2.91137">
        <ele>396</ele>
        <time>2014-01-18T09:39:13Z</time>
      </trkpt>
      <trkpt lat="43.57164" lon="2.91138">
        <ele>396</ele>
        <time>2014-01-18T09:39:14Z</time>
      </trkpt>
      <trkpt lat="43.57161" lon="2.9114">
        <ele>395</ele>
        <time>2014-01-18T09:39:15Z</time>
      </trkpt>
      <trkpt lat="43.57157" lon="2.91141">
        <ele>395</ele>
        <time>2014-01-18T09:39:16Z</time>
      </trkpt>
      <trkpt lat="43.57153" lon="2.91143">
        <ele>395</ele>
        <time>2014-01-18T09:39:17Z</time>
      </trkpt>
      <trkpt lat="43.5715" lon="2.91146">
        <ele>395</ele>
        <time>2014-01-18T09:39:18Z</time>
      </trkpt>
      <trkpt lat="43.57147" lon="2.91149">
        <ele>395</ele>
        <time>2014-01-18T09:39:19Z</time>
      </trkpt>
      <trkpt lat="43.57143" lon="2.9115">
        <ele>395</ele>
        <time>2014-01-18T09:39:20Z</time>
      </trkpt>
      <trkpt lat="43.57141" lon="2.91152">
        <ele>395</ele>
        <time>2014-01-18T09:39:21Z</time>
      </trkpt>
      <trkpt lat="43.57137" lon="2.91152">
        <ele>395</ele>
        <time>2014-01-18T09:39:22Z</time>
      </trkpt>
      <trkpt lat="43.57133" lon="2.91154">
        <ele>396</ele>
        <time>2014-01-18T09:39:23Z</time>
      </trkpt>
      <trkpt lat="43.57131" lon="2.91155">
        <ele>396</ele>
        <time>2014-01-18T09:39:24Z</time>
      </trkpt>
      <trkpt lat="43.57128" lon="2.91156">
        <ele>396</ele>
        <time>2014-01-18T09:39:25Z</time>
      </trkpt>
      <trkpt lat="43.57127" lon="2.91161">
        <ele>395</ele>
        <time>2014-01-18T09:39:26Z</time>
      </trkpt>
      <trkpt lat="43.57128" lon="2.91163">
        <ele>395</ele>
        <time>2014-01-18T09:39:27Z</time>
      </trkpt>
      <trkpt lat="43.57127" lon="2.91163">
        <ele>395</ele>
        <time>2014-01-18T09:39:28Z</time>
      </trkpt>
      <trkpt lat="43.57127" lon="2.91167">
        <ele>375</ele>
        <time>2014-01-18T09:39:30Z</time>
      </trkpt>
      <trkpt lat="43.57127" lon="2.91167">
        <ele>395</ele>
        <time>2014-01-18T09:39:31Z</time>
      </trkpt>
      <trkpt lat="43.57124" lon="2.91168">
        <ele>375</ele>
        <time>2014-01-18T09:39:32Z</time>
      </trkpt>
      <trkpt lat="43.57122" lon="2.91169">
        <ele>375</ele>
        <time>2014-01-18T09:39:33Z</time>
      </trkpt>
      <trkpt lat="43.57119" lon="2.91171">
        <ele>375</ele>
        <time>2014-01-18T09:39:34Z</time>
      </trkpt>
      <trkpt lat="43.57116" lon="2.91175">
        <ele>375</ele>
        <time>2014-01-18T09:39:35Z</time>
      </trkpt>
      <trkpt lat="43.57113" lon="2.91177">
        <ele>375</ele>
        <time>2014-01-18T09:39:36Z</time>
      </trkpt>
      <trkpt lat="43.5711" lon="2.91179">
        <ele>375</ele>
        <time>2014-01-18T09:39:37Z</time>
      </trkpt>
      <trkpt lat="43.57108" lon="2.9118">
        <ele>376</ele>
        <time>2014-01-18T09:39:38Z</time>
      </trkpt>
      <trkpt lat="43.57107" lon="2.91181">
        <ele>376</ele>
        <time>2014-01-18T09:39:39Z</time>
      </trkpt>
      <trkpt lat="43.57103" lon="2.91183">
        <ele>376</ele>
        <time>2014-01-18T09:39:40Z</time>
      </trkpt>
      <trkpt lat="43.571" lon="2.91185">
        <ele>376</ele>
        <time>2014-01-18T09:39:41Z</time>
      </trkpt>
      <trkpt lat="43.57095" lon="2.91187">
        <ele>376</ele>
        <time>2014-01-18T09:39:42Z</time>
      </trkpt>
      <trkpt lat="43.57092" lon="2.91188">
        <ele>376</ele>
        <time>2014-01-18T09:39:43Z</time>
      </trkpt>
      <trkpt lat="43.57089" lon="2.9119">
        <ele>376</ele>
        <time>2014-01-18T09:39:44Z</time>
      </trkpt>
      <trkpt lat="43.57087" lon="2.91191">
        <ele>375</ele>
        <time>2014-01-18T09:39:45Z</time>
      </trkpt>
      <trkpt lat="43.57086" lon="2.91194">
        <ele>374</ele>
        <time>2014-01-18T09:39:46Z</time>
      </trkpt>
      <trkpt lat="43.57084" lon="2.91196">
        <ele>373</ele>
        <time>2014-01-18T09:39:47Z</time>
      </trkpt>
      <trkpt lat="43.57081" lon="2.91198">
        <ele>377</ele>
        <time>2014-01-18T09:39:48Z</time>
      </trkpt>
      <trkpt lat="43.57077" lon="2.91201">
        <ele>376</ele>
        <time>2014-01-18T09:39:49Z</time>
      </trkpt>
      <trkpt lat="43.57073" lon="2.91203">
        <ele>375</ele>
        <time>2014-01-18T09:39:50Z</time>
      </trkpt>
      <trkpt lat="43.57068" lon="2.91207">
        <ele>374</ele>
        <time>2014-01-18T09:39:51Z</time>
      </trkpt>
      <trkpt lat="43.57064" lon="2.9121">
        <ele>374</ele>
        <time>2014-01-18T09:39:52Z</time>
      </trkpt>
      <trkpt lat="43.5706" lon="2.91212">
        <ele>374</ele>
        <time>2014-01-18T09:39:53Z</time>
      </trkpt>
      <trkpt lat="43.57057" lon="2.91213">
        <ele>373</ele>
        <time>2014-01-18T09:39:54Z</time>
      </trkpt>
      <trkpt lat="43.57053" lon="2.91214">
        <ele>373</ele>
        <time>2014-01-18T09:39:55Z</time>
      </trkpt>
      <trkpt lat="43.57051" lon="2.91216">
        <ele>373</ele>
        <time>2014-01-18T09:39:56Z</time>
      </trkpt>
      <trkpt lat="43.57047" lon="2.91217">
        <ele>373</ele>
        <time>2014-01-18T09:39:57Z</time>
      </trkpt>
      <trkpt lat="43.57045" lon="2.91219">
        <ele>373</ele>
        <time>2014-01-18T09:39:58Z</time>
      </trkpt>
      <trkpt lat="43.57043" lon="2.91221">
        <ele>373</ele>
        <time>2014-01-18T09:39:59Z</time>
      </trkpt>
      <trkpt lat="43.57042" lon="2.91224">
        <ele>372</ele>
        <time>2014-01-18T09:40:00Z</time>
      </trkpt>
      <trkpt lat="43.5704" lon="2.91229">
        <ele>372</ele>
        <time>2014-01-18T09:40:01Z</time>
      </trkpt>
      <trkpt lat="43.57039" lon="2.91232">
        <ele>371</ele>
        <time>2014-01-18T09:40:02Z</time>
      </trkpt>
      <trkpt lat="43.57037" lon="2.91235">
        <ele>371</ele>
        <time>2014-01-18T09:40:03Z</time>
      </trkpt>
      <trkpt lat="43.57035" lon="2.91238">
        <ele>371</ele>
        <time>2014-01-18T09:40:04Z</time>
      </trkpt>
      <trkpt lat="43.57033" lon="2.91241">
        <ele>371</ele>
        <time>2014-01-18T09:40:05Z</time>
      </trkpt>
      <trkpt lat="43.57029" lon="2.91242">
        <ele>371</ele>
        <time>2014-01-18T09:40:06Z</time>
      </trkpt>
      <trkpt lat="43.57027" lon="2.91246">
        <ele>370</ele>
        <time>2014-01-18T09:40:07Z</time>
      </trkpt>
      <trkpt lat="43.57024" lon="2.9125">
        <ele>370</ele>
        <time>2014-01-18T09:40:08Z</time>
      </trkpt>
      <trkpt lat="43.57021" lon="2.91254">
        <ele>355</ele>
        <time>2014-01-18T09:40:09Z</time>
      </trkpt>
      <trkpt lat="43.57017" lon="2.91257">
        <ele>356</ele>
        <time>2014-01-18T09:40:10Z</time>
      </trkpt>
      <trkpt lat="43.57015" lon="2.9126">
        <ele>356</ele>
        <time>2014-01-18T09:40:11Z</time>
      </trkpt>
      <trkpt lat="43.57013" lon="2.91262">
        <ele>356</ele>
        <time>2014-01-18T09:40:12Z</time>
      </trkpt>
      <trkpt lat="43.57011" lon="2.91264">
        <ele>356</ele>
        <time>2014-01-18T09:40:13Z</time>
      </trkpt>
      <trkpt lat="43.57009" lon="2.91267">
        <ele>355</ele>
        <time>2014-01-18T09:40:14Z</time>
      </trkpt>
      <trkpt lat="43.57008" lon="2.91271">
        <ele>354</ele>
        <time>2014-01-18T09:40:15Z</time>
      </trkpt>
      <trkpt lat="43.57006" lon="2.91274">
        <ele>353</ele>
        <time>2014-01-18T09:40:16Z</time>
      </trkpt>
      <trkpt lat="43.57002" lon="2.91277">
        <ele>352</ele>
        <time>2014-01-18T09:40:17Z</time>
      </trkpt>
      <trkpt lat="43.56998" lon="2.91279">
        <ele>356</ele>
        <time>2014-01-18T09:40:18Z</time>
      </trkpt>
      <trkpt lat="43.56996" lon="2.9128">
        <ele>355</ele>
        <time>2014-01-18T09:40:19Z</time>
      </trkpt>
      <trkpt lat="43.56993" lon="2.91282">
        <ele>355</ele>
        <time>2014-01-18T09:40:20Z</time>
      </trkpt>
      <trkpt lat="43.56991" lon="2.91283">
        <ele>355</ele>
        <time>2014-01-18T09:40:21Z</time>
      </trkpt>
      <trkpt lat="43.56989" lon="2.91286">
        <ele>354</ele>
        <time>2014-01-18T09:40:22Z</time>
      </trkpt>
      <trkpt lat="43.56987" lon="2.91288">
        <ele>354</ele>
        <time>2014-01-18T09:40:23Z</time>
      </trkpt>
      <trkpt lat="43.56986" lon="2.9129">
        <ele>353</ele>
        <time>2014-01-18T09:40:24Z</time>
      </trkpt>
      <trkpt lat="43.56983" lon="2.91293">
        <ele>353</ele>
        <time>2014-01-18T09:40:25Z</time>
      </trkpt>
      <trkpt lat="43.5698" lon="2.91296">
        <ele>352</ele>
        <time>2014-01-18T09:40:26Z</time>
      </trkpt>
      <trkpt lat="43.56977" lon="2.91299">
        <ele>352</ele>
        <time>2014-01-18T09:40:27Z</time>
      </trkpt>
      <trkpt lat="43.56974" lon="2.91302">
        <ele>351</ele>
        <time>2014-01-18T09:40:28Z</time>
      </trkpt>
      <trkpt lat="43.56971" lon="2.91306">
        <ele>351</ele>
        <time>2014-01-18T09:40:29Z</time>
      </trkpt>
      <trkpt lat="43.56968" lon="2.9131">
        <ele>351</ele>
        <time>2014-01-18T09:40:30Z</time>
      </trkpt>
      <trkpt lat="43.56965" lon="2.91315">
        <ele>350</ele>
        <time>2014-01-18T09:40:31Z</time>
      </trkpt>
      <trkpt lat="43.56962" lon="2.9132">
        <ele>350</ele>
        <time>2014-01-18T09:40:32Z</time>
      </trkpt>
      <trkpt lat="43.56961" lon="2.91322">
        <ele>350</ele>
        <time>2014-01-18T09:40:33Z</time>
      </trkpt>
      <trkpt lat="43.56961" lon="2.91322">
        <ele>350</ele>
        <time>2014-01-18T09:40:34Z</time>
      </trkpt>
      <trkpt lat="43.56961" lon="2.91323">
        <ele>350</ele>
        <time>2014-01-18T09:40:35Z</time>
      </trkpt>
      <trkpt lat="43.56957" lon="2.91325">
        <ele>350</ele>
        <time>2014-01-18T09:40:36Z</time>
      </trkpt>
      <trkpt lat="43.56955" lon="2.91328">
        <ele>350</ele>
        <time>2014-01-18T09:40:37Z</time>
      </trkpt>
      <trkpt lat="43.56953" lon="2.91332">
        <ele>351</ele>
        <time>2014-01-18T09:40:38Z</time>
      </trkpt>
      <trkpt lat="43.5695" lon="2.91337">
        <ele>337</ele>
        <time>2014-01-18T09:40:39Z</time>
      </trkpt>
      <trkpt lat="43.56949" lon="2.91343">
        <ele>337</ele>
        <time>2014-01-18T09:40:40Z</time>
      </trkpt>
      <trkpt lat="43.56948" lon="2.91348">
        <ele>337</ele>
        <time>2014-01-18T09:40:41Z</time>
      </trkpt>
      <trkpt lat="43.56947" lon="2.91352">
        <ele>336</ele>
        <time>2014-01-18T09:40:42Z</time>
      </trkpt>
      <trkpt lat="43.56945" lon="2.91355">
        <ele>336</ele>
        <time>2014-01-18T09:40:43Z</time>
      </trkpt>
      <trkpt lat="43.56943" lon="2.91358">
        <ele>336</ele>
        <time>2014-01-18T09:40:44Z</time>
      </trkpt>
      <trkpt lat="43.56943" lon="2.91361">
        <ele>336</ele>
        <time>2014-01-18T09:40:45Z</time>
      </trkpt>
      <trkpt lat="43.56942" lon="2.91363">
        <ele>335</ele>
        <time>2014-01-18T09:40:47Z</time>
      </trkpt>
      <trkpt lat="43.56941" lon="2.91362">
        <ele>335</ele>
        <time>2014-01-18T09:40:48Z</time>
      </trkpt>
      <trkpt lat="43.56941" lon="2.91363">
        <ele>335</ele>
        <time>2014-01-18T09:40:49Z</time>
      </trkpt>
      <trkpt lat="43.56939" lon="2.91364">
        <ele>335</ele>
        <time>2014-01-18T09:40:50Z</time>
      </trkpt>
      <trkpt lat="43.56937" lon="2.91368">
        <ele>335</ele>
        <time>2014-01-18T09:40:51Z</time>
      </trkpt>
      <trkpt lat="43.56934" lon="2.91368">
        <ele>335</ele>
        <time>2014-01-18T09:40:52Z</time>
      </trkpt>
      <trkpt lat="43.56932" lon="2.91375">
        <ele>334</ele>
        <time>2014-01-18T09:40:54Z</time>
      </trkpt>
      <trkpt lat="43.56931" lon="2.91378">
        <ele>333</ele>
        <time>2014-01-18T09:40:55Z</time>
      </trkpt>
      <trkpt lat="43.5693" lon="2.91385">
        <ele>331</ele>
        <time>2014-01-18T09:40:56Z</time>
      </trkpt>
      <trkpt lat="43.56929" lon="2.9139">
        <ele>330</ele>
        <time>2014-01-18T09:40:57Z</time>
      </trkpt>
      <trkpt lat="43.56928" lon="2.91394">
        <ele>329</ele>
        <time>2014-01-18T09:40:58Z</time>
      </trkpt>
      <trkpt lat="43.56926" lon="2.91397">
        <ele>329</ele>
        <time>2014-01-18T09:40:59Z</time>
      </trkpt>
      <trkpt lat="43.56919" lon="2.91403">
        <ele>327</ele>
        <time>2014-01-18T09:41:01Z</time>
      </trkpt>
      <trkpt lat="43.56916" lon="2.91407">
        <ele>325</ele>
        <time>2014-01-18T09:41:02Z</time>
      </trkpt>
      <trkpt lat="43.56912" lon="2.9141">
        <ele>325</ele>
        <time>2014-01-18T09:41:03Z</time>
      </trkpt>
      <trkpt lat="43.5691" lon="2.91414">
        <ele>325</ele>
        <time>2014-01-18T09:41:04Z</time>
      </trkpt>
      <trkpt lat="43.56908" lon="2.91415">
        <ele>325</ele>
        <time>2014-01-18T09:41:05Z</time>
      </trkpt>
      <trkpt lat="43.56905" lon="2.91416">
        <ele>326</ele>
        <time>2014-01-18T09:41:06Z</time>
      </trkpt>
      <trkpt lat="43.56902" lon="2.91417">
        <ele>326</ele>
        <time>2014-01-18T09:41:07Z</time>
      </trkpt>
      <trkpt lat="43.56899" lon="2.91418">
        <ele>317</ele>
        <time>2014-01-18T09:41:08Z</time>
      </trkpt>
      <trkpt lat="43.56895" lon="2.9142">
        <ele>317</ele>
        <time>2014-01-18T09:41:09Z</time>
      </trkpt>
      <trkpt lat="43.56892" lon="2.91422">
        <ele>316</ele>
        <time>2014-01-18T09:41:10Z</time>
      </trkpt>
      <trkpt lat="43.56885" lon="2.91427">
        <ele>315</ele>
        <time>2014-01-18T09:41:12Z</time>
      </trkpt>
      <trkpt lat="43.56882" lon="2.91431">
        <ele>315</ele>
        <time>2014-01-18T09:41:13Z</time>
      </trkpt>
      <trkpt lat="43.56879" lon="2.91436">
        <ele>314</ele>
        <time>2014-01-18T09:41:14Z</time>
      </trkpt>
      <trkpt lat="43.56875" lon="2.9144">
        <ele>314</ele>
        <time>2014-01-18T09:41:15Z</time>
      </trkpt>
      <trkpt lat="43.5687" lon="2.91444">
        <ele>313</ele>
        <time>2014-01-18T09:41:16Z</time>
      </trkpt>
      <trkpt lat="43.56866" lon="2.91447">
        <ele>313</ele>
        <time>2014-01-18T09:41:17Z</time>
      </trkpt>
      <trkpt lat="43.56864" lon="2.91451">
        <ele>313</ele>
        <time>2014-01-18T09:41:18Z</time>
      </trkpt>
      <trkpt lat="43.56864" lon="2.91455">
        <ele>312</ele>
        <time>2014-01-18T09:41:19Z</time>
      </trkpt>
      <trkpt lat="43.56862" lon="2.9146">
        <ele>312</ele>
        <time>2014-01-18T09:41:20Z</time>
      </trkpt>
      <trkpt lat="43.56856" lon="2.91468">
        <ele>311</ele>
        <time>2014-01-18T09:41:22Z</time>
      </trkpt>
      <trkpt lat="43.56853" lon="2.91471">
        <ele>310</ele>
        <time>2014-01-18T09:41:23Z</time>
      </trkpt>
      <trkpt lat="43.56848" lon="2.91474">
        <ele>310</ele>
        <time>2014-01-18T09:41:24Z</time>
      </trkpt>
      <trkpt lat="43.56845" lon="2.91478">
        <ele>309</ele>
        <time>2014-01-18T09:41:25Z</time>
      </trkpt>
      <trkpt lat="43.56841" lon="2.91482">
        <ele>308</ele>
        <time>2014-01-18T09:41:26Z</time>
      </trkpt>
      <trkpt lat="43.56839" lon="2.91489">
        <ele>307</ele>
        <time>2014-01-18T09:41:27Z</time>
      </trkpt>
      <trkpt lat="43.56836" lon="2.91493">
        <ele>306</ele>
        <time>2014-01-18T09:41:28Z</time>
      </trkpt>
      <trkpt lat="43.56833" lon="2.91499">
        <ele>304</ele>
        <time>2014-01-18T09:41:29Z</time>
      </trkpt>
      <trkpt lat="43.5683" lon="2.91502">
        <ele>302</ele>
        <time>2014-01-18T09:41:30Z</time>
      </trkpt>
      <trkpt lat="43.56828" lon="2.91505">
        <ele>300</ele>
        <time>2014-01-18T09:41:31Z</time>
      </trkpt>
      <trkpt lat="43.56826" lon="2.9151">
        <ele>298</ele>
        <time>2014-01-18T09:41:32Z</time>
      </trkpt>
      <trkpt lat="43.56823" lon="2.91515">
        <ele>296</ele>
        <time>2014-01-18T09:41:33Z</time>
      </trkpt>
      <trkpt lat="43.56823" lon="2.91519">
        <ele>295</ele>
        <time>2014-01-18T09:41:34Z</time>
      </trkpt>
      <trkpt lat="43.56824" lon="2.91523">
        <ele>295</ele>
        <time>2014-01-18T09:41:35Z</time>
      </trkpt>
      <trkpt lat="43.56825" lon="2.91528">
        <ele>294</ele>
        <time>2014-01-18T09:41:36Z</time>
      </trkpt>
      <trkpt lat="43.56827" lon="2.91534">
        <ele>293</ele>
        <time>2014-01-18T09:41:37Z</time>
      </trkpt>
      <trkpt lat="43.5683" lon="2.91541">
        <ele>292</ele>
        <time>2014-01-18T09:41:38Z</time>
      </trkpt>
      <trkpt lat="43.56833" lon="2.91542">
        <ele>292</ele>
        <time>2014-01-18T09:41:39Z</time>
      </trkpt>
      <trkpt lat="43.56835" lon="2.91542">
        <ele>295</ele>
        <time>2014-01-18T09:41:40Z</time>
      </trkpt>
      <trkpt lat="43.5684" lon="2.91542">
        <ele>295</ele>
        <time>2014-01-18T09:41:41Z</time>
      </trkpt>
      <trkpt lat="43.56845" lon="2.91542">
        <ele>295</ele>
        <time>2014-01-18T09:41:42Z</time>
      </trkpt>
      <trkpt lat="43.56852" lon="2.91541">
        <ele>295</ele>
        <time>2014-01-18T09:41:43Z</time>
      </trkpt>
      <trkpt lat="43.56857" lon="2.9154">
        <ele>295</ele>
        <time>2014-01-18T09:41:44Z</time>
      </trkpt>
      <trkpt lat="43.56861" lon="2.91539">
        <ele>296</ele>
        <time>2014-01-18T09:41:45Z</time>
      </trkpt>
      <trkpt lat="43.56863" lon="2.9154">
        <ele>295</ele>
        <time>2014-01-18T09:41:46Z</time>
      </trkpt>
      <trkpt lat="43.56866" lon="2.91543">
        <ele>295</ele>
        <time>2014-01-18T09:41:49Z</time>
      </trkpt>
      <trkpt lat="43.56869" lon="2.91547">
        <ele>295</ele>
        <time>2014-01-18T09:41:51Z</time>
      </trkpt>
      <trkpt lat="43.56874" lon="2.91552">
        <ele>295</ele>
        <time>2014-01-18T09:41:53Z</time>
      </trkpt>
      <trkpt lat="43.56876" lon="2.91554">
        <ele>295</ele>
        <time>2014-01-18T09:41:54Z</time>
      </trkpt>
      <trkpt lat="43.56876" lon="2.91556">
        <ele>294</ele>
        <time>2014-01-18T09:41:55Z</time>
      </trkpt>
      <trkpt lat="43.56877" lon="2.91556">
        <ele>294</ele>
        <time>2014-01-18T09:41:56Z</time>
      </trkpt>
      <trkpt lat="43.56878" lon="2.91557">
        <ele>294</ele>
        <time>2014-01-18T09:41:59Z</time>
      </trkpt>
      <trkpt lat="43.56879" lon="2.91557">
        <ele>294</ele>
        <time>2014-01-18T09:42:01Z</time>
      </trkpt>
      <trkpt lat="43.56879" lon="2.91554">
        <ele>295</ele>
        <time>2014-01-18T09:42:05Z</time>
      </trkpt>
      <trkpt lat="43.56875" lon="2.91547">
        <ele>295</ele>
        <time>2014-01-18T09:42:12Z</time>
      </trkpt>
      <trkpt lat="43.56874" lon="2.91546">
        <ele>295</ele>
        <time>2014-01-18T09:42:13Z</time>
      </trkpt>
      <trkpt lat="43.5687" lon="2.91542">
        <ele>295</ele>
        <time>2014-01-18T09:42:16Z</time>
      </trkpt>
      <trkpt lat="43.56867" lon="2.91541">
        <ele>295</ele>
        <time>2014-01-18T09:42:19Z</time>
      </trkpt>
      <trkpt lat="43.5686" lon="2.91542">
        <ele>295</ele>
        <time>2014-01-18T09:42:23Z</time>
      </trkpt>
      <trkpt lat="43.56857" lon="2.91542">
        <ele>295</ele>
        <time>2014-01-18T09:42:24Z</time>
      </trkpt>
      <trkpt lat="43.56853" lon="2.91546">
        <ele>295</ele>
        <time>2014-01-18T09:42:26Z</time>
      </trkpt>
      <trkpt lat="43.56848" lon="2.91552">
        <ele>294</ele>
        <time>2014-01-18T09:42:28Z</time>
      </trkpt>
      <trkpt lat="43.56838" lon="2.91558">
        <ele>292</ele>
        <time>2014-01-18T09:42:33Z</time>
      </trkpt>
      <trkpt lat="43.56835" lon="2.9156">
        <ele>292</ele>
        <time>2014-01-18T09:42:37Z</time>
      </trkpt>
      <trkpt lat="43.56834" lon="2.9156">
        <ele>292</ele>
        <time>2014-01-18T09:42:39Z</time>
      </trkpt>
      <trkpt lat="43.56833" lon="2.91561">
        <ele>289</ele>
        <time>2014-01-18T09:42:40Z</time>
      </trkpt>
      <trkpt lat="43.56831" lon="2.91562">
        <ele>288</ele>
        <time>2014-01-18T09:42:41Z</time>
      </trkpt>
      <trkpt lat="43.56829" lon="2.91565">
        <ele>288</ele>
        <time>2014-01-18T09:42:42Z</time>
      </trkpt>
      <trkpt lat="43.56827" lon="2.91569">
        <ele>288</ele>
        <time>2014-01-18T09:42:43Z</time>
      </trkpt>
      <trkpt lat="43.56823" lon="2.91572">
        <ele>287</ele>
        <time>2014-01-18T09:42:45Z</time>
      </trkpt>
      <trkpt lat="43.56821" lon="2.91572">
        <ele>288</ele>
        <time>2014-01-18T09:42:47Z</time>
      </trkpt>
      <trkpt lat="43.56821" lon="2.91572">
        <ele>288</ele>
        <time>2014-01-18T09:42:48Z</time>
      </trkpt>
      <trkpt lat="43.56821" lon="2.91572">
        <ele>288</ele>
        <time>2014-01-18T09:42:51Z</time>
      </trkpt>
      <trkpt lat="43.56822" lon="2.91572">
        <ele>287</ele>
        <time>2014-01-18T09:42:53Z</time>
      </trkpt>
      <trkpt lat="43.56824" lon="2.91572">
        <ele>287</ele>
        <time>2014-01-18T09:42:56Z</time>
      </trkpt>
      <trkpt lat="43.56824" lon="2.91571">
        <ele>288</ele>
        <time>2014-01-18T09:42:58Z</time>
      </trkpt>
      <trkpt lat="43.56824" lon="2.9157">
        <ele>288</ele>
        <time>2014-01-18T09:42:59Z</time>
      </trkpt>
      <trkpt lat="43.56824" lon="2.91569">
        <ele>288</ele>
        <time>2014-01-18T09:43:01Z</time>
      </trkpt>
      <trkpt lat="43.56824" lon="2.91568">
        <ele>288</ele>
        <time>2014-01-18T09:47:39Z</time>
      </trkpt>
      <trkpt lat="43.56826" lon="2.91568">
        <ele>288</ele>
        <time>2014-01-18T09:47:40Z</time>
      </trkpt>
      <trkpt lat="43.56827" lon="2.91567">
        <ele>288</ele>
        <time>2014-01-18T09:47:41Z</time>
      </trkpt>
      <trkpt lat="43.56831" lon="2.91567">
        <ele>288</ele>
        <time>2014-01-18T09:47:43Z</time>
      </trkpt>
      <trkpt lat="43.56834" lon="2.91567">
        <ele>290</ele>
        <time>2014-01-18T09:47:44Z</time>
      </trkpt>
      <trkpt lat="43.56839" lon="2.91569">
        <ele>290</ele>
        <time>2014-01-18T09:47:45Z</time>
      </trkpt>
      <trkpt lat="43.56841" lon="2.91575">
        <ele>289</ele>
        <time>2014-01-18T09:47:46Z</time>
      </trkpt>
      <trkpt lat="43.5684" lon="2.91581">
        <ele>288</ele>
        <time>2014-01-18T09:47:47Z</time>
      </trkpt>
      <trkpt lat="43.56836" lon="2.91591">
        <ele>286</ele>
        <time>2014-01-18T09:47:49Z</time>
      </trkpt>
      <trkpt lat="43.56831" lon="2.91596">
        <ele>282</ele>
        <time>2014-01-18T09:47:50Z</time>
      </trkpt>
      <trkpt lat="43.56826" lon="2.91599">
        <ele>281</ele>
        <time>2014-01-18T09:47:51Z</time>
      </trkpt>
      <trkpt lat="43.56821" lon="2.91601">
        <ele>281</ele>
        <time>2014-01-18T09:47:52Z</time>
      </trkpt>
      <trkpt lat="43.56815" lon="2.91602">
        <ele>280</ele>
        <time>2014-01-18T09:47:53Z</time>
      </trkpt>
      <trkpt lat="43.5681" lon="2.91601">
        <ele>280</ele>
        <time>2014-01-18T09:47:54Z</time>
      </trkpt>
      <trkpt lat="43.56804" lon="2.91601">
        <ele>280</ele>
        <time>2014-01-18T09:47:55Z</time>
      </trkpt>
      <trkpt lat="43.56798" lon="2.91599">
        <ele>279</ele>
        <time>2014-01-18T09:47:56Z</time>
      </trkpt>
      <trkpt lat="43.56796" lon="2.91599">
        <ele>279</ele>
        <time>2014-01-18T09:47:57Z</time>
      </trkpt>
      <trkpt lat="43.56795" lon="2.91599">
        <ele>279</ele>
        <time>2014-01-18T09:47:58Z</time>
      </trkpt>
      <trkpt lat="43.56796" lon="2.91598">
        <ele>279</ele>
        <time>2014-01-18T09:47:59Z</time>
      </trkpt>
      <trkpt lat="43.56796" lon="2.91597">
        <ele>279</ele>
        <time>2014-01-18T09:48:00Z</time>
      </trkpt>
      <trkpt lat="43.56796" lon="2.91597">
        <ele>279</ele>
        <time>2014-01-18T09:48:01Z</time>
      </trkpt>
      <trkpt lat="43.56796" lon="2.91596">
        <ele>280</ele>
        <time>2014-01-18T09:48:02Z</time>
      </trkpt>
      <trkpt lat="43.56797" lon="2.91595">
        <ele>280</ele>
        <time>2014-01-18T09:48:05Z</time>
      </trkpt>
      <trkpt lat="43.56797" lon="2.91595">
        <ele>280</ele>
        <time>2014-01-18T09:48:14Z</time>
      </trkpt>
      <trkpt lat="43.56797" lon="2.91595">
        <ele>280</ele>
        <time>2014-01-18T09:48:15Z</time>
      </trkpt>
      <trkpt lat="43.56796" lon="2.91595">
        <ele>280</ele>
        <time>2014-01-18T09:48:16Z</time>
      </trkpt>
      <trkpt lat="43.56797" lon="2.91599">
        <ele>279</ele>
        <time>2014-01-18T09:48:18Z</time>
      </trkpt>
      <trkpt lat="43.56799" lon="2.91602">
        <ele>279</ele>
        <time>2014-01-18T09:48:19Z</time>
      </trkpt>
      <trkpt lat="43.56801" lon="2.91609">
        <ele>279</ele>
        <time>2014-01-18T09:48:21Z</time>
      </trkpt>
      <trkpt lat="43.56804" lon="2.91611">
        <ele>279</ele>
        <time>2014-01-18T09:48:22Z</time>
      </trkpt>
      <trkpt lat="43.56805" lon="2.91612">
        <ele>279</ele>
        <time>2014-01-18T09:48:24Z</time>
      </trkpt>
      <trkpt lat="43.56806" lon="2.91612">
        <ele>279</ele>
        <time>2014-01-18T09:48:25Z</time>
      </trkpt>
      <trkpt lat="43.56808" lon="2.91612">
        <ele>279</ele>
        <time>2014-01-18T09:48:27Z</time>
      </trkpt>
      <trkpt lat="43.56808" lon="2.91612">
        <ele>279</ele>
        <time>2014-01-18T09:48:29Z</time>
      </trkpt>
      <trkpt lat="43.56808" lon="2.91612">
        <ele>279</ele>
        <time>2014-01-18T09:48:33Z</time>
      </trkpt>
      <trkpt lat="43.56817" lon="2.91614">
        <ele>279</ele>
        <time>2014-01-18T09:48:38Z</time>
      </trkpt>
      <trkpt lat="43.56821" lon="2.91611">
        <ele>280</ele>
        <time>2014-01-18T09:48:39Z</time>
      </trkpt>
      <trkpt lat="43.56823" lon="2.91611">
        <ele>280</ele>
        <time>2014-01-18T09:48:40Z</time>
      </trkpt>
      <trkpt lat="43.56826" lon="2.9161">
        <ele>280</ele>
        <time>2014-01-18T09:48:41Z</time>
      </trkpt>
      <trkpt lat="43.56828" lon="2.91612">
        <ele>280</ele>
        <time>2014-01-18T09:48:42Z</time>
      </trkpt>
      <trkpt lat="43.56834" lon="2.9162">
        <ele>287</ele>
        <time>2014-01-18T09:48:44Z</time>
      </trkpt>
      <trkpt lat="43.56835" lon="2.91626">
        <ele>286</ele>
        <time>2014-01-18T09:48:45Z</time>
      </trkpt>
      <trkpt lat="43.56835" lon="2.91631">
        <ele>286</ele>
        <time>2014-01-18T09:48:46Z</time>
      </trkpt>
      <trkpt lat="43.56835" lon="2.91636">
        <ele>285</ele>
        <time>2014-01-18T09:48:47Z</time>
      </trkpt>
      <trkpt lat="43.56835" lon="2.91641">
        <ele>285</ele>
        <time>2014-01-18T09:48:48Z</time>
      </trkpt>
      <trkpt lat="43.56833" lon="2.91649">
        <ele>277</ele>
        <time>2014-01-18T09:48:50Z</time>
      </trkpt>
      <trkpt lat="43.56829" lon="2.91658">
        <ele>276</ele>
        <time>2014-01-18T09:48:52Z</time>
      </trkpt>
      <trkpt lat="43.5682" lon="2.91674">
        <ele>275</ele>
        <time>2014-01-18T09:48:55Z</time>
      </trkpt>
      <trkpt lat="43.56817" lon="2.91679">
        <ele>274</ele>
        <time>2014-01-18T09:48:56Z</time>
      </trkpt>
      <trkpt lat="43.56813" lon="2.91685">
        <ele>274</ele>
        <time>2014-01-18T09:48:57Z</time>
      </trkpt>
      <trkpt lat="43.56807" lon="2.91697">
        <ele>274</ele>
        <time>2014-01-18T09:48:59Z</time>
      </trkpt>
      <trkpt lat="43.56804" lon="2.91703">
        <ele>274</ele>
        <time>2014-01-18T09:49:00Z</time>
      </trkpt>
      <trkpt lat="43.56797" lon="2.91716">
        <ele>273</ele>
        <time>2014-01-18T09:49:02Z</time>
      </trkpt>
      <trkpt lat="43.56789" lon="2.91727">
        <ele>273</ele>
        <time>2014-01-18T09:49:04Z</time>
      </trkpt>
      <trkpt lat="43.56781" lon="2.91737">
        <ele>272</ele>
        <time>2014-01-18T09:49:06Z</time>
      </trkpt>
      <trkpt lat="43.56779" lon="2.91742">
        <ele>271</ele>
        <time>2014-01-18T09:49:07Z</time>
      </trkpt>
      <trkpt lat="43.56774" lon="2.91769">
        <ele>275</ele>
        <time>2014-01-18T09:49:11Z</time>
      </trkpt>
      <trkpt lat="43.5677" lon="2.91783">
        <ele>276</ele>
        <time>2014-01-18T09:49:13Z</time>
      </trkpt>
      <trkpt lat="43.56764" lon="2.91795">
        <ele>277</ele>
        <time>2014-01-18T09:49:15Z</time>
      </trkpt>
      <trkpt lat="43.5676" lon="2.91798">
        <ele>277</ele>
        <time>2014-01-18T09:49:16Z</time>
      </trkpt>
      <trkpt lat="43.56756" lon="2.91802">
        <ele>277</ele>
        <time>2014-01-18T09:49:17Z</time>
      </trkpt>
      <trkpt lat="43.56752" lon="2.91804">
        <ele>277</ele>
        <time>2014-01-18T09:49:18Z</time>
      </trkpt>
      <trkpt lat="43.56747" lon="2.91807">
        <ele>271</ele>
        <time>2014-01-18T09:49:19Z</time>
      </trkpt>
      <trkpt lat="43.56742" lon="2.91809">
        <ele>271</ele>
        <time>2014-01-18T09:49:20Z</time>
      </trkpt>
      <trkpt lat="43.56737" lon="2.91813">
        <ele>272</ele>
        <time>2014-01-18T09:49:21Z</time>
      </trkpt>
      <trkpt lat="43.56732" lon="2.91815">
        <ele>272</ele>
        <time>2014-01-18T09:49:22Z</time>
      </trkpt>
      <trkpt lat="43.56722" lon="2.9182">
        <ele>271</ele>
        <time>2014-01-18T09:49:24Z</time>
      </trkpt>
      <trkpt lat="43.56717" lon="2.91821">
        <ele>271</ele>
        <time>2014-01-18T09:49:25Z</time>
      </trkpt>
      <trkpt lat="43.56712" lon="2.91823">
        <ele>270</ele>
        <time>2014-01-18T09:49:26Z</time>
      </trkpt>
      <trkpt lat="43.5669" lon="2.91827">
        <ele>270</ele>
        <time>2014-01-18T09:49:30Z</time>
      </trkpt>
      <trkpt lat="43.56678" lon="2.91823">
        <ele>270</ele>
        <time>2014-01-18T09:49:32Z</time>
      </trkpt>
      <trkpt lat="43.56669" lon="2.91814">
        <ele>269</ele>
        <time>2014-01-18T09:49:34Z</time>
      </trkpt>
      <trkpt lat="43.56665" lon="2.91808">
        <ele>263</ele>
        <time>2014-01-18T09:49:35Z</time>
      </trkpt>
      <trkpt lat="43.56661" lon="2.91802">
        <ele>262</ele>
        <time>2014-01-18T09:49:36Z</time>
      </trkpt>
      <trkpt lat="43.56658" lon="2.91795">
        <ele>261</ele>
        <time>2014-01-18T09:49:37Z</time>
      </trkpt>
      <trkpt lat="43.56654" lon="2.91788">
        <ele>260</ele>
        <time>2014-01-18T09:49:38Z</time>
      </trkpt>
      <trkpt lat="43.56639" lon="2.91777">
        <ele>258</ele>
        <time>2014-01-18T09:49:41Z</time>
      </trkpt>
      <trkpt lat="43.56623" lon="2.91781">
        <ele>258</ele>
        <time>2014-01-18T09:49:44Z</time>
      </trkpt>
      <trkpt lat="43.56619" lon="2.91785">
        <ele>258</ele>
        <time>2014-01-18T09:49:45Z</time>
      </trkpt>
      <trkpt lat="43.56616" lon="2.91792">
        <ele>258</ele>
        <time>2014-01-18T09:49:46Z</time>
      </trkpt>
      <trkpt lat="43.56613" lon="2.91798">
        <ele>258</ele>
        <time>2014-01-18T09:49:47Z</time>
      </trkpt>
      <trkpt lat="43.56612" lon="2.91805">
        <ele>258</ele>
        <time>2014-01-18T09:49:48Z</time>
      </trkpt>
      <trkpt lat="43.5661" lon="2.91809">
        <ele>259</ele>
        <time>2014-01-18T09:49:49Z</time>
      </trkpt>
      <trkpt lat="43.56609" lon="2.91818">
        <ele>259</ele>
        <time>2014-01-18T09:49:51Z</time>
      </trkpt>
      <trkpt lat="43.5661" lon="2.91837">
        <ele>263</ele>
        <time>2014-01-18T09:49:56Z</time>
      </trkpt>
      <trkpt lat="43.56613" lon="2.91851">
        <ele>264</ele>
        <time>2014-01-18T09:50:00Z</time>
      </trkpt>
      <trkpt lat="43.56614" lon="2.91854">
        <ele>264</ele>
        <time>2014-01-18T09:50:01Z</time>
      </trkpt>
      <trkpt lat="43.56616" lon="2.91857">
        <ele>264</ele>
        <time>2014-01-18T09:50:02Z</time>
      </trkpt>
      <trkpt lat="43.56617" lon="2.9186">
        <ele>264</ele>
        <time>2014-01-18T09:50:03Z</time>
      </trkpt>
      <trkpt lat="43.56618" lon="2.91863">
        <ele>264</ele>
        <time>2014-01-18T09:50:04Z</time>
      </trkpt>
      <trkpt lat="43.56622" lon="2.91876">
        <ele>265</ele>
        <time>2014-01-18T09:50:08Z</time>
      </trkpt>
      <trkpt lat="43.56625" lon="2.91884">
        <ele>265</ele>
        <time>2014-01-18T09:50:11Z</time>
      </trkpt>
      <trkpt lat="43.56627" lon="2.91889">
        <ele>266</ele>
        <time>2014-01-18T09:50:13Z</time>
      </trkpt>
      <trkpt lat="43.56628" lon="2.91891">
        <ele>266</ele>
        <time>2014-01-18T09:50:14Z</time>
      </trkpt>
      <trkpt lat="43.5663" lon="2.91894">
        <ele>266</ele>
        <time>2014-01-18T09:50:15Z</time>
      </trkpt>
      <trkpt lat="43.5663" lon="2.91897">
        <ele>266</ele>
        <time>2014-01-18T09:50:16Z</time>
      </trkpt>
      <trkpt lat="43.56632" lon="2.91899">
        <ele>266</ele>
        <time>2014-01-18T09:50:17Z</time>
      </trkpt>
      <trkpt lat="43.56634" lon="2.91905">
        <ele>267</ele>
        <time>2014-01-18T09:50:19Z</time>
      </trkpt>
      <trkpt lat="43.56637" lon="2.91913">
        <ele>268</ele>
        <time>2014-01-18T09:50:22Z</time>
      </trkpt>
      <trkpt lat="43.56639" lon="2.91918">
        <ele>268</ele>
        <time>2014-01-18T09:50:24Z</time>
      </trkpt>
      <trkpt lat="43.5664" lon="2.9192">
        <ele>268</ele>
        <time>2014-01-18T09:50:25Z</time>
      </trkpt>
      <trkpt lat="43.56642" lon="2.91923">
        <ele>268</ele>
        <time>2014-01-18T09:50:26Z</time>
      </trkpt>
      <trkpt lat="43.56642" lon="2.91925">
        <ele>268</ele>
        <time>2014-01-18T09:50:27Z</time>
      </trkpt>
      <trkpt lat="43.56643" lon="2.91927">
        <ele>268</ele>
        <time>2014-01-18T09:50:28Z</time>
      </trkpt>
      <trkpt lat="43.56651" lon="2.91944">
        <ele>268</ele>
        <time>2014-01-18T09:50:35Z</time>
      </trkpt>
      <trkpt lat="43.56655" lon="2.91952">
        <ele>268</ele>
        <time>2014-01-18T09:50:38Z</time>
      </trkpt>
      <trkpt lat="43.56655" lon="2.91954">
        <ele>268</ele>
        <time>2014-01-18T09:50:39Z</time>
      </trkpt>
      <trkpt lat="43.56656" lon="2.91957">
        <ele>268</ele>
        <time>2014-01-18T09:50:40Z</time>
      </trkpt>
      <trkpt lat="43.56658" lon="2.91959">
        <ele>268</ele>
        <time>2014-01-18T09:50:41Z</time>
      </trkpt>
      <trkpt lat="43.56659" lon="2.91962">
        <ele>268</ele>
        <time>2014-01-18T09:50:42Z</time>
      </trkpt>
      <trkpt lat="43.56659" lon="2.91965">
        <ele>268</ele>
        <time>2014-01-18T09:50:43Z</time>
      </trkpt>
      <trkpt lat="43.56666" lon="2.91979">
        <ele>268</ele>
        <time>2014-01-18T09:50:49Z</time>
      </trkpt>
      <trkpt lat="43.56669" lon="2.91988">
        <ele>275</ele>
        <time>2014-01-18T09:50:52Z</time>
      </trkpt>
      <trkpt lat="43.5667" lon="2.9199">
        <ele>275</ele>
        <time>2014-01-18T09:50:53Z</time>
      </trkpt>
      <trkpt lat="43.56671" lon="2.91993">
        <ele>274</ele>
        <time>2014-01-18T09:50:54Z</time>
      </trkpt>
      <trkpt lat="43.56672" lon="2.91995">
        <ele>274</ele>
        <time>2014-01-18T09:50:55Z</time>
      </trkpt>
      <trkpt lat="43.56673" lon="2.91998">
        <ele>274</ele>
        <time>2014-01-18T09:50:56Z</time>
      </trkpt>
      <trkpt lat="43.56676" lon="2.92004">
        <ele>272</ele>
        <time>2014-01-18T09:50:58Z</time>
      </trkpt>
      <trkpt lat="43.56684" lon="2.92022">
        <ele>273</ele>
        <time>2014-01-18T09:51:05Z</time>
      </trkpt>
      <trkpt lat="43.5669" lon="2.92028">
        <ele>273</ele>
        <time>2014-01-18T09:51:08Z</time>
      </trkpt>
      <trkpt lat="43.56691" lon="2.92029">
        <ele>273</ele>
        <time>2014-01-18T09:51:09Z</time>
      </trkpt>
      <trkpt lat="43.56693" lon="2.9203">
        <ele>273</ele>
        <time>2014-01-18T09:51:10Z</time>
      </trkpt>
      <trkpt lat="43.56695" lon="2.9203">
        <ele>273</ele>
        <time>2014-01-18T09:51:11Z</time>
      </trkpt>
      <trkpt lat="43.56698" lon="2.9203">
        <ele>273</ele>
        <time>2014-01-18T09:51:12Z</time>
      </trkpt>
      <trkpt lat="43.56706" lon="2.92027">
        <ele>273</ele>
        <time>2014-01-18T09:51:16Z</time>
      </trkpt>
      <trkpt lat="43.56707" lon="2.92026">
        <ele>273</ele>
        <time>2014-01-18T09:51:17Z</time>
      </trkpt>
      <trkpt lat="43.56709" lon="2.92025">
        <ele>274</ele>
        <time>2014-01-18T09:51:18Z</time>
      </trkpt>
      <trkpt lat="43.56711" lon="2.92023">
        <ele>274</ele>
        <time>2014-01-18T09:51:19Z</time>
      </trkpt>
      <trkpt lat="43.56713" lon="2.92022">
        <ele>274</ele>
        <time>2014-01-18T09:51:20Z</time>
      </trkpt>
      <trkpt lat="43.56722" lon="2.92015">
        <ele>275</ele>
        <time>2014-01-18T09:51:25Z</time>
      </trkpt>
      <trkpt lat="43.56732" lon="2.92008">
        <ele>277</ele>
        <time>2014-01-18T09:51:29Z</time>
      </trkpt>
      <trkpt lat="43.56733" lon="2.92007">
        <ele>277</ele>
        <time>2014-01-18T09:51:30Z</time>
      </trkpt>
      <trkpt lat="43.56735" lon="2.92006">
        <ele>278</ele>
        <time>2014-01-18T09:51:31Z</time>
      </trkpt>
      <trkpt lat="43.56737" lon="2.92005">
        <ele>278</ele>
        <time>2014-01-18T09:51:32Z</time>
      </trkpt>
      <trkpt lat="43.56739" lon="2.92005">
        <ele>278</ele>
        <time>2014-01-18T09:51:33Z</time>
      </trkpt>
      <trkpt lat="43.56747" lon="2.92006">
        <ele>280</ele>
        <time>2014-01-18T09:51:37Z</time>
      </trkpt>
      <trkpt lat="43.56762" lon="2.9201">
        <ele>279</ele>
        <time>2014-01-18T09:51:44Z</time>
      </trkpt>
      <trkpt lat="43.56778" lon="2.92009">
        <ele>278</ele>
        <time>2014-01-18T09:51:49Z</time>
      </trkpt>
      <trkpt lat="43.56805" lon="2.92001">
        <ele>278</ele>
        <time>2014-01-18T09:51:56Z</time>
      </trkpt>
      <trkpt lat="43.56822" lon="2.91997">
        <ele>283</ele>
        <time>2014-01-18T09:52:00Z</time>
      </trkpt>
      <trkpt lat="43.56832" lon="2.91999">
        <ele>281</ele>
        <time>2014-01-18T09:52:02Z</time>
      </trkpt>
      <trkpt lat="43.56837" lon="2.92002">
        <ele>281</ele>
        <time>2014-01-18T09:52:03Z</time>
      </trkpt>
      <trkpt lat="43.56842" lon="2.92006">
        <ele>281</ele>
        <time>2014-01-18T09:52:04Z</time>
      </trkpt>
      <trkpt lat="43.56846" lon="2.9201">
        <ele>281</ele>
        <time>2014-01-18T09:52:05Z</time>
      </trkpt>
      <trkpt lat="43.5685" lon="2.92015">
        <ele>280</ele>
        <time>2014-01-18T09:52:06Z</time>
      </trkpt>
      <trkpt lat="43.56854" lon="2.92021">
        <ele>280</ele>
        <time>2014-01-18T09:52:07Z</time>
      </trkpt>
      <trkpt lat="43.56862" lon="2.92031">
        <ele>280</ele>
        <time>2014-01-18T09:52:09Z</time>
      </trkpt>
      <trkpt lat="43.56868" lon="2.92035">
        <ele>280</ele>
        <time>2014-01-18T09:52:10Z</time>
      </trkpt>
      <trkpt lat="43.56873" lon="2.92036">
        <ele>280</ele>
        <time>2014-01-18T09:52:11Z</time>
      </trkpt>
      <trkpt lat="43.5689" lon="2.9203">
        <ele>282</ele>
        <time>2014-01-18T09:52:14Z</time>
      </trkpt>
      <trkpt lat="43.56899" lon="2.92027">
        <ele>282</ele>
        <time>2014-01-18T09:52:16Z</time>
      </trkpt>
      <trkpt lat="43.56904" lon="2.92026">
        <ele>283</ele>
        <time>2014-01-18T09:52:17Z</time>
      </trkpt>
      <trkpt lat="43.56908" lon="2.92025">
        <ele>283</ele>
        <time>2014-01-18T09:52:18Z</time>
      </trkpt>
      <trkpt lat="43.56913" lon="2.92026">
        <ele>283</ele>
        <time>2014-01-18T09:52:19Z</time>
      </trkpt>
      <trkpt lat="43.56918" lon="2.92026">
        <ele>292</ele>
        <time>2014-01-18T09:52:20Z</time>
      </trkpt>
      <trkpt lat="43.56923" lon="2.92028">
        <ele>293</ele>
        <time>2014-01-18T09:52:21Z</time>
      </trkpt>
      <trkpt lat="43.56932" lon="2.92037">
        <ele>293</ele>
        <time>2014-01-18T09:52:23Z</time>
      </trkpt>
      <trkpt lat="43.5694" lon="2.92055">
        <ele>293</ele>
        <time>2014-01-18T09:52:26Z</time>
      </trkpt>
      <trkpt lat="43.56936" lon="2.92083">
        <ele>289</ele>
        <time>2014-01-18T09:52:30Z</time>
      </trkpt>
      <trkpt lat="43.56922" lon="2.92097">
        <ele>288</ele>
        <time>2014-01-18T09:52:33Z</time>
      </trkpt>
      <trkpt lat="43.5691" lon="2.92102">
        <ele>279</ele>
        <time>2014-01-18T09:52:35Z</time>
      </trkpt>
      <trkpt lat="43.56904" lon="2.92105">
        <ele>279</ele>
        <time>2014-01-18T09:52:36Z</time>
      </trkpt>
      <trkpt lat="43.56899" lon="2.92108">
        <ele>279</ele>
        <time>2014-01-18T09:52:37Z</time>
      </trkpt>
      <trkpt lat="43.56893" lon="2.9211">
        <ele>278</ele>
        <time>2014-01-18T09:52:38Z</time>
      </trkpt>
      <trkpt lat="43.56873" lon="2.92123">
        <ele>277</ele>
        <time>2014-01-18T09:52:42Z</time>
      </trkpt>
      <trkpt lat="43.56868" lon="2.92126">
        <ele>277</ele>
        <time>2014-01-18T09:52:43Z</time>
      </trkpt>
      <trkpt lat="43.5686" lon="2.92134">
        <ele>276</ele>
        <time>2014-01-18T09:52:45Z</time>
      </trkpt>
      <trkpt lat="43.56855" lon="2.92145">
        <ele>275</ele>
        <time>2014-01-18T09:52:47Z</time>
      </trkpt>
      <trkpt lat="43.56851" lon="2.92157">
        <ele>274</ele>
        <time>2014-01-18T09:52:49Z</time>
      </trkpt>
      <trkpt lat="43.56849" lon="2.92163">
        <ele>273</ele>
        <time>2014-01-18T09:52:50Z</time>
      </trkpt>
      <trkpt lat="43.56849" lon="2.9217">
        <ele>275</ele>
        <time>2014-01-18T09:52:51Z</time>
      </trkpt>
      <trkpt lat="43.56848" lon="2.92176">
        <ele>275</ele>
        <time>2014-01-18T09:52:52Z</time>
      </trkpt>
      <trkpt lat="43.56848" lon="2.92182">
        <ele>276</ele>
        <time>2014-01-18T09:52:53Z</time>
      </trkpt>
      <trkpt lat="43.56847" lon="2.92195">
        <ele>277</ele>
        <time>2014-01-18T09:52:55Z</time>
      </trkpt>
      <trkpt lat="43.56847" lon="2.92221">
        <ele>277</ele>
        <time>2014-01-18T09:52:59Z</time>
      </trkpt>
      <trkpt lat="43.56844" lon="2.92249">
        <ele>275</ele>
        <time>2014-01-18T09:53:04Z</time>
      </trkpt>
      <trkpt lat="43.56842" lon="2.92271">
        <ele>278</ele>
        <time>2014-01-18T09:53:08Z</time>
      </trkpt>
      <trkpt lat="43.56841" lon="2.92282">
        <ele>279</ele>
        <time>2014-01-18T09:53:10Z</time>
      </trkpt>
      <trkpt lat="43.56842" lon="2.92288">
        <ele>279</ele>
        <time>2014-01-18T09:53:11Z</time>
      </trkpt>
      <trkpt lat="43.56842" lon="2.92305">
        <ele>279</ele>
        <time>2014-01-18T09:53:14Z</time>
      </trkpt>
      <trkpt lat="43.56842" lon="2.92311">
        <ele>278</ele>
        <time>2014-01-18T09:53:15Z</time>
      </trkpt>
      <trkpt lat="43.56842" lon="2.92317">
        <ele>278</ele>
        <time>2014-01-18T09:53:16Z</time>
      </trkpt>
      <trkpt lat="43.56841" lon="2.92349">
        <ele>276</ele>
        <time>2014-01-18T09:53:21Z</time>
      </trkpt>
      <trkpt lat="43.5684" lon="2.92356">
        <ele>277</ele>
        <time>2014-01-18T09:53:22Z</time>
      </trkpt>
      <trkpt lat="43.56835" lon="2.92386">
        <ele>276</ele>
        <time>2014-01-18T09:53:26Z</time>
      </trkpt>
      <trkpt lat="43.56832" lon="2.92409">
        <ele>268</ele>
        <time>2014-01-18T09:53:29Z</time>
      </trkpt>
      <trkpt lat="43.56827" lon="2.92421">
        <ele>267</ele>
        <time>2014-01-18T09:53:31Z</time>
      </trkpt>
      <trkpt lat="43.56824" lon="2.92426">
        <ele>266</ele>
        <time>2014-01-18T09:53:32Z</time>
      </trkpt>
      <trkpt lat="43.56822" lon="2.92433">
        <ele>265</ele>
        <time>2014-01-18T09:53:33Z</time>
      </trkpt>
      <trkpt lat="43.56819" lon="2.9244">
        <ele>264</ele>
        <time>2014-01-18T09:53:34Z</time>
      </trkpt>
      <trkpt lat="43.56816" lon="2.92446">
        <ele>263</ele>
        <time>2014-01-18T09:53:35Z</time>
      </trkpt>
      <trkpt lat="43.56813" lon="2.92453">
        <ele>262</ele>
        <time>2014-01-18T09:53:36Z</time>
      </trkpt>
      <trkpt lat="43.56809" lon="2.9246">
        <ele>262</ele>
        <time>2014-01-18T09:53:37Z</time>
      </trkpt>
      <trkpt lat="43.56806" lon="2.92466">
        <ele>262</ele>
        <time>2014-01-18T09:53:38Z</time>
      </trkpt>
      <trkpt lat="43.56802" lon="2.92474">
        <ele>261</ele>
        <time>2014-01-18T09:53:39Z</time>
      </trkpt>
      <trkpt lat="43.568" lon="2.92481">
        <ele>261</ele>
        <time>2014-01-18T09:53:40Z</time>
      </trkpt>
      <trkpt lat="43.56797" lon="2.92489">
        <ele>261</ele>
        <time>2014-01-18T09:53:41Z</time>
      </trkpt>
      <trkpt lat="43.56796" lon="2.92499">
        <ele>261</ele>
        <time>2014-01-18T09:53:42Z</time>
      </trkpt>
      <trkpt lat="43.56795" lon="2.92519">
        <ele>259</ele>
        <time>2014-01-18T09:53:44Z</time>
      </trkpt>
      <trkpt lat="43.56797" lon="2.92529">
        <ele>259</ele>
        <time>2014-01-18T09:53:45Z</time>
      </trkpt>
      <trkpt lat="43.568" lon="2.92537">
        <ele>259</ele>
        <time>2014-01-18T09:53:46Z</time>
      </trkpt>
      <trkpt lat="43.56806" lon="2.92544">
        <ele>259</ele>
        <time>2014-01-18T09:53:47Z</time>
      </trkpt>
      <trkpt lat="43.56814" lon="2.92547">
        <ele>259</ele>
        <time>2014-01-18T09:53:48Z</time>
      </trkpt>
      <trkpt lat="43.56821" lon="2.92546">
        <ele>260</ele>
        <time>2014-01-18T09:53:49Z</time>
      </trkpt>
      <trkpt lat="43.56828" lon="2.92543">
        <ele>260</ele>
        <time>2014-01-18T09:53:50Z</time>
      </trkpt>
      <trkpt lat="43.56836" lon="2.92536">
        <ele>265</ele>
        <time>2014-01-18T09:53:51Z</time>
      </trkpt>
      <trkpt lat="43.56841" lon="2.92526">
        <ele>265</ele>
        <time>2014-01-18T09:53:52Z</time>
      </trkpt>
      <trkpt lat="43.56842" lon="2.92515">
        <ele>264</ele>
        <time>2014-01-18T09:53:53Z</time>
      </trkpt>
      <trkpt lat="43.56844" lon="2.92503">
        <ele>264</ele>
        <time>2014-01-18T09:53:54Z</time>
      </trkpt>
      <trkpt lat="43.56846" lon="2.92492">
        <ele>266</ele>
        <time>2014-01-18T09:53:55Z</time>
      </trkpt>
      <trkpt lat="43.56849" lon="2.92481">
        <ele>267</ele>
        <time>2014-01-18T09:53:56Z</time>
      </trkpt>
      <trkpt lat="43.56853" lon="2.92473">
        <ele>268</ele>
        <time>2014-01-18T09:53:57Z</time>
      </trkpt>
      <trkpt lat="43.56858" lon="2.92466">
        <ele>269</ele>
        <time>2014-01-18T09:53:58Z</time>
      </trkpt>
      <trkpt lat="43.56863" lon="2.9246">
        <ele>270</ele>
        <time>2014-01-18T09:53:59Z</time>
      </trkpt>
      <trkpt lat="43.56869" lon="2.92457">
        <ele>270</ele>
        <time>2014-01-18T09:54:00Z</time>
      </trkpt>
      <trkpt lat="43.56875" lon="2.92458">
        <ele>271</ele>
        <time>2014-01-18T09:54:01Z</time>
      </trkpt>
      <trkpt lat="43.5688" lon="2.92465">
        <ele>270</ele>
        <time>2014-01-18T09:54:02Z</time>
      </trkpt>
      <trkpt lat="43.56884" lon="2.92473">
        <ele>270</ele>
        <time>2014-01-18T09:54:03Z</time>
      </trkpt>
      <trkpt lat="43.5689" lon="2.92491">
        <ele>269</ele>
        <time>2014-01-18T09:54:05Z</time>
      </trkpt>
      <trkpt lat="43.56891" lon="2.925">
        <ele>269</ele>
        <time>2014-01-18T09:54:06Z</time>
      </trkpt>
      <trkpt lat="43.56892" lon="2.92516">
        <ele>266</ele>
        <time>2014-01-18T09:54:08Z</time>
      </trkpt>
      <trkpt lat="43.56892" lon="2.92524">
        <ele>266</ele>
        <time>2014-01-18T09:54:09Z</time>
      </trkpt>
      <trkpt lat="43.56892" lon="2.92531">
        <ele>266</ele>
        <time>2014-01-18T09:54:10Z</time>
      </trkpt>
      <trkpt lat="43.56889" lon="2.92553">
        <ele>267</ele>
        <time>2014-01-18T09:54:14Z</time>
      </trkpt>
      <trkpt lat="43.56881" lon="2.92566">
        <ele>267</ele>
        <time>2014-01-18T09:54:18Z</time>
      </trkpt>
      <trkpt lat="43.56879" lon="2.92569">
        <ele>267</ele>
        <time>2014-01-18T09:54:19Z</time>
      </trkpt>
      <trkpt lat="43.56877" lon="2.92572">
        <ele>266</ele>
        <time>2014-01-18T09:54:20Z</time>
      </trkpt>
      <trkpt lat="43.56874" lon="2.92575">
        <ele>266</ele>
        <time>2014-01-18T09:54:21Z</time>
      </trkpt>
      <trkpt lat="43.56872" lon="2.92578">
        <ele>266</ele>
        <time>2014-01-18T09:54:22Z</time>
      </trkpt>
      <trkpt lat="43.56865" lon="2.92583">
        <ele>266</ele>
        <time>2014-01-18T09:54:25Z</time>
      </trkpt>
      <trkpt lat="43.56862" lon="2.92587">
        <ele>265</ele>
        <time>2014-01-18T09:54:27Z</time>
      </trkpt>
      <trkpt lat="43.5686" lon="2.92589">
        <ele>264</ele>
        <time>2014-01-18T09:54:28Z</time>
      </trkpt>
      <trkpt lat="43.56858" lon="2.92591">
        <ele>264</ele>
        <time>2014-01-18T09:54:29Z</time>
      </trkpt>
      <trkpt lat="43.56856" lon="2.92594">
        <ele>264</ele>
        <time>2014-01-18T09:54:30Z</time>
      </trkpt>
      <trkpt lat="43.56852" lon="2.92598">
        <ele>264</ele>
        <time>2014-01-18T09:54:31Z</time>
      </trkpt>
      <trkpt lat="43.56848" lon="2.92602">
        <ele>264</ele>
        <time>2014-01-18T09:54:32Z</time>
      </trkpt>
      <trkpt lat="43.56833" lon="2.92617">
        <ele>257</ele>
        <time>2014-01-18T09:54:35Z</time>
      </trkpt>
      <trkpt lat="43.56827" lon="2.92623">
        <ele>256</ele>
        <time>2014-01-18T09:54:36Z</time>
      </trkpt>
      <trkpt lat="43.5682" lon="2.92628">
        <ele>256</ele>
        <time>2014-01-18T09:54:37Z</time>
      </trkpt>
      <trkpt lat="43.56813" lon="2.92634">
        <ele>255</ele>
        <time>2014-01-18T09:54:38Z</time>
      </trkpt>
      <trkpt lat="43.56806" lon="2.92641">
        <ele>255</ele>
        <time>2014-01-18T09:54:39Z</time>
      </trkpt>
      <trkpt lat="43.56799" lon="2.92648">
        <ele>254</ele>
        <time>2014-01-18T09:54:40Z</time>
      </trkpt>
      <trkpt lat="43.56791" lon="2.92655">
        <ele>253</ele>
        <time>2014-01-18T09:54:41Z</time>
      </trkpt>
      <trkpt lat="43.56783" lon="2.92662">
        <ele>252</ele>
        <time>2014-01-18T09:54:42Z</time>
      </trkpt>
      <trkpt lat="43.56776" lon="2.92671">
        <ele>248</ele>
        <time>2014-01-18T09:54:43Z</time>
      </trkpt>
      <trkpt lat="43.56768" lon="2.92679">
        <ele>247</ele>
        <time>2014-01-18T09:54:44Z</time>
      </trkpt>
      <trkpt lat="43.56759" lon="2.92687">
        <ele>247</ele>
        <time>2014-01-18T09:54:45Z</time>
      </trkpt>
      <trkpt lat="43.56753" lon="2.92697">
        <ele>247</ele>
        <time>2014-01-18T09:54:46Z</time>
      </trkpt>
      <trkpt lat="43.56749" lon="2.9271">
        <ele>240</ele>
        <time>2014-01-18T09:54:47Z</time>
      </trkpt>
      <trkpt lat="43.56745" lon="2.92723">
        <ele>240</ele>
        <time>2014-01-18T09:54:48Z</time>
      </trkpt>
      <trkpt lat="43.56741" lon="2.92736">
        <ele>240</ele>
        <time>2014-01-18T09:54:49Z</time>
      </trkpt>
      <trkpt lat="43.56738" lon="2.92749">
        <ele>241</ele>
        <time>2014-01-18T09:54:50Z</time>
      </trkpt>
      <trkpt lat="43.56739" lon="2.92763">
        <ele>241</ele>
        <time>2014-01-18T09:54:51Z</time>
      </trkpt>
      <trkpt lat="43.56744" lon="2.92776">
        <ele>241</ele>
        <time>2014-01-18T09:54:52Z</time>
      </trkpt>
      <trkpt lat="43.56749" lon="2.92787">
        <ele>241</ele>
        <time>2014-01-18T09:54:53Z</time>
      </trkpt>
      <trkpt lat="43.56751" lon="2.92799">
        <ele>250</ele>
        <time>2014-01-18T09:54:54Z</time>
      </trkpt>
      <trkpt lat="43.56748" lon="2.92812">
        <ele>243</ele>
        <time>2014-01-18T09:54:55Z</time>
      </trkpt>
      <trkpt lat="43.56744" lon="2.92821">
        <ele>244</ele>
        <time>2014-01-18T09:54:56Z</time>
      </trkpt>
      <trkpt lat="43.5674" lon="2.9283">
        <ele>244</ele>
        <time>2014-01-18T09:54:57Z</time>
      </trkpt>
      <trkpt lat="43.56737" lon="2.92839">
        <ele>244</ele>
        <time>2014-01-18T09:54:58Z</time>
      </trkpt>
      <trkpt lat="43.56734" lon="2.92847">
        <ele>243</ele>
        <time>2014-01-18T09:54:59Z</time>
      </trkpt>
      <trkpt lat="43.56731" lon="2.92854">
        <ele>242</ele>
        <time>2014-01-18T09:55:00Z</time>
      </trkpt>
      <trkpt lat="43.56727" lon="2.92861">
        <ele>242</ele>
        <time>2014-01-18T09:55:01Z</time>
      </trkpt>
      <trkpt lat="43.56723" lon="2.92868">
        <ele>241</ele>
        <time>2014-01-18T09:55:02Z</time>
      </trkpt>
      <trkpt lat="43.56719" lon="2.92875">
        <ele>241</ele>
        <time>2014-01-18T09:55:03Z</time>
      </trkpt>
      <trkpt lat="43.56709" lon="2.92891">
        <ele>240</ele>
        <time>2014-01-18T09:55:05Z</time>
      </trkpt>
      <trkpt lat="43.56699" lon="2.92905">
        <ele>239</ele>
        <time>2014-01-18T09:55:07Z</time>
      </trkpt>
      <trkpt lat="43.56694" lon="2.92914">
        <ele>238</ele>
        <time>2014-01-18T09:55:08Z</time>
      </trkpt>
      <trkpt lat="43.56691" lon="2.92924">
        <ele>236</ele>
        <time>2014-01-18T09:55:09Z</time>
      </trkpt>
      <trkpt lat="43.56688" lon="2.92934">
        <ele>236</ele>
        <time>2014-01-18T09:55:10Z</time>
      </trkpt>
      <trkpt lat="43.56683" lon="2.92943">
        <ele>236</ele>
        <time>2014-01-18T09:55:11Z</time>
      </trkpt>
      <trkpt lat="43.56678" lon="2.92951">
        <ele>235</ele>
        <time>2014-01-18T09:55:12Z</time>
      </trkpt>
      <trkpt lat="43.56671" lon="2.92958">
        <ele>235</ele>
        <time>2014-01-18T09:55:13Z</time>
      </trkpt>
      <trkpt lat="43.56665" lon="2.92965">
        <ele>232</ele>
        <time>2014-01-18T09:55:14Z</time>
      </trkpt>
      <trkpt lat="43.56659" lon="2.92974">
        <ele>232</ele>
        <time>2014-01-18T09:55:15Z</time>
      </trkpt>
      <trkpt lat="43.56652" lon="2.92982">
        <ele>232</ele>
        <time>2014-01-18T09:55:16Z</time>
      </trkpt>
      <trkpt lat="43.56646" lon="2.9299">
        <ele>232</ele>
        <time>2014-01-18T09:55:17Z</time>
      </trkpt>
      <trkpt lat="43.56642" lon="2.92999">
        <ele>232</ele>
        <time>2014-01-18T09:55:18Z</time>
      </trkpt>
      <trkpt lat="43.56638" lon="2.93009">
        <ele>232</ele>
        <time>2014-01-18T09:55:19Z</time>
      </trkpt>
      <trkpt lat="43.56637" lon="2.93018">
        <ele>231</ele>
        <time>2014-01-18T09:55:20Z</time>
      </trkpt>
      <trkpt lat="43.56635" lon="2.93028">
        <ele>231</ele>
        <time>2014-01-18T09:55:21Z</time>
      </trkpt>
      <trkpt lat="43.56634" lon="2.93038">
        <ele>231</ele>
        <time>2014-01-18T09:55:22Z</time>
      </trkpt>
      <trkpt lat="43.56634" lon="2.93047">
        <ele>231</ele>
        <time>2014-01-18T09:55:23Z</time>
      </trkpt>
      <trkpt lat="43.56633" lon="2.93057">
        <ele>230</ele>
        <time>2014-01-18T09:55:24Z</time>
      </trkpt>
      <trkpt lat="43.56631" lon="2.93067">
        <ele>230</ele>
        <time>2014-01-18T09:55:25Z</time>
      </trkpt>
      <trkpt lat="43.56628" lon="2.93077">
        <ele>230</ele>
        <time>2014-01-18T09:55:26Z</time>
      </trkpt>
      <trkpt lat="43.56626" lon="2.93086">
        <ele>227</ele>
        <time>2014-01-18T09:55:27Z</time>
      </trkpt>
      <trkpt lat="43.56623" lon="2.93096">
        <ele>227</ele>
        <time>2014-01-18T09:55:28Z</time>
      </trkpt>
      <trkpt lat="43.5662" lon="2.93107">
        <ele>227</ele>
        <time>2014-01-18T09:55:29Z</time>
      </trkpt>
      <trkpt lat="43.56616" lon="2.93118">
        <ele>227</ele>
        <time>2014-01-18T09:55:30Z</time>
      </trkpt>
      <trkpt lat="43.56614" lon="2.9313">
        <ele>227</ele>
        <time>2014-01-18T09:55:31Z</time>
      </trkpt>
      <trkpt lat="43.56612" lon="2.93141">
        <ele>227</ele>
        <time>2014-01-18T09:55:32Z</time>
      </trkpt>
      <trkpt lat="43.5661" lon="2.93153">
        <ele>227</ele>
        <time>2014-01-18T09:55:33Z</time>
      </trkpt>
      <trkpt lat="43.56607" lon="2.93165">
        <ele>227</ele>
        <time>2014-01-18T09:55:34Z</time>
      </trkpt>
      <trkpt lat="43.56604" lon="2.93177">
        <ele>223</ele>
        <time>2014-01-18T09:55:35Z</time>
      </trkpt>
      <trkpt lat="43.56602" lon="2.93189">
        <ele>222</ele>
        <time>2014-01-18T09:55:36Z</time>
      </trkpt>
      <trkpt lat="43.56599" lon="2.932">
        <ele>221</ele>
        <time>2014-01-18T09:55:37Z</time>
      </trkpt>
      <trkpt lat="43.56597" lon="2.93213">
        <ele>220</ele>
        <time>2014-01-18T09:55:38Z</time>
      </trkpt>
      <trkpt lat="43.56594" lon="2.93224">
        <ele>219</ele>
        <time>2014-01-18T09:55:39Z</time>
      </trkpt>
      <trkpt lat="43.56591" lon="2.93236">
        <ele>218</ele>
        <time>2014-01-18T09:55:40Z</time>
      </trkpt>
      <trkpt lat="43.56588" lon="2.93247">
        <ele>217</ele>
        <time>2014-01-18T09:55:41Z</time>
      </trkpt>
      <trkpt lat="43.56583" lon="2.93257">
        <ele>215</ele>
        <time>2014-01-18T09:55:42Z</time>
      </trkpt>
      <trkpt lat="43.56576" lon="2.93265">
        <ele>213</ele>
        <time>2014-01-18T09:55:43Z</time>
      </trkpt>
      <trkpt lat="43.56567" lon="2.93271">
        <ele>211</ele>
        <time>2014-01-18T09:55:44Z</time>
      </trkpt>
      <trkpt lat="43.56559" lon="2.93278">
        <ele>210</ele>
        <time>2014-01-18T09:55:45Z</time>
      </trkpt>
      <trkpt lat="43.5655" lon="2.93283">
        <ele>209</ele>
        <time>2014-01-18T09:55:46Z</time>
      </trkpt>
      <trkpt lat="43.56541" lon="2.93288">
        <ele>209</ele>
        <time>2014-01-18T09:55:47Z</time>
      </trkpt>
      <trkpt lat="43.56533" lon="2.93293">
        <ele>208</ele>
        <time>2014-01-18T09:55:48Z</time>
      </trkpt>
      <trkpt lat="43.56523" lon="2.93295">
        <ele>208</ele>
        <time>2014-01-18T09:55:49Z</time>
      </trkpt>
      <trkpt lat="43.56514" lon="2.93295">
        <ele>208</ele>
        <time>2014-01-18T09:55:50Z</time>
      </trkpt>
      <trkpt lat="43.56504" lon="2.93294">
        <ele>208</ele>
        <time>2014-01-18T09:55:51Z</time>
      </trkpt>
      <trkpt lat="43.56495" lon="2.93292">
        <ele>206</ele>
        <time>2014-01-18T09:55:52Z</time>
      </trkpt>
      <trkpt lat="43.56485" lon="2.93289">
        <ele>206</ele>
        <time>2014-01-18T09:55:53Z</time>
      </trkpt>
      <trkpt lat="43.56475" lon="2.93285">
        <ele>206</ele>
        <time>2014-01-18T09:55:54Z</time>
      </trkpt>
      <trkpt lat="43.56465" lon="2.93281">
        <ele>206</ele>
        <time>2014-01-18T09:55:55Z</time>
      </trkpt>
      <trkpt lat="43.56455" lon="2.93278">
        <ele>206</ele>
        <time>2014-01-18T09:55:56Z</time>
      </trkpt>
      <trkpt lat="43.56444" lon="2.93279">
        <ele>205</ele>
        <time>2014-01-18T09:55:57Z</time>
      </trkpt>
      <trkpt lat="43.56433" lon="2.93284">
        <ele>205</ele>
        <time>2014-01-18T09:55:58Z</time>
      </trkpt>
      <trkpt lat="43.56423" lon="2.9329">
        <ele>205</ele>
        <time>2014-01-18T09:55:59Z</time>
      </trkpt>
      <trkpt lat="43.56413" lon="2.93297">
        <ele>202</ele>
        <time>2014-01-18T09:56:00Z</time>
      </trkpt>
      <trkpt lat="43.56405" lon="2.93306">
        <ele>201</ele>
        <time>2014-01-18T09:56:01Z</time>
      </trkpt>
      <trkpt lat="43.56398" lon="2.93316">
        <ele>201</ele>
        <time>2014-01-18T09:56:02Z</time>
      </trkpt>
      <trkpt lat="43.56393" lon="2.93327">
        <ele>201</ele>
        <time>2014-01-18T09:56:03Z</time>
      </trkpt>
      <trkpt lat="43.56388" lon="2.93338">
        <ele>199</ele>
        <time>2014-01-18T09:56:04Z</time>
      </trkpt>
      <trkpt lat="43.56384" lon="2.93349">
        <ele>198</ele>
        <time>2014-01-18T09:56:05Z</time>
      </trkpt>
      <trkpt lat="43.5638" lon="2.93361">
        <ele>198</ele>
        <time>2014-01-18T09:56:06Z</time>
      </trkpt>
      <trkpt lat="43.56378" lon="2.93372">
        <ele>197</ele>
        <time>2014-01-18T09:56:07Z</time>
      </trkpt>
      <trkpt lat="43.56376" lon="2.93384">
        <ele>197</ele>
        <time>2014-01-18T09:56:08Z</time>
      </trkpt>
      <trkpt lat="43.56373" lon="2.93396">
        <ele>196</ele>
        <time>2014-01-18T09:56:09Z</time>
      </trkpt>
      <trkpt lat="43.56373" lon="2.93404">
        <ele>196</ele>
        <time>2014-01-18T10:08:14Z</time>
      </trkpt>
      <trkpt lat="43.56372" lon="2.93407">
        <ele>196</ele>
        <time>2014-01-18T10:08:15Z</time>
      </trkpt>
      <trkpt lat="43.56371" lon="2.9341">
        <ele>196</ele>
        <time>2014-01-18T10:08:16Z</time>
      </trkpt>
      <trkpt lat="43.5637" lon="2.93412">
        <ele>196</ele>
        <time>2014-01-18T10:08:17Z</time>
      </trkpt>
      <trkpt lat="43.5637" lon="2.93414">
        <ele>195</ele>
        <time>2014-01-18T10:08:18Z</time>
      </trkpt>
      <trkpt lat="43.5637" lon="2.93419">
        <ele>189</ele>
        <time>2014-01-18T10:08:20Z</time>
      </trkpt>
      <trkpt lat="43.56371" lon="2.93421">
        <ele>189</ele>
        <time>2014-01-18T10:08:21Z</time>
      </trkpt>
      <trkpt lat="43.56372" lon="2.93423">
        <ele>189</ele>
        <time>2014-01-18T10:08:22Z</time>
      </trkpt>
      <trkpt lat="43.56372" lon="2.93424">
        <ele>189</ele>
        <time>2014-01-18T10:08:23Z</time>
      </trkpt>
      <trkpt lat="43.56373" lon="2.93426">
        <ele>189</ele>
        <time>2014-01-18T10:08:24Z</time>
      </trkpt>
      <trkpt lat="43.56376" lon="2.93432">
        <ele>189</ele>
        <time>2014-01-18T10:08:27Z</time>
      </trkpt>
      <trkpt lat="43.56376" lon="2.93434">
        <ele>189</ele>
        <time>2014-01-18T10:08:28Z</time>
      </trkpt>
      <trkpt lat="43.56377" lon="2.93436">
        <ele>189</ele>
        <time>2014-01-18T10:08:29Z</time>
      </trkpt>
      <trkpt lat="43.56377" lon="2.93437">
        <ele>189</ele>
        <time>2014-01-18T10:08:30Z</time>
      </trkpt>
      <trkpt lat="43.56377" lon="2.93439">
        <ele>189</ele>
        <time>2014-01-18T10:08:31Z</time>
      </trkpt>
      <trkpt lat="43.56377" lon="2.9344">
        <ele>188</ele>
        <time>2014-01-18T10:08:32Z</time>
      </trkpt>
      <trkpt lat="43.56374" lon="2.93445">
        <ele>188</ele>
        <time>2014-01-18T10:08:35Z</time>
      </trkpt>
      <trkpt lat="43.56373" lon="2.93447">
        <ele>188</ele>
        <time>2014-01-18T10:08:36Z</time>
      </trkpt>
      <trkpt lat="43.56373" lon="2.93448">
        <ele>188</ele>
        <time>2014-01-18T10:08:37Z</time>
      </trkpt>
      <trkpt lat="43.56371" lon="2.9345">
        <ele>188</ele>
        <time>2014-01-18T10:08:38Z</time>
      </trkpt>
      <trkpt lat="43.5637" lon="2.93452">
        <ele>188</ele>
        <time>2014-01-18T10:08:39Z</time>
      </trkpt>
      <trkpt lat="43.56365" lon="2.93458">
        <ele>187</ele>
        <time>2014-01-18T10:08:44Z</time>
      </trkpt>
      <trkpt lat="43.56364" lon="2.93459">
        <ele>187</ele>
        <time>2014-01-18T10:08:45Z</time>
      </trkpt>
      <trkpt lat="43.56362" lon="2.9346">
        <ele>187</ele>
        <time>2014-01-18T10:08:46Z</time>
      </trkpt>
      <trkpt lat="43.56361" lon="2.93462">
        <ele>187</ele>
        <time>2014-01-18T10:08:47Z</time>
      </trkpt>
      <trkpt lat="43.5636" lon="2.93463">
        <ele>187</ele>
        <time>2014-01-18T10:08:48Z</time>
      </trkpt>
      <trkpt lat="43.56355" lon="2.93466">
        <ele>187</ele>
        <time>2014-01-18T10:08:51Z</time>
      </trkpt>
      <trkpt lat="43.56353" lon="2.93468">
        <ele>186</ele>
        <time>2014-01-18T10:08:53Z</time>
      </trkpt>
      <trkpt lat="43.56352" lon="2.93469">
        <ele>186</ele>
        <time>2014-01-18T10:08:54Z</time>
      </trkpt>
      <trkpt lat="43.5635" lon="2.9347">
        <ele>186</ele>
        <time>2014-01-18T10:08:55Z</time>
      </trkpt>
      <trkpt lat="43.56348" lon="2.93471">
        <ele>186</ele>
        <time>2014-01-18T10:08:56Z</time>
      </trkpt>
      <trkpt lat="43.56347" lon="2.93471">
        <ele>186</ele>
        <time>2014-01-18T10:08:57Z</time>
      </trkpt>
      <trkpt lat="43.56344" lon="2.93472">
        <ele>186</ele>
        <time>2014-01-18T10:08:59Z</time>
      </trkpt>
      <trkpt lat="43.56342" lon="2.93472">
        <ele>186</ele>
        <time>2014-01-18T10:09:00Z</time>
      </trkpt>
      <trkpt lat="43.5634" lon="2.93472">
        <ele>186</ele>
        <time>2014-01-18T10:09:01Z</time>
      </trkpt>
      <trkpt lat="43.56338" lon="2.93472">
        <ele>186</ele>
        <time>2014-01-18T10:09:02Z</time>
      </trkpt>
      <trkpt lat="43.56337" lon="2.93472">
        <ele>186</ele>
        <time>2014-01-18T10:09:03Z</time>
      </trkpt>
      <trkpt lat="43.56334" lon="2.93474">
        <ele>185</ele>
        <time>2014-01-18T10:09:06Z</time>
      </trkpt>
      <trkpt lat="43.56333" lon="2.93475">
        <ele>181</ele>
        <time>2014-01-18T10:09:07Z</time>
      </trkpt>
      <trkpt lat="43.56331" lon="2.93476">
        <ele>181</ele>
        <time>2014-01-18T10:09:08Z</time>
      </trkpt>
      <trkpt lat="43.56329" lon="2.93476">
        <ele>181</ele>
        <time>2014-01-18T10:09:09Z</time>
      </trkpt>
      <trkpt lat="43.56328" lon="2.93476">
        <ele>181</ele>
        <time>2014-01-18T10:09:10Z</time>
      </trkpt>
      <trkpt lat="43.56326" lon="2.93477">
        <ele>181</ele>
        <time>2014-01-18T10:09:11Z</time>
      </trkpt>
      <trkpt lat="43.56324" lon="2.93478">
        <ele>181</ele>
        <time>2014-01-18T10:09:12Z</time>
      </trkpt>
      <trkpt lat="43.56323" lon="2.93479">
        <ele>181</ele>
        <time>2014-01-18T10:09:13Z</time>
      </trkpt>
      <trkpt lat="43.56323" lon="2.93483">
        <ele>181</ele>
        <time>2014-01-18T10:09:15Z</time>
      </trkpt>
      <trkpt lat="43.56324" lon="2.93485">
        <ele>181</ele>
        <time>2014-01-18T10:09:16Z</time>
      </trkpt>
      <trkpt lat="43.56326" lon="2.93487">
        <ele>181</ele>
        <time>2014-01-18T10:09:17Z</time>
      </trkpt>
      <trkpt lat="43.56327" lon="2.93489">
        <ele>181</ele>
        <time>2014-01-18T10:09:18Z</time>
      </trkpt>
      <trkpt lat="43.56329" lon="2.9349">
        <ele>181</ele>
        <time>2014-01-18T10:09:19Z</time>
      </trkpt>
      <trkpt lat="43.56333" lon="2.93494">
        <ele>182</ele>
        <time>2014-01-18T10:09:21Z</time>
      </trkpt>
      <trkpt lat="43.56335" lon="2.93495">
        <ele>182</ele>
        <time>2014-01-18T10:09:22Z</time>
      </trkpt>
      <trkpt lat="43.56337" lon="2.93496">
        <ele>182</ele>
        <time>2014-01-18T10:09:23Z</time>
      </trkpt>
      <trkpt lat="43.56339" lon="2.93498">
        <ele>182</ele>
        <time>2014-01-18T10:09:24Z</time>
      </trkpt>
      <trkpt lat="43.56341" lon="2.93499">
        <ele>183</ele>
        <time>2014-01-18T10:09:25Z</time>
      </trkpt>
      <trkpt lat="43.56342" lon="2.93501">
        <ele>179</ele>
        <time>2014-01-18T10:09:26Z</time>
      </trkpt>
      <trkpt lat="43.56344" lon="2.93502">
        <ele>179</ele>
        <time>2014-01-18T10:09:27Z</time>
      </trkpt>
      <trkpt lat="43.56346" lon="2.93504">
        <ele>179</ele>
        <time>2014-01-18T10:09:28Z</time>
      </trkpt>
      <trkpt lat="43.56348" lon="2.93506">
        <ele>178</ele>
        <time>2014-01-18T10:09:29Z</time>
      </trkpt>
      <trkpt lat="43.56349" lon="2.93507">
        <ele>178</ele>
        <time>2014-01-18T10:09:30Z</time>
      </trkpt>
      <trkpt lat="43.56358" lon="2.93517">
        <ele>177</ele>
        <time>2014-01-18T10:09:34Z</time>
      </trkpt>
      <trkpt lat="43.5636" lon="2.9352">
        <ele>176</ele>
        <time>2014-01-18T10:09:36Z</time>
      </trkpt>
      <trkpt lat="43.56361" lon="2.93521">
        <ele>176</ele>
        <time>2014-01-18T10:09:37Z</time>
      </trkpt>
      <trkpt lat="43.56362" lon="2.93521">
        <ele>176</ele>
        <time>2014-01-18T10:09:38Z</time>
      </trkpt>
      <trkpt lat="43.56363" lon="2.93523">
        <ele>176</ele>
        <time>2014-01-18T10:09:39Z</time>
      </trkpt>
      <trkpt lat="43.56365" lon="2.93524">
        <ele>176</ele>
        <time>2014-01-18T10:09:40Z</time>
      </trkpt>
      <trkpt lat="43.56366" lon="2.93525">
        <ele>176</ele>
        <time>2014-01-18T10:09:41Z</time>
      </trkpt>
      <trkpt lat="43.5637" lon="2.93531">
        <ele>176</ele>
        <time>2014-01-18T10:09:44Z</time>
      </trkpt>
      <trkpt lat="43.56376" lon="2.93538">
        <ele>175</ele>
        <time>2014-01-18T10:09:48Z</time>
      </trkpt>
      <trkpt lat="43.56377" lon="2.9354">
        <ele>175</ele>
        <time>2014-01-18T10:09:49Z</time>
      </trkpt>
      <trkpt lat="43.56378" lon="2.93542">
        <ele>175</ele>
        <time>2014-01-18T10:09:50Z</time>
      </trkpt>
      <trkpt lat="43.56379" lon="2.93544">
        <ele>175</ele>
        <time>2014-01-18T10:09:51Z</time>
      </trkpt>
      <trkpt lat="43.5638" lon="2.93545">
        <ele>175</ele>
        <time>2014-01-18T10:09:52Z</time>
      </trkpt>
      <trkpt lat="43.56381" lon="2.93548">
        <ele>174</ele>
        <time>2014-01-18T10:09:54Z</time>
      </trkpt>
      <trkpt lat="43.56382" lon="2.93549">
        <ele>174</ele>
        <time>2014-01-18T10:09:55Z</time>
      </trkpt>
      <trkpt lat="43.56383" lon="2.9355">
        <ele>174</ele>
        <time>2014-01-18T10:09:58Z</time>
      </trkpt>
      <trkpt lat="43.56384" lon="2.9355">
        <ele>174</ele>
        <time>2014-01-18T10:10:00Z</time>
      </trkpt>
      <trkpt lat="43.56385" lon="2.9355">
        <ele>174</ele>
        <time>2014-01-18T10:12:15Z</time>
      </trkpt>
      <trkpt lat="43.56386" lon="2.9355">
        <ele>174</ele>
        <time>2014-01-18T10:12:16Z</time>
      </trkpt>
      <trkpt lat="43.56387" lon="2.9355">
        <ele>174</ele>
        <time>2014-01-18T10:12:18Z</time>
      </trkpt>
      <trkpt lat="43.56389" lon="2.93561">
        <ele>173</ele>
        <time>2014-01-18T10:12:23Z</time>
      </trkpt>
      <trkpt lat="43.56393" lon="2.93568">
        <ele>173</ele>
        <time>2014-01-18T10:12:29Z</time>
      </trkpt>
      <trkpt lat="43.56397" lon="2.93573">
        <ele>173</ele>
        <time>2014-01-18T10:12:33Z</time>
      </trkpt>
      <trkpt lat="43.56407" lon="2.9359">
        <ele>168</ele>
        <time>2014-01-18T10:12:38Z</time>
      </trkpt>
      <trkpt lat="43.56413" lon="2.93597">
        <ele>168</ele>
        <time>2014-01-18T10:12:40Z</time>
      </trkpt>
      <trkpt lat="43.56422" lon="2.93611">
        <ele>168</ele>
        <time>2014-01-18T10:12:43Z</time>
      </trkpt>
      <trkpt lat="43.56426" lon="2.93634">
        <ele>167</ele>
        <time>2014-01-18T10:12:47Z</time>
      </trkpt>
      <trkpt lat="43.56431" lon="2.93642">
        <ele>167</ele>
        <time>2014-01-18T10:12:50Z</time>
      </trkpt>
      <trkpt lat="43.56432" lon="2.93642">
        <ele>167</ele>
        <time>2014-01-18T10:12:51Z</time>
      </trkpt>
      <trkpt lat="43.56434" lon="2.93648">
        <ele>167</ele>
        <time>2014-01-18T10:12:54Z</time>
      </trkpt>
      <trkpt lat="43.56449" lon="2.93682">
        <ele>165</ele>
        <time>2014-01-18T10:13:01Z</time>
      </trkpt>
      <trkpt lat="43.56456" lon="2.93699">
        <ele>165</ele>
        <time>2014-01-18T10:13:04Z</time>
      </trkpt>
      <trkpt lat="43.56461" lon="2.93716">
        <ele>165</ele>
        <time>2014-01-18T10:13:07Z</time>
      </trkpt>
      <trkpt lat="43.56468" lon="2.93742">
        <ele>165</ele>
        <time>2014-01-18T10:13:12Z</time>
      </trkpt>
      <trkpt lat="43.5647" lon="2.93748">
        <ele>165</ele>
        <time>2014-01-18T10:13:13Z</time>
      </trkpt>
      <trkpt lat="43.56475" lon="2.93771">
        <ele>166</ele>
        <time>2014-01-18T10:13:18Z</time>
      </trkpt>
      <trkpt lat="43.56477" lon="2.93785">
        <ele>167</ele>
        <time>2014-01-18T10:13:22Z</time>
      </trkpt>
      <trkpt lat="43.56478" lon="2.93787">
        <ele>167</ele>
        <time>2014-01-18T10:13:23Z</time>
      </trkpt>
      <trkpt lat="43.56479" lon="2.9379">
        <ele>167</ele>
        <time>2014-01-18T10:13:25Z</time>
      </trkpt>
      <trkpt lat="43.56479" lon="2.9379">
        <ele>167</ele>
        <time>2014-01-18T10:13:28Z</time>
      </trkpt>
      <trkpt lat="43.56479" lon="2.93792">
        <ele>167</ele>
        <time>2014-01-18T10:13:30Z</time>
      </trkpt>
      <trkpt lat="43.56481" lon="2.93797">
        <ele>168</ele>
        <time>2014-01-18T10:13:34Z</time>
      </trkpt>
      <trkpt lat="43.56481" lon="2.93798">
        <ele>168</ele>
        <time>2014-01-18T10:13:36Z</time>
      </trkpt>
      <trkpt lat="43.56482" lon="2.93802">
        <ele>168</ele>
        <time>2014-01-18T10:13:40Z</time>
      </trkpt>
      <trkpt lat="43.56486" lon="2.93827">
        <ele>171</ele>
        <time>2014-01-18T10:13:45Z</time>
      </trkpt>
      <trkpt lat="43.56493" lon="2.93874">
        <ele>171</ele>
        <time>2014-01-18T10:13:52Z</time>
      </trkpt>
      <trkpt lat="43.56504" lon="2.93932">
        <ele>177</ele>
        <time>2014-01-18T10:14:00Z</time>
      </trkpt>
      <trkpt lat="43.56518" lon="2.93982">
        <ele>172</ele>
        <time>2014-01-18T10:14:07Z</time>
      </trkpt>
      <trkpt lat="43.56527" lon="2.94016">
        <ele>167</ele>
        <time>2014-01-18T10:14:12Z</time>
      </trkpt>
      <trkpt lat="43.56531" lon="2.94029">
        <ele>167</ele>
        <time>2014-01-18T10:14:14Z</time>
      </trkpt>
      <trkpt lat="43.56536" lon="2.9405">
        <ele>167</ele>
        <time>2014-01-18T10:14:17Z</time>
      </trkpt>
      <trkpt lat="43.56542" lon="2.94076">
        <ele>166</ele>
        <time>2014-01-18T10:14:21Z</time>
      </trkpt>
      <trkpt lat="43.56543" lon="2.94083">
        <ele>166</ele>
        <time>2014-01-18T10:14:22Z</time>
      </trkpt>
      <trkpt lat="43.56545" lon="2.9409">
        <ele>167</ele>
        <time>2014-01-18T10:14:23Z</time>
      </trkpt>
      <trkpt lat="43.56554" lon="2.94142">
        <ele>169</ele>
        <time>2014-01-18T10:14:30Z</time>
      </trkpt>
      <trkpt lat="43.56555" lon="2.9415">
        <ele>169</ele>
        <time>2014-01-18T10:14:31Z</time>
      </trkpt>
      <trkpt lat="43.56552" lon="2.94157">
        <ele>169</ele>
        <time>2014-01-18T06:00:16Z</time>
      </trkpt>
      <trkpt lat="43.56557" lon="2.94161">
        <ele>169</ele>
        <time>2014-01-18T06:00:18Z</time>
      </trkpt>
      <trkpt lat="43.56562" lon="2.94163">
        <ele>170</ele>
        <time>2014-01-18T06:00:20Z</time>
      </trkpt>
      <trkpt lat="43.56573" lon="2.94171">
        <ele>172</ele>
        <time>2014-01-18T06:00:25Z</time>
      </trkpt>
      <trkpt lat="43.56576" lon="2.94174">
        <ele>172</ele>
        <time>2014-01-18T06:00:27Z</time>
      </trkpt>
      <trkpt lat="43.56577" lon="2.94176">
        <ele>172</ele>
        <time>2014-01-18T06:00:28Z</time>
      </trkpt>
      <trkpt lat="43.56579" lon="2.94177">
        <ele>172</ele>
        <time>2014-01-18T06:00:29Z</time>
      </trkpt>
      <trkpt lat="43.5658" lon="2.94179">
        <ele>172</ele>
        <time>2014-01-18T06:00:30Z</time>
      </trkpt>
      <trkpt lat="43.56581" lon="2.94182">
        <ele>172</ele>
        <time>2014-01-18T06:00:31Z</time>
      </trkpt>
      <trkpt lat="43.56578" lon="2.94188">
        <ele>173</ele>
        <time>2014-01-18T06:00:34Z</time>
      </trkpt>
      <trkpt lat="43.56577" lon="2.9419">
        <ele>173</ele>
        <time>2014-01-18T06:00:35Z</time>
      </trkpt>
      <trkpt lat="43.56576" lon="2.94192">
        <ele>173</ele>
        <time>2014-01-18T06:00:36Z</time>
      </trkpt>
      <trkpt lat="43.56575" lon="2.94194">
        <ele>173</ele>
        <time>2014-01-18T06:00:37Z</time>
      </trkpt>
      <trkpt lat="43.56573" lon="2.94196">
        <ele>173</ele>
        <time>2014-01-18T06:00:38Z</time>
      </trkpt>
      <trkpt lat="43.56572" lon="2.94198">
        <ele>173</ele>
        <time>2014-01-18T06:00:39Z</time>
      </trkpt>
      <trkpt lat="43.56571" lon="2.94201">
        <ele>173</ele>
        <time>2014-01-18T06:00:40Z</time>
      </trkpt>
      <trkpt lat="43.5657" lon="2.94203">
        <ele>173</ele>
        <time>2014-01-18T06:00:41Z</time>
      </trkpt>
      <trkpt lat="43.5657" lon="2.94205">
        <ele>173</ele>
        <time>2014-01-18T06:00:42Z</time>
      </trkpt>
      <trkpt lat="43.5657" lon="2.94207">
        <ele>173</ele>
        <time>2014-01-18T06:00:43Z</time>
      </trkpt>
      <trkpt lat="43.56572" lon="2.94209">
        <ele>173</ele>
        <time>2014-01-18T06:00:45Z</time>
      </trkpt>
      <trkpt lat="43.56587" lon="2.94415">
        <ele>178</ele>
      </trkpt>
      <trkpt lat="43.56686" lon="2.9469">
        <ele>183</ele>
      </trkpt>
      <trkpt lat="43.56711" lon="2.94867">
        <ele>178</ele>
      </trkpt>
      <trkpt lat="43.56661" lon="2.95126">
        <ele>170</ele>
      </trkpt>
      <trkpt lat="43.56673" lon="2.95645">
        <ele>185</ele>
      </trkpt>
      <trkpt lat="43.56672" lon="2.95964">
        <ele>187</ele>
      </trkpt>
      <trkpt lat="43.56638" lon="2.95971">
        <ele>184</ele>
        <time>2017-03-30T11:00:48Z</time>
      </trkpt>
      <trkpt lat="43.56616" lon="2.95969">
        <ele>183</ele>
        <time>2017-03-30T11:02:48Z</time>
      </trkpt>
      <trkpt lat="43.56595" lon="2.95971">
        <ele>183</ele>
        <time>2017-03-30T11:04:48Z</time>
      </trkpt>
      <trkpt lat="43.56579" lon="2.95975">
        <ele>183</ele>
        <time>2017-03-30T11:06:48Z</time>
      </trkpt>
      <trkpt lat="43.5657" lon="2.95981">
        <ele>184</ele>
        <time>2017-03-30T11:08:48Z</time>
      </trkpt>
      <trkpt lat="43.56563" lon="2.95989">
        <ele>184</ele>
        <time>2017-03-30T11:10:48Z</time>
      </trkpt>
      <trkpt lat="43.56557" lon="2.95995">
        <ele>184</ele>
        <time>2017-03-30T11:12:48Z</time>
      </trkpt>
      <trkpt lat="43.56551" lon="2.96007">
        <ele>188</ele>
        <time>2017-03-30T11:14:48Z</time>
      </trkpt>
      <trkpt lat="43.56548" lon="2.96013">
        <ele>188</ele>
        <time>2017-03-30T11:16:48Z</time>
      </trkpt>
      <trkpt lat="43.5654" lon="2.96023">
        <ele>189</ele>
        <time>2017-03-30T11:18:48Z</time>
      </trkpt>
      <trkpt lat="43.56538" lon="2.96025">
        <ele>189</ele>
        <time>2017-03-30T11:20:48Z</time>
      </trkpt>
      <trkpt lat="43.56533" lon="2.96034">
        <ele>189</ele>
        <time>2017-03-30T11:22:48Z</time>
      </trkpt>
      <trkpt lat="43.56531" lon="2.96038">
        <ele>190</ele>
        <time>2017-03-30T11:24:48Z</time>
      </trkpt>
      <trkpt lat="43.56528" lon="2.96042">
        <ele>190</ele>
        <time>2017-03-30T11:26:48Z</time>
      </trkpt>
      <trkpt lat="43.56519" lon="2.96052">
        <ele>191</ele>
        <time>2017-03-30T11:28:48Z</time>
      </trkpt>
      <trkpt lat="43.56502" lon="2.96067">
        <ele>193</ele>
        <time>2017-03-30T11:30:48Z</time>
      </trkpt>
      <trkpt lat="43.56488" lon="2.96082">
        <ele>196</ele>
        <time>2017-03-30T11:32:48Z</time>
      </trkpt>
      <trkpt lat="43.5648" lon="2.96098">
        <ele>197</ele>
        <time>2017-03-30T11:34:48Z</time>
      </trkpt>
      <trkpt lat="43.56456" lon="2.96148">
        <ele>198</ele>
        <time>2017-03-30T11:36:48Z</time>
      </trkpt>
      <trkpt lat="43.5644" lon="2.96169">
        <ele>198</ele>
        <time>2017-03-30T11:38:48Z</time>
      </trkpt>
      <trkpt lat="43.56422" lon="2.96194">
        <ele>197</ele>
        <time>2017-03-30T11:40:48Z</time>
      </trkpt>
      <trkpt lat="43.56408" lon="2.96224">
        <ele>196</ele>
        <time>2017-03-30T11:42:48Z</time>
      </trkpt>
      <trkpt lat="43.56381" lon="2.96282">
        <ele>193</ele>
        <time>2017-03-30T11:44:48Z</time>
      </trkpt>
      <trkpt lat="43.56349" lon="2.96343">
        <ele>191</ele>
        <time>2017-03-30T11:46:48Z</time>
      </trkpt>
      <trkpt lat="43.56335" lon="2.96366">
        <ele>191</ele>
        <time>2017-03-30T11:48:48Z</time>
      </trkpt>
      <trkpt lat="43.56299" lon="2.96417">
        <ele>184</ele>
        <time>2017-03-30T11:50:48Z</time>
      </trkpt>
      <trkpt lat="43.56282" lon="2.9646">
        <ele>182</ele>
        <time>2017-03-30T11:52:48Z</time>
      </trkpt>
      <trkpt lat="43.5626" lon="2.9653">
        <ele>180</ele>
        <time>2017-03-30T11:54:48Z</time>
      </trkpt>
      <trkpt lat="43.56238" lon="2.96577">
        <ele>171</ele>
        <time>2017-03-30T11:56:48Z</time>
      </trkpt>
      <trkpt lat="43.5621" lon="2.96618">
        <ele>168</ele>
        <time>2017-03-30T11:58:48Z</time>
      </trkpt>
      <trkpt lat="43.56187" lon="2.96673">
        <ele>165</ele>
        <time>2017-03-30T12:00:48Z</time>
      </trkpt>
      <trkpt lat="43.56176" lon="2.96703">
        <ele>165</ele>
        <time>2017-03-30T12:02:48Z</time>
      </trkpt>
      <trkpt lat="43.56168" lon="2.96718">
        <ele>165</ele>
        <time>2017-03-30T12:04:48Z</time>
      </trkpt>
      <trkpt lat="43.56171" lon="2.96736">
        <ele>164</ele>
        <time>2017-03-30T12:06:48Z</time>
      </trkpt>
      <trkpt lat="43.56193" lon="2.96756">
        <ele>163</ele>
        <time>2017-03-30T12:08:48Z</time>
      </trkpt>
      <trkpt lat="43.56212" lon="2.96782">
        <ele>163</ele>
        <time>2017-03-30T12:10:48Z</time>
      </trkpt>
      <trkpt lat="43.56246" lon="2.96846">
        <ele>158</ele>
        <time>2017-03-30T12:12:48Z</time>
      </trkpt>
      <trkpt lat="43.56272" lon="2.96866">
        <ele>162</ele>
        <time>2017-03-30T12:14:48Z</time>
      </trkpt>
      <trkpt lat="43.56304" lon="2.96887">
        <ele>163</ele>
        <time>2017-03-30T12:16:48Z</time>
      </trkpt>
      <trkpt lat="43.56325" lon="2.96905">
        <ele>163</ele>
        <time>2017-03-30T12:18:48Z</time>
      </trkpt>
      <trkpt lat="43.56335" lon="2.96915">
        <ele>165</ele>
        <time>2017-03-30T12:20:48Z</time>
      </trkpt>
      <trkpt lat="43.56358" lon="2.96952">
        <ele>167</ele>
        <time>2017-03-30T12:22:48Z</time>
      </trkpt>
      <trkpt lat="43.56364" lon="2.96968">
        <ele>166</ele>
        <time>2017-03-30T12:24:48Z</time>
      </trkpt>
      <trkpt lat="43.56378" lon="2.96995">
        <ele>166</ele>
        <time>2017-03-30T12:26:48Z</time>
      </trkpt>
      <trkpt lat="43.56392" lon="2.97022">
        <ele>158</ele>
        <time>2017-03-30T12:28:48Z</time>
      </trkpt>
      <trkpt lat="43.56399" lon="2.97031">
        <ele>158</ele>
        <time>2017-03-30T12:30:48Z</time>
      </trkpt>
      <trkpt lat="43.56409" lon="2.97044">
        <ele>156</ele>
        <time>2017-03-30T12:32:48Z</time>
      </trkpt>
      <trkpt lat="43.5643" lon="2.97061">
        <ele>164</ele>
        <time>2017-03-30T12:34:48Z</time>
      </trkpt>
      <trkpt lat="43.56437" lon="2.97068">
        <ele>163</ele>
        <time>2017-03-30T12:36:48Z</time>
      </trkpt>
      <trkpt lat="43.56447" lon="2.97085">
        <ele>156</ele>
        <time>2017-03-30T12:38:48Z</time>
      </trkpt>
      <trkpt lat="43.56456" lon="2.97104">
        <ele>156</ele>
        <time>2017-03-30T12:40:48Z</time>
      </trkpt>
      <trkpt lat="43.56461" lon="2.97112">
        <ele>156</ele>
        <time>2017-03-30T12:42:48Z</time>
      </trkpt>
      <trkpt lat="43.5647" lon="2.97125">
        <ele>155</ele>
        <time>2017-03-30T12:44:48Z</time>
      </trkpt>
      <trkpt lat="43.56479" lon="2.97137">
        <ele>155</ele>
        <time>2017-03-30T12:46:48Z</time>
      </trkpt>
      <trkpt lat="43.5649" lon="2.97147">
        <ele>155</ele>
        <time>2017-03-30T12:48:48Z</time>
      </trkpt>
      <trkpt lat="43.56514" lon="2.97156">
        <ele>159</ele>
        <time>2017-03-30T12:50:48Z</time>
      </trkpt>
      <trkpt lat="43.56522" lon="2.97156">
        <ele>160</ele>
        <time>2017-03-30T12:52:48Z</time>
      </trkpt>
      <trkpt lat="43.56548" lon="2.97161">
        <ele>162</ele>
        <time>2017-03-30T12:54:48Z</time>
      </trkpt>
      <trkpt lat="43.56559" lon="2.97174">
        <ele>158</ele>
        <time>2017-03-30T12:56:48Z</time>
      </trkpt>
      <trkpt lat="43.56557" lon="2.97184">
        <ele>157</ele>
        <time>2017-03-30T12:58:48Z</time>
      </trkpt>
      <trkpt lat="43.56552" lon="2.97208">
        <ele>156</ele>
        <time>2017-03-30T13:00:48Z</time>
      </trkpt>
      <trkpt lat="43.56543" lon="2.97229">
        <ele>155</ele>
        <time>2017-03-30T13:02:48Z</time>
      </trkpt>
      <trkpt lat="43.56542" lon="2.97251">
        <ele>152</ele>
        <time>2017-03-30T13:04:48Z</time>
      </trkpt>
      <trkpt lat="43.56541" lon="2.9726">
        <ele>152</ele>
        <time>2017-03-30T13:06:48Z</time>
      </trkpt>
      <trkpt lat="43.56536" lon="2.97299">
        <ele>151</ele>
        <time>2017-03-30T13:08:48Z</time>
      </trkpt>
      <trkpt lat="43.56542" lon="2.97333">
        <ele>151</ele>
        <time>2017-03-30T13:10:48Z</time>
      </trkpt>
      <trkpt lat="43.56545" lon="2.97369">
        <ele>150</ele>
        <time>2017-03-30T13:12:48Z</time>
      </trkpt>
      <trkpt lat="43.56535" lon="2.97395">
        <ele>149</ele>
        <time>2017-03-30T13:14:48Z</time>
      </trkpt>
      <trkpt lat="43.56504" lon="2.97423">
        <ele>145</ele>
        <time>2017-03-30T13:16:48Z</time>
      </trkpt>
      <trkpt lat="43.5645" lon="2.97472">
        <ele>138</ele>
        <time>2017-03-30T13:18:48Z</time>
      </trkpt>
      <trkpt lat="43.56414" lon="2.97507">
        <ele>141</ele>
        <time>2017-03-30T13:20:48Z</time>
      </trkpt>
      <trkpt lat="43.56379" lon="2.97537">
        <ele>148</ele>
        <time>2017-03-30T13:22:48Z</time>
      </trkpt>
      <trkpt lat="43.56337" lon="2.97545">
        <ele>150</ele>
        <time>2017-03-30T13:24:48Z</time>
      </trkpt>
      <trkpt lat="43.56335" lon="2.97551">
        <ele>150</ele>
        <time>2017-03-30T13:26:48Z</time>
      </trkpt>
      <trkpt lat="43.56317" lon="2.97572">
        <ele>150</ele>
        <time>2017-03-30T13:28:48Z</time>
      </trkpt>
      <trkpt lat="43.56308" lon="2.97596">
        <ele>156</ele>
        <time>2017-03-30T13:30:48Z</time>
      </trkpt>
      <trkpt lat="43.56305" lon="2.9761">
        <ele>157</ele>
        <time>2017-03-30T13:32:48Z</time>
      </trkpt>
      <trkpt lat="43.56302" lon="2.97629">
        <ele>158</ele>
        <time>2017-03-30T13:34:48Z</time>
      </trkpt>
      <trkpt lat="43.56298" lon="2.9764">
        <ele>159</ele>
        <time>2017-03-30T13:36:48Z</time>
      </trkpt>
      <trkpt lat="43.56291" lon="2.97664">
        <ele>159</ele>
        <time>2017-03-30T13:38:48Z</time>
      </trkpt>
      <trkpt lat="43.56281" lon="2.97685">
        <ele>166</ele>
        <time>2017-03-30T13:40:48Z</time>
      </trkpt>
      <trkpt lat="43.56268" lon="2.97704">
        <ele>166</ele>
        <time>2017-03-30T13:42:48Z</time>
      </trkpt>
      <trkpt lat="43.56264" lon="2.97722">
        <ele>166</ele>
        <time>2017-03-30T13:44:48Z</time>
      </trkpt>
      <trkpt lat="43.5626" lon="2.97741">
        <ele>165</ele>
        <time>2017-03-30T13:46:48Z</time>
      </trkpt>
      <trkpt lat="43.56249" lon="2.97771">
        <ele>161</ele>
        <time>2017-03-30T13:48:48Z</time>
      </trkpt>
      <trkpt lat="43.5624" lon="2.9779">
        <ele>162</ele>
        <time>2017-03-30T13:50:48Z</time>
      </trkpt>
      <trkpt lat="43.56227" lon="2.97814">
        <ele>163</ele>
        <time>2017-03-30T13:52:48Z</time>
      </trkpt>
      <trkpt lat="43.56219" lon="2.97832">
        <ele>163</ele>
        <time>2017-03-30T13:54:48Z</time>
      </trkpt>
      <trkpt lat="43.56214" lon="2.97845">
        <ele>167</ele>
        <time>2017-03-30T13:56:48Z</time>
      </trkpt>
      <trkpt lat="43.56208" lon="2.97874">
        <ele>167</ele>
        <time>2017-03-30T13:58:48Z</time>
      </trkpt>
      <trkpt lat="43.56189" lon="2.97936">
        <ele>168</ele>
        <time>2017-03-30T14:00:48Z</time>
      </trkpt>
      <trkpt lat="43.56186" lon="2.97982">
        <ele>169</ele>
        <time>2017-03-30T14:02:48Z</time>
      </trkpt>
      <trkpt lat="43.5619" lon="2.98014">
        <ele>172</ele>
        <time>2017-03-30T14:04:48Z</time>
      </trkpt>
      <trkpt lat="43.56194" lon="2.98032">
        <ele>174</ele>
        <time>2017-03-30T14:06:48Z</time>
      </trkpt>
      <trkpt lat="43.56198" lon="2.98047">
        <ele>175</ele>
        <time>2017-03-30T14:08:48Z</time>
      </trkpt>
      <trkpt lat="43.56205" lon="2.9807">
        <ele>176</ele>
        <time>2017-03-30T14:10:48Z</time>
      </trkpt>
      <trkpt lat="43.56215" lon="2.98089">
        <ele>179</ele>
        <time>2017-03-30T14:12:48Z</time>
      </trkpt>
      <trkpt lat="43.56222" lon="2.98103">
        <ele>180</ele>
        <time>2017-03-30T14:14:48Z</time>
      </trkpt>
      <trkpt lat="43.56228" lon="2.9812">
        <ele>180</ele>
        <time>2017-03-30T14:16:48Z</time>
      </trkpt>
      <trkpt lat="43.56235" lon="2.98135">
        <ele>180</ele>
        <time>2017-03-30T14:18:48Z</time>
      </trkpt>
      <trkpt lat="43.56242" lon="2.98147">
        <ele>181</ele>
        <time>2017-03-30T14:20:48Z</time>
      </trkpt>
      <trkpt lat="43.56249" lon="2.98157">
        <ele>182</ele>
        <time>2017-03-30T14:22:48Z</time>
      </trkpt>
      <trkpt lat="43.56263" lon="2.98176">
        <ele>191</ele>
        <time>2017-03-30T14:24:48Z</time>
      </trkpt>
      <trkpt lat="43.56267" lon="2.98187">
        <ele>194</ele>
        <time>2017-03-30T14:26:48Z</time>
      </trkpt>
      <trkpt lat="43.5627" lon="2.98206">
        <ele>196</ele>
        <time>2017-03-30T14:28:48Z</time>
      </trkpt>
      <trkpt lat="43.56273" lon="2.98218">
        <ele>197</ele>
        <time>2017-03-30T14:30:48Z</time>
      </trkpt>
      <trkpt lat="43.56275" lon="2.98235">
        <ele>197</ele>
        <time>2017-03-30T14:32:48Z</time>
      </trkpt>
      <trkpt lat="43.56278" lon="2.98248">
        <ele>197</ele>
        <time>2017-03-30T14:34:48Z</time>
      </trkpt>
      <trkpt lat="43.5628" lon="2.98254">
        <ele>201</ele>
        <time>2017-03-30T14:36:48Z</time>
      </trkpt>
      <trkpt lat="43.56285" lon="2.98284">
        <ele>204</ele>
        <time>2017-03-30T14:38:48Z</time>
      </trkpt>
      <trkpt lat="43.56286" lon="2.98299">
        <ele>205</ele>
        <time>2017-03-30T14:40:48Z</time>
      </trkpt>
      <trkpt lat="43.5629" lon="2.98325">
        <ele>206</ele>
        <time>2017-03-30T14:42:48Z</time>
      </trkpt>
      <trkpt lat="43.56291" lon="2.98335">
        <ele>211</ele>
        <time>2017-03-30T14:44:48Z</time>
      </trkpt>
      <trkpt lat="43.56294" lon="2.98349">
        <ele>212</ele>
        <time>2017-03-30T14:46:48Z</time>
      </trkpt>
      <trkpt lat="43.56294" lon="2.98362">
        <ele>212</ele>
        <time>2017-03-30T14:48:48Z</time>
      </trkpt>
      <trkpt lat="43.56293" lon="2.98372">
        <ele>212</ele>
        <time>2017-03-30T14:50:48Z</time>
      </trkpt>
      <trkpt lat="43.56295" lon="2.98386">
        <ele>213</ele>
        <time>2017-03-30T14:52:48Z</time>
      </trkpt>
      <trkpt lat="43.56297" lon="2.98399">
        <ele>213</ele>
        <time>2017-03-30T14:54:48Z</time>
      </trkpt>
      <trkpt lat="43.563" lon="2.98413">
        <ele>214</ele>
        <time>2017-03-30T14:56:48Z</time>
      </trkpt>
      <trkpt lat="43.563" lon="2.98425">
        <ele>217</ele>
        <time>2017-03-30T14:58:48Z</time>
      </trkpt>
      <trkpt lat="43.563" lon="2.98435">
        <ele>218</ele>
        <time>2017-03-30T15:00:48Z</time>
      </trkpt>
      <trkpt lat="43.56297" lon="2.98452">
        <ele>218</ele>
        <time>2017-03-30T15:02:48Z</time>
      </trkpt>
      <trkpt lat="43.56297" lon="2.98466">
        <ele>218</ele>
        <time>2017-03-30T15:04:48Z</time>
      </trkpt>
      <trkpt lat="43.56295" lon="2.98481">
        <ele>219</ele>
        <time>2017-03-30T15:06:48Z</time>
      </trkpt>
      <trkpt lat="43.56295" lon="2.98484">
        <ele>219</ele>
        <time>2017-03-30T15:08:48Z</time>
      </trkpt>
      <trkpt lat="43.56297" lon="2.98493">
        <ele>219</ele>
        <time>2017-03-30T15:10:48Z</time>
      </trkpt>
      <trkpt lat="43.56296" lon="2.98498">
        <ele>219</ele>
        <time>2017-03-30T15:12:48Z</time>
      </trkpt>
      <trkpt lat="43.56294" lon="2.98501">
        <ele>221</ele>
        <time>2017-03-30T15:14:48Z</time>
      </trkpt>
      <trkpt lat="43.5629" lon="2.98516">
        <ele>221</ele>
        <time>2017-03-30T15:16:48Z</time>
      </trkpt>
      <trkpt lat="43.56283" lon="2.98526">
        <ele>222</ele>
        <time>2017-03-30T15:18:48Z</time>
      </trkpt>
      <trkpt lat="43.56275" lon="2.98538">
        <ele>223</ele>
        <time>2017-03-30T15:20:48Z</time>
      </trkpt>
      <trkpt lat="43.56273" lon="2.98546">
        <ele>223</ele>
        <time>2017-03-30T15:22:48Z</time>
      </trkpt>
      <trkpt lat="43.56266" lon="2.9854">
        <ele>224</ele>
        <time>2017-03-30T15:24:48Z</time>
      </trkpt>
      <trkpt lat="43.56258" lon="2.98525">
        <ele>224</ele>
        <time>2017-03-30T15:26:48Z</time>
      </trkpt>
      <trkpt lat="43.56253" lon="2.9851">
        <ele>226</ele>
        <time>2017-03-30T15:28:48Z</time>
      </trkpt>
      <trkpt lat="43.5625" lon="2.98497">
        <ele>227</ele>
        <time>2017-03-30T15:30:48Z</time>
      </trkpt>
      <trkpt lat="43.56246" lon="2.98489">
        <ele>229</ele>
        <time>2017-03-30T15:32:48Z</time>
      </trkpt>
      <trkpt lat="43.56239" lon="2.98478">
        <ele>230</ele>
        <time>2017-03-30T15:34:48Z</time>
      </trkpt>
      <trkpt lat="43.56227" lon="2.98465">
        <ele>230</ele>
        <time>2017-03-30T15:36:48Z</time>
      </trkpt>
      <trkpt lat="43.56216" lon="2.98455">
        <ele>230</ele>
        <time>2017-03-30T15:38:48Z</time>
      </trkpt>
      <trkpt lat="43.56205" lon="2.98451">
        <ele>231</ele>
        <time>2017-03-30T15:40:48Z</time>
      </trkpt>
      <trkpt lat="43.56202" lon="2.9845">
        <ele>231</ele>
        <time>2017-03-30T15:42:48Z</time>
      </trkpt>
      <trkpt lat="43.56191" lon="2.98448">
        <ele>232</ele>
        <time>2017-03-30T15:44:48Z</time>
      </trkpt>
      <trkpt lat="43.56182" lon="2.98448">
        <ele>233</ele>
        <time>2017-03-30T15:46:48Z</time>
      </trkpt>
      <trkpt lat="43.56171" lon="2.98447">
        <ele>233</ele>
        <time>2017-03-30T15:48:48Z</time>
      </trkpt>
      <trkpt lat="43.56156" lon="2.98447">
        <ele>240</ele>
        <time>2017-03-30T15:50:48Z</time>
      </trkpt>
      <trkpt lat="43.56141" lon="2.98449">
        <ele>241</ele>
        <time>2017-03-30T15:52:48Z</time>
      </trkpt>
      <trkpt lat="43.56122" lon="2.98453">
        <ele>242</ele>
        <time>2017-03-30T15:54:48Z</time>
      </trkpt>
      <trkpt lat="43.56105" lon="2.98456">
        <ele>243</ele>
        <time>2017-03-30T15:56:48Z</time>
      </trkpt>
      <trkpt lat="43.56092" lon="2.98458">
        <ele>243</ele>
        <time>2017-03-30T15:58:48Z</time>
      </trkpt>
      <trkpt lat="43.56079" lon="2.98458">
        <ele>248</ele>
        <time>2017-03-30T16:00:48Z</time>
      </trkpt>
      <trkpt lat="43.56068" lon="2.98456">
        <ele>248</ele>
        <time>2017-03-30T16:02:48Z</time>
      </trkpt>
      <trkpt lat="43.56054" lon="2.98453">
        <ele>249</ele>
        <time>2017-03-30T16:04:48Z</time>
      </trkpt>
      <trkpt lat="43.56041" lon="2.98451">
        <ele>249</ele>
        <time>2017-03-30T16:06:48Z</time>
      </trkpt>
      <trkpt lat="43.5603" lon="2.98452">
        <ele>250</ele>
        <time>2017-03-30T16:08:48Z</time>
      </trkpt>
      <trkpt lat="43.56011" lon="2.98452">
        <ele>250</ele>
        <time>2017-03-30T16:10:48Z</time>
      </trkpt>
      <trkpt lat="43.55995" lon="2.98451">
        <ele>254</ele>
        <time>2017-03-30T16:12:48Z</time>
      </trkpt>
      <trkpt lat="43.55981" lon="2.98449">
        <ele>254</ele>
        <time>2017-03-30T16:14:48Z</time>
      </trkpt>
      <trkpt lat="43.55965" lon="2.98446">
        <ele>254</ele>
        <time>2017-03-30T16:16:48Z</time>
      </trkpt>
      <trkpt lat="43.55947" lon="2.98446">
        <ele>254</ele>
        <time>2017-03-30T16:18:48Z</time>
      </trkpt>
      <trkpt lat="43.55936" lon="2.98448">
        <ele>254</ele>
        <time>2017-03-30T16:20:48Z</time>
      </trkpt>
      <trkpt lat="43.55922" lon="2.98453">
        <ele>256</ele>
        <time>2017-03-30T16:22:48Z</time>
      </trkpt>
      <trkpt lat="43.55907" lon="2.98458">
        <ele>251</ele>
        <time>2017-03-30T16:24:48Z</time>
      </trkpt>
      <trkpt lat="43.5589" lon="2.9846">
        <ele>250</ele>
        <time>2017-03-30T16:26:48Z</time>
      </trkpt>
      <trkpt lat="43.55889" lon="2.98461">
        <ele>250</ele>
        <time>2017-03-30T16:28:48Z</time>
      </trkpt>
      <trkpt lat="43.55887" lon="2.98469">
        <ele>252</ele>
        <time>2017-03-30T16:30:48Z</time>
      </trkpt>
      <trkpt lat="43.5589" lon="2.9847">
        <ele>252</ele>
        <time>2017-03-30T16:32:48Z</time>
      </trkpt>
      <trkpt lat="43.55901" lon="2.98468">
        <ele>254</ele>
        <time>2017-03-30T16:34:48Z</time>
      </trkpt>
      <trkpt lat="43.55911" lon="2.98469">
        <ele>255</ele>
        <time>2017-03-30T16:36:48Z</time>
      </trkpt>
      <trkpt lat="43.55927" lon="2.98472">
        <ele>262</ele>
        <time>2017-03-30T16:38:48Z</time>
      </trkpt>
      <trkpt lat="43.55939" lon="2.98477">
        <ele>262</ele>
        <time>2017-03-30T16:40:48Z</time>
      </trkpt>
      <trkpt lat="43.55951" lon="2.98481">
        <ele>262</ele>
        <time>2017-03-30T16:42:48Z</time>
      </trkpt>
      <trkpt lat="43.55962" lon="2.9849">
        <ele>263</ele>
        <time>2017-03-30T16:44:48Z</time>
      </trkpt>
      <trkpt lat="43.55988" lon="2.98507">
        <ele>281</ele>
        <time>2017-03-30T16:46:48Z</time>
      </trkpt>
      <trkpt lat="43.56003" lon="2.98515">
        <ele>278</ele>
        <time>2017-03-30T16:48:48Z</time>
      </trkpt>
      <trkpt lat="43.56015" lon="2.98521">
        <ele>279</ele>
        <time>2017-03-30T16:50:48Z</time>
      </trkpt>
      <trkpt lat="43.56026" lon="2.98529">
        <ele>280</ele>
        <time>2017-03-30T16:52:48Z</time>
      </trkpt>
      <trkpt lat="43.56046" lon="2.98544">
        <ele>280</ele>
        <time>2017-03-30T16:54:48Z</time>
      </trkpt>
      <trkpt lat="43.56055" lon="2.98553">
        <ele>281</ele>
        <time>2017-03-30T16:56:48Z</time>
      </trkpt>
      <trkpt lat="43.56067" lon="2.98563">
        <ele>282</ele>
        <time>2017-03-30T16:58:48Z</time>
      </trkpt>
      <trkpt lat="43.56081" lon="2.9858">
        <ele>284</ele>
        <time>2017-03-30T17:00:48Z</time>
      </trkpt>
      <trkpt lat="43.56087" lon="2.98587">
        <ele>284</ele>
        <time>2017-03-30T17:02:48Z</time>
      </trkpt>
      <trkpt lat="43.56102" lon="2.98605">
        <ele>283</ele>
        <time>2017-03-30T17:04:48Z</time>
      </trkpt>
      <trkpt lat="43.56109" lon="2.98619">
        <ele>283</ele>
        <time>2017-03-30T17:06:48Z</time>
      </trkpt>
      <trkpt lat="43.56116" lon="2.98651">
        <ele>285</ele>
        <time>2017-03-30T17:08:48Z</time>
      </trkpt>
      <trkpt lat="43.56119" lon="2.98663">
        <ele>286</ele>
        <time>2017-03-30T17:10:48Z</time>
      </trkpt>
      <trkpt lat="43.56123" lon="2.98679">
        <ele>293</ele>
        <time>2017-03-30T17:12:48Z</time>
      </trkpt>
      <trkpt lat="43.56126" lon="2.98693">
        <ele>293</ele>
        <time>2017-03-30T17:14:48Z</time>
      </trkpt>
      <trkpt lat="43.56121" lon="2.98702">
        <ele>295</ele>
        <time>2017-03-30T17:16:48Z</time>
      </trkpt>
      <trkpt lat="43.56116" lon="2.98696">
        <ele>296</ele>
        <time>2017-03-30T17:18:48Z</time>
      </trkpt>
      <trkpt lat="43.56116" lon="2.98689">
        <ele>295</ele>
        <time>2017-03-30T17:20:48Z</time>
      </trkpt>
      <trkpt lat="43.56105" lon="2.98665">
        <ele>291</ele>
        <time>2017-03-30T17:22:48Z</time>
      </trkpt>
      <trkpt lat="43.56098" lon="2.98649">
        <ele>290</ele>
        <time>2017-03-30T17:24:48Z</time>
      </trkpt>
      <trkpt lat="43.56085" lon="2.9863">
        <ele>287</ele>
        <time>2017-03-30T17:26:48Z</time>
      </trkpt>
      <trkpt lat="43.56075" lon="2.98622">
        <ele>302</ele>
        <time>2017-03-30T17:28:48Z</time>
      </trkpt>
      <trkpt lat="43.56062" lon="2.98612">
        <ele>302</ele>
        <time>2017-03-30T17:30:48Z</time>
      </trkpt>
      <trkpt lat="43.56049" lon="2.98606">
        <ele>303</ele>
        <time>2017-03-30T17:32:48Z</time>
      </trkpt>
      <trkpt lat="43.56038" lon="2.98603">
        <ele>304</ele>
        <time>2017-03-30T17:34:48Z</time>
      </trkpt>
      <trkpt lat="43.56028" lon="2.98601">
        <ele>305</ele>
        <time>2017-03-30T17:36:48Z</time>
      </trkpt>
      <trkpt lat="43.56015" lon="2.986">
        <ele>306</ele>
        <time>2017-03-30T17:38:48Z</time>
      </trkpt>
      <trkpt lat="43.56005" lon="2.98597">
        <ele>306</ele>
        <time>2017-03-30T17:40:48Z</time>
      </trkpt>
      <trkpt lat="43.55993" lon="2.98595">
        <ele>310</ele>
        <time>2017-03-30T17:42:48Z</time>
      </trkpt>
      <trkpt lat="43.55981" lon="2.98593">
        <ele>312</ele>
        <time>2017-03-30T17:44:48Z</time>
      </trkpt>
      <trkpt lat="43.5597" lon="2.98593">
        <ele>314</ele>
        <time>2017-03-30T17:46:48Z</time>
      </trkpt>
      <trkpt lat="43.55953" lon="2.98594">
        <ele>314</ele>
        <time>2017-03-30T17:48:48Z</time>
      </trkpt>
      <trkpt lat="43.55936" lon="2.98593">
        <ele>313</ele>
        <time>2017-03-30T17:50:48Z</time>
      </trkpt>
      <trkpt lat="43.55934" lon="2.98595">
        <ele>313</ele>
        <time>2017-03-30T17:52:48Z</time>
      </trkpt>
      <trkpt lat="43.55936" lon="2.98602">
        <ele>314</ele>
        <time>2017-03-30T17:54:48Z</time>
      </trkpt>
      <trkpt lat="43.55949" lon="2.98604">
        <ele>316</ele>
        <time>2017-03-30T17:56:48Z</time>
      </trkpt>
      <trkpt lat="43.5596" lon="2.98609">
        <ele>316</ele>
        <time>2017-03-30T17:58:48Z</time>
      </trkpt>
      <trkpt lat="43.55976" lon="2.98616">
        <ele>317</ele>
        <time>2017-03-30T18:00:48Z</time>
      </trkpt>
      <trkpt lat="43.55989" lon="2.98623">
        <ele>319</ele>
        <time>2017-03-30T18:02:48Z</time>
      </trkpt>
      <trkpt lat="43.56003" lon="2.98634">
        <ele>314</ele>
        <time>2017-03-30T18:04:48Z</time>
      </trkpt>
      <trkpt lat="43.56019" lon="2.98647">
        <ele>316</ele>
        <time>2017-03-30T18:06:48Z</time>
      </trkpt>
      <trkpt lat="43.56028" lon="2.98656">
        <ele>315</ele>
        <time>2017-03-30T18:08:48Z</time>
      </trkpt>
      <trkpt lat="43.56035" lon="2.98665">
        <ele>314</ele>
        <time>2017-03-30T18:10:48Z</time>
      </trkpt>
      <trkpt lat="43.56042" lon="2.9868">
        <ele>326</ele>
        <time>2017-03-30T18:12:48Z</time>
      </trkpt>
      <trkpt lat="43.56047" lon="2.98689">
        <ele>325</ele>
        <time>2017-03-30T18:14:48Z</time>
      </trkpt>
      <trkpt lat="43.56052" lon="2.98701">
        <ele>326</ele>
        <time>2017-03-30T18:16:48Z</time>
      </trkpt>
      <trkpt lat="43.56058" lon="2.98716">
        <ele>326</ele>
        <time>2017-03-30T18:18:48Z</time>
      </trkpt>
      <trkpt lat="43.56061" lon="2.98733">
        <ele>326</ele>
        <time>2017-03-30T18:20:48Z</time>
      </trkpt>
      <trkpt lat="43.56063" lon="2.9875">
        <ele>326</ele>
        <time>2017-03-30T18:22:48Z</time>
      </trkpt>
      <trkpt lat="43.56064" lon="2.98772">
        <ele>337</ele>
        <time>2017-03-30T18:24:48Z</time>
      </trkpt>
      <trkpt lat="43.56063" lon="2.9878">
        <ele>338</ele>
        <time>2017-03-30T18:26:48Z</time>
      </trkpt>
      <trkpt lat="43.56063" lon="2.988">
        <ele>341</ele>
        <time>2017-03-30T18:28:48Z</time>
      </trkpt>
      <trkpt lat="43.56064" lon="2.98815">
        <ele>340</ele>
        <time>2017-03-30T18:30:48Z</time>
      </trkpt>
      <trkpt lat="43.56066" lon="2.98833">
        <ele>339</ele>
        <time>2017-03-30T18:32:48Z</time>
      </trkpt>
      <trkpt lat="43.56067" lon="2.98841">
        <ele>345</ele>
        <time>2017-03-30T18:34:48Z</time>
      </trkpt>
      <trkpt lat="43.56071" lon="2.98858">
        <ele>349</ele>
        <time>2017-03-30T18:36:48Z</time>
      </trkpt>
      <trkpt lat="43.56073" lon="2.98874">
        <ele>352</ele>
        <time>2017-03-30T18:38:48Z</time>
      </trkpt>
      <trkpt lat="43.56077" lon="2.98889">
        <ele>352</ele>
        <time>2017-03-30T18:40:48Z</time>
      </trkpt>
      <trkpt lat="43.56089" lon="2.98923">
        <ele>342</ele>
        <time>2017-03-30T18:42:48Z</time>
      </trkpt>
      <trkpt lat="43.56092" lon="2.98939">
        <ele>339</ele>
        <time>2017-03-30T18:44:48Z</time>
      </trkpt>
      <trkpt lat="43.56096" lon="2.98949">
        <ele>338</ele>
        <time>2017-03-30T18:46:48Z</time>
      </trkpt>
      <trkpt lat="43.56099" lon="2.98966">
        <ele>339</ele>
        <time>2017-03-30T18:48:48Z</time>
      </trkpt>
      <trkpt lat="43.56101" lon="2.98983">
        <ele>342</ele>
        <time>2017-03-30T18:50:48Z</time>
      </trkpt>
      <trkpt lat="43.56104" lon="2.99">
        <ele>344</ele>
        <time>2017-03-30T18:52:48Z</time>
      </trkpt>
      <trkpt lat="43.56101" lon="2.99008">
        <ele>349</ele>
        <time>2017-03-30T18:54:48Z</time>
      </trkpt>
      <trkpt lat="43.56097" lon="2.99007">
        <ele>351</ele>
        <time>2017-03-30T18:56:48Z</time>
      </trkpt>
      <trkpt lat="43.56096" lon="2.99005">
        <ele>351</ele>
        <time>2017-03-30T18:58:48Z</time>
      </trkpt>
      <trkpt lat="43.56096" lon="2.98994">
        <ele>347</ele>
        <time>2017-03-30T19:00:48Z</time>
      </trkpt>
      <trkpt lat="43.56097" lon="2.98988">
        <ele>345</ele>
        <time>2017-03-30T19:02:48Z</time>
      </trkpt>
      <trkpt lat="43.56096" lon="2.98981">
        <ele>343</ele>
        <time>2017-03-30T19:04:48Z</time>
      </trkpt>
      <trkpt lat="43.56086" lon="2.9897">
        <ele>342</ele>
        <time>2017-03-30T19:06:48Z</time>
      </trkpt>
      <trkpt lat="43.56081" lon="2.98964">
        <ele>365</ele>
        <time>2017-03-30T19:08:48Z</time>
      </trkpt>
      <trkpt lat="43.56073" lon="2.98955">
        <ele>365</ele>
        <time>2017-03-30T19:10:48Z</time>
      </trkpt>
      <trkpt lat="43.5607" lon="2.98952">
        <ele>365</ele>
        <time>2017-03-30T19:12:48Z</time>
      </trkpt>
      <trkpt lat="43.56062" lon="2.98941">
        <ele>365</ele>
        <time>2017-03-30T19:14:48Z</time>
      </trkpt>
      <trkpt lat="43.56055" lon="2.98931">
        <ele>366</ele>
        <time>2017-03-30T19:16:48Z</time>
      </trkpt>
      <trkpt lat="43.56038" lon="2.98911">
        <ele>362</ele>
        <time>2017-03-30T19:18:48Z</time>
      </trkpt>
      <trkpt lat="43.56036" lon="2.98901">
        <ele>362</ele>
        <time>2017-03-30T19:20:48Z</time>
      </trkpt>
      <trkpt lat="43.56033" lon="2.98897">
        <ele>362</ele>
        <time>2017-03-30T19:22:48Z</time>
      </trkpt>
      <trkpt lat="43.56026" lon="2.98883">
        <ele>363</ele>
        <time>2017-03-30T19:24:48Z</time>
      </trkpt>
      <trkpt lat="43.56025" lon="2.98875">
        <ele>362</ele>
        <time>2017-03-30T19:26:48Z</time>
      </trkpt>
      <trkpt lat="43.56022" lon="2.9887">
        <ele>362</ele>
        <time>2017-03-30T19:28:48Z</time>
      </trkpt>
      <trkpt lat="43.56018" lon="2.98857">
        <ele>363</ele>
        <time>2017-03-30T19:30:48Z</time>
      </trkpt>
      <trkpt lat="43.56017" lon="2.98855">
        <ele>363</ele>
        <time>2017-03-30T19:32:48Z</time>
      </trkpt>
      <trkpt lat="43.56012" lon="2.98835">
        <ele>367</ele>
        <time>2017-03-30T19:34:48Z</time>
      </trkpt>
      <trkpt lat="43.5601" lon="2.98824">
        <ele>361</ele>
        <time>2017-03-30T19:36:48Z</time>
      </trkpt>
      <trkpt lat="43.56002" lon="2.98802">
        <ele>354</ele>
        <time>2017-03-30T19:38:48Z</time>
      </trkpt>
      <trkpt lat="43.55992" lon="2.98795">
        <ele>367</ele>
        <time>2017-03-30T19:40:48Z</time>
      </trkpt>
      <trkpt lat="43.5598" lon="2.9879">
        <ele>367</ele>
        <time>2017-03-30T19:42:48Z</time>
      </trkpt>
      <trkpt lat="43.55968" lon="2.98787">
        <ele>367</ele>
        <time>2017-03-30T19:44:48Z</time>
      </trkpt>
      <trkpt lat="43.55959" lon="2.98783">
        <ele>366</ele>
        <time>2017-03-30T19:46:48Z</time>
      </trkpt>
      <trkpt lat="43.55947" lon="2.9878">
        <ele>366</ele>
        <time>2017-03-30T19:48:48Z</time>
      </trkpt>
      <trkpt lat="43.55941" lon="2.98781">
        <ele>366</ele>
        <time>2017-03-30T19:50:48Z</time>
      </trkpt>
      <trkpt lat="43.55939" lon="2.98786">
        <ele>367</ele>
        <time>2017-03-30T19:52:48Z</time>
      </trkpt>
      <trkpt lat="43.55951" lon="2.98796">
        <ele>368</ele>
        <time>2017-03-30T19:54:48Z</time>
      </trkpt>
      <trkpt lat="43.55958" lon="2.98805">
        <ele>369</ele>
        <time>2017-03-30T19:56:48Z</time>
      </trkpt>
      <trkpt lat="43.55973" lon="2.98823">
        <ele>370</ele>
        <time>2017-03-30T19:58:48Z</time>
      </trkpt>
      <trkpt lat="43.5598" lon="2.98837">
        <ele>381</ele>
        <time>2017-03-30T20:00:48Z</time>
      </trkpt>
      <trkpt lat="43.5598" lon="2.98849">
        <ele>382</ele>
        <time>2017-03-30T20:02:48Z</time>
      </trkpt>
      <trkpt lat="43.5598" lon="2.98862">
        <ele>384</ele>
        <time>2017-03-30T20:04:48Z</time>
      </trkpt>
      <trkpt lat="43.55982" lon="2.98876">
        <ele>385</ele>
        <time>2017-03-30T20:06:48Z</time>
      </trkpt>
      <trkpt lat="43.55982" lon="2.98882">
        <ele>386</ele>
        <time>2017-03-30T20:08:48Z</time>
      </trkpt>
      <trkpt lat="43.55983" lon="2.98889">
        <ele>386</ele>
        <time>2017-03-30T20:10:48Z</time>
      </trkpt>
      <trkpt lat="43.55983" lon="2.98894">
        <ele>387</ele>
        <time>2017-03-30T20:12:48Z</time>
      </trkpt>
      <trkpt lat="43.55985" lon="2.98913">
        <ele>386</ele>
        <time>2017-03-30T20:14:48Z</time>
      </trkpt>
      <trkpt lat="43.55991" lon="2.98934">
        <ele>397</ele>
        <time>2017-03-30T20:16:48Z</time>
      </trkpt>
      <trkpt lat="43.55996" lon="2.98948">
        <ele>400</ele>
        <time>2017-03-30T20:18:48Z</time>
      </trkpt>
      <trkpt lat="43.56001" lon="2.98961">
        <ele>381</ele>
        <time>2017-03-30T20:20:48Z</time>
      </trkpt>
      <trkpt lat="43.56005" lon="2.98975">
        <ele>384</ele>
        <time>2017-03-30T20:22:48Z</time>
      </trkpt>
      <trkpt lat="43.56014" lon="2.98987">
        <ele>386</ele>
        <time>2017-03-30T20:24:48Z</time>
      </trkpt>
      <trkpt lat="43.56017" lon="2.98998">
        <ele>387</ele>
        <time>2017-03-30T20:26:48Z</time>
      </trkpt>
      <trkpt lat="43.56025" lon="2.99016">
        <ele>391</ele>
        <time>2017-03-30T20:28:48Z</time>
      </trkpt>
      <trkpt lat="43.56029" lon="2.99028">
        <ele>390</ele>
        <time>2017-03-30T20:30:48Z</time>
      </trkpt>
      <trkpt lat="43.56027" lon="2.99038">
        <ele>391</ele>
        <time>2017-03-30T20:32:48Z</time>
      </trkpt>
      <trkpt lat="43.56027" lon="2.99041">
        <ele>391</ele>
        <time>2017-03-30T20:34:48Z</time>
      </trkpt>
      <trkpt lat="43.56028" lon="2.99048">
        <ele>392</ele>
        <time>2017-03-30T20:36:48Z</time>
      </trkpt>
      <trkpt lat="43.56029" lon="2.99051">
        <ele>392</ele>
        <time>2017-03-30T20:38:48Z</time>
      </trkpt>
      <trkpt lat="43.56029" lon="2.99067">
        <ele>394</ele>
        <time>2017-03-30T20:40:48Z</time>
      </trkpt>
      <trkpt lat="43.56028" lon="2.99084">
        <ele>404</ele>
        <time>2017-03-30T20:42:48Z</time>
      </trkpt>
      <trkpt lat="43.56031" lon="2.99099">
        <ele>402</ele>
        <time>2017-03-30T20:44:48Z</time>
      </trkpt>
      <trkpt lat="43.5603" lon="2.99109">
        <ele>403</ele>
        <time>2017-03-30T20:46:48Z</time>
      </trkpt>
      <trkpt lat="43.56026" lon="2.99109">
        <ele>404</ele>
        <time>2017-03-30T20:48:48Z</time>
      </trkpt>
      <trkpt lat="43.56024" lon="2.99105">
        <ele>405</ele>
        <time>2017-03-30T20:50:48Z</time>
      </trkpt>
      <trkpt lat="43.56021" lon="2.99089">
        <ele>406</ele>
        <time>2017-03-30T20:52:48Z</time>
      </trkpt>
      <trkpt lat="43.56023" lon="2.99077">
        <ele>398</ele>
        <time>2017-03-30T20:54:48Z</time>
      </trkpt>
      <trkpt lat="43.56023" lon="2.99068">
        <ele>397</ele>
        <time>2017-03-30T20:56:48Z</time>
      </trkpt>
      <trkpt lat="43.56019" lon="2.99053">
        <ele>395</ele>
        <time>2017-03-30T20:58:48Z</time>
      </trkpt>
      <trkpt lat="43.56003" lon="2.99029">
        <ele>395</ele>
        <time>2017-03-30T21:00:48Z</time>
      </trkpt>
      <trkpt lat="43.56001" lon="2.99024">
        <ele>395</ele>
        <time>2017-03-30T21:02:48Z</time>
      </trkpt>
      <trkpt lat="43.5599" lon="2.99013">
        <ele>414</ele>
        <time>2017-03-30T21:04:48Z</time>
      </trkpt>
      <trkpt lat="43.55984" lon="2.99">
        <ele>406</ele>
        <time>2017-03-30T21:06:48Z</time>
      </trkpt>
      <trkpt lat="43.55978" lon="2.98987">
        <ele>407</ele>
        <time>2017-03-30T21:08:48Z</time>
      </trkpt>
      <trkpt lat="43.55972" lon="2.98977">
        <ele>407</ele>
        <time>2017-03-30T21:10:48Z</time>
      </trkpt>
      <trkpt lat="43.55966" lon="2.98967">
        <ele>408</ele>
        <time>2017-03-30T21:12:48Z</time>
      </trkpt>
      <trkpt lat="43.55962" lon="2.98962">
        <ele>408</ele>
        <time>2017-03-30T21:14:48Z</time>
      </trkpt>
      <trkpt lat="43.55954" lon="2.9895">
        <ele>408</ele>
        <time>2017-03-30T21:16:48Z</time>
      </trkpt>
      <trkpt lat="43.55943" lon="2.98938">
        <ele>408</ele>
        <time>2017-03-30T21:18:48Z</time>
      </trkpt>
      <trkpt lat="43.55931" lon="2.98927">
        <ele>409</ele>
        <time>2017-03-30T21:20:48Z</time>
      </trkpt>
      <trkpt lat="43.5592" lon="2.98921">
        <ele>410</ele>
        <time>2017-03-30T21:22:48Z</time>
      </trkpt>
      <trkpt lat="43.5591" lon="2.98919">
        <ele>414</ele>
        <time>2017-03-30T21:24:48Z</time>
      </trkpt>
      <trkpt lat="43.559" lon="2.98916">
        <ele>404</ele>
        <time>2017-03-30T21:26:48Z</time>
      </trkpt>
      <trkpt lat="43.55897" lon="2.98917">
        <ele>417</ele>
        <time>2017-03-30T21:28:48Z</time>
      </trkpt>
      <trkpt lat="43.55898" lon="2.98922">
        <ele>417</ele>
        <time>2017-03-30T21:30:48Z</time>
      </trkpt>
      <trkpt lat="43.559" lon="2.98924">
        <ele>417</ele>
        <time>2017-03-30T21:32:48Z</time>
      </trkpt>
      <trkpt lat="43.55906" lon="2.9893">
        <ele>417</ele>
        <time>2017-03-30T21:34:48Z</time>
      </trkpt>
      <trkpt lat="43.55917" lon="2.98938">
        <ele>411</ele>
        <time>2017-03-30T21:36:48Z</time>
      </trkpt>
      <trkpt lat="43.55929" lon="2.98951">
        <ele>411</ele>
        <time>2017-03-30T21:38:48Z</time>
      </trkpt>
      <trkpt lat="43.55936" lon="2.98966">
        <ele>413</ele>
        <time>2017-03-30T21:40:48Z</time>
      </trkpt>
      <trkpt lat="43.55945" lon="2.98981">
        <ele>414</ele>
        <time>2017-03-30T21:42:48Z</time>
      </trkpt>
      <trkpt lat="43.55951" lon="2.98998">
        <ele>414</ele>
        <time>2017-03-30T21:44:48Z</time>
      </trkpt>
      <trkpt lat="43.55956" lon="2.99011">
        <ele>425</ele>
        <time>2017-03-30T21:46:48Z</time>
      </trkpt>
      <trkpt lat="43.55963" lon="2.99032">
        <ele>425</ele>
        <time>2017-03-30T21:48:48Z</time>
      </trkpt>
      <trkpt lat="43.55972" lon="2.9905">
        <ele>425</ele>
        <time>2017-03-30T21:50:48Z</time>
      </trkpt>
      <trkpt lat="43.55976" lon="2.99067">
        <ele>425</ele>
        <time>2017-03-30T21:52:48Z</time>
      </trkpt>
      <trkpt lat="43.55981" lon="2.99088">
        <ele>431</ele>
        <time>2017-03-30T21:54:48Z</time>
      </trkpt>
      <trkpt lat="43.55982" lon="2.99108">
        <ele>434</ele>
        <time>2017-03-30T21:56:48Z</time>
      </trkpt>
      <trkpt lat="43.55983" lon="2.99126">
        <ele>437</ele>
        <time>2017-03-30T21:58:48Z</time>
      </trkpt>
      <trkpt lat="43.55985" lon="2.99152">
        <ele>436</ele>
        <time>2017-03-30T22:00:48Z</time>
      </trkpt>
      <trkpt lat="43.55992" lon="2.99174">
        <ele>438</ele>
        <time>2017-03-30T22:02:48Z</time>
      </trkpt>
      <trkpt lat="43.56002" lon="2.99196">
        <ele>423</ele>
        <time>2017-03-30T22:04:48Z</time>
      </trkpt>
      <trkpt lat="43.56011" lon="2.99213">
        <ele>424</ele>
        <time>2017-03-30T22:06:48Z</time>
      </trkpt>
      <trkpt lat="43.56018" lon="2.99228">
        <ele>426</ele>
        <time>2017-03-30T22:08:48Z</time>
      </trkpt>
      <trkpt lat="43.56026" lon="2.99242">
        <ele>426</ele>
        <time>2017-03-30T22:10:48Z</time>
      </trkpt>
      <trkpt lat="43.56034" lon="2.99257">
        <ele>439</ele>
        <time>2017-03-30T22:12:48Z</time>
      </trkpt>
      <trkpt lat="43.56035" lon="2.99265">
        <ele>439</ele>
        <time>2017-03-30T22:14:48Z</time>
      </trkpt>
      <trkpt lat="43.56026" lon="2.99268">
        <ele>442</ele>
        <time>2017-03-30T22:16:48Z</time>
      </trkpt>
      <trkpt lat="43.56023" lon="2.99265">
        <ele>442</ele>
        <time>2017-03-30T22:18:48Z</time>
      </trkpt>
      <trkpt lat="43.56017" lon="2.99249">
        <ele>432</ele>
        <time>2017-03-30T22:20:48Z</time>
      </trkpt>
      <trkpt lat="43.56008" lon="2.99235">
        <ele>432</ele>
        <time>2017-03-30T22:22:48Z</time>
      </trkpt>
      <trkpt lat="43.56" lon="2.99224">
        <ele>429</ele>
        <time>2017-03-30T22:24:48Z</time>
      </trkpt>
      <trkpt lat="43.55991" lon="2.9921">
        <ele>449</ele>
        <time>2017-03-30T22:26:48Z</time>
      </trkpt>
      <trkpt lat="43.55985" lon="2.99196">
        <ele>448</ele>
        <time>2017-03-30T22:28:48Z</time>
      </trkpt>
      <trkpt lat="43.55977" lon="2.9918">
        <ele>446</ele>
        <time>2017-03-30T22:30:48Z</time>
      </trkpt>
      <trkpt lat="43.55971" lon="2.99167">
        <ele>447</ele>
        <time>2017-03-30T22:32:48Z</time>
      </trkpt>
      <trkpt lat="43.55965" lon="2.99145">
        <ele>441</ele>
        <time>2017-03-30T22:34:48Z</time>
      </trkpt>
      <trkpt lat="43.55959" lon="2.99125">
        <ele>441</ele>
        <time>2017-03-30T22:36:48Z</time>
      </trkpt>
      <trkpt lat="43.55953" lon="2.99106">
        <ele>441</ele>
        <time>2017-03-30T22:38:48Z</time>
      </trkpt>
      <trkpt lat="43.55944" lon="2.99087">
        <ele>443</ele>
        <time>2017-03-30T22:40:48Z</time>
      </trkpt>
      <trkpt lat="43.55938" lon="2.99074">
        <ele>437</ele>
        <time>2017-03-30T22:42:48Z</time>
      </trkpt>
      <trkpt lat="43.55907" lon="2.99044">
        <ele>446</ele>
        <time>2017-03-30T22:44:48Z</time>
      </trkpt>
      <trkpt lat="43.55887" lon="2.99035">
        <ele>445</ele>
        <time>2017-03-30T22:46:48Z</time>
      </trkpt>
      <trkpt lat="43.55873" lon="2.99037">
        <ele>446</ele>
        <time>2017-03-30T22:48:48Z</time>
      </trkpt>
      <trkpt lat="43.5586" lon="2.99041">
        <ele>447</ele>
        <time>2017-03-30T22:50:48Z</time>
      </trkpt>
      <trkpt lat="43.55852" lon="2.99045">
        <ele>447</ele>
        <time>2017-03-30T22:52:48Z</time>
      </trkpt>
      <trkpt lat="43.55851" lon="2.99054">
        <ele>449</ele>
        <time>2017-03-30T22:54:48Z</time>
      </trkpt>
      <trkpt lat="43.55857" lon="2.99055">
        <ele>449</ele>
        <time>2017-03-30T22:56:48Z</time>
      </trkpt>
      <trkpt lat="43.55868" lon="2.99053">
        <ele>448</ele>
        <time>2017-03-30T22:58:48Z</time>
      </trkpt>
      <trkpt lat="43.55879" lon="2.99058">
        <ele>448</ele>
        <time>2017-03-30T23:00:48Z</time>
      </trkpt>
      <trkpt lat="43.55887" lon="2.99066">
        <ele>449</ele>
        <time>2017-03-30T23:02:48Z</time>
      </trkpt>
      <trkpt lat="43.55901" lon="2.99082">
        <ele>450</ele>
        <time>2017-03-30T23:04:48Z</time>
      </trkpt>
      <trkpt lat="43.55914" lon="2.99096">
        <ele>457</ele>
        <time>2017-03-30T23:06:48Z</time>
      </trkpt>
      <trkpt lat="43.55922" lon="2.99115">
        <ele>447</ele>
        <time>2017-03-30T23:08:48Z</time>
      </trkpt>
      <trkpt lat="43.55926" lon="2.99133">
        <ele>448</ele>
        <time>2017-03-30T23:10:48Z</time>
      </trkpt>
      <trkpt lat="43.55927" lon="2.99154">
        <ele>454</ele>
        <time>2017-03-30T23:12:48Z</time>
      </trkpt>
      <trkpt lat="43.5593" lon="2.99175">
        <ele>460</ele>
        <time>2017-03-30T23:14:48Z</time>
      </trkpt>
      <trkpt lat="43.55933" lon="2.99193">
        <ele>459</ele>
        <time>2017-03-30T23:16:48Z</time>
      </trkpt>
      <trkpt lat="43.55937" lon="2.99213">
        <ele>460</ele>
        <time>2017-03-30T23:18:48Z</time>
      </trkpt>
      <trkpt lat="43.55941" lon="2.99231">
        <ele>462</ele>
        <time>2017-03-30T23:20:48Z</time>
      </trkpt>
      <trkpt lat="43.55949" lon="2.99246">
        <ele>461</ele>
        <time>2017-03-30T23:22:48Z</time>
      </trkpt>
      <trkpt lat="43.55957" lon="2.99261">
        <ele>471</ele>
        <time>2017-03-30T23:24:48Z</time>
      </trkpt>
      <trkpt lat="43.55967" lon="2.99277">
        <ele>470</ele>
        <time>2017-03-30T23:26:48Z</time>
      </trkpt>
      <trkpt lat="43.55978" lon="2.99291">
        <ele>470</ele>
        <time>2017-03-30T23:28:48Z</time>
      </trkpt>
      <trkpt lat="43.55993" lon="2.99309">
        <ele>471</ele>
        <time>2017-03-30T23:30:48Z</time>
      </trkpt>
      <trkpt lat="43.56011" lon="2.99332">
        <ele>461</ele>
        <time>2017-03-30T23:32:48Z</time>
      </trkpt>
      <trkpt lat="43.56025" lon="2.99349">
        <ele>467</ele>
        <time>2017-03-30T23:34:48Z</time>
      </trkpt>
      <trkpt lat="43.56038" lon="2.99365">
        <ele>465</ele>
        <time>2017-03-30T23:36:48Z</time>
      </trkpt>
      <trkpt lat="43.56046" lon="2.99378">
        <ele>465</ele>
        <time>2017-03-30T23:38:48Z</time>
      </trkpt>
      <trkpt lat="43.5605" lon="2.99395">
        <ele>466</ele>
        <time>2017-03-30T23:40:48Z</time>
      </trkpt>
      <trkpt lat="43.56052" lon="2.99418">
        <ele>471</ele>
        <time>2017-03-30T23:42:48Z</time>
      </trkpt>
      <trkpt lat="43.5605" lon="2.99438">
        <ele>472</ele>
        <time>2017-03-30T23:44:48Z</time>
      </trkpt>
      <trkpt lat="43.56045" lon="2.99454">
        <ele>474</ele>
        <time>2017-03-30T23:46:48Z</time>
      </trkpt>
      <trkpt lat="43.56037" lon="2.9947">
        <ele>475</ele>
        <time>2017-03-30T23:48:48Z</time>
      </trkpt>
      <trkpt lat="43.56034" lon="2.99477">
        <ele>476</ele>
        <time>2017-03-30T23:50:48Z</time>
      </trkpt>
      <trkpt lat="43.56028" lon="2.99488">
        <ele>478</ele>
        <time>2017-03-30T23:52:48Z</time>
      </trkpt>
      <trkpt lat="43.56022" lon="2.99499">
        <ele>481</ele>
        <time>2017-03-30T23:54:48Z</time>
      </trkpt>
      <trkpt lat="43.56015" lon="2.99507">
        <ele>479</ele>
        <time>2017-03-30T23:56:48Z</time>
      </trkpt>
      <trkpt lat="43.56009" lon="2.99519">
        <ele>478</ele>
        <time>2017-03-30T23:58:48Z</time>
      </trkpt>
      <trkpt lat="43.56001" lon="2.9953">
        <ele>475</ele>
        <time>2017-03-31T00:00:48Z</time>
      </trkpt>
      <trkpt lat="43.55991" lon="2.99541">
        <ele>490</ele>
        <time>2017-03-31T00:02:48Z</time>
      </trkpt>
      <trkpt lat="43.55982" lon="2.99554">
        <ele>488</ele>
        <time>2017-03-31T00:04:48Z</time>
      </trkpt>
      <trkpt lat="43.55965" lon="2.99562">
        <ele>490</ele>
        <time>2017-03-31T00:06:48Z</time>
      </trkpt>
      <trkpt lat="43.55955" lon="2.99564">
        <ele>491</ele>
        <time>2017-03-31T00:08:48Z</time>
      </trkpt>
      <trkpt lat="43.55945" lon="2.99564">
        <ele>492</ele>
        <time>2017-03-31T00:10:48Z</time>
      </trkpt>
      <trkpt lat="43.55938" lon="2.99564">
        <ele>492</ele>
        <time>2017-03-31T00:12:48Z</time>
      </trkpt>
      <trkpt lat="43.55926" lon="2.99569">
        <ele>492</ele>
        <time>2017-03-31T00:14:48Z</time>
      </trkpt>
      <trkpt lat="43.55914" lon="2.99576">
        <ele>495</ele>
        <time>2017-03-31T00:16:48Z</time>
      </trkpt>
      <trkpt lat="43.55899" lon="2.99581">
        <ele>498</ele>
        <time>2017-03-31T00:18:48Z</time>
      </trkpt>
      <trkpt lat="43.55886" lon="2.99589">
        <ele>489</ele>
        <time>2017-03-31T00:20:48Z</time>
      </trkpt>
      <trkpt lat="43.55876" lon="2.99593">
        <ele>490</ele>
        <time>2017-03-31T00:22:48Z</time>
      </trkpt>
      <trkpt lat="43.55861" lon="2.996">
        <ele>491</ele>
        <time>2017-03-31T00:24:48Z</time>
      </trkpt>
      <trkpt lat="43.55849" lon="2.99611">
        <ele>491</ele>
        <time>2017-03-31T00:26:48Z</time>
      </trkpt>
      <trkpt lat="43.55834" lon="2.9962">
        <ele>490</ele>
        <time>2017-03-31T00:28:48Z</time>
      </trkpt>
      <trkpt lat="43.55809" lon="2.99632">
        <ele>500</ele>
        <time>2017-03-31T00:30:48Z</time>
      </trkpt>
      <trkpt lat="43.55799" lon="2.99636">
        <ele>501</ele>
        <time>2017-03-31T00:32:48Z</time>
      </trkpt>
      <trkpt lat="43.55788" lon="2.99638">
        <ele>502</ele>
        <time>2017-03-31T00:34:48Z</time>
      </trkpt>
      <trkpt lat="43.55778" lon="2.99643">
        <ele>503</ele>
        <time>2017-03-31T00:36:48Z</time>
      </trkpt>
      <trkpt lat="43.55763" lon="2.99643">
        <ele>504</ele>
        <time>2017-03-31T00:38:48Z</time>
      </trkpt>
      <trkpt lat="43.55742" lon="2.99652">
        <ele>508</ele>
        <time>2017-03-31T00:40:48Z</time>
      </trkpt>
      <trkpt lat="43.5573" lon="2.99661">
        <ele>508</ele>
        <time>2017-03-31T00:42:48Z</time>
      </trkpt>
      <trkpt lat="43.55718" lon="2.99664">
        <ele>508</ele>
        <time>2017-03-31T00:44:48Z</time>
      </trkpt>
      <trkpt lat="43.55708" lon="2.99665">
        <ele>508</ele>
        <time>2017-03-31T00:46:48Z</time>
      </trkpt>
      <trkpt lat="43.55705" lon="2.99669">
        <ele>509</ele>
        <time>2017-03-31T00:48:48Z</time>
      </trkpt>
      <trkpt lat="43.55704" lon="2.9967">
        <ele>509</ele>
        <time>2017-03-31T00:50:48Z</time>
      </trkpt>
      <trkpt lat="43.55704" lon="2.99671">
        <ele>509</ele>
        <time>2017-03-31T00:52:48Z</time>
      </trkpt>
      <trkpt lat="43.55704" lon="2.99672">
        <ele>509</ele>
        <time>2017-03-31T00:54:48Z</time>
      </trkpt>
      <trkpt lat="43.55703" lon="2.9967">
        <ele>509</ele>
        <time>2017-03-31T00:56:48Z</time>
      </trkpt>
      <trkpt lat="43.55703" lon="2.99668">
        <ele>509</ele>
        <time>2017-03-31T00:58:48Z</time>
      </trkpt>
      <trkpt lat="43.55702" lon="2.99664">
        <ele>508</ele>
        <time>2017-03-31T01:00:48Z</time>
      </trkpt>
      <trkpt lat="43.55702" lon="2.99664">
        <ele>508</ele>
        <time>2017-03-31T01:02:48Z</time>
      </trkpt>
      <trkpt lat="43.55701" lon="2.99664">
        <ele>508</ele>
        <time>2017-03-31T01:04:48Z</time>
      </trkpt>
      <trkpt lat="43.55701" lon="2.99665">
        <ele>508</ele>
        <time>2017-03-31T01:06:48Z</time>
      </trkpt>
      <trkpt lat="43.55701" lon="2.99664">
        <ele>508</ele>
        <time>2017-03-31T01:08:48Z</time>
      </trkpt>
      <trkpt lat="43.55701" lon="2.99665">
        <ele>508</ele>
        <time>2017-03-31T01:10:48Z</time>
      </trkpt>
      <trkpt lat="43.557" lon="2.99668">
        <ele>509</ele>
        <time>2017-03-31T01:12:48Z</time>
      </trkpt>
      <trkpt lat="43.55699" lon="2.99669">
        <ele>509</ele>
        <time>2017-03-31T01:14:48Z</time>
      </trkpt>
      <trkpt lat="43.55698" lon="2.9967">
        <ele>509</ele>
        <time>2017-03-31T01:16:48Z</time>
      </trkpt>
      <trkpt lat="43.55697" lon="2.99671">
        <ele>509</ele>
        <time>2017-03-31T01:18:48Z</time>
      </trkpt>
      <trkpt lat="43.55697" lon="2.99671">
        <ele>509</ele>
        <time>2017-03-31T01:20:48Z</time>
      </trkpt>
      <trkpt lat="43.55698" lon="2.99672">
        <ele>509</ele>
        <time>2017-03-31T01:22:48Z</time>
      </trkpt>
      <trkpt lat="43.55698" lon="2.99675">
        <ele>509</ele>
        <time>2017-03-31T01:24:48Z</time>
      </trkpt>
      <trkpt lat="43.55698" lon="2.99675">
        <ele>509</ele>
        <time>2017-03-31T01:26:48Z</time>
      </trkpt>
      <trkpt lat="43.55699" lon="2.99675">
        <ele>509</ele>
        <time>2017-03-31T01:28:48Z</time>
      </trkpt>
      <trkpt lat="43.55694" lon="2.99678">
        <ele>509</ele>
        <time>2017-03-31T01:30:48Z</time>
      </trkpt>
      <trkpt lat="43.5568" lon="2.99689">
        <ele>509</ele>
        <time>2017-03-31T01:32:48Z</time>
      </trkpt>
      <trkpt lat="43.55671" lon="2.99695">
        <ele>509</ele>
        <time>2017-03-31T01:34:48Z</time>
      </trkpt>
      <trkpt lat="43.55661" lon="2.99702">
        <ele>507</ele>
        <time>2017-03-31T01:36:48Z</time>
      </trkpt>
      <trkpt lat="43.55619" lon="2.99732">
        <ele>506</ele>
        <time>2017-03-31T01:38:48Z</time>
      </trkpt>
      <trkpt lat="43.55605" lon="2.99747">
        <ele>505</ele>
        <time>2017-03-31T01:40:48Z</time>
      </trkpt>
      <trkpt lat="43.55595" lon="2.99763">
        <ele>512</ele>
        <time>2017-03-31T01:42:48Z</time>
      </trkpt>
      <trkpt lat="43.5558" lon="2.99786">
        <ele>504</ele>
        <time>2017-03-31T01:44:48Z</time>
      </trkpt>
      <trkpt lat="43.55561" lon="2.99812">
        <ele>507</ele>
        <time>2017-03-31T01:46:48Z</time>
      </trkpt>
      <trkpt lat="43.55546" lon="2.99825">
        <ele>505</ele>
        <time>2017-03-31T01:48:48Z</time>
      </trkpt>
      <trkpt lat="43.55533" lon="2.99842">
        <ele>516</ele>
        <time>2017-03-31T01:50:48Z</time>
      </trkpt>
      <trkpt lat="43.55522" lon="2.99871">
        <ele>518</ele>
        <time>2017-03-31T01:52:48Z</time>
      </trkpt>
      <trkpt lat="43.5551" lon="2.99899">
        <ele>520</ele>
        <time>2017-03-31T01:54:48Z</time>
      </trkpt>
      <trkpt lat="43.555" lon="2.99933">
        <ele>521</ele>
        <time>2017-03-31T01:56:48Z</time>
      </trkpt>
      <trkpt lat="43.55498" lon="2.99938">
        <ele>521</ele>
        <time>2017-03-31T01:58:48Z</time>
      </trkpt>
      <trkpt lat="43.55483" lon="2.99943">
        <ele>522</ele>
        <time>2017-03-31T02:00:48Z</time>
      </trkpt>
      <trkpt lat="43.55475" lon="2.99943">
        <ele>522</ele>
        <time>2017-03-31T02:02:48Z</time>
      </trkpt>
      <trkpt lat="43.5546" lon="2.99941">
        <ele>521</ele>
        <time>2017-03-31T02:04:48Z</time>
      </trkpt>
      <trkpt lat="43.5546" lon="2.99941">
        <ele>521</ele>
        <time>2017-03-31T02:06:48Z</time>
      </trkpt>
      <trkpt lat="43.55462" lon="2.99942">
        <ele>521</ele>
        <time>2017-03-31T02:08:48Z</time>
      </trkpt>
      <trkpt lat="43.55463" lon="2.99943">
        <ele>521</ele>
        <time>2017-03-31T02:10:48Z</time>
      </trkpt>
      <trkpt lat="43.55464" lon="2.99944">
        <ele>521</ele>
        <time>2017-03-31T02:12:48Z</time>
      </trkpt>
      <trkpt lat="43.55461" lon="2.99944">
        <ele>521</ele>
        <time>2017-03-31T02:14:48Z</time>
      </trkpt>
      <trkpt lat="43.55457" lon="2.99946">
        <ele>521</ele>
        <time>2017-03-31T02:16:48Z</time>
      </trkpt>
      <trkpt lat="43.55453" lon="2.99944">
        <ele>521</ele>
        <time>2017-03-31T02:18:48Z</time>
      </trkpt>
      <trkpt lat="43.55452" lon="2.99945">
        <ele>521</ele>
        <time>2017-03-31T02:20:48Z</time>
      </trkpt>
      <trkpt lat="43.55451" lon="2.99944">
        <ele>521</ele>
        <time>2017-03-31T02:22:48Z</time>
      </trkpt>
      <trkpt lat="43.5545" lon="2.99946">
        <ele>521</ele>
        <time>2017-03-31T02:24:48Z</time>
      </trkpt>
      <trkpt lat="43.5545" lon="2.99947">
        <ele>521</ele>
        <time>2017-03-31T02:26:48Z</time>
      </trkpt>
      <trkpt lat="43.5545" lon="2.99948">
        <ele>521</ele>
        <time>2017-03-31T02:28:48Z</time>
      </trkpt>
      <trkpt lat="43.5545" lon="2.99949">
        <ele>521</ele>
        <time>2017-03-31T02:30:48Z</time>
      </trkpt>
      <trkpt lat="43.5545" lon="2.99952">
        <ele>521</ele>
        <time>2017-03-31T02:32:48Z</time>
      </trkpt>
      <trkpt lat="43.5545" lon="2.99952">
        <ele>521</ele>
        <time>2017-03-31T02:34:48Z</time>
      </trkpt>
      <trkpt lat="43.5545" lon="2.99952">
        <ele>521</ele>
        <time>2017-03-31T02:36:48Z</time>
      </trkpt>
      <trkpt lat="43.5545" lon="2.99953">
        <ele>521</ele>
        <time>2017-03-31T02:38:48Z</time>
      </trkpt>
      <trkpt lat="43.55451" lon="2.99953">
        <ele>522</ele>
        <time>2017-03-31T02:40:48Z</time>
      </trkpt>
      <trkpt lat="43.55452" lon="2.99953">
        <ele>522</ele>
        <time>2017-03-31T02:42:48Z</time>
      </trkpt>
      <trkpt lat="43.55452" lon="2.99953">
        <ele>522</ele>
        <time>2017-03-31T02:44:48Z</time>
      </trkpt>
      <trkpt lat="43.55452" lon="2.99953">
        <ele>522</ele>
        <time>2017-03-31T02:46:48Z</time>
      </trkpt>
      <trkpt lat="43.55452" lon="2.99953">
        <ele>522</ele>
        <time>2017-03-31T02:48:48Z</time>
      </trkpt>
      <trkpt lat="43.55453" lon="2.99954">
        <ele>522</ele>
        <time>2017-03-31T02:50:48Z</time>
      </trkpt>
      <trkpt lat="43.55454" lon="2.99955">
        <ele>522</ele>
        <time>2017-03-31T02:52:48Z</time>
      </trkpt>
      <trkpt lat="43.55455" lon="2.99956">
        <ele>522</ele>
        <time>2017-03-31T02:54:48Z</time>
      </trkpt>
      <trkpt lat="43.55455" lon="2.99957">
        <ele>522</ele>
        <time>2017-03-31T02:56:48Z</time>
      </trkpt>
      <trkpt lat="43.55454" lon="2.99955">
        <ele>522</ele>
        <time>2017-03-31T02:58:48Z</time>
      </trkpt>
      <trkpt lat="43.55453" lon="2.99955">
        <ele>522</ele>
        <time>2017-03-31T03:00:48Z</time>
      </trkpt>
      <trkpt lat="43.55455" lon="2.99956">
        <ele>522</ele>
        <time>2017-03-31T03:02:48Z</time>
      </trkpt>
      <trkpt lat="43.55456" lon="2.99958">
        <ele>522</ele>
        <time>2017-03-31T03:04:48Z</time>
      </trkpt>
      <trkpt lat="43.55456" lon="2.99958">
        <ele>522</ele>
        <time>2017-03-31T03:06:48Z</time>
      </trkpt>
      <trkpt lat="43.55455" lon="2.99957">
        <ele>522</ele>
        <time>2017-03-31T03:08:48Z</time>
      </trkpt>
      <trkpt lat="43.55455" lon="2.99957">
        <ele>522</ele>
        <time>2017-03-31T03:10:48Z</time>
      </trkpt>
      <trkpt lat="43.55455" lon="2.99956">
        <ele>522</ele>
        <time>2017-03-31T03:12:48Z</time>
      </trkpt>
      <trkpt lat="43.55448" lon="2.99952">
        <ele>521</ele>
        <time>2017-03-31T03:14:48Z</time>
      </trkpt>
      <trkpt lat="43.55448" lon="2.99951">
        <ele>521</ele>
        <time>2017-03-31T03:16:48Z</time>
      </trkpt>
      <trkpt lat="43.55447" lon="2.99951">
        <ele>521</ele>
        <time>2017-03-31T03:18:48Z</time>
      </trkpt>
      <trkpt lat="43.55449" lon="2.9995">
        <ele>521</ele>
        <time>2017-03-31T03:20:48Z</time>
      </trkpt>
      <trkpt lat="43.55449" lon="2.9995">
        <ele>521</ele>
        <time>2017-03-31T03:22:48Z</time>
      </trkpt>
      <trkpt lat="43.55449" lon="2.99947">
        <ele>521</ele>
        <time>2017-03-31T03:24:48Z</time>
      </trkpt>
      <trkpt lat="43.5545" lon="2.99947">
        <ele>521</ele>
        <time>2017-03-31T03:26:48Z</time>
      </trkpt>
      <trkpt lat="43.5545" lon="2.99948">
        <ele>521</ele>
        <time>2017-03-31T03:28:48Z</time>
      </trkpt>
      <trkpt lat="43.5545" lon="2.99949">
        <ele>521</ele>
        <time>2017-03-31T03:30:48Z</time>
      </trkpt>
      <trkpt lat="43.5545" lon="2.99947">
        <ele>521</ele>
        <time>2017-03-31T03:32:48Z</time>
      </trkpt>
      <trkpt lat="43.5545" lon="2.99947">
        <ele>521</ele>
        <time>2017-03-31T03:34:48Z</time>
      </trkpt>
      <trkpt lat="43.55449" lon="2.99951">
        <ele>521</ele>
        <time>2017-03-31T03:36:48Z</time>
      </trkpt>
      <trkpt lat="43.55449" lon="2.99952">
        <ele>521</ele>
        <time>2017-03-31T03:38:48Z</time>
      </trkpt>
      <trkpt lat="43.55453" lon="2.9995">
        <ele>521</ele>
        <time>2017-03-31T03:40:48Z</time>
      </trkpt>
      <trkpt lat="43.55453" lon="2.99949">
        <ele>521</ele>
        <time>2017-03-31T03:42:48Z</time>
      </trkpt>
      <trkpt lat="43.55453" lon="2.99948">
        <ele>521</ele>
        <time>2017-03-31T03:44:48Z</time>
      </trkpt>
      <trkpt lat="43.55452" lon="2.9995">
        <ele>521</ele>
        <time>2017-03-31T03:46:48Z</time>
      </trkpt>
      <trkpt lat="43.55452" lon="2.99952">
        <ele>521</ele>
        <time>2017-03-31T03:48:48Z</time>
      </trkpt>
      <trkpt lat="43.55449" lon="2.99952">
        <ele>521</ele>
        <time>2017-03-31T03:50:48Z</time>
      </trkpt>
      <trkpt lat="43.55429" lon="2.99951">
        <ele>521</ele>
        <time>2017-03-31T03:52:48Z</time>
      </trkpt>
      <trkpt lat="43.5542" lon="2.99949">
        <ele>520</ele>
        <time>2017-03-31T03:54:48Z</time>
      </trkpt>
      <trkpt lat="43.5541" lon="2.99949">
        <ele>518</ele>
        <time>2017-03-31T03:56:48Z</time>
      </trkpt>
      <trkpt lat="43.55401" lon="2.9995">
        <ele>518</ele>
        <time>2017-03-31T03:58:48Z</time>
      </trkpt>
      <trkpt lat="43.55395" lon="2.99945">
        <ele>517</ele>
        <time>2017-03-31T04:00:48Z</time>
      </trkpt>
      <trkpt lat="43.55385" lon="2.99941">
        <ele>517</ele>
        <time>2017-03-31T04:02:48Z</time>
      </trkpt>
      <trkpt lat="43.55382" lon="2.99941">
        <ele>517</ele>
        <time>2017-03-31T04:04:48Z</time>
      </trkpt>
      <trkpt lat="43.55366" lon="2.99948">
        <ele>517</ele>
        <time>2017-03-31T04:06:48Z</time>
      </trkpt>
      <trkpt lat="43.55363" lon="2.99972">
        <ele>517</ele>
        <time>2017-03-31T04:08:48Z</time>
      </trkpt>
      <trkpt lat="43.55365" lon="2.9998">
        <ele>517</ele>
        <time>2017-03-31T04:10:48Z</time>
      </trkpt>
      <trkpt lat="43.55374" lon="2.99995">
        <ele>518</ele>
        <time>2017-03-31T04:12:48Z</time>
      </trkpt>
      <trkpt lat="43.55384" lon="3.00004">
        <ele>513</ele>
        <time>2017-03-31T04:14:48Z</time>
      </trkpt>
      <trkpt lat="43.55393" lon="3.0001">
        <ele>514</ele>
        <time>2017-03-31T04:16:48Z</time>
      </trkpt>
      <trkpt lat="43.55397" lon="3.00022">
        <ele>513</ele>
        <time>2017-03-31T04:18:48Z</time>
      </trkpt>
      <trkpt lat="43.55399" lon="3.00031">
        <ele>511</ele>
        <time>2017-03-31T04:20:48Z</time>
      </trkpt>
      <trkpt lat="43.55399" lon="3.00053">
        <ele>507</ele>
        <time>2017-03-31T04:22:48Z</time>
      </trkpt>
      <trkpt lat="43.55411" lon="3.00066">
        <ele>506</ele>
        <time>2017-03-31T04:24:48Z</time>
      </trkpt>
      <trkpt lat="43.55416" lon="3.00077">
        <ele>505</ele>
        <time>2017-03-31T04:26:48Z</time>
      </trkpt>
      <trkpt lat="43.55419" lon="3.00083">
        <ele>505</ele>
        <time>2017-03-31T04:28:48Z</time>
      </trkpt>
      <trkpt lat="43.55424" lon="3.00085">
        <ele>502</ele>
        <time>2017-03-31T04:30:48Z</time>
      </trkpt>
      <trkpt lat="43.55435" lon="3.001">
        <ele>499</ele>
        <time>2017-03-31T04:32:48Z</time>
      </trkpt>
      <trkpt lat="43.55443" lon="3.00108">
        <ele>498</ele>
        <time>2017-03-31T04:34:48Z</time>
      </trkpt>
      <trkpt lat="43.55445" lon="3.00121">
        <ele>497</ele>
        <time>2017-03-31T04:36:48Z</time>
      </trkpt>
      <trkpt lat="43.55434" lon="3.00122">
        <ele>496</ele>
        <time>2017-03-31T04:38:48Z</time>
      </trkpt>
      <trkpt lat="43.5542" lon="3.00119">
        <ele>496</ele>
        <time>2017-03-31T04:40:48Z</time>
      </trkpt>
      <trkpt lat="43.55405" lon="3.00126">
        <ele>484</ele>
        <time>2017-03-31T04:42:48Z</time>
      </trkpt>
      <trkpt lat="43.55412" lon="3.00142">
        <ele>481</ele>
        <time>2017-03-31T04:44:48Z</time>
      </trkpt>
      <trkpt lat="43.55413" lon="3.00145">
        <ele>481</ele>
        <time>2017-03-31T04:46:48Z</time>
      </trkpt>
      <trkpt lat="43.55401" lon="3.00147">
        <ele>480</ele>
        <time>2017-03-31T04:48:48Z</time>
      </trkpt>
      <trkpt lat="43.55379" lon="3.00145">
        <ele>478</ele>
        <time>2017-03-31T04:50:48Z</time>
      </trkpt>
      <trkpt lat="43.55374" lon="3.00143">
        <ele>477</ele>
        <time>2017-03-31T04:52:48Z</time>
      </trkpt>
      <trkpt lat="43.55375" lon="3.0015">
        <ele>477</ele>
        <time>2017-03-31T04:54:48Z</time>
      </trkpt>
      <trkpt lat="43.55387" lon="3.00167">
        <ele>470</ele>
        <time>2017-03-31T04:56:48Z</time>
      </trkpt>
      <trkpt lat="43.55389" lon="3.0017">
        <ele>470</ele>
        <time>2017-03-31T04:58:48Z</time>
      </trkpt>
      <trkpt lat="43.55406" lon="3.00185">
        <ele>473</ele>
        <time>2017-03-31T05:00:48Z</time>
      </trkpt>
      <trkpt lat="43.55412" lon="3.00196">
        <ele>473</ele>
        <time>2017-03-31T05:02:48Z</time>
      </trkpt>
      <trkpt lat="43.55397" lon="3.00207">
        <ele>471</ele>
        <time>2017-03-31T05:04:48Z</time>
      </trkpt>
      <trkpt lat="43.55376" lon="3.00219">
        <ele>468</ele>
        <time>2017-03-31T05:06:48Z</time>
      </trkpt>
      <trkpt lat="43.55367" lon="3.00226">
        <ele>467</ele>
        <time>2017-03-31T05:08:48Z</time>
      </trkpt>
      <trkpt lat="43.55354" lon="3.00233">
        <ele>464</ele>
        <time>2017-03-31T05:10:48Z</time>
      </trkpt>
      <trkpt lat="43.55344" lon="3.00237">
        <ele>461</ele>
        <time>2017-03-31T05:12:48Z</time>
      </trkpt>
      <trkpt lat="43.55334" lon="3.00245">
        <ele>457</ele>
        <time>2017-03-31T05:14:48Z</time>
      </trkpt>
      <trkpt lat="43.55327" lon="3.00262">
        <ele>453</ele>
        <time>2017-03-31T05:16:48Z</time>
      </trkpt>
      <trkpt lat="43.55326" lon="3.00278">
        <ele>452</ele>
        <time>2017-03-31T05:18:48Z</time>
      </trkpt>
      <trkpt lat="43.5532" lon="3.00311">
        <ele>454</ele>
        <time>2017-03-31T05:20:48Z</time>
      </trkpt>
      <trkpt lat="43.55313" lon="3.00332">
        <ele>455</ele>
        <time>2017-03-31T05:22:48Z</time>
      </trkpt>
      <trkpt lat="43.55305" lon="3.00356">
        <ele>456</ele>
        <time>2017-03-31T05:24:48Z</time>
      </trkpt>
      <trkpt lat="43.55309" lon="3.00394">
        <ele>456</ele>
        <time>2017-03-31T05:26:48Z</time>
      </trkpt>
      <trkpt lat="43.55309" lon="3.00409">
        <ele>455</ele>
        <time>2017-03-31T05:28:48Z</time>
      </trkpt>
      <trkpt lat="43.55315" lon="3.00442">
        <ele>456</ele>
        <time>2017-03-31T05:30:48Z</time>
      </trkpt>
      <trkpt lat="43.55317" lon="3.00462">
        <ele>456</ele>
        <time>2017-03-31T05:32:48Z</time>
      </trkpt>
      <trkpt lat="43.5532" lon="3.00473">
        <ele>455</ele>
        <time>2017-03-31T05:34:48Z</time>
      </trkpt>
      <trkpt lat="43.55323" lon="3.00482">
        <ele>455</ele>
        <time>2017-03-31T05:36:48Z</time>
      </trkpt>
      <trkpt lat="43.55323" lon="3.00495">
        <ele>454</ele>
        <time>2017-03-31T05:38:48Z</time>
      </trkpt>
      <trkpt lat="43.55328" lon="3.00509">
        <ele>454</ele>
        <time>2017-03-31T05:40:48Z</time>
      </trkpt>
      <trkpt lat="43.55327" lon="3.00515">
        <ele>455</ele>
        <time>2017-03-31T05:42:48Z</time>
      </trkpt>
      <trkpt lat="43.55325" lon="3.00516">
        <ele>456</ele>
        <time>2017-03-31T05:44:48Z</time>
      </trkpt>
      <trkpt lat="43.55329" lon="3.00522">
        <ele>456</ele>
        <time>2017-03-31T05:46:48Z</time>
      </trkpt>
      <trkpt lat="43.55329" lon="3.00524">
        <ele>457</ele>
        <time>2017-03-31T05:48:48Z</time>
      </trkpt>
      <trkpt lat="43.5533" lon="3.00527">
        <ele>457</ele>
        <time>2017-03-31T05:50:48Z</time>
      </trkpt>
      <trkpt lat="43.55334" lon="3.0054">
        <ele>463</ele>
        <time>2017-03-31T05:52:48Z</time>
      </trkpt>
      <trkpt lat="43.55338" lon="3.0055">
        <ele>463</ele>
        <time>2017-03-31T05:54:48Z</time>
      </trkpt>
      <trkpt lat="43.55341" lon="3.00562">
        <ele>463</ele>
        <time>2017-03-31T05:56:48Z</time>
      </trkpt>
      <trkpt lat="43.55339" lon="3.00583">
        <ele>458</ele>
        <time>2017-03-31T05:58:48Z</time>
      </trkpt>
      <trkpt lat="43.55339" lon="3.00595">
        <ele>462</ele>
        <time>2017-03-31T06:00:48Z</time>
      </trkpt>
      <trkpt lat="43.55329" lon="3.00612">
        <ele>460</ele>
        <time>2017-03-31T06:02:48Z</time>
      </trkpt>
      <trkpt lat="43.55315" lon="3.00627">
        <ele>462</ele>
        <time>2017-03-31T06:04:48Z</time>
      </trkpt>
      <trkpt lat="43.55305" lon="3.00644">
        <ele>462</ele>
        <time>2017-03-31T06:06:48Z</time>
      </trkpt>
      <trkpt lat="43.55287" lon="3.00668">
        <ele>463</ele>
        <time>2017-03-31T06:08:48Z</time>
      </trkpt>
      <trkpt lat="43.55278" lon="3.0069">
        <ele>463</ele>
        <time>2017-03-31T06:10:48Z</time>
      </trkpt>
      <trkpt lat="43.55273" lon="3.00702">
        <ele>463</ele>
        <time>2017-03-31T06:12:48Z</time>
      </trkpt>
      <trkpt lat="43.55275" lon="3.00716">
        <ele>463</ele>
        <time>2017-03-31T06:14:48Z</time>
      </trkpt>
      <trkpt lat="43.55275" lon="3.00737">
        <ele>463</ele>
        <time>2017-03-31T06:16:48Z</time>
      </trkpt>
      <trkpt lat="43.55276" lon="3.00758">
        <ele>463</ele>
        <time>2017-03-31T06:18:48Z</time>
      </trkpt>
      <trkpt lat="43.55271" lon="3.00777">
        <ele>463</ele>
        <time>2017-03-31T06:20:48Z</time>
      </trkpt>
      <trkpt lat="43.55266" lon="3.00798">
        <ele>463</ele>
        <time>2017-03-31T06:22:48Z</time>
      </trkpt>
      <trkpt lat="43.55267" lon="3.00814">
        <ele>463</ele>
        <time>2017-03-31T06:24:48Z</time>
      </trkpt>
      <trkpt lat="43.55267" lon="3.00826">
        <ele>463</ele>
        <time>2017-03-31T06:26:48Z</time>
      </trkpt>
      <trkpt lat="43.55264" lon="3.00851">
        <ele>467</ele>
        <time>2017-03-31T06:28:48Z</time>
      </trkpt>
      <trkpt lat="43.55262" lon="3.0087">
        <ele>468</ele>
        <time>2017-03-31T06:30:48Z</time>
      </trkpt>
      <trkpt lat="43.55258" lon="3.00892">
        <ele>469</ele>
        <time>2017-03-31T06:32:48Z</time>
      </trkpt>
      <trkpt lat="43.55256" lon="3.00912">
        <ele>467</ele>
        <time>2017-03-31T06:34:48Z</time>
      </trkpt>
      <trkpt lat="43.55253" lon="3.00932">
        <ele>472</ele>
        <time>2017-03-31T06:36:48Z</time>
      </trkpt>
      <trkpt lat="43.55252" lon="3.0094">
        <ele>473</ele>
        <time>2017-03-31T06:38:48Z</time>
      </trkpt>
      <trkpt lat="43.55253" lon="3.0096">
        <ele>475</ele>
        <time>2017-03-31T06:40:48Z</time>
      </trkpt>
      <trkpt lat="43.55251" lon="3.00969">
        <ele>475</ele>
        <time>2017-03-31T06:42:48Z</time>
      </trkpt>
      <trkpt lat="43.55241" lon="3.00985">
        <ele>474</ele>
        <time>2017-03-31T06:44:48Z</time>
      </trkpt>
      <trkpt lat="43.55231" lon="3.01">
        <ele>473</ele>
        <time>2017-03-31T06:46:48Z</time>
      </trkpt>
      <trkpt lat="43.55225" lon="3.01012">
        <ele>474</ele>
        <time>2017-03-31T06:48:48Z</time>
      </trkpt>
      <trkpt lat="43.55217" lon="3.01027">
        <ele>475</ele>
        <time>2017-03-31T06:50:48Z</time>
      </trkpt>
      <trkpt lat="43.55206" lon="3.01041">
        <ele>475</ele>
        <time>2017-03-31T06:52:48Z</time>
      </trkpt>
      <trkpt lat="43.55196" lon="3.01058">
        <ele>475</ele>
        <time>2017-03-31T06:54:48Z</time>
      </trkpt>
      <trkpt lat="43.55189" lon="3.01072">
        <ele>473</ele>
        <time>2017-03-31T06:56:48Z</time>
      </trkpt>
      <trkpt lat="43.55177" lon="3.01087">
        <ele>472</ele>
        <time>2017-03-31T06:58:48Z</time>
      </trkpt>
      <trkpt lat="43.55165" lon="3.01101">
        <ele>473</ele>
        <time>2017-03-31T07:00:48Z</time>
      </trkpt>
      <trkpt lat="43.55154" lon="3.01115">
        <ele>474</ele>
        <time>2017-03-31T07:02:48Z</time>
      </trkpt>
      <trkpt lat="43.55143" lon="3.01127">
        <ele>475</ele>
        <time>2017-03-31T07:04:48Z</time>
      </trkpt>
      <trkpt lat="43.55134" lon="3.01137">
        <ele>475</ele>
        <time>2017-03-31T07:06:48Z</time>
      </trkpt>
      <trkpt lat="43.55123" lon="3.01143">
        <ele>476</ele>
        <time>2017-03-31T07:08:48Z</time>
      </trkpt>
      <trkpt lat="43.55121" lon="3.01144">
        <ele>476</ele>
        <time>2017-03-31T07:10:48Z</time>
      </trkpt>
      <trkpt lat="43.55107" lon="3.01153">
        <ele>476</ele>
        <time>2017-03-31T07:12:48Z</time>
      </trkpt>
      <trkpt lat="43.55096" lon="3.01163">
        <ele>476</ele>
        <time>2017-03-31T07:14:48Z</time>
      </trkpt>
      <trkpt lat="43.5508" lon="3.0118">
        <ele>479</ele>
        <time>2017-03-31T07:16:48Z</time>
      </trkpt>
      <trkpt lat="43.55056" lon="3.01212">
        <ele>482</ele>
        <time>2017-03-31T07:18:48Z</time>
      </trkpt>
      <trkpt lat="43.55045" lon="3.01231">
        <ele>482</ele>
        <time>2017-03-31T07:20:48Z</time>
      </trkpt>
      <trkpt lat="43.55035" lon="3.01244">
        <ele>482</ele>
        <time>2017-03-31T07:22:48Z</time>
      </trkpt>
      <trkpt lat="43.55029" lon="3.01267">
        <ele>480</ele>
        <time>2017-03-31T07:24:48Z</time>
      </trkpt>
      <trkpt lat="43.55021" lon="3.01287">
        <ele>480</ele>
        <time>2017-03-31T07:26:48Z</time>
      </trkpt>
      <trkpt lat="43.55013" lon="3.01306">
        <ele>480</ele>
        <time>2017-03-31T07:28:48Z</time>
      </trkpt>
      <trkpt lat="43.55009" lon="3.01322">
        <ele>479</ele>
        <time>2017-03-31T07:30:48Z</time>
      </trkpt>
      <trkpt lat="43.55005" lon="3.01339">
        <ele>480</ele>
        <time>2017-03-31T07:32:48Z</time>
      </trkpt>
      <trkpt lat="43.55001" lon="3.01358">
        <ele>480</ele>
        <time>2017-03-31T07:34:48Z</time>
      </trkpt>
      <trkpt lat="43.54996" lon="3.01374">
        <ele>483</ele>
        <time>2017-03-31T07:36:48Z</time>
      </trkpt>
      <trkpt lat="43.54993" lon="3.01389">
        <ele>483</ele>
        <time>2017-03-31T07:38:48Z</time>
      </trkpt>
      <trkpt lat="43.54988" lon="3.01406">
        <ele>482</ele>
        <time>2017-03-31T07:40:48Z</time>
      </trkpt>
      <trkpt lat="43.54985" lon="3.01423">
        <ele>480</ele>
        <time>2017-03-31T07:42:48Z</time>
      </trkpt>
      <trkpt lat="43.54983" lon="3.01428">
        <ele>481</ele>
        <time>2017-03-31T07:44:48Z</time>
      </trkpt>
      <trkpt lat="43.54984" lon="3.01426">
        <ele>481</ele>
        <time>2017-03-31T07:46:48Z</time>
      </trkpt>
      <trkpt lat="43.54987" lon="3.01416">
        <ele>481</ele>
        <time>2017-03-31T07:48:48Z</time>
      </trkpt>
      <trkpt lat="43.5499" lon="3.014">
        <ele>482</ele>
        <time>2017-03-31T07:50:48Z</time>
      </trkpt>
      <trkpt lat="43.54991" lon="3.01398">
        <ele>482</ele>
        <time>2017-03-31T07:52:48Z</time>
      </trkpt>
      <trkpt lat="43.54993" lon="3.01376">
        <ele>483</ele>
        <time>2017-03-31T07:54:48Z</time>
      </trkpt>
      <trkpt lat="43.54993" lon="3.01354">
        <ele>483</ele>
        <time>2017-03-31T07:56:48Z</time>
      </trkpt>
      <trkpt lat="43.54996" lon="3.01331">
        <ele>481</ele>
        <time>2017-03-31T07:58:48Z</time>
      </trkpt>
      <trkpt lat="43.54997" lon="3.01313">
        <ele>486</ele>
        <time>2017-03-31T08:00:48Z</time>
      </trkpt>
      <trkpt lat="43.55" lon="3.01291">
        <ele>489</ele>
        <time>2017-03-31T08:02:48Z</time>
      </trkpt>
      <trkpt lat="43.55001" lon="3.01274">
        <ele>481</ele>
        <time>2017-03-31T08:04:48Z</time>
      </trkpt>
      <trkpt lat="43.55004" lon="3.01261">
        <ele>483</ele>
        <time>2017-03-31T08:06:48Z</time>
      </trkpt>
      <trkpt lat="43.55006" lon="3.01247">
        <ele>485</ele>
        <time>2017-03-31T08:08:48Z</time>
      </trkpt>
      <trkpt lat="43.5501" lon="3.01234">
        <ele>485</ele>
        <time>2017-03-31T08:10:48Z</time>
      </trkpt>
      <trkpt lat="43.55013" lon="3.01222">
        <ele>485</ele>
        <time>2017-03-31T08:12:48Z</time>
      </trkpt>
      <trkpt lat="43.55013" lon="3.01211">
        <ele>486</ele>
        <time>2017-03-31T08:14:48Z</time>
      </trkpt>
      <trkpt lat="43.55014" lon="3.01204">
        <ele>487</ele>
        <time>2017-03-31T08:16:48Z</time>
      </trkpt>
      <trkpt lat="43.55019" lon="3.0119">
        <ele>489</ele>
        <time>2017-03-31T08:18:48Z</time>
      </trkpt>
      <trkpt lat="43.55021" lon="3.01185">
        <ele>489</ele>
        <time>2017-03-31T08:20:48Z</time>
      </trkpt>
      <trkpt lat="43.55024" lon="3.01176">
        <ele>490</ele>
        <time>2017-03-31T08:22:48Z</time>
      </trkpt>
      <trkpt lat="43.55023" lon="3.01172">
        <ele>491</ele>
        <time>2017-03-31T08:24:48Z</time>
      </trkpt>
      <trkpt lat="43.55016" lon="3.01179">
        <ele>492</ele>
        <time>2017-03-31T08:26:48Z</time>
      </trkpt>
      <trkpt lat="43.55003" lon="3.01183">
        <ele>494</ele>
        <time>2017-03-31T08:28:48Z</time>
      </trkpt>
      <trkpt lat="43.54999" lon="3.01184">
        <ele>504</ele>
        <time>2017-03-31T08:30:48Z</time>
      </trkpt>
      <trkpt lat="43.54989" lon="3.01188">
        <ele>504</ele>
        <time>2017-03-31T08:32:48Z</time>
      </trkpt>
      <trkpt lat="43.54982" lon="3.01192">
        <ele>505</ele>
        <time>2017-03-31T08:34:48Z</time>
      </trkpt>
      <trkpt lat="43.54978" lon="3.01195">
        <ele>505</ele>
        <time>2017-03-31T08:36:48Z</time>
      </trkpt>
      <trkpt lat="43.5497" lon="3.012">
        <ele>506</ele>
        <time>2017-03-31T08:38:48Z</time>
      </trkpt>
      <trkpt lat="43.54961" lon="3.01203">
        <ele>507</ele>
        <time>2017-03-31T08:40:48Z</time>
      </trkpt>
      <trkpt lat="43.5495" lon="3.01206">
        <ele>508</ele>
        <time>2017-03-31T08:42:48Z</time>
      </trkpt>
      <trkpt lat="43.54943" lon="3.01209">
        <ele>509</ele>
        <time>2017-03-31T08:44:48Z</time>
      </trkpt>
      <trkpt lat="43.54932" lon="3.01211">
        <ele>510</ele>
        <time>2017-03-31T08:46:48Z</time>
      </trkpt>
      <trkpt lat="43.54931" lon="3.01212">
        <ele>510</ele>
        <time>2017-03-31T08:48:48Z</time>
      </trkpt>
      <trkpt lat="43.54922" lon="3.01216">
        <ele>510</ele>
        <time>2017-03-31T08:50:48Z</time>
      </trkpt>
      <trkpt lat="43.54908" lon="3.01222">
        <ele>520</ele>
        <time>2017-03-31T08:52:48Z</time>
      </trkpt>
      <trkpt lat="43.54906" lon="3.01222">
        <ele>520</ele>
        <time>2017-03-31T08:54:48Z</time>
      </trkpt>
      <trkpt lat="43.549" lon="3.01224">
        <ele>520</ele>
        <time>2017-03-31T08:56:48Z</time>
      </trkpt>
      <trkpt lat="43.54889" lon="3.01229">
        <ele>520</ele>
        <time>2017-03-31T08:58:48Z</time>
      </trkpt>
      <trkpt lat="43.54877" lon="3.01229">
        <ele>522</ele>
        <time>2017-03-31T09:00:48Z</time>
      </trkpt>
      <trkpt lat="43.54868" lon="3.01226">
        <ele>522</ele>
        <time>2017-03-31T09:02:48Z</time>
      </trkpt>
      <trkpt lat="43.54844" lon="3.01222">
        <ele>523</ele>
        <time>2017-03-31T09:04:48Z</time>
      </trkpt>
      <trkpt lat="43.5483" lon="3.01213">
        <ele>530</ele>
        <time>2017-03-31T09:06:48Z</time>
      </trkpt>
      <trkpt lat="43.54824" lon="3.01209">
        <ele>530</ele>
        <time>2017-03-31T09:08:48Z</time>
      </trkpt>
      <trkpt lat="43.54815" lon="3.01206">
        <ele>531</ele>
        <time>2017-03-31T09:10:48Z</time>
      </trkpt>
      <trkpt lat="43.5481" lon="3.01195">
        <ele>532</ele>
        <time>2017-03-31T09:12:48Z</time>
      </trkpt>
      <trkpt lat="43.54815" lon="3.01181">
        <ele>534</ele>
        <time>2017-03-31T09:14:48Z</time>
      </trkpt>
      <trkpt lat="43.54823" lon="3.01175">
        <ele>535</ele>
        <time>2017-03-31T09:16:48Z</time>
      </trkpt>
      <trkpt lat="43.54831" lon="3.01166">
        <ele>538</ele>
        <time>2017-03-31T09:18:48Z</time>
      </trkpt>
      <trkpt lat="43.54842" lon="3.01155">
        <ele>539</ele>
        <time>2017-03-31T09:20:48Z</time>
      </trkpt>
      <trkpt lat="43.54853" lon="3.01142">
        <ele>540</ele>
        <time>2017-03-31T09:22:48Z</time>
      </trkpt>
      <trkpt lat="43.54858" lon="3.01135">
        <ele>541</ele>
        <time>2017-03-31T09:24:48Z</time>
      </trkpt>
      <trkpt lat="43.54872" lon="3.01124">
        <ele>542</ele>
        <time>2017-03-31T09:26:48Z</time>
      </trkpt>
      <trkpt lat="43.54886" lon="3.01099">
        <ele>543</ele>
        <time>2017-03-31T09:28:48Z</time>
      </trkpt>
      <trkpt lat="43.54889" lon="3.01089">
        <ele>544</ele>
        <time>2017-03-31T09:30:48Z</time>
      </trkpt>
      <trkpt lat="43.54896" lon="3.01075">
        <ele>554</ele>
        <time>2017-03-31T09:32:48Z</time>
      </trkpt>
      <trkpt lat="43.54902" lon="3.01065">
        <ele>554</ele>
        <time>2017-03-31T09:34:48Z</time>
      </trkpt>
      <trkpt lat="43.54899" lon="3.01059">
        <ele>556</ele>
        <time>2017-03-31T09:36:48Z</time>
      </trkpt>
      <trkpt lat="43.54893" lon="3.01062">
        <ele>556</ele>
        <time>2017-03-31T09:38:48Z</time>
      </trkpt>
      <trkpt lat="43.54885" lon="3.01065">
        <ele>557</ele>
        <time>2017-03-31T09:40:48Z</time>
      </trkpt>
      <trkpt lat="43.54873" lon="3.01069">
        <ele>558</ele>
        <time>2017-03-31T09:42:48Z</time>
      </trkpt>
      <trkpt lat="43.54856" lon="3.01071">
        <ele>558</ele>
        <time>2017-03-31T09:44:48Z</time>
      </trkpt>
      <trkpt lat="43.54843" lon="3.0107">
        <ele>558</ele>
        <time>2017-03-31T09:46:48Z</time>
      </trkpt>
      <trkpt lat="43.54827" lon="3.01063">
        <ele>563</ele>
        <time>2017-03-31T09:48:48Z</time>
      </trkpt>
      <trkpt lat="43.54813" lon="3.01055">
        <ele>565</ele>
        <time>2017-03-31T09:50:48Z</time>
      </trkpt>
      <trkpt lat="43.54796" lon="3.01047">
        <ele>567</ele>
        <time>2017-03-31T09:52:48Z</time>
      </trkpt>
      <trkpt lat="43.54794" lon="3.01045">
        <ele>567</ele>
        <time>2017-03-31T09:54:48Z</time>
      </trkpt>
      <trkpt lat="43.54791" lon="3.01039">
        <ele>568</ele>
        <time>2017-03-31T09:56:48Z</time>
      </trkpt>
      <trkpt lat="43.54789" lon="3.01038">
        <ele>568</ele>
        <time>2017-03-31T09:58:48Z</time>
      </trkpt>
      <trkpt lat="43.54786" lon="3.0104">
        <ele>567</ele>
        <time>2017-03-31T10:00:48Z</time>
      </trkpt>
      <trkpt lat="43.54784" lon="3.01038">
        <ele>568</ele>
        <time>2017-03-31T10:02:48Z</time>
      </trkpt>
      <trkpt lat="43.54785" lon="3.0103">
        <ele>569</ele>
        <time>2017-03-31T10:04:48Z</time>
      </trkpt>
      <trkpt lat="43.54783" lon="3.01026">
        <ele>569</ele>
        <time>2017-03-31T10:06:48Z</time>
      </trkpt>
      <trkpt lat="43.54781" lon="3.01019">
        <ele>570</ele>
        <time>2017-03-31T10:08:48Z</time>
      </trkpt>
      <trkpt lat="43.54783" lon="3.01014">
        <ele>571</ele>
        <time>2017-03-31T10:10:48Z</time>
      </trkpt>
      <trkpt lat="43.54783" lon="3.01007">
        <ele>571</ele>
        <time>2017-03-31T10:12:48Z</time>
      </trkpt>
      <trkpt lat="43.54781" lon="3.01001">
        <ele>572</ele>
        <time>2017-03-31T10:14:48Z</time>
      </trkpt>
      <trkpt lat="43.54779" lon="3.00995">
        <ele>587</ele>
        <time>2017-03-31T10:16:48Z</time>
      </trkpt>
      <trkpt lat="43.54778" lon="3.00993">
        <ele>587</ele>
        <time>2017-03-31T10:18:48Z</time>
      </trkpt>
      <trkpt lat="43.54774" lon="3.00989">
        <ele>587</ele>
        <time>2017-03-31T10:20:48Z</time>
      </trkpt>
      <trkpt lat="43.54773" lon="3.00983">
        <ele>588</ele>
        <time>2017-03-31T10:22:48Z</time>
      </trkpt>
      <trkpt lat="43.54774" lon="3.00975">
        <ele>589</ele>
        <time>2017-03-31T10:24:48Z</time>
      </trkpt>
      <trkpt lat="43.5477" lon="3.00968">
        <ele>590</ele>
        <time>2017-03-31T10:26:48Z</time>
      </trkpt>
      <trkpt lat="43.54766" lon="3.00963">
        <ele>591</ele>
        <time>2017-03-31T10:28:48Z</time>
      </trkpt>
      <trkpt lat="43.54762" lon="3.00949">
        <ele>594</ele>
        <time>2017-03-31T10:30:48Z</time>
      </trkpt>
      <trkpt lat="43.54758" lon="3.00942">
        <ele>596</ele>
        <time>2017-03-31T10:32:48Z</time>
      </trkpt>
      <trkpt lat="43.54753" lon="3.00938">
        <ele>597</ele>
        <time>2017-03-31T10:34:48Z</time>
      </trkpt>
      <trkpt lat="43.54749" lon="3.00934">
        <ele>600</ele>
        <time>2017-03-31T10:36:48Z</time>
      </trkpt>
      <trkpt lat="43.54746" lon="3.00928">
        <ele>601</ele>
        <time>2017-03-31T10:38:48Z</time>
      </trkpt>
      <trkpt lat="43.54742" lon="3.00924">
        <ele>601</ele>
        <time>2017-03-31T10:40:48Z</time>
      </trkpt>
      <trkpt lat="43.54739" lon="3.00922">
        <ele>601</ele>
        <time>2017-03-31T10:42:48Z</time>
      </trkpt>
      <trkpt lat="43.54734" lon="3.00918">
        <ele>601</ele>
        <time>2017-03-31T10:44:48Z</time>
      </trkpt>
      <trkpt lat="43.54731" lon="3.00915">
        <ele>613</ele>
        <time>2017-03-31T10:46:48Z</time>
      </trkpt>
      <trkpt lat="43.54729" lon="3.00908">
        <ele>614</ele>
        <time>2017-03-31T10:48:48Z</time>
      </trkpt>
      <trkpt lat="43.54724" lon="3.00903">
        <ele>615</ele>
        <time>2017-03-31T10:50:48Z</time>
      </trkpt>
      <trkpt lat="43.5472" lon="3.00903">
        <ele>616</ele>
        <time>2017-03-31T10:52:48Z</time>
      </trkpt>
      <trkpt lat="43.54715" lon="3.00901">
        <ele>617</ele>
        <time>2017-03-31T10:54:48Z</time>
      </trkpt>
      <trkpt lat="43.54712" lon="3.00897">
        <ele>618</ele>
        <time>2017-03-31T10:56:48Z</time>
      </trkpt>
      <trkpt lat="43.54707" lon="3.00893">
        <ele>618</ele>
        <time>2017-03-31T10:58:48Z</time>
      </trkpt>
      <trkpt lat="43.54704" lon="3.00886">
        <ele>619</ele>
        <time>2017-03-31T11:00:48Z</time>
      </trkpt>
      <trkpt lat="43.54703" lon="3.00879">
        <ele>620</ele>
        <time>2017-03-31T11:02:48Z</time>
      </trkpt>
      <trkpt lat="43.54702" lon="3.00876">
        <ele>621</ele>
        <time>2017-03-31T11:04:48Z</time>
      </trkpt>
      <trkpt lat="43.547" lon="3.00873">
        <ele>621</ele>
        <time>2017-03-31T11:06:48Z</time>
      </trkpt>
      <trkpt lat="43.54697" lon="3.00871">
        <ele>622</ele>
        <time>2017-03-31T11:08:48Z</time>
      </trkpt>
      <trkpt lat="43.54696" lon="3.00869">
        <ele>622</ele>
        <time>2017-03-31T11:10:48Z</time>
      </trkpt>
      <trkpt lat="43.54694" lon="3.00866">
        <ele>622</ele>
        <time>2017-03-31T11:12:48Z</time>
      </trkpt>
      <trkpt lat="43.5469" lon="3.00864">
        <ele>623</ele>
        <time>2017-03-31T11:14:48Z</time>
      </trkpt>
      <trkpt lat="43.54688" lon="3.00861">
        <ele>624</ele>
        <time>2017-03-31T11:16:48Z</time>
      </trkpt>
      <trkpt lat="43.54686" lon="3.00858">
        <ele>624</ele>
        <time>2017-03-31T11:18:48Z</time>
      </trkpt>
      <trkpt lat="43.54684" lon="3.00854">
        <ele>625</ele>
        <time>2017-03-31T11:20:48Z</time>
      </trkpt>
      <trkpt lat="43.54682" lon="3.00851">
        <ele>626</ele>
        <time>2017-03-31T11:22:48Z</time>
      </trkpt>
      <trkpt lat="43.54674" lon="3.00847">
        <ele>627</ele>
        <time>2017-03-31T11:24:48Z</time>
      </trkpt>
      <trkpt lat="43.54671" lon="3.00843">
        <ele>629</ele>
        <time>2017-03-31T11:26:48Z</time>
      </trkpt>
      <trkpt lat="43.54667" lon="3.00839">
        <ele>631</ele>
        <time>2017-03-31T11:28:48Z</time>
      </trkpt>
      <trkpt lat="43.54664" lon="3.00836">
        <ele>632</ele>
        <time>2017-03-31T11:30:48Z</time>
      </trkpt>
      <trkpt lat="43.54661" lon="3.00834">
        <ele>632</ele>
        <time>2017-03-31T11:32:48Z</time>
      </trkpt>
      <trkpt lat="43.54659" lon="3.0083">
        <ele>634</ele>
        <time>2017-03-31T11:34:48Z</time>
      </trkpt>
      <trkpt lat="43.54653" lon="3.00825">
        <ele>635</ele>
        <time>2017-03-31T11:36:48Z</time>
      </trkpt>
      <trkpt lat="43.54652" lon="3.00816">
        <ele>635</ele>
        <time>2017-03-31T11:38:48Z</time>
      </trkpt>
      <trkpt lat="43.5465" lon="3.00811">
        <ele>635</ele>
        <time>2017-03-31T11:40:48Z</time>
      </trkpt>
      <trkpt lat="43.54648" lon="3.00799">
        <ele>636</ele>
        <time>2017-03-31T11:42:48Z</time>
      </trkpt>
      <trkpt lat="43.54647" lon="3.00791">
        <ele>636</ele>
        <time>2017-03-31T11:44:48Z</time>
      </trkpt>
      <trkpt lat="43.54647" lon="3.0079">
        <ele>636</ele>
        <time>2017-03-31T11:46:48Z</time>
      </trkpt>
      <trkpt lat="43.54647" lon="3.00787">
        <ele>636</ele>
        <time>2017-03-31T11:48:48Z</time>
      </trkpt>
      <trkpt lat="43.54648" lon="3.00787">
        <ele>636</ele>
        <time>2017-03-31T11:50:48Z</time>
      </trkpt>
      <trkpt lat="43.5465" lon="3.00785">
        <ele>636</ele>
        <time>2017-03-31T11:52:48Z</time>
      </trkpt>
      <trkpt lat="43.5465" lon="3.00785">
        <ele>636</ele>
        <time>2017-03-31T11:54:48Z</time>
      </trkpt>
      <trkpt lat="43.54649" lon="3.00785">
        <ele>636</ele>
        <time>2017-03-31T11:56:48Z</time>
      </trkpt>
      <trkpt lat="43.54647" lon="3.00786">
        <ele>636</ele>
        <time>2017-03-31T11:58:48Z</time>
      </trkpt>
      <trkpt lat="43.54647" lon="3.00786">
        <ele>636</ele>
        <time>2017-03-31T12:00:48Z</time>
      </trkpt>
      <trkpt lat="43.54647" lon="3.00785">
        <ele>636</ele>
        <time>2017-03-31T12:02:48Z</time>
      </trkpt>
      <trkpt lat="43.54649" lon="3.00782">
        <ele>636</ele>
        <time>2017-03-31T12:04:48Z</time>
      </trkpt>
      <trkpt lat="43.54649" lon="3.00781">
        <ele>636</ele>
        <time>2017-03-31T12:06:48Z</time>
      </trkpt>
      <trkpt lat="43.5465" lon="3.00781">
        <ele>636</ele>
        <time>2017-03-31T12:08:48Z</time>
      </trkpt>
      <trkpt lat="43.54651" lon="3.00781">
        <ele>636</ele>
        <time>2017-03-31T12:10:48Z</time>
      </trkpt>
      <trkpt lat="43.54651" lon="3.00783">
        <ele>636</ele>
        <time>2017-03-31T12:12:48Z</time>
      </trkpt>
      <trkpt lat="43.54651" lon="3.00783">
        <ele>636</ele>
        <time>2017-03-31T12:14:48Z</time>
      </trkpt>
      <trkpt lat="43.54651" lon="3.00784">
        <ele>636</ele>
        <time>2017-03-31T12:16:48Z</time>
      </trkpt>
      <trkpt lat="43.54651" lon="3.00781">
        <ele>636</ele>
        <time>2017-03-31T12:18:48Z</time>
      </trkpt>
      <trkpt lat="43.5465" lon="3.00783">
        <ele>636</ele>
        <time>2017-03-31T12:20:48Z</time>
      </trkpt>
      <trkpt lat="43.54649" lon="3.00782">
        <ele>636</ele>
        <time>2017-03-31T12:22:48Z</time>
      </trkpt>
      <trkpt lat="43.54648" lon="3.0078">
        <ele>636</ele>
        <time>2017-03-31T12:24:48Z</time>
      </trkpt>
      <trkpt lat="43.54644" lon="3.00782">
        <ele>636</ele>
        <time>2017-03-31T12:26:48Z</time>
      </trkpt>
      <trkpt lat="43.54644" lon="3.00783">
        <ele>636</ele>
        <time>2017-03-31T12:28:48Z</time>
      </trkpt>
      <trkpt lat="43.54642" lon="3.00782">
        <ele>636</ele>
        <time>2017-03-31T12:30:48Z</time>
      </trkpt>
      <trkpt lat="43.54643" lon="3.00781">
        <ele>636</ele>
        <time>2017-03-31T12:32:48Z</time>
      </trkpt>
      <trkpt lat="43.54643" lon="3.0078">
        <ele>636</ele>
        <time>2017-03-31T12:34:48Z</time>
      </trkpt>
      <trkpt lat="43.54643" lon="3.0078">
        <ele>636</ele>
        <time>2017-03-31T12:36:48Z</time>
      </trkpt>
      <trkpt lat="43.54642" lon="3.00779">
        <ele>636</ele>
        <time>2017-03-31T12:38:48Z</time>
      </trkpt>
      <trkpt lat="43.54643" lon="3.00779">
        <ele>636</ele>
        <time>2017-03-31T12:40:48Z</time>
      </trkpt>
      <trkpt lat="43.54644" lon="3.0078">
        <ele>636</ele>
        <time>2017-03-31T12:42:48Z</time>
      </trkpt>
      <trkpt lat="43.54642" lon="3.00778">
        <ele>636</ele>
        <time>2017-03-31T12:44:48Z</time>
      </trkpt>
      <trkpt lat="43.54642" lon="3.00777">
        <ele>636</ele>
        <time>2017-03-31T12:46:48Z</time>
      </trkpt>
      <trkpt lat="43.5464" lon="3.00763">
        <ele>636</ele>
        <time>2017-03-31T12:48:48Z</time>
      </trkpt>
      <trkpt lat="43.54636" lon="3.0075">
        <ele>636</ele>
        <time>2017-03-31T12:50:48Z</time>
      </trkpt>
      <trkpt lat="43.54633" lon="3.00738">
        <ele>629</ele>
        <time>2017-03-31T12:52:48Z</time>
      </trkpt>
      <trkpt lat="43.54633" lon="3.00733">
        <ele>629</ele>
        <time>2017-03-31T12:54:48Z</time>
      </trkpt>
      <trkpt lat="43.54625" lon="3.00722">
        <ele>628</ele>
        <time>2017-03-31T12:56:48Z</time>
      </trkpt>
      <trkpt lat="43.54624" lon="3.00718">
        <ele>628</ele>
        <time>2017-03-31T12:58:48Z</time>
      </trkpt>
      <trkpt lat="43.54598" lon="3.0066">
        <ele>614</ele>
        <time>2017-03-31T13:00:48Z</time>
      </trkpt>
      <trkpt lat="43.54594" lon="3.00649">
        <ele>612</ele>
        <time>2017-03-31T13:02:48Z</time>
      </trkpt>
      <trkpt lat="43.5459" lon="3.0064">
        <ele>610</ele>
        <time>2017-03-31T13:04:48Z</time>
      </trkpt>
      <trkpt lat="43.54583" lon="3.0062">
        <ele>619</ele>
        <time>2017-03-31T13:06:48Z</time>
      </trkpt>
      <trkpt lat="43.54578" lon="3.00608">
        <ele>616</ele>
        <time>2017-03-31T13:08:48Z</time>
      </trkpt>
      <trkpt lat="43.54567" lon="3.00585">
        <ele>612</ele>
        <time>2017-03-31T13:10:48Z</time>
      </trkpt>
      <trkpt lat="43.54556" lon="3.00562">
        <ele>609</ele>
        <time>2017-03-31T13:12:48Z</time>
      </trkpt>
      <trkpt lat="43.54553" lon="3.00546">
        <ele>609</ele>
        <time>2017-03-31T13:14:48Z</time>
      </trkpt>
      <trkpt lat="43.54551" lon="3.00531">
        <ele>608</ele>
        <time>2017-03-31T13:16:48Z</time>
      </trkpt>
      <trkpt lat="43.54545" lon="3.00517">
        <ele>608</ele>
        <time>2017-03-31T13:18:48Z</time>
      </trkpt>
      <trkpt lat="43.54539" lon="3.00492">
        <ele>601</ele>
        <time>2017-03-31T13:20:48Z</time>
      </trkpt>
      <trkpt lat="43.54533" lon="3.0046">
        <ele>600</ele>
        <time>2017-03-31T13:22:48Z</time>
      </trkpt>
      <trkpt lat="43.54533" lon="3.00418">
        <ele>598</ele>
        <time>2017-03-31T13:24:48Z</time>
      </trkpt>
      <trkpt lat="43.54528" lon="3.00389">
        <ele>588</ele>
        <time>2017-03-31T13:26:48Z</time>
      </trkpt>
      <trkpt lat="43.54529" lon="3.00385">
        <ele>587</ele>
        <time>2017-03-31T13:28:48Z</time>
      </trkpt>
      <trkpt lat="43.5453" lon="3.00365">
        <ele>585</ele>
        <time>2017-03-31T13:30:48Z</time>
      </trkpt>
      <trkpt lat="43.54528" lon="3.00352">
        <ele>584</ele>
        <time>2017-03-31T13:32:48Z</time>
      </trkpt>
      <trkpt lat="43.54518" lon="3.00343">
        <ele>585</ele>
        <time>2017-03-31T13:34:48Z</time>
      </trkpt>
      <trkpt lat="43.54503" lon="3.00327">
        <ele>581</ele>
        <time>2017-03-31T13:36:48Z</time>
      </trkpt>
      <trkpt lat="43.54485" lon="3.0031">
        <ele>585</ele>
        <time>2017-03-31T13:38:48Z</time>
      </trkpt>
      <trkpt lat="43.54482" lon="3.00305">
        <ele>585</ele>
        <time>2017-03-31T13:40:48Z</time>
      </trkpt>
      <trkpt lat="43.54474" lon="3.00293">
        <ele>584</ele>
        <time>2017-03-31T13:42:48Z</time>
      </trkpt>
      <trkpt lat="43.54466" lon="3.00286">
        <ele>583</ele>
        <time>2017-03-31T13:44:48Z</time>
      </trkpt>
      <trkpt lat="43.54463" lon="3.00278">
        <ele>583</ele>
        <time>2017-03-31T13:46:48Z</time>
      </trkpt>
      <trkpt lat="43.54454" lon="3.00255">
        <ele>582</ele>
        <time>2017-03-31T13:48:48Z</time>
      </trkpt>
      <trkpt lat="43.54439" lon="3.00232">
        <ele>565</ele>
        <time>2017-03-31T13:50:48Z</time>
      </trkpt>
      <trkpt lat="43.54428" lon="3.00219">
        <ele>563</ele>
        <time>2017-03-31T13:52:48Z</time>
      </trkpt>
      <trkpt lat="43.54418" lon="3.00198">
        <ele>558</ele>
        <time>2017-03-31T13:54:48Z</time>
      </trkpt>
      <trkpt lat="43.54413" lon="3.00184">
        <ele>567</ele>
        <time>2017-03-31T13:56:48Z</time>
      </trkpt>
      <trkpt lat="43.54408" lon="3.0017">
        <ele>562</ele>
        <time>2017-03-31T13:58:48Z</time>
      </trkpt>
      <trkpt lat="43.54396" lon="3.00143">
        <ele>554</ele>
        <time>2017-03-31T14:00:48Z</time>
      </trkpt>
      <trkpt lat="43.54389" lon="3.00132">
        <ele>553</ele>
        <time>2017-03-31T14:02:48Z</time>
      </trkpt>
      <trkpt lat="43.54383" lon="3.00111">
        <ele>551</ele>
        <time>2017-03-31T14:04:48Z</time>
      </trkpt>
      <trkpt lat="43.54367" lon="3.00091">
        <ele>552</ele>
        <time>2017-03-31T14:06:48Z</time>
      </trkpt>
      <trkpt lat="43.54358" lon="3.00083">
        <ele>540</ele>
        <time>2017-03-31T14:08:48Z</time>
      </trkpt>
      <trkpt lat="43.54347" lon="3.00064">
        <ele>540</ele>
        <time>2017-03-31T14:10:48Z</time>
      </trkpt>
      <trkpt lat="43.54334" lon="3.0005">
        <ele>537</ele>
        <time>2017-03-31T14:12:48Z</time>
      </trkpt>
      <trkpt lat="43.54319" lon="3.0004">
        <ele>544</ele>
        <time>2017-03-31T14:14:48Z</time>
      </trkpt>
      <trkpt lat="43.54309" lon="3.00034">
        <ele>543</ele>
        <time>2017-03-31T14:16:48Z</time>
      </trkpt>
      <trkpt lat="43.54297" lon="3.00027">
        <ele>542</ele>
        <time>2017-03-31T14:18:48Z</time>
      </trkpt>
      <trkpt lat="43.54279" lon="3.00019">
        <ele>541</ele>
        <time>2017-03-31T14:20:48Z</time>
      </trkpt>
      <trkpt lat="43.54275" lon="3.00017">
        <ele>541</ele>
        <time>2017-03-31T14:22:48Z</time>
      </trkpt>
      <trkpt lat="43.54252" lon="3.00005">
        <ele>539</ele>
        <time>2017-03-31T14:24:48Z</time>
      </trkpt>
      <trkpt lat="43.54239" lon="2.99999">
        <ele>534</ele>
        <time>2017-03-31T14:26:48Z</time>
      </trkpt>
      <trkpt lat="43.54226" lon="2.99987">
        <ele>531</ele>
        <time>2017-03-31T14:28:48Z</time>
      </trkpt>
      <trkpt lat="43.54211" lon="2.99979">
        <ele>529</ele>
        <time>2017-03-31T14:30:48Z</time>
      </trkpt>
      <trkpt lat="43.54197" lon="2.99961">
        <ele>529</ele>
        <time>2017-03-31T14:32:48Z</time>
      </trkpt>
      <trkpt lat="43.54186" lon="2.99948">
        <ele>529</ele>
        <time>2017-03-31T14:34:48Z</time>
      </trkpt>
      <trkpt lat="43.54179" lon="2.99939">
        <ele>530</ele>
        <time>2017-03-31T14:36:48Z</time>
      </trkpt>
      <trkpt lat="43.54163" lon="2.99936">
        <ele>524</ele>
        <time>2017-03-31T14:38:48Z</time>
      </trkpt>
      <trkpt lat="43.5415" lon="2.99936">
        <ele>522</ele>
        <time>2017-03-31T14:40:48Z</time>
      </trkpt>
      <trkpt lat="43.5413" lon="2.99943">
        <ele>518</ele>
        <time>2017-03-31T14:42:48Z</time>
      </trkpt>
      <trkpt lat="43.54119" lon="2.99937">
        <ele>517</ele>
        <time>2017-03-31T14:44:48Z</time>
      </trkpt>
      <trkpt lat="43.54109" lon="2.99927">
        <ele>517</ele>
        <time>2017-03-31T14:46:48Z</time>
      </trkpt>
      <trkpt lat="43.54099" lon="2.99922">
        <ele>517</ele>
        <time>2017-03-31T14:48:48Z</time>
      </trkpt>
      <trkpt lat="43.54098" lon="2.99919">
        <ele>518</ele>
        <time>2017-03-31T14:50:48Z</time>
      </trkpt>
      <trkpt lat="43.54081" lon="2.99903">
        <ele>511</ele>
        <time>2017-03-31T14:52:48Z</time>
      </trkpt>
      <trkpt lat="43.54063" lon="2.99897">
        <ele>504</ele>
        <time>2017-03-31T14:54:48Z</time>
      </trkpt>
      <trkpt lat="43.54052" lon="2.99882">
        <ele>500</ele>
        <time>2017-03-31T14:56:48Z</time>
      </trkpt>
      <trkpt lat="43.54049" lon="2.99865">
        <ele>500</ele>
        <time>2017-03-31T14:58:48Z</time>
      </trkpt>
      <trkpt lat="43.54048" lon="2.99863">
        <ele>500</ele>
        <time>2017-03-31T15:00:48Z</time>
      </trkpt>
      <trkpt lat="43.54045" lon="2.99865">
        <ele>499</ele>
        <time>2017-03-31T15:02:48Z</time>
      </trkpt>
      <trkpt lat="43.54045" lon="2.99863">
        <ele>499</ele>
        <time>2017-03-31T15:04:48Z</time>
      </trkpt>
      <trkpt lat="43.54044" lon="2.99844">
        <ele>499</ele>
        <time>2017-03-31T15:06:48Z</time>
      </trkpt>
      <trkpt lat="43.54042" lon="2.99811">
        <ele>495</ele>
        <time>2017-03-31T15:08:48Z</time>
      </trkpt>
      <trkpt lat="43.54043" lon="2.99787">
        <ele>495</ele>
        <time>2017-03-31T15:10:48Z</time>
      </trkpt>
      <trkpt lat="43.54038" lon="2.9976">
        <ele>492</ele>
        <time>2017-03-31T15:12:48Z</time>
      </trkpt>
      <trkpt lat="43.54028" lon="2.99756">
        <ele>489</ele>
        <time>2017-03-31T15:14:48Z</time>
      </trkpt>
      <trkpt lat="43.54024" lon="2.99748">
        <ele>481</ele>
        <time>2017-03-31T15:16:48Z</time>
      </trkpt>
      <trkpt lat="43.54019" lon="2.99743">
        <ele>480</ele>
        <time>2017-03-31T15:18:48Z</time>
      </trkpt>
      <trkpt lat="43.5401" lon="2.99739">
        <ele>478</ele>
        <time>2017-03-31T15:20:48Z</time>
      </trkpt>
      <trkpt lat="43.54002" lon="2.99733">
        <ele>478</ele>
        <time>2017-03-31T15:22:48Z</time>
      </trkpt>
      <trkpt lat="43.54004" lon="2.99726">
        <ele>479</ele>
        <time>2017-03-31T15:24:48Z</time>
      </trkpt>
      <trkpt lat="43.54009" lon="2.99717">
        <ele>479</ele>
        <time>2017-03-31T15:26:48Z</time>
      </trkpt>
      <trkpt lat="43.54008" lon="2.997">
        <ele>478</ele>
        <time>2017-03-31T15:28:48Z</time>
      </trkpt>
      <trkpt lat="43.54007" lon="2.99684">
        <ele>474</ele>
        <time>2017-03-31T15:30:48Z</time>
      </trkpt>
      <trkpt lat="43.54017" lon="2.9966">
        <ele>466</ele>
        <time>2017-03-31T15:32:48Z</time>
      </trkpt>
      <trkpt lat="43.54019" lon="2.99655">
        <ele>466</ele>
        <time>2017-03-31T15:34:48Z</time>
      </trkpt>
      <trkpt lat="43.54024" lon="2.99619">
        <ele>462</ele>
        <time>2017-03-31T15:36:48Z</time>
      </trkpt>
      <trkpt lat="43.54024" lon="2.99611">
        <ele>460</ele>
        <time>2017-03-31T15:38:48Z</time>
      </trkpt>
      <trkpt lat="43.54027" lon="2.99592">
        <ele>458</ele>
        <time>2017-03-31T15:40:48Z</time>
      </trkpt>
      <trkpt lat="43.54037" lon="2.99565">
        <ele>444</ele>
        <time>2017-03-31T15:42:48Z</time>
      </trkpt>
      <trkpt lat="43.54046" lon="2.99555">
        <ele>444</ele>
        <time>2017-03-31T15:44:48Z</time>
      </trkpt>
      <trkpt lat="43.54062" lon="2.99534">
        <ele>442</ele>
        <time>2017-03-31T15:46:48Z</time>
      </trkpt>
      <trkpt lat="43.54084" lon="2.99518">
        <ele>449</ele>
        <time>2017-03-31T15:48:48Z</time>
      </trkpt>
      <trkpt lat="43.54099" lon="2.995">
        <ele>448</ele>
        <time>2017-03-31T15:50:48Z</time>
      </trkpt>
      <trkpt lat="43.54102" lon="2.99495">
        <ele>439</ele>
        <time>2017-03-31T15:52:48Z</time>
      </trkpt>
      <trkpt lat="43.54112" lon="2.99463">
        <ele>437</ele>
        <time>2017-03-31T15:54:48Z</time>
      </trkpt>
      <trkpt lat="43.54117" lon="2.99444">
        <ele>436</ele>
        <time>2017-03-31T15:56:48Z</time>
      </trkpt>
      <trkpt lat="43.5412" lon="2.99424">
        <ele>434</ele>
        <time>2017-03-31T15:58:48Z</time>
      </trkpt>
      <trkpt lat="43.54132" lon="2.99406">
        <ele>426</ele>
        <time>2017-03-31T16:00:48Z</time>
      </trkpt>
      <trkpt lat="43.54142" lon="2.99385">
        <ele>425</ele>
        <time>2017-03-31T16:02:48Z</time>
      </trkpt>
      <trkpt lat="43.54145" lon="2.99374">
        <ele>424</ele>
        <time>2017-03-31T16:04:48Z</time>
      </trkpt>
      <trkpt lat="43.54156" lon="2.99356">
        <ele>424</ele>
        <time>2017-03-31T16:06:48Z</time>
      </trkpt>
      <trkpt lat="43.54161" lon="2.99346">
        <ele>425</ele>
        <time>2017-03-31T16:08:48Z</time>
      </trkpt>
      <trkpt lat="43.5417" lon="2.99318">
        <ele>420</ele>
        <time>2017-03-31T16:10:48Z</time>
      </trkpt>
      <trkpt lat="43.54178" lon="2.99306">
        <ele>417</ele>
        <time>2017-03-31T16:12:48Z</time>
      </trkpt>
      <trkpt lat="43.54178" lon="2.99299">
        <ele>416</ele>
        <time>2017-03-31T16:14:48Z</time>
      </trkpt>
      <trkpt lat="43.54176" lon="2.99282">
        <ele>416</ele>
        <time>2017-03-31T16:16:48Z</time>
      </trkpt>
      <trkpt lat="43.54176" lon="2.9928">
        <ele>416</ele>
        <time>2017-03-31T16:18:48Z</time>
      </trkpt>
      <trkpt lat="43.54174" lon="2.99277">
        <ele>416</ele>
        <time>2017-03-31T16:20:48Z</time>
      </trkpt>
      <trkpt lat="43.54174" lon="2.99259">
        <ele>419</ele>
        <time>2017-03-31T16:22:48Z</time>
      </trkpt>
      <trkpt lat="43.54172" lon="2.99253">
        <ele>420</ele>
        <time>2017-03-31T16:24:48Z</time>
      </trkpt>
      <trkpt lat="43.54168" lon="2.99239">
        <ele>421</ele>
        <time>2017-03-31T16:26:48Z</time>
      </trkpt>
      <trkpt lat="43.54165" lon="2.9923">
        <ele>420</ele>
        <time>2017-03-31T16:28:48Z</time>
      </trkpt>
      <trkpt lat="43.54159" lon="2.99226">
        <ele>419</ele>
        <time>2017-03-31T16:30:48Z</time>
      </trkpt>
      <trkpt lat="43.54154" lon="2.99219">
        <ele>419</ele>
        <time>2017-03-31T16:32:48Z</time>
      </trkpt>
      <trkpt lat="43.54146" lon="2.99215">
        <ele>418</ele>
        <time>2017-03-31T16:34:48Z</time>
      </trkpt>
      <trkpt lat="43.54146" lon="2.99207">
        <ele>419</ele>
        <time>2017-03-31T16:36:48Z</time>
      </trkpt>
      <trkpt lat="43.54144" lon="2.99189">
        <ele>421</ele>
        <time>2017-03-31T16:38:48Z</time>
      </trkpt>
      <trkpt lat="43.54138" lon="2.99172">
        <ele>422</ele>
        <time>2017-03-31T16:40:48Z</time>
      </trkpt>
      <trkpt lat="43.54132" lon="2.99165">
        <ele>428</ele>
        <time>2017-03-31T16:42:48Z</time>
      </trkpt>
      <trkpt lat="43.54131" lon="2.99165">
        <ele>428</ele>
        <time>2017-03-31T16:44:48Z</time>
      </trkpt>
      <trkpt lat="43.54128" lon="2.99155">
        <ele>427</ele>
        <time>2017-03-31T16:46:48Z</time>
      </trkpt>
      <trkpt lat="43.54126" lon="2.99148">
        <ele>427</ele>
        <time>2017-03-31T16:48:48Z</time>
      </trkpt>
      <trkpt lat="43.54126" lon="2.99146">
        <ele>427</ele>
        <time>2017-03-31T16:50:48Z</time>
      </trkpt>
      <trkpt lat="43.54125" lon="2.99135">
        <ele>428</ele>
        <time>2017-03-31T16:52:48Z</time>
      </trkpt>
      <trkpt lat="43.54121" lon="2.99121">
        <ele>428</ele>
        <time>2017-03-31T16:54:48Z</time>
      </trkpt>
      <trkpt lat="43.54121" lon="2.99119">
        <ele>428</ele>
        <time>2017-03-31T16:56:48Z</time>
      </trkpt>
      <trkpt lat="43.54125" lon="2.991">
        <ele>430</ele>
        <time>2017-03-31T16:58:48Z</time>
      </trkpt>
      <trkpt lat="43.54129" lon="2.99087">
        <ele>432</ele>
        <time>2017-03-31T17:00:48Z</time>
      </trkpt>
      <trkpt lat="43.54134" lon="2.99063">
        <ele>436</ele>
        <time>2017-03-31T17:02:48Z</time>
      </trkpt>
      <trkpt lat="43.54136" lon="2.99059">
        <ele>437</ele>
        <time>2017-03-31T17:04:48Z</time>
      </trkpt>
      <trkpt lat="43.54136" lon="2.99057">
        <ele>437</ele>
        <time>2017-03-31T17:06:48Z</time>
      </trkpt>
      <trkpt lat="43.54137" lon="2.99055">
        <ele>437</ele>
        <time>2017-03-31T17:08:48Z</time>
      </trkpt>
      <trkpt lat="43.5414" lon="2.99034">
        <ele>438</ele>
        <time>2017-03-31T17:10:48Z</time>
      </trkpt>
      <trkpt lat="43.54141" lon="2.99">
        <ele>443</ele>
        <time>2017-03-31T17:12:48Z</time>
      </trkpt>
      <trkpt lat="43.54141" lon="2.98994">
        <ele>443</ele>
        <time>2017-03-31T17:14:48Z</time>
      </trkpt>
      <trkpt lat="43.54129" lon="2.98974">
        <ele>438</ele>
        <time>2017-03-31T17:16:48Z</time>
      </trkpt>
      <trkpt lat="43.54127" lon="2.98971">
        <ele>437</ele>
        <time>2017-03-31T17:18:48Z</time>
      </trkpt>
      <trkpt lat="43.54115" lon="2.98952">
        <ele>434</ele>
        <time>2017-03-31T17:20:48Z</time>
      </trkpt>
      <trkpt lat="43.54106" lon="2.98929">
        <ele>430</ele>
        <time>2017-03-31T17:22:48Z</time>
      </trkpt>
      <trkpt lat="43.54101" lon="2.9891">
        <ele>432</ele>
        <time>2017-03-31T17:24:48Z</time>
      </trkpt>
      <trkpt lat="43.54101" lon="2.98905">
        <ele>434</ele>
        <time>2017-03-31T17:26:48Z</time>
      </trkpt>
      <trkpt lat="43.54101" lon="2.98896">
        <ele>437</ele>
        <time>2017-03-31T17:28:48Z</time>
      </trkpt>
      <trkpt lat="43.541" lon="2.9889">
        <ele>438</ele>
        <time>2017-03-31T17:30:48Z</time>
      </trkpt>
      <trkpt lat="43.54097" lon="2.98883">
        <ele>439</ele>
        <time>2017-03-31T17:32:48Z</time>
      </trkpt>
      <trkpt lat="43.54096" lon="2.98882">
        <ele>439</ele>
        <time>2017-03-31T17:34:48Z</time>
      </trkpt>
      <trkpt lat="43.54093" lon="2.98863">
        <ele>441</ele>
        <time>2017-03-31T17:36:48Z</time>
      </trkpt>
      <trkpt lat="43.54087" lon="2.98844">
        <ele>436</ele>
        <time>2017-03-31T17:38:48Z</time>
      </trkpt>
      <trkpt lat="43.54084" lon="2.9883">
        <ele>433</ele>
        <time>2017-03-31T17:40:48Z</time>
      </trkpt>
      <trkpt lat="43.54081" lon="2.98822">
        <ele>419</ele>
        <time>2017-03-31T17:42:48Z</time>
      </trkpt>
      <trkpt lat="43.54077" lon="2.98815">
        <ele>414</ele>
        <time>2017-03-31T17:44:48Z</time>
      </trkpt>
      <trkpt lat="43.54076" lon="2.98811">
        <ele>413</ele>
        <time>2017-03-31T17:46:48Z</time>
      </trkpt>
      <trkpt lat="43.54075" lon="2.98783">
        <ele>411</ele>
        <time>2017-03-31T17:48:48Z</time>
      </trkpt>
      <trkpt lat="43.5407" lon="2.98761">
        <ele>415</ele>
        <time>2017-03-31T17:50:48Z</time>
      </trkpt>
      <trkpt lat="43.54065" lon="2.98747">
        <ele>412</ele>
        <time>2017-03-31T17:52:48Z</time>
      </trkpt>
      <trkpt lat="43.54046" lon="2.9871">
        <ele>398</ele>
        <time>2017-03-31T17:54:48Z</time>
      </trkpt>
      <trkpt lat="43.54041" lon="2.98694">
        <ele>395</ele>
        <time>2017-03-31T17:56:48Z</time>
      </trkpt>
      <trkpt lat="43.54037" lon="2.98685">
        <ele>394</ele>
        <time>2017-03-31T17:58:48Z</time>
      </trkpt>
      <trkpt lat="43.54038" lon="2.98675">
        <ele>393</ele>
        <time>2017-03-31T18:00:48Z</time>
      </trkpt>
      <trkpt lat="43.54039" lon="2.98674">
        <ele>393</ele>
        <time>2017-03-31T18:02:48Z</time>
      </trkpt>
      <trkpt lat="43.54052" lon="2.98661">
        <ele>385</ele>
        <time>2017-03-31T18:04:48Z</time>
      </trkpt>
      <trkpt lat="43.54065" lon="2.98651">
        <ele>387</ele>
        <time>2017-03-31T18:06:48Z</time>
      </trkpt>
      <trkpt lat="43.54073" lon="2.98642">
        <ele>386</ele>
        <time>2017-03-31T18:08:48Z</time>
      </trkpt>
      <trkpt lat="43.54076" lon="2.98632">
        <ele>383</ele>
        <time>2017-03-31T18:10:48Z</time>
      </trkpt>
      <trkpt lat="43.54076" lon="2.98629">
        <ele>382</ele>
        <time>2017-03-31T18:12:48Z</time>
      </trkpt>
      <trkpt lat="43.54079" lon="2.98623">
        <ele>380</ele>
        <time>2017-03-31T18:14:48Z</time>
      </trkpt>
      <trkpt lat="43.54081" lon="2.98613">
        <ele>378</ele>
        <time>2017-03-31T18:16:48Z</time>
      </trkpt>
      <trkpt lat="43.54088" lon="2.986">
        <ele>389</ele>
        <time>2017-03-31T18:18:48Z</time>
      </trkpt>
      <trkpt lat="43.541" lon="2.98585">
        <ele>388</ele>
        <time>2017-03-31T18:20:48Z</time>
      </trkpt>
      <trkpt lat="43.54113" lon="2.98568">
        <ele>376</ele>
        <time>2017-03-31T18:22:48Z</time>
      </trkpt>
      <trkpt lat="43.54123" lon="2.98547">
        <ele>375</ele>
        <time>2017-03-31T18:24:48Z</time>
      </trkpt>
      <trkpt lat="43.54129" lon="2.98533">
        <ele>374</ele>
        <time>2017-03-31T18:26:48Z</time>
      </trkpt>
      <trkpt lat="43.54135" lon="2.98508">
        <ele>373</ele>
        <time>2017-03-31T18:28:48Z</time>
      </trkpt>
      <trkpt lat="43.5413" lon="2.98475">
        <ele>349</ele>
        <time>2017-03-31T18:30:48Z</time>
      </trkpt>
      <trkpt lat="43.54131" lon="2.98458">
        <ele>347</ele>
        <time>2017-03-31T18:32:48Z</time>
      </trkpt>
      <trkpt lat="43.54132" lon="2.98453">
        <ele>346</ele>
        <time>2017-03-31T18:34:48Z</time>
      </trkpt>
      <trkpt lat="43.5413" lon="2.98442">
        <ele>344</ele>
        <time>2017-03-31T18:36:48Z</time>
      </trkpt>
      <trkpt lat="43.5413" lon="2.98436">
        <ele>344</ele>
        <time>2017-03-31T18:38:48Z</time>
      </trkpt>
      <trkpt lat="43.54132" lon="2.98434">
        <ele>344</ele>
        <time>2017-03-31T18:40:48Z</time>
      </trkpt>
      <trkpt lat="43.54147" lon="2.98422">
        <ele>349</ele>
        <time>2017-03-31T18:42:48Z</time>
      </trkpt>
      <trkpt lat="43.54155" lon="2.98416">
        <ele>342</ele>
        <time>2017-03-31T18:44:48Z</time>
      </trkpt>
      <trkpt lat="43.54162" lon="2.98405">
        <ele>341</ele>
        <time>2017-03-31T18:46:48Z</time>
      </trkpt>
      <trkpt lat="43.54165" lon="2.98394">
        <ele>334</ele>
        <time>2017-03-31T18:48:48Z</time>
      </trkpt>
      <trkpt lat="43.54163" lon="2.98369">
        <ele>324</ele>
        <time>2017-03-31T18:50:48Z</time>
      </trkpt>
      <trkpt lat="43.54165" lon="2.98366">
        <ele>323</ele>
        <time>2017-03-31T18:52:48Z</time>
      </trkpt>
      <trkpt lat="43.54167" lon="2.9836">
        <ele>335</ele>
        <time>2017-03-31T18:54:48Z</time>
      </trkpt>
      <trkpt lat="43.54163" lon="2.98346">
        <ele>321</ele>
        <time>2017-03-31T18:56:48Z</time>
      </trkpt>
      <trkpt lat="43.54163" lon="2.98344">
        <ele>321</ele>
        <time>2017-03-31T18:58:48Z</time>
      </trkpt>
      <trkpt lat="43.54165" lon="2.98336">
        <ele>322</ele>
        <time>2017-03-31T19:00:48Z</time>
      </trkpt>
      <trkpt lat="43.54162" lon="2.9833">
        <ele>316</ele>
        <time>2017-03-31T19:02:48Z</time>
      </trkpt>
      <trkpt lat="43.54161" lon="2.98318">
        <ele>308</ele>
        <time>2017-03-31T19:04:48Z</time>
      </trkpt>
      <trkpt lat="43.54156" lon="2.98307">
        <ele>301</ele>
        <time>2017-03-31T19:06:48Z</time>
      </trkpt>
      <trkpt lat="43.54155" lon="2.98303">
        <ele>300</ele>
        <time>2017-03-31T19:08:48Z</time>
      </trkpt>
      <trkpt lat="43.5415" lon="2.98256">
        <ele>293</ele>
        <time>2017-03-31T19:10:48Z</time>
      </trkpt>
      <trkpt lat="43.5415" lon="2.98245">
        <ele>283</ele>
        <time>2017-03-31T19:12:48Z</time>
      </trkpt>
      <trkpt lat="43.54147" lon="2.98228">
        <ele>278</ele>
        <time>2017-03-31T19:14:48Z</time>
      </trkpt>
      <trkpt lat="43.54145" lon="2.98223">
        <ele>276</ele>
        <time>2017-03-31T19:16:48Z</time>
      </trkpt>
      <trkpt lat="43.54148" lon="2.98223">
        <ele>277</ele>
        <time>2017-03-31T19:18:48Z</time>
      </trkpt>
      <trkpt lat="43.5415" lon="2.98218">
        <ele>276</ele>
        <time>2017-03-31T19:20:48Z</time>
      </trkpt>
      <trkpt lat="43.5415" lon="2.98216">
        <ele>276</ele>
        <time>2017-03-31T19:22:48Z</time>
      </trkpt>
      <trkpt lat="43.54147" lon="2.98204">
        <ele>273</ele>
        <time>2017-03-31T19:24:48Z</time>
      </trkpt>
      <trkpt lat="43.54147" lon="2.98169">
        <ele>271</ele>
        <time>2017-03-31T19:26:48Z</time>
      </trkpt>
      <trkpt lat="43.54142" lon="2.98159">
        <ele>259</ele>
        <time>2017-03-31T19:28:48Z</time>
      </trkpt>
      <trkpt lat="43.54136" lon="2.9814">
        <ele>254</ele>
        <time>2017-03-31T19:30:48Z</time>
      </trkpt>
      <trkpt lat="43.54131" lon="2.98133">
        <ele>253</ele>
        <time>2017-03-31T19:32:48Z</time>
      </trkpt>
      <trkpt lat="43.54135" lon="2.98128">
        <ele>252</ele>
        <time>2017-03-31T19:34:48Z</time>
      </trkpt>
      <trkpt lat="43.54136" lon="2.98127">
        <ele>252</ele>
        <time>2017-03-31T19:36:48Z</time>
      </trkpt>
      <trkpt lat="43.54137" lon="2.98126">
        <ele>252</ele>
        <time>2017-03-31T19:38:48Z</time>
      </trkpt>
      <trkpt lat="43.54136" lon="2.98118">
        <ele>251</ele>
        <time>2017-03-31T19:40:48Z</time>
      </trkpt>
      <trkpt lat="43.54124" lon="2.98102">
        <ele>248</ele>
        <time>2017-03-31T19:42:48Z</time>
      </trkpt>
      <trkpt lat="43.54111" lon="2.98091">
        <ele>245</ele>
        <time>2017-03-31T19:44:48Z</time>
      </trkpt>
      <trkpt lat="43.541" lon="2.98085">
        <ele>241</ele>
        <time>2017-03-31T19:46:48Z</time>
      </trkpt>
      <trkpt lat="43.54097" lon="2.98084">
        <ele>240</ele>
        <time>2017-03-31T19:48:48Z</time>
      </trkpt>
      <trkpt lat="43.54098" lon="2.9808">
        <ele>231</ele>
        <time>2017-03-31T19:50:48Z</time>
      </trkpt>
      <trkpt lat="43.54103" lon="2.98078">
        <ele>231</ele>
        <time>2017-03-31T19:52:48Z</time>
      </trkpt>
      <trkpt lat="43.54103" lon="2.98072">
        <ele>231</ele>
        <time>2017-03-31T19:54:48Z</time>
      </trkpt>
      <trkpt lat="43.54098" lon="2.98067">
        <ele>230</ele>
        <time>2017-03-31T19:56:48Z</time>
      </trkpt>
      <trkpt lat="43.54095" lon="2.98062">
        <ele>229</ele>
        <time>2017-03-31T19:58:48Z</time>
      </trkpt>
      <trkpt lat="43.54095" lon="2.98063">
        <ele>230</ele>
        <time>2017-03-31T20:00:48Z</time>
      </trkpt>
      <trkpt lat="43.54095" lon="2.98063">
        <ele>230</ele>
        <time>2017-03-31T20:02:48Z</time>
      </trkpt>
      <trkpt lat="43.54103" lon="2.98058">
        <ele>229</ele>
        <time>2017-03-31T20:04:48Z</time>
      </trkpt>
      <trkpt lat="43.54107" lon="2.98057">
        <ele>229</ele>
        <time>2017-03-31T20:06:48Z</time>
      </trkpt>
      <trkpt lat="43.54116" lon="2.98049">
        <ele>228</ele>
        <time>2017-03-31T20:08:48Z</time>
      </trkpt>
      <trkpt lat="43.54118" lon="2.98042">
        <ele>228</ele>
        <time>2017-03-31T20:10:48Z</time>
      </trkpt>
      <trkpt lat="43.54114" lon="2.98038">
        <ele>227</ele>
        <time>2017-03-31T20:12:48Z</time>
      </trkpt>
      <trkpt lat="43.54117" lon="2.98034">
        <ele>226</ele>
        <time>2017-03-31T20:14:48Z</time>
      </trkpt>
      <trkpt lat="43.54118" lon="2.9803">
        <ele>226</ele>
        <time>2017-03-31T20:16:48Z</time>
      </trkpt>
      <trkpt lat="43.54119" lon="2.98026">
        <ele>225</ele>
        <time>2017-03-31T20:18:48Z</time>
      </trkpt>
      <trkpt lat="43.54124" lon="2.98024">
        <ele>225</ele>
        <time>2017-03-31T20:20:48Z</time>
      </trkpt>
      <trkpt lat="43.54121" lon="2.98022">
        <ele>225</ele>
        <time>2017-03-31T20:22:48Z</time>
      </trkpt>
      <trkpt lat="43.54124" lon="2.98017">
        <ele>225</ele>
        <time>2017-03-31T20:24:48Z</time>
      </trkpt>
      <trkpt lat="43.54125" lon="2.98007">
        <ele>224</ele>
        <time>2017-03-31T20:26:48Z</time>
      </trkpt>
      <trkpt lat="43.54134" lon="2.97999">
        <ele>209</ele>
        <time>2017-03-31T20:28:48Z</time>
      </trkpt>
      <trkpt lat="43.54141" lon="2.97995">
        <ele>210</ele>
        <time>2017-03-31T20:30:48Z</time>
      </trkpt>
      <trkpt lat="43.54146" lon="2.97988">
        <ele>210</ele>
        <time>2017-03-31T20:32:48Z</time>
      </trkpt>
      <trkpt lat="43.5415" lon="2.97975">
        <ele>208</ele>
        <time>2017-03-31T20:34:48Z</time>
      </trkpt>
      <trkpt lat="43.5416" lon="2.97957">
        <ele>204</ele>
        <time>2017-03-31T20:36:48Z</time>
      </trkpt>
      <trkpt lat="43.54162" lon="2.97945">
        <ele>202</ele>
        <time>2017-03-31T20:38:48Z</time>
      </trkpt>
      <trkpt lat="43.54157" lon="2.97926">
        <ele>198</ele>
        <time>2017-03-31T20:40:48Z</time>
      </trkpt>
      <trkpt lat="43.5416" lon="2.97909">
        <ele>191</ele>
        <time>2017-03-31T20:42:48Z</time>
      </trkpt>
      <trkpt lat="43.54174" lon="2.97904">
        <ele>184</ele>
        <time>2017-03-31T20:44:48Z</time>
      </trkpt>
      <trkpt lat="43.54177" lon="2.97901">
        <ele>182</ele>
        <time>2017-03-31T20:46:48Z</time>
      </trkpt>
      <trkpt lat="43.54181" lon="2.97883">
        <ele>177</ele>
        <time>2017-03-31T20:48:48Z</time>
      </trkpt>
      <trkpt lat="43.54185" lon="2.97874">
        <ele>175</ele>
        <time>2017-03-31T20:50:48Z</time>
      </trkpt>
      <trkpt lat="43.54201" lon="2.97853">
        <ele>170</ele>
        <time>2017-03-31T20:52:48Z</time>
      </trkpt>
      <trkpt lat="43.54203" lon="2.97841">
        <ele>169</ele>
        <time>2017-03-31T20:54:48Z</time>
      </trkpt>
      <trkpt lat="43.54205" lon="2.9782">
        <ele>163</ele>
        <time>2017-03-31T20:56:48Z</time>
      </trkpt>
      <trkpt lat="43.54206" lon="2.97813">
        <ele>162</ele>
        <time>2017-03-31T20:58:48Z</time>
      </trkpt>
      <trkpt lat="43.54201" lon="2.97823">
        <ele>164</ele>
        <time>2017-03-31T21:00:48Z</time>
      </trkpt>
      <trkpt lat="43.54202" lon="2.97839">
        <ele>170</ele>
        <time>2017-03-31T21:02:48Z</time>
      </trkpt>
      <trkpt lat="43.54203" lon="2.97842">
        <ele>169</ele>
        <time>2017-03-31T21:04:48Z</time>
      </trkpt>
      <trkpt lat="43.54209" lon="2.97856">
        <ele>168</ele>
        <time>2017-03-31T21:06:48Z</time>
      </trkpt>
      <trkpt lat="43.54217" lon="2.9788">
        <ele>169</ele>
        <time>2017-03-31T21:08:48Z</time>
      </trkpt>
      <trkpt lat="43.54225" lon="2.97897">
        <ele>168</ele>
        <time>2017-03-31T21:10:48Z</time>
      </trkpt>
      <trkpt lat="43.5424" lon="2.97918">
        <ele>169</ele>
        <time>2017-03-31T21:12:48Z</time>
      </trkpt>
      <trkpt lat="43.54256" lon="2.9794">
        <ele>156</ele>
        <time>2017-03-31T21:14:48Z</time>
      </trkpt>
      <trkpt lat="43.54271" lon="2.97962">
        <ele>157</ele>
        <time>2017-03-31T21:16:48Z</time>
      </trkpt>
      <trkpt lat="43.54278" lon="2.97974">
        <ele>158</ele>
        <time>2017-03-31T21:18:48Z</time>
      </trkpt>
      <trkpt lat="43.54284" lon="2.97998">
        <ele>159</ele>
        <time>2017-03-31T21:20:48Z</time>
      </trkpt>
      <trkpt lat="43.54292" lon="2.98015">
        <ele>174</ele>
        <time>2017-03-31T21:22:48Z</time>
      </trkpt>
      <trkpt lat="43.5431" lon="2.98017">
        <ele>168</ele>
        <time>2017-03-31T21:24:48Z</time>
      </trkpt>
      <trkpt lat="43.54323" lon="2.98022">
        <ele>166</ele>
        <time>2017-03-31T21:26:48Z</time>
      </trkpt>
      <trkpt lat="43.54332" lon="2.98034">
        <ele>169</ele>
        <time>2017-03-31T21:28:48Z</time>
      </trkpt>
      <trkpt lat="43.54342" lon="2.98054">
        <ele>155</ele>
        <time>2017-03-31T21:30:48Z</time>
      </trkpt>
      <trkpt lat="43.54356" lon="2.98064">
        <ele>155</ele>
        <time>2017-03-31T21:32:48Z</time>
      </trkpt>
      <trkpt lat="43.54358" lon="2.98071">
        <ele>156</ele>
        <time>2017-03-31T21:34:48Z</time>
      </trkpt>
      <trkpt lat="43.54363" lon="2.98085">
        <ele>176</ele>
        <time>2017-03-31T21:36:48Z</time>
      </trkpt>
      <trkpt lat="43.54377" lon="2.98092">
        <ele>175</ele>
        <time>2017-03-31T21:38:48Z</time>
      </trkpt>
      <trkpt lat="43.5438" lon="2.98092">
        <ele>174</ele>
        <time>2017-03-31T21:40:48Z</time>
      </trkpt>
      <trkpt lat="43.54399" lon="2.98091">
        <ele>166</ele>
        <time>2017-03-31T21:42:48Z</time>
      </trkpt>
      <trkpt lat="43.54409" lon="2.9809">
        <ele>160</ele>
        <time>2017-03-31T21:44:48Z</time>
      </trkpt>
      <trkpt lat="43.54426" lon="2.98101">
        <ele>153</ele>
        <time>2017-03-31T21:46:48Z</time>
      </trkpt>
      <trkpt lat="43.54433" lon="2.98107">
        <ele>154</ele>
        <time>2017-03-31T21:48:48Z</time>
      </trkpt>
      <trkpt lat="43.54452" lon="2.98128">
        <ele>156</ele>
        <time>2017-03-31T21:50:48Z</time>
      </trkpt>
      <trkpt lat="43.54462" lon="2.98136">
        <ele>156</ele>
        <time>2017-03-31T21:52:48Z</time>
      </trkpt>
      <trkpt lat="43.54475" lon="2.98145">
        <ele>155</ele>
        <time>2017-03-31T21:54:48Z</time>
      </trkpt>
      <trkpt lat="43.54486" lon="2.98156">
        <ele>154</ele>
        <time>2017-03-31T21:56:48Z</time>
      </trkpt>
      <trkpt lat="43.54497" lon="2.98171">
        <ele>160</ele>
        <time>2017-03-31T21:58:48Z</time>
      </trkpt>
      <trkpt lat="43.54506" lon="2.98189">
        <ele>157</ele>
        <time>2017-03-31T22:00:48Z</time>
      </trkpt>
      <trkpt lat="43.54513" lon="2.98214">
        <ele>161</ele>
        <time>2017-03-31T22:02:48Z</time>
      </trkpt>
      <trkpt lat="43.54519" lon="2.98224">
        <ele>163</ele>
        <time>2017-03-31T22:04:48Z</time>
      </trkpt>
      <trkpt lat="43.54528" lon="2.98221">
        <ele>161</ele>
        <time>2017-03-31T22:06:48Z</time>
      </trkpt>
      <trkpt lat="43.5453" lon="2.98213">
        <ele>160</ele>
        <time>2017-03-31T22:08:48Z</time>
      </trkpt>
      <trkpt lat="43.54538" lon="2.9821">
        <ele>158</ele>
        <time>2017-03-31T22:10:48Z</time>
      </trkpt>
      <trkpt lat="43.54539" lon="2.98208">
        <ele>158</ele>
        <time>2017-03-31T22:12:48Z</time>
      </trkpt>
      <trkpt lat="43.54545" lon="2.98203">
        <ele>156</ele>
        <time>2017-03-31T22:14:48Z</time>
      </trkpt>
      <trkpt lat="43.54539" lon="2.98206">
        <ele>158</ele>
        <time>2017-03-31T22:16:48Z</time>
      </trkpt>
      <trkpt lat="43.54535" lon="2.98205">
        <ele>158</ele>
        <time>2017-03-31T22:18:48Z</time>
      </trkpt>
      <trkpt lat="43.54534" lon="2.98197">
        <ele>156</ele>
        <time>2017-03-31T22:20:48Z</time>
      </trkpt>
      <trkpt lat="43.54535" lon="2.98194">
        <ele>156</ele>
        <time>2017-03-31T22:22:48Z</time>
      </trkpt>
      <trkpt lat="43.54512" lon="2.98203">
        <ele>159</ele>
        <time>2017-03-31T22:24:48Z</time>
      </trkpt>
      <trkpt lat="43.54506" lon="2.982">
        <ele>159</ele>
        <time>2017-03-31T22:26:48Z</time>
      </trkpt>
      <trkpt lat="43.54506" lon="2.98199">
        <ele>158</ele>
        <time>2017-03-31T22:28:48Z</time>
      </trkpt>
      <trkpt lat="43.5451" lon="2.982">
        <ele>159</ele>
        <time>2017-03-31T22:30:48Z</time>
      </trkpt>
      <trkpt lat="43.5451" lon="2.982">
        <ele>159</ele>
        <time>2017-03-31T22:32:48Z</time>
      </trkpt>
      <trkpt lat="43.54499" lon="2.98197">
        <ele>176</ele>
        <time>2017-03-31T22:34:48Z</time>
      </trkpt>
      <trkpt lat="43.54502" lon="2.98203">
        <ele>159</ele>
        <time>2017-03-31T22:36:48Z</time>
      </trkpt>
      <trkpt lat="43.54525" lon="2.98193">
        <ele>157</ele>
        <time>2017-03-31T22:38:48Z</time>
      </trkpt>
      <trkpt lat="43.54498" lon="2.98207">
        <ele>179</ele>
        <time>2017-03-31T22:40:48Z</time>
      </trkpt>
      <trkpt lat="43.54495" lon="2.98209">
        <ele>180</ele>
        <time>2017-03-31T22:42:48Z</time>
      </trkpt>
      <trkpt lat="43.54515" lon="2.98199">
        <ele>158</ele>
        <time>2017-03-31T22:44:48Z</time>
      </trkpt>
      <trkpt lat="43.54522" lon="2.98197">
        <ele>157</ele>
        <time>2017-03-31T22:46:48Z</time>
      </trkpt>
      <trkpt lat="43.54524" lon="2.98198">
        <ele>157</ele>
        <time>2017-03-31T22:48:48Z</time>
      </trkpt>
      <trkpt lat="43.54544" lon="2.98197">
        <ele>155</ele>
        <time>2017-03-31T22:50:48Z</time>
      </trkpt>
      <trkpt lat="43.54555" lon="2.98199">
        <ele>154</ele>
        <time>2017-03-31T22:52:48Z</time>
      </trkpt>
      <trkpt lat="43.54555" lon="2.98203">
        <ele>155</ele>
        <time>2017-03-31T22:54:48Z</time>
      </trkpt>
      <trkpt lat="43.54549" lon="2.98202">
        <ele>156</ele>
        <time>2017-03-31T22:56:48Z</time>
      </trkpt>
      <trkpt lat="43.54563" lon="2.98196">
        <ele>152</ele>
        <time>2017-03-31T22:58:48Z</time>
      </trkpt>
      <trkpt lat="43.54556" lon="2.98197">
        <ele>154</ele>
        <time>2017-03-31T23:00:48Z</time>
      </trkpt>
      <trkpt lat="43.5456" lon="2.98197">
        <ele>153</ele>
        <time>2017-03-31T23:02:48Z</time>
      </trkpt>
      <trkpt lat="43.54559" lon="2.98198">
        <ele>154</ele>
        <time>2017-03-31T23:04:48Z</time>
      </trkpt>
      <trkpt lat="43.54559" lon="2.98199">
        <ele>154</ele>
        <time>2017-03-31T23:06:48Z</time>
      </trkpt>
      <trkpt lat="43.54559" lon="2.982">
        <ele>154</ele>
        <time>2017-03-31T23:08:48Z</time>
      </trkpt>
      <trkpt lat="43.54562" lon="2.982">
        <ele>154</ele>
        <time>2017-03-31T23:10:48Z</time>
      </trkpt>
      <trkpt lat="43.54572" lon="2.98198">
        <ele>152</ele>
        <time>2017-03-31T23:12:48Z</time>
      </trkpt>
      <trkpt lat="43.54581" lon="2.9819">
        <ele>148</ele>
        <time>2017-03-31T23:14:48Z</time>
      </trkpt>
      <trkpt lat="43.54594" lon="2.98176">
        <ele>145</ele>
        <time>2017-03-31T23:16:48Z</time>
      </trkpt>
      <trkpt lat="43.54607" lon="2.98171">
        <ele>150</ele>
        <time>2017-03-31T23:18:48Z</time>
      </trkpt>
      <trkpt lat="43.54623" lon="2.98165">
        <ele>137</ele>
        <time>2017-03-31T23:20:48Z</time>
      </trkpt>
      <trkpt lat="43.54641" lon="2.9815">
        <ele>140</ele>
        <time>2017-03-31T23:22:48Z</time>
      </trkpt>
      <trkpt lat="43.54655" lon="2.98138">
        <ele>140</ele>
        <time>2017-03-31T23:24:48Z</time>
      </trkpt>
      <trkpt lat="43.5467" lon="2.98122">
        <ele>150</ele>
        <time>2017-03-31T23:26:48Z</time>
      </trkpt>
      <trkpt lat="43.54683" lon="2.98109">
        <ele>148</ele>
        <time>2017-03-31T23:28:48Z</time>
      </trkpt>
      <trkpt lat="43.54687" lon="2.98105">
        <ele>147</ele>
        <time>2017-03-31T23:30:48Z</time>
      </trkpt>
      <trkpt lat="43.54702" lon="2.98081">
        <ele>136</ele>
        <time>2017-03-31T23:32:48Z</time>
      </trkpt>
      <trkpt lat="43.54709" lon="2.98062">
        <ele>137</ele>
        <time>2017-03-31T23:34:48Z</time>
      </trkpt>
      <trkpt lat="43.54721" lon="2.98043">
        <ele>137</ele>
        <time>2017-03-31T23:36:48Z</time>
      </trkpt>
      <trkpt lat="43.54727" lon="2.98024">
        <ele>136</ele>
        <time>2017-03-31T23:38:48Z</time>
      </trkpt>
      <trkpt lat="43.54738" lon="2.98">
        <ele>137</ele>
        <time>2017-03-31T23:40:48Z</time>
      </trkpt>
      <trkpt lat="43.5475" lon="2.97987">
        <ele>134</ele>
        <time>2017-03-31T23:42:48Z</time>
      </trkpt>
      <trkpt lat="43.5476" lon="2.97981">
        <ele>138</ele>
        <time>2017-03-31T23:44:48Z</time>
      </trkpt>
      <trkpt lat="43.54787" lon="2.97967">
        <ele>138</ele>
        <time>2017-03-31T23:46:48Z</time>
      </trkpt>
      <trkpt lat="43.54802" lon="2.97961">
        <ele>138</ele>
        <time>2017-03-31T23:48:48Z</time>
      </trkpt>
      <trkpt lat="43.54818" lon="2.97958">
        <ele>139</ele>
        <time>2017-03-31T23:50:48Z</time>
      </trkpt>
      <trkpt lat="43.54836" lon="2.97967">
        <ele>141</ele>
        <time>2017-03-31T23:52:48Z</time>
      </trkpt>
      <trkpt lat="43.5485" lon="2.9798">
        <ele>142</ele>
        <time>2017-03-31T23:54:48Z</time>
      </trkpt>
      <trkpt lat="43.54863" lon="2.97993">
        <ele>142</ele>
        <time>2017-03-31T23:56:48Z</time>
      </trkpt>
      <trkpt lat="43.54877" lon="2.98005">
        <ele>148</ele>
        <time>2017-03-31T23:58:48Z</time>
      </trkpt>
      <trkpt lat="43.54901" lon="2.98025">
        <ele>148</ele>
        <time>2017-04-01T00:00:48Z</time>
      </trkpt>
      <trkpt lat="43.54925" lon="2.98039">
        <ele>148</ele>
        <time>2017-04-01T00:02:48Z</time>
      </trkpt>
      <trkpt lat="43.54951" lon="2.98054">
        <ele>149</ele>
        <time>2017-04-01T00:04:48Z</time>
      </trkpt>
      <trkpt lat="43.54969" lon="2.98066">
        <ele>149</ele>
        <time>2017-04-01T00:06:48Z</time>
      </trkpt>
      <trkpt lat="43.54984" lon="2.98077">
        <ele>149</ele>
        <time>2017-04-01T00:08:48Z</time>
      </trkpt>
      <trkpt lat="43.54998" lon="2.98088">
        <ele>154</ele>
        <time>2017-04-01T00:10:48Z</time>
      </trkpt>
      <trkpt lat="43.55017" lon="2.98109">
        <ele>155</ele>
        <time>2017-04-01T00:12:48Z</time>
      </trkpt>
      <trkpt lat="43.55032" lon="2.9813">
        <ele>156</ele>
        <time>2017-04-01T00:14:48Z</time>
      </trkpt>
      <trkpt lat="43.55045" lon="2.98158">
        <ele>157</ele>
        <time>2017-04-01T00:16:48Z</time>
      </trkpt>
      <trkpt lat="43.55058" lon="2.98193">
        <ele>165</ele>
        <time>2017-04-01T00:18:48Z</time>
      </trkpt>
      <trkpt lat="43.55065" lon="2.98224">
        <ele>166</ele>
        <time>2017-04-01T00:20:48Z</time>
      </trkpt>
      <trkpt lat="43.55067" lon="2.9825">
        <ele>165</ele>
        <time>2017-04-01T00:22:48Z</time>
      </trkpt>
      <trkpt lat="43.55079" lon="2.98258">
        <ele>167</ele>
        <time>2017-04-01T00:24:48Z</time>
      </trkpt>
      <trkpt lat="43.55098" lon="2.9826">
        <ele>167</ele>
        <time>2017-04-01T00:26:48Z</time>
      </trkpt>
      <trkpt lat="43.55116" lon="2.98251">
        <ele>169</ele>
        <time>2017-04-01T00:28:48Z</time>
      </trkpt>
      <trkpt lat="43.55136" lon="2.98236">
        <ele>162</ele>
        <time>2017-04-01T00:30:48Z</time>
      </trkpt>
      <trkpt lat="43.55155" lon="2.98221">
        <ele>162</ele>
        <time>2017-04-01T00:32:48Z</time>
      </trkpt>
      <trkpt lat="43.55177" lon="2.98205">
        <ele>166</ele>
        <time>2017-04-01T00:34:48Z</time>
      </trkpt>
      <trkpt lat="43.552" lon="2.98195">
        <ele>166</ele>
        <time>2017-04-01T00:36:48Z</time>
      </trkpt>
      <trkpt lat="43.55229" lon="2.98186">
        <ele>167</ele>
        <time>2017-04-01T00:38:48Z</time>
      </trkpt>
      <trkpt lat="43.55244" lon="2.98177">
        <ele>167</ele>
        <time>2017-04-01T00:40:48Z</time>
      </trkpt>
      <trkpt lat="43.55261" lon="2.98161">
        <ele>166</ele>
        <time>2017-04-01T00:42:48Z</time>
      </trkpt>
      <trkpt lat="43.55276" lon="2.9814">
        <ele>165</ele>
        <time>2017-04-01T00:44:48Z</time>
      </trkpt>
      <trkpt lat="43.55293" lon="2.98124">
        <ele>164</ele>
        <time>2017-04-01T00:46:48Z</time>
      </trkpt>
      <trkpt lat="43.55301" lon="2.98123">
        <ele>163</ele>
        <time>2017-04-01T00:48:48Z</time>
      </trkpt>
      <trkpt lat="43.55308" lon="2.98131">
        <ele>164</ele>
        <time>2017-04-01T00:50:48Z</time>
      </trkpt>
      <trkpt lat="43.55448" lon="2.9828">
        <ele>169</ele>
      </trkpt>
      <trkpt lat="43.55551" lon="2.9835">
        <ele>176</ele>
      </trkpt>
      <trkpt lat="43.557" lon="2.9834">
        <ele>165</ele>
      </trkpt>
      <trkpt lat="43.5575" lon="2.98363">
        <ele>175</ele>
      </trkpt>
      <trkpt lat="43.55784" lon="2.98324">
        <ele>153</ele>
      </trkpt>
      <trkpt lat="43.55836" lon="2.98298">
        <ele>172</ele>
      </trkpt>
      <trkpt lat="43.55912" lon="2.98192">
        <ele>149</ele>
      </trkpt>
      <trkpt lat="43.56034" lon="2.97958">
        <ele>146</ele>
      </trkpt>
      <trkpt lat="43.56057" lon="2.97706">
        <ele>141</ele>
      </trkpt>
      <trkpt lat="43.56255" lon="2.97581">
        <ele>144</ele>
      </trkpt>
      <trkpt lat="43.56352" lon="2.97555">
        <ele>150</ele>
      </trkpt>
      <trkpt lat="43.5656" lon="2.97379">
        <ele>151</ele>
      </trkpt>
      <trkpt lat="43.56568" lon="2.97142">
        <ele>163</ele>
      </trkpt>
      <trkpt lat="43.56586" lon="2.97028">
        <ele>172</ele>
      </trkpt>
      <trkpt lat="43.56586" lon="2.96924">
        <ele>170</ele>
      </trkpt>
      <trkpt lat="43.56677" lon="2.9661">
        <ele>172</ele>
      </trkpt>
      <trkpt lat="43.56591" lon="2.95656">
        <ele>169</ele>
      </trkpt>
      <trkpt lat="43.56639" lon="2.95253">
        <ele>170</ele>
      </trkpt>
      <trkpt lat="43.56618" lon="2.95134">
        <ele>165</ele>
      </trkpt>
      <trkpt lat="43.56681" lon="2.94918">
        <ele>169</ele>
      </trkpt>
      <trkpt lat="43.56674" lon="2.94791">
        <ele>176</ele>
      </trkpt>
      <trkpt lat="43.56632" lon="2.94656">
        <ele>168</ele>
      </trkpt>
      <trkpt lat="43.56553" lon="2.94541">
        <ele>163</ele>
      </trkpt>
      <trkpt lat="43.56442" lon="2.94458">
        <ele>164</ele>
      </trkpt>
      <trkpt lat="43.56406" lon="2.94326">
        <ele>167</ele>
      </trkpt>
    </trkseg>
  </trk>
</gpx>